<?xml version='1.0' encoding='UTF-8'?><gpx version="1.1" creator="JPX - https://github.com/jenetics/jpx" xmlns="http://www.topografix.com/GPX/1/1"><trk><trkseg><trkpt lat="45.56323886370035" lon="10.317779995700477"><ele>329.0</ele><time>2026-04-04T07:30:52.999Z</time></trkpt><trkpt lat="45.563343690150475" lon="10.31779130482783"><ele>329.0</ele><time>2026-04-04T07:30:54.999Z</time></trkpt><trkpt lat="45.563427946526254" lon="10.317742152184197"><ele>329.0</ele><time>2026-04-04T07:30:55.999Z</time></trkpt><trkpt lat="45.56354224794369" lon="10.317683741027887"><ele>329.0</ele><time>2026-04-04T07:30:56.999Z</time></trkpt><trkpt lat="45.56362924777205" lon="10.317621120526809"><ele>329.0</ele><time>2026-04-04T07:30:57.999Z</time></trkpt><trkpt lat="45.5637178933169" lon="10.317545851405718"><ele>332.4</ele><time>2026-04-04T07:30:58.999Z</time></trkpt><trkpt lat="45.56379665766541" lon="10.317515479543136"><ele>335.79999999999995</ele><time>2026-04-04T07:30:59.999Z</time></trkpt><trkpt lat="45.56387477743061" lon="10.317491210938702"><ele>339.20000000000005</ele><time>2026-04-04T07:31:00.999Z</time></trkpt><trkpt lat="45.56397931587741" lon="10.317488813041791"><ele>342.6</ele><time>2026-04-04T07:31:01.999Z</time></trkpt><trkpt lat="45.564067834891624" lon="10.317422004783353"><ele>346.0</ele><time>2026-04-04T07:31:02.999Z</time></trkpt><trkpt lat="45.564143435653975" lon="10.31735409050095"><ele>346.0</ele><time>2026-04-04T07:31:03.999Z</time></trkpt><trkpt lat="45.564208134298276" lon="10.317301482980128"><ele>346.0</ele><time>2026-04-04T07:31:04.999Z</time></trkpt><trkpt lat="45.56429527707871" lon="10.317259286685983"><ele>346.0</ele><time>2026-04-04T07:31:05.999Z</time></trkpt><trkpt lat="45.564378790998134" lon="10.317190693310964"><ele>346.0</ele><time>2026-04-04T07:31:06.999Z</time></trkpt><trkpt lat="45.56445462235196" lon="10.317153382249165"><ele>346.0</ele><time>2026-04-04T07:31:07.999Z</time></trkpt><trkpt lat="45.56457892986894" lon="10.317066947187238"><ele>345.3333333333333</ele><time>2026-04-04T07:31:09.999Z</time></trkpt><trkpt lat="45.56465045209199" lon="10.317051704859539"><ele>344.66666666666663</ele><time>2026-04-04T07:31:10.999Z</time></trkpt><trkpt lat="45.56471756307836" lon="10.317049876860988"><ele>344.0</ele><time>2026-04-04T07:31:11.999Z</time></trkpt><trkpt lat="45.56478885494298" lon="10.317068066273041"><ele>343.3333333333333</ele><time>2026-04-04T07:31:12.999Z</time></trkpt><trkpt lat="45.56491172709701" lon="10.317082850636194"><ele>342.6666666666667</ele><time>2026-04-04T07:31:14.999Z</time></trkpt><trkpt lat="45.56501009026002" lon="10.317038545268158"><ele>342.0</ele><time>2026-04-04T07:31:16.999Z</time></trkpt><trkpt lat="45.56507666081344" lon="10.31706255081122"><ele>342.0</ele><time>2026-04-04T07:31:19.999Z</time></trkpt><trkpt lat="45.56516114513088" lon="10.317015819427624"><ele>342.0</ele><time>2026-04-04T07:31:22.999Z</time></trkpt><trkpt lat="45.565286719318436" lon="10.317018044500157"><ele>342.0</ele><time>2026-04-04T07:31:25Z</time></trkpt><trkpt lat="45.56539440160195" lon="10.31697661884548"><ele>342.0</ele><time>2026-04-04T07:31:27Z</time></trkpt><trkpt lat="45.56550844231735" lon="10.316932590477192"><ele>342.0</ele><time>2026-04-04T07:31:29Z</time></trkpt><trkpt lat="45.565612378250165" lon="10.316881731843424"><ele>343.8333333333333</ele><time>2026-04-04T07:31:31Z</time></trkpt><trkpt lat="45.56571667059661" lon="10.31685024446403"><ele>345.6666666666667</ele><time>2026-04-04T07:31:33Z</time></trkpt><trkpt lat="45.56580650055415" lon="10.316796211161714"><ele>347.5</ele><time>2026-04-04T07:31:35Z</time></trkpt><trkpt lat="45.56587247455993" lon="10.316771554675706"><ele>349.33333333333337</ele><time>2026-04-04T07:31:37Z</time></trkpt><trkpt lat="45.56593156992803" lon="10.31671968299812"><ele>351.1666666666667</ele><time>2026-04-04T07:31:39Z</time></trkpt><trkpt lat="45.56601455282531" lon="10.316669221183783"><ele>353.0</ele><time>2026-04-04T07:31:42Z</time></trkpt><trkpt lat="45.56609332849219" lon="10.31664903368042"><ele>353.0</ele><time>2026-04-04T07:31:44Z</time></trkpt><trkpt lat="45.56617436229351" lon="10.316611224561251"><ele>353.0</ele><time>2026-04-04T07:31:47Z</time></trkpt><trkpt lat="45.5662618102442" lon="10.316676711054624"><ele>353.0</ele><time>2026-04-04T07:31:50Z</time></trkpt><trkpt lat="45.566345475104605" lon="10.316719473473064"><ele>353.0</ele><time>2026-04-04T07:31:53Z</time></trkpt><trkpt lat="45.566405541733296" lon="10.3167570321392"><ele>353.0</ele><time>2026-04-04T07:31:55Z</time></trkpt><trkpt lat="45.566469835464865" lon="10.31678562193626"><ele>353.0</ele><time>2026-04-04T07:31:58Z</time></trkpt><trkpt lat="45.566507656096874" lon="10.316865499911867"><ele>355.2</ele><time>2026-04-04T07:32:00Z</time></trkpt><trkpt lat="45.566575324299016" lon="10.31687420826468"><ele>357.4</ele><time>2026-04-04T07:32:05Z</time></trkpt><trkpt lat="45.56668819300812" lon="10.316907004801925"><ele>359.59999999999997</ele><time>2026-04-04T07:32:10Z</time></trkpt><trkpt lat="45.56675318855506" lon="10.316947888397495"><ele>361.79999999999995</ele><time>2026-04-04T07:32:11Z</time></trkpt><trkpt lat="45.56684151406536" lon="10.317034539020346"><ele>364.0</ele><time>2026-04-04T07:32:13Z</time></trkpt><trkpt lat="45.56693683504672" lon="10.317063553117968"><ele>364.0</ele><time>2026-04-04T07:32:15Z</time></trkpt><trkpt lat="45.56700953229116" lon="10.317145549798125"><ele>364.0</ele><time>2026-04-04T07:32:17Z</time></trkpt><trkpt lat="45.56707870556063" lon="10.31731554037255"><ele>364.0</ele><time>2026-04-04T07:32:19Z</time></trkpt><trkpt lat="45.567135657187706" lon="10.317371627534277"><ele>364.0</ele><time>2026-04-04T07:32:20Z</time></trkpt><trkpt lat="45.56724559307978" lon="10.317440026977286"><ele>364.0</ele><time>2026-04-04T07:32:22Z</time></trkpt><trkpt lat="45.567319158211966" lon="10.317487400053109"><ele>368.2</ele><time>2026-04-04T07:32:23Z</time></trkpt><trkpt lat="45.567428198581425" lon="10.317533943247279"><ele>372.4</ele><time>2026-04-04T07:32:25Z</time></trkpt><trkpt lat="45.56751405695888" lon="10.317529477867643"><ele>376.6</ele><time>2026-04-04T07:32:26.999Z</time></trkpt><trkpt lat="45.56760520246282" lon="10.31761151489128"><ele>380.8</ele><time>2026-04-04T07:32:28.999Z</time></trkpt><trkpt lat="45.567683296200066" lon="10.31765698227972"><ele>385.0</ele><time>2026-04-04T07:32:29.999Z</time></trkpt><trkpt lat="45.56775051745261" lon="10.317705248069078"><ele>385.00000000000006</ele><time>2026-04-04T07:32:30.999Z</time></trkpt><trkpt lat="45.567806816533356" lon="10.317750512119677"><ele>385.0</ele><time>2026-04-04T07:32:31.999Z</time></trkpt><trkpt lat="45.567889342711226" lon="10.31784629119884"><ele>385.0</ele><time>2026-04-04T07:32:33.999Z</time></trkpt><trkpt lat="45.56794562451887" lon="10.317902807363582"><ele>385.0</ele><time>2026-04-04T07:32:34.999Z</time></trkpt><trkpt lat="45.56801597285109" lon="10.31800043444615"><ele>385.00000000000006</ele><time>2026-04-04T07:32:36.999Z</time></trkpt><trkpt lat="45.568081769555405" lon="10.318129112559987"><ele>385.0</ele><time>2026-04-04T07:32:38.999Z</time></trkpt><trkpt lat="45.56816579602357" lon="10.31825321620596"><ele>387.50000000000006</ele><time>2026-04-04T07:32:40.999Z</time></trkpt><trkpt lat="45.568199374616924" lon="10.318339177850294"><ele>390.0</ele><time>2026-04-04T07:32:41.999Z</time></trkpt><trkpt lat="45.56821729221395" lon="10.318435714884622"><ele>392.5</ele><time>2026-04-04T07:32:42.999Z</time></trkpt><trkpt lat="45.56821367085097" lon="10.318542391970846"><ele>395.0</ele><time>2026-04-04T07:32:43.999Z</time></trkpt><trkpt lat="45.568229117389095" lon="10.318653474544163"><ele>397.50000000000006</ele><time>2026-04-04T07:32:44.999Z</time></trkpt><trkpt lat="45.568242896744074" lon="10.318771491505329"><ele>400.0</ele><time>2026-04-04T07:32:45.999Z</time></trkpt><trkpt lat="45.56825049607355" lon="10.318892519919828"><ele>401.4</ele><time>2026-04-04T07:32:46.999Z</time></trkpt><trkpt lat="45.56827466053749" lon="10.31900566011655"><ele>402.8</ele><time>2026-04-04T07:32:47.999Z</time></trkpt><trkpt lat="45.56834354016223" lon="10.31911869682111"><ele>404.20000000000005</ele><time>2026-04-04T07:32:48.999Z</time></trkpt><trkpt lat="45.56839432822005" lon="10.319223650113125"><ele>405.6</ele><time>2026-04-04T07:32:49.999Z</time></trkpt><trkpt lat="45.56844663697083" lon="10.31931539584176"><ele>407.0</ele><time>2026-04-04T07:32:50.999Z</time></trkpt><trkpt lat="45.56852714710354" lon="10.319389773638688"><ele>406.99999999999994</ele><time>2026-04-04T07:32:51.999Z</time></trkpt><trkpt lat="45.56858267372155" lon="10.319459355493219"><ele>407.0</ele><time>2026-04-04T07:32:52.999Z</time></trkpt><trkpt lat="45.56864234864837" lon="10.319522998674302"><ele>407.0</ele><time>2026-04-04T07:32:53.999Z</time></trkpt><trkpt lat="45.568704176543775" lon="10.319595412226436"><ele>407.0</ele><time>2026-04-04T07:32:54.999Z</time></trkpt><trkpt lat="45.568778626697345" lon="10.319707841283012"><ele>406.99999999999994</ele><time>2026-04-04T07:32:56.999Z</time></trkpt><trkpt lat="45.56885432871099" lon="10.3197893769261"><ele>407.0</ele><time>2026-04-04T07:32:58.999Z</time></trkpt><trkpt lat="45.5689494491031" lon="10.31983386986981"><ele>408.66666666666663</ele><time>2026-04-04T07:33:00.999Z</time></trkpt><trkpt lat="45.56903426803316" lon="10.319874758964342"><ele>410.3333333333333</ele><time>2026-04-04T07:33:02.999Z</time></trkpt><trkpt lat="45.56910022731374" lon="10.319902673154838"><ele>412.0</ele><time>2026-04-04T07:33:05.999Z</time></trkpt><trkpt lat="45.569139873873794" lon="10.319992622925195"><ele>413.66666666666663</ele><time>2026-04-04T07:34:34.999Z</time></trkpt><trkpt lat="45.56923193974919" lon="10.320057420939682"><ele>415.3333333333333</ele><time>2026-04-04T07:35:39Z</time></trkpt><trkpt lat="45.569294297918205" lon="10.320121651976645"><ele>417.0</ele><time>2026-04-04T07:35:40Z</time></trkpt><trkpt lat="45.56935951841867" lon="10.320197691235558"><ele>417.0</ele><time>2026-04-04T07:35:41Z</time></trkpt><trkpt lat="45.56943794994434" lon="10.32026761675285"><ele>417.0</ele><time>2026-04-04T07:35:42Z</time></trkpt><trkpt lat="45.56952387486387" lon="10.32033336491065"><ele>417.0</ele><time>2026-04-04T07:35:43Z</time></trkpt><trkpt lat="45.56960763041973" lon="10.320403662465834"><ele>417.0</ele><time>2026-04-04T07:35:44Z</time></trkpt><trkpt lat="45.56965723371138" lon="10.32051825463858"><ele>417.0</ele><time>2026-04-04T07:35:45Z</time></trkpt><trkpt lat="45.56967512760735" lon="10.320645470841407"><ele>420.0</ele><time>2026-04-04T07:35:46Z</time></trkpt><trkpt lat="45.56967782356656" lon="10.320772234362693"><ele>423.0</ele><time>2026-04-04T07:35:47Z</time></trkpt><trkpt lat="45.569706001291756" lon="10.320909915990669"><ele>426.00000000000006</ele><time>2026-04-04T07:35:48Z</time></trkpt><trkpt lat="45.56974889999758" lon="10.321028649727248"><ele>429.0</ele><time>2026-04-04T07:35:49Z</time></trkpt><trkpt lat="45.56979960280113" lon="10.3211501415665"><ele>432.0</ele><time>2026-04-04T07:35:50Z</time></trkpt><trkpt lat="45.56986322621493" lon="10.321226253988982"><ele>432.0</ele><time>2026-04-04T07:35:51Z</time></trkpt><trkpt lat="45.56995273015379" lon="10.321276545153397"><ele>432.00000000000006</ele><time>2026-04-04T07:35:52Z</time></trkpt><trkpt lat="45.57005523090386" lon="10.32130847929481"><ele>432.00000000000006</ele><time>2026-04-04T07:35:53Z</time></trkpt><trkpt lat="45.57016098657865" lon="10.321347244646061"><ele>432.0</ele><time>2026-04-04T07:35:54Z</time></trkpt><trkpt lat="45.57027462108022" lon="10.321403635928617"><ele>432.0</ele><time>2026-04-04T07:35:55Z</time></trkpt><trkpt lat="45.5703699692556" lon="10.3214904860189"><ele>435.0</ele><time>2026-04-04T07:35:56Z</time></trkpt><trkpt lat="45.570454892963696" lon="10.321597837373302"><ele>438.0</ele><time>2026-04-04T07:35:57Z</time></trkpt><trkpt lat="45.570517521715786" lon="10.321718420521792"><ele>441.0</ele><time>2026-04-04T07:35:58Z</time></trkpt><trkpt lat="45.57054221214276" lon="10.321822400836343"><ele>444.0</ele><time>2026-04-04T07:35:59Z</time></trkpt><trkpt lat="45.57056635231185" lon="10.321914842163839"><ele>447.0</ele><time>2026-04-04T07:36:00Z</time></trkpt><trkpt lat="45.5706378261451" lon="10.32193143235775"><ele>450.0</ele><time>2026-04-04T07:36:02Z</time></trkpt><trkpt lat="45.57063865200298" lon="10.321768213242876"><ele>450.0</ele><time>2026-04-04T07:36:04Z</time></trkpt><trkpt lat="45.570614225788894" lon="10.321662775784837"><ele>450.0</ele><time>2026-04-04T07:36:05Z</time></trkpt><trkpt lat="45.570603380048844" lon="10.321538384246805"><ele>450.0</ele><time>2026-04-04T07:36:06Z</time></trkpt><trkpt lat="45.570590027874054" lon="10.32140162262982"><ele>450.0</ele><time>2026-04-04T07:36:07Z</time></trkpt><trkpt lat="45.57055248911611" lon="10.3212903564591"><ele>450.0</ele><time>2026-04-04T07:36:08Z</time></trkpt><trkpt lat="45.57052428408679" lon="10.321133549884387"><ele>453.75</ele><time>2026-04-04T07:36:09Z</time></trkpt><trkpt lat="45.57050384764208" lon="10.320970856300608"><ele>457.5</ele><time>2026-04-04T07:36:10Z</time></trkpt><trkpt lat="45.570475434543674" lon="10.320812105709434"><ele>461.25</ele><time>2026-04-04T07:36:11Z</time></trkpt><trkpt lat="45.57044932209107" lon="10.320649756798188"><ele>465.0</ele><time>2026-04-04T07:36:12Z</time></trkpt><trkpt lat="45.57042279163375" lon="10.320488031923752"><ele>465.0</ele><time>2026-04-04T07:36:13Z</time></trkpt><trkpt lat="45.570390261936474" lon="10.320328431515428"><ele>465.0</ele><time>2026-04-04T07:36:14Z</time></trkpt><trkpt lat="45.570368492958764" lon="10.320190121034146"><ele>465.0</ele><time>2026-04-04T07:36:15Z</time></trkpt><trkpt lat="45.57034720754045" lon="10.320059641713797"><ele>465.0</ele><time>2026-04-04T07:36:16Z</time></trkpt><trkpt lat="45.57033053238108" lon="10.319955127811737"><ele>465.0</ele><time>2026-04-04T07:36:17Z</time></trkpt><trkpt lat="45.5703131451539" lon="10.319838824723591"><ele>465.0</ele><time>2026-04-04T07:36:19Z</time></trkpt><trkpt lat="45.57033567596611" lon="10.319743835580162"><ele>465.0</ele><time>2026-04-04T07:36:29Z</time></trkpt><trkpt lat="45.570400680479544" lon="10.319733252677604"><ele>465.0</ele><time>2026-04-04T07:36:30.999Z</time></trkpt><trkpt lat="45.57046075392063" lon="10.31983104056039"><ele>465.0</ele><time>2026-04-04T07:36:32.999Z</time></trkpt><trkpt lat="45.57052660551992" lon="10.319906945560609"><ele>465.0</ele><time>2026-04-04T07:36:35.999Z</time></trkpt><trkpt lat="45.57058076554478" lon="10.319977127506128"><ele>465.0</ele><time>2026-04-04T07:36:37.999Z</time></trkpt><trkpt lat="45.570635754779616" lon="10.320045538513186"><ele>465.0</ele><time>2026-04-04T07:36:38.999Z</time></trkpt><trkpt lat="45.57071390628669" lon="10.32012493295302"><ele>465.0</ele><time>2026-04-04T07:36:40.999Z</time></trkpt><trkpt lat="45.57076746498581" lon="10.32020003310607"><ele>465.0</ele><time>2026-04-04T07:36:41.999Z</time></trkpt><trkpt lat="45.5708146532718" lon="10.320281973009815"><ele>465.0</ele><time>2026-04-04T07:36:42.999Z</time></trkpt><trkpt lat="45.57084612789404" lon="10.320367671338118"><ele>465.0</ele><time>2026-04-04T07:36:43.999Z</time></trkpt><trkpt lat="45.57090698854387" lon="10.320459648780455"><ele>465.0</ele><time>2026-04-04T07:36:45.999Z</time></trkpt><trkpt lat="45.570946604378626" lon="10.320549222406163"><ele>465.1666666666667</ele><time>2026-04-04T07:36:47.999Z</time></trkpt><trkpt lat="45.570967061801326" lon="10.320658948381816"><ele>465.33333333333337</ele><time>2026-04-04T07:36:48.999Z</time></trkpt><trkpt lat="45.57099111273889" lon="10.320758448935855"><ele>465.5</ele><time>2026-04-04T07:36:49.999Z</time></trkpt><trkpt lat="45.57104598651974" lon="10.320866085673691"><ele>465.6666666666667</ele><time>2026-04-04T07:36:51.999Z</time></trkpt><trkpt lat="45.571120026151995" lon="10.320990001528846"><ele>465.83333333333337</ele><time>2026-04-04T07:36:53.999Z</time></trkpt><trkpt lat="45.57117309851965" lon="10.321084584631224"><ele>466.0</ele><time>2026-04-04T07:36:55.999Z</time></trkpt><trkpt lat="45.57124709498069" lon="10.321246131058645"><ele>469.14285714285717</ele><time>2026-04-04T07:36:57.999Z</time></trkpt><trkpt lat="45.57128033507199" lon="10.321329199643852"><ele>472.2857142857142</ele><time>2026-04-04T07:36:58.999Z</time></trkpt><trkpt lat="45.57130727727978" lon="10.321420126224021"><ele>475.4285714285714</ele><time>2026-04-04T07:36:59.999Z</time></trkpt><trkpt lat="45.57134731216025" lon="10.321517995813746"><ele>478.57142857142856</ele><time>2026-04-04T07:37:00.999Z</time></trkpt><trkpt lat="45.57140387392086" lon="10.32161200724867"><ele>481.71428571428567</ele><time>2026-04-04T07:37:01.999Z</time></trkpt><trkpt lat="45.57145691822753" lon="10.321674322601401"><ele>484.8571428571428</ele><time>2026-04-04T07:37:02.999Z</time></trkpt><trkpt lat="45.571510461656366" lon="10.321746082416283"><ele>487.99999999999994</ele><time>2026-04-04T07:37:03.999Z</time></trkpt><trkpt lat="45.57158830858608" lon="10.32188105685938"><ele>487.99999999999994</ele><time>2026-04-04T07:37:05.999Z</time></trkpt><trkpt lat="45.57162451131073" lon="10.321956919598389"><ele>488.0</ele><time>2026-04-04T07:37:06.999Z</time></trkpt><trkpt lat="45.5716568278708" lon="10.322039332493071"><ele>488.0</ele><time>2026-04-04T07:37:07.999Z</time></trkpt><trkpt lat="45.57174440296435" lon="10.32216830319905"><ele>488.0</ele><time>2026-04-04T07:37:09.999Z</time></trkpt><trkpt lat="45.5718021313453" lon="10.322227966881732"><ele>487.99999999999994</ele><time>2026-04-04T07:37:10.999Z</time></trkpt><trkpt lat="45.5718639757085" lon="10.322266760052933"><ele>488.0</ele><time>2026-04-04T07:37:11.999Z</time></trkpt><trkpt lat="45.571933883262346" lon="10.322289948996017"><ele>491.49999999999994</ele><time>2026-04-04T07:37:12.999Z</time></trkpt><trkpt lat="45.57204294685949" lon="10.322298150064702"><ele>495.0</ele><time>2026-04-04T07:37:14.999Z</time></trkpt><trkpt lat="45.57210336943856" lon="10.322333108219972"><ele>498.5</ele><time>2026-04-04T07:37:15.999Z</time></trkpt><trkpt lat="45.57216855771989" lon="10.322377823967631"><ele>502.0</ele><time>2026-04-04T07:37:16.999Z</time></trkpt><trkpt lat="45.57222733162536" lon="10.322430905043849"><ele>505.49999999999994</ele><time>2026-04-04T07:37:17.999Z</time></trkpt><trkpt lat="45.57229514737211" lon="10.32247843255791"><ele>509.0</ele><time>2026-04-04T07:37:18.999Z</time></trkpt><trkpt lat="45.572361916590985" lon="10.32257307496848"><ele>508.99999999999994</ele><time>2026-04-04T07:37:20.999Z</time></trkpt><trkpt lat="45.572441416699895" lon="10.32262301308511"><ele>509.0</ele><time>2026-04-04T07:37:24.999Z</time></trkpt><trkpt lat="45.57250755442864" lon="10.322678219148205"><ele>509.0</ele><time>2026-04-04T07:37:26.999Z</time></trkpt><trkpt lat="45.5725754630456" lon="10.322715040699697"><ele>509.0</ele><time>2026-04-04T07:37:28.999Z</time></trkpt><trkpt lat="45.5726358218447" lon="10.322801214774694"><ele>508.99999999999994</ele><time>2026-04-04T07:37:30.999Z</time></trkpt><trkpt lat="45.57270100277567" lon="10.32286596129696"><ele>509.0</ele><time>2026-04-04T07:37:33.999Z</time></trkpt><trkpt lat="45.572776436526404" lon="10.322923667297832"><ele>509.0</ele><time>2026-04-04T07:37:35.999Z</time></trkpt><trkpt lat="45.57284138562402" lon="10.322995039691612"><ele>509.0</ele><time>2026-04-04T07:37:37.999Z</time></trkpt><trkpt lat="45.572933498482975" lon="10.323110026715844"><ele>509.0</ele><time>2026-04-04T07:37:39.999Z</time></trkpt><trkpt lat="45.572989968791575" lon="10.323152463265354"><ele>509.0</ele><time>2026-04-04T07:37:42Z</time></trkpt><trkpt lat="45.5730589984969" lon="10.323286023168425"><ele>509.0</ele><time>2026-04-04T07:37:44Z</time></trkpt><trkpt lat="45.57314079220423" lon="10.323389409430556"><ele>510.8333333333333</ele><time>2026-04-04T07:37:46Z</time></trkpt><trkpt lat="45.57319408257177" lon="10.323448685276887"><ele>512.6666666666666</ele><time>2026-04-04T07:37:47Z</time></trkpt><trkpt lat="45.57323284611119" lon="10.323531826225611"><ele>514.5</ele><time>2026-04-04T07:37:48Z</time></trkpt><trkpt lat="45.573321857219725" lon="10.323658225272398"><ele>516.3333333333334</ele><time>2026-04-04T07:37:50Z</time></trkpt><trkpt lat="45.573379594602756" lon="10.323715995475052"><ele>518.1666666666667</ele><time>2026-04-04T07:37:51Z</time></trkpt><trkpt lat="45.57343092778662" lon="10.323778207226097"><ele>520.0</ele><time>2026-04-04T07:37:52Z</time></trkpt><trkpt lat="45.5734793301181" lon="10.323851500071214"><ele>522.3333333333334</ele><time>2026-04-04T07:37:53Z</time></trkpt><trkpt lat="45.573555562905405" lon="10.323945299454513"><ele>524.6666666666667</ele><time>2026-04-04T07:37:54Z</time></trkpt><trkpt lat="45.57363590778105" lon="10.32404018651998"><ele>527.0</ele><time>2026-04-04T07:37:55Z</time></trkpt><trkpt lat="45.573711558311146" lon="10.324122655882451"><ele>529.3333333333334</ele><time>2026-04-04T07:37:56Z</time></trkpt><trkpt lat="45.57376876921867" lon="10.32419080484679"><ele>531.6666666666666</ele><time>2026-04-04T07:37:57Z</time></trkpt><trkpt lat="45.573788906564054" lon="10.324277397002712"><ele>534.0</ele><time>2026-04-04T07:37:58Z</time></trkpt><trkpt lat="45.57379061793769" lon="10.32437555386523"><ele>534.0</ele><time>2026-04-04T07:37:59Z</time></trkpt><trkpt lat="45.573778356506345" lon="10.32449967302234"><ele>534.0</ele><time>2026-04-04T07:38:00Z</time></trkpt><trkpt lat="45.573736274346935" lon="10.324604147323829"><ele>534.0</ele><time>2026-04-04T07:38:01Z</time></trkpt><trkpt lat="45.57369022757086" lon="10.324716563740656"><ele>534.0</ele><time>2026-04-04T07:38:02Z</time></trkpt><trkpt lat="45.573655128160595" lon="10.324839958578258"><ele>534.0</ele><time>2026-04-04T07:38:03Z</time></trkpt><trkpt lat="45.573635290656775" lon="10.324971867070598"><ele>527.8</ele><time>2026-04-04T07:38:04Z</time></trkpt><trkpt lat="45.57363074217887" lon="10.325109425750071"><ele>521.5999999999999</ele><time>2026-04-04T07:38:05Z</time></trkpt><trkpt lat="45.57362178800015" lon="10.325245633710564"><ele>515.4</ele><time>2026-04-04T07:38:06Z</time></trkpt><trkpt lat="45.573607364765486" lon="10.325370496516701"><ele>509.2</ele><time>2026-04-04T07:38:07Z</time></trkpt><trkpt lat="45.57359266261136" lon="10.325497634952914"><ele>503.0</ele><time>2026-04-04T07:38:08Z</time></trkpt><trkpt lat="45.573588078642096" lon="10.325634050812134"><ele>503.0</ele><time>2026-04-04T07:38:09Z</time></trkpt><trkpt lat="45.573577609808325" lon="10.325772498337026"><ele>502.99999999999994</ele><time>2026-04-04T07:38:10Z</time></trkpt><trkpt lat="45.57356381697628" lon="10.325896133459104"><ele>502.99999999999994</ele><time>2026-04-04T07:38:11Z</time></trkpt><trkpt lat="45.573536432373466" lon="10.326011476126132"><ele>503.0</ele><time>2026-04-04T07:38:12Z</time></trkpt><trkpt lat="45.573482570530814" lon="10.326131894689718"><ele>503.0</ele><time>2026-04-04T07:38:13Z</time></trkpt><trkpt lat="45.57341994164927" lon="10.326261317309521"><ele>503.0</ele><time>2026-04-04T07:38:14Z</time></trkpt><trkpt lat="45.573368795180464" lon="10.326385423256566"><ele>502.99999999999994</ele><time>2026-04-04T07:38:15Z</time></trkpt><trkpt lat="45.57332915823814" lon="10.326526753513287"><ele>502.99999999999994</ele><time>2026-04-04T07:38:16Z</time></trkpt><trkpt lat="45.573289835410996" lon="10.326678189547076"><ele>503.0</ele><time>2026-04-04T07:38:17Z</time></trkpt><trkpt lat="45.573251574317624" lon="10.32681974892609"><ele>503.0</ele><time>2026-04-04T07:38:18Z</time></trkpt><trkpt lat="45.57320713244362" lon="10.326955165140784"><ele>504.59999999999997</ele><time>2026-04-04T07:38:19Z</time></trkpt><trkpt lat="45.573163910620714" lon="10.327093553456548"><ele>506.19999999999993</ele><time>2026-04-04T07:38:20Z</time></trkpt><trkpt lat="45.57312220555459" lon="10.327230956516205"><ele>507.8</ele><time>2026-04-04T07:38:21Z</time></trkpt><trkpt lat="45.5730853213473" lon="10.327369768114664"><ele>509.4</ele><time>2026-04-04T07:38:22Z</time></trkpt><trkpt lat="45.57305880754723" lon="10.327523701656851"><ele>511.0</ele><time>2026-04-04T07:38:23Z</time></trkpt><trkpt lat="45.57303858647166" lon="10.327694905153464"><ele>513.0</ele><time>2026-04-04T07:38:24Z</time></trkpt><trkpt lat="45.573038560613895" lon="10.327861432714737"><ele>515.0</ele><time>2026-04-04T07:38:25Z</time></trkpt><trkpt lat="45.57304839591618" lon="10.328023937158338"><ele>517.0</ele><time>2026-04-04T07:38:26Z</time></trkpt><trkpt lat="45.57306080711104" lon="10.328190442145809"><ele>519.0</ele><time>2026-04-04T07:38:27Z</time></trkpt><trkpt lat="45.573065378173595" lon="10.328355970741203"><ele>519.5</ele><time>2026-04-04T07:38:28Z</time></trkpt><trkpt lat="45.57305928116383" lon="10.328512668800547"><ele>520.0</ele><time>2026-04-04T07:38:29Z</time></trkpt><trkpt lat="45.57305758239847" lon="10.328640596630915"><ele>520.5</ele><time>2026-04-04T07:38:30Z</time></trkpt><trkpt lat="45.57306986249256" lon="10.328743996149372"><ele>521.0</ele><time>2026-04-04T07:38:31Z</time></trkpt><trkpt lat="45.573076791030594" lon="10.328846745251587"><ele>521.5</ele><time>2026-04-04T07:38:32Z</time></trkpt><trkpt lat="45.573064729860064" lon="10.328936443142776"><ele>522.0</ele><time>2026-04-04T07:38:33Z</time></trkpt><trkpt lat="45.57301041084975" lon="10.328992669687661"><ele>522.0</ele><time>2026-04-04T07:38:34Z</time></trkpt><trkpt lat="45.572952856353375" lon="10.329055680707674"><ele>522.0</ele><time>2026-04-04T07:38:34.999Z</time></trkpt><trkpt lat="45.5729437780027" lon="10.329236121829108"><ele>522.0</ele><time>2026-04-04T07:38:36.999Z</time></trkpt><trkpt lat="45.57296959652065" lon="10.329347781543733"><ele>522.0</ele><time>2026-04-04T07:38:37.999Z</time></trkpt><trkpt lat="45.57299138583948" lon="10.32946330628807"><ele>522.0</ele><time>2026-04-04T07:38:38.999Z</time></trkpt><trkpt lat="45.57297162956273" lon="10.329584454714118"><ele>522.0</ele><time>2026-04-04T07:38:39.999Z</time></trkpt><trkpt lat="45.57292945260382" lon="10.329706305039801"><ele>522.0</ele><time>2026-04-04T07:38:40.999Z</time></trkpt><trkpt lat="45.57289376711561" lon="10.329826575478366"><ele>522.0</ele><time>2026-04-04T07:38:41.999Z</time></trkpt><trkpt lat="45.57286164575567" lon="10.329944646856973"><ele>522.0</ele><time>2026-04-04T07:38:42.999Z</time></trkpt><trkpt lat="45.5728291735592" lon="10.330064313674528"><ele>522.0</ele><time>2026-04-04T07:38:43.999Z</time></trkpt><trkpt lat="45.57280595543392" lon="10.330198365908652"><ele>521.4</ele><time>2026-04-04T07:38:44.999Z</time></trkpt><trkpt lat="45.57278136572846" lon="10.33032943487233"><ele>520.8000000000001</ele><time>2026-04-04T07:38:45.999Z</time></trkpt><trkpt lat="45.572761138325646" lon="10.330471296314888"><ele>520.2</ele><time>2026-04-04T07:38:46.999Z</time></trkpt><trkpt lat="45.57274972397792" lon="10.33061428019018"><ele>519.6</ele><time>2026-04-04T07:38:47.999Z</time></trkpt><trkpt lat="45.57273531585604" lon="10.330748367249612"><ele>519.0</ele><time>2026-04-04T07:38:48.999Z</time></trkpt><trkpt lat="45.57271787947312" lon="10.330867804075636"><ele>522.0</ele><time>2026-04-04T07:38:49.999Z</time></trkpt><trkpt lat="45.57272090451225" lon="10.33102818245357"><ele>525.0</ele><time>2026-04-04T07:38:51.999Z</time></trkpt><trkpt lat="45.572702628904516" lon="10.331173524719661"><ele>528.0</ele><time>2026-04-04T07:38:53.999Z</time></trkpt><trkpt lat="45.572610738470324" lon="10.331237639312263"><ele>531.0</ele><time>2026-04-04T07:38:55.999Z</time></trkpt><trkpt lat="45.572512338241125" lon="10.331167934941186"><ele>534.0</ele><time>2026-04-04T07:38:57.999Z</time></trkpt><trkpt lat="45.57244265011396" lon="10.331082612061294"><ele>534.0</ele><time>2026-04-04T07:38:59.999Z</time></trkpt><trkpt lat="45.572367537240325" lon="10.330980955139681"><ele>534.0</ele><time>2026-04-04T07:39:01.999Z</time></trkpt><trkpt lat="45.57233539776845" lon="10.330901128257779"><ele>534.0</ele><time>2026-04-04T07:39:02.999Z</time></trkpt><trkpt lat="45.572296989803846" lon="10.330821406145896"><ele>534.0</ele><time>2026-04-04T07:39:03.999Z</time></trkpt><trkpt lat="45.57222152537887" lon="10.330712393260916"><ele>534.0</ele><time>2026-04-04T07:39:05.999Z</time></trkpt><trkpt lat="45.57212422154348" lon="10.330590403032316"><ele>531.0</ele><time>2026-04-04T07:39:07.999Z</time></trkpt><trkpt lat="45.572062937097144" lon="10.330513217165535"><ele>528.0</ele><time>2026-04-04T07:39:08.999Z</time></trkpt><trkpt lat="45.572001642569695" lon="10.330455158119417"><ele>525.0</ele><time>2026-04-04T07:39:09.999Z</time></trkpt><trkpt lat="45.57190319088174" lon="10.330389487124117"><ele>522.0</ele><time>2026-04-04T07:39:11.999Z</time></trkpt><trkpt lat="45.57182003604336" lon="10.330313092298905"><ele>519.0</ele><time>2026-04-04T07:39:13.999Z</time></trkpt><trkpt lat="45.571752260656034" lon="10.33019346664623"><ele>524.8333333333334</ele><time>2026-04-04T07:39:15.999Z</time></trkpt><trkpt lat="45.571706313879076" lon="10.330122769758768"><ele>530.6666666666666</ele><time>2026-04-04T07:39:17.999Z</time></trkpt><trkpt lat="45.57163587559272" lon="10.330043002849298"><ele>536.5</ele><time>2026-04-04T07:39:19.999Z</time></trkpt><trkpt lat="45.57156246147886" lon="10.329982938412726"><ele>542.3333333333333</ele><time>2026-04-04T07:39:22.999Z</time></trkpt><trkpt lat="45.57148698881096" lon="10.33000370539662"><ele>548.1666666666666</ele><time>2026-04-04T07:39:26.999Z</time></trkpt><trkpt lat="45.571416924708416" lon="10.330024233133546"><ele>554.0</ele><time>2026-04-04T07:39:29.999Z</time></trkpt><trkpt lat="45.57133767990058" lon="10.330018907956676"><ele>554.0</ele><time>2026-04-04T07:40:09Z</time></trkpt><trkpt lat="45.571273473695" lon="10.330030007654447"><ele>554.0</ele><time>2026-04-04T07:40:12Z</time></trkpt><trkpt lat="45.57119350423754" lon="10.329996807093094"><ele>554.0</ele><time>2026-04-04T07:40:15Z</time></trkpt><trkpt lat="45.57110895395147" lon="10.32996910249181"><ele>554.0</ele><time>2026-04-04T07:40:17Z</time></trkpt><trkpt lat="45.57102671839671" lon="10.329904036845345"><ele>554.0</ele><time>2026-04-04T07:40:19Z</time></trkpt><trkpt lat="45.57096277388875" lon="10.329854991155145"><ele>554.0</ele><time>2026-04-04T07:40:20Z</time></trkpt><trkpt lat="45.570903639034576" lon="10.329813491784787"><ele>556.8333333333333</ele><time>2026-04-04T07:40:21Z</time></trkpt><trkpt lat="45.570822943494605" lon="10.329827425037866"><ele>559.6666666666666</ele><time>2026-04-04T07:40:23Z</time></trkpt><trkpt lat="45.57072423299245" lon="10.329841593649688"><ele>562.5</ele><time>2026-04-04T07:40:25Z</time></trkpt><trkpt lat="45.5707016686342" lon="10.329950737667533"><ele>565.3333333333334</ele><time>2026-04-04T07:40:27Z</time></trkpt><trkpt lat="45.570656844574344" lon="10.330039173537605"><ele>568.1666666666667</ele><time>2026-04-04T07:40:29Z</time></trkpt><trkpt lat="45.57065217625225" lon="10.330166411263608"><ele>571.0</ele><time>2026-04-04T07:40:31Z</time></trkpt><trkpt lat="45.57062503331511" lon="10.330313205899435"><ele>571.0</ele><time>2026-04-04T07:40:33Z</time></trkpt><trkpt lat="45.57059641061118" lon="10.330461727028085"><ele>571.0</ele><time>2026-04-04T07:40:35Z</time></trkpt><trkpt lat="45.57063256858225" lon="10.330577750740423"><ele>571.0</ele><time>2026-04-04T07:40:37Z</time></trkpt><trkpt lat="45.570684970530365" lon="10.330685091476747"><ele>571.0</ele><time>2026-04-04T07:40:38.999Z</time></trkpt><trkpt lat="45.57063146895663" lon="10.33084153882721"><ele>571.0</ele><time>2026-04-04T07:40:40.999Z</time></trkpt><trkpt lat="45.57059352857973" lon="10.330936369091255"><ele>575.0</ele><time>2026-04-04T07:40:42.999Z</time></trkpt><trkpt lat="45.57068174326861" lon="10.331040461776158"><ele>579.0</ele><time>2026-04-04T07:40:44.999Z</time></trkpt><trkpt lat="45.5707457927292" lon="10.331188563314772"><ele>583.0</ele><time>2026-04-04T07:40:46.999Z</time></trkpt><trkpt lat="45.570784627994136" lon="10.331297846962945"><ele>587.0</ele><time>2026-04-04T07:40:47.999Z</time></trkpt><trkpt lat="45.57083097456196" lon="10.331379176981638"><ele>591.0</ele><time>2026-04-04T07:40:48.999Z</time></trkpt><trkpt lat="45.5708838550963" lon="10.331448381717983"><ele>592.8333333333334</ele><time>2026-04-04T07:40:50.999Z</time></trkpt><trkpt lat="45.57088863900999" lon="10.331546072261895"><ele>594.6666666666666</ele><time>2026-04-04T07:40:51.999Z</time></trkpt><trkpt lat="45.570834472723874" lon="10.33162939874979"><ele>596.5</ele><time>2026-04-04T07:40:52.999Z</time></trkpt><trkpt lat="45.57080091330001" lon="10.331712252255645"><ele>598.3333333333333</ele><time>2026-04-04T07:40:53.999Z</time></trkpt><trkpt lat="45.57076846691087" lon="10.331820176751279"><ele>600.1666666666666</ele><time>2026-04-04T07:40:54.999Z</time></trkpt><trkpt lat="45.57072146125922" lon="10.331919458294182"><ele>602.0</ele><time>2026-04-04T07:40:55.999Z</time></trkpt><trkpt lat="45.57067704911276" lon="10.332007553140931"><ele>602.0</ele><time>2026-04-04T07:40:56.999Z</time></trkpt><trkpt lat="45.5706481743067" lon="10.332114384160734"><ele>602.0</ele><time>2026-04-04T07:40:57.999Z</time></trkpt><trkpt lat="45.57062806154838" lon="10.33222711566371"><ele>602.0</ele><time>2026-04-04T07:40:58.999Z</time></trkpt><trkpt lat="45.570611549722" lon="10.332355602256241"><ele>602.0</ele><time>2026-04-04T07:40:59.999Z</time></trkpt><trkpt lat="45.57058701609762" lon="10.33250282323996"><ele>602.0</ele><time>2026-04-04T07:41:00.999Z</time></trkpt><trkpt lat="45.570562012366395" lon="10.33263814792724"><ele>601.0</ele><time>2026-04-04T07:41:01.999Z</time></trkpt><trkpt lat="45.570542225407074" lon="10.332783737500106"><ele>600.0</ele><time>2026-04-04T07:41:02.999Z</time></trkpt><trkpt lat="45.570521095691596" lon="10.332928442965727"><ele>599.0</ele><time>2026-04-04T07:41:03.999Z</time></trkpt><trkpt lat="45.57050944561224" lon="10.333092218800983"><ele>598.0</ele><time>2026-04-04T07:41:04.999Z</time></trkpt><trkpt lat="45.57049650955329" lon="10.333238117978567"><ele>597.0</ele><time>2026-04-04T07:41:05.999Z</time></trkpt><trkpt lat="45.57048335020314" lon="10.33338464008615"><ele>596.5</ele><time>2026-04-04T07:41:06.999Z</time></trkpt><trkpt lat="45.570455964224735" lon="10.333524519864202"><ele>596.0</ele><time>2026-04-04T07:41:07.999Z</time></trkpt><trkpt lat="45.570447679291966" lon="10.333638175176693"><ele>595.5</ele><time>2026-04-04T07:41:08.999Z</time></trkpt><trkpt lat="45.57044594459939" lon="10.333775301183088"><ele>595.0</ele><time>2026-04-04T07:41:10.999Z</time></trkpt><trkpt lat="45.570370070544946" lon="10.333845198477972"><ele>594.5</ele><time>2026-04-04T07:41:13.999Z</time></trkpt><trkpt lat="45.570395355747166" lon="10.333937435226122"><ele>594.0</ele><time>2026-04-04T07:41:21.999Z</time></trkpt><trkpt lat="45.57036325807441" lon="10.334066418667453"><ele>596.2</ele><time>2026-04-04T07:41:34.999Z</time></trkpt><trkpt lat="45.570302354311465" lon="10.334152075740603"><ele>598.4</ele><time>2026-04-04T07:41:36.999Z</time></trkpt><trkpt lat="45.57021686873074" lon="10.33421843977233"><ele>600.6</ele><time>2026-04-04T07:41:38.999Z</time></trkpt><trkpt lat="45.57013702196088" lon="10.334187556428477"><ele>602.8</ele><time>2026-04-04T07:41:40.999Z</time></trkpt><trkpt lat="45.57004061828954" lon="10.334143348514065"><ele>605.0</ele><time>2026-04-04T07:41:42.999Z</time></trkpt><trkpt lat="45.56994841365562" lon="10.334102389901386"><ele>605.0</ele><time>2026-04-04T07:41:44.999Z</time></trkpt><trkpt lat="45.5698540462914" lon="10.334089459046933"><ele>605.0</ele><time>2026-04-04T07:41:46.999Z</time></trkpt><trkpt lat="45.56976698685644" lon="10.334003763259936"><ele>605.0</ele><time>2026-04-04T07:41:48.999Z</time></trkpt><trkpt lat="45.56974733820605" lon="10.333914977877244"><ele>605.0</ele><time>2026-04-04T07:41:49.999Z</time></trkpt><trkpt lat="45.5697305130119" lon="10.333801362809204"><ele>605.0</ele><time>2026-04-04T07:41:50.999Z</time></trkpt><trkpt lat="45.56971882654381" lon="10.333692309844857"><ele>605.0</ele><time>2026-04-04T07:41:51.999Z</time></trkpt><trkpt lat="45.569643852766376" lon="10.333572406774268"><ele>606.5</ele><time>2026-04-04T07:41:54Z</time></trkpt><trkpt lat="45.56958635701102" lon="10.333519998380849"><ele>608.0</ele><time>2026-04-04T07:41:55Z</time></trkpt><trkpt lat="45.569536190152306" lon="10.333463539780459"><ele>609.5</ele><time>2026-04-04T07:41:56Z</time></trkpt><trkpt lat="45.56942040886449" lon="10.333398001017287"><ele>611.0</ele><time>2026-04-04T07:41:57Z</time></trkpt><trkpt lat="45.56935844213762" lon="10.333314069355131"><ele>612.5</ele><time>2026-04-04T07:41:58Z</time></trkpt><trkpt lat="45.569316882028666" lon="10.333222106362072"><ele>614.0</ele><time>2026-04-04T07:41:59Z</time></trkpt><trkpt lat="45.569290066507754" lon="10.333132230294849"><ele>617.6</ele><time>2026-04-04T07:42:00Z</time></trkpt><trkpt lat="45.56920735795395" lon="10.332977407759675"><ele>621.2</ele><time>2026-04-04T07:42:02Z</time></trkpt><trkpt lat="45.56917692859478" lon="10.33279924367571"><ele>624.8000000000001</ele><time>2026-04-04T07:42:04Z</time></trkpt><trkpt lat="45.56915640524043" lon="10.332677029986357"><ele>628.4</ele><time>2026-04-04T07:42:06Z</time></trkpt><trkpt lat="45.569140920918414" lon="10.332584012020455"><ele>632.0</ele><time>2026-04-04T07:42:08Z</time></trkpt><trkpt lat="45.569134262780786" lon="10.332441241873182"><ele>632.0</ele><time>2026-04-04T07:42:10Z</time></trkpt><trkpt lat="45.56904824626691" lon="10.332276001133003"><ele>632.0</ele><time>2026-04-04T07:42:12Z</time></trkpt><trkpt lat="45.56898164711898" lon="10.3321626211713"><ele>632.0</ele><time>2026-04-04T07:42:13Z</time></trkpt><trkpt lat="45.56893145319648" lon="10.33207204876752"><ele>632.0</ele><time>2026-04-04T07:42:14Z</time></trkpt><trkpt lat="45.56887718855158" lon="10.331972843211167"><ele>632.0</ele><time>2026-04-04T07:42:15Z</time></trkpt><trkpt lat="45.568823680934806" lon="10.331865205066315"><ele>631.0</ele><time>2026-04-04T07:42:16Z</time></trkpt><trkpt lat="45.56875227147476" lon="10.331792559063897"><ele>630.0</ele><time>2026-04-04T07:42:17Z</time></trkpt><trkpt lat="45.56869190097892" lon="10.331737839225902"><ele>629.0</ele><time>2026-04-04T07:42:18Z</time></trkpt><trkpt lat="45.568609154916075" lon="10.331626303501793"><ele>628.0</ele><time>2026-04-04T07:42:20Z</time></trkpt><trkpt lat="45.568508373770115" lon="10.331535697434518"><ele>627.0</ele><time>2026-04-04T07:42:22Z</time></trkpt><trkpt lat="45.56841049819778" lon="10.33141905401183"><ele>628.5</ele><time>2026-04-04T07:42:24Z</time></trkpt><trkpt lat="45.56836930074137" lon="10.331348712876837"><ele>630.0</ele><time>2026-04-04T07:42:25Z</time></trkpt><trkpt lat="45.56830133018843" lon="10.331284264162651"><ele>631.5</ele><time>2026-04-04T07:42:26Z</time></trkpt><trkpt lat="45.56824668580562" lon="10.33122091979012"><ele>633.0</ele><time>2026-04-04T07:42:27Z</time></trkpt><trkpt lat="45.568186603929846" lon="10.331159865583729"><ele>634.5</ele><time>2026-04-04T07:42:28Z</time></trkpt><trkpt lat="45.56812007416411" lon="10.331070693801273"><ele>636.0</ele><time>2026-04-04T07:42:29Z</time></trkpt><trkpt lat="45.56806020356678" lon="10.330964046429465"><ele>636.0</ele><time>2026-04-04T07:42:30Z</time></trkpt><trkpt lat="45.56800048087296" lon="10.330864074471195"><ele>636.0</ele><time>2026-04-04T07:42:31Z</time></trkpt><trkpt lat="45.56794440607837" lon="10.330777126498562"><ele>636.0</ele><time>2026-04-04T07:42:32Z</time></trkpt><trkpt lat="45.56787671229527" lon="10.330699087050295"><ele>636.0</ele><time>2026-04-04T07:42:33Z</time></trkpt><trkpt lat="45.567813066881634" lon="10.330628153185451"><ele>636.0</ele><time>2026-04-04T07:42:34Z</time></trkpt><trkpt lat="45.56774726339276" lon="10.330563678772023"><ele>636.0</ele><time>2026-04-04T07:42:35Z</time></trkpt><trkpt lat="45.56766200037267" lon="10.33049036247341"><ele>633.6666666666666</ele><time>2026-04-04T07:42:36Z</time></trkpt><trkpt lat="45.567583771991124" lon="10.330431935343618"><ele>631.3333333333334</ele><time>2026-04-04T07:42:37Z</time></trkpt><trkpt lat="45.567504407366165" lon="10.33038717591785"><ele>629.0</ele><time>2026-04-04T07:42:38Z</time></trkpt><trkpt lat="45.567424041463674" lon="10.330368467359023"><ele>626.6666666666667</ele><time>2026-04-04T07:42:39Z</time></trkpt><trkpt lat="45.56734753702011" lon="10.33036875043186"><ele>624.3333333333334</ele><time>2026-04-04T07:42:40Z</time></trkpt><trkpt lat="45.56728053717951" lon="10.330369540071466"><ele>622.0</ele><time>2026-04-04T07:42:41Z</time></trkpt><trkpt lat="45.567211712835736" lon="10.330368467543856"><ele>622.0</ele><time>2026-04-04T07:42:42.999Z</time></trkpt><trkpt lat="45.56718517662761" lon="10.330464338246893"><ele>622.0</ele><time>2026-04-04T07:42:54.999Z</time></trkpt><trkpt lat="45.56716559173552" lon="10.33061121053866"><ele>622.0</ele><time>2026-04-04T07:42:56.999Z</time></trkpt><trkpt lat="45.56716890098622" lon="10.330722441789732"><ele>622.0</ele><time>2026-04-04T07:42:57.999Z</time></trkpt><trkpt lat="45.56716874318024" lon="10.330859304871403"><ele>622.0</ele><time>2026-04-04T07:42:58.999Z</time></trkpt><trkpt lat="45.56718484124081" lon="10.330985963368358"><ele>622.0</ele><time>2026-04-04T07:42:59.999Z</time></trkpt><trkpt lat="45.56719469119553" lon="10.33110914707783"><ele>622.3333333333334</ele><time>2026-04-04T07:43:00.999Z</time></trkpt><trkpt lat="45.56721526510043" lon="10.331223856513477"><ele>622.6666666666667</ele><time>2026-04-04T07:43:01.999Z</time></trkpt><trkpt lat="45.567225048216415" lon="10.331328105427405"><ele>623.0</ele><time>2026-04-04T07:43:02.999Z</time></trkpt><trkpt lat="45.5672427560301" lon="10.331446696364287"><ele>623.3333333333334</ele><time>2026-04-04T07:43:03.999Z</time></trkpt><trkpt lat="45.567261523617475" lon="10.331560874928096"><ele>623.6666666666666</ele><time>2026-04-04T07:43:04.999Z</time></trkpt><trkpt lat="45.56726780097524" lon="10.331674927851862"><ele>624.0</ele><time>2026-04-04T07:43:05.999Z</time></trkpt><trkpt lat="45.56728400006543" lon="10.331794520676306"><ele>622.1666666666666</ele><time>2026-04-04T07:43:06.999Z</time></trkpt><trkpt lat="45.56729632096775" lon="10.33191289441395"><ele>620.3333333333334</ele><time>2026-04-04T07:43:07.999Z</time></trkpt><trkpt lat="45.56730860823918" lon="10.332028803597336"><ele>618.5</ele><time>2026-04-04T07:43:08.999Z</time></trkpt><trkpt lat="45.567323035940206" lon="10.332138358270914"><ele>616.6666666666667</ele><time>2026-04-04T07:43:09.999Z</time></trkpt><trkpt lat="45.5673190207851" lon="10.33226819356023"><ele>614.8333333333334</ele><time>2026-04-04T07:43:10.999Z</time></trkpt><trkpt lat="45.56732374980617" lon="10.332389046639289"><ele>613.0</ele><time>2026-04-04T07:43:11.999Z</time></trkpt><trkpt lat="45.56730550546118" lon="10.332517709796745"><ele>610.6</ele><time>2026-04-04T07:43:12.999Z</time></trkpt><trkpt lat="45.56726865033952" lon="10.33264287067104"><ele>608.1999999999999</ele><time>2026-04-04T07:43:13.999Z</time></trkpt><trkpt lat="45.567227109145385" lon="10.332775158059333"><ele>605.8</ele><time>2026-04-04T07:43:14.999Z</time></trkpt><trkpt lat="45.56718205299507" lon="10.332930929781647"><ele>603.4</ele><time>2026-04-04T07:43:15.999Z</time></trkpt><trkpt lat="45.567138909318636" lon="10.333075270262666"><ele>601.0</ele><time>2026-04-04T07:43:16.999Z</time></trkpt><trkpt lat="45.567101442300554" lon="10.33322485019857"><ele>600.8</ele><time>2026-04-04T07:43:17.999Z</time></trkpt><trkpt lat="45.5670679003361" lon="10.333368101423627"><ele>600.6</ele><time>2026-04-04T07:43:18.999Z</time></trkpt><trkpt lat="45.567042784594726" lon="10.333515649771751"><ele>600.4</ele><time>2026-04-04T07:43:19.999Z</time></trkpt><trkpt lat="45.56699914751909" lon="10.3336666087486"><ele>600.2</ele><time>2026-04-04T07:43:20.999Z</time></trkpt><trkpt lat="45.56695084928931" lon="10.33378860754754"><ele>600.0</ele><time>2026-04-04T07:43:21.999Z</time></trkpt><trkpt lat="45.56689838930421" lon="10.333943181065969"><ele>597.0</ele><time>2026-04-04T07:43:22.999Z</time></trkpt><trkpt lat="45.5668523627486" lon="10.334086774220305"><ele>594.0</ele><time>2026-04-04T07:43:23.999Z</time></trkpt><trkpt lat="45.56682431690119" lon="10.334242067538067"><ele>591.0</ele><time>2026-04-04T07:43:24.999Z</time></trkpt><trkpt lat="45.566808058348236" lon="10.334400758159632"><ele>588.0</ele><time>2026-04-04T07:43:25.999Z</time></trkpt><trkpt lat="45.56680260895653" lon="10.334549458732917"><ele>585.0</ele><time>2026-04-04T07:43:26.999Z</time></trkpt><trkpt lat="45.566799991447596" lon="10.334672150733523"><ele>583.5</ele><time>2026-04-04T07:43:27.999Z</time></trkpt><trkpt lat="45.56680745600646" lon="10.334784060457148"><ele>582.0</ele><time>2026-04-04T07:43:28.999Z</time></trkpt><trkpt lat="45.566825873322166" lon="10.334889617755836"><ele>580.5</ele><time>2026-04-04T07:43:29.999Z</time></trkpt><trkpt lat="45.566860640280616" lon="10.33500526629338"><ele>579.0</ele><time>2026-04-04T07:43:30.999Z</time></trkpt><trkpt lat="45.56692145260427" lon="10.335087645040815"><ele>577.5</ele><time>2026-04-04T07:43:31.999Z</time></trkpt><trkpt lat="45.56697118166979" lon="10.335175633527394"><ele>576.0</ele><time>2026-04-04T07:43:32.999Z</time></trkpt><trkpt lat="45.56698455301068" lon="10.335279131115778"><ele>576.0</ele><time>2026-04-04T07:43:33.999Z</time></trkpt><trkpt lat="45.566955733878835" lon="10.335382306634452"><ele>576.0</ele><time>2026-04-04T07:43:34.999Z</time></trkpt><trkpt lat="45.56690501415815" lon="10.335464393359723"><ele>576.0</ele><time>2026-04-04T07:43:35.999Z</time></trkpt><trkpt lat="45.56685537895202" lon="10.335543028830187"><ele>576.0</ele><time>2026-04-04T07:43:36.999Z</time></trkpt><trkpt lat="45.56681190444376" lon="10.335629940816958"><ele>576.0</ele><time>2026-04-04T07:43:37.999Z</time></trkpt><trkpt lat="45.5667803733382" lon="10.335735925875474"><ele>576.0</ele><time>2026-04-04T07:43:38.999Z</time></trkpt><trkpt lat="45.56676248220375" lon="10.335837565339343"><ele>575.5</ele><time>2026-04-04T07:43:39.999Z</time></trkpt><trkpt lat="45.5667358913142" lon="10.335932993673623"><ele>575.0</ele><time>2026-04-04T07:43:40.999Z</time></trkpt><trkpt lat="45.56671828702217" lon="10.33602389757766"><ele>574.5</ele><time>2026-04-04T07:43:41.999Z</time></trkpt><trkpt lat="45.566693442192395" lon="10.336119799029778"><ele>574.0</ele><time>2026-04-04T07:43:42.999Z</time></trkpt><trkpt lat="45.56667913506089" lon="10.336326418748255"><ele>573.5</ele><time>2026-04-04T07:43:44.999Z</time></trkpt><trkpt lat="45.56669298885789" lon="10.336444140443609"><ele>573.0</ele><time>2026-04-04T07:43:45.999Z</time></trkpt><trkpt lat="45.56671350596284" lon="10.33655760249031"><ele>573.0</ele><time>2026-04-04T07:43:46.999Z</time></trkpt><trkpt lat="45.566741164512955" lon="10.336675669594124"><ele>573.0</ele><time>2026-04-04T07:43:47.999Z</time></trkpt><trkpt lat="45.566767275973646" lon="10.336783174150394"><ele>573.0</ele><time>2026-04-04T07:43:48.999Z</time></trkpt><trkpt lat="45.566769417564856" lon="10.33689299617174"><ele>573.0</ele><time>2026-04-04T07:43:49.999Z</time></trkpt><trkpt lat="45.56674057108913" lon="10.336997566955771"><ele>573.0</ele><time>2026-04-04T07:43:50.999Z</time></trkpt><trkpt lat="45.566703418977724" lon="10.337085597923021"><ele>573.0</ele><time>2026-04-04T07:43:51.999Z</time></trkpt><trkpt lat="45.56668155896492" lon="10.337175823765422"><ele>573.0</ele><time>2026-04-04T07:43:52.999Z</time></trkpt><trkpt lat="45.566694899437216" lon="10.337288931870338"><ele>573.0</ele><time>2026-04-04T07:43:53.999Z</time></trkpt><trkpt lat="45.566710439610205" lon="10.33741427943161"><ele>573.0</ele><time>2026-04-04T07:43:54.999Z</time></trkpt><trkpt lat="45.56673068835741" lon="10.337544657540612"><ele>573.0</ele><time>2026-04-04T07:43:55.999Z</time></trkpt><trkpt lat="45.56675109311509" lon="10.337651168532151"><ele>573.0</ele><time>2026-04-04T07:43:56.999Z</time></trkpt><trkpt lat="45.5667615600025" lon="10.337777516118217"><ele>573.0</ele><time>2026-04-04T07:43:57.999Z</time></trkpt><trkpt lat="45.566762813097476" lon="10.337911322939004"><ele>573.0</ele><time>2026-04-04T07:43:59Z</time></trkpt><trkpt lat="45.56675979750854" lon="10.338022129613448"><ele>573.0</ele><time>2026-04-04T07:44:00Z</time></trkpt><trkpt lat="45.56674813298425" lon="10.33811682913142"><ele>573.0</ele><time>2026-04-04T07:44:01Z</time></trkpt><trkpt lat="45.56674986098317" lon="10.338213291480983"><ele>573.0</ele><time>2026-04-04T07:44:02Z</time></trkpt><trkpt lat="45.5667834584632" lon="10.33831119340131"><ele>573.0</ele><time>2026-04-04T07:44:03Z</time></trkpt><trkpt lat="45.56682376501647" lon="10.338403867127319"><ele>573.0</ele><time>2026-04-04T07:44:04Z</time></trkpt><trkpt lat="45.566864552175204" lon="10.338485778132133"><ele>573.0</ele><time>2026-04-04T07:44:05Z</time></trkpt><trkpt lat="45.56689892517187" lon="10.338596769686891"><ele>572.3333333333334</ele><time>2026-04-04T07:44:06Z</time></trkpt><trkpt lat="45.56692723876739" lon="10.338708500035544"><ele>571.6666666666666</ele><time>2026-04-04T07:44:07Z</time></trkpt><trkpt lat="45.56693412023666" lon="10.338839233017188"><ele>571.0</ele><time>2026-04-04T07:44:08Z</time></trkpt><trkpt lat="45.566938798109646" lon="10.33896762994007"><ele>570.3333333333333</ele><time>2026-04-04T07:44:09Z</time></trkpt><trkpt lat="45.56697537869544" lon="10.339073264414765"><ele>569.6666666666666</ele><time>2026-04-04T07:44:10Z</time></trkpt><trkpt lat="45.56703792084637" lon="10.339157838577364"><ele>569.0</ele><time>2026-04-04T07:44:11Z</time></trkpt><trkpt lat="45.5671122872809" lon="10.339249403051353"><ele>567.8</ele><time>2026-04-04T07:44:12Z</time></trkpt><trkpt lat="45.56719801468173" lon="10.339322723405383"><ele>566.5999999999999</ele><time>2026-04-04T07:44:13Z</time></trkpt><trkpt lat="45.5672808527978" lon="10.339381706994322"><ele>565.4</ele><time>2026-04-04T07:44:14Z</time></trkpt><trkpt lat="45.567368543447806" lon="10.339458067300983"><ele>564.1999999999999</ele><time>2026-04-04T07:44:15Z</time></trkpt><trkpt lat="45.56746717971111" lon="10.339527925814497"><ele>563.0</ele><time>2026-04-04T07:44:16Z</time></trkpt><trkpt lat="45.567568958987756" lon="10.339587944688454"><ele>563.0</ele><time>2026-04-04T07:44:17Z</time></trkpt><trkpt lat="45.56767237308821" lon="10.33966302330293"><ele>563.0</ele><time>2026-04-04T07:44:18Z</time></trkpt><trkpt lat="45.56776469050027" lon="10.339726442232102"><ele>563.0</ele><time>2026-04-04T07:44:19Z</time></trkpt><trkpt lat="45.56784853542694" lon="10.339778370360802"><ele>563.0</ele><time>2026-04-04T07:44:20Z</time></trkpt><trkpt lat="45.567934128355134" lon="10.339811277269193"><ele>563.0</ele><time>2026-04-04T07:44:21Z</time></trkpt><trkpt lat="45.568019881257726" lon="10.339827507902537"><ele>562.8333333333333</ele><time>2026-04-04T07:44:22Z</time></trkpt><trkpt lat="45.568102568954174" lon="10.339841048173913"><ele>562.6666666666666</ele><time>2026-04-04T07:44:23Z</time></trkpt><trkpt lat="45.568185179589584" lon="10.339824654555327"><ele>562.5</ele><time>2026-04-04T07:44:24Z</time></trkpt><trkpt lat="45.568261544767005" lon="10.339808423962719"><ele>562.3333333333334</ele><time>2026-04-04T07:44:25Z</time></trkpt><trkpt lat="45.56834494653142" lon="10.339778022259534"><ele>562.1666666666667</ele><time>2026-04-04T07:44:26Z</time></trkpt><trkpt lat="45.568414810663484" lon="10.339756331341311"><ele>562.0</ele><time>2026-04-04T07:44:27Z</time></trkpt><trkpt lat="45.56850650461943" lon="10.339740673365196"><ele>562.0</ele><time>2026-04-04T07:44:28Z</time></trkpt><trkpt lat="45.568609627900884" lon="10.339717837270234"><ele>562.0</ele><time>2026-04-04T07:44:29Z</time></trkpt><trkpt lat="45.56869324818568" lon="10.339680024592976"><ele>562.0</ele><time>2026-04-04T07:44:30Z</time></trkpt><trkpt lat="45.56878926840504" lon="10.339703437270632"><ele>562.0</ele><time>2026-04-04T07:44:31Z</time></trkpt><trkpt lat="45.568889667457796" lon="10.339763927143059"><ele>562.0</ele><time>2026-04-04T07:44:32Z</time></trkpt><trkpt lat="45.568979160331594" lon="10.339807828445823"><ele>562.6</ele><time>2026-04-04T07:44:33Z</time></trkpt><trkpt lat="45.5690834131442" lon="10.339835245725054"><ele>563.2</ele><time>2026-04-04T07:44:34Z</time></trkpt><trkpt lat="45.56919650552366" lon="10.339839129259227"><ele>563.8</ele><time>2026-04-04T07:44:35Z</time></trkpt><trkpt lat="45.56930783945078" lon="10.339802086596968"><ele>564.4</ele><time>2026-04-04T07:44:36Z</time></trkpt><trkpt lat="45.56941172949278" lon="10.33978198209401"><ele>565.0</ele><time>2026-04-04T07:44:37Z</time></trkpt><trkpt lat="45.5695126724469" lon="10.339778682966795"><ele>565.0</ele><time>2026-04-04T07:44:38Z</time></trkpt><trkpt lat="45.56961607205038" lon="10.339789264791843"><ele>565.0</ele><time>2026-04-04T07:44:39Z</time></trkpt><trkpt lat="45.56972615307187" lon="10.339783060348392"><ele>565.0</ele><time>2026-04-04T07:44:40Z</time></trkpt><trkpt lat="45.56983039832325" lon="10.33977289118403"><ele>565.0</ele><time>2026-04-04T07:44:41Z</time></trkpt><trkpt lat="45.56992922229239" lon="10.339791854256259"><ele>565.0</ele><time>2026-04-04T07:44:42Z</time></trkpt><trkpt lat="45.570015468827144" lon="10.339830248545596"><ele>565.0</ele><time>2026-04-04T07:44:43Z</time></trkpt><trkpt lat="45.57009418853313" lon="10.339878537760264"><ele>565.0</ele><time>2026-04-04T07:44:44Z</time></trkpt><trkpt lat="45.57017286391493" lon="10.33991537188656"><ele>565.0</ele><time>2026-04-04T07:44:45.999Z</time></trkpt><trkpt lat="45.57020856356144" lon="10.340009780026518"><ele>565.0</ele><time>2026-04-04T07:45:14.999Z</time></trkpt><trkpt lat="45.570181437605704" lon="10.34013903501647"><ele>565.0</ele><time>2026-04-04T07:45:17.999Z</time></trkpt><trkpt lat="45.57018581579024" lon="10.340283455079687"><ele>565.0</ele><time>2026-04-04T07:45:19.999Z</time></trkpt><trkpt lat="45.570170163153634" lon="10.340419535425903"><ele>565.0</ele><time>2026-04-04T07:45:21.999Z</time></trkpt><trkpt lat="45.57009745432974" lon="10.340403893681465"><ele>565.0</ele><time>2026-04-04T07:45:24.999Z</time></trkpt><trkpt lat="45.57001628248108" lon="10.340454911299434"><ele>565.0</ele><time>2026-04-04T07:45:27.999Z</time></trkpt><trkpt lat="45.570018225846155" lon="10.340560299610273"><ele>565.0</ele><time>2026-04-04T07:45:30.999Z</time></trkpt><trkpt lat="45.56997517963165" lon="10.340649981539698"><ele>565.0</ele><time>2026-04-04T07:45:34.999Z</time></trkpt><trkpt lat="45.5700155999119" lon="10.340739729918875"><ele>565.0</ele><time>2026-04-04T07:45:36.999Z</time></trkpt><trkpt lat="45.569955616975555" lon="10.340772179871712"><ele>564.9999999999999</ele><time>2026-04-04T07:45:39.999Z</time></trkpt><trkpt lat="45.569883218802985" lon="10.340852199303006"><ele>565.0</ele><time>2026-04-04T07:45:42.999Z</time></trkpt><trkpt lat="45.569808310605346" lon="10.34088610668439"><ele>565.0</ele><time>2026-04-04T07:45:50.999Z</time></trkpt><trkpt lat="45.56987338081901" lon="10.340884629665656"><ele>565.0</ele><time>2026-04-04T07:45:58.999Z</time></trkpt><trkpt lat="45.56990624142822" lon="10.340802779291034"><ele>565.0</ele><time>2026-04-04T07:46:25Z</time></trkpt><trkpt lat="45.569950083555646" lon="10.34072934375922"><ele>564.9999999999999</ele><time>2026-04-04T07:46:31Z</time></trkpt><trkpt lat="45.56995476148652" lon="10.340625372973305"><ele>565.0</ele><time>2026-04-04T07:46:38Z</time></trkpt><trkpt lat="45.569984252926524" lon="10.340541249544604"><ele>564.9999999999999</ele><time>2026-04-04T07:46:44.999Z</time></trkpt><trkpt lat="45.569986718156194" lon="10.340448499842347"><ele>565.0</ele><time>2026-04-04T07:46:55.999Z</time></trkpt><trkpt lat="45.57005853071475" lon="10.340415557317774"><ele>565.0</ele><time>2026-04-04T07:47:00.999Z</time></trkpt><trkpt lat="45.57012582561022" lon="10.340404865955957"><ele>565.0</ele><time>2026-04-04T07:47:05.999Z</time></trkpt><trkpt lat="45.570155348689696" lon="10.340315590816438"><ele>565.0</ele><time>2026-04-04T07:47:09.999Z</time></trkpt><trkpt lat="45.57016039027204" lon="10.340205758147102"><ele>564.9999999999999</ele><time>2026-04-04T07:47:12.999Z</time></trkpt><trkpt lat="45.57017011241626" lon="10.340107113393634"><ele>565.0</ele><time>2026-04-04T07:47:15.999Z</time></trkpt><trkpt lat="45.570198737477504" lon="10.340020237759157"><ele>565.0</ele><time>2026-04-04T07:47:18.999Z</time></trkpt><trkpt lat="45.570292478265316" lon="10.340081443173139"><ele>565.0</ele><time>2026-04-04T07:48:15Z</time></trkpt><trkpt lat="45.570392031869126" lon="10.340192208024328"><ele>565.0</ele><time>2026-04-04T07:48:17Z</time></trkpt><trkpt lat="45.570445861635065" lon="10.34025857961054"><ele>565.0</ele><time>2026-04-04T07:48:18Z</time></trkpt><trkpt lat="45.57049833171278" lon="10.340326560631922"><ele>565.0</ele><time>2026-04-04T07:48:19Z</time></trkpt><trkpt lat="45.57055630343868" lon="10.340390659210637"><ele>565.0</ele><time>2026-04-04T07:48:20Z</time></trkpt><trkpt lat="45.57062737584782" lon="10.340528089136779"><ele>565.8333333333334</ele><time>2026-04-04T07:48:22Z</time></trkpt><trkpt lat="45.5706810493556" lon="10.340625090409247"><ele>566.6666666666667</ele><time>2026-04-04T07:48:23Z</time></trkpt><trkpt lat="45.5707332449396" lon="10.340691204224578"><ele>567.5</ele><time>2026-04-04T07:48:24Z</time></trkpt><trkpt lat="45.57079927392819" lon="10.340748452112413"><ele>568.3333333333334</ele><time>2026-04-04T07:48:25Z</time></trkpt><trkpt lat="45.570871833125096" lon="10.340815999320132"><ele>569.1666666666666</ele><time>2026-04-04T07:48:26Z</time></trkpt><trkpt lat="45.57092499829463" lon="10.340884427417679"><ele>570.0</ele><time>2026-04-04T07:48:27Z</time></trkpt><trkpt lat="45.57095186321078" lon="10.340978932661926"><ele>570.0</ele><time>2026-04-04T07:48:28Z</time></trkpt><trkpt lat="45.57097658646247" lon="10.341081804993276"><ele>570.0</ele><time>2026-04-04T07:48:29Z</time></trkpt><trkpt lat="45.57100970293286" lon="10.34116692961421"><ele>570.0</ele><time>2026-04-04T07:48:30Z</time></trkpt><trkpt lat="45.57109753250126" lon="10.341285643248984"><ele>570.0</ele><time>2026-04-04T07:48:32Z</time></trkpt><trkpt lat="45.57118258606287" lon="10.341444672333784"><ele>570.0</ele><time>2026-04-04T07:48:34Z</time></trkpt><trkpt lat="45.57123950121079" lon="10.341519939395955"><ele>570.0</ele><time>2026-04-04T07:48:35Z</time></trkpt><trkpt lat="45.57129461618069" lon="10.341604344642402"><ele>570.0</ele><time>2026-04-04T07:48:36Z</time></trkpt><trkpt lat="45.57135576468139" lon="10.341683627745715"><ele>570.0</ele><time>2026-04-04T07:48:37Z</time></trkpt><trkpt lat="45.57139124776861" lon="10.341768172120481"><ele>570.0</ele><time>2026-04-04T07:48:38Z</time></trkpt><trkpt lat="45.57141695833535" lon="10.341855358247859"><ele>570.0</ele><time>2026-04-04T07:48:39Z</time></trkpt><trkpt lat="45.57141624586908" lon="10.341988307676992"><ele>570.0</ele><time>2026-04-04T07:48:41Z</time></trkpt><trkpt lat="45.571414910969494" lon="10.34209016654719"><ele>570.0</ele><time>2026-04-04T07:48:43Z</time></trkpt><trkpt lat="45.57143518878496" lon="10.342202690405571"><ele>570.0</ele><time>2026-04-04T07:48:45Z</time></trkpt><trkpt lat="45.57145131786711" lon="10.342311371551444"><ele>570.0</ele><time>2026-04-04T07:48:47Z</time></trkpt><trkpt lat="45.57150121792546" lon="10.342388284031989"><ele>570.0</ele><time>2026-04-04T07:48:50.999Z</time></trkpt><trkpt lat="45.571532561752676" lon="10.342528846120418"><ele>570.0</ele><time>2026-04-04T07:48:53.999Z</time></trkpt><trkpt lat="45.57157349173303" lon="10.342620876996419"><ele>570.0</ele><time>2026-04-04T07:48:55.999Z</time></trkpt><trkpt lat="45.57164000760927" lon="10.342666835128636"><ele>570.0</ele><time>2026-04-04T07:48:57.999Z</time></trkpt><trkpt lat="45.571716458750686" lon="10.342719523424973"><ele>570.0</ele><time>2026-04-04T07:48:59.999Z</time></trkpt><trkpt lat="45.571801331672205" lon="10.342771368023858"><ele>570.0</ele><time>2026-04-04T07:49:01.999Z</time></trkpt><trkpt lat="45.57188626666258" lon="10.342849137401492"><ele>570.0</ele><time>2026-04-04T07:49:03.999Z</time></trkpt><trkpt lat="45.57196289341553" lon="10.342999251083102"><ele>570.0</ele><time>2026-04-04T07:49:05.999Z</time></trkpt><trkpt lat="45.57199930187436" lon="10.343094700980515"><ele>570.0</ele><time>2026-04-04T07:49:06.999Z</time></trkpt><trkpt lat="45.572041529593704" lon="10.343183970876867"><ele>570.0</ele><time>2026-04-04T07:49:07.999Z</time></trkpt><trkpt lat="45.572074299489636" lon="10.34326696908141"><ele>570.0</ele><time>2026-04-04T07:49:08.999Z</time></trkpt><trkpt lat="45.57209874183646" lon="10.343366651466873"><ele>570.0</ele><time>2026-04-04T07:49:09.999Z</time></trkpt><trkpt lat="45.57213549522492" lon="10.343474707635368"><ele>570.0</ele><time>2026-04-04T07:49:10.999Z</time></trkpt><trkpt lat="45.572178353581776" lon="10.34359164099895"><ele>570.0</ele><time>2026-04-04T07:49:11.999Z</time></trkpt><trkpt lat="45.57222468199455" lon="10.343705019249665"><ele>570.0</ele><time>2026-04-04T07:49:12.999Z</time></trkpt><trkpt lat="45.57229639581728" lon="10.343808784130198"><ele>570.0</ele><time>2026-04-04T07:49:13.999Z</time></trkpt><trkpt lat="45.57233751162178" lon="10.343916031877203"><ele>570.0</ele><time>2026-04-04T07:49:14.999Z</time></trkpt><trkpt lat="45.57237517473457" lon="10.344032695801552"><ele>570.0</ele><time>2026-04-04T07:49:15.999Z</time></trkpt><trkpt lat="45.572406383811035" lon="10.344174459605906"><ele>570.0</ele><time>2026-04-04T07:49:16.999Z</time></trkpt><trkpt lat="45.57242258951895" lon="10.344317927622303"><ele>571.0</ele><time>2026-04-04T07:49:17.999Z</time></trkpt><trkpt lat="45.57244266656857" lon="10.344455535525151"><ele>572.0</ele><time>2026-04-04T07:49:18.999Z</time></trkpt><trkpt lat="45.57246180625016" lon="10.344591318342943"><ele>573.0</ele><time>2026-04-04T07:49:19.999Z</time></trkpt><trkpt lat="45.57249218848235" lon="10.344727767434074"><ele>574.0</ele><time>2026-04-04T07:49:20.999Z</time></trkpt><trkpt lat="45.57253564837237" lon="10.344857264493454"><ele>575.0</ele><time>2026-04-04T07:49:21.999Z</time></trkpt><trkpt lat="45.57259209067812" lon="10.344974696885698"><ele>575.8</ele><time>2026-04-04T07:49:22.999Z</time></trkpt><trkpt lat="45.57262948276798" lon="10.34509566976102"><ele>576.6</ele><time>2026-04-04T07:49:23.999Z</time></trkpt><trkpt lat="45.57265713289604" lon="10.345208754003872"><ele>577.4</ele><time>2026-04-04T07:49:24.999Z</time></trkpt><trkpt lat="45.57266819418969" lon="10.345313023868323"><ele>578.2</ele><time>2026-04-04T07:49:25.999Z</time></trkpt><trkpt lat="45.5726578024297" lon="10.34542201465592"><ele>579.0</ele><time>2026-04-04T07:49:26.999Z</time></trkpt><trkpt lat="45.57266765860961" lon="10.345603832040194"><ele>579.0</ele><time>2026-04-04T07:49:28.999Z</time></trkpt><trkpt lat="45.572689556087255" lon="10.345724775651949"><ele>579.0</ele><time>2026-04-04T07:49:29.999Z</time></trkpt><trkpt lat="45.57269220828331" lon="10.345844839671255"><ele>579.0</ele><time>2026-04-04T07:49:30.999Z</time></trkpt><trkpt lat="45.57268051237327" lon="10.345953275834313"><ele>579.0</ele><time>2026-04-04T07:49:31.999Z</time></trkpt><trkpt lat="45.5726745385778" lon="10.34605377721059"><ele>579.0</ele><time>2026-04-04T07:49:32.999Z</time></trkpt><trkpt lat="45.572693845197925" lon="10.346178614051846"><ele>579.0</ele><time>2026-04-04T07:49:33.999Z</time></trkpt><trkpt lat="45.572697565811374" lon="10.346279365434269"><ele>579.3333333333334</ele><time>2026-04-04T07:49:34.999Z</time></trkpt><trkpt lat="45.572679895795055" lon="10.346423784986591"><ele>579.6666666666666</ele><time>2026-04-04T07:49:36.999Z</time></trkpt><trkpt lat="45.5726481448028" lon="10.346506260418382"><ele>580.0</ele><time>2026-04-04T07:49:37.999Z</time></trkpt><trkpt lat="45.57261056561677" lon="10.346622846105767"><ele>580.3333333333333</ele><time>2026-04-04T07:49:40.999Z</time></trkpt><trkpt lat="45.57265300787211" lon="10.34674214432115"><ele>580.6666666666666</ele><time>2026-04-04T07:49:42.999Z</time></trkpt><trkpt lat="45.572684483656566" lon="10.346825177113239"><ele>581.0</ele><time>2026-04-04T07:49:43.999Z</time></trkpt><trkpt lat="45.572722144679645" lon="10.346926006812561"><ele>581.0</ele><time>2026-04-04T07:49:44.999Z</time></trkpt><trkpt lat="45.57276697355712" lon="10.347025099380675"><ele>581.0</ele><time>2026-04-04T07:49:45.999Z</time></trkpt><trkpt lat="45.57283866527912" lon="10.347115483449207"><ele>581.0</ele><time>2026-04-04T07:49:46.999Z</time></trkpt><trkpt lat="45.572873181969506" lon="10.34723436810508"><ele>581.0</ele><time>2026-04-04T07:49:47.999Z</time></trkpt><trkpt lat="45.57289156788211" lon="10.34738136325608"><ele>581.0</ele><time>2026-04-04T07:49:48.999Z</time></trkpt><trkpt lat="45.57291682088373" lon="10.347501022996324"><ele>580.6</ele><time>2026-04-04T07:49:49.999Z</time></trkpt><trkpt lat="45.572950045941894" lon="10.347604678396982"><ele>580.2</ele><time>2026-04-04T07:49:50.999Z</time></trkpt><trkpt lat="45.572972048505164" lon="10.347703636494495"><ele>579.8</ele><time>2026-04-04T07:49:51.999Z</time></trkpt><trkpt lat="45.57304447784929" lon="10.347825450681292"><ele>579.4</ele><time>2026-04-04T07:49:53.999Z</time></trkpt><trkpt lat="45.573057579419206" lon="10.348015577507947"><ele>579.0</ele><time>2026-04-04T07:49:55.999Z</time></trkpt><trkpt lat="45.57305828396458" lon="10.348155940583371"><ele>579.6666666666666</ele><time>2026-04-04T07:49:57.999Z</time></trkpt><trkpt lat="45.57300850098754" lon="10.348269199892242"><ele>580.3333333333334</ele><time>2026-04-04T07:50:00.999Z</time></trkpt><trkpt lat="45.57303195946017" lon="10.348377431558156"><ele>581.0</ele><time>2026-04-04T07:50:07.999Z</time></trkpt><trkpt lat="45.57306799592597" lon="10.348462099299164"><ele>581.6666666666667</ele><time>2026-04-04T07:50:10.999Z</time></trkpt><trkpt lat="45.573081524962596" lon="10.34855410291168"><ele>582.3333333333334</ele><time>2026-04-04T07:50:13.999Z</time></trkpt><trkpt lat="45.573090250720504" lon="10.348671133758591"><ele>583.0</ele><time>2026-04-04T07:50:17Z</time></trkpt><trkpt lat="45.573098412623146" lon="10.34878667425453"><ele>584.3333333333334</ele><time>2026-04-04T07:50:19Z</time></trkpt><trkpt lat="45.57312175911881" lon="10.348887277692475"><ele>585.6666666666667</ele><time>2026-04-04T07:50:22Z</time></trkpt><trkpt lat="45.5731354088739" lon="10.349007360090452"><ele>587.0</ele><time>2026-04-04T07:50:26Z</time></trkpt><trkpt lat="45.573097126406296" lon="10.349089926029015"><ele>588.3333333333334</ele><time>2026-04-04T07:50:29Z</time></trkpt><trkpt lat="45.57308158021383" lon="10.349186612840668"><ele>589.6666666666666</ele><time>2026-04-04T07:50:31Z</time></trkpt><trkpt lat="45.57303272605395" lon="10.34935057916713"><ele>591.0</ele><time>2026-04-04T07:50:33Z</time></trkpt><trkpt lat="45.573012716397365" lon="10.349458125727892"><ele>591.0</ele><time>2026-04-04T07:50:35Z</time></trkpt><trkpt lat="45.57293896378162" lon="10.349528731963616"><ele>591.0</ele><time>2026-04-04T07:50:37Z</time></trkpt><trkpt lat="45.57288047732135" lon="10.349572964245196"><ele>591.0</ele><time>2026-04-04T07:50:39Z</time></trkpt><trkpt lat="45.57284047226884" lon="10.349643067700597"><ele>591.0</ele><time>2026-04-04T07:50:41Z</time></trkpt><trkpt lat="45.572801928230376" lon="10.34973389183658"><ele>591.0</ele><time>2026-04-04T07:50:43Z</time></trkpt><trkpt lat="45.57276472334317" lon="10.349815457638941"><ele>591.0</ele><time>2026-04-04T07:50:46Z</time></trkpt><trkpt lat="45.57272775681454" lon="10.349930566898204"><ele>591.0</ele><time>2026-04-04T07:50:50Z</time></trkpt><trkpt lat="45.57271804012806" lon="10.350044270877342"><ele>593.25</ele><time>2026-04-04T07:50:57Z</time></trkpt><trkpt lat="45.57269565862318" lon="10.35014919383052"><ele>595.5</ele><time>2026-04-04T07:51:00.999Z</time></trkpt><trkpt lat="45.572705106053284" lon="10.350252030780704"><ele>597.75</ele><time>2026-04-04T07:51:03.999Z</time></trkpt><trkpt lat="45.57266523903282" lon="10.350357611324295"><ele>600.0</ele><time>2026-04-04T07:51:06.999Z</time></trkpt><trkpt lat="45.57259351481859" lon="10.350694069597388"><ele>600.0</ele><time>2026-04-04T07:51:10.999Z</time></trkpt><trkpt lat="45.57249236645054" lon="10.350969261072708"><ele>600.0</ele><time>2026-04-04T07:51:12.999Z</time></trkpt><trkpt lat="45.57247332846661" lon="10.351087714941457"><ele>600.0</ele><time>2026-04-04T07:51:14.999Z</time></trkpt><trkpt lat="45.57249410974819" lon="10.351179092725184"><ele>600.0</ele><time>2026-04-04T07:51:18.999Z</time></trkpt><trkpt lat="45.57251671082805" lon="10.35127059160786"><ele>600.0</ele><time>2026-04-04T07:51:21.999Z</time></trkpt><trkpt lat="45.572559199603134" lon="10.351360173971305"><ele>601.1666666666666</ele><time>2026-04-04T07:51:25.999Z</time></trkpt><trkpt lat="45.57263860178906" lon="10.35141508169936"><ele>602.3333333333334</ele><time>2026-04-04T07:51:28.999Z</time></trkpt><trkpt lat="45.57275428994296" lon="10.351427689284229"><ele>603.5</ele><time>2026-04-04T07:51:30.999Z</time></trkpt><trkpt lat="45.572822728909024" lon="10.351403342341083"><ele>604.6666666666667</ele><time>2026-04-04T07:51:32.999Z</time></trkpt><trkpt lat="45.57286605052199" lon="10.351474175271765"><ele>605.8333333333334</ele><time>2026-04-04T07:51:34.999Z</time></trkpt><trkpt lat="45.57283584011661" lon="10.351566551311937"><ele>607.0</ele><time>2026-04-04T07:51:39.999Z</time></trkpt><trkpt lat="45.57278882953231" lon="10.351675209172422"><ele>607.0</ele><time>2026-04-04T07:51:41.999Z</time></trkpt><trkpt lat="45.57275851218073" lon="10.351857215525834"><ele>607.0</ele><time>2026-04-04T07:51:43.999Z</time></trkpt><trkpt lat="45.572749742774405" lon="10.351960073391599"><ele>607.0</ele><time>2026-04-04T07:51:44.999Z</time></trkpt><trkpt lat="45.572759171742845" lon="10.352066360869967"><ele>607.0</ele><time>2026-04-04T07:51:46.999Z</time></trkpt><trkpt lat="45.57277662243468" lon="10.352191450783218"><ele>607.0</ele><time>2026-04-04T07:51:48.999Z</time></trkpt><trkpt lat="45.57279761425967" lon="10.35233400269451"><ele>608.0</ele><time>2026-04-04T07:51:50.999Z</time></trkpt><trkpt lat="45.5728196511045" lon="10.35242209812"><ele>609.0</ele><time>2026-04-04T07:51:51.999Z</time></trkpt><trkpt lat="45.57283570280978" lon="10.35251829895883"><ele>610.0</ele><time>2026-04-04T07:51:52.999Z</time></trkpt><trkpt lat="45.57284086122887" lon="10.352667313863504"><ele>611.0</ele><time>2026-04-04T07:51:54.999Z</time></trkpt><trkpt lat="45.57283535538592" lon="10.352759467070925"><ele>612.0</ele><time>2026-04-04T07:51:55.999Z</time></trkpt><trkpt lat="45.5728069925509" lon="10.352865608841523"><ele>613.0</ele><time>2026-04-04T07:51:56.999Z</time></trkpt><trkpt lat="45.572771027180295" lon="10.352951927669343"><ele>614.0</ele><time>2026-04-04T07:51:57.999Z</time></trkpt><trkpt lat="45.57275524641032" lon="10.353084900995059"><ele>615.0</ele><time>2026-04-04T07:51:59.999Z</time></trkpt><trkpt lat="45.572820124434585" lon="10.353146556387745"><ele>616.0</ele><time>2026-04-04T07:52:01.999Z</time></trkpt><trkpt lat="45.57291949733511" lon="10.353210668405772"><ele>617.0</ele><time>2026-04-04T07:52:03.999Z</time></trkpt><trkpt lat="45.572966390459975" lon="10.353338287246164"><ele>618.0</ele><time>2026-04-04T07:52:05.999Z</time></trkpt><trkpt lat="45.57305316532774" lon="10.353405579143686"><ele>619.0</ele><time>2026-04-04T07:52:07.999Z</time></trkpt><trkpt lat="45.573112055394525" lon="10.353504518887561"><ele>620.0</ele><time>2026-04-04T07:52:09.999Z</time></trkpt><trkpt lat="45.57317964495136" lon="10.353545581564225"><ele>621.0</ele><time>2026-04-04T07:52:11.999Z</time></trkpt><trkpt lat="45.573291769718445" lon="10.353532820616962"><ele>622.0</ele><time>2026-04-04T07:52:13.999Z</time></trkpt><trkpt lat="45.57339776262159" lon="10.353586716390408"><ele>623.0</ele><time>2026-04-04T07:52:15.999Z</time></trkpt><trkpt lat="45.57350499983648" lon="10.353621656206784"><ele>623.0</ele><time>2026-04-04T07:52:17.999Z</time></trkpt><trkpt lat="45.57360559403116" lon="10.35362375121593"><ele>623.0</ele><time>2026-04-04T07:52:19.999Z</time></trkpt><trkpt lat="45.57370873537188" lon="10.35364219657006"><ele>623.0</ele><time>2026-04-04T07:52:21.999Z</time></trkpt><trkpt lat="45.573787983456434" lon="10.353651341463957"><ele>623.0</ele><time>2026-04-04T07:52:25Z</time></trkpt><trkpt lat="45.57384871511432" lon="10.35367562779593"><ele>623.0</ele><time>2026-04-04T07:52:27Z</time></trkpt><trkpt lat="45.57393705419286" lon="10.353604807324377"><ele>623.0</ele><time>2026-04-04T07:52:30Z</time></trkpt><trkpt lat="45.57401408384119" lon="10.353604428874155"><ele>623.8333333333333</ele><time>2026-04-04T07:52:32Z</time></trkpt><trkpt lat="45.574089361585756" lon="10.353585399530441"><ele>624.6666666666666</ele><time>2026-04-04T07:52:34Z</time></trkpt><trkpt lat="45.574169005160336" lon="10.35355213264338"><ele>625.5</ele><time>2026-04-04T07:52:36Z</time></trkpt><trkpt lat="45.57424305328108" lon="10.353553501962846"><ele>626.3333333333334</ele><time>2026-04-04T07:52:41Z</time></trkpt><trkpt lat="45.57432317004451" lon="10.35356270403571"><ele>627.1666666666667</ele><time>2026-04-04T07:52:48Z</time></trkpt><trkpt lat="45.574395303812885" lon="10.353524399981708"><ele>628.0</ele><time>2026-04-04T07:52:59Z</time></trkpt><trkpt lat="45.5744635821472" lon="10.35351832215518"><ele>628.6666666666667</ele><time>2026-04-04T07:53:02.999Z</time></trkpt><trkpt lat="45.57456619860209" lon="10.353530571358165"><ele>629.3333333333334</ele><time>2026-04-04T07:53:18.999Z</time></trkpt><trkpt lat="45.57462954413692" lon="10.353474067306726"><ele>630.0</ele><time>2026-04-04T07:53:20.999Z</time></trkpt><trkpt lat="45.57469744151355" lon="10.353418386239756"><ele>630.6666666666666</ele><time>2026-04-04T07:53:21.999Z</time></trkpt><trkpt lat="45.574756762832656" lon="10.353371986553753"><ele>631.3333333333333</ele><time>2026-04-04T07:53:22.999Z</time></trkpt><trkpt lat="45.574820818320674" lon="10.353360521086337"><ele>632.0</ele><time>2026-04-04T07:53:26.999Z</time></trkpt><trkpt lat="45.57482060677138" lon="10.353473691767148"><ele>632.0</ele><time>2026-04-04T07:53:30.999Z</time></trkpt><trkpt lat="45.574753260348544" lon="10.353474691775205"><ele>632.0</ele><time>2026-04-04T07:53:35.999Z</time></trkpt><trkpt lat="45.574667069221924" lon="10.353477872756079"><ele>632.0</ele><time>2026-04-04T07:53:39.999Z</time></trkpt><trkpt lat="45.574595498832444" lon="10.35354372630863"><ele>632.0</ele><time>2026-04-04T07:53:42.999Z</time></trkpt><trkpt lat="45.57452306184721" lon="10.353614258016924"><ele>632.0</ele><time>2026-04-04T07:54:01.999Z</time></trkpt><trkpt lat="45.57450600900573" lon="10.353479168540249"><ele>632.0</ele><time>2026-04-04T07:54:54Z</time></trkpt><trkpt lat="45.57460844972366" lon="10.353469449731056"><ele>632.0000000000001</ele><time>2026-04-04T07:55:00Z</time></trkpt><trkpt lat="45.57467396927315" lon="10.353457963431639"><ele>632.0</ele><time>2026-04-04T07:55:01Z</time></trkpt><trkpt lat="45.57474154776652" lon="10.35345840237616"><ele>632.0</ele><time>2026-04-04T07:55:03Z</time></trkpt><trkpt lat="45.57479694675319" lon="10.353515591842857"><ele>632.0</ele><time>2026-04-04T07:55:07.999Z</time></trkpt><trkpt lat="45.57487214001904" lon="10.353501645025966"><ele>632.0</ele><time>2026-04-04T07:55:14.999Z</time></trkpt><trkpt lat="45.57494292561809" lon="10.35351227481992"><ele>632.0000000000001</ele><time>2026-04-04T07:55:17.999Z</time></trkpt><trkpt lat="45.574986671663694" lon="10.35358171667"><ele>632.0</ele><time>2026-04-04T07:55:19.999Z</time></trkpt><trkpt lat="45.57505123135381" lon="10.353516767148772"><ele>632.0</ele><time>2026-04-04T07:56:43Z</time></trkpt><trkpt lat="45.5751275886352" lon="10.353549865819932"><ele>632.0</ele><time>2026-04-04T07:56:46Z</time></trkpt><trkpt lat="45.575235844328624" lon="10.353539349574213"><ele>632.0</ele><time>2026-04-04T07:56:48Z</time></trkpt><trkpt lat="45.57535415361597" lon="10.353479755702708"><ele>632.0</ele><time>2026-04-04T07:56:50Z</time></trkpt><trkpt lat="45.575407142277776" lon="10.35342747026175"><ele>632.0</ele><time>2026-04-04T07:56:53Z</time></trkpt><trkpt lat="45.57547088735467" lon="10.353388197933239"><ele>632.0</ele><time>2026-04-04T07:56:57Z</time></trkpt><trkpt lat="45.575540963660735" lon="10.353335129432272"><ele>635.1428571428572</ele><time>2026-04-04T07:56:59Z</time></trkpt><trkpt lat="45.57559484828337" lon="10.353262606236319"><ele>638.2857142857143</ele><time>2026-04-04T07:57:01Z</time></trkpt><trkpt lat="45.575653326586774" lon="10.35320674911099"><ele>641.4285714285714</ele><time>2026-04-04T07:57:03Z</time></trkpt><trkpt lat="45.5756913236291" lon="10.353130589479164"><ele>644.5714285714287</ele><time>2026-04-04T07:57:05Z</time></trkpt><trkpt lat="45.57573124836756" lon="10.353060173421795"><ele>647.7142857142858</ele><time>2026-04-04T07:57:07Z</time></trkpt><trkpt lat="45.575757273461086" lon="10.352977315908023"><ele>650.8571428571429</ele><time>2026-04-04T07:57:09Z</time></trkpt><trkpt lat="45.57573703813998" lon="10.352876415568984"><ele>654.0</ele><time>2026-04-04T07:57:11.999Z</time></trkpt><trkpt lat="45.575711129064516" lon="10.35277133611421"><ele>654.0</ele><time>2026-04-04T07:57:13.999Z</time></trkpt><trkpt lat="45.57568372455429" lon="10.352689586359382"><ele>654.0</ele><time>2026-04-04T07:57:14.999Z</time></trkpt><trkpt lat="45.57576620290763" lon="10.352684032016674"><ele>654.0</ele><time>2026-04-04T07:57:18.999Z</time></trkpt><trkpt lat="45.57580835831573" lon="10.35278548838608"><ele>654.0</ele><time>2026-04-04T07:57:21.999Z</time></trkpt><trkpt lat="45.57585958509496" lon="10.35284447652096"><ele>654.0</ele><time>2026-04-04T07:57:25.999Z</time></trkpt><trkpt lat="45.57592096763594" lon="10.352916994662955"><ele>654.0</ele><time>2026-04-04T07:58:23.999Z</time></trkpt><trkpt lat="45.57592912452383" lon="10.353008608180756"><ele>654.0</ele><time>2026-04-04T08:03:18Z</time></trkpt><trkpt lat="45.575944022053775" lon="10.353102884525642"><ele>654.0</ele><time>2026-04-04T08:03:19.999Z</time></trkpt><trkpt lat="45.57596209968385" lon="10.353195955948586"><ele>654.0</ele><time>2026-04-04T08:03:21.999Z</time></trkpt><trkpt lat="45.575966375626244" lon="10.353328843466501"><ele>654.0</ele><time>2026-04-04T08:03:23.999Z</time></trkpt><trkpt lat="45.575959303029784" lon="10.3534655403337"><ele>654.0</ele><time>2026-04-04T08:03:25.999Z</time></trkpt><trkpt lat="45.575946880193364" lon="10.353624498784738"><ele>654.0</ele><time>2026-04-04T08:03:27.999Z</time></trkpt><trkpt lat="45.57594418891732" lon="10.353719145889551"><ele>654.0</ele><time>2026-04-04T08:03:28.999Z</time></trkpt><trkpt lat="45.57594219024263" lon="10.353812998663768"><ele>654.4285714285714</ele><time>2026-04-04T08:03:29.999Z</time></trkpt><trkpt lat="45.575938725489976" lon="10.353907949649058"><ele>654.8571428571429</ele><time>2026-04-04T08:03:30.999Z</time></trkpt><trkpt lat="45.5759418627895" lon="10.354025560773955"><ele>655.2857142857142</ele><time>2026-04-04T08:03:31.999Z</time></trkpt><trkpt lat="45.575943343612835" lon="10.35412907078335"><ele>655.7142857142858</ele><time>2026-04-04T08:03:32.999Z</time></trkpt><trkpt lat="45.575930250160795" lon="10.354217232365311"><ele>656.1428571428572</ele><time>2026-04-04T08:03:33.999Z</time></trkpt><trkpt lat="45.57588572382177" lon="10.354306885430724"><ele>656.5714285714286</ele><time>2026-04-04T08:03:34.999Z</time></trkpt><trkpt lat="45.5758271951667" lon="10.354377585516115"><ele>657.0</ele><time>2026-04-04T08:03:35.999Z</time></trkpt><trkpt lat="45.57575752565826" lon="10.35444317437449"><ele>657.0</ele><time>2026-04-04T08:03:36.999Z</time></trkpt><trkpt lat="45.57569251711382" lon="10.35451816851187"><ele>657.0</ele><time>2026-04-04T08:03:37.999Z</time></trkpt><trkpt lat="45.57562700379292" lon="10.354614679879841"><ele>657.0</ele><time>2026-04-04T08:03:38.999Z</time></trkpt><trkpt lat="45.575567374965765" lon="10.354724362326857"><ele>657.0</ele><time>2026-04-04T08:03:39.999Z</time></trkpt><trkpt lat="45.575504861673515" lon="10.35483812013928"><ele>657.0</ele><time>2026-04-04T08:03:40.999Z</time></trkpt><trkpt lat="45.57543786712328" lon="10.35495950297514"><ele>656.2</ele><time>2026-04-04T08:03:41.999Z</time></trkpt><trkpt lat="45.57535482523831" lon="10.355064321765852"><ele>655.4000000000001</ele><time>2026-04-04T08:03:42.999Z</time></trkpt><trkpt lat="45.575252260172775" lon="10.355138774976675"><ele>654.5999999999999</ele><time>2026-04-04T08:03:43.999Z</time></trkpt><trkpt lat="45.57514128143761" lon="10.355163982165047"><ele>653.8</ele><time>2026-04-04T08:03:44.999Z</time></trkpt><trkpt lat="45.575036007277454" lon="10.355181933509007"><ele>653.0</ele><time>2026-04-04T08:03:45.999Z</time></trkpt><trkpt lat="45.574931905607826" lon="10.355228625255457"><ele>653.0</ele><time>2026-04-04T08:03:46.999Z</time></trkpt><trkpt lat="45.57485430439512" lon="10.35530422516477"><ele>653.0</ele><time>2026-04-04T08:03:47.999Z</time></trkpt><trkpt lat="45.574790307601184" lon="10.355400460914367"><ele>653.0</ele><time>2026-04-04T08:03:48.999Z</time></trkpt><trkpt lat="45.57472588838322" lon="10.355488918832894"><ele>653.0</ele><time>2026-04-04T08:03:49.999Z</time></trkpt><trkpt lat="45.57465349780813" lon="10.355534194868431"><ele>653.0</ele><time>2026-04-04T08:03:50.999Z</time></trkpt><trkpt lat="45.57457280260905" lon="10.355531241739595"><ele>653.0</ele><time>2026-04-04T08:03:51.999Z</time></trkpt><trkpt lat="45.574496359609896" lon="10.355475882741846"><ele>653.0</ele><time>2026-04-04T08:03:52.999Z</time></trkpt><trkpt lat="45.57443658153485" lon="10.355369480690914"><ele>653.0</ele><time>2026-04-04T08:03:53.999Z</time></trkpt><trkpt lat="45.57439010950376" lon="10.355244909816504"><ele>653.0</ele><time>2026-04-04T08:03:54.999Z</time></trkpt><trkpt lat="45.574337264906035" lon="10.355120727256704"><ele>653.0</ele><time>2026-04-04T08:03:55.999Z</time></trkpt><trkpt lat="45.574270254554015" lon="10.355014571111774"><ele>653.0</ele><time>2026-04-04T08:03:56.999Z</time></trkpt><trkpt lat="45.57418978183887" lon="10.354922202474542"><ele>653.0</ele><time>2026-04-04T08:03:57.999Z</time></trkpt><trkpt lat="45.57409434552702" lon="10.354894434699023"><ele>653.0</ele><time>2026-04-04T08:03:58.999Z</time></trkpt><trkpt lat="45.57399730969765" lon="10.35491820499473"><ele>653.0</ele><time>2026-04-04T08:03:59.999Z</time></trkpt><trkpt lat="45.57388142818819" lon="10.354992149637836"><ele>653.0</ele><time>2026-04-04T08:04:00.999Z</time></trkpt><trkpt lat="45.57377385659182" lon="10.355087772015699"><ele>653.0</ele><time>2026-04-04T08:04:01.999Z</time></trkpt><trkpt lat="45.5736861380211" lon="10.35512197967406"><ele>653.5</ele><time>2026-04-04T08:04:02.999Z</time></trkpt><trkpt lat="45.573593420860625" lon="10.355215502815467"><ele>654.0</ele><time>2026-04-04T08:04:03.999Z</time></trkpt><trkpt lat="45.57352617802405" lon="10.355341730334237"><ele>654.5</ele><time>2026-04-04T08:04:04.999Z</time></trkpt><trkpt lat="45.57345579804322" lon="10.355495825171516"><ele>655.0</ele><time>2026-04-04T08:04:05.999Z</time></trkpt><trkpt lat="45.57338479332558" lon="10.355665427699181"><ele>655.0</ele><time>2026-04-04T08:04:06.999Z</time></trkpt><trkpt lat="45.573314664385016" lon="10.355811597555277"><ele>655.0</ele><time>2026-04-04T08:04:07.999Z</time></trkpt><trkpt lat="45.573279169054246" lon="10.356003072751903"><ele>655.0</ele><time>2026-04-04T08:04:08.999Z</time></trkpt><trkpt lat="45.573228973458576" lon="10.356169293305944"><ele>655.0</ele><time>2026-04-04T08:04:09.999Z</time></trkpt><trkpt lat="45.5731794738649" lon="10.356333173353569"><ele>657.5</ele><time>2026-04-04T08:04:10.999Z</time></trkpt><trkpt lat="45.573128285729105" lon="10.356500040896995"><ele>660.0</ele><time>2026-04-04T08:04:11.999Z</time></trkpt><trkpt lat="45.57307195075743" lon="10.356662663114395"><ele>662.5</ele><time>2026-04-04T08:04:12.999Z</time></trkpt><trkpt lat="45.57301208074498" lon="10.356824347908049"><ele>665.0</ele><time>2026-04-04T08:04:13.999Z</time></trkpt><trkpt lat="45.57294678775248" lon="10.356972463341092"><ele>665.0</ele><time>2026-04-04T08:04:14.999Z</time></trkpt><trkpt lat="45.5728754591877" lon="10.357085731676086"><ele>665.0</ele><time>2026-04-04T08:04:15.999Z</time></trkpt><trkpt lat="45.57281721501029" lon="10.357161532892654"><ele>665.0</ele><time>2026-04-04T08:04:16.999Z</time></trkpt><trkpt lat="45.572757619515556" lon="10.357267700906531"><ele>665.0</ele><time>2026-04-04T08:04:17.999Z</time></trkpt><trkpt lat="45.57271313575637" lon="10.35741171817357"><ele>665.0</ele><time>2026-04-04T08:04:18.999Z</time></trkpt><trkpt lat="45.57267437554802" lon="10.357594479705822"><ele>662.75</ele><time>2026-04-04T08:04:19.999Z</time></trkpt><trkpt lat="45.572625894101684" lon="10.357780641160286"><ele>660.5</ele><time>2026-04-04T08:04:20.999Z</time></trkpt><trkpt lat="45.57257617519601" lon="10.3579459516955"><ele>658.25</ele><time>2026-04-04T08:04:21.999Z</time></trkpt><trkpt lat="45.57252505220324" lon="10.35810900636928"><ele>656.0</ele><time>2026-04-04T08:04:22.999Z</time></trkpt><trkpt lat="45.57248056085777" lon="10.358276782927046"><ele>656.0</ele><time>2026-04-04T08:04:23.999Z</time></trkpt><trkpt lat="45.57243383908297" lon="10.358450463436343"><ele>656.0</ele><time>2026-04-04T08:04:24.999Z</time></trkpt><trkpt lat="45.572391325740355" lon="10.358632810780232"><ele>656.0</ele><time>2026-04-04T08:04:25.999Z</time></trkpt><trkpt lat="45.57235798370862" lon="10.358830223978615"><ele>656.0</ele><time>2026-04-04T08:04:26.999Z</time></trkpt><trkpt lat="45.57232251256562" lon="10.359014718298786"><ele>657.0</ele><time>2026-04-04T08:04:27.999Z</time></trkpt><trkpt lat="45.5722873283855" lon="10.359202954722218"><ele>658.0</ele><time>2026-04-04T08:04:28.999Z</time></trkpt><trkpt lat="45.57224763054201" lon="10.359384623393103"><ele>659.0</ele><time>2026-04-04T08:04:29.999Z</time></trkpt><trkpt lat="45.57220718140006" lon="10.359567377119486"><ele>660.0</ele><time>2026-04-04T08:04:30.999Z</time></trkpt><trkpt lat="45.572183836652" lon="10.359746944681927"><ele>660.4</ele><time>2026-04-04T08:04:31.999Z</time></trkpt><trkpt lat="45.572193425609065" lon="10.359923556544501"><ele>660.8</ele><time>2026-04-04T08:04:32.999Z</time></trkpt><trkpt lat="45.57222168625797" lon="10.360076988077761"><ele>661.2</ele><time>2026-04-04T08:04:33.999Z</time></trkpt><trkpt lat="45.572257657577964" lon="10.360204852169453"><ele>661.6</ele><time>2026-04-04T08:04:34.999Z</time></trkpt><trkpt lat="45.57227742612453" lon="10.360336798251579"><ele>662.0</ele><time>2026-04-04T08:04:35.999Z</time></trkpt><trkpt lat="45.57225849832363" lon="10.360461250642977"><ele>662.4000000000001</ele><time>2026-04-04T08:04:36.999Z</time></trkpt><trkpt lat="45.57220546212841" lon="10.360574671036632"><ele>662.8000000000001</ele><time>2026-04-04T08:04:37.999Z</time></trkpt><trkpt lat="45.57212857552216" lon="10.360650467984403"><ele>663.2</ele><time>2026-04-04T08:04:38.999Z</time></trkpt><trkpt lat="45.572032826528876" lon="10.360668012881362"><ele>663.6</ele><time>2026-04-04T08:04:39.999Z</time></trkpt><trkpt lat="45.57193991131606" lon="10.36062141914666"><ele>664.0</ele><time>2026-04-04T08:04:40.999Z</time></trkpt><trkpt lat="45.57184853078788" lon="10.3604501991914"><ele>663.2</ele><time>2026-04-04T08:04:41.999Z</time></trkpt><trkpt lat="45.57180434432146" lon="10.360301456098636"><ele>662.4000000000001</ele><time>2026-04-04T08:04:42.999Z</time></trkpt><trkpt lat="45.571758492202804" lon="10.360151498974641"><ele>661.6</ele><time>2026-04-04T08:04:43.999Z</time></trkpt><trkpt lat="45.571694607513436" lon="10.360017151667552"><ele>660.8</ele><time>2026-04-04T08:04:44.999Z</time></trkpt><trkpt lat="45.57162094944493" lon="10.35991265045936"><ele>660.0</ele><time>2026-04-04T08:04:45.998Z</time></trkpt><trkpt lat="45.571520650828326" lon="10.359857072292103"><ele>660.0</ele><time>2026-04-04T08:04:46.998Z</time></trkpt><trkpt lat="45.571412488636724" lon="10.359847622167505"><ele>660.0</ele><time>2026-04-04T08:04:47.998Z</time></trkpt><trkpt lat="45.57130297086831" lon="10.359864073201113"><ele>660.0</ele><time>2026-04-04T08:04:48.998Z</time></trkpt><trkpt lat="45.57120216523442" lon="10.359887431952934"><ele>660.0</ele><time>2026-04-04T08:04:49.998Z</time></trkpt><trkpt lat="45.57109398588029" lon="10.35995182731984"><ele>660.0</ele><time>2026-04-04T08:04:50.998Z</time></trkpt><trkpt lat="45.570986959592005" lon="10.360023053825186"><ele>661.0</ele><time>2026-04-04T08:04:51.998Z</time></trkpt><trkpt lat="45.57087521701266" lon="10.360072240997324"><ele>662.0</ele><time>2026-04-04T08:04:52.998Z</time></trkpt><trkpt lat="45.57076165194207" lon="10.36007936238407"><ele>663.0</ele><time>2026-04-04T08:04:53.998Z</time></trkpt><trkpt lat="45.57065514451582" lon="10.360073228165843"><ele>664.0</ele><time>2026-04-04T08:04:54.998Z</time></trkpt><trkpt lat="45.57055314659842" lon="10.36010713503958"><ele>665.0</ele><time>2026-04-04T08:04:55.998Z</time></trkpt><trkpt lat="45.57045439426045" lon="10.360189068060064"><ele>665.0</ele><time>2026-04-04T08:04:57Z</time></trkpt><trkpt lat="45.57037483052414" lon="10.360311867804809"><ele>665.0</ele><time>2026-04-04T08:04:58Z</time></trkpt><trkpt lat="45.570316925763315" lon="10.360439609888482"><ele>665.0</ele><time>2026-04-04T08:04:59Z</time></trkpt><trkpt lat="45.5702789021217" lon="10.360559733262297"><ele>665.0</ele><time>2026-04-04T08:05:00Z</time></trkpt><trkpt lat="45.57024587314646" lon="10.360675130423045"><ele>665.0</ele><time>2026-04-04T08:05:01Z</time></trkpt><trkpt lat="45.57021792626473" lon="10.360792264378203"><ele>663.4</ele><time>2026-04-04T08:05:02Z</time></trkpt><trkpt lat="45.57020278283512" lon="10.360917513034426"><ele>661.8</ele><time>2026-04-04T08:05:03Z</time></trkpt><trkpt lat="45.57020141873487" lon="10.361045743165032"><ele>660.2</ele><time>2026-04-04T08:05:04Z</time></trkpt><trkpt lat="45.57020571514036" lon="10.361181496562873"><ele>658.6</ele><time>2026-04-04T08:05:05Z</time></trkpt><trkpt lat="45.57021857508674" lon="10.361325264138014"><ele>657.0</ele><time>2026-04-04T08:05:06Z</time></trkpt><trkpt lat="45.57024389281308" lon="10.361461197500697"><ele>655.4000000000001</ele><time>2026-04-04T08:05:07Z</time></trkpt><trkpt lat="45.57026538052658" lon="10.361610998669994"><ele>653.8000000000001</ele><time>2026-04-04T08:05:08Z</time></trkpt><trkpt lat="45.5702833625721" lon="10.361765482570025"><ele>652.2</ele><time>2026-04-04T08:05:09Z</time></trkpt><trkpt lat="45.57029279928183" lon="10.36192609163558"><ele>650.6</ele><time>2026-04-04T08:05:10Z</time></trkpt><trkpt lat="45.57028999108055" lon="10.362089106345653"><ele>649.0</ele><time>2026-04-04T08:05:11Z</time></trkpt><trkpt lat="45.57027122548083" lon="10.362243417987226"><ele>647.6</ele><time>2026-04-04T08:05:12Z</time></trkpt><trkpt lat="45.57023952224904" lon="10.362400932897406"><ele>646.2</ele><time>2026-04-04T08:05:13Z</time></trkpt><trkpt lat="45.57020171776696" lon="10.362555002619182"><ele>644.8000000000001</ele><time>2026-04-04T08:05:14Z</time></trkpt><trkpt lat="45.57017421256947" lon="10.362707325978747"><ele>643.4000000000001</ele><time>2026-04-04T08:05:15Z</time></trkpt><trkpt lat="45.57016613326097" lon="10.362856859496965"><ele>642.0</ele><time>2026-04-04T08:05:16Z</time></trkpt><trkpt lat="45.57017528921891" lon="10.36299675033426"><ele>641.4</ele><time>2026-04-04T08:05:17Z</time></trkpt><trkpt lat="45.570205594241386" lon="10.363134713579969"><ele>640.8000000000001</ele><time>2026-04-04T08:05:18Z</time></trkpt><trkpt lat="45.57024778967323" lon="10.363274864593807"><ele>640.2</ele><time>2026-04-04T08:05:19Z</time></trkpt><trkpt lat="45.57028954502905" lon="10.363422048194703"><ele>639.6</ele><time>2026-04-04T08:05:20Z</time></trkpt><trkpt lat="45.57032329161098" lon="10.363573665865426"><ele>639.0</ele><time>2026-04-04T08:05:21Z</time></trkpt><trkpt lat="45.57036183752616" lon="10.363722039415599"><ele>642.0</ele><time>2026-04-04T08:05:21.999Z</time></trkpt><trkpt lat="45.57039489875613" lon="10.363863395936932"><ele>645.0</ele><time>2026-04-04T08:05:22.999Z</time></trkpt><trkpt lat="45.570423692077185" lon="10.363993248087839"><ele>648.0</ele><time>2026-04-04T08:05:23.999Z</time></trkpt><trkpt lat="45.5704562094824" lon="10.364121312862846"><ele>651.0</ele><time>2026-04-04T08:05:24.999Z</time></trkpt><trkpt lat="45.57049578077604" lon="10.364262047733764"><ele>654.0</ele><time>2026-04-04T08:05:25.999Z</time></trkpt><trkpt lat="45.57054285761558" lon="10.36440185075453"><ele>654.0</ele><time>2026-04-04T08:05:26.999Z</time></trkpt><trkpt lat="45.57060153733457" lon="10.364545843138094"><ele>654.0</ele><time>2026-04-04T08:05:27.999Z</time></trkpt><trkpt lat="45.57066558561118" lon="10.364686774984232"><ele>654.0</ele><time>2026-04-04T08:05:28.999Z</time></trkpt><trkpt lat="45.57073321033206" lon="10.36482802478146"><ele>654.0</ele><time>2026-04-04T08:05:29.999Z</time></trkpt><trkpt lat="45.57080011546476" lon="10.36496681391891"><ele>651.25</ele><time>2026-04-04T08:05:30.999Z</time></trkpt><trkpt lat="45.570874001884214" lon="10.3651108957864"><ele>648.5</ele><time>2026-04-04T08:05:31.999Z</time></trkpt><trkpt lat="45.570946986047495" lon="10.365242131368058"><ele>645.75</ele><time>2026-04-04T08:05:32.999Z</time></trkpt><trkpt lat="45.571034674672475" lon="10.365361938677548"><ele>643.0</ele><time>2026-04-04T08:05:33.999Z</time></trkpt><trkpt lat="45.57113489558898" lon="10.365479926204197"><ele>643.75</ele><time>2026-04-04T08:05:34.999Z</time></trkpt><trkpt lat="45.57123296605089" lon="10.365592118879334"><ele>644.5</ele><time>2026-04-04T08:05:35.999Z</time></trkpt><trkpt lat="45.571322779613254" lon="10.365701092022652"><ele>645.25</ele><time>2026-04-04T08:05:36.999Z</time></trkpt><trkpt lat="45.571397417707814" lon="10.365816338751538"><ele>646.0</ele><time>2026-04-04T08:05:37.999Z</time></trkpt><trkpt lat="45.571456391297254" lon="10.365951689033302"><ele>646.0</ele><time>2026-04-04T08:05:38.999Z</time></trkpt><trkpt lat="45.5714916830299" lon="10.366116821469879"><ele>646.0</ele><time>2026-04-04T08:05:39.999Z</time></trkpt><trkpt lat="45.571509225967986" lon="10.366288947868656"><ele>646.0</ele><time>2026-04-04T08:05:40.999Z</time></trkpt><trkpt lat="45.57152658057388" lon="10.36645252316075"><ele>646.0</ele><time>2026-04-04T08:05:41.999Z</time></trkpt><trkpt lat="45.571555210751775" lon="10.36660090806273"><ele>644.0</ele><time>2026-04-04T08:05:42.999Z</time></trkpt><trkpt lat="45.5715836856702" lon="10.366735249413008"><ele>642.0</ele><time>2026-04-04T08:05:43.999Z</time></trkpt><trkpt lat="45.57161185951815" lon="10.366857992995735"><ele>640.0</ele><time>2026-04-04T08:05:44.999Z</time></trkpt><trkpt lat="45.57163872993932" lon="10.36697097533968"><ele>638.0</ele><time>2026-04-04T08:05:45.999Z</time></trkpt><trkpt lat="45.57166717480261" lon="10.367074242565982"><ele>636.0</ele><time>2026-04-04T08:05:46.999Z</time></trkpt><trkpt lat="45.571696812315494" lon="10.36718052416026"><ele>634.0</ele><time>2026-04-04T08:05:47.999Z</time></trkpt><trkpt lat="45.571714653263335" lon="10.36728086961239"><ele>633.1666666666667</ele><time>2026-04-04T08:05:48.999Z</time></trkpt><trkpt lat="45.57173966588993" lon="10.367419571946208"><ele>632.3333333333334</ele><time>2026-04-04T08:05:50.999Z</time></trkpt><trkpt lat="45.57182579911844" lon="10.367537105579462"><ele>631.5</ele><time>2026-04-04T08:05:52.999Z</time></trkpt><trkpt lat="45.57188395420712" lon="10.367578013915733"><ele>630.6666666666666</ele><time>2026-04-04T08:05:53.999Z</time></trkpt><trkpt lat="45.57194821834632" lon="10.367628323117668"><ele>629.8333333333333</ele><time>2026-04-04T08:05:54.999Z</time></trkpt><trkpt lat="45.57201575004433" lon="10.367680525171206"><ele>629.0</ele><time>2026-04-04T08:05:55.999Z</time></trkpt><trkpt lat="45.57208846855157" lon="10.367725761345458"><ele>630.3333333333333</ele><time>2026-04-04T08:05:56.999Z</time></trkpt><trkpt lat="45.57216407146376" lon="10.367775300394918"><ele>631.6666666666666</ele><time>2026-04-04T08:05:57.999Z</time></trkpt><trkpt lat="45.57223948129252" lon="10.367827990849559"><ele>633.0</ele><time>2026-04-04T08:05:58.999Z</time></trkpt><trkpt lat="45.57231809943027" lon="10.367882484796167"><ele>634.3333333333334</ele><time>2026-04-04T08:05:59.999Z</time></trkpt><trkpt lat="45.57239985198019" lon="10.367935240427006"><ele>635.6666666666667</ele><time>2026-04-04T08:06:00.999Z</time></trkpt><trkpt lat="45.57248334620185" lon="10.367993349962864"><ele>637.0</ele><time>2026-04-04T08:06:01.999Z</time></trkpt><trkpt lat="45.57257743359992" lon="10.36804821343542"><ele>637.0</ele><time>2026-04-04T08:06:02.999Z</time></trkpt><trkpt lat="45.57267767102864" lon="10.368105159818755"><ele>637.0</ele><time>2026-04-04T08:06:03.999Z</time></trkpt><trkpt lat="45.57277690017466" lon="10.368160530377642"><ele>637.0</ele><time>2026-04-04T08:06:04.999Z</time></trkpt><trkpt lat="45.57287345637678" lon="10.368228203660742"><ele>637.0</ele><time>2026-04-04T08:06:05.999Z</time></trkpt><trkpt lat="45.57296962357111" lon="10.368325298204365"><ele>637.0</ele><time>2026-04-04T08:06:06.999Z</time></trkpt><trkpt lat="45.57305198075268" lon="10.368458282403374"><ele>639.5</ele><time>2026-04-04T08:06:07.999Z</time></trkpt><trkpt lat="45.573111211276135" lon="10.368612532763864"><ele>642.0</ele><time>2026-04-04T08:06:08.999Z</time></trkpt><trkpt lat="45.57316534909451" lon="10.36878680487081"><ele>644.5</ele><time>2026-04-04T08:06:09.999Z</time></trkpt><trkpt lat="45.573233101785206" lon="10.368973045105676"><ele>647.0</ele><time>2026-04-04T08:06:10.999Z</time></trkpt><trkpt lat="45.57331135601551" lon="10.369127812156153"><ele>647.0</ele><time>2026-04-04T08:06:11.999Z</time></trkpt><trkpt lat="45.57340822158546" lon="10.369226548101505"><ele>647.0</ele><time>2026-04-04T08:06:12.999Z</time></trkpt><trkpt lat="45.57354618221877" lon="10.369276474532992"><ele>647.0</ele><time>2026-04-04T08:06:13.999Z</time></trkpt><trkpt lat="45.57369412333725" lon="10.369308737143777"><ele>647.0</ele><time>2026-04-04T08:06:14.999Z</time></trkpt><trkpt lat="45.57381767592569" lon="10.369375464354073"><ele>648.1666666666666</ele><time>2026-04-04T08:06:15.999Z</time></trkpt><trkpt lat="45.57393879679316" lon="10.369406171239573"><ele>649.3333333333333</ele><time>2026-04-04T08:06:16.999Z</time></trkpt><trkpt lat="45.57404597744581" lon="10.369417141774655"><ele>650.5</ele><time>2026-04-04T08:06:17.999Z</time></trkpt><trkpt lat="45.574125493858084" lon="10.369397821515472"><ele>651.6666666666666</ele><time>2026-04-04T08:06:18.999Z</time></trkpt><trkpt lat="45.57419385700209" lon="10.369396837841371"><ele>652.8333333333334</ele><time>2026-04-04T08:06:19.999Z</time></trkpt><trkpt lat="45.57424424710494" lon="10.36945936592257"><ele>654.0</ele><time>2026-04-04T08:06:20.999Z</time></trkpt><trkpt lat="45.574218485790894" lon="10.369578227791584"><ele>654.2</ele><time>2026-04-04T08:06:21.999Z</time></trkpt><trkpt lat="45.57416097981389" lon="10.369717367866077"><ele>654.4000000000001</ele><time>2026-04-04T08:06:22.999Z</time></trkpt><trkpt lat="45.5741795780219" lon="10.36984171849851"><ele>654.6</ele><time>2026-04-04T08:06:23.999Z</time></trkpt><trkpt lat="45.574147046413266" lon="10.370019794640008"><ele>654.8</ele><time>2026-04-04T08:06:24.999Z</time></trkpt><trkpt lat="45.57411633609824" lon="10.370172679379232"><ele>655.0</ele><time>2026-04-04T08:06:25.999Z</time></trkpt><trkpt lat="45.57408903550454" lon="10.370323168384907"><ele>655.0</ele><time>2026-04-04T08:06:26.999Z</time></trkpt><trkpt lat="45.57406827782999" lon="10.370483483146401"><ele>655.0</ele><time>2026-04-04T08:06:27.999Z</time></trkpt><trkpt lat="45.57404144046207" lon="10.370633243539627"><ele>655.0</ele><time>2026-04-04T08:06:28.999Z</time></trkpt><trkpt lat="45.57400546258019" lon="10.370770418979394"><ele>655.0</ele><time>2026-04-04T08:06:29.999Z</time></trkpt><trkpt lat="45.57396535040416" lon="10.370907242741406"><ele>655.0</ele><time>2026-04-04T08:06:30.999Z</time></trkpt><trkpt lat="45.57392887411961" lon="10.371048395429666"><ele>653.75</ele><time>2026-04-04T08:06:31.999Z</time></trkpt><trkpt lat="45.573909879868374" lon="10.371206826294214"><ele>652.5</ele><time>2026-04-04T08:06:32.999Z</time></trkpt><trkpt lat="45.57388653876719" lon="10.371370476845275"><ele>651.25</ele><time>2026-04-04T08:06:33.999Z</time></trkpt><trkpt lat="45.57390744104994" lon="10.371551838168712"><ele>650.0</ele><time>2026-04-04T08:06:34.999Z</time></trkpt><trkpt lat="45.57392124973859" lon="10.371731572872669"><ele>649.25</ele><time>2026-04-04T08:06:35.999Z</time></trkpt><trkpt lat="45.573948716970406" lon="10.371901229592595"><ele>648.5</ele><time>2026-04-04T08:06:36.999Z</time></trkpt><trkpt lat="45.573997590409775" lon="10.372066930087271"><ele>647.75</ele><time>2026-04-04T08:06:37.999Z</time></trkpt><trkpt lat="45.574049402191" lon="10.37222057664433"><ele>647.0</ele><time>2026-04-04T08:06:38.999Z</time></trkpt><trkpt lat="45.57412806312792" lon="10.372355398012429"><ele>647.0</ele><time>2026-04-04T08:06:39.999Z</time></trkpt><trkpt lat="45.574194517190115" lon="10.372496311961568"><ele>647.0</ele><time>2026-04-04T08:06:40.999Z</time></trkpt><trkpt lat="45.574252742428484" lon="10.372632177489397"><ele>647.0</ele><time>2026-04-04T08:06:41.999Z</time></trkpt><trkpt lat="45.574299114125466" lon="10.372759555048681"><ele>647.0</ele><time>2026-04-04T08:06:42.999Z</time></trkpt><trkpt lat="45.574359651696994" lon="10.372907733630615"><ele>645.6</ele><time>2026-04-04T08:06:43.998Z</time></trkpt><trkpt lat="45.57441641152575" lon="10.373048743748523"><ele>644.2</ele><time>2026-04-04T08:06:44.998Z</time></trkpt><trkpt lat="45.57447893120557" lon="10.373158488608683"><ele>642.8</ele><time>2026-04-04T08:06:45.998Z</time></trkpt><trkpt lat="45.57453025330235" lon="10.373259788026104"><ele>641.4</ele><time>2026-04-04T08:06:46.998Z</time></trkpt><trkpt lat="45.57455987737336" lon="10.37338904642799"><ele>640.0</ele><time>2026-04-04T08:06:47.998Z</time></trkpt><trkpt lat="45.57453681161114" lon="10.373547855893083"><ele>640.0</ele><time>2026-04-04T08:06:48.998Z</time></trkpt><trkpt lat="45.5744921455566" lon="10.37369369428268"><ele>640.0</ele><time>2026-04-04T08:06:49.998Z</time></trkpt><trkpt lat="45.57448234095836" lon="10.37384119315569"><ele>640.0</ele><time>2026-04-04T08:06:50.998Z</time></trkpt><trkpt lat="45.57448995560967" lon="10.373956998539148"><ele>640.0</ele><time>2026-04-04T08:06:51.998Z</time></trkpt><trkpt lat="45.57453017151621" lon="10.374044369901446"><ele>640.0</ele><time>2026-04-04T08:06:52.998Z</time></trkpt><trkpt lat="45.574608209087614" lon="10.374090031463801"><ele>636.75</ele><time>2026-04-04T08:06:53.998Z</time></trkpt><trkpt lat="45.57477018969905" lon="10.374087145806103"><ele>633.5</ele><time>2026-04-04T08:06:54.998Z</time></trkpt><trkpt lat="45.57487123548653" lon="10.374097634955879"><ele>630.25</ele><time>2026-04-04T08:06:55.998Z</time></trkpt><trkpt lat="45.5749682655601" lon="10.374164739384659"><ele>627.0</ele><time>2026-04-04T08:06:56.998Z</time></trkpt><trkpt lat="45.57507068423383" lon="10.374245634063854"><ele>627.0</ele><time>2026-04-04T08:06:57.998Z</time></trkpt><trkpt lat="45.57515530655468" lon="10.374319171833775"><ele>627.0</ele><time>2026-04-04T08:06:58.998Z</time></trkpt><trkpt lat="45.57521213054025" lon="10.37437803980691"><ele>627.0</ele><time>2026-04-04T08:06:59.998Z</time></trkpt><trkpt lat="45.57530497748893" lon="10.374507107282206"><ele>627.0</ele><time>2026-04-04T08:07:02Z</time></trkpt><trkpt lat="45.5753958578276" lon="10.37458286603367"><ele>627.0</ele><time>2026-04-04T08:07:04Z</time></trkpt><trkpt lat="45.57545792646317" lon="10.374632625920578"><ele>628.3333333333334</ele><time>2026-04-04T08:07:05Z</time></trkpt><trkpt lat="45.57549834712797" lon="10.374717725189356"><ele>629.6666666666666</ele><time>2026-04-04T08:07:06Z</time></trkpt><trkpt lat="45.57551819394903" lon="10.374828161703304"><ele>631.0</ele><time>2026-04-04T08:07:07Z</time></trkpt><trkpt lat="45.575556281511034" lon="10.374933666064479"><ele>632.3333333333333</ele><time>2026-04-04T08:07:08Z</time></trkpt><trkpt lat="45.57561365847281" lon="10.375019682848185"><ele>633.6666666666666</ele><time>2026-04-04T08:07:09Z</time></trkpt><trkpt lat="45.57567995769754" lon="10.375103131533029"><ele>635.0</ele><time>2026-04-04T08:07:10Z</time></trkpt><trkpt lat="45.575728571435285" lon="10.375223409669918"><ele>635.0</ele><time>2026-04-04T08:07:11Z</time></trkpt><trkpt lat="45.57576316994747" lon="10.37533546273524"><ele>635.0</ele><time>2026-04-04T08:07:12Z</time></trkpt><trkpt lat="45.57579188495383" lon="10.375469128946179"><ele>635.0</ele><time>2026-04-04T08:07:13Z</time></trkpt><trkpt lat="45.57582875383373" lon="10.375586026198894"><ele>635.0</ele><time>2026-04-04T08:07:14Z</time></trkpt><trkpt lat="45.57582836764497" lon="10.375708222870825"><ele>635.0</ele><time>2026-04-04T08:07:15Z</time></trkpt><trkpt lat="45.57579579620201" lon="10.375840407794923"><ele>634.6</ele><time>2026-04-04T08:07:16Z</time></trkpt><trkpt lat="45.57574424424565" lon="10.375959361247093"><ele>634.2</ele><time>2026-04-04T08:07:17Z</time></trkpt><trkpt lat="45.575726722683946" lon="10.376075692199676"><ele>633.8</ele><time>2026-04-04T08:07:18Z</time></trkpt><trkpt lat="45.57575138843076" lon="10.376177880435758"><ele>633.4</ele><time>2026-04-04T08:07:19Z</time></trkpt><trkpt lat="45.5757807269588" lon="10.37627255716604"><ele>633.0</ele><time>2026-04-04T08:07:20Z</time></trkpt><trkpt lat="45.57579737530463" lon="10.376449712168819"><ele>631.5714285714286</ele><time>2026-04-04T08:07:22Z</time></trkpt><trkpt lat="45.575773925414346" lon="10.376547063292074"><ele>630.1428571428571</ele><time>2026-04-04T08:07:22.999Z</time></trkpt><trkpt lat="45.5757453978793" lon="10.37664375548462"><ele>628.7142857142858</ele><time>2026-04-04T08:07:23.999Z</time></trkpt><trkpt lat="45.575744173129394" lon="10.376735455483178"><ele>627.2857142857142</ele><time>2026-04-04T08:07:24.999Z</time></trkpt><trkpt lat="45.57577964165893" lon="10.376817148343644"><ele>625.8571428571429</ele><time>2026-04-04T08:07:25.999Z</time></trkpt><trkpt lat="45.57582730552659" lon="10.376890138372397"><ele>624.4285714285714</ele><time>2026-04-04T08:07:26.999Z</time></trkpt><trkpt lat="45.57588015763726" lon="10.376955382320313"><ele>623.0</ele><time>2026-04-04T08:07:27.999Z</time></trkpt><trkpt lat="45.57593260936711" lon="10.377012990881328"><ele>623.0</ele><time>2026-04-04T08:07:28.999Z</time></trkpt><trkpt lat="45.57603057212754" lon="10.377112565174954"><ele>623.0</ele><time>2026-04-04T08:07:30.999Z</time></trkpt><trkpt lat="45.576135236155366" lon="10.37719569838462"><ele>623.0</ele><time>2026-04-04T08:07:32.999Z</time></trkpt><trkpt lat="45.576215189940676" lon="10.37731433555972"><ele>623.0</ele><time>2026-04-04T08:07:34.999Z</time></trkpt><trkpt lat="45.57625989372459" lon="10.377472419984114"><ele>624.0</ele><time>2026-04-04T08:07:36.999Z</time></trkpt><trkpt lat="45.576270080020976" lon="10.377563096970714"><ele>625.0</ele><time>2026-04-04T08:07:37.999Z</time></trkpt><trkpt lat="45.57627628297018" lon="10.377659347090924"><ele>626.0</ele><time>2026-04-04T08:07:38.999Z</time></trkpt><trkpt lat="45.57627364121341" lon="10.377764552261674"><ele>627.0</ele><time>2026-04-04T08:07:39.999Z</time></trkpt><trkpt lat="45.576258304257514" lon="10.377864397596491"><ele>628.0</ele><time>2026-04-04T08:07:40.999Z</time></trkpt><trkpt lat="45.576245483106426" lon="10.377963699086475"><ele>629.0</ele><time>2026-04-04T08:07:41.999Z</time></trkpt><trkpt lat="45.57624179092274" lon="10.378060248882766"><ele>630.0</ele><time>2026-04-04T08:07:42.999Z</time></trkpt><trkpt lat="45.57624597363403" lon="10.378165167304545"><ele>630.5714285714286</ele><time>2026-04-04T08:07:43.999Z</time></trkpt><trkpt lat="45.57625444535378" lon="10.378270106048882"><ele>631.1428571428571</ele><time>2026-04-04T08:07:44.999Z</time></trkpt><trkpt lat="45.576271914236735" lon="10.378377006817688"><ele>631.7142857142858</ele><time>2026-04-04T08:07:45.999Z</time></trkpt><trkpt lat="45.57629327643447" lon="10.378479503869016"><ele>632.2857142857142</ele><time>2026-04-04T08:07:46.999Z</time></trkpt><trkpt lat="45.57631714631415" lon="10.378576990999676"><ele>632.8571428571429</ele><time>2026-04-04T08:07:47.999Z</time></trkpt><trkpt lat="45.576342631020154" lon="10.378678611235868"><ele>633.4285714285714</ele><time>2026-04-04T08:07:48.999Z</time></trkpt><trkpt lat="45.576371947030616" lon="10.378770784233643"><ele>634.0</ele><time>2026-04-04T08:07:49.999Z</time></trkpt><trkpt lat="45.576402377027215" lon="10.378863324928645"><ele>634.6</ele><time>2026-04-04T08:07:50.999Z</time></trkpt><trkpt lat="45.5764350346818" lon="10.378949811749193"><ele>635.2</ele><time>2026-04-04T08:07:51.999Z</time></trkpt><trkpt lat="45.57649698333844" lon="10.37908607022283"><ele>635.8000000000001</ele><time>2026-04-04T08:07:53.999Z</time></trkpt><trkpt lat="45.576534902886635" lon="10.379204379287293"><ele>636.4</ele><time>2026-04-04T08:07:55.999Z</time></trkpt><trkpt lat="45.5764817616804" lon="10.379303205208673"><ele>637.0</ele><time>2026-04-04T08:07:57.999Z</time></trkpt><trkpt lat="45.576395460392824" lon="10.37941694035584"><ele>637.0</ele><time>2026-04-04T08:07:59.999Z</time></trkpt><trkpt lat="45.57635430801109" lon="10.379585876437604"><ele>637.0</ele><time>2026-04-04T08:08:01.999Z</time></trkpt><trkpt lat="45.57633560763471" lon="10.37967467682168"><ele>637.0</ele><time>2026-04-04T08:08:02.999Z</time></trkpt><trkpt lat="45.576305911257414" lon="10.379757092381963"><ele>637.0</ele><time>2026-04-04T08:08:03.999Z</time></trkpt><trkpt lat="45.576272367324464" lon="10.379840769656454"><ele>637.0</ele><time>2026-04-04T08:08:04.999Z</time></trkpt><trkpt lat="45.57624180480109" lon="10.379927465194598"><ele>637.0</ele><time>2026-04-04T08:08:05.999Z</time></trkpt><trkpt lat="45.57621028414767" lon="10.380014863676553"><ele>635.1666666666667</ele><time>2026-04-04T08:08:06.999Z</time></trkpt><trkpt lat="45.576169052885" lon="10.380103649865827"><ele>633.3333333333334</ele><time>2026-04-04T08:08:07.999Z</time></trkpt><trkpt lat="45.5761243428158" lon="10.380184621969898"><ele>631.5</ele><time>2026-04-04T08:08:08.999Z</time></trkpt><trkpt lat="45.576075647193655" lon="10.380265652003878"><ele>629.6666666666666</ele><time>2026-04-04T08:08:09.999Z</time></trkpt><trkpt lat="45.57601869862164" lon="10.380351213482593"><ele>627.8333333333333</ele><time>2026-04-04T08:08:10.999Z</time></trkpt><trkpt lat="45.57595697072563" lon="10.380434554936476"><ele>626.0</ele><time>2026-04-04T08:08:11.999Z</time></trkpt><trkpt lat="45.57589427404089" lon="10.380524836882476"><ele>626.0</ele><time>2026-04-04T08:08:12.999Z</time></trkpt><trkpt lat="45.5758326957029" lon="10.380625879152406"><ele>626.0</ele><time>2026-04-04T08:08:13.999Z</time></trkpt><trkpt lat="45.57577203699498" lon="10.380738180133601"><ele>626.0</ele><time>2026-04-04T08:08:14.999Z</time></trkpt><trkpt lat="45.575719093559606" lon="10.380862217818146"><ele>626.0</ele><time>2026-04-04T08:08:15.999Z</time></trkpt><trkpt lat="45.575670666192586" lon="10.380988365727521"><ele>626.0</ele><time>2026-04-04T08:08:16.999Z</time></trkpt><trkpt lat="45.575642069069225" lon="10.381109112404198"><ele>626.0</ele><time>2026-04-04T08:08:17.999Z</time></trkpt><trkpt lat="45.57564245789267" lon="10.381219133706438"><ele>626.0</ele><time>2026-04-04T08:08:18.999Z</time></trkpt><trkpt lat="45.57566733312355" lon="10.381323107864986"><ele>626.0</ele><time>2026-04-04T08:08:19.999Z</time></trkpt><trkpt lat="45.57573091071612" lon="10.381422003770785"><ele>626.0</ele><time>2026-04-04T08:08:21.999Z</time></trkpt><trkpt lat="45.57574413853136" lon="10.381560207307913"><ele>626.0</ele><time>2026-04-04T08:08:29.999Z</time></trkpt><trkpt lat="45.57573140250634" lon="10.381673483676783"><ele>626.0</ele><time>2026-04-04T08:08:31.999Z</time></trkpt><trkpt lat="45.575674784540034" lon="10.38175316125264"><ele>628.6</ele><time>2026-04-04T08:08:33.999Z</time></trkpt><trkpt lat="45.575616103949024" lon="10.381820878109732"><ele>631.2</ele><time>2026-04-04T08:08:35.999Z</time></trkpt><trkpt lat="45.57555618882601" lon="10.381886710181913"><ele>633.8</ele><time>2026-04-04T08:08:37.999Z</time></trkpt><trkpt lat="45.57550051670484" lon="10.38199614826311"><ele>636.4</ele><time>2026-04-04T08:08:39.999Z</time></trkpt><trkpt lat="45.57544480177848" lon="10.382132011232216"><ele>639.0</ele><time>2026-04-04T08:08:41.999Z</time></trkpt><trkpt lat="45.575393793984794" lon="10.382282103324991"><ele>636.4</ele><time>2026-04-04T08:08:43.999Z</time></trkpt><trkpt lat="45.57534048741453" lon="10.382401425356216"><ele>633.8</ele><time>2026-04-04T08:08:45.999Z</time></trkpt><trkpt lat="45.57531032673168" lon="10.382513947967627"><ele>631.2</ele><time>2026-04-04T08:08:47.998Z</time></trkpt><trkpt lat="45.57529067132603" lon="10.382607422763328"><ele>628.6</ele><time>2026-04-04T08:08:48.998Z</time></trkpt><trkpt lat="45.57524734398715" lon="10.382804913260088"><ele>626.0</ele><time>2026-04-04T08:08:50.998Z</time></trkpt><trkpt lat="45.57522548372998" lon="10.382919559818985"><ele>628.2</ele><time>2026-04-04T08:08:51.998Z</time></trkpt><trkpt lat="45.57520810999037" lon="10.383040166716075"><ele>630.4000000000001</ele><time>2026-04-04T08:08:52.998Z</time></trkpt><trkpt lat="45.5751724089274" lon="10.383166589766782"><ele>632.6</ele><time>2026-04-04T08:08:53.998Z</time></trkpt><trkpt lat="45.57512950680833" lon="10.383307586637839"><ele>634.8000000000001</ele><time>2026-04-04T08:08:54.998Z</time></trkpt><trkpt lat="45.57509348987378" lon="10.383429069167788"><ele>637.0</ele><time>2026-04-04T08:08:55.998Z</time></trkpt><trkpt lat="45.57507562240552" lon="10.383561497689605"><ele>637.0</ele><time>2026-04-04T08:08:56.998Z</time></trkpt><trkpt lat="45.57506075073746" lon="10.383685275162444"><ele>637.0</ele><time>2026-04-04T08:08:57.998Z</time></trkpt><trkpt lat="45.57503888919016" lon="10.383791466678552"><ele>637.0</ele><time>2026-04-04T08:08:58.998Z</time></trkpt><trkpt lat="45.57502051588658" lon="10.383889065669582"><ele>637.0</ele><time>2026-04-04T08:08:59.998Z</time></trkpt><trkpt lat="45.57498388448103" lon="10.383984533731446"><ele>637.0</ele><time>2026-04-04T08:09:00.998Z</time></trkpt><trkpt lat="45.57494620154281" lon="10.384102843990693"><ele>637.0</ele><time>2026-04-04T08:09:01.998Z</time></trkpt><trkpt lat="45.57492060893668" lon="10.38421789027437"><ele>638.0</ele><time>2026-04-04T08:09:02.998Z</time></trkpt><trkpt lat="45.574893666227894" lon="10.384335067293318"><ele>639.0</ele><time>2026-04-04T08:09:03.998Z</time></trkpt><trkpt lat="45.57487431265201" lon="10.38445384217916"><ele>640.0</ele><time>2026-04-04T08:09:04.998Z</time></trkpt><trkpt lat="45.57484205658405" lon="10.384572545822914"><ele>641.0</ele><time>2026-04-04T08:09:05.998Z</time></trkpt><trkpt lat="45.57483205620863" lon="10.384697028925293"><ele>642.0</ele><time>2026-04-04T08:09:06.998Z</time></trkpt><trkpt lat="45.57482827242202" lon="10.384831447107537"><ele>643.0</ele><time>2026-04-04T08:09:08Z</time></trkpt><trkpt lat="45.57482709073497" lon="10.38498678012557"><ele>643.0</ele><time>2026-04-04T08:09:09Z</time></trkpt><trkpt lat="45.574828756206756" lon="10.385140704801868"><ele>643.0</ele><time>2026-04-04T08:09:10Z</time></trkpt><trkpt lat="45.57481534660524" lon="10.385255537264552"><ele>643.0</ele><time>2026-04-04T08:09:11Z</time></trkpt><trkpt lat="45.574796753870594" lon="10.385357420969791"><ele>643.0</ele><time>2026-04-04T08:09:12Z</time></trkpt><trkpt lat="45.5747768636996" lon="10.385459809090811"><ele>643.0</ele><time>2026-04-04T08:09:13Z</time></trkpt><trkpt lat="45.57477033319942" lon="10.385556649942078"><ele>643.0</ele><time>2026-04-04T08:09:14Z</time></trkpt><trkpt lat="45.57481100971844" lon="10.38571504073703"><ele>642.6666666666667</ele><time>2026-04-04T08:09:16Z</time></trkpt><trkpt lat="45.5748670856009" lon="10.385782467410463"><ele>642.3333333333334</ele><time>2026-04-04T08:09:17Z</time></trkpt><trkpt lat="45.574930442103984" lon="10.38584189393325"><ele>642.0</ele><time>2026-04-04T08:09:18Z</time></trkpt><trkpt lat="45.57500308828811" lon="10.38590621230378"><ele>641.6666666666666</ele><time>2026-04-04T08:09:19Z</time></trkpt><trkpt lat="45.575057715558124" lon="10.385966592372917"><ele>641.3333333333333</ele><time>2026-04-04T08:09:20Z</time></trkpt><trkpt lat="45.57508742448354" lon="10.386096328288572"><ele>641.0</ele><time>2026-04-04T08:09:22Z</time></trkpt><trkpt lat="45.57504497482476" lon="10.38626572130051"><ele>640.8571428571429</ele><time>2026-04-04T08:09:24Z</time></trkpt><trkpt lat="45.5750263063131" lon="10.386352985881302"><ele>640.7142857142857</ele><time>2026-04-04T08:09:25Z</time></trkpt><trkpt lat="45.57502032358874" lon="10.386457481908794"><ele>640.5714285714286</ele><time>2026-04-04T08:09:25.999Z</time></trkpt><trkpt lat="45.575019397413264" lon="10.386562962957374"><ele>640.4285714285714</ele><time>2026-04-04T08:09:26.999Z</time></trkpt><trkpt lat="45.575020265202355" lon="10.386661719621786"><ele>640.2857142857143</ele><time>2026-04-04T08:09:27.999Z</time></trkpt><trkpt lat="45.57502303372943" lon="10.386767229337144"><ele>640.1428571428571</ele><time>2026-04-04T08:09:28.999Z</time></trkpt><trkpt lat="45.575038834106714" lon="10.3868737810129"><ele>640.0</ele><time>2026-04-04T08:09:29.999Z</time></trkpt><trkpt lat="45.57506396529111" lon="10.38698271305205"><ele>640.0</ele><time>2026-04-04T08:09:30.999Z</time></trkpt><trkpt lat="45.575086126466026" lon="10.387096929521052"><ele>640.0</ele><time>2026-04-04T08:09:31.999Z</time></trkpt><trkpt lat="45.575115372835576" lon="10.387201868982302"><ele>640.0</ele><time>2026-04-04T08:09:32.999Z</time></trkpt><trkpt lat="45.57512729275121" lon="10.387314840638238"><ele>640.0</ele><time>2026-04-04T08:09:33.999Z</time></trkpt><trkpt lat="45.57515309900833" lon="10.387444664115824"><ele>640.0</ele><time>2026-04-04T08:09:34.999Z</time></trkpt><trkpt lat="45.5751887249628" lon="10.38757782794812"><ele>640.0</ele><time>2026-04-04T08:09:35.999Z</time></trkpt><trkpt lat="45.575225289835664" lon="10.387696861626077"><ele>640.2</ele><time>2026-04-04T08:09:36.999Z</time></trkpt><trkpt lat="45.575269699697095" lon="10.387810208569736"><ele>640.4</ele><time>2026-04-04T08:09:37.999Z</time></trkpt><trkpt lat="45.57532129444396" lon="10.38791736211854"><ele>640.5999999999999</ele><time>2026-04-04T08:09:38.999Z</time></trkpt><trkpt lat="45.57538401722004" lon="10.388011797384607"><ele>640.8</ele><time>2026-04-04T08:09:39.999Z</time></trkpt><trkpt lat="45.57545079278161" lon="10.38811396812892"><ele>641.0</ele><time>2026-04-04T08:09:40.999Z</time></trkpt><trkpt lat="45.57552251359806" lon="10.388217583634107"><ele>641.0</ele><time>2026-04-04T08:09:41.999Z</time></trkpt><trkpt lat="45.57559900240716" lon="10.388305234253144"><ele>641.0</ele><time>2026-04-04T08:09:42.999Z</time></trkpt><trkpt lat="45.57568563773774" lon="10.388380560791314"><ele>641.0</ele><time>2026-04-04T08:09:43.999Z</time></trkpt><trkpt lat="45.57577025793931" lon="10.38844831195263"><ele>641.0</ele><time>2026-04-04T08:09:44.999Z</time></trkpt><trkpt lat="45.5758378862292" lon="10.38851217749074"><ele>641.0</ele><time>2026-04-04T08:09:45.999Z</time></trkpt><trkpt lat="45.575957379544334" lon="10.388578444442139"><ele>641.0</ele><time>2026-04-04T08:09:47.999Z</time></trkpt><trkpt lat="45.57606055247943" lon="10.388606065410407"><ele>641.0</ele><time>2026-04-04T08:09:48.999Z</time></trkpt><trkpt lat="45.576132993535175" lon="10.388678451751371"><ele>641.0</ele><time>2026-04-04T08:09:49.999Z</time></trkpt><trkpt lat="45.57614878977763" lon="10.388843214568135"><ele>641.0</ele><time>2026-04-04T08:09:51.999Z</time></trkpt><trkpt lat="45.576112054887304" lon="10.388967916041585"><ele>641.0</ele><time>2026-04-04T08:09:52.999Z</time></trkpt><trkpt lat="45.57608698744904" lon="10.389073465795985"><ele>639.0</ele><time>2026-04-04T08:09:53.999Z</time></trkpt><trkpt lat="45.576087225679636" lon="10.38922518531933"><ele>637.0</ele><time>2026-04-04T08:09:55.999Z</time></trkpt><trkpt lat="45.57606345341415" lon="10.389368054346628"><ele>635.0</ele><time>2026-04-04T08:10:15.999Z</time></trkpt><trkpt lat="45.57604050406488" lon="10.389452859561613"><ele>633.0</ele><time>2026-04-04T08:10:16.999Z</time></trkpt><trkpt lat="45.57601920341081" lon="10.389559247677598"><ele>631.0</ele><time>2026-04-04T08:10:17.999Z</time></trkpt><trkpt lat="45.575977352512105" lon="10.389635705241156"><ele>629.0</ele><time>2026-04-04T08:10:18.999Z</time></trkpt><trkpt lat="45.57591019571342" lon="10.389681959212611"><ele>628.7142857142857</ele><time>2026-04-04T08:10:19.999Z</time></trkpt><trkpt lat="45.57586090378871" lon="10.389747795388097"><ele>628.4285714285714</ele><time>2026-04-04T08:10:20.999Z</time></trkpt><trkpt lat="45.57582336057962" lon="10.389831588479899"><ele>628.1428571428571</ele><time>2026-04-04T08:10:21.999Z</time></trkpt><trkpt lat="45.57578838272953" lon="10.389937782216105"><ele>627.8571428571429</ele><time>2026-04-04T08:10:22.999Z</time></trkpt><trkpt lat="45.5757718385406" lon="10.390041096076562"><ele>627.5714285714286</ele><time>2026-04-04T08:10:23.999Z</time></trkpt><trkpt lat="45.57578327399252" lon="10.39014539769301"><ele>627.2857142857143</ele><time>2026-04-04T08:10:24.999Z</time></trkpt><trkpt lat="45.57579603779725" lon="10.39024943500879"><ele>627.0</ele><time>2026-04-04T08:10:25.999Z</time></trkpt><trkpt lat="45.57578407941127" lon="10.390341405445719"><ele>627.0</ele><time>2026-04-04T08:10:26.999Z</time></trkpt><trkpt lat="45.57573846711512" lon="10.39042497933368"><ele>627.0</ele><time>2026-04-04T08:10:27.999Z</time></trkpt><trkpt lat="45.57569821341437" lon="10.390496035731122"><ele>627.0</ele><time>2026-04-04T08:10:28.999Z</time></trkpt><trkpt lat="45.575631956665184" lon="10.390609064697486"><ele>627.0</ele><time>2026-04-04T08:10:29.999Z</time></trkpt><trkpt lat="45.575598497575214" lon="10.390691564459752"><ele>627.0</ele><time>2026-04-04T08:10:30.999Z</time></trkpt><trkpt lat="45.575597779645555" lon="10.390875161427774"><ele>627.0</ele><time>2026-04-04T08:10:32.999Z</time></trkpt><trkpt lat="45.575597478538064" lon="10.390972652993591"><ele>627.1666666666666</ele><time>2026-04-04T08:10:33.999Z</time></trkpt><trkpt lat="45.57555770853879" lon="10.391061290440556"><ele>627.3333333333334</ele><time>2026-04-04T08:10:34.999Z</time></trkpt><trkpt lat="45.575492795178604" lon="10.391118486114383"><ele>627.5</ele><time>2026-04-04T08:10:35.999Z</time></trkpt><trkpt lat="45.57542833947652" lon="10.391161774955986"><ele>627.6666666666667</ele><time>2026-04-04T08:10:36.999Z</time></trkpt><trkpt lat="45.57537350920834" lon="10.391231515378594"><ele>627.8333333333334</ele><time>2026-04-04T08:10:37.999Z</time></trkpt><trkpt lat="45.5753153424608" lon="10.391291113870086"><ele>628.0</ele><time>2026-04-04T08:10:38.999Z</time></trkpt><trkpt lat="45.57524025694568" lon="10.391364204254382"><ele>624.3333333333334</ele><time>2026-04-04T08:10:41.999Z</time></trkpt><trkpt lat="45.57517696828203" lon="10.3912603480492"><ele>620.6666666666667</ele><time>2026-04-04T08:10:44.999Z</time></trkpt><trkpt lat="45.5751332499433" lon="10.391130648286257"><ele>617.0</ele><time>2026-04-04T08:10:47.999Z</time></trkpt><trkpt lat="45.57510453855359" lon="10.391035391992565"><ele>613.3333333333334</ele><time>2026-04-04T08:10:49.998Z</time></trkpt><trkpt lat="45.575103781873494" lon="10.3909340137673"><ele>609.6666666666666</ele><time>2026-04-04T08:10:51.998Z</time></trkpt><trkpt lat="45.57507394633221" lon="10.390826368893464"><ele>606.0</ele><time>2026-04-04T08:10:53.998Z</time></trkpt><trkpt lat="45.5750415800713" lon="10.390731480402108"><ele>606.0</ele><time>2026-04-04T08:10:54.998Z</time></trkpt><trkpt lat="45.574975347194965" lon="10.390577411025914"><ele>606.0</ele><time>2026-04-04T08:10:56.998Z</time></trkpt><trkpt lat="45.57493439407402" lon="10.390470569385215"><ele>606.0</ele><time>2026-04-04T08:10:58.998Z</time></trkpt><trkpt lat="45.57487392593689" lon="10.390401213882361"><ele>606.0</ele><time>2026-04-04T08:11:01.998Z</time></trkpt><trkpt lat="45.57480829186782" lon="10.390427672346183"><ele>606.0</ele><time>2026-04-04T08:11:05.998Z</time></trkpt><trkpt lat="45.57475052474276" lon="10.390504463350249"><ele>606.0</ele><time>2026-04-04T08:11:08.998Z</time></trkpt><trkpt lat="45.57469322366081" lon="10.390552251667263"><ele>606.0</ele><time>2026-04-04T08:11:10.998Z</time></trkpt><trkpt lat="45.57465301180233" lon="10.390638943717473"><ele>606.0</ele><time>2026-04-04T08:11:12.998Z</time></trkpt><trkpt lat="45.57463161836006" lon="10.390724048694894"><ele>606.0</ele><time>2026-04-04T08:11:14.999Z</time></trkpt><trkpt lat="45.574595044218874" lon="10.390859370182943"><ele>606.0</ele><time>2026-04-04T08:11:16.999Z</time></trkpt><trkpt lat="45.574568076798705" lon="10.39094668306481"><ele>606.0</ele><time>2026-04-04T08:11:18.999Z</time></trkpt><trkpt lat="45.57454510950444" lon="10.39105597006842"><ele>606.0</ele><time>2026-04-04T08:11:20.999Z</time></trkpt><trkpt lat="45.574464593270015" lon="10.39118647334255"><ele>601.3333333333334</ele><time>2026-04-04T08:11:21.999Z</time></trkpt><trkpt lat="45.57445835152667" lon="10.391293186421445"><ele>596.6666666666666</ele><time>2026-04-04T08:11:22.999Z</time></trkpt><trkpt lat="45.574447058267275" lon="10.391439166637802"><ele>592.0</ele><time>2026-04-04T08:11:24.999Z</time></trkpt><trkpt lat="45.57445231261955" lon="10.391579022403857"><ele>587.3333333333333</ele><time>2026-04-04T08:11:26.999Z</time></trkpt><trkpt lat="45.574462209063064" lon="10.391669916169915"><ele>582.6666666666666</ele><time>2026-04-04T08:11:27.999Z</time></trkpt><trkpt lat="45.574475128757825" lon="10.391766752794046"><ele>578.0</ele><time>2026-04-04T08:11:28.999Z</time></trkpt><trkpt lat="45.57449214708686" lon="10.391880288412763"><ele>578.0</ele><time>2026-04-04T08:11:29.999Z</time></trkpt><trkpt lat="45.574513879202506" lon="10.391995758124349"><ele>578.0</ele><time>2026-04-04T08:11:30.999Z</time></trkpt><trkpt lat="45.574525385817836" lon="10.392098331639156"><ele>578.0</ele><time>2026-04-04T08:11:31.999Z</time></trkpt><trkpt lat="45.574482905389345" lon="10.392227477657082"><ele>578.0</ele><time>2026-04-04T08:11:33.999Z</time></trkpt><trkpt lat="45.574424942255895" lon="10.392269321866163"><ele>578.0</ele><time>2026-04-04T08:11:34.999Z</time></trkpt><trkpt lat="45.57439771709634" lon="10.392364674082785"><ele>578.0</ele><time>2026-04-04T08:11:35.999Z</time></trkpt><trkpt lat="45.57435091624646" lon="10.39247254268585"><ele>577.8</ele><time>2026-04-04T08:11:36.999Z</time></trkpt><trkpt lat="45.57430712484122" lon="10.39254409525277"><ele>577.5999999999999</ele><time>2026-04-04T08:11:37.999Z</time></trkpt><trkpt lat="45.57424646840526" lon="10.392662716759233"><ele>577.4000000000001</ele><time>2026-04-04T08:11:39.999Z</time></trkpt><trkpt lat="45.57419293220672" lon="10.392802454418268"><ele>577.2</ele><time>2026-04-04T08:11:41.999Z</time></trkpt><trkpt lat="45.57411984038411" lon="10.3929288934371"><ele>577.0</ele><time>2026-04-04T08:11:43.999Z</time></trkpt><trkpt lat="45.5741327404392" lon="10.393054262814415"><ele>576.8000000000001</ele><time>2026-04-04T08:11:45.999Z</time></trkpt><trkpt lat="45.574156480427675" lon="10.393205694713147"><ele>576.6</ele><time>2026-04-04T08:11:47.999Z</time></trkpt><trkpt lat="45.57414463180451" lon="10.393317926123364"><ele>576.4000000000001</ele><time>2026-04-04T08:11:49.999Z</time></trkpt><trkpt lat="45.574110693484826" lon="10.39343875187609"><ele>576.2</ele><time>2026-04-04T08:11:51.999Z</time></trkpt><trkpt lat="45.574060986397576" lon="10.393531239348963"><ele>576.0</ele><time>2026-04-04T08:11:53.999Z</time></trkpt><trkpt lat="45.57399183946218" lon="10.393645162751543"><ele>576.0</ele><time>2026-04-04T08:11:55.999Z</time></trkpt><trkpt lat="45.573980449521436" lon="10.393775635130835"><ele>576.0</ele><time>2026-04-04T08:11:57.999Z</time></trkpt><trkpt lat="45.57399416698068" lon="10.393868090021718"><ele>576.0</ele><time>2026-04-04T08:11:58.999Z</time></trkpt><trkpt lat="45.574002645962125" lon="10.393965078206872"><ele>576.0</ele><time>2026-04-04T08:11:59.999Z</time></trkpt><trkpt lat="45.57401802573734" lon="10.394130558339636"><ele>576.0</ele><time>2026-04-04T08:12:01.999Z</time></trkpt><trkpt lat="45.57404564787687" lon="10.394224067160923"><ele>576.0</ele><time>2026-04-04T08:12:02.999Z</time></trkpt><trkpt lat="45.5740012258571" lon="10.394300451005863"><ele>574.8333333333334</ele><time>2026-04-04T08:12:04.999Z</time></trkpt><trkpt lat="45.57398061993121" lon="10.394489329782225"><ele>573.6666666666666</ele><time>2026-04-04T08:12:05.999Z</time></trkpt><trkpt lat="45.57398074850585" lon="10.394589746700634"><ele>572.5</ele><time>2026-04-04T08:12:07.999Z</time></trkpt><trkpt lat="45.57400709281936" lon="10.39467244810048"><ele>571.3333333333333</ele><time>2026-04-04T08:12:09.999Z</time></trkpt><trkpt lat="45.57406381700844" lon="10.394723518442866"><ele>570.1666666666666</ele><time>2026-04-04T08:12:12.999Z</time></trkpt><trkpt lat="45.574117109698356" lon="10.39481754688961"><ele>569.0</ele><time>2026-04-04T08:12:24.999Z</time></trkpt><trkpt lat="45.5741679477826" lon="10.394871562752588"><ele>567.8333333333333</ele><time>2026-04-04T08:12:26.999Z</time></trkpt><trkpt lat="45.57424104257424" lon="10.39487460976324"><ele>566.6666666666666</ele><time>2026-04-04T08:12:28.999Z</time></trkpt><trkpt lat="45.57433058580828" lon="10.394934041961402"><ele>565.5</ele><time>2026-04-04T08:12:30.999Z</time></trkpt><trkpt lat="45.57437203631018" lon="10.395028438976105"><ele>564.3333333333334</ele><time>2026-04-04T08:12:31.999Z</time></trkpt><trkpt lat="45.5744077936063" lon="10.39515198016824"><ele>563.1666666666667</ele><time>2026-04-04T08:12:32.999Z</time></trkpt><trkpt lat="45.57446215983121" lon="10.395231372914756"><ele>562.0</ele><time>2026-04-04T08:12:33.999Z</time></trkpt><trkpt lat="45.57453225723221" lon="10.395332317920124"><ele>565.0</ele><time>2026-04-04T08:12:34.999Z</time></trkpt><trkpt lat="45.574581848901204" lon="10.395420664151237"><ele>568.0</ele><time>2026-04-04T08:12:35.999Z</time></trkpt><trkpt lat="45.574613658939334" lon="10.39551068526943"><ele>571.0</ele><time>2026-04-04T08:12:36.999Z</time></trkpt><trkpt lat="45.57464423340981" lon="10.395604951161898"><ele>574.0</ele><time>2026-04-04T08:12:37.999Z</time></trkpt><trkpt lat="45.574675392530445" lon="10.395685699878975"><ele>577.0</ele><time>2026-04-04T08:12:38.999Z</time></trkpt><trkpt lat="45.574699936735826" lon="10.395776101011041"><ele>580.0</ele><time>2026-04-04T08:12:39.999Z</time></trkpt><trkpt lat="45.57472698684552" lon="10.395915617186875"><ele>580.0</ele><time>2026-04-04T08:12:40.999Z</time></trkpt><trkpt lat="45.5747523042493" lon="10.39606958037396"><ele>580.0</ele><time>2026-04-04T08:12:41.999Z</time></trkpt><trkpt lat="45.57477629796033" lon="10.39622435754061"><ele>580.0</ele><time>2026-04-04T08:12:42.999Z</time></trkpt><trkpt lat="45.57481351823252" lon="10.396357518993742"><ele>580.0</ele><time>2026-04-04T08:12:43.999Z</time></trkpt><trkpt lat="45.574838942291066" lon="10.396514246994284"><ele>580.0</ele><time>2026-04-04T08:12:44.999Z</time></trkpt><trkpt lat="45.574854856230914" lon="10.39666899155844"><ele>580.0</ele><time>2026-04-04T08:12:45.999Z</time></trkpt><trkpt lat="45.57486686901735" lon="10.396828460476165"><ele>580.0</ele><time>2026-04-04T08:12:46.999Z</time></trkpt><trkpt lat="45.5748883965867" lon="10.396977030762088"><ele>580.0</ele><time>2026-04-04T08:12:47.999Z</time></trkpt><trkpt lat="45.574900846169996" lon="10.397126249559795"><ele>580.0</ele><time>2026-04-04T08:12:48.999Z</time></trkpt><trkpt lat="45.57493371054938" lon="10.397261747598838"><ele>580.0</ele><time>2026-04-04T08:12:49.999Z</time></trkpt><trkpt lat="45.574970659356175" lon="10.397376839341089"><ele>580.0</ele><time>2026-04-04T08:12:50.999Z</time></trkpt><trkpt lat="45.57504390143445" lon="10.397497489796388"><ele>580.0</ele><time>2026-04-04T08:12:52.998Z</time></trkpt><trkpt lat="45.5751673060588" lon="10.39751472072649"><ele>580.0</ele><time>2026-04-04T08:12:54.998Z</time></trkpt><trkpt lat="45.57523243015831" lon="10.397518575663199"><ele>580.0</ele><time>2026-04-04T08:12:55.999Z</time></trkpt><trkpt lat="45.57533137262072" lon="10.397513253009908"><ele>580.0</ele><time>2026-04-04T08:12:56.999Z</time></trkpt><trkpt lat="45.575419665338664" lon="10.397485638892208"><ele>581.5</ele><time>2026-04-04T08:12:57.999Z</time></trkpt><trkpt lat="45.57549865329802" lon="10.3974809948704"><ele>583.0</ele><time>2026-04-04T08:12:58.999Z</time></trkpt><trkpt lat="45.57556929276775" lon="10.39747897531258"><ele>584.5</ele><time>2026-04-04T08:12:59.999Z</time></trkpt><trkpt lat="45.57563347431018" lon="10.39747500008312"><ele>586.0</ele><time>2026-04-04T08:13:00.999Z</time></trkpt><trkpt lat="45.57572697826992" lon="10.397487363275616"><ele>587.5</ele><time>2026-04-04T08:13:02.999Z</time></trkpt><trkpt lat="45.57581163969442" lon="10.39754903605061"><ele>589.0</ele><time>2026-04-04T08:13:04.999Z</time></trkpt><trkpt lat="45.57587422389981" lon="10.39760690569847"><ele>589.0</ele><time>2026-04-04T08:13:05.999Z</time></trkpt><trkpt lat="45.575946092934565" lon="10.397764570688459"><ele>589.0</ele><time>2026-04-04T08:13:07.999Z</time></trkpt><trkpt lat="45.57592378350351" lon="10.397860793647519"><ele>589.0</ele><time>2026-04-04T08:13:08.999Z</time></trkpt><trkpt lat="45.575902864618776" lon="10.397957150904459"><ele>589.0</ele><time>2026-04-04T08:13:09.999Z</time></trkpt><trkpt lat="45.5758753005207" lon="10.39805318041021"><ele>589.0</ele><time>2026-04-04T08:13:10.999Z</time></trkpt><trkpt lat="45.5758523588186" lon="10.398146921876585"><ele>589.0</ele><time>2026-04-04T08:13:11.999Z</time></trkpt><trkpt lat="45.57584991249054" lon="10.398253404710077"><ele>589.0</ele><time>2026-04-04T08:13:12.999Z</time></trkpt><trkpt lat="45.57586125327048" lon="10.3983740603945"><ele>589.0</ele><time>2026-04-04T08:13:13.999Z</time></trkpt><trkpt lat="45.57587765121409" lon="10.398500133625191"><ele>589.0</ele><time>2026-04-04T08:13:14.999Z</time></trkpt><trkpt lat="45.57589141255364" lon="10.398627088383341"><ele>589.0</ele><time>2026-04-04T08:13:15.999Z</time></trkpt><trkpt lat="45.5759165130638" lon="10.398738172954182"><ele>589.0</ele><time>2026-04-04T08:13:16.999Z</time></trkpt><trkpt lat="45.57599998943986" lon="10.398811430023352"><ele>589.0</ele><time>2026-04-04T08:13:17.999Z</time></trkpt><trkpt lat="45.57603937362303" lon="10.39894047461828"><ele>589.0</ele><time>2026-04-04T08:13:20Z</time></trkpt><trkpt lat="45.57601296746719" lon="10.399022552429706"><ele>589.0</ele><time>2026-04-04T08:13:21Z</time></trkpt><trkpt lat="45.57601973179763" lon="10.399135258426561"><ele>589.0</ele><time>2026-04-04T08:13:22Z</time></trkpt><trkpt lat="45.576010565330435" lon="10.399245537403964"><ele>589.0</ele><time>2026-04-04T08:13:23Z</time></trkpt><trkpt lat="45.57600108545128" lon="10.399340668500692"><ele>589.0</ele><time>2026-04-04T08:13:24Z</time></trkpt><trkpt lat="45.576013012639756" lon="10.399442015587224"><ele>589.0</ele><time>2026-04-04T08:13:25Z</time></trkpt><trkpt lat="45.57600150017977" lon="10.399549136913333"><ele>589.0</ele><time>2026-04-04T08:13:26Z</time></trkpt><trkpt lat="45.576005246608204" lon="10.39964927989828"><ele>589.8333333333334</ele><time>2026-04-04T08:13:27Z</time></trkpt><trkpt lat="45.57601289715796" lon="10.399774731668357"><ele>590.6666666666667</ele><time>2026-04-04T08:13:28Z</time></trkpt><trkpt lat="45.57602529315239" lon="10.39989254294483"><ele>591.5</ele><time>2026-04-04T08:13:29Z</time></trkpt><trkpt lat="45.57606193219301" lon="10.400000743058948"><ele>592.3333333333334</ele><time>2026-04-04T08:13:30Z</time></trkpt><trkpt lat="45.576089669616984" lon="10.400097910662932"><ele>593.1666666666666</ele><time>2026-04-04T08:13:31Z</time></trkpt><trkpt lat="45.57608551896121" lon="10.400213425200544"><ele>594.0</ele><time>2026-04-04T08:13:32Z</time></trkpt><trkpt lat="45.57606139346419" lon="10.400302105814593"><ele>594.0</ele><time>2026-04-04T08:13:33Z</time></trkpt><trkpt lat="45.57605392677202" lon="10.400409445221582"><ele>594.0</ele><time>2026-04-04T08:13:34Z</time></trkpt><trkpt lat="45.576071133754574" lon="10.400511326315183"><ele>594.0</ele><time>2026-04-04T08:13:35Z</time></trkpt><trkpt lat="45.57607835255205" lon="10.40068912520838"><ele>594.0</ele><time>2026-04-04T08:13:37Z</time></trkpt><trkpt lat="45.57607258241766" lon="10.400799931780515"><ele>594.0</ele><time>2026-04-04T08:13:38Z</time></trkpt><trkpt lat="45.57607044276421" lon="10.400923141866603"><ele>594.0</ele><time>2026-04-04T08:13:39Z</time></trkpt><trkpt lat="45.57605067218221" lon="10.401024817895392"><ele>595.25</ele><time>2026-04-04T08:13:40Z</time></trkpt><trkpt lat="45.57606246854098" lon="10.401195031559844"><ele>596.5</ele><time>2026-04-04T08:13:42Z</time></trkpt><trkpt lat="45.57611032252517" lon="10.401377158191583"><ele>597.75</ele><time>2026-04-04T08:13:44Z</time></trkpt><trkpt lat="45.57615744004212" lon="10.401504538127215"><ele>599.0</ele><time>2026-04-04T08:13:45Z</time></trkpt><trkpt lat="45.57616322437322" lon="10.40164501613817"><ele>599.8333333333333</ele><time>2026-04-04T08:13:46Z</time></trkpt><trkpt lat="45.57616916541389" lon="10.401751407980143"><ele>600.6666666666666</ele><time>2026-04-04T08:13:47Z</time></trkpt><trkpt lat="45.5761675921499" lon="10.401847060394894"><ele>601.5</ele><time>2026-04-04T08:13:48Z</time></trkpt><trkpt lat="45.57617232604129" lon="10.40194355567087"><ele>602.3333333333334</ele><time>2026-04-04T08:13:49Z</time></trkpt><trkpt lat="45.576210906566075" lon="10.402110059538309"><ele>603.1666666666667</ele><time>2026-04-04T08:13:51Z</time></trkpt><trkpt lat="45.57623031761857" lon="10.402232039428794"><ele>604.0</ele><time>2026-04-04T08:13:53Z</time></trkpt><trkpt lat="45.576235822138905" lon="10.402341303008644"><ele>607.6666666666667</ele><time>2026-04-04T08:13:57Z</time></trkpt><trkpt lat="45.57626046471987" lon="10.402439708177237"><ele>611.3333333333334</ele><time>2026-04-04T08:13:59Z</time></trkpt><trkpt lat="45.576316666891316" lon="10.402485962512664"><ele>615.0</ele><time>2026-04-04T08:14:01Z</time></trkpt><trkpt lat="45.576408113058854" lon="10.40249898579213"><ele>618.6666666666666</ele><time>2026-04-04T08:14:04Z</time></trkpt><trkpt lat="45.576445858516735" lon="10.402423140919408"><ele>622.3333333333333</ele><time>2026-04-04T08:14:06Z</time></trkpt><trkpt lat="45.57652493072733" lon="10.402412020975968"><ele>626.0</ele><time>2026-04-04T08:14:08Z</time></trkpt><trkpt lat="45.57661753041034" lon="10.402400546561223"><ele>626.0</ele><time>2026-04-04T08:14:10Z</time></trkpt><trkpt lat="45.57670580283752" lon="10.402382700533135"><ele>626.0</ele><time>2026-04-04T08:14:12Z</time></trkpt><trkpt lat="45.57690436587178" lon="10.40317181507726"><ele>626.5714285714286</ele><time>2026-04-04T08:14:16Z</time></trkpt><trkpt lat="45.57691507370812" lon="10.403271594956843"><ele>627.1428571428571</ele><time>2026-04-04T08:14:17Z</time></trkpt><trkpt lat="45.5769480809442" lon="10.403352535180199"><ele>627.7142857142858</ele><time>2026-04-04T08:14:18Z</time></trkpt><trkpt lat="45.576995467361286" lon="10.403423014235425"><ele>628.2857142857142</ele><time>2026-04-04T08:14:19Z</time></trkpt><trkpt lat="45.57702441293068" lon="10.403520636379625"><ele>628.8571428571429</ele><time>2026-04-04T08:14:20Z</time></trkpt><trkpt lat="45.57703150781759" lon="10.403617472699926"><ele>629.4285714285714</ele><time>2026-04-04T08:14:21Z</time></trkpt><trkpt lat="45.577012169132736" lon="10.403725551820216"><ele>630.0</ele><time>2026-04-04T08:14:22Z</time></trkpt><trkpt lat="45.57699573783822" lon="10.403855864666088"><ele>627.1666666666666</ele><time>2026-04-04T08:14:23Z</time></trkpt><trkpt lat="45.576991906107835" lon="10.403966450222788"><ele>624.3333333333334</ele><time>2026-04-04T08:14:24Z</time></trkpt><trkpt lat="45.577007254992076" lon="10.404075174094714"><ele>621.5</ele><time>2026-04-04T08:14:25Z</time></trkpt><trkpt lat="45.57698712575512" lon="10.404214802265306"><ele>618.6666666666667</ele><time>2026-04-04T08:14:27Z</time></trkpt><trkpt lat="45.57694447299461" lon="10.404300029627567"><ele>615.8333333333334</ele><time>2026-04-04T08:14:28Z</time></trkpt><trkpt lat="45.57690857636131" lon="10.404390038255018"><ele>613.0</ele><time>2026-04-04T08:14:29Z</time></trkpt><trkpt lat="45.57690762998668" lon="10.404553099215654"><ele>612.0</ele><time>2026-04-04T08:14:31Z</time></trkpt><trkpt lat="45.576906595537125" lon="10.404681423032288"><ele>611.0</ele><time>2026-04-04T08:14:32Z</time></trkpt><trkpt lat="45.57691747416936" lon="10.404790354379477"><ele>610.0</ele><time>2026-04-04T08:14:33Z</time></trkpt><trkpt lat="45.57694513307311" lon="10.404899811897527"><ele>609.0</ele><time>2026-04-04T08:14:34Z</time></trkpt><trkpt lat="45.57698675144733" lon="10.405016124947513"><ele>608.0</ele><time>2026-04-04T08:14:35Z</time></trkpt><trkpt lat="45.57703350043193" lon="10.405096047979358"><ele>607.0</ele><time>2026-04-04T08:14:36Z</time></trkpt><trkpt lat="45.5770779474407" lon="10.405163840932973"><ele>606.0</ele><time>2026-04-04T08:14:37Z</time></trkpt><trkpt lat="45.57713249214991" lon="10.405235463327186"><ele>605.0</ele><time>2026-04-04T08:14:38Z</time></trkpt><trkpt lat="45.57718299191353" lon="10.405401676477439"><ele>604.0</ele><time>2026-04-04T08:14:40Z</time></trkpt><trkpt lat="45.5772084196836" lon="10.405497745415689"><ele>603.0</ele><time>2026-04-04T08:14:41Z</time></trkpt><trkpt lat="45.57732265185681" lon="10.405595696476086"><ele>602.0</ele><time>2026-04-04T08:14:43Z</time></trkpt><trkpt lat="45.57741275810867" lon="10.405654316279717"><ele>602.0</ele><time>2026-04-04T08:14:45Z</time></trkpt><trkpt lat="45.57745828271741" lon="10.405729725405717"><ele>602.0</ele><time>2026-04-04T08:14:47Z</time></trkpt><trkpt lat="45.577502230671605" lon="10.405826762034645"><ele>602.0</ele><time>2026-04-04T08:14:50Z</time></trkpt><trkpt lat="45.57756679759895" lon="10.40584395828724"><ele>602.0</ele><time>2026-04-04T08:14:52Z</time></trkpt><trkpt lat="45.577632391080996" lon="10.405902488315451"><ele>602.0</ele><time>2026-04-04T08:14:54.999Z</time></trkpt><trkpt lat="45.577735315399735" lon="10.405962288941891"><ele>602.0</ele><time>2026-04-04T08:14:56.999Z</time></trkpt><trkpt lat="45.57779486705474" lon="10.406004693962418"><ele>602.0</ele><time>2026-04-04T08:14:57.999Z</time></trkpt><trkpt lat="45.57785353154615" lon="10.406106472860024"><ele>602.0</ele><time>2026-04-04T08:14:59.999Z</time></trkpt><trkpt lat="45.57783199007154" lon="10.406205734492948"><ele>602.0</ele><time>2026-04-04T08:15:01.999Z</time></trkpt><trkpt lat="45.577923079583215" lon="10.406272949442949"><ele>602.0</ele><time>2026-04-04T08:15:05.999Z</time></trkpt><trkpt lat="45.57799014888093" lon="10.406338780519249"><ele>602.0</ele><time>2026-04-04T08:15:08.999Z</time></trkpt><trkpt lat="45.578025587353935" lon="10.406413548669136"><ele>602.0</ele><time>2026-04-04T08:15:11.999Z</time></trkpt><trkpt lat="45.57807739252878" lon="10.406467744520077"><ele>599.0</ele><time>2026-04-04T08:15:13.999Z</time></trkpt><trkpt lat="45.57818135730091" lon="10.40646696714608"><ele>596.0</ele><time>2026-04-04T08:15:16.999Z</time></trkpt><trkpt lat="45.57826179751378" lon="10.406468967132598"><ele>593.0</ele><time>2026-04-04T08:15:19.999Z</time></trkpt><trkpt lat="45.57837328109292" lon="10.40651256712236"><ele>590.0</ele><time>2026-04-04T08:15:23.999Z</time></trkpt><trkpt lat="45.57886692067265" lon="10.406716946415838"><ele>588.25</ele><time>2026-04-04T08:15:27Z</time></trkpt><trkpt lat="45.578944353180326" lon="10.406763029396803"><ele>586.5</ele><time>2026-04-04T08:15:29Z</time></trkpt><trkpt lat="45.57872321635464" lon="10.40670592822774"><ele>584.75</ele><time>2026-04-04T08:15:31Z</time></trkpt><trkpt lat="45.57880552584108" lon="10.406730705305481"><ele>583.0</ele><time>2026-04-04T08:15:34Z</time></trkpt><trkpt lat="45.578863929309" lon="10.40679455063847"><ele>583.0</ele><time>2026-04-04T08:15:36Z</time></trkpt><trkpt lat="45.57893591450354" lon="10.406856991016195"><ele>583.0</ele><time>2026-04-04T08:15:38Z</time></trkpt><trkpt lat="45.57899247967541" lon="10.406914444851132"><ele>583.0</ele><time>2026-04-04T08:15:40Z</time></trkpt><trkpt lat="45.579020631079764" lon="10.407054081842768"><ele>583.0</ele><time>2026-04-04T08:15:43Z</time></trkpt><trkpt lat="45.578994583984" lon="10.407153393759188"><ele>583.0</ele><time>2026-04-04T08:15:47Z</time></trkpt><trkpt lat="45.57893168810094" lon="10.407095472586851"><ele>583.0</ele><time>2026-04-04T08:15:49Z</time></trkpt><trkpt lat="45.5789816653246" lon="10.407167585672083"><ele>583.0</ele><time>2026-04-04T08:15:54Z</time></trkpt><trkpt lat="45.579032043881135" lon="10.407227381051362"><ele>583.0</ele><time>2026-04-04T08:16:03Z</time></trkpt><trkpt lat="45.57912727850291" lon="10.407216262973447"><ele>583.0</ele><time>2026-04-04T08:16:32Z</time></trkpt><trkpt lat="45.57918214660019" lon="10.407165506387614"><ele>583.0</ele><time>2026-04-04T08:16:33Z</time></trkpt><trkpt lat="45.5792762631196" lon="10.407080468164668"><ele>583.0</ele><time>2026-04-04T08:16:35Z</time></trkpt><trkpt lat="45.57938114028849" lon="10.4070061520754"><ele>583.0</ele><time>2026-04-04T08:16:37Z</time></trkpt><trkpt lat="45.57943033299759" lon="10.406942813989666"><ele>583.0</ele><time>2026-04-04T08:16:38Z</time></trkpt><trkpt lat="45.579516800186994" lon="10.406843265571146"><ele>583.0</ele><time>2026-04-04T08:16:40Z</time></trkpt><trkpt lat="45.57957846911423" lon="10.406787949162176"><ele>583.0</ele><time>2026-04-04T08:16:41Z</time></trkpt><trkpt lat="45.57963835126381" lon="10.406732262029475"><ele>583.0</ele><time>2026-04-04T08:16:42Z</time></trkpt><trkpt lat="45.57968529957366" lon="10.406660622849166"><ele>583.0</ele><time>2026-04-04T08:16:43Z</time></trkpt><trkpt lat="45.57980446562219" lon="10.40653290112946"><ele>583.0</ele><time>2026-04-04T08:16:45Z</time></trkpt><trkpt lat="45.579880919273805" lon="10.406450236162712"><ele>583.0</ele><time>2026-04-04T08:16:46Z</time></trkpt><trkpt lat="45.579956815594116" lon="10.406385660309201"><ele>583.0</ele><time>2026-04-04T08:16:47Z</time></trkpt><trkpt lat="45.58000447539305" lon="10.406317543186775"><ele>583.0</ele><time>2026-04-04T08:16:48Z</time></trkpt><trkpt lat="45.58006178746221" lon="10.40626940300527"><ele>583.0</ele><time>2026-04-04T08:16:49Z</time></trkpt><trkpt lat="45.580131719316945" lon="10.406231074686872"><ele>583.0</ele><time>2026-04-04T08:16:50Z</time></trkpt><trkpt lat="45.58022469976345" lon="10.406240829928084"><ele>583.0</ele><time>2026-04-04T08:16:51Z</time></trkpt><trkpt lat="45.58031565102829" lon="10.406266842649858"><ele>583.0</ele><time>2026-04-04T08:16:52Z</time></trkpt><trkpt lat="45.58040208643245" lon="10.406305405035301"><ele>583.0</ele><time>2026-04-04T08:16:53Z</time></trkpt><trkpt lat="45.580467893669365" lon="10.406359324716263"><ele>583.0</ele><time>2026-04-04T08:16:54Z</time></trkpt><trkpt lat="45.5805109883452" lon="10.406461602658892"><ele>583.0</ele><time>2026-04-04T08:16:55Z</time></trkpt><trkpt lat="45.58051992208886" lon="10.406591647544198"><ele>583.0</ele><time>2026-04-04T08:16:56Z</time></trkpt><trkpt lat="45.58052787417969" lon="10.406723580875491"><ele>582.8</ele><time>2026-04-04T08:16:57Z</time></trkpt><trkpt lat="45.58052134882314" lon="10.40686793121379"><ele>582.5999999999999</ele><time>2026-04-04T08:16:58Z</time></trkpt><trkpt lat="45.580507123220585" lon="10.406996870987012"><ele>582.4000000000001</ele><time>2026-04-04T08:16:59Z</time></trkpt><trkpt lat="45.58049177427323" lon="10.407144040932044"><ele>582.2</ele><time>2026-04-04T08:16:59.999Z</time></trkpt><trkpt lat="45.58049454175116" lon="10.4072855558549"><ele>582.0</ele><time>2026-04-04T08:17:00.999Z</time></trkpt><trkpt lat="45.58051658765752" lon="10.407420857030885"><ele>582.6</ele><time>2026-04-04T08:17:01.999Z</time></trkpt><trkpt lat="45.580542882752226" lon="10.407550175460349"><ele>583.2</ele><time>2026-04-04T08:17:02.999Z</time></trkpt><trkpt lat="45.58053785391772" lon="10.407678443845189"><ele>583.8</ele><time>2026-04-04T08:17:03.999Z</time></trkpt><trkpt lat="45.58053121098038" lon="10.407816310987997"><ele>584.4</ele><time>2026-04-04T08:17:04.999Z</time></trkpt><trkpt lat="45.580554366596616" lon="10.407957291022159"><ele>585.0</ele><time>2026-04-04T08:17:05.999Z</time></trkpt><trkpt lat="45.58058784386508" lon="10.408082930474997"><ele>585.1666666666666</ele><time>2026-04-04T08:17:06.999Z</time></trkpt><trkpt lat="45.580630813992926" lon="10.408202403812169"><ele>585.3333333333334</ele><time>2026-04-04T08:17:07.999Z</time></trkpt><trkpt lat="45.58065919451447" lon="10.408332804692431"><ele>585.5</ele><time>2026-04-04T08:17:08.999Z</time></trkpt><trkpt lat="45.580673555522004" lon="10.40844996813917"><ele>585.6666666666667</ele><time>2026-04-04T08:17:09.999Z</time></trkpt><trkpt lat="45.58070909187154" lon="10.408563956996822"><ele>585.8333333333334</ele><time>2026-04-04T08:17:10.999Z</time></trkpt><trkpt lat="45.580715062956145" lon="10.408682637155929"><ele>586.0</ele><time>2026-04-04T08:17:11.999Z</time></trkpt><trkpt lat="45.580700208877076" lon="10.408800307162974"><ele>585.2</ele><time>2026-04-04T08:17:12.999Z</time></trkpt><trkpt lat="45.580690155233476" lon="10.408928267197917"><ele>584.4000000000001</ele><time>2026-04-04T08:17:13.999Z</time></trkpt><trkpt lat="45.580698970530065" lon="10.409067676544385"><ele>583.6</ele><time>2026-04-04T08:17:14.999Z</time></trkpt><trkpt lat="45.580713033615005" lon="10.409206367962584"><ele>582.8000000000001</ele><time>2026-04-04T08:17:15.999Z</time></trkpt><trkpt lat="45.58071613300727" lon="10.409340128076803"><ele>582.0</ele><time>2026-04-04T08:17:16.999Z</time></trkpt><trkpt lat="45.580734980161154" lon="10.409456156440456"><ele>582.0</ele><time>2026-04-04T08:17:17.999Z</time></trkpt><trkpt lat="45.58076831113061" lon="10.409571763461127"><ele>582.0</ele><time>2026-04-04T08:17:18.999Z</time></trkpt><trkpt lat="45.58080369594726" lon="10.409688960111943"><ele>582.0</ele><time>2026-04-04T08:17:19.999Z</time></trkpt><trkpt lat="45.58083501234462" lon="10.409795084843001"><ele>582.0</ele><time>2026-04-04T08:17:20.999Z</time></trkpt><trkpt lat="45.58086580878552" lon="10.409899216598516"><ele>582.0</ele><time>2026-04-04T08:17:21.999Z</time></trkpt><trkpt lat="45.5808985602114" lon="10.410005970270335"><ele>582.0</ele><time>2026-04-04T08:17:22.999Z</time></trkpt><trkpt lat="45.580932147229596" lon="10.410129582553449"><ele>582.0</ele><time>2026-04-04T08:17:23.999Z</time></trkpt><trkpt lat="45.5809731694243" lon="10.41023678099505"><ele>582.0</ele><time>2026-04-04T08:17:24.999Z</time></trkpt><trkpt lat="45.58101432210943" lon="10.410348314722548"><ele>582.0</ele><time>2026-04-04T08:17:25.999Z</time></trkpt><trkpt lat="45.58105044931974" lon="10.410456656203017"><ele>582.0</ele><time>2026-04-04T08:17:26.999Z</time></trkpt><trkpt lat="45.58108309967943" lon="10.410543237189808"><ele>582.0</ele><time>2026-04-04T08:17:27.999Z</time></trkpt><trkpt lat="45.58114031674786" lon="10.4106218730781"><ele>582.0</ele><time>2026-04-04T08:17:28.999Z</time></trkpt><trkpt lat="45.581202605937385" lon="10.410667244995178"><ele>582.0</ele><time>2026-04-04T08:17:29.999Z</time></trkpt><trkpt lat="45.58125637561925" lon="10.410753731050683"><ele>582.0</ele><time>2026-04-04T08:17:32Z</time></trkpt><trkpt lat="45.581307412646005" lon="10.410830711976189"><ele>582.0</ele><time>2026-04-04T08:17:36Z</time></trkpt><trkpt lat="45.58134725378697" lon="10.410902775125807"><ele>582.0</ele><time>2026-04-04T08:17:37Z</time></trkpt><trkpt lat="45.58138645870544" lon="10.410982678100268"><ele>582.0</ele><time>2026-04-04T08:17:38Z</time></trkpt><trkpt lat="45.581432044072145" lon="10.411065566929993"><ele>582.0</ele><time>2026-04-04T08:17:39Z</time></trkpt><trkpt lat="45.58148267537343" lon="10.411124037894991"><ele>582.0</ele><time>2026-04-04T08:17:40Z</time></trkpt><trkpt lat="45.581551421824265" lon="10.411160594661856"><ele>582.0</ele><time>2026-04-04T08:17:41Z</time></trkpt><trkpt lat="45.581620488659745" lon="10.411199035694603"><ele>582.0</ele><time>2026-04-04T08:17:42Z</time></trkpt><trkpt lat="45.5816939396995" lon="10.411234068648008"><ele>582.0</ele><time>2026-04-04T08:17:43Z</time></trkpt><trkpt lat="45.58177258075721" lon="10.411263949157766"><ele>582.0</ele><time>2026-04-04T08:17:44Z</time></trkpt><trkpt lat="45.58185896807649" lon="10.41128686064244"><ele>582.0</ele><time>2026-04-04T08:17:45Z</time></trkpt><trkpt lat="45.58194285593227" lon="10.411295194574663"><ele>582.0</ele><time>2026-04-04T08:17:46Z</time></trkpt><trkpt lat="45.5820278601324" lon="10.411288908620952"><ele>582.6666666666666</ele><time>2026-04-04T08:17:47Z</time></trkpt><trkpt lat="45.5821142790143" lon="10.411271651276829"><ele>583.3333333333334</ele><time>2026-04-04T08:17:48Z</time></trkpt><trkpt lat="45.58219874593337" lon="10.411252739254975"><ele>584.0</ele><time>2026-04-04T08:17:49Z</time></trkpt><trkpt lat="45.58227849200366" lon="10.411236506562773"><ele>584.6666666666667</ele><time>2026-04-04T08:17:50Z</time></trkpt><trkpt lat="45.58235507877989" lon="10.411240028594882"><ele>585.3333333333334</ele><time>2026-04-04T08:17:51Z</time></trkpt><trkpt lat="45.58242728053481" lon="10.411297345226055"><ele>586.0</ele><time>2026-04-04T08:17:52Z</time></trkpt><trkpt lat="45.58247308164025" lon="10.411411249559617"><ele>583.8333333333334</ele><time>2026-04-04T08:17:53Z</time></trkpt><trkpt lat="45.5824639252724" lon="10.411547119254006"><ele>581.6666666666667</ele><time>2026-04-04T08:17:54Z</time></trkpt><trkpt lat="45.58248019364113" lon="10.411668084994949"><ele>579.5</ele><time>2026-04-04T08:17:55Z</time></trkpt><trkpt lat="45.5824892857774" lon="10.411785046909058"><ele>577.3333333333334</ele><time>2026-04-04T08:17:56Z</time></trkpt><trkpt lat="45.582513563068886" lon="10.411899763241301"><ele>575.1666666666666</ele><time>2026-04-04T08:17:57Z</time></trkpt><trkpt lat="45.582545393397524" lon="10.412022623071616"><ele>573.0</ele><time>2026-04-04T08:17:58Z</time></trkpt><trkpt lat="45.5825588511686" lon="10.412150538129099"><ele>570.1999999999999</ele><time>2026-04-04T08:17:59Z</time></trkpt><trkpt lat="45.58253915672866" lon="10.412280576233114"><ele>567.4</ele><time>2026-04-04T08:18:00Z</time></trkpt><trkpt lat="45.582525856256915" lon="10.412403704306863"><ele>564.5999999999999</ele><time>2026-04-04T08:18:01Z</time></trkpt><trkpt lat="45.582548019820074" lon="10.412525721279186"><ele>561.8</ele><time>2026-04-04T08:18:02Z</time></trkpt><trkpt lat="45.58255674347914" lon="10.412649300403451"><ele>559.0</ele><time>2026-04-04T08:18:03Z</time></trkpt><trkpt lat="45.58255948436939" lon="10.412784655873994"><ele>559.0</ele><time>2026-04-04T08:18:04Z</time></trkpt><trkpt lat="45.582569969534056" lon="10.412944344905792"><ele>559.0</ele><time>2026-04-04T08:18:05Z</time></trkpt><trkpt lat="45.58258739698659" lon="10.41309256359936"><ele>559.0</ele><time>2026-04-04T08:18:06Z</time></trkpt><trkpt lat="45.58261105447279" lon="10.41322580491264"><ele>559.0</ele><time>2026-04-04T08:18:07Z</time></trkpt><trkpt lat="45.58263177054549" lon="10.413346730728806"><ele>559.0</ele><time>2026-04-04T08:18:08Z</time></trkpt><trkpt lat="45.582656738452876" lon="10.41348023406239"><ele>556.4</ele><time>2026-04-04T08:18:09Z</time></trkpt><trkpt lat="45.582696040760965" lon="10.41362019274015"><ele>553.8</ele><time>2026-04-04T08:18:10Z</time></trkpt><trkpt lat="45.58276218846593" lon="10.41374747138028"><ele>551.2</ele><time>2026-04-04T08:18:11Z</time></trkpt><trkpt lat="45.58282984010186" lon="10.413843510073956"><ele>548.6</ele><time>2026-04-04T08:18:12Z</time></trkpt><trkpt lat="45.58289149081574" lon="10.413944541876898"><ele>546.0</ele><time>2026-04-04T08:18:13Z</time></trkpt><trkpt lat="45.582946626976415" lon="10.414038066888411"><ele>545.6666666666666</ele><time>2026-04-04T08:18:14Z</time></trkpt><trkpt lat="45.58300766486399" lon="10.414125306111979"><ele>545.3333333333334</ele><time>2026-04-04T08:18:15Z</time></trkpt><trkpt lat="45.58308055567545" lon="10.414196457723381"><ele>545.0</ele><time>2026-04-04T08:18:16Z</time></trkpt><trkpt lat="45.583156526169034" lon="10.41425846083855"><ele>544.6666666666667</ele><time>2026-04-04T08:18:17Z</time></trkpt><trkpt lat="45.583228047960176" lon="10.414320523042816"><ele>544.3333333333334</ele><time>2026-04-04T08:18:18Z</time></trkpt><trkpt lat="45.58328734649764" lon="10.414396579428033"><ele>544.0</ele><time>2026-04-04T08:18:19Z</time></trkpt><trkpt lat="45.583338187426214" lon="10.414468391882616"><ele>544.0</ele><time>2026-04-04T08:18:20Z</time></trkpt><trkpt lat="45.58338742997923" lon="10.414544937849685"><ele>544.0</ele><time>2026-04-04T08:18:21Z</time></trkpt><trkpt lat="45.58343828575037" lon="10.414636789647304"><ele>544.0</ele><time>2026-04-04T08:18:22Z</time></trkpt><trkpt lat="45.58348662621905" lon="10.414743173732932"><ele>544.0</ele><time>2026-04-04T08:18:23Z</time></trkpt><trkpt lat="45.58353439130565" lon="10.414870728502974"><ele>544.0</ele><time>2026-04-04T08:18:24Z</time></trkpt><trkpt lat="45.58358543885557" lon="10.414999691774401"><ele>544.0</ele><time>2026-04-04T08:18:25Z</time></trkpt><trkpt lat="45.58364367716824" lon="10.415119802172276"><ele>540.8</ele><time>2026-04-04T08:18:26Z</time></trkpt><trkpt lat="45.58371483582885" lon="10.415235159207045"><ele>537.5999999999999</ele><time>2026-04-04T08:18:27Z</time></trkpt><trkpt lat="45.58380338107321" lon="10.415325801574493"><ele>534.4</ele><time>2026-04-04T08:18:28Z</time></trkpt><trkpt lat="45.58390113085636" lon="10.415401998363677"><ele>531.1999999999999</ele><time>2026-04-04T08:18:29Z</time></trkpt><trkpt lat="45.58399926427742" lon="10.41547756433646"><ele>528.0</ele><time>2026-04-04T08:18:30Z</time></trkpt><trkpt lat="45.58408854768374" lon="10.415553268289583"><ele>525.4</ele><time>2026-04-04T08:18:31Z</time></trkpt><trkpt lat="45.584169743159165" lon="10.415629167202821"><ele>522.8</ele><time>2026-04-04T08:18:32Z</time></trkpt><trkpt lat="45.58424246972714" lon="10.415711202037278"><ele>520.2</ele><time>2026-04-04T08:18:33Z</time></trkpt><trkpt lat="45.58431120019974" lon="10.415806020202373"><ele>517.6</ele><time>2026-04-04T08:18:34Z</time></trkpt><trkpt lat="45.584371383692535" lon="10.415913953052087"><ele>515.0</ele><time>2026-04-04T08:18:35Z</time></trkpt><trkpt lat="45.584433064242354" lon="10.416031551024357"><ele>515.0</ele><time>2026-04-04T08:18:36Z</time></trkpt><trkpt lat="45.58449062604296" lon="10.416156065758488"><ele>515.0</ele><time>2026-04-04T08:18:37Z</time></trkpt><trkpt lat="45.58454770070687" lon="10.416280514358316"><ele>515.0</ele><time>2026-04-04T08:18:38Z</time></trkpt><trkpt lat="45.58460743884796" lon="10.416398573758222"><ele>515.0</ele><time>2026-04-04T08:18:39Z</time></trkpt><trkpt lat="45.58466872343172" lon="10.416518598375362"><ele>515.0</ele><time>2026-04-04T08:18:40Z</time></trkpt><trkpt lat="45.58472398683225" lon="10.416633249923473"><ele>513.4</ele><time>2026-04-04T08:18:41Z</time></trkpt><trkpt lat="45.584779238738555" lon="10.416749545987608"><ele>511.8</ele><time>2026-04-04T08:18:42Z</time></trkpt><trkpt lat="45.58482942463581" lon="10.416861247415042"><ele>510.20000000000005</ele><time>2026-04-04T08:18:43Z</time></trkpt><trkpt lat="45.58488076744718" lon="10.416977367720264"><ele>508.6</ele><time>2026-04-04T08:18:44Z</time></trkpt><trkpt lat="45.584936358223345" lon="10.417092232669726"><ele>507.0</ele><time>2026-04-04T08:18:45Z</time></trkpt><trkpt lat="45.58498981354491" lon="10.41720617809132"><ele>506.6</ele><time>2026-04-04T08:18:46Z</time></trkpt><trkpt lat="45.58504041763375" lon="10.417319660489285"><ele>506.20000000000005</ele><time>2026-04-04T08:18:47Z</time></trkpt><trkpt lat="45.585089582002354" lon="10.417433471363632"><ele>505.8</ele><time>2026-04-04T08:18:48Z</time></trkpt><trkpt lat="45.585138464007834" lon="10.417545768003473"><ele>505.4</ele><time>2026-04-04T08:18:49Z</time></trkpt><trkpt lat="45.585191504896166" lon="10.417657302888596"><ele>505.0</ele><time>2026-04-04T08:18:50Z</time></trkpt><trkpt lat="45.58524745569147" lon="10.417777524955453"><ele>505.0</ele><time>2026-04-04T08:18:51Z</time></trkpt><trkpt lat="45.58530476038579" lon="10.417897244801507"><ele>505.0</ele><time>2026-04-04T08:18:52Z</time></trkpt><trkpt lat="45.585375434664876" lon="10.41801067936239"><ele>505.0</ele><time>2026-04-04T08:18:53Z</time></trkpt><trkpt lat="45.585453766846484" lon="10.418117258339976"><ele>505.0</ele><time>2026-04-04T08:18:54Z</time></trkpt><trkpt lat="45.585539896145754" lon="10.418219879049659"><ele>505.0</ele><time>2026-04-04T08:18:55Z</time></trkpt><trkpt lat="45.585631866715154" lon="10.41831317445054"><ele>505.0</ele><time>2026-04-04T08:18:56Z</time></trkpt><trkpt lat="45.58573198336141" lon="10.41837718081321"><ele>505.0</ele><time>2026-04-04T08:18:57Z</time></trkpt><trkpt lat="45.58583679096384" lon="10.418420691633596"><ele>505.0</ele><time>2026-04-04T08:18:58Z</time></trkpt><trkpt lat="45.58594129654007" lon="10.418459211093843"><ele>505.0</ele><time>2026-04-04T08:18:59Z</time></trkpt><trkpt lat="45.58604831279324" lon="10.418496834372343"><ele>505.0</ele><time>2026-04-04T08:19:00Z</time></trkpt><trkpt lat="45.586153672187685" lon="10.41854202978419"><ele>503.4</ele><time>2026-04-04T08:19:01Z</time></trkpt><trkpt lat="45.586254817588866" lon="10.418600738272541"><ele>501.8</ele><time>2026-04-04T08:19:02Z</time></trkpt><trkpt lat="45.586358859823505" lon="10.418657269680866"><ele>500.20000000000005</ele><time>2026-04-04T08:19:02.999Z</time></trkpt><trkpt lat="45.586455296703356" lon="10.418697667426107"><ele>498.6</ele><time>2026-04-04T08:19:03.999Z</time></trkpt><trkpt lat="45.586541578127274" lon="10.4187256166285"><ele>497.0</ele><time>2026-04-04T08:19:04.999Z</time></trkpt><trkpt lat="45.58660498929383" lon="10.41876870848119"><ele>497.0</ele><time>2026-04-04T08:19:05.999Z</time></trkpt><trkpt lat="45.5866771001113" lon="10.41879551546977"><ele>497.00000000000006</ele><time>2026-04-04T08:19:07.999Z</time></trkpt><trkpt lat="45.586759762026965" lon="10.418488062360652"><ele>497.00000000000006</ele><time>2026-04-04T08:19:12.999Z</time></trkpt><trkpt lat="45.5867944374513" lon="10.418405347299672"><ele>497.0</ele><time>2026-04-04T08:19:14.999Z</time></trkpt><trkpt lat="45.58685652190056" lon="10.418340273883558"><ele>497.0</ele><time>2026-04-04T08:19:16.999Z</time></trkpt><trkpt lat="45.586867936730926" lon="10.418227435688637"><ele>496.99999999999994</ele><time>2026-04-04T08:19:18.999Z</time></trkpt><trkpt lat="45.58688523344088" lon="10.418107122880771"><ele>497.0</ele><time>2026-04-04T08:19:20.999Z</time></trkpt><trkpt lat="45.586915319915136" lon="10.41799742664773"><ele>497.0</ele><time>2026-04-04T08:19:24.999Z</time></trkpt><trkpt lat="45.58699085283084" lon="10.417979518241308"><ele>497.0</ele><time>2026-04-04T08:19:28.999Z</time></trkpt><trkpt lat="45.587081937626536" lon="10.417978748595813"><ele>496.99999999999994</ele><time>2026-04-04T08:19:31.999Z</time></trkpt><trkpt lat="45.58717411854" lon="10.418000113087533"><ele>497.0</ele><time>2026-04-04T08:19:34.999Z</time></trkpt><trkpt lat="45.58721423854367" lon="10.418107939691476"><ele>491.8</ele><time>2026-04-04T08:19:36.999Z</time></trkpt><trkpt lat="45.58728914061438" lon="10.418230757038339"><ele>486.6</ele><time>2026-04-04T08:19:39Z</time></trkpt><trkpt lat="45.58730435130999" lon="10.418368358066978"><ele>481.40000000000003</ele><time>2026-04-04T08:19:41Z</time></trkpt><trkpt lat="45.58738141228541" lon="10.418436058543245"><ele>476.20000000000005</ele><time>2026-04-04T08:19:43Z</time></trkpt><trkpt lat="45.58745287467378" lon="10.418451745103036"><ele>471.0</ele><time>2026-04-04T08:19:46Z</time></trkpt><trkpt lat="45.58756539280553" lon="10.418450315809185"><ele>471.0</ele><time>2026-04-04T08:19:54Z</time></trkpt><trkpt lat="45.58762665823632" lon="10.418486035071666"><ele>471.0</ele><time>2026-04-04T08:19:56Z</time></trkpt><trkpt lat="45.587825767093435" lon="10.418539047063298"><ele>471.0</ele><time>2026-04-04T08:20:09Z</time></trkpt><trkpt lat="45.58787921731601" lon="10.418594443593653"><ele>471.0</ele><time>2026-04-04T08:20:15Z</time></trkpt><trkpt lat="45.58792505668284" lon="10.418666689437531"><ele>471.0</ele><time>2026-04-04T08:20:25Z</time></trkpt><trkpt lat="45.5879812877877" lon="10.418717637655021"><ele>467.20000000000005</ele><time>2026-04-04T08:20:28Z</time></trkpt><trkpt lat="45.58804515781886" lon="10.418752496523528"><ele>463.40000000000003</ele><time>2026-04-04T08:20:30Z</time></trkpt><trkpt lat="45.58812763831918" lon="10.418791172959653"><ele>459.6</ele><time>2026-04-04T08:20:33Z</time></trkpt><trkpt lat="45.588231342244995" lon="10.418795673443089"><ele>455.8</ele><time>2026-04-04T08:20:36Z</time></trkpt><trkpt lat="45.588371829237865" lon="10.418769703930078"><ele>452.0</ele><time>2026-04-04T08:20:40Z</time></trkpt><trkpt lat="45.58850059153588" lon="10.418901949448648"><ele>451.2857142857143</ele><time>2026-04-04T08:20:43Z</time></trkpt><trkpt lat="45.58855057831813" lon="10.418968625668867"><ele>450.57142857142856</ele><time>2026-04-04T08:20:44Z</time></trkpt><trkpt lat="45.58859675213451" lon="10.419038149066632"><ele>449.85714285714283</ele><time>2026-04-04T08:20:45Z</time></trkpt><trkpt lat="45.58863083940205" lon="10.419142475469487"><ele>449.1428571428571</ele><time>2026-04-04T08:20:46Z</time></trkpt><trkpt lat="45.588656693470085" lon="10.4192348333219"><ele>448.42857142857144</ele><time>2026-04-04T08:20:47Z</time></trkpt><trkpt lat="45.58869974827713" lon="10.419305604479801"><ele>447.71428571428567</ele><time>2026-04-04T08:20:48Z</time></trkpt><trkpt lat="45.588746863171096" lon="10.419366524846078"><ele>447.0</ele><time>2026-04-04T08:20:49Z</time></trkpt><trkpt lat="45.58880490878061" lon="10.419462273976269"><ele>445.5</ele><time>2026-04-04T08:20:52Z</time></trkpt><trkpt lat="45.588871994314054" lon="10.419533334831536"><ele>444.0</ele><time>2026-04-04T08:20:54Z</time></trkpt><trkpt lat="45.58895473360487" lon="10.4195820079927"><ele>442.5</ele><time>2026-04-04T08:20:56Z</time></trkpt><trkpt lat="45.58902924201078" lon="10.419654142495043"><ele>441.0</ele><time>2026-04-04T08:20:59Z</time></trkpt><trkpt lat="45.589036555455145" lon="10.419743549656971"><ele>439.5</ele><time>2026-04-04T08:21:01Z</time></trkpt><trkpt lat="45.58903863561484" lon="10.419845745052148"><ele>438.0</ele><time>2026-04-04T08:21:03Z</time></trkpt><trkpt lat="45.5890458460806" lon="10.419952831079348"><ele>437.42857142857144</ele><time>2026-04-04T08:21:05Z</time></trkpt><trkpt lat="45.589053474551186" lon="10.420048272351154"><ele>436.85714285714283</ele><time>2026-04-04T08:21:07Z</time></trkpt><trkpt lat="45.589064853332964" lon="10.420140749349423"><ele>436.2857142857143</ele><time>2026-04-04T08:21:09.999Z</time></trkpt><trkpt lat="45.58908701386769" lon="10.420243085060052"><ele>435.7142857142857</ele><time>2026-04-04T08:21:11.999Z</time></trkpt><trkpt lat="45.589089118877" lon="10.420355009230432"><ele>435.1428571428571</ele><time>2026-04-04T08:21:13.999Z</time></trkpt><trkpt lat="45.589080507507504" lon="10.420455261352007"><ele>434.57142857142856</ele><time>2026-04-04T08:21:16.999Z</time></trkpt><trkpt lat="45.58909956716361" lon="10.42055717697297"><ele>434.0</ele><time>2026-04-04T08:21:18.999Z</time></trkpt><trkpt lat="45.58910836504458" lon="10.420652590556685"><ele>433.3333333333333</ele><time>2026-04-04T08:21:21.999Z</time></trkpt><trkpt lat="45.58912439605797" lon="10.420746790379443"><ele>432.66666666666663</ele><time>2026-04-04T08:21:29.999Z</time></trkpt><trkpt lat="45.589187267061064" lon="10.420785826241517"><ele>432.0</ele><time>2026-04-04T08:21:32.999Z</time></trkpt><trkpt lat="45.58928364642087" lon="10.42077112394365"><ele>431.33333333333337</ele><time>2026-04-04T08:21:34.999Z</time></trkpt><trkpt lat="45.58937109091874" lon="10.42076058199455"><ele>430.6666666666667</ele><time>2026-04-04T08:21:36.999Z</time></trkpt><trkpt lat="45.589458827454614" lon="10.42073606720154"><ele>430.0</ele><time>2026-04-04T08:21:38.999Z</time></trkpt><trkpt lat="45.589531427868884" lon="10.420746291842745"><ele>427.50000000000006</ele><time>2026-04-04T08:21:40.999Z</time></trkpt><trkpt lat="45.58958653077171" lon="10.420803817314889"><ele>425.0</ele><time>2026-04-04T08:21:42.999Z</time></trkpt><trkpt lat="45.58966796213636" lon="10.420851080701414"><ele>422.5</ele><time>2026-04-04T08:21:46Z</time></trkpt><trkpt lat="45.589692605677605" lon="10.420944252144071"><ele>420.0</ele><time>2026-04-04T08:21:48Z</time></trkpt><trkpt lat="45.58978098447089" lon="10.42101603842978"><ele>417.50000000000006</ele><time>2026-04-04T08:21:51Z</time></trkpt><trkpt lat="45.589865194282034" lon="10.421116341732263"><ele>415.0</ele><time>2026-04-04T08:21:55Z</time></trkpt><trkpt lat="45.58992466123041" lon="10.421176220749505"><ele>415.00000000000006</ele><time>2026-04-04T08:21:58Z</time></trkpt><trkpt lat="45.59000662721287" lon="10.421234846705332"><ele>415.0</ele><time>2026-04-04T08:22:00Z</time></trkpt><trkpt lat="45.59006230628261" lon="10.421285766219526"><ele>415.0</ele><time>2026-04-04T08:22:03Z</time></trkpt><trkpt lat="45.59013786468391" lon="10.421332885939915"><ele>415.0</ele><time>2026-04-04T08:22:08Z</time></trkpt><trkpt lat="45.59020185755736" lon="10.421399979119998"><ele>415.00000000000006</ele><time>2026-04-04T08:22:13Z</time></trkpt><trkpt lat="45.59026435248252" lon="10.421452651486895"><ele>415.0</ele><time>2026-04-04T08:22:19Z</time></trkpt><trkpt lat="45.590317413194576" lon="10.421513893002302"><ele>412.50000000000006</ele><time>2026-04-04T08:22:24Z</time></trkpt><trkpt lat="45.59034929277305" lon="10.42163782148462"><ele>410.0</ele><time>2026-04-04T08:22:28Z</time></trkpt><trkpt lat="45.59039262105385" lon="10.42172470821583"><ele>407.5</ele><time>2026-04-04T08:22:31Z</time></trkpt><trkpt lat="45.590423878058175" lon="10.421819765950943"><ele>405.0</ele><time>2026-04-04T08:22:34Z</time></trkpt><trkpt lat="45.59048936425087" lon="10.421911753579785"><ele>402.50000000000006</ele><time>2026-04-04T08:22:36Z</time></trkpt><trkpt lat="45.590534982542586" lon="10.42198022901899"><ele>400.0</ele><time>2026-04-04T08:22:37Z</time></trkpt><trkpt lat="45.59057265375818" lon="10.422103172979515"><ele>400.25</ele><time>2026-04-04T08:22:40Z</time></trkpt><trkpt lat="45.59068254554316" lon="10.42225331433358"><ele>400.5</ele><time>2026-04-04T08:22:42Z</time></trkpt><trkpt lat="45.59079268291145" lon="10.42227720765728"><ele>400.75</ele><time>2026-04-04T08:22:43Z</time></trkpt><trkpt lat="45.59083871799849" lon="10.422404258100705"><ele>401.0</ele><time>2026-04-04T08:22:45Z</time></trkpt><trkpt lat="45.59090811417811" lon="10.422545757417826"><ele>401.0</ele><time>2026-04-04T08:22:47Z</time></trkpt><trkpt lat="45.590988379748325" lon="10.422654843397924"><ele>401.0</ele><time>2026-04-04T08:22:49Z</time></trkpt><trkpt lat="45.59107525168357" lon="10.422732187426364"><ele>401.0</ele><time>2026-04-04T08:22:51Z</time></trkpt><trkpt lat="45.59117499594177" lon="10.42275678747599"><ele>401.0</ele><time>2026-04-04T08:22:53Z</time></trkpt><trkpt lat="45.59111230380609" lon="10.422671298911878"><ele>401.0</ele><time>2026-04-04T08:23:02Z</time></trkpt><trkpt lat="45.59117092818254" lon="10.422631985186497"><ele>400.99999999999994</ele><time>2026-04-04T08:24:16Z</time></trkpt><trkpt lat="45.59118463165841" lon="10.422496572570587"><ele>401.0</ele><time>2026-04-04T08:24:20Z</time></trkpt><trkpt lat="45.5911627580264" lon="10.422410413281382"><ele>401.0</ele><time>2026-04-04T08:24:22Z</time></trkpt><trkpt lat="45.591144248977976" lon="10.422302818629797"><ele>401.0</ele><time>2026-04-04T08:24:25Z</time></trkpt><trkpt lat="45.59108804750504" lon="10.422216069378313"><ele>400.99999999999994</ele><time>2026-04-04T08:24:27Z</time></trkpt><trkpt lat="45.59101860709448" lon="10.422152204609532"><ele>401.0</ele><time>2026-04-04T08:24:29Z</time></trkpt><trkpt lat="45.59097847198625" lon="10.4220222679995"><ele>400.8333333333333</ele><time>2026-04-04T08:24:32Z</time></trkpt><trkpt lat="45.590949322313634" lon="10.421937866087125"><ele>400.66666666666663</ele><time>2026-04-04T08:24:33Z</time></trkpt><trkpt lat="45.59087793877781" lon="10.421802559671331"><ele>400.5</ele><time>2026-04-04T08:24:35Z</time></trkpt><trkpt lat="45.590844014630335" lon="10.421721005068767"><ele>400.33333333333337</ele><time>2026-04-04T08:24:36Z</time></trkpt><trkpt lat="45.59081297324968" lon="10.421635290041214"><ele>400.1666666666667</ele><time>2026-04-04T08:24:37Z</time></trkpt><trkpt lat="45.59077376256277" lon="10.421498051367692"><ele>400.0</ele><time>2026-04-04T08:24:39Z</time></trkpt><trkpt lat="45.590762007336906" lon="10.42139420132622"><ele>401.6666666666667</ele><time>2026-04-04T08:24:41Z</time></trkpt><trkpt lat="45.59077194211612" lon="10.421302163286885"><ele>403.33333333333337</ele><time>2026-04-04T08:24:43Z</time></trkpt><trkpt lat="45.59085376893121" lon="10.42125931885939"><ele>405.0</ele><time>2026-04-04T08:24:46Z</time></trkpt><trkpt lat="45.590948809883066" lon="10.4212650256525"><ele>406.66666666666663</ele><time>2026-04-04T08:24:48Z</time></trkpt><trkpt lat="45.59103918117849" lon="10.421195239915633"><ele>408.3333333333333</ele><time>2026-04-04T08:24:50Z</time></trkpt><trkpt lat="45.59109455732843" lon="10.421136285023023"><ele>410.0</ele><time>2026-04-04T08:24:51Z</time></trkpt><trkpt lat="45.59120972305308" lon="10.421085284344993"><ele>410.0</ele><time>2026-04-04T08:24:53Z</time></trkpt><trkpt lat="45.591344683250135" lon="10.421062411901453"><ele>410.0</ele><time>2026-04-04T08:24:54Z</time></trkpt><trkpt lat="45.591441648475424" lon="10.421008494935613"><ele>410.0</ele><time>2026-04-04T08:24:56Z</time></trkpt><trkpt lat="45.59152393621022" lon="10.420964890318134"><ele>410.0</ele><time>2026-04-04T08:24:58Z</time></trkpt><trkpt lat="45.591642332851194" lon="10.420895341240184"><ele>409.99999999999994</ele><time>2026-04-04T08:25:00Z</time></trkpt><trkpt lat="45.59172878372091" lon="10.420867213353114"><ele>410.0</ele><time>2026-04-04T08:25:02Z</time></trkpt><trkpt lat="45.591807076658135" lon="10.420849900017405"><ele>410.0</ele><time>2026-04-04T08:25:03Z</time></trkpt><trkpt lat="45.59187075892988" lon="10.420800278319762"><ele>410.0</ele><time>2026-04-04T08:25:04Z</time></trkpt><trkpt lat="45.591938445998444" lon="10.420725762743507"><ele>409.99999999999994</ele><time>2026-04-04T08:25:05Z</time></trkpt><trkpt lat="45.592005319917085" lon="10.420663753377573"><ele>410.0</ele><time>2026-04-04T08:25:06Z</time></trkpt><trkpt lat="45.592091835151486" lon="10.420628375004224"><ele>407.4</ele><time>2026-04-04T08:25:07Z</time></trkpt><trkpt lat="45.59218599401897" lon="10.420597097517769"><ele>404.8</ele><time>2026-04-04T08:25:08Z</time></trkpt><trkpt lat="45.59227217322967" lon="10.420569347951432"><ele>402.20000000000005</ele><time>2026-04-04T08:25:09Z</time></trkpt><trkpt lat="45.59234044089192" lon="10.420534517395938"><ele>399.6</ele><time>2026-04-04T08:25:10Z</time></trkpt><trkpt lat="45.59247604508205" lon="10.420563530201319"><ele>397.0</ele><time>2026-04-04T08:25:12Z</time></trkpt><trkpt lat="45.592542575309935" lon="10.420554507973696"><ele>397.0</ele><time>2026-04-04T08:25:13Z</time></trkpt><trkpt lat="45.59260976743388" lon="10.42055759127273"><ele>397.0</ele><time>2026-04-04T08:25:14Z</time></trkpt><trkpt lat="45.59272267107448" lon="10.420569166336826"><ele>397.0</ele><time>2026-04-04T08:25:16Z</time></trkpt><trkpt lat="45.59281838194421" lon="10.42071095412857"><ele>397.0</ele><time>2026-04-04T08:25:19Z</time></trkpt><trkpt lat="45.59288423326187" lon="10.420731684185116"><ele>397.0</ele><time>2026-04-04T08:25:20Z</time></trkpt><trkpt lat="45.592954875992504" lon="10.42075550194885"><ele>397.50000000000006</ele><time>2026-04-04T08:25:21Z</time></trkpt><trkpt lat="45.59302468592653" lon="10.420779715107601"><ele>398.0</ele><time>2026-04-04T08:25:22Z</time></trkpt><trkpt lat="45.59309287133405" lon="10.420792335486098"><ele>398.5</ele><time>2026-04-04T08:25:23Z</time></trkpt><trkpt lat="45.59315986849065" lon="10.420800072144834"><ele>399.0</ele><time>2026-04-04T08:25:23.999Z</time></trkpt><trkpt lat="45.593223665572246" lon="10.420807797638261"><ele>399.50000000000006</ele><time>2026-04-04T08:25:24.999Z</time></trkpt><trkpt lat="45.59333926270235" lon="10.420840878307903"><ele>400.0</ele><time>2026-04-04T08:25:26.999Z</time></trkpt><trkpt lat="45.59339111807336" lon="10.420896900110218"><ele>400.00000000000006</ele><time>2026-04-04T08:25:27.999Z</time></trkpt><trkpt lat="45.59348951963605" lon="10.420971925451905"><ele>400.0</ele><time>2026-04-04T08:25:29.999Z</time></trkpt><trkpt lat="45.593564295632675" lon="10.421007245433874"><ele>400.0</ele><time>2026-04-04T08:25:30.999Z</time></trkpt><trkpt lat="45.593636349591954" lon="10.421035199028804"><ele>400.0</ele><time>2026-04-04T08:25:31.999Z</time></trkpt><trkpt lat="45.59372176706514" lon="10.421057271104207"><ele>400.00000000000006</ele><time>2026-04-04T08:25:32.999Z</time></trkpt><trkpt lat="45.59380557895998" lon="10.421081915717494"><ele>400.0</ele><time>2026-04-04T08:25:33.999Z</time></trkpt><trkpt lat="45.5938912425536" lon="10.421109559295727"><ele>402.33333333333337</ele><time>2026-04-04T08:25:34.999Z</time></trkpt><trkpt lat="45.59398718049546" lon="10.42112983448839"><ele>404.6666666666667</ele><time>2026-04-04T08:25:35.999Z</time></trkpt><trkpt lat="45.594069437892486" lon="10.42114810501245"><ele>407.0</ele><time>2026-04-04T08:25:36.999Z</time></trkpt><trkpt lat="45.59414398132984" lon="10.421162782961874"><ele>409.33333333333337</ele><time>2026-04-04T08:25:37.999Z</time></trkpt><trkpt lat="45.594215591051004" lon="10.421176163050974"><ele>411.6666666666667</ele><time>2026-04-04T08:25:38.999Z</time></trkpt><trkpt lat="45.59428781136954" lon="10.42119418339366"><ele>414.0</ele><time>2026-04-04T08:25:39.999Z</time></trkpt><trkpt lat="45.594359382354675" lon="10.421212133679118"><ele>414.0</ele><time>2026-04-04T08:25:40.999Z</time></trkpt><trkpt lat="45.59443787240328" lon="10.421223358309552"><ele>414.0</ele><time>2026-04-04T08:25:41.999Z</time></trkpt><trkpt lat="45.594513746686204" lon="10.421233404797158"><ele>414.0</ele><time>2026-04-04T08:25:42.999Z</time></trkpt><trkpt lat="45.594585587046396" lon="10.421226356586931"><ele>414.0</ele><time>2026-04-04T08:25:43.999Z</time></trkpt><trkpt lat="45.594662514226584" lon="10.421219425424304"><ele>414.0</ele><time>2026-04-04T08:25:44.999Z</time></trkpt><trkpt lat="45.59475368172308" lon="10.421213714740464"><ele>414.0</ele><time>2026-04-04T08:25:45.999Z</time></trkpt><trkpt lat="45.594864213377136" lon="10.421225709850098"><ele>415.79999999999995</ele><time>2026-04-04T08:25:46.999Z</time></trkpt><trkpt lat="45.59499122236266" lon="10.421232352120713"><ele>417.59999999999997</ele><time>2026-04-04T08:25:47.999Z</time></trkpt><trkpt lat="45.59509189749003" lon="10.421246045711204"><ele>419.4</ele><time>2026-04-04T08:25:48.999Z</time></trkpt><trkpt lat="45.59520013313056" lon="10.421258182582305"><ele>421.2</ele><time>2026-04-04T08:25:49.999Z</time></trkpt><trkpt lat="45.59530715928838" lon="10.421269704534495"><ele>423.0</ele><time>2026-04-04T08:25:50.999Z</time></trkpt><trkpt lat="45.5953930691902" lon="10.421297000937681"><ele>419.6666666666667</ele><time>2026-04-04T08:25:51.999Z</time></trkpt><trkpt lat="45.5954654059671" lon="10.421336504967508"><ele>416.33333333333337</ele><time>2026-04-04T08:25:52.999Z</time></trkpt><trkpt lat="45.59553702185915" lon="10.421391403743593"><ele>413.0</ele><time>2026-04-04T08:25:53.999Z</time></trkpt><trkpt lat="45.59557938298903" lon="10.421492711713578"><ele>409.6666666666667</ele><time>2026-04-04T08:25:54.999Z</time></trkpt><trkpt lat="45.595622298356425" lon="10.42158170382702"><ele>406.33333333333337</ele><time>2026-04-04T08:25:56Z</time></trkpt><trkpt lat="45.595676017553764" lon="10.421642765480858"><ele>403.0</ele><time>2026-04-04T08:25:57Z</time></trkpt><trkpt lat="45.59573867603937" lon="10.421670629717061"><ele>403.00000000000006</ele><time>2026-04-04T08:25:58Z</time></trkpt><trkpt lat="45.5958189522497" lon="10.421729193879049"><ele>403.0</ele><time>2026-04-04T08:25:59Z</time></trkpt><trkpt lat="45.59587445021824" lon="10.421800005255447"><ele>403.0</ele><time>2026-04-04T08:26:00Z</time></trkpt><trkpt lat="45.595930709004655" lon="10.4219151923963"><ele>403.0</ele><time>2026-04-04T08:26:02Z</time></trkpt><trkpt lat="45.59595717748909" lon="10.422016466247884"><ele>403.00000000000006</ele><time>2026-04-04T08:26:05Z</time></trkpt><trkpt lat="45.595874207440836" lon="10.422035773981284"><ele>403.0</ele><time>2026-04-04T08:26:07Z</time></trkpt><trkpt lat="45.59577284103051" lon="10.421950641581585"><ele>403.0</ele><time>2026-04-04T08:26:09Z</time></trkpt><trkpt lat="45.59566965085191" lon="10.421985186750012"><ele>403.0</ele><time>2026-04-04T08:26:11Z</time></trkpt><trkpt lat="45.59558479192183" lon="10.422077599061534"><ele>403.0</ele><time>2026-04-04T08:26:13Z</time></trkpt><trkpt lat="45.595469003731004" lon="10.421976822017344"><ele>403.0</ele><time>2026-04-04T08:26:15Z</time></trkpt><trkpt lat="45.595400221415126" lon="10.422061920249554"><ele>403.0</ele><time>2026-04-04T08:26:16Z</time></trkpt><trkpt lat="45.5953376183995" lon="10.422036403263439"><ele>401.5714285714286</ele><time>2026-04-04T08:26:17Z</time></trkpt><trkpt lat="45.5952695751613" lon="10.422023584523057"><ele>400.1428571428571</ele><time>2026-04-04T08:26:18Z</time></trkpt><trkpt lat="45.59520022892464" lon="10.422015778446543"><ele>398.7142857142857</ele><time>2026-04-04T08:26:19Z</time></trkpt><trkpt lat="45.59511791101356" lon="10.422026361630138"><ele>397.28571428571433</ele><time>2026-04-04T08:26:20Z</time></trkpt><trkpt lat="45.59504095661264" lon="10.422027636930393"><ele>395.8571428571429</ele><time>2026-04-04T08:26:21Z</time></trkpt><trkpt lat="45.59497972645868" lon="10.421981271064055"><ele>394.42857142857144</ele><time>2026-04-04T08:26:22Z</time></trkpt><trkpt lat="45.59491103430774" lon="10.421947479496064"><ele>393.0</ele><time>2026-04-04T08:26:23Z</time></trkpt><trkpt lat="45.594846981818016" lon="10.421908731982132"><ele>393.0</ele><time>2026-04-04T08:26:24Z</time></trkpt><trkpt lat="45.59478541241711" lon="10.421882692084266"><ele>393.0</ele><time>2026-04-04T08:26:25Z</time></trkpt><trkpt lat="45.5946617157187" lon="10.421932161435487"><ele>393.0</ele><time>2026-04-04T08:26:27Z</time></trkpt><trkpt lat="45.59459883706705" lon="10.421982194887411"><ele>393.0</ele><time>2026-04-04T08:26:28Z</time></trkpt><trkpt lat="45.594515473275266" lon="10.422032686173685"><ele>393.0</ele><time>2026-04-04T08:26:29Z</time></trkpt><trkpt lat="45.594424568319745" lon="10.422056732409727"><ele>393.0</ele><time>2026-04-04T08:26:30Z</time></trkpt><trkpt lat="45.59433482445931" lon="10.42209652610767"><ele>388.8333333333333</ele><time>2026-04-04T08:26:31Z</time></trkpt><trkpt lat="45.59425205025715" lon="10.422148632422847"><ele>384.6666666666667</ele><time>2026-04-04T08:26:32Z</time></trkpt><trkpt lat="45.594194785654324" lon="10.422190057151532"><ele>380.5</ele><time>2026-04-04T08:26:33Z</time></trkpt><trkpt lat="45.59416069803323" lon="10.422288964886574"><ele>376.33333333333337</ele><time>2026-04-04T08:26:35Z</time></trkpt><trkpt lat="45.594220586130774" lon="10.422344624242733"><ele>372.1666666666667</ele><time>2026-04-04T08:26:36Z</time></trkpt><trkpt lat="45.594310271895495" lon="10.422391977374035"><ele>368.0</ele><time>2026-04-04T08:26:37Z</time></trkpt><trkpt lat="45.59437998272565" lon="10.422462708661099"><ele>368.0</ele><time>2026-04-04T08:26:38Z</time></trkpt><trkpt lat="45.594382481593954" lon="10.42256079849143"><ele>368.0</ele><time>2026-04-04T08:26:39Z</time></trkpt><trkpt lat="45.59440627782555" lon="10.42266827655162"><ele>368.0</ele><time>2026-04-04T08:26:40Z</time></trkpt><trkpt lat="45.59447222217917" lon="10.422722514058709"><ele>368.0</ele><time>2026-04-04T08:26:41Z</time></trkpt><trkpt lat="45.594539387303" lon="10.422735882435955"><ele>368.0</ele><time>2026-04-04T08:26:42Z</time></trkpt><trkpt lat="45.594655955524054" lon="10.422827929594856"><ele>368.0</ele><time>2026-04-04T08:26:44Z</time></trkpt><trkpt lat="45.594742852047204" lon="10.422857034559215"><ele>368.5</ele><time>2026-04-04T08:26:45Z</time></trkpt><trkpt lat="45.59483312573475" lon="10.422899075267214"><ele>369.0</ele><time>2026-04-04T08:26:46Z</time></trkpt><trkpt lat="45.594897865726594" lon="10.422938793906868"><ele>369.5</ele><time>2026-04-04T08:26:47Z</time></trkpt><trkpt lat="45.59496369023359" lon="10.422995176094554"><ele>370.0</ele><time>2026-04-04T08:26:48Z</time></trkpt><trkpt lat="45.595038466045345" lon="10.423040924043704"><ele>370.5</ele><time>2026-04-04T08:26:49Z</time></trkpt><trkpt lat="45.595095497889524" lon="10.423081786848288"><ele>371.0</ele><time>2026-04-04T08:26:50Z</time></trkpt><trkpt lat="45.595141678199354" lon="10.423147758915334"><ele>370.33333333333337</ele><time>2026-04-04T08:26:51Z</time></trkpt><trkpt lat="45.595165643159234" lon="10.423240610281619"><ele>369.6666666666667</ele><time>2026-04-04T08:26:52Z</time></trkpt><trkpt lat="45.59521082789388" lon="10.423326898131826"><ele>369.0</ele><time>2026-04-04T08:26:53Z</time></trkpt><trkpt lat="45.595260379334626" lon="10.423406665232921"><ele>368.3333333333333</ele><time>2026-04-04T08:26:54Z</time></trkpt><trkpt lat="45.595318381962954" lon="10.423497734241945"><ele>367.66666666666663</ele><time>2026-04-04T08:26:55Z</time></trkpt><trkpt lat="45.59537079129986" lon="10.42359899329129"><ele>367.0</ele><time>2026-04-04T08:26:56Z</time></trkpt><trkpt lat="45.59542265534029" lon="10.423689831377263"><ele>367.0</ele><time>2026-04-04T08:26:57Z</time></trkpt><trkpt lat="45.59548459370383" lon="10.42375793027031"><ele>367.0</ele><time>2026-04-04T08:26:58Z</time></trkpt><trkpt lat="45.595530447704235" lon="10.423831495692944"><ele>367.0</ele><time>2026-04-04T08:26:59Z</time></trkpt><trkpt lat="45.59556938880837" lon="10.423903717730854"><ele>367.0</ele><time>2026-04-04T08:27:00Z</time></trkpt><trkpt lat="45.59561762587173" lon="10.424020920659375"><ele>367.0</ele><time>2026-04-04T08:27:01Z</time></trkpt><trkpt lat="45.59567180074411" lon="10.424106543053098"><ele>367.0</ele><time>2026-04-04T08:27:02Z</time></trkpt><trkpt lat="45.59576843915123" lon="10.424231863381962"><ele>364.66666666666663</ele><time>2026-04-04T08:27:04Z</time></trkpt><trkpt lat="45.59581618493933" lon="10.424307795403255"><ele>362.3333333333333</ele><time>2026-04-04T08:27:05Z</time></trkpt><trkpt lat="45.595859065737784" lon="10.424387772223463"><ele>360.0</ele><time>2026-04-04T08:27:06Z</time></trkpt><trkpt lat="45.59591073461925" lon="10.424487448195539"><ele>357.6666666666667</ele><time>2026-04-04T08:27:07Z</time></trkpt><trkpt lat="45.595971814923764" lon="10.424590818726406"><ele>355.33333333333337</ele><time>2026-04-04T08:27:08Z</time></trkpt><trkpt lat="45.59603347765176" lon="10.424671088331756"><ele>353.0</ele><time>2026-04-04T08:27:09Z</time></trkpt><trkpt lat="45.596106345164706" lon="10.424757551179537"><ele>351.83333333333337</ele><time>2026-04-04T08:27:10Z</time></trkpt><trkpt lat="45.596177045299605" lon="10.424828453162732"><ele>350.6666666666667</ele><time>2026-04-04T08:27:11Z</time></trkpt><trkpt lat="45.59624674990961" lon="10.424907580391674"><ele>349.5</ele><time>2026-04-04T08:27:12Z</time></trkpt><trkpt lat="45.59631196331065" lon="10.42498544072125"><ele>348.3333333333333</ele><time>2026-04-04T08:27:13Z</time></trkpt><trkpt lat="45.59637918962336" lon="10.425046288995917"><ele>347.16666666666663</ele><time>2026-04-04T08:27:14Z</time></trkpt><trkpt lat="45.59645979309195" lon="10.425095213879153"><ele>346.0</ele><time>2026-04-04T08:27:15Z</time></trkpt><trkpt lat="45.596534506246" lon="10.425126037119007"><ele>346.0</ele><time>2026-04-04T08:27:16Z</time></trkpt><trkpt lat="45.596601622780156" lon="10.42516817027346"><ele>346.0</ele><time>2026-04-04T08:27:17Z</time></trkpt><trkpt lat="45.59666383131047" lon="10.425232859456322"><ele>346.0</ele><time>2026-04-04T08:27:18Z</time></trkpt><trkpt lat="45.596723393492084" lon="10.425318078548614"><ele>346.0</ele><time>2026-04-04T08:27:19Z</time></trkpt><trkpt lat="45.59677444583913" lon="10.425411546407833"><ele>346.0</ele><time>2026-04-04T08:27:20Z</time></trkpt><trkpt lat="45.596813344666444" lon="10.425519284291049"><ele>346.0</ele><time>2026-04-04T08:27:21Z</time></trkpt><trkpt lat="45.59684829160761" lon="10.425631784726233"><ele>345.16666666666663</ele><time>2026-04-04T08:27:22Z</time></trkpt><trkpt lat="45.59687848349324" lon="10.425745751247934"><ele>344.3333333333333</ele><time>2026-04-04T08:27:23Z</time></trkpt><trkpt lat="45.5968874402285" lon="10.425860224142097"><ele>343.5</ele><time>2026-04-04T08:27:24Z</time></trkpt><trkpt lat="45.596875312986526" lon="10.425973809492946"><ele>342.6666666666667</ele><time>2026-04-04T08:27:25Z</time></trkpt><trkpt lat="45.596869167847785" lon="10.42607565790878"><ele>341.83333333333337</ele><time>2026-04-04T08:27:25.999Z</time></trkpt><trkpt lat="45.596887059614616" lon="10.42618349006051"><ele>341.0</ele><time>2026-04-04T08:27:26.999Z</time></trkpt><trkpt lat="45.59691007254157" lon="10.42628349047146"><ele>340.6666666666667</ele><time>2026-04-04T08:27:27.999Z</time></trkpt><trkpt lat="45.596921882211646" lon="10.426378642526727"><ele>340.33333333333337</ele><time>2026-04-04T08:27:28.999Z</time></trkpt><trkpt lat="45.59692840587087" lon="10.426480042915196"><ele>340.0</ele><time>2026-04-04T08:27:29.999Z</time></trkpt><trkpt lat="45.59695083022058" lon="10.426596669673183"><ele>339.6666666666667</ele><time>2026-04-04T08:27:30.999Z</time></trkpt><trkpt lat="45.5969874591426" lon="10.426707843268249"><ele>339.3333333333333</ele><time>2026-04-04T08:27:31.999Z</time></trkpt><trkpt lat="45.597025097449844" lon="10.426813170703058"><ele>339.0</ele><time>2026-04-04T08:27:32.999Z</time></trkpt><trkpt lat="45.59707067352901" lon="10.426917080547597"><ele>338.6</ele><time>2026-04-04T08:27:33.999Z</time></trkpt><trkpt lat="45.59710952882325" lon="10.427025673733988"><ele>338.2</ele><time>2026-04-04T08:27:34.999Z</time></trkpt><trkpt lat="45.59713942495711" lon="10.427142924285668"><ele>337.8</ele><time>2026-04-04T08:27:35.999Z</time></trkpt><trkpt lat="45.597165516648914" lon="10.427269165160752"><ele>337.40000000000003</ele><time>2026-04-04T08:27:36.999Z</time></trkpt><trkpt lat="45.597205500909936" lon="10.427390427772025"><ele>337.0</ele><time>2026-04-04T08:27:37.999Z</time></trkpt><trkpt lat="45.597239269488306" lon="10.42751794610481"><ele>337.0</ele><time>2026-04-04T08:27:38.999Z</time></trkpt><trkpt lat="45.59727568504492" lon="10.427649246570665"><ele>337.0</ele><time>2026-04-04T08:27:39.999Z</time></trkpt><trkpt lat="45.59731115780078" lon="10.427769164163736"><ele>337.0</ele><time>2026-04-04T08:27:40.999Z</time></trkpt><trkpt lat="45.59734365456576" lon="10.427885738147083"><ele>337.0</ele><time>2026-04-04T08:27:41.999Z</time></trkpt><trkpt lat="45.59740968384128" lon="10.42797612085724"><ele>337.0</ele><time>2026-04-04T08:27:42.999Z</time></trkpt><trkpt lat="45.597472491801284" lon="10.428055924882148"><ele>336.8333333333333</ele><time>2026-04-04T08:27:43.999Z</time></trkpt><trkpt lat="45.597551089136516" lon="10.428118927007832"><ele>336.66666666666663</ele><time>2026-04-04T08:27:44.999Z</time></trkpt><trkpt lat="45.59761652698035" lon="10.428172169104265"><ele>336.5</ele><time>2026-04-04T08:27:45.999Z</time></trkpt><trkpt lat="45.5976697761506" lon="10.4282545984852"><ele>336.3333333333333</ele><time>2026-04-04T08:27:46.999Z</time></trkpt><trkpt lat="45.59766167789108" lon="10.428382647795754"><ele>336.1666666666667</ele><time>2026-04-04T08:27:47.999Z</time></trkpt><trkpt lat="45.59767009150491" lon="10.428519258698262"><ele>336.0</ele><time>2026-04-04T08:27:48.999Z</time></trkpt><trkpt lat="45.597651273452435" lon="10.428656470532236"><ele>336.0</ele><time>2026-04-04T08:27:49.999Z</time></trkpt><trkpt lat="45.59764593654272" lon="10.428803482537054"><ele>336.0</ele><time>2026-04-04T08:27:50.999Z</time></trkpt><trkpt lat="45.597641548898814" lon="10.428929269981545"><ele>336.0</ele><time>2026-04-04T08:27:51.999Z</time></trkpt><trkpt lat="45.597650941194374" lon="10.429024823237997"><ele>336.0</ele><time>2026-04-04T08:27:52.999Z</time></trkpt><trkpt lat="45.59768069744069" lon="10.42912425372329"><ele>336.0</ele><time>2026-04-04T08:27:53.999Z</time></trkpt><trkpt lat="45.59773238763691" lon="10.429216237283878"><ele>336.0</ele><time>2026-04-04T08:27:54.999Z</time></trkpt><trkpt lat="45.59785785462693" lon="10.429247558648669"><ele>330.8</ele><time>2026-04-04T08:27:56.999Z</time></trkpt><trkpt lat="45.59796034896757" lon="10.42921848671917"><ele>325.6</ele><time>2026-04-04T08:27:57.999Z</time></trkpt><trkpt lat="45.598061181146086" lon="10.42917131988839"><ele>320.4</ele><time>2026-04-04T08:27:58.999Z</time></trkpt><trkpt lat="45.59813101818282" lon="10.429187979910754"><ele>315.2</ele><time>2026-04-04T08:27:59.999Z</time></trkpt><trkpt lat="45.5981934646961" lon="10.429369716147203"><ele>310.0</ele><time>2026-04-04T08:28:02Z</time></trkpt><trkpt lat="45.59819029257658" lon="10.429496821179164"><ele>310.0</ele><time>2026-04-04T08:28:03Z</time></trkpt><trkpt lat="45.59817808251594" lon="10.429632023069924"><ele>310.0</ele><time>2026-04-04T08:28:04Z</time></trkpt><trkpt lat="45.59818360230788" lon="10.429743322250062"><ele>310.0</ele><time>2026-04-04T08:28:05Z</time></trkpt><trkpt lat="45.59815357114211" lon="10.429858907718923"><ele>310.0</ele><time>2026-04-04T08:28:06Z</time></trkpt><trkpt lat="45.59808762278879" lon="10.429936460583892"><ele>310.0</ele><time>2026-04-04T08:28:07Z</time></trkpt><trkpt lat="45.598026532727054" lon="10.429978942471374"><ele>310.0</ele><time>2026-04-04T08:28:08Z</time></trkpt><trkpt lat="45.59799134692437" lon="10.430114767674723"><ele>308.5</ele><time>2026-04-04T08:28:10Z</time></trkpt><trkpt lat="45.5980351801173" lon="10.430270488405212"><ele>307.0</ele><time>2026-04-04T08:28:12Z</time></trkpt><trkpt lat="45.598101208821234" lon="10.430321702566706"><ele>305.5</ele><time>2026-04-04T08:28:13Z</time></trkpt><trkpt lat="45.59816972671237" lon="10.430383007111415"><ele>304.0</ele><time>2026-04-04T08:28:14Z</time></trkpt><trkpt lat="45.598228999743135" lon="10.430459494679589"><ele>302.5</ele><time>2026-04-04T08:28:15Z</time></trkpt><trkpt lat="45.59828628817881" lon="10.430530056573613"><ele>301.0</ele><time>2026-04-04T08:28:16Z</time></trkpt><trkpt lat="45.598370133444604" lon="10.430601283738241"><ele>297.2</ele><time>2026-04-04T08:28:18Z</time></trkpt><trkpt lat="45.59848020900393" lon="10.430694785240618"><ele>293.40000000000003</ele><time>2026-04-04T08:28:20Z</time></trkpt><trkpt lat="45.598558419088306" lon="10.430730359000238"><ele>289.6</ele><time>2026-04-04T08:28:21Z</time></trkpt><trkpt lat="45.59863665872807" lon="10.430770388517322"><ele>285.8</ele><time>2026-04-04T08:28:22Z</time></trkpt><trkpt lat="45.59870001960262" lon="10.430762917774674"><ele>282.0</ele><time>2026-04-04T08:28:23Z</time></trkpt><trkpt lat="45.59879406233465" lon="10.43080764154795"><ele>278.3333333333333</ele><time>2026-04-04T08:28:25Z</time></trkpt><trkpt lat="45.59883409311565" lon="10.43096399974045"><ele>274.6666666666667</ele><time>2026-04-04T08:28:27Z</time></trkpt><trkpt lat="45.598827413130785" lon="10.431066749429432"><ele>271.0</ele><time>2026-04-04T08:28:28Z</time></trkpt><trkpt lat="45.59880272148149" lon="10.43115706483119"><ele>267.33333333333337</ele><time>2026-04-04T08:28:29Z</time></trkpt><trkpt lat="45.59876354304575" lon="10.431323828361357"><ele>263.6666666666667</ele><time>2026-04-04T08:28:31Z</time></trkpt><trkpt lat="45.5987410381494" lon="10.431413894010609"><ele>260.0</ele><time>2026-04-04T08:28:32Z</time></trkpt><trkpt lat="45.59870213653686" lon="10.431504074097823"><ele>259.33333333333337</ele><time>2026-04-04T08:28:33Z</time></trkpt><trkpt lat="45.598637344201485" lon="10.431585812692687"><ele>258.6666666666667</ele><time>2026-04-04T08:28:34Z</time></trkpt><trkpt lat="45.59855359560336" lon="10.431663072165676"><ele>258.0</ele><time>2026-04-04T08:28:35Z</time></trkpt><trkpt lat="45.598459442072766" lon="10.43167650352902"><ele>257.3333333333333</ele><time>2026-04-04T08:28:36Z</time></trkpt><trkpt lat="45.59838111325132" lon="10.431700921769822"><ele>256.66666666666663</ele><time>2026-04-04T08:28:37Z</time></trkpt><trkpt lat="45.59830810191311" lon="10.431697847615107"><ele>256.0</ele><time>2026-04-04T08:28:38Z</time></trkpt><trkpt lat="45.598237872097165" lon="10.431710248171576"><ele>256.0</ele><time>2026-04-04T08:28:39Z</time></trkpt><trkpt lat="45.59810489846517" lon="10.431752411789287"><ele>256.0</ele><time>2026-04-04T08:28:41Z</time></trkpt><trkpt lat="45.59804157751056" lon="10.431772194762765"><ele>256.0</ele><time>2026-04-04T08:28:42Z</time></trkpt><trkpt lat="45.59795645095525" lon="10.431792488077036"><ele>256.0</ele><time>2026-04-04T08:28:43Z</time></trkpt><trkpt lat="45.597842371024264" lon="10.431810323431142"><ele>256.0</ele><time>2026-04-04T08:28:45Z</time></trkpt><trkpt lat="45.59773250837891" lon="10.431816371935907"><ele>255.33333333333331</ele><time>2026-04-04T08:28:47Z</time></trkpt><trkpt lat="45.59765093307154" lon="10.431804866019784"><ele>254.66666666666666</ele><time>2026-04-04T08:28:48Z</time></trkpt><trkpt lat="45.59755445671767" lon="10.431792412731681"><ele>254.0</ele><time>2026-04-04T08:28:49Z</time></trkpt><trkpt lat="45.59746785060023" lon="10.4318001580243"><ele>253.33333333333331</ele><time>2026-04-04T08:28:50Z</time></trkpt><trkpt lat="45.59738976402817" lon="10.431845801400527"><ele>252.66666666666666</ele><time>2026-04-04T08:28:51Z</time></trkpt><trkpt lat="45.597351255771834" lon="10.431917564602207"><ele>252.0</ele><time>2026-04-04T08:28:52Z</time></trkpt><trkpt lat="45.597297646834136" lon="10.432014672592068"><ele>246.5</ele><time>2026-04-04T08:28:54Z</time></trkpt><trkpt lat="45.59722813702543" lon="10.432161758010272"><ele>241.0</ele><time>2026-04-04T08:28:56Z</time></trkpt><trkpt lat="45.597145009300085" lon="10.432285590833944"><ele>235.5</ele><time>2026-04-04T08:28:58Z</time></trkpt><trkpt lat="45.59706407815796" lon="10.432471810744396"><ele>230.0</ele><time>2026-04-04T08:29:00Z</time></trkpt><trkpt lat="45.59703265184131" lon="10.43257511584873"><ele>230.0</ele><time>2026-04-04T08:29:01Z</time></trkpt><trkpt lat="45.59701605544571" lon="10.432732358366106"><ele>230.0</ele><time>2026-04-04T08:29:03Z</time></trkpt><trkpt lat="45.59704505606131" lon="10.433066817238632"><ele>230.0</ele><time>2026-04-04T08:29:04Z</time></trkpt><trkpt lat="45.597043257247975" lon="10.433159961139856"><ele>230.0</ele><time>2026-04-04T08:29:05Z</time></trkpt><trkpt lat="45.596990309652305" lon="10.433299171315257"><ele>230.4</ele><time>2026-04-04T08:29:07Z</time></trkpt><trkpt lat="45.596969693050575" lon="10.433466781875122"><ele>230.8</ele><time>2026-04-04T08:29:09Z</time></trkpt><trkpt lat="45.59695680995201" lon="10.4336289376948"><ele>231.2</ele><time>2026-04-04T08:29:11Z</time></trkpt><trkpt lat="45.59693717340894" lon="10.433785721213903"><ele>231.6</ele><time>2026-04-04T08:29:13Z</time></trkpt><trkpt lat="45.59697101736626" lon="10.433896449341155"><ele>232.0</ele><time>2026-04-04T08:29:14Z</time></trkpt><trkpt lat="45.59699062133294" lon="10.433990309190655"><ele>231.99999999999997</ele><time>2026-04-04T08:29:15Z</time></trkpt><trkpt lat="45.59698355517501" lon="10.434107949246798"><ele>232.0</ele><time>2026-04-04T08:29:16Z</time></trkpt><trkpt lat="45.59693216727476" lon="10.43420692552171"><ele>232.0</ele><time>2026-04-04T08:29:17Z</time></trkpt><trkpt lat="45.59691359429669" lon="10.434309959662196"><ele>232.0</ele><time>2026-04-04T08:29:18Z</time></trkpt><trkpt lat="45.596903772759845" lon="10.434414465482778"><ele>231.99999999999997</ele><time>2026-04-04T08:29:19Z</time></trkpt><trkpt lat="45.59687439105727" lon="10.434506698319204"><ele>232.0</ele><time>2026-04-04T08:29:20Z</time></trkpt><trkpt lat="45.596822114799295" lon="10.434573457674324"><ele>230.39999999999998</ele><time>2026-04-04T08:29:21Z</time></trkpt><trkpt lat="45.59683776638753" lon="10.434765648401488"><ele>228.79999999999998</ele><time>2026-04-04T08:29:23Z</time></trkpt><trkpt lat="45.596875361383205" lon="10.434869662672885"><ele>227.2</ele><time>2026-04-04T08:29:25Z</time></trkpt><trkpt lat="45.59699607613167" lon="10.434830620779755"><ele>225.6</ele><time>2026-04-04T08:29:31.999Z</time></trkpt><trkpt lat="45.597063924313574" lon="10.434837818355879"><ele>224.0</ele><time>2026-04-04T08:29:46.999Z</time></trkpt><trkpt lat="45.59713149725126" lon="10.434820725661394"><ele>223.33333333333334</ele><time>2026-04-04T08:29:49.999Z</time></trkpt><trkpt lat="45.59720606213174" lon="10.434799176834003"><ele>222.66666666666669</ele><time>2026-04-04T08:29:55.999Z</time></trkpt><trkpt lat="45.597308440212004" lon="10.434746732165364"><ele>222.0</ele><time>2026-04-04T08:30:07Z</time></trkpt><trkpt lat="45.597395381743446" lon="10.434685181957608"><ele>221.33333333333331</ele><time>2026-04-04T08:30:09Z</time></trkpt><trkpt lat="45.597460219466946" lon="10.434641890689363"><ele>220.66666666666666</ele><time>2026-04-04T08:30:11Z</time></trkpt><trkpt lat="45.597538942160334" lon="10.434649289164193"><ele>220.0</ele><time>2026-04-04T08:30:13Z</time></trkpt><trkpt lat="45.59763321686688" lon="10.434686822552178"><ele>219.99999999999997</ele><time>2026-04-04T08:30:15Z</time></trkpt><trkpt lat="45.59769978605182" lon="10.434716295141127"><ele>220.0</ele><time>2026-04-04T08:30:16Z</time></trkpt><trkpt lat="45.59775648189013" lon="10.434755649306227"><ele>220.0</ele><time>2026-04-04T08:30:17Z</time></trkpt><trkpt lat="45.597815866411764" lon="10.434796294430031"><ele>220.0</ele><time>2026-04-04T08:30:18Z</time></trkpt><trkpt lat="45.597879353468265" lon="10.434816291236265"><ele>220.0</ele><time>2026-04-04T08:30:19Z</time></trkpt><trkpt lat="45.59794270366549" lon="10.434801594766517"><ele>219.99999999999997</ele><time>2026-04-04T08:30:20Z</time></trkpt><trkpt lat="45.598000504589194" lon="10.434745554060802"><ele>220.0</ele><time>2026-04-04T08:30:21Z</time></trkpt><trkpt lat="45.598041477530984" lon="10.434676247522042"><ele>219.4</ele><time>2026-04-04T08:30:22Z</time></trkpt><trkpt lat="45.59813161112227" lon="10.434616024876203"><ele>218.8</ele><time>2026-04-04T08:30:24Z</time></trkpt><trkpt lat="45.59822089280803" lon="10.434761900116333"><ele>218.2</ele><time>2026-04-04T08:30:26Z</time></trkpt><trkpt lat="45.598211030140085" lon="10.434894136939931"><ele>217.6</ele><time>2026-04-04T08:30:27Z</time></trkpt><trkpt lat="45.59823107544364" lon="10.43500365345784"><ele>217.0</ele><time>2026-04-04T08:30:28Z</time></trkpt><trkpt lat="45.59823728672366" lon="10.43511246242146"><ele>216.16666666666666</ele><time>2026-04-04T08:30:29Z</time></trkpt><trkpt lat="45.59826326556968" lon="10.435231115563424"><ele>215.33333333333331</ele><time>2026-04-04T08:30:30Z</time></trkpt><trkpt lat="45.59830992581734" lon="10.43533013422066"><ele>214.5</ele><time>2026-04-04T08:30:31Z</time></trkpt><trkpt lat="45.59836370673081" lon="10.43543848526722"><ele>213.66666666666669</ele><time>2026-04-04T08:30:32Z</time></trkpt><trkpt lat="45.59842244747675" lon="10.435520883028708"><ele>212.83333333333334</ele><time>2026-04-04T08:30:33Z</time></trkpt><trkpt lat="45.598471973528696" lon="10.435603063549758"><ele>212.0</ele><time>2026-04-04T08:30:34Z</time></trkpt><trkpt lat="45.59851208724929" lon="10.435698434693208"><ele>211.16666666666669</ele><time>2026-04-04T08:30:35Z</time></trkpt><trkpt lat="45.59852968421925" lon="10.435808486160674"><ele>210.33333333333334</ele><time>2026-04-04T08:30:36Z</time></trkpt><trkpt lat="45.59854232767745" lon="10.435920540930974"><ele>209.5</ele><time>2026-04-04T08:30:37Z</time></trkpt><trkpt lat="45.59855555732284" lon="10.436029696820912"><ele>208.66666666666669</ele><time>2026-04-04T08:30:38Z</time></trkpt><trkpt lat="45.598582444180096" lon="10.436127814843045"><ele>207.83333333333334</ele><time>2026-04-04T08:30:39Z</time></trkpt><trkpt lat="45.59863368220679" lon="10.436201411090863"><ele>207.0</ele><time>2026-04-04T08:30:40Z</time></trkpt><trkpt lat="45.598700909008" lon="10.436262923256024"><ele>207.8</ele><time>2026-04-04T08:30:41Z</time></trkpt><trkpt lat="45.59877006919202" lon="10.436313926260622"><ele>208.6</ele><time>2026-04-04T08:30:42Z</time></trkpt><trkpt lat="45.59887458781536" lon="10.43642047668314"><ele>209.4</ele><time>2026-04-04T08:30:44Z</time></trkpt><trkpt lat="45.598939590493806" lon="10.43647024234155"><ele>210.20000000000002</ele><time>2026-04-04T08:30:45Z</time></trkpt><trkpt lat="45.59898719459825" lon="10.436545856390412"><ele>211.0</ele><time>2026-04-04T08:30:46Z</time></trkpt><trkpt lat="45.59906696888315" lon="10.43669210717361"><ele>210.99999999999997</ele><time>2026-04-04T08:30:48Z</time></trkpt><trkpt lat="45.59911059892478" lon="10.436784186076705"><ele>211.0</ele><time>2026-04-04T08:30:49Z</time></trkpt><trkpt lat="45.59915674073754" lon="10.436881331882903"><ele>211.0</ele><time>2026-04-04T08:30:50Z</time></trkpt><trkpt lat="45.599210034306104" lon="10.436982156668597"><ele>211.0</ele><time>2026-04-04T08:30:51Z</time></trkpt><trkpt lat="45.599260639203635" lon="10.437076701574226"><ele>210.99999999999997</ele><time>2026-04-04T08:30:52Z</time></trkpt><trkpt lat="45.59930714944113" lon="10.437163378550382"><ele>211.0</ele><time>2026-04-04T08:30:53Z</time></trkpt><trkpt lat="45.59934468748604" lon="10.437246955308595"><ele>212.49999999999997</ele><time>2026-04-04T08:30:54Z</time></trkpt><trkpt lat="45.599374717414" lon="10.437326742732084"><ele>214.0</ele><time>2026-04-04T08:30:55Z</time></trkpt><trkpt lat="45.59940731522574" lon="10.437411339848783"><ele>215.5</ele><time>2026-04-04T08:30:56Z</time></trkpt><trkpt lat="45.599441303478265" lon="10.437491362209805"><ele>217.0</ele><time>2026-04-04T08:30:57Z</time></trkpt><trkpt lat="45.5994997654227" lon="10.437573462437635"><ele>218.49999999999997</ele><time>2026-04-04T08:30:59Z</time></trkpt><trkpt lat="45.59963369630417" lon="10.437520495900165"><ele>220.0</ele><time>2026-04-04T08:31:02Z</time></trkpt><trkpt lat="45.59970175458398" lon="10.43744297063916"><ele>220.49999999999997</ele><time>2026-04-04T08:31:03Z</time></trkpt><trkpt lat="45.59976884387999" lon="10.43737034852482"><ele>221.0</ele><time>2026-04-04T08:31:04Z</time></trkpt><trkpt lat="45.59984702135546" lon="10.437304840591215"><ele>221.5</ele><time>2026-04-04T08:31:05Z</time></trkpt><trkpt lat="45.599922617255196" lon="10.437236658555658"><ele>222.0</ele><time>2026-04-04T08:31:06Z</time></trkpt><trkpt lat="45.5999916822091" lon="10.437166173456706"><ele>222.49999999999997</ele><time>2026-04-04T08:31:07Z</time></trkpt><trkpt lat="45.60005767334186" lon="10.437097901281602"><ele>223.0</ele><time>2026-04-04T08:31:08Z</time></trkpt><trkpt lat="45.60012757087093" lon="10.437037558272056"><ele>224.0</ele><time>2026-04-04T08:31:09Z</time></trkpt><trkpt lat="45.60019621480704" lon="10.437173224200384"><ele>225.0</ele><time>2026-04-04T08:31:11Z</time></trkpt><trkpt lat="45.60020349071017" lon="10.437288100590285"><ele>226.0</ele><time>2026-04-04T08:31:12Z</time></trkpt><trkpt lat="45.60017549969615" lon="10.437411529515247"><ele>227.0</ele><time>2026-04-04T08:31:13Z</time></trkpt><trkpt lat="45.60012929649697" lon="10.437516693692011"><ele>228.0</ele><time>2026-04-04T08:31:14Z</time></trkpt><trkpt lat="45.600093950133434" lon="10.437629353623214"><ele>228.0</ele><time>2026-04-04T08:31:15Z</time></trkpt><trkpt lat="45.600046557097144" lon="10.437730254997911"><ele>228.0</ele><time>2026-04-04T08:31:16Z</time></trkpt><trkpt lat="45.60000837339784" lon="10.43782746908135"><ele>228.0</ele><time>2026-04-04T08:31:17Z</time></trkpt><trkpt lat="45.59997971709252" lon="10.437926128414878"><ele>228.0</ele><time>2026-04-04T08:31:18Z</time></trkpt><trkpt lat="45.59996918349981" lon="10.438020463513473"><ele>228.0</ele><time>2026-04-04T08:31:19Z</time></trkpt><trkpt lat="45.59996502030498" lon="10.438111888917243"><ele>228.0</ele><time>2026-04-04T08:31:20Z</time></trkpt><trkpt lat="45.59998407858203" lon="10.4382312590244"><ele>229.0</ele><time>2026-04-04T08:31:22Z</time></trkpt><trkpt lat="45.600075398443366" lon="10.438272222644196"><ele>230.0</ele><time>2026-04-04T08:31:24Z</time></trkpt><trkpt lat="45.600191680070104" lon="10.438267921843368"><ele>231.0</ele><time>2026-04-04T08:31:26Z</time></trkpt><trkpt lat="45.60025751751761" lon="10.4382632998702"><ele>232.0</ele><time>2026-04-04T08:31:27Z</time></trkpt><trkpt lat="45.600334999276406" lon="10.438231664386514"><ele>233.0</ele><time>2026-04-04T08:31:28Z</time></trkpt><trkpt lat="45.60040521879657" lon="10.438237905202993"><ele>234.0</ele><time>2026-04-04T08:31:29Z</time></trkpt><trkpt lat="45.600473038248396" lon="10.438289917428516"><ele>236.6</ele><time>2026-04-04T08:31:30Z</time></trkpt><trkpt lat="45.600554281958615" lon="10.43832014956373"><ele>239.2</ele><time>2026-04-04T08:31:31Z</time></trkpt><trkpt lat="45.600642049892414" lon="10.4383454568708"><ele>241.79999999999998</ele><time>2026-04-04T08:31:32Z</time></trkpt><trkpt lat="45.60075947893731" lon="10.438375468869355"><ele>244.39999999999998</ele><time>2026-04-04T08:31:33Z</time></trkpt><trkpt lat="45.600880111998706" lon="10.438383219007454"><ele>247.0</ele><time>2026-04-04T08:31:34Z</time></trkpt><trkpt lat="45.60097261084808" lon="10.438402619297223"><ele>246.99999999999997</ele><time>2026-04-04T08:31:34.999Z</time></trkpt><trkpt lat="45.601047281807375" lon="10.438391149288355"><ele>247.0</ele><time>2026-04-04T08:31:35.999Z</time></trkpt><trkpt lat="45.60114712550247" lon="10.438415610694905"><ele>247.0</ele><time>2026-04-04T08:31:37.999Z</time></trkpt><trkpt lat="45.601261588102986" lon="10.438412783780151"><ele>247.0</ele><time>2026-04-04T08:31:39.999Z</time></trkpt><trkpt lat="45.60131183400231" lon="10.438485091285186"><ele>246.99999999999997</ele><time>2026-04-04T08:31:40.999Z</time></trkpt><trkpt lat="45.60137314444645" lon="10.43856097851818"><ele>247.0</ele><time>2026-04-04T08:31:41.999Z</time></trkpt><trkpt lat="45.601440482238" lon="10.438625600294786"><ele>249.99999999999997</ele><time>2026-04-04T08:31:42.999Z</time></trkpt><trkpt lat="45.601513251457696" lon="10.438692547560468"><ele>253.0</ele><time>2026-04-04T08:31:43.999Z</time></trkpt><trkpt lat="45.60159768028133" lon="10.43873765661984"><ele>256.0</ele><time>2026-04-04T08:31:44.999Z</time></trkpt><trkpt lat="45.601667997646096" lon="10.438751307263919"><ele>259.0</ele><time>2026-04-04T08:31:45.999Z</time></trkpt><trkpt lat="45.601740002509594" lon="10.438728537319207"><ele>262.0</ele><time>2026-04-04T08:31:46.999Z</time></trkpt><trkpt lat="45.601822604702264" lon="10.43873255049447"><ele>265.0</ele><time>2026-04-04T08:31:47.999Z</time></trkpt><trkpt lat="45.60190075406794" lon="10.438727040513605"><ele>265.0</ele><time>2026-04-04T08:31:48.999Z</time></trkpt><trkpt lat="45.601987630130175" lon="10.438725503699201"><ele>265.0</ele><time>2026-04-04T08:31:49.999Z</time></trkpt><trkpt lat="45.60207386193103" lon="10.438726978033973"><ele>265.0</ele><time>2026-04-04T08:31:50.999Z</time></trkpt><trkpt lat="45.602143492085006" lon="10.438728332495032"><ele>265.0</ele><time>2026-04-04T08:31:51.999Z</time></trkpt><trkpt lat="45.60221683945886" lon="10.438729759197784"><ele>265.0</ele><time>2026-04-04T08:31:52.999Z</time></trkpt><trkpt lat="45.60228313188991" lon="10.438653440364405"><ele>265.0</ele><time>2026-04-04T08:31:53.999Z</time></trkpt><trkpt lat="45.60235107664428" lon="10.438631152671238"><ele>267.4</ele><time>2026-04-04T08:31:54.999Z</time></trkpt><trkpt lat="45.60247583528288" lon="10.438608726480645"><ele>269.8</ele><time>2026-04-04T08:31:56.999Z</time></trkpt><trkpt lat="45.60258172216141" lon="10.438654677348708"><ele>272.2</ele><time>2026-04-04T08:31:58.999Z</time></trkpt><trkpt lat="45.602673398581246" lon="10.438739584930028"><ele>274.6</ele><time>2026-04-04T08:32:00.999Z</time></trkpt><trkpt lat="45.60273331721223" lon="10.438788352593827"><ele>277.0</ele><time>2026-04-04T08:32:01.999Z</time></trkpt><trkpt lat="45.60281772304785" lon="10.43883299750986"><ele>279.0</ele><time>2026-04-04T08:32:03.999Z</time></trkpt><trkpt lat="45.60291048517685" lon="10.43879818313643"><ele>281.0</ele><time>2026-04-04T08:32:05.999Z</time></trkpt><trkpt lat="45.602868938596586" lon="10.438636319890275"><ele>283.0</ele><time>2026-04-04T08:32:07.999Z</time></trkpt><trkpt lat="45.602834354539354" lon="10.43848433093042"><ele>285.0</ele><time>2026-04-04T08:32:09.999Z</time></trkpt><trkpt lat="45.602787484857515" lon="10.438349586296848"><ele>287.0</ele><time>2026-04-04T08:32:10.999Z</time></trkpt><trkpt lat="45.60274721431544" lon="10.438235516751144"><ele>287.0</ele><time>2026-04-04T08:32:11.999Z</time></trkpt><trkpt lat="45.60271238743503" lon="10.438135113192423"><ele>287.0</ele><time>2026-04-04T08:32:13Z</time></trkpt><trkpt lat="45.602689421058145" lon="10.437990536022381"><ele>287.0</ele><time>2026-04-04T08:32:14Z</time></trkpt><trkpt lat="45.602658954198574" lon="10.437839244914448"><ele>287.0</ele><time>2026-04-04T08:32:15Z</time></trkpt><trkpt lat="45.60264164923634" lon="10.43770475149453"><ele>287.0</ele><time>2026-04-04T08:32:16Z</time></trkpt><trkpt lat="45.602629770651546" lon="10.437590924477922"><ele>288.6</ele><time>2026-04-04T08:32:17Z</time></trkpt><trkpt lat="45.60262041907988" lon="10.437481656302765"><ele>290.2</ele><time>2026-04-04T08:32:18Z</time></trkpt><trkpt lat="45.602595254483695" lon="10.437366108955793"><ele>291.8</ele><time>2026-04-04T08:32:19Z</time></trkpt><trkpt lat="45.60260099836941" lon="10.437227871500651"><ele>293.4</ele><time>2026-04-04T08:32:20Z</time></trkpt><trkpt lat="45.602591741343566" lon="10.43707555876767"><ele>295.0</ele><time>2026-04-04T08:32:21Z</time></trkpt><trkpt lat="45.60258378702819" lon="10.436915921332771"><ele>296.4</ele><time>2026-04-04T08:32:22Z</time></trkpt><trkpt lat="45.60257622621532" lon="10.436747166303045"><ele>297.8</ele><time>2026-04-04T08:32:23Z</time></trkpt><trkpt lat="45.60256988898116" lon="10.436598941746288"><ele>299.2</ele><time>2026-04-04T08:32:24Z</time></trkpt><trkpt lat="45.60256514257054" lon="10.436465949362608"><ele>300.6</ele><time>2026-04-04T08:32:25Z</time></trkpt><trkpt lat="45.602561495751374" lon="10.436335460637197"><ele>302.0</ele><time>2026-04-04T08:32:26Z</time></trkpt><trkpt lat="45.60255999112619" lon="10.436221593601763"><ele>302.83333333333337</ele><time>2026-04-04T08:32:27Z</time></trkpt><trkpt lat="45.602549447038115" lon="10.43609903261247"><ele>303.6666666666667</ele><time>2026-04-04T08:32:28Z</time></trkpt><trkpt lat="45.6025599633238" lon="10.435999150138665"><ele>304.5</ele><time>2026-04-04T08:32:29Z</time></trkpt><trkpt lat="45.60256297342111" lon="10.435850925821478"><ele>305.3333333333333</ele><time>2026-04-04T08:32:31Z</time></trkpt><trkpt lat="45.60258700876146" lon="10.435741066586875"><ele>306.16666666666663</ele><time>2026-04-04T08:32:34Z</time></trkpt><trkpt lat="45.60256119164867" lon="10.435622627849204"><ele>307.0</ele><time>2026-04-04T08:32:35Z</time></trkpt><trkpt lat="45.6026088017003" lon="10.435511682269755"><ele>307.66666666666663</ele><time>2026-04-04T08:32:37Z</time></trkpt><trkpt lat="45.60259599882175" lon="10.435377184414989"><ele>308.3333333333333</ele><time>2026-04-04T08:32:39Z</time></trkpt><trkpt lat="45.60258078550046" lon="10.435282844002808"><ele>309.0</ele><time>2026-04-04T08:32:40Z</time></trkpt><trkpt lat="45.6025845890739" lon="10.435168047446279"><ele>309.6666666666667</ele><time>2026-04-04T08:32:42Z</time></trkpt><trkpt lat="45.60266459572396" lon="10.435124859085695"><ele>310.33333333333337</ele><time>2026-04-04T08:32:44Z</time></trkpt><trkpt lat="45.60268661308731" lon="10.434988872758693"><ele>311.0</ele><time>2026-04-04T08:32:47Z</time></trkpt><trkpt lat="45.60270304939284" lon="10.43488841720033"><ele>311.0</ele><time>2026-04-04T08:32:48Z</time></trkpt><trkpt lat="45.6027201532908" lon="10.434784926840685"><ele>311.0</ele><time>2026-04-04T08:32:49Z</time></trkpt><trkpt lat="45.60274419157305" lon="10.434639478519225"><ele>311.0</ele><time>2026-04-04T08:32:51Z</time></trkpt><trkpt lat="45.602811130240454" lon="10.43460348804647"><ele>311.0</ele><time>2026-04-04T08:32:56Z</time></trkpt><trkpt lat="45.60285410615432" lon="10.434681750072842"><ele>311.0</ele><time>2026-04-04T08:32:58Z</time></trkpt><trkpt lat="45.60293968771723" lon="10.434685421396487"><ele>311.0</ele><time>2026-04-04T08:33:01Z</time></trkpt><trkpt lat="45.603112304501664" lon="10.434743838063278"><ele>315.6</ele><time>2026-04-04T08:33:02Z</time></trkpt><trkpt lat="45.60321405857581" lon="10.434671528741392"><ele>320.20000000000005</ele><time>2026-04-04T08:33:04Z</time></trkpt><trkpt lat="45.60330414165735" lon="10.434627265965835"><ele>324.79999999999995</ele><time>2026-04-04T08:33:06Z</time></trkpt><trkpt lat="45.60337674163279" lon="10.434568335449711"><ele>329.4</ele><time>2026-04-04T08:33:08Z</time></trkpt><trkpt lat="45.603441937540005" lon="10.434490331899902"><ele>334.0</ele><time>2026-04-04T08:33:10Z</time></trkpt><trkpt lat="45.603539791831736" lon="10.434399803880336"><ele>334.0</ele><time>2026-04-04T08:33:12Z</time></trkpt><trkpt lat="45.60364284194561" lon="10.434344124757233"><ele>334.0</ele><time>2026-04-04T08:33:14Z</time></trkpt><trkpt lat="45.603739405868204" lon="10.434294365052008"><ele>334.0</ele><time>2026-04-04T08:33:16Z</time></trkpt><trkpt lat="45.60383814621067" lon="10.434242007631978"><ele>334.0</ele><time>2026-04-04T08:33:18Z</time></trkpt><trkpt lat="45.603919902367615" lon="10.434216849555371"><ele>334.0</ele><time>2026-04-04T08:33:20Z</time></trkpt><trkpt lat="45.60396614854065" lon="10.434319277676844"><ele>339.1428571428571</ele><time>2026-04-04T08:33:24Z</time></trkpt><trkpt lat="45.604004222133426" lon="10.434395383157579"><ele>344.2857142857143</ele><time>2026-04-04T08:33:27Z</time></trkpt><trkpt lat="45.60408404435963" lon="10.434405029831495"><ele>349.42857142857144</ele><time>2026-04-04T08:33:29Z</time></trkpt><trkpt lat="45.604144280138705" lon="10.43436950922437"><ele>354.57142857142856</ele><time>2026-04-04T08:33:31Z</time></trkpt><trkpt lat="45.60420000751604" lon="10.434311962381454"><ele>359.7142857142857</ele><time>2026-04-04T08:33:32.999Z</time></trkpt><trkpt lat="45.60426417301353" lon="10.434237285161553"><ele>364.85714285714283</ele><time>2026-04-04T08:33:35.999Z</time></trkpt><trkpt lat="45.604314088750485" lon="10.43417886249554"><ele>370.0</ele><time>2026-04-04T08:33:39.999Z</time></trkpt><trkpt lat="45.60436344730161" lon="10.43411865850226"><ele>370.0</ele><time>2026-04-04T08:33:47.999Z</time></trkpt><trkpt lat="45.60440124982624" lon="10.434191811309764"><ele>370.0</ele><time>2026-04-04T08:34:10.999Z</time></trkpt><trkpt lat="45.604432807305535" lon="10.434280329356408"><ele>370.0</ele><time>2026-04-04T08:34:12.999Z</time></trkpt><trkpt lat="45.60446379970207" lon="10.43437099540682"><ele>370.0</ele><time>2026-04-04T08:34:14.999Z</time></trkpt><trkpt lat="45.60449377698799" lon="10.434525021548358"><ele>370.0</ele><time>2026-04-04T08:34:16.999Z</time></trkpt><trkpt lat="45.604559117401045" lon="10.434680060875541"><ele>370.0</ele><time>2026-04-04T08:34:19Z</time></trkpt><trkpt lat="45.60459109371518" lon="10.434782670410822"><ele>374.2</ele><time>2026-04-04T08:34:20Z</time></trkpt><trkpt lat="45.60464150284148" lon="10.43489933890355"><ele>378.4</ele><time>2026-04-04T08:34:22Z</time></trkpt><trkpt lat="45.60473233228629" lon="10.435051721200809"><ele>382.6</ele><time>2026-04-04T08:34:24Z</time></trkpt><trkpt lat="45.604787262020984" lon="10.435159834951428"><ele>386.8</ele><time>2026-04-04T08:34:26Z</time></trkpt><trkpt lat="45.604850335538885" lon="10.435163136748336"><ele>391.0</ele><time>2026-04-04T08:34:29Z</time></trkpt><trkpt lat="45.60492349184372" lon="10.435202715184657"><ele>391.00000000000006</ele><time>2026-04-04T08:34:31Z</time></trkpt><trkpt lat="45.604994990772504" lon="10.435266410967074"><ele>391.0</ele><time>2026-04-04T08:34:50Z</time></trkpt><trkpt lat="45.60506169173372" lon="10.435328677771055"><ele>391.0</ele><time>2026-04-04T08:34:53Z</time></trkpt><trkpt lat="45.60512940589524" lon="10.435374797196785"><ele>391.0</ele><time>2026-04-04T08:34:55Z</time></trkpt><trkpt lat="45.60521060508587" lon="10.435371857029574"><ele>391.00000000000006</ele><time>2026-04-04T08:34:57Z</time></trkpt><trkpt lat="45.60528639994578" lon="10.435294270787509"><ele>391.0</ele><time>2026-04-04T08:35:00Z</time></trkpt><trkpt lat="45.6052729199599" lon="10.435198345314475"><ele>391.00000000000006</ele><time>2026-04-04T08:35:02Z</time></trkpt><trkpt lat="45.60525756183326" lon="10.435107018603025"><ele>391.0</ele><time>2026-04-04T08:35:04Z</time></trkpt><trkpt lat="45.60519988486262" lon="10.434984538557144"><ele>391.0</ele><time>2026-04-04T08:35:06Z</time></trkpt><trkpt lat="45.60519203282477" lon="10.434889016671558"><ele>391.0</ele><time>2026-04-04T08:35:07Z</time></trkpt><trkpt lat="45.60519056160039" lon="10.43476788950309"><ele>391.00000000000006</ele><time>2026-04-04T08:35:09Z</time></trkpt><trkpt lat="45.605195640499176" lon="10.434663067573679"><ele>391.0</ele><time>2026-04-04T08:35:10Z</time></trkpt><trkpt lat="45.605196141343036" lon="10.434561215458503"><ele>393.00000000000006</ele><time>2026-04-04T08:35:11Z</time></trkpt><trkpt lat="45.60518716576218" lon="10.434457514952987"><ele>395.0</ele><time>2026-04-04T08:35:12Z</time></trkpt><trkpt lat="45.6051713679933" lon="10.434362351382786"><ele>397.0</ele><time>2026-04-04T08:35:13Z</time></trkpt><trkpt lat="45.605153164133235" lon="10.434219606966732"><ele>399.0</ele><time>2026-04-04T08:35:15Z</time></trkpt><trkpt lat="45.60514052526265" lon="10.434066372657242"><ele>401.00000000000006</ele><time>2026-04-04T08:35:18Z</time></trkpt><trkpt lat="45.60510496017841" lon="10.433952887618311"><ele>403.0</ele><time>2026-04-04T08:35:19Z</time></trkpt><trkpt lat="45.60506821765255" lon="10.433845638964002"><ele>403.00000000000006</ele><time>2026-04-04T08:35:20Z</time></trkpt><trkpt lat="45.605068383774395" lon="10.433696513468577"><ele>403.0</ele><time>2026-04-04T08:35:22Z</time></trkpt><trkpt lat="45.60514125276375" lon="10.433703583906727"><ele>403.0</ele><time>2026-04-04T08:35:26Z</time></trkpt><trkpt lat="45.60518859725723" lon="10.433778251619795"><ele>403.0</ele><time>2026-04-04T08:35:30Z</time></trkpt><trkpt lat="45.60526800035915" lon="10.43387542783852"><ele>403.00000000000006</ele><time>2026-04-04T08:36:38Z</time></trkpt><trkpt lat="45.60531062806041" lon="10.433966224065372"><ele>403.0</ele><time>2026-04-04T08:36:42Z</time></trkpt><trkpt lat="45.60536900244498" lon="10.43404709926508"><ele>409.50000000000006</ele><time>2026-04-04T08:36:44Z</time></trkpt><trkpt lat="45.60543735564011" lon="10.434102766882674"><ele>416.0</ele><time>2026-04-04T08:36:46Z</time></trkpt><trkpt lat="45.60550724136539" lon="10.434199085716923"><ele>422.5</ele><time>2026-04-04T08:36:49Z</time></trkpt><trkpt lat="45.60556062946996" lon="10.434250656572553"><ele>429.0</ele><time>2026-04-04T08:36:51Z</time></trkpt><trkpt lat="45.605635111644816" lon="10.434311505370252"><ele>435.50000000000006</ele><time>2026-04-04T08:36:53Z</time></trkpt><trkpt lat="45.605706935832245" lon="10.434386503127696"><ele>442.0</ele><time>2026-04-04T08:36:55Z</time></trkpt><trkpt lat="45.60581595882528" lon="10.434481182445868"><ele>442.0</ele><time>2026-04-04T08:36:57Z</time></trkpt><trkpt lat="45.60592787759669" lon="10.434579999970675"><ele>442.0</ele><time>2026-04-04T08:36:59Z</time></trkpt><trkpt lat="45.60602189028078" lon="10.434628262536368"><ele>442.0</ele><time>2026-04-04T08:37:01Z</time></trkpt><trkpt lat="45.606155592728264" lon="10.434676359287213"><ele>442.0</ele><time>2026-04-04T08:37:03Z</time></trkpt><trkpt lat="45.60624269363945" lon="10.434714860947425"><ele>443.83333333333337</ele><time>2026-04-04T08:37:04Z</time></trkpt><trkpt lat="45.60631367723852" lon="10.434740006538357"><ele>445.6666666666667</ele><time>2026-04-04T08:37:05Z</time></trkpt><trkpt lat="45.60637243992217" lon="10.434773899473678"><ele>447.5</ele><time>2026-04-04T08:37:06Z</time></trkpt><trkpt lat="45.60645931049927" lon="10.434840797787325"><ele>449.33333333333337</ele><time>2026-04-04T08:37:08Z</time></trkpt><trkpt lat="45.60656382388554" lon="10.434827570855342"><ele>451.1666666666667</ele><time>2026-04-04T08:37:10Z</time></trkpt><trkpt lat="45.60667098090165" lon="10.434825423156296"><ele>453.0</ele><time>2026-04-04T08:37:12Z</time></trkpt><trkpt lat="45.60672404769891" lon="10.434900699762675"><ele>453.0</ele><time>2026-04-04T08:37:15Z</time></trkpt><trkpt lat="45.606706590719924" lon="10.434793074197202"><ele>453.0</ele><time>2026-04-04T08:37:18Z</time></trkpt><trkpt lat="45.60666033401095" lon="10.434726666228041"><ele>453.0</ele><time>2026-04-04T08:37:19Z</time></trkpt><trkpt lat="45.60657377661966" lon="10.434642286718596"><ele>453.0</ele><time>2026-04-04T08:37:21Z</time></trkpt><trkpt lat="45.60647837801271" lon="10.434533478953638"><ele>453.0</ele><time>2026-04-04T08:37:23Z</time></trkpt><trkpt lat="45.606424551997186" lon="10.434470116053527"><ele>453.0</ele><time>2026-04-04T08:37:24Z</time></trkpt><trkpt lat="45.60636808601233" lon="10.434347730844056"><ele>454.6666666666667</ele><time>2026-04-04T08:37:25Z</time></trkpt><trkpt lat="45.606305274833296" lon="10.43427505885866"><ele>456.33333333333337</ele><time>2026-04-04T08:37:26Z</time></trkpt><trkpt lat="45.60624133303297" lon="10.43421951628611"><ele>458.0</ele><time>2026-04-04T08:37:27Z</time></trkpt><trkpt lat="45.606192211811695" lon="10.434103842443376"><ele>459.6666666666667</ele><time>2026-04-04T08:37:28Z</time></trkpt><trkpt lat="45.606134904388846" lon="10.433994723672994"><ele>461.33333333333337</ele><time>2026-04-04T08:37:29Z</time></trkpt><trkpt lat="45.60608620476973" lon="10.433907314957795"><ele>463.0</ele><time>2026-04-04T08:37:30Z</time></trkpt><trkpt lat="45.606100382800605" lon="10.433770776477395"><ele>463.0</ele><time>2026-04-04T08:37:31Z</time></trkpt><trkpt lat="45.606065947222326" lon="10.433631326889449"><ele>462.99999999999994</ele><time>2026-04-04T08:37:32Z</time></trkpt><trkpt lat="45.60603738283488" lon="10.43348388586448"><ele>462.99999999999994</ele><time>2026-04-04T08:37:33Z</time></trkpt><trkpt lat="45.606016454704196" lon="10.433341086442761"><ele>463.0</ele><time>2026-04-04T08:37:34Z</time></trkpt><trkpt lat="45.605994419373516" lon="10.433183489726188"><ele>463.0</ele><time>2026-04-04T08:37:35Z</time></trkpt><trkpt lat="45.605975471245316" lon="10.433047520165738"><ele>468.25</ele><time>2026-04-04T08:37:36Z</time></trkpt><trkpt lat="45.605954416767254" lon="10.432896366404865"><ele>473.5</ele><time>2026-04-04T08:37:37Z</time></trkpt><trkpt lat="45.60593366505005" lon="10.432743519887826"><ele>478.75</ele><time>2026-04-04T08:37:38Z</time></trkpt><trkpt lat="45.6059118357185" lon="10.432581887554877"><ele>484.0</ele><time>2026-04-04T08:37:39Z</time></trkpt><trkpt lat="45.605886205830245" lon="10.432414563495643"><ele>484.0</ele><time>2026-04-04T08:37:39.999Z</time></trkpt><trkpt lat="45.60586057266749" lon="10.432243166521303"><ele>484.0</ele><time>2026-04-04T08:37:40.999Z</time></trkpt><trkpt lat="45.60584260108501" lon="10.432110336391009"><ele>484.0</ele><time>2026-04-04T08:37:41.999Z</time></trkpt><trkpt lat="45.60581528927312" lon="10.431966137367924"><ele>484.0</ele><time>2026-04-04T08:37:42.999Z</time></trkpt><trkpt lat="45.60584807928121" lon="10.431800004427947"><ele>484.0</ele><time>2026-04-04T08:37:43.999Z</time></trkpt><trkpt lat="45.605880441126494" lon="10.431663685645681"><ele>484.79999999999995</ele><time>2026-04-04T08:37:44.999Z</time></trkpt><trkpt lat="45.605923026490565" lon="10.431533080890377"><ele>485.59999999999997</ele><time>2026-04-04T08:37:45.999Z</time></trkpt><trkpt lat="45.605976129305496" lon="10.43140886329514"><ele>486.4</ele><time>2026-04-04T08:37:46.999Z</time></trkpt><trkpt lat="45.60603743249483" lon="10.431267117238843"><ele>487.2</ele><time>2026-04-04T08:37:47.999Z</time></trkpt><trkpt lat="45.60608647987752" lon="10.431120501445674"><ele>488.0</ele><time>2026-04-04T08:37:48.999Z</time></trkpt><trkpt lat="45.606154229001675" lon="10.430983384536626"><ele>493.0</ele><time>2026-04-04T08:37:49.999Z</time></trkpt><trkpt lat="45.60623263441828" lon="10.430874576486707"><ele>497.99999999999994</ele><time>2026-04-04T08:37:50.999Z</time></trkpt><trkpt lat="45.60631626326353" lon="10.430768363076218"><ele>502.99999999999994</ele><time>2026-04-04T08:37:51.999Z</time></trkpt><trkpt lat="45.60640742884591" lon="10.430674193540657"><ele>508.0</ele><time>2026-04-04T08:37:52.999Z</time></trkpt><trkpt lat="45.60649622498388" lon="10.430587716988468"><ele>513.0</ele><time>2026-04-04T08:37:53.999Z</time></trkpt><trkpt lat="45.60659022543819" lon="10.430508669855097"><ele>513.1999999999999</ele><time>2026-04-04T08:37:54.999Z</time></trkpt><trkpt lat="45.606682326117046" lon="10.430447918242951"><ele>513.4</ele><time>2026-04-04T08:37:55.999Z</time></trkpt><trkpt lat="45.60678005100266" lon="10.43041220569445"><ele>513.5999999999999</ele><time>2026-04-04T08:37:56.999Z</time></trkpt><trkpt lat="45.606879083163676" lon="10.430399602558886"><ele>513.8</ele><time>2026-04-04T08:37:57.999Z</time></trkpt><trkpt lat="45.60698687729817" lon="10.430384093869973"><ele>514.0</ele><time>2026-04-04T08:37:58.999Z</time></trkpt><trkpt lat="45.6070995319235" lon="10.430371621259766"><ele>514.0</ele><time>2026-04-04T08:37:59.999Z</time></trkpt><trkpt lat="45.60720813663732" lon="10.430362956451523"><ele>514.0</ele><time>2026-04-04T08:38:00.999Z</time></trkpt><trkpt lat="45.60732273562154" lon="10.430326772489465"><ele>514.0</ele><time>2026-04-04T08:38:01.999Z</time></trkpt><trkpt lat="45.60743611629536" lon="10.430308204462188"><ele>514.0</ele><time>2026-04-04T08:38:02.999Z</time></trkpt><trkpt lat="45.60754080671357" lon="10.430258359386812"><ele>514.0</ele><time>2026-04-04T08:38:03.999Z</time></trkpt><trkpt lat="45.60761227511889" lon="10.430140949921208"><ele>514.0</ele><time>2026-04-04T08:38:04.999Z</time></trkpt><trkpt lat="45.60765408201613" lon="10.429982680908406"><ele>514.0</ele><time>2026-04-04T08:38:05.999Z</time></trkpt><trkpt lat="45.607666216939364" lon="10.429801044166359"><ele>514.0</ele><time>2026-04-04T08:38:06.999Z</time></trkpt><trkpt lat="45.607727485789965" lon="10.429654184327909"><ele>517.25</ele><time>2026-04-04T08:38:07.999Z</time></trkpt><trkpt lat="45.6078061528956" lon="10.429526190447637"><ele>520.5</ele><time>2026-04-04T08:38:08.999Z</time></trkpt><trkpt lat="45.607913193300774" lon="10.4294209247747"><ele>523.75</ele><time>2026-04-04T08:38:09.999Z</time></trkpt><trkpt lat="45.60801403583113" lon="10.429355611605084"><ele>527.0</ele><time>2026-04-04T08:38:10.999Z</time></trkpt><trkpt lat="45.60813963268486" lon="10.42930777586302"><ele>527.0</ele><time>2026-04-04T08:38:11.999Z</time></trkpt><trkpt lat="45.60825937674467" lon="10.429297113278368"><ele>527.0</ele><time>2026-04-04T08:38:12.999Z</time></trkpt><trkpt lat="45.608375773339" lon="10.429278288545738"><ele>527.0</ele><time>2026-04-04T08:38:13.999Z</time></trkpt><trkpt lat="45.60850198139235" lon="10.429271287702663"><ele>527.0</ele><time>2026-04-04T08:38:14.999Z</time></trkpt><trkpt lat="45.608623358286415" lon="10.429243881131793"><ele>533.0</ele><time>2026-04-04T08:38:15.999Z</time></trkpt><trkpt lat="45.60874035760878" lon="10.429241684521102"><ele>539.0</ele><time>2026-04-04T08:38:16.999Z</time></trkpt><trkpt lat="45.608844719400395" lon="10.429213506934648"><ele>545.0</ele><time>2026-04-04T08:38:17.999Z</time></trkpt><trkpt lat="45.608913788165495" lon="10.429139524709427"><ele>551.0</ele><time>2026-04-04T08:38:18.999Z</time></trkpt><trkpt lat="45.60895397459437" lon="10.429005581508045"><ele>557.0</ele><time>2026-04-04T08:38:19.999Z</time></trkpt><trkpt lat="45.608911920789375" lon="10.428823702687191"><ele>555.0</ele><time>2026-04-04T08:38:20.999Z</time></trkpt><trkpt lat="45.60890797397868" lon="10.42867190693209"><ele>553.0</ele><time>2026-04-04T08:38:21.999Z</time></trkpt><trkpt lat="45.6089068437342" lon="10.428518717705918"><ele>551.0</ele><time>2026-04-04T08:38:22.999Z</time></trkpt><trkpt lat="45.60892654287194" lon="10.428344714600872"><ele>549.0</ele><time>2026-04-04T08:38:23.999Z</time></trkpt><trkpt lat="45.60895932607766" lon="10.428180179127839"><ele>549.0</ele><time>2026-04-04T08:38:24.999Z</time></trkpt><trkpt lat="45.608998310380116" lon="10.428022904695128"><ele>549.0</ele><time>2026-04-04T08:38:25.999Z</time></trkpt><trkpt lat="45.60905720184176" lon="10.427842765019992"><ele>549.0</ele><time>2026-04-04T08:38:26.999Z</time></trkpt><trkpt lat="45.60910396683221" lon="10.427692563409241"><ele>549.0</ele><time>2026-04-04T08:38:27.999Z</time></trkpt><trkpt lat="45.60920376566518" lon="10.427600721939617"><ele>545.5</ele><time>2026-04-04T08:38:28.999Z</time></trkpt><trkpt lat="45.60931619461913" lon="10.427547145860727"><ele>542.0</ele><time>2026-04-04T08:38:29.999Z</time></trkpt><trkpt lat="45.609431966990385" lon="10.427496732794838"><ele>538.5</ele><time>2026-04-04T08:38:31Z</time></trkpt><trkpt lat="45.60956059149801" lon="10.427424014516186"><ele>535.0</ele><time>2026-04-04T08:38:32Z</time></trkpt><trkpt lat="45.609682025689104" lon="10.427310944998831"><ele>537.75</ele><time>2026-04-04T08:38:33Z</time></trkpt><trkpt lat="45.609767380937775" lon="10.427137056288402"><ele>540.5</ele><time>2026-04-04T08:38:34Z</time></trkpt><trkpt lat="45.60987682663025" lon="10.427001326891837"><ele>543.25</ele><time>2026-04-04T08:38:35Z</time></trkpt><trkpt lat="45.6099764076124" lon="10.426856435644869"><ele>546.0</ele><time>2026-04-04T08:38:36Z</time></trkpt><trkpt lat="45.61007502749784" lon="10.426696892737965"><ele>546.0</ele><time>2026-04-04T08:38:37Z</time></trkpt><trkpt lat="45.610159696864834" lon="10.42653535525559"><ele>546.0</ele><time>2026-04-04T08:38:38Z</time></trkpt><trkpt lat="45.61023043539923" lon="10.426354532345973"><ele>546.0</ele><time>2026-04-04T08:38:39Z</time></trkpt><trkpt lat="45.6102735802323" lon="10.42616898391395"><ele>546.0</ele><time>2026-04-04T08:38:40Z</time></trkpt><trkpt lat="45.61030664621072" lon="10.426012107423741"><ele>550.2</ele><time>2026-04-04T08:38:41Z</time></trkpt><trkpt lat="45.61033449649367" lon="10.425882008861253"><ele>554.4000000000001</ele><time>2026-04-04T08:38:42Z</time></trkpt><trkpt lat="45.61036362543731" lon="10.425773241840703"><ele>558.6</ele><time>2026-04-04T08:38:43Z</time></trkpt><trkpt lat="45.61041459508459" lon="10.425676442893945"><ele>562.8000000000001</ele><time>2026-04-04T08:38:44Z</time></trkpt><trkpt lat="45.61049045858782" lon="10.425588165739713"><ele>567.0</ele><time>2026-04-04T08:38:45Z</time></trkpt><trkpt lat="45.61058754645302" lon="10.425540720489545"><ele>567.0</ele><time>2026-04-04T08:38:46Z</time></trkpt><trkpt lat="45.61069140043624" lon="10.425546618767365"><ele>567.0</ele><time>2026-04-04T08:38:47Z</time></trkpt><trkpt lat="45.61080011061045" lon="10.42556570092852"><ele>567.0</ele><time>2026-04-04T08:38:48Z</time></trkpt><trkpt lat="45.61090855864349" lon="10.425589721966467"><ele>567.0</ele><time>2026-04-04T08:38:49Z</time></trkpt><trkpt lat="45.61101126314267" lon="10.42561567340226"><ele>567.0</ele><time>2026-04-04T08:38:50Z</time></trkpt><trkpt lat="45.61111934489134" lon="10.425643892604509"><ele>568.5</ele><time>2026-04-04T08:38:51Z</time></trkpt><trkpt lat="45.61123307092652" lon="10.425682046772831"><ele>570.0</ele><time>2026-04-04T08:38:52Z</time></trkpt><trkpt lat="45.6113502832694" lon="10.425724140533504"><ele>571.5</ele><time>2026-04-04T08:38:53Z</time></trkpt><trkpt lat="45.611474370172076" lon="10.425762494631071"><ele>573.0</ele><time>2026-04-04T08:38:54Z</time></trkpt><trkpt lat="45.6115990006357" lon="10.425767440991763"><ele>573.0</ele><time>2026-04-04T08:38:55Z</time></trkpt><trkpt lat="45.61173070200467" lon="10.425776523964323"><ele>573.0</ele><time>2026-04-04T08:38:56Z</time></trkpt><trkpt lat="45.61186210960412" lon="10.425750639796803"><ele>573.0</ele><time>2026-04-04T08:38:57Z</time></trkpt><trkpt lat="45.61199169315576" lon="10.425724903246339"><ele>573.0</ele><time>2026-04-04T08:38:58Z</time></trkpt><trkpt lat="45.61212385704845" lon="10.425701032387488"><ele>575.75</ele><time>2026-04-04T08:38:59Z</time></trkpt><trkpt lat="45.612253421482684" lon="10.425683382710726"><ele>578.5</ele><time>2026-04-04T08:39:00Z</time></trkpt><trkpt lat="45.61237766553579" lon="10.425667935480437"><ele>581.25</ele><time>2026-04-04T08:39:01Z</time></trkpt><trkpt lat="45.612497743823134" lon="10.425654466898186"><ele>584.0</ele><time>2026-04-04T08:39:02Z</time></trkpt><trkpt lat="45.61260961688096" lon="10.425649413420517"><ele>584.0</ele><time>2026-04-04T08:39:03Z</time></trkpt><trkpt lat="45.61270261598205" lon="10.425664412545705"><ele>584.0</ele><time>2026-04-04T08:39:04Z</time></trkpt><trkpt lat="45.612796261172946" lon="10.4256898405908"><ele>584.0</ele><time>2026-04-04T08:39:05Z</time></trkpt><trkpt lat="45.61289298277422" lon="10.425711440542328"><ele>584.0</ele><time>2026-04-04T08:39:06Z</time></trkpt><trkpt lat="45.61299322224791" lon="10.425670555561378"><ele>584.0</ele><time>2026-04-04T08:39:07Z</time></trkpt><trkpt lat="45.613071845044445" lon="10.425563197773204"><ele>583.8</ele><time>2026-04-04T08:39:08Z</time></trkpt><trkpt lat="45.61314774470987" lon="10.4255056412847"><ele>583.5999999999999</ele><time>2026-04-04T08:39:09Z</time></trkpt><trkpt lat="45.61324457359091" lon="10.425445059077475"><ele>583.4</ele><time>2026-04-04T08:39:11Z</time></trkpt><trkpt lat="45.613349941834336" lon="10.425477666016082"><ele>583.1999999999999</ele><time>2026-04-04T08:39:13Z</time></trkpt><trkpt lat="45.6134124954043" lon="10.425565475863147"><ele>583.0</ele><time>2026-04-04T08:39:14Z</time></trkpt><trkpt lat="45.61348413344959" lon="10.425687392803221"><ele>585.0</ele><time>2026-04-04T08:39:15Z</time></trkpt><trkpt lat="45.61355176347425" lon="10.425823590809504"><ele>587.0</ele><time>2026-04-04T08:39:16Z</time></trkpt><trkpt lat="45.61359766935775" lon="10.425977002068619"><ele>589.0</ele><time>2026-04-04T08:39:17Z</time></trkpt><trkpt lat="45.61363555486977" lon="10.426135798725493"><ele>591.0</ele><time>2026-04-04T08:39:18Z</time></trkpt><trkpt lat="45.61369447352356" lon="10.426278022640922"><ele>594.0</ele><time>2026-04-04T08:39:19Z</time></trkpt><trkpt lat="45.61374497843337" lon="10.426427867208231"><ele>597.0</ele><time>2026-04-04T08:39:20Z</time></trkpt><trkpt lat="45.613814876199186" lon="10.426564362939887"><ele>600.0</ele><time>2026-04-04T08:39:21Z</time></trkpt><trkpt lat="45.61389327063794" lon="10.426671341952211"><ele>603.0</ele><time>2026-04-04T08:39:22Z</time></trkpt><trkpt lat="45.61396303953865" lon="10.426772216227132"><ele>606.0</ele><time>2026-04-04T08:39:23Z</time></trkpt><trkpt lat="45.61402319129602" lon="10.4268823329159"><ele>606.0</ele><time>2026-04-04T08:39:24Z</time></trkpt><trkpt lat="45.61407360625671" lon="10.42700321963325"><ele>606.0</ele><time>2026-04-04T08:39:25Z</time></trkpt><trkpt lat="45.61411873341376" lon="10.427128624421883"><ele>606.0</ele><time>2026-04-04T08:39:26Z</time></trkpt><trkpt lat="45.614163986092095" lon="10.427249420357812"><ele>606.0</ele><time>2026-04-04T08:39:27Z</time></trkpt><trkpt lat="45.61421853031753" lon="10.427351576958738"><ele>606.0</ele><time>2026-04-04T08:39:28Z</time></trkpt><trkpt lat="45.61429560796739" lon="10.427433349812652"><ele>606.6</ele><time>2026-04-04T08:39:29Z</time></trkpt><trkpt lat="45.61438145509826" lon="10.427523877613222"><ele>607.2</ele><time>2026-04-04T08:39:30Z</time></trkpt><trkpt lat="45.61444996523969" lon="10.427637244958454"><ele>607.8</ele><time>2026-04-04T08:39:31Z</time></trkpt><trkpt lat="45.61449599086244" lon="10.427754913101863"><ele>608.4</ele><time>2026-04-04T08:39:32Z</time></trkpt><trkpt lat="45.61452694096776" lon="10.427855588460245"><ele>609.0</ele><time>2026-04-04T08:39:33Z</time></trkpt><trkpt lat="45.61458249915228" lon="10.427982771093722"><ele>607.5</ele><time>2026-04-04T08:39:35Z</time></trkpt><trkpt lat="45.61462370254469" lon="10.428081265562481"><ele>606.0</ele><time>2026-04-04T08:39:38Z</time></trkpt><trkpt lat="45.614695274976874" lon="10.428140504394339"><ele>604.5</ele><time>2026-04-04T08:40:47Z</time></trkpt><trkpt lat="45.61477951764014" lon="10.42825014832255"><ele>603.0</ele><time>2026-04-04T08:40:49Z</time></trkpt><trkpt lat="45.61483034911619" lon="10.428313700897919"><ele>601.5</ele><time>2026-04-04T08:40:50Z</time></trkpt><trkpt lat="45.61489318294848" lon="10.428381952539109"><ele>600.0</ele><time>2026-04-04T08:40:51Z</time></trkpt><trkpt lat="45.614960276594765" lon="10.42844918368516"><ele>600.0</ele><time>2026-04-04T08:40:52Z</time></trkpt><trkpt lat="45.61502155778156" lon="10.428536215732349"><ele>600.0</ele><time>2026-04-04T08:40:53Z</time></trkpt><trkpt lat="45.61509608970896" lon="10.428607425506437"><ele>600.0</ele><time>2026-04-04T08:40:54Z</time></trkpt><trkpt lat="45.615167338940715" lon="10.428675498882587"><ele>600.0</ele><time>2026-04-04T08:40:55Z</time></trkpt><trkpt lat="45.61524075523065" lon="10.428742546351629"><ele>600.0</ele><time>2026-04-04T08:40:56Z</time></trkpt><trkpt lat="45.61532187758372" lon="10.428787314188883"><ele>600.0</ele><time>2026-04-04T08:40:57Z</time></trkpt><trkpt lat="45.615402238969594" lon="10.428857685968849"><ele>601.0</ele><time>2026-04-04T08:40:58Z</time></trkpt><trkpt lat="45.61549188439814" lon="10.428920823862923"><ele>602.0</ele><time>2026-04-04T08:40:59Z</time></trkpt><trkpt lat="45.615594702667266" lon="10.428958499455383"><ele>603.0</ele><time>2026-04-04T08:41:00Z</time></trkpt><trkpt lat="45.61569717685474" lon="10.42898537159896"><ele>604.0</ele><time>2026-04-04T08:41:01Z</time></trkpt><trkpt lat="45.615789647880234" lon="10.429044941764541"><ele>605.0</ele><time>2026-04-04T08:41:02Z</time></trkpt><trkpt lat="45.61587791471904" lon="10.429103817401218"><ele>605.0</ele><time>2026-04-04T08:41:03Z</time></trkpt><trkpt lat="45.615956533018434" lon="10.429176027365271"><ele>605.0</ele><time>2026-04-04T08:41:04Z</time></trkpt><trkpt lat="45.61602572685216" lon="10.429247296655115"><ele>605.0</ele><time>2026-04-04T08:41:05Z</time></trkpt><trkpt lat="45.616083041573425" lon="10.429321453426244"><ele>605.0</ele><time>2026-04-04T08:41:06Z</time></trkpt><trkpt lat="45.61612399955299" lon="10.429405211204811"><ele>605.0</ele><time>2026-04-04T08:41:07Z</time></trkpt><trkpt lat="45.616176157094706" lon="10.429493482053049"><ele>605.0</ele><time>2026-04-04T08:41:08Z</time></trkpt><trkpt lat="45.616221194155166" lon="10.429590252517917"><ele>604.0</ele><time>2026-04-04T08:41:09Z</time></trkpt><trkpt lat="45.61626316954827" lon="10.42969776737333"><ele>603.0</ele><time>2026-04-04T08:41:10Z</time></trkpt><trkpt lat="45.61632796101906" lon="10.429788397623634"><ele>602.0</ele><time>2026-04-04T08:41:11Z</time></trkpt><trkpt lat="45.61641007600574" lon="10.429871183026037"><ele>601.0</ele><time>2026-04-04T08:41:12Z</time></trkpt><trkpt lat="45.61650191938717" lon="10.42994207064244"><ele>600.0</ele><time>2026-04-04T08:41:13Z</time></trkpt><trkpt lat="45.61660401313898" lon="10.429981964872395"><ele>600.0</ele><time>2026-04-04T08:41:14Z</time></trkpt><trkpt lat="45.61669900894717" lon="10.430054523900417"><ele>600.0</ele><time>2026-04-04T08:41:15Z</time></trkpt><trkpt lat="45.6168072552155" lon="10.430072817924296"><ele>600.0</ele><time>2026-04-04T08:41:16Z</time></trkpt><trkpt lat="45.616914830058846" lon="10.43011643678376"><ele>600.0</ele><time>2026-04-04T08:41:17Z</time></trkpt><trkpt lat="45.61701929044291" lon="10.430156923972548"><ele>600.0</ele><time>2026-04-04T08:41:18Z</time></trkpt><trkpt lat="45.617122294591674" lon="10.4301998965546"><ele>601.0</ele><time>2026-04-04T08:41:19Z</time></trkpt><trkpt lat="45.61722288208422" lon="10.430254656951641"><ele>602.0</ele><time>2026-04-04T08:41:20Z</time></trkpt><trkpt lat="45.6173137294899" lon="10.43033315474921"><ele>603.0</ele><time>2026-04-04T08:41:21Z</time></trkpt><trkpt lat="45.61739911520749" lon="10.430422467254111"><ele>604.0</ele><time>2026-04-04T08:41:22Z</time></trkpt><trkpt lat="45.61748950832109" lon="10.430516269498469"><ele>605.0</ele><time>2026-04-04T08:41:23Z</time></trkpt><trkpt lat="45.61756794786165" lon="10.430623864256813"><ele>605.0</ele><time>2026-04-04T08:41:24Z</time></trkpt><trkpt lat="45.617647620785306" lon="10.430720996485174"><ele>605.0</ele><time>2026-04-04T08:41:25Z</time></trkpt><trkpt lat="45.617726612458036" lon="10.430812293811492"><ele>605.0</ele><time>2026-04-04T08:41:26Z</time></trkpt><trkpt lat="45.617790839218614" lon="10.430920575212067"><ele>605.0</ele><time>2026-04-04T08:41:27Z</time></trkpt><trkpt lat="45.61785156768761" lon="10.431029203130567"><ele>605.0</ele><time>2026-04-04T08:41:28Z</time></trkpt><trkpt lat="45.61791745924607" lon="10.431138667820935"><ele>603.8</ele><time>2026-04-04T08:41:29Z</time></trkpt><trkpt lat="45.61798676645732" lon="10.431249294682267"><ele>602.6</ele><time>2026-04-04T08:41:30Z</time></trkpt><trkpt lat="45.6180614128843" lon="10.431359669215363"><ele>601.4</ele><time>2026-04-04T08:41:31Z</time></trkpt><trkpt lat="45.618134484915345" lon="10.431472151985364"><ele>600.2</ele><time>2026-04-04T08:41:32Z</time></trkpt><trkpt lat="45.61820949289008" lon="10.431579720199888"><ele>599.0</ele><time>2026-04-04T08:41:33Z</time></trkpt><trkpt lat="45.61828274461196" lon="10.431683538642627"><ele>599.0</ele><time>2026-04-04T08:41:34Z</time></trkpt><trkpt lat="45.61835402418453" lon="10.43178649390871"><ele>599.0</ele><time>2026-04-04T08:41:35Z</time></trkpt><trkpt lat="45.61841989664984" lon="10.431886777861969"><ele>599.0</ele><time>2026-04-04T08:41:36Z</time></trkpt><trkpt lat="45.61848035673043" lon="10.431984141434478"><ele>599.0</ele><time>2026-04-04T08:41:37Z</time></trkpt><trkpt lat="45.618532961207414" lon="10.432079544648943"><ele>599.0</ele><time>2026-04-04T08:41:38Z</time></trkpt><trkpt lat="45.61858071740554" lon="10.432164173304065"><ele>598.0</ele><time>2026-04-04T08:41:39Z</time></trkpt><trkpt lat="45.61862049717285" lon="10.432236665185545"><ele>597.0</ele><time>2026-04-04T08:41:40Z</time></trkpt><trkpt lat="45.61865927863874" lon="10.432316175310612"><ele>596.0</ele><time>2026-04-04T08:41:41Z</time></trkpt><trkpt lat="45.61868976382507" lon="10.43242229477655"><ele>595.0</ele><time>2026-04-04T08:41:42Z</time></trkpt><trkpt lat="45.61872747733083" lon="10.432516309535886"><ele>594.0</ele><time>2026-04-04T08:41:43Z</time></trkpt><trkpt lat="45.618715185853965" lon="10.432650645565104"><ele>593.0</ele><time>2026-04-04T08:41:44Z</time></trkpt><trkpt lat="45.61872087606946" lon="10.43277179827412"><ele>593.0</ele><time>2026-04-04T08:41:45Z</time></trkpt><trkpt lat="45.61871437797999" lon="10.43289136275846"><ele>593.0</ele><time>2026-04-04T08:41:46Z</time></trkpt><trkpt lat="45.618713276511166" lon="10.43301809754228"><ele>593.0</ele><time>2026-04-04T08:41:47Z</time></trkpt><trkpt lat="45.618690139188814" lon="10.43314262465128"><ele>593.0</ele><time>2026-04-04T08:41:48Z</time></trkpt><trkpt lat="45.618702718262895" lon="10.433271367423059"><ele>593.0</ele><time>2026-04-04T08:41:49Z</time></trkpt><trkpt lat="45.61872758229606" lon="10.433399001922995"><ele>593.0</ele><time>2026-04-04T08:41:49.999Z</time></trkpt><trkpt lat="45.61877097334721" lon="10.433517193569463"><ele>594.8</ele><time>2026-04-04T08:41:50.999Z</time></trkpt><trkpt lat="45.6188065160022" lon="10.433630851919593"><ele>596.5999999999999</ele><time>2026-04-04T08:41:51.999Z</time></trkpt><trkpt lat="45.61884018130985" lon="10.433751724084422"><ele>598.4000000000001</ele><time>2026-04-04T08:41:52.999Z</time></trkpt><trkpt lat="45.61887394096897" lon="10.433891272198755"><ele>600.2</ele><time>2026-04-04T08:41:53.999Z</time></trkpt><trkpt lat="45.61892227525574" lon="10.434022064244536"><ele>602.0</ele><time>2026-04-04T08:41:54.999Z</time></trkpt><trkpt lat="45.61898416376055" lon="10.43413866417391"><ele>604.8333333333333</ele><time>2026-04-04T08:41:55.999Z</time></trkpt><trkpt lat="45.61905778884938" lon="10.43423386177511"><ele>607.6666666666666</ele><time>2026-04-04T08:41:56.999Z</time></trkpt><trkpt lat="45.61912833827696" lon="10.434327621379543"><ele>610.5</ele><time>2026-04-04T08:41:57.999Z</time></trkpt><trkpt lat="45.61919087453441" lon="10.434418606208878"><ele>613.3333333333334</ele><time>2026-04-04T08:41:58.999Z</time></trkpt><trkpt lat="45.619237725582124" lon="10.434514474657588"><ele>616.1666666666667</ele><time>2026-04-04T08:41:59.999Z</time></trkpt><trkpt lat="45.619277909067904" lon="10.434614339727714"><ele>619.0</ele><time>2026-04-04T08:42:00.999Z</time></trkpt><trkpt lat="45.619301421507885" lon="10.434725179194038"><ele>617.8333333333334</ele><time>2026-04-04T08:42:01.999Z</time></trkpt><trkpt lat="45.619347071125546" lon="10.434831807407889"><ele>616.6666666666667</ele><time>2026-04-04T08:42:02.999Z</time></trkpt><trkpt lat="45.619412512795364" lon="10.434908235282581"><ele>615.5</ele><time>2026-04-04T08:42:03.999Z</time></trkpt><trkpt lat="45.61946111346642" lon="10.435025306136735"><ele>614.3333333333334</ele><time>2026-04-04T08:42:04.999Z</time></trkpt><trkpt lat="45.61952830733853" lon="10.435089295199676"><ele>613.1666666666666</ele><time>2026-04-04T08:42:05.999Z</time></trkpt><trkpt lat="45.619588702836104" lon="10.435151872887083"><ele>612.0</ele><time>2026-04-04T08:42:06.999Z</time></trkpt><trkpt lat="45.61965791651301" lon="10.43522418794497"><ele>612.0</ele><time>2026-04-04T08:42:07.999Z</time></trkpt><trkpt lat="45.61972775511987" lon="10.435321976589565"><ele>612.0</ele><time>2026-04-04T08:42:08.999Z</time></trkpt><trkpt lat="45.619787455443536" lon="10.435427443434289"><ele>612.0</ele><time>2026-04-04T08:42:09.999Z</time></trkpt><trkpt lat="45.61984246681643" lon="10.435540036708348"><ele>612.0</ele><time>2026-04-04T08:42:10.999Z</time></trkpt><trkpt lat="45.61988692400042" lon="10.435643806546194"><ele>612.0</ele><time>2026-04-04T08:42:11.999Z</time></trkpt><trkpt lat="45.61992785229693" lon="10.43574647677335"><ele>614.5</ele><time>2026-04-04T08:42:12.999Z</time></trkpt><trkpt lat="45.61997613751477" lon="10.435847448972279"><ele>617.0</ele><time>2026-04-04T08:42:13.999Z</time></trkpt><trkpt lat="45.620024792750016" lon="10.435952965163864"><ele>619.5</ele><time>2026-04-04T08:42:14.999Z</time></trkpt><trkpt lat="45.62007043107173" lon="10.436059317753163"><ele>622.0</ele><time>2026-04-04T08:42:15.999Z</time></trkpt><trkpt lat="45.62013200048333" lon="10.436149763138191"><ele>624.5</ele><time>2026-04-04T08:42:16.999Z</time></trkpt><trkpt lat="45.62017049074893" lon="10.436260730483992"><ele>627.0</ele><time>2026-04-04T08:42:17.999Z</time></trkpt><trkpt lat="45.62018007043706" lon="10.436389524973121"><ele>630.0</ele><time>2026-04-04T08:42:18.999Z</time></trkpt><trkpt lat="45.6201916781296" lon="10.436512559215135"><ele>633.0</ele><time>2026-04-04T08:42:19.999Z</time></trkpt><trkpt lat="45.620193572300394" lon="10.436637483329172"><ele>636.0</ele><time>2026-04-04T08:42:20.999Z</time></trkpt><trkpt lat="45.62020856606667" lon="10.436761638299966"><ele>639.0</ele><time>2026-04-04T08:42:21.999Z</time></trkpt><trkpt lat="45.62022786366038" lon="10.436878381464867"><ele>642.0</ele><time>2026-04-04T08:42:22.999Z</time></trkpt><trkpt lat="45.62026196084289" lon="10.436988046553578"><ele>645.0</ele><time>2026-04-04T08:42:23.999Z</time></trkpt><trkpt lat="45.620275274459345" lon="10.437112090741554"><ele>647.4</ele><time>2026-04-04T08:42:24.999Z</time></trkpt><trkpt lat="45.620306716886" lon="10.437234023165871"><ele>649.8</ele><time>2026-04-04T08:42:25.999Z</time></trkpt><trkpt lat="45.6203235286525" lon="10.437369862102141"><ele>652.2</ele><time>2026-04-04T08:42:26.999Z</time></trkpt><trkpt lat="45.62035212347474" lon="10.437509836736337"><ele>654.6</ele><time>2026-04-04T08:42:27.999Z</time></trkpt><trkpt lat="45.62039155064224" lon="10.437634028294509"><ele>657.0</ele><time>2026-04-04T08:42:28.999Z</time></trkpt><trkpt lat="45.62042767036039" lon="10.437753258673835"><ele>654.8</ele><time>2026-04-04T08:42:29.999Z</time></trkpt><trkpt lat="45.62046058800615" lon="10.437878735328015"><ele>652.6</ele><time>2026-04-04T08:42:30.999Z</time></trkpt><trkpt lat="45.620492395707956" lon="10.438019034323831"><ele>650.4</ele><time>2026-04-04T08:42:31.999Z</time></trkpt><trkpt lat="45.62052871476592" lon="10.438154338357863"><ele>648.1999999999999</ele><time>2026-04-04T08:42:32.999Z</time></trkpt><trkpt lat="45.62055593872288" lon="10.4382617053599"><ele>646.0</ele><time>2026-04-04T08:42:33.999Z</time></trkpt><trkpt lat="45.62060359772327" lon="10.438404194387251"><ele>646.0</ele><time>2026-04-04T08:42:35.999Z</time></trkpt><trkpt lat="45.62063593034782" lon="10.438482804259817"><ele>646.0</ele><time>2026-04-04T08:42:37.999Z</time></trkpt><trkpt lat="45.62075000069959" lon="10.43850260270888"><ele>646.0</ele><time>2026-04-04T08:42:56Z</time></trkpt><trkpt lat="45.620820232802174" lon="10.43853112915246"><ele>646.0</ele><time>2026-04-04T08:43:11Z</time></trkpt><trkpt lat="45.62089958442965" lon="10.438611809526737"><ele>646.0</ele><time>2026-04-04T08:43:13Z</time></trkpt><trkpt lat="45.620944387218266" lon="10.438678736716842"><ele>646.0</ele><time>2026-04-04T08:43:14Z</time></trkpt><trkpt lat="45.6209999717824" lon="10.438752404075617"><ele>644.0</ele><time>2026-04-04T08:43:15Z</time></trkpt><trkpt lat="45.621055737997295" lon="10.438828702251998"><ele>642.0</ele><time>2026-04-04T08:43:16Z</time></trkpt><trkpt lat="45.62111407802242" lon="10.438906296289149"><ele>640.0</ele><time>2026-04-04T08:43:17Z</time></trkpt><trkpt lat="45.621158249121684" lon="10.438992989491526"><ele>638.0</ele><time>2026-04-04T08:43:18Z</time></trkpt><trkpt lat="45.62120489700066" lon="10.439080336387285"><ele>636.0</ele><time>2026-04-04T08:43:19Z</time></trkpt><trkpt lat="45.62124353247437" lon="10.43916039995152"><ele>634.0</ele><time>2026-04-04T08:43:20Z</time></trkpt><trkpt lat="45.621300954958734" lon="10.439344074195272"><ele>634.0</ele><time>2026-04-04T08:43:22Z</time></trkpt><trkpt lat="45.62132839024654" lon="10.43942605364043"><ele>634.0</ele><time>2026-04-04T08:43:23Z</time></trkpt><trkpt lat="45.621361346027385" lon="10.439538869422947"><ele>634.0</ele><time>2026-04-04T08:43:24Z</time></trkpt><trkpt lat="45.62140298765896" lon="10.439664546565755"><ele>634.0</ele><time>2026-04-04T08:43:25Z</time></trkpt><trkpt lat="45.62143890247748" lon="10.439778430577773"><ele>634.0</ele><time>2026-04-04T08:43:26Z</time></trkpt><trkpt lat="45.62149080318019" lon="10.439874204285111"><ele>634.0</ele><time>2026-04-04T08:43:27Z</time></trkpt><trkpt lat="45.62152844461199" lon="10.439950071211781"><ele>636.2</ele><time>2026-04-04T08:43:29Z</time></trkpt><trkpt lat="45.621559434867805" lon="10.44007220024625"><ele>638.4</ele><time>2026-04-04T08:43:33Z</time></trkpt><trkpt lat="45.62156360267443" lon="10.440221244284128"><ele>640.6</ele><time>2026-04-04T08:43:35Z</time></trkpt><trkpt lat="45.62155520758621" lon="10.44031746369501"><ele>642.8</ele><time>2026-04-04T08:43:36Z</time></trkpt><trkpt lat="45.62163278968387" lon="10.440440027307647"><ele>645.0</ele><time>2026-04-04T08:43:38Z</time></trkpt><trkpt lat="45.62166716782601" lon="10.440528997739122"><ele>648.3333333333334</ele><time>2026-04-04T08:43:39Z</time></trkpt><trkpt lat="45.62169899556833" lon="10.440617709098085"><ele>651.6666666666666</ele><time>2026-04-04T08:43:40Z</time></trkpt><trkpt lat="45.62172689405007" lon="10.440706899642"><ele>655.0</ele><time>2026-04-04T08:43:41Z</time></trkpt><trkpt lat="45.621773396686265" lon="10.440858367471174"><ele>658.3333333333333</ele><time>2026-04-04T08:43:43Z</time></trkpt><trkpt lat="45.621835424256766" lon="10.4410112232731"><ele>661.6666666666666</ele><time>2026-04-04T08:43:45Z</time></trkpt><trkpt lat="45.62186709249692" lon="10.441102363449913"><ele>665.0</ele><time>2026-04-04T08:43:46Z</time></trkpt><trkpt lat="45.62189907159065" lon="10.441196128462797"><ele>665.0</ele><time>2026-04-04T08:43:47Z</time></trkpt><trkpt lat="45.62192609618303" lon="10.441281483160775"><ele>665.0</ele><time>2026-04-04T08:43:48Z</time></trkpt><trkpt lat="45.62195395152729" lon="10.44136276543711"><ele>665.0</ele><time>2026-04-04T08:43:48.999Z</time></trkpt><trkpt lat="45.622023816683566" lon="10.441501239999559"><ele>665.0</ele><time>2026-04-04T08:43:50.999Z</time></trkpt><trkpt lat="45.62206960484409" lon="10.441616267577462"><ele>665.0</ele><time>2026-04-04T08:43:51.999Z</time></trkpt><trkpt lat="45.62209747289139" lon="10.441734756731522"><ele>665.0</ele><time>2026-04-04T08:43:52.999Z</time></trkpt><trkpt lat="45.62216701170695" lon="10.441857892437154"><ele>665.5</ele><time>2026-04-04T08:43:54.999Z</time></trkpt><trkpt lat="45.62219617366562" lon="10.44200969248198"><ele>666.0</ele><time>2026-04-04T08:43:56.999Z</time></trkpt><trkpt lat="45.62222704182296" lon="10.442092108839784"><ele>666.5</ele><time>2026-04-04T08:43:57.999Z</time></trkpt><trkpt lat="45.622263131019054" lon="10.442185561748786"><ele>667.0</ele><time>2026-04-04T08:43:58.999Z</time></trkpt><trkpt lat="45.622284206228024" lon="10.442278857773825"><ele>667.5</ele><time>2026-04-04T08:43:59.999Z</time></trkpt><trkpt lat="45.62228961774668" lon="10.44240822493042"><ele>668.0</ele><time>2026-04-04T08:44:00.999Z</time></trkpt><trkpt lat="45.62229370231642" lon="10.442538104004974"><ele>668.0</ele><time>2026-04-04T08:44:01.999Z</time></trkpt><trkpt lat="45.622331752233215" lon="10.44266950068838"><ele>668.0</ele><time>2026-04-04T08:44:03.999Z</time></trkpt><trkpt lat="45.62238697259116" lon="10.442778986196585"><ele>668.0</ele><time>2026-04-04T08:44:05.999Z</time></trkpt><trkpt lat="45.62244357949218" lon="10.442825184140434"><ele>668.0</ele><time>2026-04-04T08:44:06.999Z</time></trkpt><trkpt lat="45.62252354082556" lon="10.442962009154659"><ele>668.0</ele><time>2026-04-04T08:44:08.999Z</time></trkpt><trkpt lat="45.6225510961875" lon="10.443055035971412"><ele>667.8</ele><time>2026-04-04T08:44:09.999Z</time></trkpt><trkpt lat="45.622599287098495" lon="10.443178735458401"><ele>667.5999999999999</ele><time>2026-04-04T08:44:11.999Z</time></trkpt><trkpt lat="45.622679357180715" lon="10.443337159715544"><ele>667.4000000000001</ele><time>2026-04-04T08:44:13.999Z</time></trkpt><trkpt lat="45.62272937743145" lon="10.44345359399035"><ele>667.2</ele><time>2026-04-04T08:44:14.999Z</time></trkpt><trkpt lat="45.622767511622406" lon="10.443562779878429"><ele>667.0</ele><time>2026-04-04T08:44:15.999Z</time></trkpt><trkpt lat="45.622819819103974" lon="10.443661676321511"><ele>667.0</ele><time>2026-04-04T08:44:16.999Z</time></trkpt><trkpt lat="45.62288793457562" lon="10.443755233731203"><ele>667.0</ele><time>2026-04-04T08:44:17.999Z</time></trkpt><trkpt lat="45.62293851520521" lon="10.443840412723723"><ele>667.0</ele><time>2026-04-04T08:44:18.999Z</time></trkpt><trkpt lat="45.62297852198142" lon="10.443929766440382"><ele>667.0</ele><time>2026-04-04T08:44:19.999Z</time></trkpt><trkpt lat="45.6230455970458" lon="10.444003972794457"><ele>667.0</ele><time>2026-04-04T08:44:20.999Z</time></trkpt><trkpt lat="45.623123695974236" lon="10.44408459283586"><ele>667.0</ele><time>2026-04-04T08:44:21.999Z</time></trkpt><trkpt lat="45.62320753653877" lon="10.444164182746308"><ele>669.7142857142858</ele><time>2026-04-04T08:44:22.999Z</time></trkpt><trkpt lat="45.62328282134821" lon="10.444220308096105"><ele>672.4285714285714</ele><time>2026-04-04T08:44:23.999Z</time></trkpt><trkpt lat="45.623341738101956" lon="10.444260276088883"><ele>675.1428571428571</ele><time>2026-04-04T08:44:24.999Z</time></trkpt><trkpt lat="45.623408663583305" lon="10.444333334215013"><ele>677.8571428571429</ele><time>2026-04-04T08:44:26.999Z</time></trkpt><trkpt lat="45.6234670288909" lon="10.444374137219182"><ele>680.5714285714286</ele><time>2026-04-04T08:44:27.999Z</time></trkpt><trkpt lat="45.623534215287776" lon="10.444429158076195"><ele>683.2857142857143</ele><time>2026-04-04T08:44:28.999Z</time></trkpt><trkpt lat="45.62359762721384" lon="10.444451137363156"><ele>686.0</ele><time>2026-04-04T08:44:29.999Z</time></trkpt><trkpt lat="45.623661803832086" lon="10.444431805944177"><ele>686.0</ele><time>2026-04-04T08:44:30.999Z</time></trkpt><trkpt lat="45.623743065561605" lon="10.444413977294223"><ele>686.0</ele><time>2026-04-04T08:44:31.999Z</time></trkpt><trkpt lat="45.623859154525924" lon="10.444459303609294"><ele>686.0</ele><time>2026-04-04T08:44:33.999Z</time></trkpt><trkpt lat="45.62392459380809" lon="10.444497747689622"><ele>686.0</ele><time>2026-04-04T08:44:34.999Z</time></trkpt><trkpt lat="45.62398893498889" lon="10.444413931663316"><ele>686.0</ele><time>2026-04-04T08:44:36.999Z</time></trkpt><trkpt lat="45.62410833458081" lon="10.44431957496809"><ele>686.0</ele><time>2026-04-04T08:44:38.999Z</time></trkpt><trkpt lat="45.62417275315201" lon="10.44432088177962"><ele>686.0</ele><time>2026-04-04T08:44:39.999Z</time></trkpt><trkpt lat="45.62424871934581" lon="10.444336232021005"><ele>686.0</ele><time>2026-04-04T08:44:42.999Z</time></trkpt><trkpt lat="45.624294460302025" lon="10.444264035212182"><ele>686.0</ele><time>2026-04-04T08:46:13.999Z</time></trkpt><trkpt lat="45.624359156927255" lon="10.444260786893294"><ele>686.0</ele><time>2026-04-04T08:46:48.999Z</time></trkpt><trkpt lat="45.624443566235975" lon="10.444245083891946"><ele>686.0</ele><time>2026-04-04T08:46:55Z</time></trkpt><trkpt lat="45.62455656471984" lon="10.444243378859728"><ele>685.5714285714286</ele><time>2026-04-04T08:46:57Z</time></trkpt><trkpt lat="45.624632352895894" lon="10.444277921436273"><ele>685.1428571428571</ele><time>2026-04-04T08:47:00Z</time></trkpt><trkpt lat="45.62469961059111" lon="10.444309968594126"><ele>684.7142857142858</ele><time>2026-04-04T08:47:05Z</time></trkpt><trkpt lat="45.62475768300522" lon="10.444368918055508"><ele>684.2857142857142</ele><time>2026-04-04T08:47:17Z</time></trkpt><trkpt lat="45.62479106123832" lon="10.44446063070287"><ele>683.8571428571429</ele><time>2026-04-04T08:47:23.999Z</time></trkpt><trkpt lat="45.62481703956969" lon="10.44454615105321"><ele>683.4285714285714</ele><time>2026-04-04T08:47:26.999Z</time></trkpt><trkpt lat="45.6248476993898" lon="10.444643610045164"><ele>683.0</ele><time>2026-04-04T08:47:35.999Z</time></trkpt><trkpt lat="45.62487312940651" lon="10.444734862448476"><ele>686.6666666666666</ele><time>2026-04-04T08:48:34.998Z</time></trkpt><trkpt lat="45.62492359688785" lon="10.444884336870048"><ele>690.3333333333333</ele><time>2026-04-04T08:48:37.998Z</time></trkpt><trkpt lat="45.62494919966116" lon="10.444969368387426"><ele>694.0</ele><time>2026-04-04T08:48:38.998Z</time></trkpt><trkpt lat="45.62498541942998" lon="10.445048149227993"><ele>697.6666666666666</ele><time>2026-04-04T08:48:39.998Z</time></trkpt><trkpt lat="45.625044382022466" lon="10.445119046248646"><ele>701.3333333333334</ele><time>2026-04-04T08:48:40.998Z</time></trkpt><trkpt lat="45.625111780561845" lon="10.445213307027089"><ele>705.0</ele><time>2026-04-04T08:48:41.998Z</time></trkpt><trkpt lat="45.62516284962809" lon="10.445300267521972"><ele>705.0</ele><time>2026-04-04T08:48:42.998Z</time></trkpt><trkpt lat="45.62522071456127" lon="10.445398222650647"><ele>705.0</ele><time>2026-04-04T08:48:43.998Z</time></trkpt><trkpt lat="45.62527133462948" lon="10.445483842098154"><ele>705.0</ele><time>2026-04-04T08:48:44.998Z</time></trkpt><trkpt lat="45.62531102881677" lon="10.445573012509756"><ele>705.0</ele><time>2026-04-04T08:48:45.998Z</time></trkpt><trkpt lat="45.62535087021009" lon="10.44567143277286"><ele>705.0</ele><time>2026-04-04T08:48:46.998Z</time></trkpt><trkpt lat="45.62539233134669" lon="10.44576813999429"><ele>705.0</ele><time>2026-04-04T08:48:47.998Z</time></trkpt><trkpt lat="45.62542869331247" lon="10.445842446726626"><ele>704.0</ele><time>2026-04-04T08:48:48.998Z</time></trkpt><trkpt lat="45.625372106608076" lon="10.445993847470016"><ele>703.0</ele><time>2026-04-04T08:48:56.998Z</time></trkpt><trkpt lat="45.62535803798963" lon="10.446095143523465"><ele>702.0</ele><time>2026-04-04T08:49:00.999Z</time></trkpt><trkpt lat="45.625305044148995" lon="10.446170240824596"><ele>701.0</ele><time>2026-04-04T08:49:03.999Z</time></trkpt><trkpt lat="45.62525437314121" lon="10.446235397379821"><ele>700.0</ele><time>2026-04-04T08:49:07.999Z</time></trkpt><trkpt lat="45.62528661898639" lon="10.446354299939424"><ele>699.0</ele><time>2026-04-04T08:49:11Z</time></trkpt><trkpt lat="45.62530450769055" lon="10.446448860312461"><ele>699.0</ele><time>2026-04-04T08:49:19Z</time></trkpt><trkpt lat="45.62523338186129" lon="10.446460486675692"><ele>699.0</ele><time>2026-04-04T08:49:22Z</time></trkpt><trkpt lat="45.62514802995785" lon="10.446497426102077"><ele>699.0</ele><time>2026-04-04T08:49:25Z</time></trkpt><trkpt lat="45.625083728148226" lon="10.446563880255908"><ele>699.0</ele><time>2026-04-04T08:49:27Z</time></trkpt><trkpt lat="45.62503196852567" lon="10.446623218662932"><ele>699.0</ele><time>2026-04-04T08:49:29Z</time></trkpt><trkpt lat="45.62497847526444" lon="10.44670148008719"><ele>699.0</ele><time>2026-04-04T08:49:32Z</time></trkpt><trkpt lat="45.624944790871325" lon="10.4467975130831"><ele>699.0</ele><time>2026-04-04T08:49:33Z</time></trkpt><trkpt lat="45.62488463363369" lon="10.44688524845736"><ele>699.0</ele><time>2026-04-04T08:49:35Z</time></trkpt><trkpt lat="45.62479753876642" lon="10.446955438975174"><ele>699.0</ele><time>2026-04-04T08:49:37Z</time></trkpt><trkpt lat="45.624715609197395" lon="10.447018514298488"><ele>699.0</ele><time>2026-04-04T08:49:41Z</time></trkpt><trkpt lat="45.62465473243358" lon="10.44708178545946"><ele>699.0</ele><time>2026-04-04T08:49:45Z</time></trkpt><trkpt lat="45.62455306834421" lon="10.447112102365038"><ele>693.6</ele><time>2026-04-04T08:49:50Z</time></trkpt><trkpt lat="45.62453483618661" lon="10.44720663185475"><ele>688.2</ele><time>2026-04-04T08:49:53Z</time></trkpt><trkpt lat="45.62454091334709" lon="10.447356662042953"><ele>682.8000000000001</ele><time>2026-04-04T08:49:56Z</time></trkpt><trkpt lat="45.624558162426105" lon="10.447479751424185"><ele>677.4000000000001</ele><time>2026-04-04T08:49:57Z</time></trkpt><trkpt lat="45.624558440447885" lon="10.44759609253357"><ele>672.0</ele><time>2026-04-04T08:49:58Z</time></trkpt><trkpt lat="45.624580731124844" lon="10.447783418573618"><ele>672.0</ele><time>2026-04-04T08:50:00Z</time></trkpt><trkpt lat="45.624604870810444" lon="10.44791895880057"><ele>672.0</ele><time>2026-04-04T08:50:01Z</time></trkpt><trkpt lat="45.62463885355507" lon="10.44802695974917"><ele>672.0</ele><time>2026-04-04T08:50:02Z</time></trkpt><trkpt lat="45.6246436838573" lon="10.448137246370989"><ele>672.0</ele><time>2026-04-04T08:50:04Z</time></trkpt><trkpt lat="45.624569207748564" lon="10.44825873993169"><ele>672.0</ele><time>2026-04-04T08:50:05.999Z</time></trkpt><trkpt lat="45.62452261868737" lon="10.448334352229361"><ele>672.0</ele><time>2026-04-04T08:50:06.999Z</time></trkpt><trkpt lat="45.624483455694225" lon="10.448411102995726"><ele>678.0</ele><time>2026-04-04T08:50:07.999Z</time></trkpt><trkpt lat="45.624477624581836" lon="10.448558477322681"><ele>684.0</ele><time>2026-04-04T08:50:09.999Z</time></trkpt><trkpt lat="45.62445856379887" lon="10.448679161852723"><ele>690.0</ele><time>2026-04-04T08:50:11.999Z</time></trkpt><trkpt lat="45.6244436754067" lon="10.448898713948534"><ele>696.0</ele><time>2026-04-04T08:50:12.999Z</time></trkpt><trkpt lat="45.62441571895496" lon="10.449000226178642"><ele>702.0</ele><time>2026-04-04T08:50:14.999Z</time></trkpt><trkpt lat="45.624453101334964" lon="10.449158716121572"><ele>694.0</ele><time>2026-04-04T08:50:16.999Z</time></trkpt><trkpt lat="45.62448318711559" lon="10.449241397117618"><ele>686.0</ele><time>2026-04-04T08:50:17.999Z</time></trkpt><trkpt lat="45.624523739558434" lon="10.449358320002153"><ele>678.0</ele><time>2026-04-04T08:50:18.999Z</time></trkpt><trkpt lat="45.624561164627785" lon="10.44948305536237"><ele>670.0</ele><time>2026-04-04T08:50:19.999Z</time></trkpt><trkpt lat="45.62457112489106" lon="10.449597120819826"><ele>662.0</ele><time>2026-04-04T08:50:20.999Z</time></trkpt><trkpt lat="45.62458179041596" lon="10.44970404237372"><ele>654.0</ele><time>2026-04-04T08:50:21.999Z</time></trkpt><trkpt lat="45.624575876545286" lon="10.449812497228303"><ele>654.0</ele><time>2026-04-04T08:50:22.999Z</time></trkpt><trkpt lat="45.62457424585726" lon="10.449943883987546"><ele>654.0</ele><time>2026-04-04T08:50:23.999Z</time></trkpt><trkpt lat="45.624584833803" lon="10.450069246132104"><ele>654.0</ele><time>2026-04-04T08:50:24.999Z</time></trkpt><trkpt lat="45.62460628038584" lon="10.450208980016154"><ele>654.0</ele><time>2026-04-04T08:50:25.999Z</time></trkpt><trkpt lat="45.62461176759666" lon="10.450355211637932"><ele>654.0</ele><time>2026-04-04T08:50:26.999Z</time></trkpt><trkpt lat="45.62461077221832" lon="10.450509646552437"><ele>654.1666666666666</ele><time>2026-04-04T08:50:27.999Z</time></trkpt><trkpt lat="45.62460616319637" lon="10.450646800921273"><ele>654.3333333333334</ele><time>2026-04-04T08:50:28.999Z</time></trkpt><trkpt lat="45.62461331106061" lon="10.450749591100264"><ele>654.5</ele><time>2026-04-04T08:50:29.999Z</time></trkpt><trkpt lat="45.624644404125675" lon="10.450842006578933"><ele>654.6666666666667</ele><time>2026-04-04T08:50:30.999Z</time></trkpt><trkpt lat="45.624695752852034" lon="10.450938553137131"><ele>654.8333333333334</ele><time>2026-04-04T08:50:31.999Z</time></trkpt><trkpt lat="45.62473673465486" lon="10.451049113932639"><ele>655.0</ele><time>2026-04-04T08:50:32.999Z</time></trkpt><trkpt lat="45.62477279084786" lon="10.451183505610908"><ele>651.25</ele><time>2026-04-04T08:50:33.999Z</time></trkpt><trkpt lat="45.62480327333422" lon="10.451302751749262"><ele>647.5</ele><time>2026-04-04T08:50:34.999Z</time></trkpt><trkpt lat="45.62480767955781" lon="10.45146018371763"><ele>643.75</ele><time>2026-04-04T08:50:36.999Z</time></trkpt><trkpt lat="45.62463497948914" lon="10.45154107956381"><ele>640.0</ele><time>2026-04-04T08:50:38.999Z</time></trkpt><trkpt lat="45.62458181059981" lon="10.451608697928068"><ele>640.0</ele><time>2026-04-04T08:50:39.999Z</time></trkpt><trkpt lat="45.62450499512188" lon="10.451670294054999"><ele>640.0</ele><time>2026-04-04T08:50:40.999Z</time></trkpt><trkpt lat="45.624402365978675" lon="10.451738563008119"><ele>640.0</ele><time>2026-04-04T08:50:41.999Z</time></trkpt><trkpt lat="45.62432877962355" lon="10.451807508825276"><ele>640.0</ele><time>2026-04-04T08:50:42.999Z</time></trkpt><trkpt lat="45.624257813708994" lon="10.45187792417741"><ele>640.0</ele><time>2026-04-04T08:50:43.999Z</time></trkpt><trkpt lat="45.62417378818633" lon="10.451932331700874"><ele>643.8333333333334</ele><time>2026-04-04T08:50:44.999Z</time></trkpt><trkpt lat="45.62410035261439" lon="10.451963856366664"><ele>647.6666666666667</ele><time>2026-04-04T08:50:45.999Z</time></trkpt><trkpt lat="45.624099707812064" lon="10.45209873314322"><ele>651.5</ele><time>2026-04-04T08:50:48.999Z</time></trkpt><trkpt lat="45.62415373206786" lon="10.452226464986122"><ele>655.3333333333334</ele><time>2026-04-04T08:50:49.999Z</time></trkpt><trkpt lat="45.62417829908604" lon="10.45235270582641"><ele>659.1666666666666</ele><time>2026-04-04T08:50:50.999Z</time></trkpt><trkpt lat="45.62416965284734" lon="10.452448856632262"><ele>663.0</ele><time>2026-04-04T08:50:51.999Z</time></trkpt><trkpt lat="45.62409718742722" lon="10.452542309512287"><ele>663.0</ele><time>2026-04-04T08:50:53.999Z</time></trkpt><trkpt lat="45.62396934375037" lon="10.452483602678315"><ele>663.0</ele><time>2026-04-04T08:50:55.999Z</time></trkpt><trkpt lat="45.6238720264386" lon="10.452657581588529"><ele>663.0</ele><time>2026-04-04T08:50:58.999Z</time></trkpt><trkpt lat="45.62379628106994" lon="10.452674688399968"><ele>663.0</ele><time>2026-04-04T08:50:59.999Z</time></trkpt><trkpt lat="45.623772482313356" lon="10.4528063136227"><ele>663.0</ele><time>2026-04-04T08:51:01.999Z</time></trkpt><trkpt lat="45.623834887831606" lon="10.452941263433729"><ele>663.0</ele><time>2026-04-04T08:51:02.999Z</time></trkpt><trkpt lat="45.623877741534585" lon="10.453048836192195"><ele>663.0</ele><time>2026-04-04T08:51:03.999Z</time></trkpt><trkpt lat="45.623882892244886" lon="10.453154553322646"><ele>663.0</ele><time>2026-04-04T08:51:04.999Z</time></trkpt><trkpt lat="45.62388800090685" lon="10.453271127422425"><ele>663.0</ele><time>2026-04-04T08:51:05.999Z</time></trkpt><trkpt lat="45.62387968427226" lon="10.453391836067691"><ele>663.0</ele><time>2026-04-04T08:51:07Z</time></trkpt><trkpt lat="45.62387686567389" lon="10.453501664026264"><ele>662.1666666666666</ele><time>2026-04-04T08:51:08Z</time></trkpt><trkpt lat="45.62384746179169" lon="10.453618445233621"><ele>661.3333333333334</ele><time>2026-04-04T08:51:09Z</time></trkpt><trkpt lat="45.62380014167371" lon="10.453736098213536"><ele>660.5</ele><time>2026-04-04T08:51:10Z</time></trkpt><trkpt lat="45.623735013735924" lon="10.453831727132393"><ele>659.6666666666667</ele><time>2026-04-04T08:51:11Z</time></trkpt><trkpt lat="45.62367711643314" lon="10.453921249679986"><ele>658.8333333333334</ele><time>2026-04-04T08:51:12Z</time></trkpt><trkpt lat="45.62365476064916" lon="10.4540260128769"><ele>658.0</ele><time>2026-04-04T08:51:13Z</time></trkpt><trkpt lat="45.62368505829709" lon="10.454136062715365"><ele>656.5</ele><time>2026-04-04T08:51:14Z</time></trkpt><trkpt lat="45.62368492919098" lon="10.45423148303943"><ele>655.0</ele><time>2026-04-04T08:51:15Z</time></trkpt><trkpt lat="45.6236503205083" lon="10.454334892398084"><ele>653.5</ele><time>2026-04-04T08:51:16Z</time></trkpt><trkpt lat="45.623622200858655" lon="10.45444110044273"><ele>652.0</ele><time>2026-04-04T08:51:17Z</time></trkpt><trkpt lat="45.62357463605145" lon="10.454547067323892"><ele>650.5</ele><time>2026-04-04T08:51:18Z</time></trkpt><trkpt lat="45.623519285188685" lon="10.454698464437282"><ele>649.0</ele><time>2026-04-04T08:51:20Z</time></trkpt><trkpt lat="45.62347030366474" lon="10.454856439515009"><ele>646.8333333333334</ele><time>2026-04-04T08:51:22Z</time></trkpt><trkpt lat="45.6234827682764" lon="10.45497887913388"><ele>644.6666666666667</ele><time>2026-04-04T08:51:23Z</time></trkpt><trkpt lat="45.623514438324094" lon="10.455100687360467"><ele>642.5</ele><time>2026-04-04T08:51:24Z</time></trkpt><trkpt lat="45.623538704297985" lon="10.455243166015535"><ele>640.3333333333334</ele><time>2026-04-04T08:51:25Z</time></trkpt><trkpt lat="45.62356482208727" lon="10.455359888640801"><ele>638.1666666666666</ele><time>2026-04-04T08:51:26Z</time></trkpt><trkpt lat="45.623612878605265" lon="10.455452067908285"><ele>636.0</ele><time>2026-04-04T08:51:27Z</time></trkpt><trkpt lat="45.62365680004228" lon="10.455582200559089"><ele>636.0</ele><time>2026-04-04T08:51:28Z</time></trkpt><trkpt lat="45.6236666546277" lon="10.455679579673273"><ele>636.0</ele><time>2026-04-04T08:51:29Z</time></trkpt><trkpt lat="45.6236603271445" lon="10.455772965820245"><ele>636.0</ele><time>2026-04-04T08:51:31Z</time></trkpt><trkpt lat="45.623597475817554" lon="10.455848162569865"><ele>636.0</ele><time>2026-04-04T08:51:34Z</time></trkpt><trkpt lat="45.62351489987029" lon="10.455911456491396"><ele>636.0</ele><time>2026-04-04T08:51:36Z</time></trkpt><trkpt lat="45.623449509174776" lon="10.455966593249496"><ele>636.0</ele><time>2026-04-04T08:51:37Z</time></trkpt><trkpt lat="45.623357461183375" lon="10.456043688812297"><ele>640.8</ele><time>2026-04-04T08:51:39Z</time></trkpt><trkpt lat="45.62324967112404" lon="10.456089799346024"><ele>645.6</ele><time>2026-04-04T08:51:41Z</time></trkpt><trkpt lat="45.62319714596898" lon="10.456151083790198"><ele>650.4</ele><time>2026-04-04T08:51:42Z</time></trkpt><trkpt lat="45.623222414858894" lon="10.456315648943436"><ele>655.2</ele><time>2026-04-04T08:51:44Z</time></trkpt><trkpt lat="45.62322744313111" lon="10.456456841016132"><ele>660.0</ele><time>2026-04-04T08:51:45Z</time></trkpt><trkpt lat="45.62321415770718" lon="10.456598400165198"><ele>660.0</ele><time>2026-04-04T08:51:46Z</time></trkpt><trkpt lat="45.62320728219179" lon="10.456757586480782"><ele>660.0</ele><time>2026-04-04T08:51:47Z</time></trkpt><trkpt lat="45.623213888949905" lon="10.456895395521114"><ele>660.0</ele><time>2026-04-04T08:51:48Z</time></trkpt><trkpt lat="45.62322859692978" lon="10.456988708206893"><ele>660.0</ele><time>2026-04-04T08:51:49Z</time></trkpt><trkpt lat="45.62319813598024" lon="10.457140955272498"><ele>660.0</ele><time>2026-04-04T08:51:51Z</time></trkpt><trkpt lat="45.62315229621314" lon="10.457259885690396"><ele>660.0</ele><time>2026-04-04T08:51:52Z</time></trkpt><trkpt lat="45.623122594701485" lon="10.457351289078922"><ele>660.0</ele><time>2026-04-04T08:51:53Z</time></trkpt><trkpt lat="45.62314404301064" lon="10.457508388883044"><ele>660.0</ele><time>2026-04-04T08:51:55Z</time></trkpt><trkpt lat="45.623198240605596" lon="10.457565253515789"><ele>660.0</ele><time>2026-04-04T08:51:56Z</time></trkpt><trkpt lat="45.62325621073177" lon="10.457621114672657"><ele>660.0</ele><time>2026-04-04T08:51:57Z</time></trkpt><trkpt lat="45.623289878664536" lon="10.457711286702573"><ele>660.0</ele><time>2026-04-04T08:51:58Z</time></trkpt><trkpt lat="45.62331568077719" lon="10.457816804731703"><ele>660.0</ele><time>2026-04-04T08:51:59Z</time></trkpt><trkpt lat="45.62333156803157" lon="10.45793478946449"><ele>660.0</ele><time>2026-04-04T08:52:00Z</time></trkpt><trkpt lat="45.62329648543171" lon="10.458066752539963"><ele>660.0</ele><time>2026-04-04T08:52:02Z</time></trkpt><trkpt lat="45.62326950580449" lon="10.458152793443015"><ele>660.0</ele><time>2026-04-04T08:52:03Z</time></trkpt><trkpt lat="45.6232127280686" lon="10.458246040110728"><ele>660.0</ele><time>2026-04-04T08:52:04Z</time></trkpt><trkpt lat="45.62317696039855" lon="10.458326490413278"><ele>660.0</ele><time>2026-04-04T08:52:05Z</time></trkpt><trkpt lat="45.623228301339594" lon="10.458480982572512"><ele>660.4</ele><time>2026-04-04T08:52:07Z</time></trkpt><trkpt lat="45.62327773913678" lon="10.458611041014672"><ele>660.8</ele><time>2026-04-04T08:52:08Z</time></trkpt><trkpt lat="45.623259424108916" lon="10.45879000788911"><ele>661.2</ele><time>2026-04-04T08:52:08.999Z</time></trkpt><trkpt lat="45.62329935592646" lon="10.458950585647948"><ele>661.6</ele><time>2026-04-04T08:52:09.999Z</time></trkpt><trkpt lat="45.62332065102873" lon="10.459068381546558"><ele>662.0</ele><time>2026-04-04T08:52:10.999Z</time></trkpt><trkpt lat="45.623334169289926" lon="10.45916898029091"><ele>662.1666666666666</ele><time>2026-04-04T08:52:11.999Z</time></trkpt><trkpt lat="45.62334685274651" lon="10.459286808304064"><ele>662.3333333333333</ele><time>2026-04-04T08:52:12.999Z</time></trkpt><trkpt lat="45.623349572942644" lon="10.459395456886263"><ele>662.5</ele><time>2026-04-04T08:52:13.999Z</time></trkpt><trkpt lat="45.62326686112211" lon="10.45952721672598"><ele>662.6666666666666</ele><time>2026-04-04T08:52:15.999Z</time></trkpt><trkpt lat="45.62322721567661" lon="10.459598413232122"><ele>662.8333333333334</ele><time>2026-04-04T08:52:16.999Z</time></trkpt><trkpt lat="45.623186577037586" lon="10.459700044498474"><ele>663.0</ele><time>2026-04-04T08:52:17.999Z</time></trkpt><trkpt lat="45.62311266907998" lon="10.459803267676465"><ele>662.4</ele><time>2026-04-04T08:52:19.999Z</time></trkpt><trkpt lat="45.623014026941775" lon="10.459906766276058"><ele>661.8</ele><time>2026-04-04T08:52:21.999Z</time></trkpt><trkpt lat="45.6229835331056" lon="10.460047783117075"><ele>661.2</ele><time>2026-04-04T08:52:23.999Z</time></trkpt><trkpt lat="45.62301219345515" lon="10.460128445819288"><ele>660.6</ele><time>2026-04-04T08:52:24.999Z</time></trkpt><trkpt lat="45.62305514956011" lon="10.460225457617506"><ele>660.0</ele><time>2026-04-04T08:52:25.999Z</time></trkpt><trkpt lat="45.623125428596275" lon="10.460369406779614"><ele>659.8</ele><time>2026-04-04T08:52:27.999Z</time></trkpt><trkpt lat="45.623188503121675" lon="10.460589452049515"><ele>659.6</ele><time>2026-04-04T08:52:29.999Z</time></trkpt><trkpt lat="45.62320816542881" lon="10.46070097443264"><ele>659.4000000000001</ele><time>2026-04-04T08:52:31.999Z</time></trkpt><trkpt lat="45.62323697423696" lon="10.460857718402945"><ele>659.2</ele><time>2026-04-04T08:52:34.999Z</time></trkpt><trkpt lat="45.62320329980139" lon="10.460950082304379"><ele>659.0</ele><time>2026-04-04T08:52:35.999Z</time></trkpt><trkpt lat="45.623231168352866" lon="10.461053174236435"><ele>659.0</ele><time>2026-04-04T08:52:36.999Z</time></trkpt><trkpt lat="45.62325911019269" lon="10.461145198427657"><ele>659.0</ele><time>2026-04-04T08:52:37.999Z</time></trkpt><trkpt lat="45.62328138845745" lon="10.461244572611816"><ele>659.0</ele><time>2026-04-04T08:52:38.999Z</time></trkpt><trkpt lat="45.62327053908895" lon="10.461345232845895"><ele>659.0</ele><time>2026-04-04T08:52:39.999Z</time></trkpt><trkpt lat="45.62326689890652" lon="10.461443650258248"><ele>659.0</ele><time>2026-04-04T08:52:40.999Z</time></trkpt><trkpt lat="45.62327692732366" lon="10.461570030386412"><ele>659.0</ele><time>2026-04-04T08:52:41.999Z</time></trkpt><trkpt lat="45.623312526385064" lon="10.461679763726218"><ele>660.5</ele><time>2026-04-04T08:52:42.999Z</time></trkpt><trkpt lat="45.62336147874481" lon="10.461793205252159"><ele>662.0</ele><time>2026-04-04T08:52:43.999Z</time></trkpt><trkpt lat="45.623390315718005" lon="10.461910802556845"><ele>663.5</ele><time>2026-04-04T08:52:44.999Z</time></trkpt><trkpt lat="45.623416995832365" lon="10.462031098132494"><ele>665.0</ele><time>2026-04-04T08:52:45.999Z</time></trkpt><trkpt lat="45.62343001979016" lon="10.462166964659291"><ele>666.5</ele><time>2026-04-04T08:52:46.999Z</time></trkpt><trkpt lat="45.62341330425072" lon="10.462274189470286"><ele>668.0</ele><time>2026-04-04T08:52:47.999Z</time></trkpt><trkpt lat="45.62339907733264" lon="10.462439066765345"><ele>669.6666666666666</ele><time>2026-04-04T08:52:49.999Z</time></trkpt><trkpt lat="45.623440100907466" lon="10.462582320180534"><ele>671.3333333333333</ele><time>2026-04-04T08:52:51.999Z</time></trkpt><trkpt lat="45.62349130967535" lon="10.462665092115577"><ele>673.0</ele><time>2026-04-04T08:52:52.999Z</time></trkpt><trkpt lat="45.62353786784259" lon="10.462740931839962"><ele>674.6666666666666</ele><time>2026-04-04T08:52:53.999Z</time></trkpt><trkpt lat="45.62360763468113" lon="10.462766095915216"><ele>676.3333333333334</ele><time>2026-04-04T08:52:54.999Z</time></trkpt><trkpt lat="45.62367702905994" lon="10.462777840891478"><ele>678.0</ele><time>2026-04-04T08:52:55.999Z</time></trkpt><trkpt lat="45.623699183219394" lon="10.462915046302749"><ele>670.4</ele><time>2026-04-04T08:52:57.999Z</time></trkpt><trkpt lat="45.62368806535488" lon="10.463011199489888"><ele>662.8</ele><time>2026-04-04T08:52:58.999Z</time></trkpt><trkpt lat="45.62366916109634" lon="10.463196138545875"><ele>655.2</ele><time>2026-04-04T08:53:00.999Z</time></trkpt><trkpt lat="45.62368950161732" lon="10.463381250204936"><ele>647.6</ele><time>2026-04-04T08:53:02.999Z</time></trkpt><trkpt lat="45.62365057271474" lon="10.463481340987268"><ele>640.0</ele><time>2026-04-04T08:53:03.999Z</time></trkpt><trkpt lat="45.623690160675466" lon="10.463598742213268"><ele>640.0</ele><time>2026-04-04T08:53:04.999Z</time></trkpt><trkpt lat="45.62373705747251" lon="10.46369526299349"><ele>640.0</ele><time>2026-04-04T08:53:05.999Z</time></trkpt><trkpt lat="45.62384746442513" lon="10.463819501320835"><ele>640.0</ele><time>2026-04-04T08:53:07.999Z</time></trkpt><trkpt lat="45.623926738497666" lon="10.463868131823936"><ele>640.0</ele><time>2026-04-04T08:53:08.999Z</time></trkpt><trkpt lat="45.62398046541087" lon="10.463923609915676"><ele>640.0</ele><time>2026-04-04T08:53:09.999Z</time></trkpt><trkpt lat="45.62399085363044" lon="10.464077124561449"><ele>642.5714285714286</ele><time>2026-04-04T08:53:11.999Z</time></trkpt><trkpt lat="45.62396564948788" lon="10.464160497907125"><ele>645.1428571428571</ele><time>2026-04-04T08:53:13Z</time></trkpt><trkpt lat="45.62395519886078" lon="10.464260116681903"><ele>647.7142857142858</ele><time>2026-04-04T08:53:14Z</time></trkpt><trkpt lat="45.623977180153226" lon="10.46435289321126"><ele>650.2857142857142</ele><time>2026-04-04T08:53:15Z</time></trkpt><trkpt lat="45.62398936336231" lon="10.464455902658827"><ele>652.8571428571429</ele><time>2026-04-04T08:53:16Z</time></trkpt><trkpt lat="45.62401022597141" lon="10.464567826179616"><ele>655.4285714285714</ele><time>2026-04-04T08:53:17Z</time></trkpt><trkpt lat="45.6240297900956" lon="10.464666864434053"><ele>658.0</ele><time>2026-04-04T08:53:18Z</time></trkpt><trkpt lat="45.62403392423767" lon="10.464762626114888"><ele>660.8</ele><time>2026-04-04T08:53:19Z</time></trkpt><trkpt lat="45.624058519134564" lon="10.464867840947706"><ele>663.5999999999999</ele><time>2026-04-04T08:53:20Z</time></trkpt><trkpt lat="45.62410421178259" lon="10.464985056864675"><ele>666.4000000000001</ele><time>2026-04-04T08:53:21Z</time></trkpt><trkpt lat="45.62412286647602" lon="10.465084983427015"><ele>669.2</ele><time>2026-04-04T08:53:22Z</time></trkpt><trkpt lat="45.62415817342626" lon="10.465249824215878"><ele>672.0</ele><time>2026-04-04T08:53:24Z</time></trkpt><trkpt lat="45.62420146479186" lon="10.465386372967034"><ele>674.8333333333334</ele><time>2026-04-04T08:53:26Z</time></trkpt><trkpt lat="45.624259060503356" lon="10.46546074610506"><ele>677.6666666666666</ele><time>2026-04-04T08:53:27Z</time></trkpt><trkpt lat="45.624312061931946" lon="10.465533867272667"><ele>680.5</ele><time>2026-04-04T08:53:28Z</time></trkpt><trkpt lat="45.62434330520469" lon="10.465671327923411"><ele>683.3333333333333</ele><time>2026-04-04T08:53:30Z</time></trkpt><trkpt lat="45.62431874084297" lon="10.465775922380736"><ele>686.1666666666666</ele><time>2026-04-04T08:53:31Z</time></trkpt><trkpt lat="45.62430106035416" lon="10.465888294640866"><ele>689.0</ele><time>2026-04-04T08:53:32Z</time></trkpt><trkpt lat="45.62431524642461" lon="10.465999040091607"><ele>689.0</ele><time>2026-04-04T08:53:33Z</time></trkpt><trkpt lat="45.62433612010845" lon="10.466086450017647"><ele>689.0</ele><time>2026-04-04T08:53:34Z</time></trkpt><trkpt lat="45.6244681666439" lon="10.466330017366246"><ele>689.0</ele><time>2026-04-04T08:53:37Z</time></trkpt><trkpt lat="45.62448744268505" lon="10.466524768998422"><ele>689.0</ele><time>2026-04-04T08:53:39Z</time></trkpt><trkpt lat="45.6245031674198" lon="10.466630103568665"><ele>685.7142857142857</ele><time>2026-04-04T08:53:40Z</time></trkpt><trkpt lat="45.62451068529159" lon="10.466743858896493"><ele>682.4285714285714</ele><time>2026-04-04T08:53:41Z</time></trkpt><trkpt lat="45.62453275616178" lon="10.466840547952199"><ele>679.1428571428571</ele><time>2026-04-04T08:53:42Z</time></trkpt><trkpt lat="45.62457057589932" lon="10.466934717177578"><ele>675.8571428571429</ele><time>2026-04-04T08:53:43Z</time></trkpt><trkpt lat="45.62462546983173" lon="10.466993932817527"><ele>672.5714285714286</ele><time>2026-04-04T08:53:44Z</time></trkpt><trkpt lat="45.6246828665883" lon="10.467070135880808"><ele>669.2857142857143</ele><time>2026-04-04T08:53:46Z</time></trkpt><trkpt lat="45.62474217008931" lon="10.467123880904888"><ele>666.0</ele><time>2026-04-04T08:53:51Z</time></trkpt><trkpt lat="45.624814518883944" lon="10.467228772592497"><ele>666.0</ele><time>2026-04-04T08:54:33.999Z</time></trkpt><trkpt lat="45.624863929745906" lon="10.467335388133607"><ele>666.0</ele><time>2026-04-04T08:54:36.999Z</time></trkpt><trkpt lat="45.624937779975255" lon="10.467458651022364"><ele>666.0</ele><time>2026-04-04T08:54:38.999Z</time></trkpt><trkpt lat="45.625008936990845" lon="10.467598388180933"><ele>666.0</ele><time>2026-04-04T08:54:40.999Z</time></trkpt><trkpt lat="45.625036403539575" lon="10.467701821385498"><ele>666.0</ele><time>2026-04-04T08:54:41.999Z</time></trkpt><trkpt lat="45.625059728383086" lon="10.467803642287578"><ele>666.0</ele><time>2026-04-04T08:54:42.999Z</time></trkpt><trkpt lat="45.62508096329129" lon="10.467905400089858"><ele>666.0</ele><time>2026-04-04T08:54:43.999Z</time></trkpt><trkpt lat="45.625129769081425" lon="10.467978380830246"><ele>666.0</ele><time>2026-04-04T08:54:44.999Z</time></trkpt><trkpt lat="45.62517113754718" lon="10.468053061646783"><ele>666.0</ele><time>2026-04-04T08:54:45.999Z</time></trkpt><trkpt lat="45.62521484066767" lon="10.46813606475588"><ele>666.0</ele><time>2026-04-04T08:54:46.999Z</time></trkpt><trkpt lat="45.62526188895253" lon="10.468219112894056"><ele>666.0</ele><time>2026-04-04T08:54:47.999Z</time></trkpt><trkpt lat="45.62528221423842" lon="10.468314928311015"><ele>666.0</ele><time>2026-04-04T08:54:48.999Z</time></trkpt><trkpt lat="45.62529144127269" lon="10.46841860637653"><ele>666.7142857142858</ele><time>2026-04-04T08:54:49.999Z</time></trkpt><trkpt lat="45.62528761290806" lon="10.468533786623224"><ele>667.4285714285713</ele><time>2026-04-04T08:54:50.999Z</time></trkpt><trkpt lat="45.625289172853954" lon="10.468649683169925"><ele>668.1428571428571</ele><time>2026-04-04T08:54:51.999Z</time></trkpt><trkpt lat="45.62530022490671" lon="10.468746457341132"><ele>668.8571428571429</ele><time>2026-04-04T08:54:52.999Z</time></trkpt><trkpt lat="45.6253284019644" lon="10.468829720792332"><ele>669.5714285714287</ele><time>2026-04-04T08:54:53.999Z</time></trkpt><trkpt lat="45.62535483111016" lon="10.468919390387235"><ele>670.2857142857142</ele><time>2026-04-04T08:54:54.999Z</time></trkpt><trkpt lat="45.625365229689116" lon="10.469018643628356"><ele>671.0</ele><time>2026-04-04T08:54:55.999Z</time></trkpt><trkpt lat="45.62538086724838" lon="10.469106273956184"><ele>663.8</ele><time>2026-04-04T08:54:56.999Z</time></trkpt><trkpt lat="45.62544557293514" lon="10.4692558783785"><ele>656.5999999999999</ele><time>2026-04-04T08:54:58.999Z</time></trkpt><trkpt lat="45.62550896093087" lon="10.469345679980176"><ele>649.4</ele><time>2026-04-04T08:54:59.999Z</time></trkpt><trkpt lat="45.62557027246181" lon="10.469439610051008"><ele>642.2</ele><time>2026-04-04T08:55:00.999Z</time></trkpt><trkpt lat="45.625633503487066" lon="10.469514754309827"><ele>635.0</ele><time>2026-04-04T08:55:01.999Z</time></trkpt><trkpt lat="45.62571810696874" lon="10.469569489695765"><ele>635.0</ele><time>2026-04-04T08:55:03.999Z</time></trkpt><trkpt lat="45.62580182519623" lon="10.469592490031353"><ele>635.0</ele><time>2026-04-04T08:55:04.999Z</time></trkpt><trkpt lat="45.62587818458988" lon="10.4696038589277"><ele>635.0</ele><time>2026-04-04T08:55:06.999Z</time></trkpt><trkpt lat="45.62590914455776" lon="10.46969755010527"><ele>635.0</ele><time>2026-04-04T08:55:08.999Z</time></trkpt><trkpt lat="45.62590487783793" lon="10.469852508804397"><ele>635.0</ele><time>2026-04-04T08:55:10.999Z</time></trkpt><trkpt lat="45.62595332485387" lon="10.470040979445136"><ele>635.1666666666666</ele><time>2026-04-04T08:55:12.999Z</time></trkpt><trkpt lat="45.62602992337643" lon="10.47013223506472"><ele>635.3333333333333</ele><time>2026-04-04T08:55:13.999Z</time></trkpt><trkpt lat="45.62607765473681" lon="10.470238518140361"><ele>635.5</ele><time>2026-04-04T08:55:14.999Z</time></trkpt><trkpt lat="45.62611011929983" lon="10.470344194050206"><ele>635.6666666666666</ele><time>2026-04-04T08:55:15.999Z</time></trkpt><trkpt lat="45.62614708041715" lon="10.470444399949898"><ele>635.8333333333334</ele><time>2026-04-04T08:55:16.999Z</time></trkpt><trkpt lat="45.626193942863985" lon="10.470548749436718"><ele>636.0</ele><time>2026-04-04T08:55:17.999Z</time></trkpt><trkpt lat="45.62626508929894" lon="10.470621483166045"><ele>636.0</ele><time>2026-04-04T08:55:19Z</time></trkpt><trkpt lat="45.626337988953196" lon="10.470695655352438"><ele>636.0</ele><time>2026-04-04T08:55:20Z</time></trkpt><trkpt lat="45.62638618887118" lon="10.470782058541625"><ele>636.0</ele><time>2026-04-04T08:55:21Z</time></trkpt><trkpt lat="45.6264089650174" lon="10.470892008128368"><ele>636.0</ele><time>2026-04-04T08:55:22Z</time></trkpt><trkpt lat="45.626453706513416" lon="10.471079052512048"><ele>636.0</ele><time>2026-04-04T08:55:24Z</time></trkpt><trkpt lat="45.62653683898642" lon="10.471166051879527"><ele>636.0</ele><time>2026-04-04T08:55:25Z</time></trkpt><trkpt lat="45.626629935856776" lon="10.471247643192598"><ele>636.0</ele><time>2026-04-04T08:55:26Z</time></trkpt><trkpt lat="45.62671876379988" lon="10.471303923374688"><ele>636.0</ele><time>2026-04-04T08:55:27Z</time></trkpt><trkpt lat="45.626821465612956" lon="10.47135209262385"><ele>636.0</ele><time>2026-04-04T08:55:28Z</time></trkpt><trkpt lat="45.6269197313291" lon="10.471394440243659"><ele>636.0</ele><time>2026-04-04T08:55:29Z</time></trkpt><trkpt lat="45.62698448541788" lon="10.471423773381039"><ele>635.1666666666666</ele><time>2026-04-04T08:55:30Z</time></trkpt><trkpt lat="45.627050321807815" lon="10.471439440946567"><ele>634.3333333333334</ele><time>2026-04-04T08:55:31Z</time></trkpt><trkpt lat="45.62713194084498" lon="10.471421477422616"><ele>633.5</ele><time>2026-04-04T08:55:32Z</time></trkpt><trkpt lat="45.62720305725745" lon="10.471356692611163"><ele>632.6666666666667</ele><time>2026-04-04T08:55:33Z</time></trkpt><trkpt lat="45.62724976960798" lon="10.47128921317062"><ele>631.8333333333334</ele><time>2026-04-04T08:55:34Z</time></trkpt><trkpt lat="45.62730165767359" lon="10.471188237487699"><ele>631.0</ele><time>2026-04-04T08:55:35Z</time></trkpt><trkpt lat="45.627370837214556" lon="10.471114943660348"><ele>631.0</ele><time>2026-04-04T08:55:36Z</time></trkpt><trkpt lat="45.62747679985765" lon="10.471056912247894"><ele>631.0</ele><time>2026-04-04T08:55:37Z</time></trkpt><trkpt lat="45.62759011436607" lon="10.471082876200914"><ele>631.0</ele><time>2026-04-04T08:55:39Z</time></trkpt><trkpt lat="45.62765351138831" lon="10.471158136015637"><ele>631.0</ele><time>2026-04-04T08:55:40Z</time></trkpt><trkpt lat="45.62775717206548" lon="10.471217096763388"><ele>631.0</ele><time>2026-04-04T08:55:42Z</time></trkpt><trkpt lat="45.62784909784283" lon="10.471224202192815"><ele>631.6666666666667</ele><time>2026-04-04T08:55:44Z</time></trkpt><trkpt lat="45.62791159778289" lon="10.471197876180783"><ele>632.3333333333334</ele><time>2026-04-04T08:55:56Z</time></trkpt><trkpt lat="45.627986189883714" lon="10.471189495742914"><ele>633.0</ele><time>2026-04-04T08:55:58Z</time></trkpt><trkpt lat="45.628096246529296" lon="10.471242699309043"><ele>633.6666666666666</ele><time>2026-04-04T08:56:00Z</time></trkpt><trkpt lat="45.62816108626178" lon="10.471277441916273"><ele>634.3333333333333</ele><time>2026-04-04T08:56:01Z</time></trkpt><trkpt lat="45.62823269759641" lon="10.471295874313716"><ele>635.0</ele><time>2026-04-04T08:56:02Z</time></trkpt><trkpt lat="45.628309473798154" lon="10.4713049412281"><ele>635.0</ele><time>2026-04-04T08:56:03Z</time></trkpt><trkpt lat="45.628376042819596" lon="10.47129050854131"><ele>635.0</ele><time>2026-04-04T08:56:04Z</time></trkpt><trkpt lat="45.62847377797172" lon="10.47124860852275"><ele>635.0</ele><time>2026-04-04T08:56:06Z</time></trkpt><trkpt lat="45.628578062658164" lon="10.471284336300505"><ele>635.0</ele><time>2026-04-04T08:56:08Z</time></trkpt><trkpt lat="45.62864103826683" lon="10.471278284381192"><ele>635.0</ele><time>2026-04-04T08:56:09Z</time></trkpt><trkpt lat="45.62871182741363" lon="10.4712944181679"><ele>635.0</ele><time>2026-04-04T08:56:10Z</time></trkpt><trkpt lat="45.628834222501666" lon="10.471364095543889"><ele>636.4285714285713</ele><time>2026-04-04T08:56:12Z</time></trkpt><trkpt lat="45.62889433397331" lon="10.471401813077815"><ele>637.8571428571429</ele><time>2026-04-04T08:56:13Z</time></trkpt><trkpt lat="45.6289651828752" lon="10.471426504004222"><ele>639.2857142857142</ele><time>2026-04-04T08:56:13.999Z</time></trkpt><trkpt lat="45.62904165347283" lon="10.471460043230385"><ele>640.7142857142857</ele><time>2026-04-04T08:56:14.999Z</time></trkpt><trkpt lat="45.62911467711528" lon="10.471480125905352"><ele>642.1428571428571</ele><time>2026-04-04T08:56:15.999Z</time></trkpt><trkpt lat="45.6291784845755" lon="10.471487991085288"><ele>643.5714285714286</ele><time>2026-04-04T08:56:16.999Z</time></trkpt><trkpt lat="45.62925335360841" lon="10.47150087637302"><ele>645.0</ele><time>2026-04-04T08:56:17.999Z</time></trkpt><trkpt lat="45.62934334580946" lon="10.471501284712446"><ele>645.0</ele><time>2026-04-04T08:56:18.999Z</time></trkpt><trkpt lat="45.62940850830345" lon="10.471531642886482"><ele>645.0</ele><time>2026-04-04T08:56:19.999Z</time></trkpt><trkpt lat="45.62947530151359" lon="10.471585843161483"><ele>645.0</ele><time>2026-04-04T08:56:20.999Z</time></trkpt><trkpt lat="45.629534438083084" lon="10.471687693417863"><ele>645.0</ele><time>2026-04-04T08:56:21.999Z</time></trkpt><trkpt lat="45.62959119469317" lon="10.471767737174194"><ele>645.0</ele><time>2026-04-04T08:56:22.999Z</time></trkpt><trkpt lat="45.629703422270964" lon="10.471810677929957"><ele>645.0</ele><time>2026-04-04T08:56:24.999Z</time></trkpt><trkpt lat="45.62978445944833" lon="10.471851261397665"><ele>646.6</ele><time>2026-04-04T08:56:25.999Z</time></trkpt><trkpt lat="45.629874589098904" lon="10.472000645016614"><ele>648.2</ele><time>2026-04-04T08:56:27.999Z</time></trkpt><trkpt lat="45.629912979215504" lon="10.472137018381963"><ele>649.8</ele><time>2026-04-04T08:56:28.999Z</time></trkpt><trkpt lat="45.62993874754201" lon="10.472265975861637"><ele>651.4</ele><time>2026-04-04T08:56:29.999Z</time></trkpt><trkpt lat="45.62997342668307" lon="10.472398947316316"><ele>653.0</ele><time>2026-04-04T08:56:30.999Z</time></trkpt><trkpt lat="45.63001276434507" lon="10.47250671014254"><ele>653.0</ele><time>2026-04-04T08:56:31.999Z</time></trkpt><trkpt lat="45.630066196189695" lon="10.472593310481507"><ele>653.0</ele><time>2026-04-04T08:56:32.999Z</time></trkpt><trkpt lat="45.63012786669007" lon="10.472652865718194"><ele>653.0</ele><time>2026-04-04T08:56:33.999Z</time></trkpt><trkpt lat="45.630217422651945" lon="10.472761292652383"><ele>653.0</ele><time>2026-04-04T08:56:35.999Z</time></trkpt><trkpt lat="45.630230487669095" lon="10.47286514732495"><ele>653.0</ele><time>2026-04-04T08:56:36.999Z</time></trkpt><trkpt lat="45.63025512889415" lon="10.472982802591405"><ele>653.0</ele><time>2026-04-04T08:56:37.999Z</time></trkpt><trkpt lat="45.63028794307049" lon="10.473067688854403"><ele>658.8</ele><time>2026-04-04T08:56:38.999Z</time></trkpt><trkpt lat="45.630335441426425" lon="10.473158322101511"><ele>664.5999999999999</ele><time>2026-04-04T08:56:39.999Z</time></trkpt><trkpt lat="45.630388650541136" lon="10.473258858650983"><ele>670.4000000000001</ele><time>2026-04-04T08:56:40.999Z</time></trkpt><trkpt lat="45.63044322591478" lon="10.473372852709184"><ele>676.2</ele><time>2026-04-04T08:56:41.999Z</time></trkpt><trkpt lat="45.630488501656465" lon="10.47349657074192"><ele>682.0</ele><time>2026-04-04T08:56:42.999Z</time></trkpt><trkpt lat="45.63053338291218" lon="10.473621345071123"><ele>682.0</ele><time>2026-04-04T08:56:43.999Z</time></trkpt><trkpt lat="45.63057902604939" lon="10.473740318085667"><ele>682.0</ele><time>2026-04-04T08:56:44.999Z</time></trkpt><trkpt lat="45.63064054321981" lon="10.47385251208611"><ele>682.0</ele><time>2026-04-04T08:56:45.999Z</time></trkpt><trkpt lat="45.63070994790241" lon="10.473950831773347"><ele>682.0</ele><time>2026-04-04T08:56:46.999Z</time></trkpt><trkpt lat="45.63078775119911" lon="10.474041955826104"><ele>682.0</ele><time>2026-04-04T08:56:47.999Z</time></trkpt><trkpt lat="45.63084804542312" lon="10.47413796832127"><ele>678.6</ele><time>2026-04-04T08:56:48.999Z</time></trkpt><trkpt lat="45.630884548482996" lon="10.47425683272177"><ele>675.2</ele><time>2026-04-04T08:56:49.999Z</time></trkpt><trkpt lat="45.63091925592342" lon="10.474382474925761"><ele>671.8</ele><time>2026-04-04T08:56:50.999Z</time></trkpt><trkpt lat="45.63096018356129" lon="10.474467511119599"><ele>668.4</ele><time>2026-04-04T08:56:51.999Z</time></trkpt><trkpt lat="45.631008806473616" lon="10.474584897862918"><ele>665.0</ele><time>2026-04-04T08:56:52.999Z</time></trkpt><trkpt lat="45.63106330666919" lon="10.474732042814304"><ele>661.8</ele><time>2026-04-04T08:56:53.999Z</time></trkpt><trkpt lat="45.63110288053157" lon="10.474860424629648"><ele>658.6</ele><time>2026-04-04T08:56:54.999Z</time></trkpt><trkpt lat="45.63115475980496" lon="10.474977602580768"><ele>655.4000000000001</ele><time>2026-04-04T08:56:55.999Z</time></trkpt><trkpt lat="45.63119819618962" lon="10.475063528529578"><ele>652.2</ele><time>2026-04-04T08:56:56.999Z</time></trkpt><trkpt lat="45.63128836191918" lon="10.475190588632618"><ele>649.0</ele><time>2026-04-04T08:56:58.999Z</time></trkpt><trkpt lat="45.631339021846145" lon="10.475276966126984"><ele>653.0</ele><time>2026-04-04T08:56:59.999Z</time></trkpt><trkpt lat="45.63137082056994" lon="10.475374428973616"><ele>657.0</ele><time>2026-04-04T08:57:00.999Z</time></trkpt><trkpt lat="45.631393227913684" lon="10.475461416362005"><ele>661.0</ele><time>2026-04-04T08:57:01.999Z</time></trkpt><trkpt lat="45.631434596010145" lon="10.475563481728553"><ele>665.0</ele><time>2026-04-04T08:57:02.999Z</time></trkpt><trkpt lat="45.6314865757038" lon="10.475673030513947"><ele>669.0</ele><time>2026-04-04T08:57:03.999Z</time></trkpt><trkpt lat="45.63154196584899" lon="10.475761661893838"><ele>673.0</ele><time>2026-04-04T08:57:04.999Z</time></trkpt><trkpt lat="45.63161077626657" lon="10.47583131295111"><ele>673.0</ele><time>2026-04-04T08:57:05.999Z</time></trkpt><trkpt lat="45.631685475727885" lon="10.475908888491585"><ele>673.0</ele><time>2026-04-04T08:57:06.999Z</time></trkpt><trkpt lat="45.63173915238053" lon="10.476000125658619"><ele>673.0</ele><time>2026-04-04T08:57:07.999Z</time></trkpt><trkpt lat="45.63181192221557" lon="10.476109090925034"><ele>673.0</ele><time>2026-04-04T08:57:08.999Z</time></trkpt><trkpt lat="45.63186408952884" lon="10.476196228911258"><ele>673.0</ele><time>2026-04-04T08:57:09.999Z</time></trkpt><trkpt lat="45.63190783144915" lon="10.476290139968647"><ele>673.0</ele><time>2026-04-04T08:57:10.999Z</time></trkpt><trkpt lat="45.63194469071918" lon="10.47638834662034"><ele>674.5999999999999</ele><time>2026-04-04T08:57:11.999Z</time></trkpt><trkpt lat="45.63195512729931" lon="10.476514474742665"><ele>676.1999999999999</ele><time>2026-04-04T08:57:12.999Z</time></trkpt><trkpt lat="45.631958488617364" lon="10.476625872163877"><ele>677.8</ele><time>2026-04-04T08:57:13.999Z</time></trkpt><trkpt lat="45.63204115925359" lon="10.476864040461528"><ele>679.4</ele><time>2026-04-04T08:57:15.999Z</time></trkpt><trkpt lat="45.63207287849335" lon="10.476977555282856"><ele>681.0</ele><time>2026-04-04T08:57:16.999Z</time></trkpt><trkpt lat="45.63211277051201" lon="10.477142179635178"><ele>681.0</ele><time>2026-04-04T08:57:18.999Z</time></trkpt><trkpt lat="45.6321434757058" lon="10.477246160828425"><ele>681.0</ele><time>2026-04-04T08:57:19.999Z</time></trkpt><trkpt lat="45.63216415137647" lon="10.477431004852232"><ele>681.0</ele><time>2026-04-04T08:57:21.999Z</time></trkpt><trkpt lat="45.63214982361881" lon="10.477620704508732"><ele>681.0</ele><time>2026-04-04T08:57:23.999Z</time></trkpt><trkpt lat="45.632172716020406" lon="10.477772521825212"><ele>681.0</ele><time>2026-04-04T08:57:26Z</time></trkpt><trkpt lat="45.6322061427459" lon="10.477915327052392"><ele>681.0</ele><time>2026-04-04T08:57:28Z</time></trkpt><trkpt lat="45.63225457722718" lon="10.478032436816468"><ele>681.0</ele><time>2026-04-04T08:57:30Z</time></trkpt><trkpt lat="45.63234631629558" lon="10.478109445518896"><ele>681.0</ele><time>2026-04-04T08:57:32Z</time></trkpt><trkpt lat="45.632399202035124" lon="10.478164385965092"><ele>681.0</ele><time>2026-04-04T08:57:33Z</time></trkpt><trkpt lat="45.6324590225485" lon="10.478226917166424"><ele>681.0</ele><time>2026-04-04T08:57:34Z</time></trkpt><trkpt lat="45.63251100702073" lon="10.478319363655205"><ele>679.6666666666666</ele><time>2026-04-04T08:57:35Z</time></trkpt><trkpt lat="45.632598464265065" lon="10.4784005615157"><ele>678.3333333333334</ele><time>2026-04-04T08:57:36Z</time></trkpt><trkpt lat="45.63266348509025" lon="10.47847137855844"><ele>677.0</ele><time>2026-04-04T08:57:37Z</time></trkpt><trkpt lat="45.6327150348507" lon="10.47855261036882"><ele>675.6666666666667</ele><time>2026-04-04T08:57:38Z</time></trkpt><trkpt lat="45.63278791164889" lon="10.478667278987256"><ele>674.3333333333334</ele><time>2026-04-04T08:57:40Z</time></trkpt><trkpt lat="45.632840807049455" lon="10.478749360331065"><ele>673.0</ele><time>2026-04-04T08:57:41Z</time></trkpt><trkpt lat="45.63290525440621" lon="10.478806061127456"><ele>673.0</ele><time>2026-04-04T08:57:42Z</time></trkpt><trkpt lat="45.6330210291591" lon="10.47887415024685"><ele>673.0</ele><time>2026-04-04T08:57:44Z</time></trkpt><trkpt lat="45.63308273593284" lon="10.478953260962696"><ele>673.0</ele><time>2026-04-04T08:57:45Z</time></trkpt><trkpt lat="45.63314678540123" lon="10.479068537644427"><ele>673.0</ele><time>2026-04-04T08:57:47Z</time></trkpt><trkpt lat="45.63317692598067" lon="10.479226653011567"><ele>673.0</ele><time>2026-04-04T08:57:49Z</time></trkpt><trkpt lat="45.63320790331622" lon="10.47937095991927"><ele>673.0</ele><time>2026-04-04T08:57:51Z</time></trkpt><trkpt lat="45.633197565443155" lon="10.479461576398107"><ele>673.0</ele><time>2026-04-04T08:57:53Z</time></trkpt><trkpt lat="45.633196512307656" lon="10.479685207499848"><ele>673.0</ele><time>2026-04-04T08:57:54Z</time></trkpt><trkpt lat="45.6331822385959" lon="10.479804343363131"><ele>673.0</ele><time>2026-04-04T08:57:55Z</time></trkpt><trkpt lat="45.633161701835384" lon="10.479917556524075"><ele>673.0</ele><time>2026-04-04T08:57:56Z</time></trkpt><trkpt lat="45.633124778985604" lon="10.479992879964394"><ele>673.0</ele><time>2026-04-04T08:57:57Z</time></trkpt><trkpt lat="45.63308604302239" lon="10.480068106743785"><ele>673.0</ele><time>2026-04-04T08:57:58Z</time></trkpt><trkpt lat="45.63303435018568" lon="10.480140760564062"><ele>673.0</ele><time>2026-04-04T08:57:59Z</time></trkpt><trkpt lat="45.63297761178752" lon="10.480315106340685"><ele>673.0</ele><time>2026-04-04T08:58:01Z</time></trkpt><trkpt lat="45.632941191549854" lon="10.480407845851467"><ele>673.0</ele><time>2026-04-04T08:58:02Z</time></trkpt><trkpt lat="45.63289959784686" lon="10.480495486399253"><ele>673.0</ele><time>2026-04-04T08:58:03Z</time></trkpt><trkpt lat="45.6328655484119" lon="10.480596135505898"><ele>674.5</ele><time>2026-04-04T08:58:04Z</time></trkpt><trkpt lat="45.63283225034468" lon="10.480683190086975"><ele>676.0</ele><time>2026-04-04T08:58:05Z</time></trkpt><trkpt lat="45.63281783170876" lon="10.480791048949618"><ele>677.5</ele><time>2026-04-04T08:58:06Z</time></trkpt><trkpt lat="45.63279221594849" lon="10.480902728002489"><ele>679.0</ele><time>2026-04-04T08:58:07Z</time></trkpt><trkpt lat="45.63275096907594" lon="10.48100055957405"><ele>680.5</ele><time>2026-04-04T08:58:08Z</time></trkpt><trkpt lat="45.632720785814136" lon="10.481110224267995"><ele>682.0</ele><time>2026-04-04T08:58:09Z</time></trkpt><trkpt lat="45.63269171257857" lon="10.481205159849033"><ele>673.4</ele><time>2026-04-04T08:58:10Z</time></trkpt><trkpt lat="45.632670963375496" lon="10.481302857201587"><ele>664.8000000000001</ele><time>2026-04-04T08:58:11Z</time></trkpt><trkpt lat="45.63263634975277" lon="10.48145862781077"><ele>656.2</ele><time>2026-04-04T08:58:13Z</time></trkpt><trkpt lat="45.63260091829247" lon="10.48157967731578"><ele>647.6</ele><time>2026-04-04T08:58:15Z</time></trkpt><trkpt lat="45.63261401483891" lon="10.481731760759118"><ele>639.0</ele><time>2026-04-04T08:58:16.999Z</time></trkpt><trkpt lat="45.63260634810695" lon="10.481865683867161"><ele>639.0</ele><time>2026-04-04T08:58:18.999Z</time></trkpt><trkpt lat="45.63258643193819" lon="10.482022510757792"><ele>639.0</ele><time>2026-04-04T08:58:20.999Z</time></trkpt><trkpt lat="45.632601400473106" lon="10.48212340226221"><ele>639.0</ele><time>2026-04-04T08:58:21.999Z</time></trkpt><trkpt lat="45.6326120496928" lon="10.482218391464478"><ele>639.0</ele><time>2026-04-04T08:58:22.999Z</time></trkpt><trkpt lat="45.63262406007391" lon="10.482316730590824"><ele>639.0</ele><time>2026-04-04T08:58:23.999Z</time></trkpt><trkpt lat="45.63262730008824" lon="10.48242921470565"><ele>639.0</ele><time>2026-04-04T08:58:24.999Z</time></trkpt><trkpt lat="45.632592090779895" lon="10.482554488554035"><ele>638.5714285714287</ele><time>2026-04-04T08:58:26.999Z</time></trkpt><trkpt lat="45.63252033289889" lon="10.482611292243597"><ele>638.1428571428571</ele><time>2026-04-04T08:58:29.999Z</time></trkpt><trkpt lat="45.63248795028513" lon="10.482693625866846"><ele>637.7142857142858</ele><time>2026-04-04T08:58:36.999Z</time></trkpt><trkpt lat="45.632457694643634" lon="10.482783068804498"><ele>637.2857142857143</ele><time>2026-04-04T08:58:43.999Z</time></trkpt><trkpt lat="45.63240928629314" lon="10.482842517691017"><ele>636.8571428571429</ele><time>2026-04-04T08:58:47.999Z</time></trkpt><trkpt lat="45.6323576307548" lon="10.482907070718792"><ele>636.4285714285714</ele><time>2026-04-04T08:58:51.999Z</time></trkpt><trkpt lat="45.63230291977756" lon="10.482979504618058"><ele>636.0</ele><time>2026-04-04T08:58:54.999Z</time></trkpt><trkpt lat="45.63222296187202" lon="10.48310495224124"><ele>637.1428571428571</ele><time>2026-04-04T08:58:57.999Z</time></trkpt><trkpt lat="45.6321929608364" lon="10.483194555830055"><ele>638.2857142857143</ele><time>2026-04-04T08:58:58.999Z</time></trkpt><trkpt lat="45.632143654361634" lon="10.483280038505315"><ele>639.4285714285714</ele><time>2026-04-04T08:59:00.999Z</time></trkpt><trkpt lat="45.63210007815257" lon="10.483375886772576"><ele>640.5714285714286</ele><time>2026-04-04T08:59:02.999Z</time></trkpt><trkpt lat="45.632061975657635" lon="10.483450758557117"><ele>641.7142857142858</ele><time>2026-04-04T08:59:04.999Z</time></trkpt><trkpt lat="45.632018250154125" lon="10.48352264229198"><ele>642.8571428571429</ele><time>2026-04-04T08:59:06.999Z</time></trkpt><trkpt lat="45.63195924625702" lon="10.483589281078865"><ele>644.0</ele><time>2026-04-04T08:59:08.999Z</time></trkpt><trkpt lat="45.63192497845741" lon="10.48368707328007"><ele>634.6</ele><time>2026-04-04T08:59:11.999Z</time></trkpt><trkpt lat="45.631875689298276" lon="10.483773057016375"><ele>625.2</ele><time>2026-04-04T08:59:13.999Z</time></trkpt><trkpt lat="45.631816136555564" lon="10.483940513068283"><ele>615.8000000000001</ele><time>2026-04-04T08:59:14.999Z</time></trkpt><trkpt lat="45.63179562092257" lon="10.48407392028413"><ele>606.4000000000001</ele><time>2026-04-04T08:59:17.999Z</time></trkpt><trkpt lat="45.63180580934693" lon="10.48419956132264"><ele>597.0</ele><time>2026-04-04T08:59:20.999Z</time></trkpt><trkpt lat="45.63180374344333" lon="10.484297982845675"><ele>597.3333333333334</ele><time>2026-04-04T08:59:22.999Z</time></trkpt><trkpt lat="45.63176111173164" lon="10.48470800850058"><ele>597.6666666666667</ele><time>2026-04-04T08:59:24.999Z</time></trkpt><trkpt lat="45.63176487100231" lon="10.484864227219186"><ele>598.0</ele><time>2026-04-04T08:59:26.999Z</time></trkpt><trkpt lat="45.63175910320276" lon="10.484965527870916"><ele>598.0</ele><time>2026-04-04T08:59:28.999Z</time></trkpt><trkpt lat="45.63173402422376" lon="10.485068073061425"><ele>598.0</ele><time>2026-04-04T08:59:31Z</time></trkpt><trkpt lat="45.631710049967694" lon="10.48522057191236"><ele>598.0</ele><time>2026-04-04T08:59:33Z</time></trkpt><trkpt lat="45.6316924158523" lon="10.485336123115431"><ele>598.0</ele><time>2026-04-04T08:59:35Z</time></trkpt><trkpt lat="45.63166280732223" lon="10.485451824900721"><ele>598.0</ele><time>2026-04-04T08:59:38Z</time></trkpt><trkpt lat="45.6316485311726" lon="10.485564449943201"><ele>598.0</ele><time>2026-04-04T08:59:40Z</time></trkpt><trkpt lat="45.63163066270113" lon="10.4856729264666"><ele>597.6</ele><time>2026-04-04T08:59:43Z</time></trkpt><trkpt lat="45.63160093045073" lon="10.485784892541506"><ele>597.1999999999999</ele><time>2026-04-04T08:59:49Z</time></trkpt><trkpt lat="45.63154389251665" lon="10.485993967758153"><ele>596.8</ele><time>2026-04-04T08:59:52Z</time></trkpt><trkpt lat="45.631526727794736" lon="10.486104998005894"><ele>596.4</ele><time>2026-04-04T08:59:53Z</time></trkpt><trkpt lat="45.63145885329306" lon="10.48617580583328"><ele>596.0</ele><time>2026-04-04T08:59:56Z</time></trkpt><trkpt lat="45.631389126455" lon="10.486252838217334"><ele>595.8333333333333</ele><time>2026-04-04T08:59:59Z</time></trkpt><trkpt lat="45.631337637537925" lon="10.486369859568041"><ele>595.6666666666666</ele><time>2026-04-04T09:00:02Z</time></trkpt><trkpt lat="45.631306498610485" lon="10.48647093773116"><ele>595.5</ele><time>2026-04-04T09:00:04Z</time></trkpt><trkpt lat="45.63127843366021" lon="10.486578846800526"><ele>595.3333333333334</ele><time>2026-04-04T09:00:07Z</time></trkpt><trkpt lat="45.631196205727804" lon="10.486655168884498"><ele>595.1666666666667</ele><time>2026-04-04T09:00:10Z</time></trkpt><trkpt lat="45.631140177878116" lon="10.486711930701336"><ele>595.0</ele><time>2026-04-04T09:00:11Z</time></trkpt><trkpt lat="45.631084006841014" lon="10.486840156982472"><ele>586.2</ele><time>2026-04-04T09:00:13Z</time></trkpt><trkpt lat="45.63103712291686" lon="10.486986048742295"><ele>577.4</ele><time>2026-04-04T09:00:15Z</time></trkpt><trkpt lat="45.63101013273193" lon="10.487114421430748"><ele>568.6</ele><time>2026-04-04T09:00:15.999Z</time></trkpt><trkpt lat="45.63097146193266" lon="10.48724239911386"><ele>559.8</ele><time>2026-04-04T09:00:16.999Z</time></trkpt><trkpt lat="45.630921593654165" lon="10.487350224217733"><ele>551.0</ele><time>2026-04-04T09:00:17.999Z</time></trkpt><trkpt lat="45.6308825203525" lon="10.487436543881755"><ele>550.8333333333333</ele><time>2026-04-04T09:00:18.999Z</time></trkpt><trkpt lat="45.63085419022134" lon="10.487543551429996"><ele>550.6666666666666</ele><time>2026-04-04T09:00:19.999Z</time></trkpt><trkpt lat="45.63081291555026" lon="10.487630890445688"><ele>550.5</ele><time>2026-04-04T09:00:20.999Z</time></trkpt><trkpt lat="45.63076871754482" lon="10.48770334341039"><ele>550.3333333333334</ele><time>2026-04-04T09:00:21.999Z</time></trkpt><trkpt lat="45.63071756536485" lon="10.487793056973654"><ele>550.1666666666667</ele><time>2026-04-04T09:00:22.999Z</time></trkpt><trkpt lat="45.63066442682175" lon="10.487877419278115"><ele>550.0</ele><time>2026-04-04T09:00:23.999Z</time></trkpt><trkpt lat="45.63058925723373" lon="10.487965030171921"><ele>547.8333333333334</ele><time>2026-04-04T09:00:24.999Z</time></trkpt><trkpt lat="45.63050755207928" lon="10.48804973050391"><ele>545.6666666666667</ele><time>2026-04-04T09:00:25.999Z</time></trkpt><trkpt lat="45.63043194818793" lon="10.488117405440812"><ele>543.5</ele><time>2026-04-04T09:00:26.999Z</time></trkpt><trkpt lat="45.63036392270523" lon="10.48818811599631"><ele>541.3333333333334</ele><time>2026-04-04T09:00:27.999Z</time></trkpt><trkpt lat="45.630289594845046" lon="10.48823793521948"><ele>539.1666666666666</ele><time>2026-04-04T09:00:28.999Z</time></trkpt><trkpt lat="45.63021179619369" lon="10.488297240642222"><ele>537.0</ele><time>2026-04-04T09:00:29.999Z</time></trkpt><trkpt lat="45.63015483842208" lon="10.488364823503025"><ele>532.8333333333334</ele><time>2026-04-04T09:00:30.999Z</time></trkpt><trkpt lat="45.63010301331156" lon="10.488437976440304"><ele>528.6666666666666</ele><time>2026-04-04T09:00:31.999Z</time></trkpt><trkpt lat="45.630026595238846" lon="10.488471157462591"><ele>524.5</ele><time>2026-04-04T09:00:32.999Z</time></trkpt><trkpt lat="45.629962754369146" lon="10.488510345014902"><ele>520.3333333333333</ele><time>2026-04-04T09:00:33.999Z</time></trkpt><trkpt lat="45.62986457529395" lon="10.488522347215964"><ele>516.1666666666666</ele><time>2026-04-04T09:00:35.999Z</time></trkpt><trkpt lat="45.62978401803237" lon="10.488558890702175"><ele>512.0</ele><time>2026-04-04T09:00:37.999Z</time></trkpt><trkpt lat="45.62971166753433" lon="10.488642543646604"><ele>511.99999999999994</ele><time>2026-04-04T09:00:39.999Z</time></trkpt><trkpt lat="45.629622057857475" lon="10.488637401178782"><ele>512.0</ele><time>2026-04-04T09:00:41.999Z</time></trkpt><trkpt lat="45.62957543972585" lon="10.488701622246861"><ele>512.0</ele><time>2026-04-04T09:00:44.999Z</time></trkpt><trkpt lat="45.62950337950565" lon="10.488764278354372"><ele>512.0</ele><time>2026-04-04T09:00:46.999Z</time></trkpt><trkpt lat="45.629469686100734" lon="10.488844632501769"><ele>511.99999999999994</ele><time>2026-04-04T09:00:48.999Z</time></trkpt><trkpt lat="45.629508513659" lon="10.488951358086185"><ele>512.0</ele><time>2026-04-04T09:00:50.999Z</time></trkpt><trkpt lat="45.6296127777208" lon="10.488989801786134"><ele>509.20000000000005</ele><time>2026-04-04T09:00:52.999Z</time></trkpt><trkpt lat="45.629737009368434" lon="10.489024012946462"><ele>506.40000000000003</ele><time>2026-04-04T09:00:54.999Z</time></trkpt><trkpt lat="45.62979076972277" lon="10.489085614363795"><ele>503.59999999999997</ele><time>2026-04-04T09:00:55.999Z</time></trkpt><trkpt lat="45.629895276001164" lon="10.489166985940871"><ele>500.79999999999995</ele><time>2026-04-04T09:00:57.999Z</time></trkpt><trkpt lat="45.62994848152452" lon="10.489228550986265"><ele>498.0</ele><time>2026-04-04T09:00:58.999Z</time></trkpt><trkpt lat="45.63001683169997" lon="10.489353416566885"><ele>498.0</ele><time>2026-04-04T09:01:00.999Z</time></trkpt><trkpt lat="45.63001822165344" lon="10.48944745166255"><ele>498.0</ele><time>2026-04-04T09:01:01.999Z</time></trkpt><trkpt lat="45.63001075182039" lon="10.489548999808335"><ele>498.0</ele><time>2026-04-04T09:01:02.999Z</time></trkpt><trkpt lat="45.63000167011041" lon="10.489651793508814"><ele>498.0</ele><time>2026-04-04T09:01:03.999Z</time></trkpt><trkpt lat="45.630001523238185" lon="10.489844950500078"><ele>498.0</ele><time>2026-04-04T09:01:05.999Z</time></trkpt><trkpt lat="45.63001051285311" lon="10.489956343357518"><ele>498.0</ele><time>2026-04-04T09:01:06.999Z</time></trkpt><trkpt lat="45.6300236102848" lon="10.490080209039691"><ele>493.8333333333333</ele><time>2026-04-04T09:01:07.999Z</time></trkpt><trkpt lat="45.63002098033577" lon="10.490209024717643"><ele>489.66666666666663</ele><time>2026-04-04T09:01:08.999Z</time></trkpt><trkpt lat="45.6300008739073" lon="10.490295618356598"><ele>485.5</ele><time>2026-04-04T09:01:10.999Z</time></trkpt><trkpt lat="45.62999671917725" lon="10.490402859276411"><ele>481.3333333333333</ele><time>2026-04-04T09:01:13.999Z</time></trkpt><trkpt lat="45.62994507959922" lon="10.490468967407963"><ele>477.16666666666663</ele><time>2026-04-04T09:01:16.999Z</time></trkpt><trkpt lat="45.62990559656925" lon="10.490603166550674"><ele>473.0</ele><time>2026-04-04T09:01:54Z</time></trkpt><trkpt lat="45.62986397437065" lon="10.490745950031348"><ele>469.59999999999997</ele><time>2026-04-04T09:01:56Z</time></trkpt><trkpt lat="45.62982136281637" lon="10.490909864608824"><ele>466.19999999999993</ele><time>2026-04-04T09:01:58Z</time></trkpt><trkpt lat="45.62975496981143" lon="10.490988293776455"><ele>462.8</ele><time>2026-04-04T09:02:00Z</time></trkpt><trkpt lat="45.6297250543617" lon="10.491075909019226"><ele>459.4</ele><time>2026-04-04T09:02:03Z</time></trkpt><trkpt lat="45.62971573412114" lon="10.491237028653595"><ele>456.0</ele><time>2026-04-04T09:02:05Z</time></trkpt><trkpt lat="45.62970483763107" lon="10.491327781288756"><ele>452.6</ele><time>2026-04-04T09:02:06Z</time></trkpt><trkpt lat="45.629689056121435" lon="10.491432401151094"><ele>449.20000000000005</ele><time>2026-04-04T09:02:07Z</time></trkpt><trkpt lat="45.6296981602137" lon="10.491533424410125"><ele>445.79999999999995</ele><time>2026-04-04T09:02:08Z</time></trkpt><trkpt lat="45.62975827036985" lon="10.49166443469775"><ele>442.4</ele><time>2026-04-04T09:02:10Z</time></trkpt><trkpt lat="45.62982790580643" lon="10.491774735750154"><ele>439.0</ele><time>2026-04-04T09:02:12Z</time></trkpt><trkpt lat="45.62989724636737" lon="10.491858157581646"><ele>439.0</ele><time>2026-04-04T09:02:14Z</time></trkpt><trkpt lat="45.62997769679175" lon="10.491946200766577"><ele>439.0</ele><time>2026-04-04T09:02:16Z</time></trkpt><trkpt lat="45.630055484022996" lon="10.492015070880289"><ele>439.0</ele><time>2026-04-04T09:02:18Z</time></trkpt><trkpt lat="45.63006962640951" lon="10.49214308237539"><ele>439.0</ele><time>2026-04-04T09:02:20.999Z</time></trkpt><trkpt lat="45.630014306274184" lon="10.492283237796654"><ele>439.0</ele><time>2026-04-04T09:02:23.999Z</time></trkpt><trkpt lat="45.629975896958754" lon="10.49244166918125"><ele>434.79999999999995</ele><time>2026-04-04T09:02:25.999Z</time></trkpt><trkpt lat="45.62995367423252" lon="10.492620209461625"><ele>430.59999999999997</ele><time>2026-04-04T09:02:27.999Z</time></trkpt><trkpt lat="45.62996451250745" lon="10.492771390455667"><ele>426.4</ele><time>2026-04-04T09:02:29.999Z</time></trkpt><trkpt lat="45.62996633623505" lon="10.492892057119295"><ele>422.2</ele><time>2026-04-04T09:02:32.999Z</time></trkpt><trkpt lat="45.62997255992272" lon="10.493004860935008"><ele>418.0</ele><time>2026-04-04T09:02:35.999Z</time></trkpt><trkpt lat="45.62992909511677" lon="10.493102597359897"><ele>418.00000000000006</ele><time>2026-04-04T09:02:38.999Z</time></trkpt><trkpt lat="45.62982133559451" lon="10.493068208971055"><ele>418.0</ele><time>2026-04-04T09:02:42.999Z</time></trkpt><trkpt lat="45.6297262031654" lon="10.493050086518727"><ele>418.0</ele><time>2026-04-04T09:02:44.999Z</time></trkpt><trkpt lat="45.62967042378952" lon="10.492968052441174"><ele>418.0</ele><time>2026-04-04T09:02:48.999Z</time></trkpt><trkpt lat="45.629610534340024" lon="10.492912455536276"><ele>418.00000000000006</ele><time>2026-04-04T09:02:50.999Z</time></trkpt><trkpt lat="45.629545097961646" lon="10.492864791347104"><ele>418.0</ele><time>2026-04-04T09:02:52.999Z</time></trkpt><trkpt lat="45.62945987588702" lon="10.492787660224671"><ele>414.0</ele><time>2026-04-04T09:02:54.999Z</time></trkpt><trkpt lat="45.62936371458284" lon="10.49269762486811"><ele>410.0</ele><time>2026-04-04T09:02:56.999Z</time></trkpt><trkpt lat="45.629263175611285" lon="10.492583315593366"><ele>406.0</ele><time>2026-04-04T09:02:58.999Z</time></trkpt><trkpt lat="45.62920113480538" lon="10.49252968192408"><ele>402.0</ele><time>2026-04-04T09:02:59.999Z</time></trkpt><trkpt lat="45.62915185913351" lon="10.492446677681372"><ele>398.0</ele><time>2026-04-04T09:03:00.999Z</time></trkpt><trkpt lat="45.62911902467945" lon="10.492342457506725"><ele>397.99999999999994</ele><time>2026-04-04T09:03:01.999Z</time></trkpt><trkpt lat="45.629082910590405" lon="10.492236788601362"><ele>398.0</ele><time>2026-04-04T09:03:02.999Z</time></trkpt><trkpt lat="45.62905523612389" lon="10.492148801226739"><ele>398.0</ele><time>2026-04-04T09:03:03.999Z</time></trkpt><trkpt lat="45.62898242415174" lon="10.491999531103225"><ele>398.0</ele><time>2026-04-04T09:03:05.999Z</time></trkpt><trkpt lat="45.62892684412125" lon="10.491925330793388"><ele>397.99999999999994</ele><time>2026-04-04T09:03:06.999Z</time></trkpt><trkpt lat="45.628893981293736" lon="10.491834210034423"><ele>398.0</ele><time>2026-04-04T09:03:07.999Z</time></trkpt><trkpt lat="45.62885061306265" lon="10.491755844641546"><ele>401.2</ele><time>2026-04-04T09:03:08.999Z</time></trkpt><trkpt lat="45.628777750764385" lon="10.491614889354626"><ele>404.4</ele><time>2026-04-04T09:03:10.999Z</time></trkpt><trkpt lat="45.628708210250075" lon="10.491533679532184"><ele>407.59999999999997</ele><time>2026-04-04T09:03:12.999Z</time></trkpt><trkpt lat="45.628639720974" lon="10.49152354213013"><ele>410.79999999999995</ele><time>2026-04-04T09:03:14.999Z</time></trkpt><trkpt lat="45.6285319788756" lon="10.491490823231258"><ele>414.0</ele><time>2026-04-04T09:03:16.999Z</time></trkpt><trkpt lat="45.6284457988733" lon="10.49143201589601"><ele>408.3333333333333</ele><time>2026-04-04T09:03:17.999Z</time></trkpt><trkpt lat="45.628327788743135" lon="10.491361553419088"><ele>402.6666666666667</ele><time>2026-04-04T09:03:19.999Z</time></trkpt><trkpt lat="45.62825876814908" lon="10.491329703749386"><ele>397.0</ele><time>2026-04-04T09:03:20.999Z</time></trkpt><trkpt lat="45.62817992083078" lon="10.491306248389092"><ele>391.33333333333337</ele><time>2026-04-04T09:03:21.999Z</time></trkpt><trkpt lat="45.62811002449851" lon="10.491314612801862"><ele>385.6666666666667</ele><time>2026-04-04T09:03:22.999Z</time></trkpt><trkpt lat="45.628024578483874" lon="10.491331301741376"><ele>380.0</ele><time>2026-04-04T09:03:23.999Z</time></trkpt><trkpt lat="45.62795000632214" lon="10.491324242783765"><ele>380.0</ele><time>2026-04-04T09:03:24.999Z</time></trkpt><trkpt lat="45.62784822034305" lon="10.49126199497205"><ele>380.0</ele><time>2026-04-04T09:03:26.999Z</time></trkpt><trkpt lat="45.627754726073476" lon="10.49122068393667"><ele>380.0</ele><time>2026-04-04T09:03:28.999Z</time></trkpt><trkpt lat="45.627650421024924" lon="10.491164720977654"><ele>380.0</ele><time>2026-04-04T09:03:30.999Z</time></trkpt><trkpt lat="45.62759595586892" lon="10.491109512712134"><ele>380.0</ele><time>2026-04-04T09:03:31.999Z</time></trkpt><trkpt lat="45.6275489456808" lon="10.49104867319378"><ele>377.83333333333337</ele><time>2026-04-04T09:03:32.999Z</time></trkpt><trkpt lat="45.62746601933053" lon="10.490963413935024"><ele>375.6666666666667</ele><time>2026-04-04T09:03:34.999Z</time></trkpt><trkpt lat="45.627398359732865" lon="10.490935217704259"><ele>373.5</ele><time>2026-04-04T09:03:37.999Z</time></trkpt><trkpt lat="45.62737219633432" lon="10.490847074257657"><ele>371.3333333333333</ele><time>2026-04-04T09:04:26.999Z</time></trkpt><trkpt lat="45.62739124812467" lon="10.490748204725062"><ele>369.16666666666663</ele><time>2026-04-04T09:04:28.999Z</time></trkpt><trkpt lat="45.62744485882375" lon="10.490595007810281"><ele>367.0</ele><time>2026-04-04T09:04:30.999Z</time></trkpt><trkpt lat="45.627468882899" lon="10.490502761986011"><ele>366.8333333333333</ele><time>2026-04-04T09:04:31.999Z</time></trkpt><trkpt lat="45.62750885323891" lon="10.490416797282585"><ele>366.66666666666663</ele><time>2026-04-04T09:04:32.999Z</time></trkpt><trkpt lat="45.62761741550479" lon="10.490318697170107"><ele>366.5</ele><time>2026-04-04T09:04:34.999Z</time></trkpt><trkpt lat="45.62769123195072" lon="10.490277658545054"><ele>366.3333333333333</ele><time>2026-04-04T09:04:35.999Z</time></trkpt><trkpt lat="45.62775254633547" lon="10.490234371209782"><ele>366.1666666666667</ele><time>2026-04-04T09:04:36.999Z</time></trkpt><trkpt lat="45.62780475201598" lon="10.490167141878091"><ele>366.0</ele><time>2026-04-04T09:04:37.999Z</time></trkpt><trkpt lat="45.62784823535487" lon="10.490076372251204"><ele>373.6666666666667</ele><time>2026-04-04T09:04:38.999Z</time></trkpt><trkpt lat="45.62787583535615" lon="10.489981037388906"><ele>381.33333333333337</ele><time>2026-04-04T09:04:39.999Z</time></trkpt><trkpt lat="45.62790453995955" lon="10.489857314031253"><ele>389.0</ele><time>2026-04-04T09:04:40.999Z</time></trkpt><trkpt lat="45.62793888331506" lon="10.489740155071981"><ele>396.6666666666667</ele><time>2026-04-04T09:04:41.999Z</time></trkpt><trkpt lat="45.62796857293178" lon="10.489658536118247"><ele>404.33333333333337</ele><time>2026-04-04T09:04:42.999Z</time></trkpt><trkpt lat="45.62799602647853" lon="10.489527128238208"><ele>412.0</ele><time>2026-04-04T09:04:44.999Z</time></trkpt><trkpt lat="45.62801276300278" lon="10.489378388442109"><ele>412.6</ele><time>2026-04-04T09:04:45.999Z</time></trkpt><trkpt lat="45.62804185565879" lon="10.489267188341243"><ele>413.20000000000005</ele><time>2026-04-04T09:04:46.999Z</time></trkpt><trkpt lat="45.628070162268905" lon="10.489184257060627"><ele>413.8</ele><time>2026-04-04T09:04:47.999Z</time></trkpt><trkpt lat="45.628117887551724" lon="10.489033211930414"><ele>414.4</ele><time>2026-04-04T09:04:49.999Z</time></trkpt><trkpt lat="45.628161139178665" lon="10.488853921278515"><ele>415.0</ele><time>2026-04-04T09:04:51.999Z</time></trkpt><trkpt lat="45.62815072976726" lon="10.4886897803446"><ele>415.00000000000006</ele><time>2026-04-04T09:04:53.999Z</time></trkpt><trkpt lat="45.62814916395332" lon="10.488586847446692"><ele>415.0</ele><time>2026-04-04T09:04:54.999Z</time></trkpt><trkpt lat="45.628163148800866" lon="10.48847467672598"><ele>415.0</ele><time>2026-04-04T09:04:55.999Z</time></trkpt><trkpt lat="45.628179665069574" lon="10.488372067822292"><ele>415.0</ele><time>2026-04-04T09:04:56.999Z</time></trkpt><trkpt lat="45.628201885705664" lon="10.48828519395067"><ele>415.00000000000006</ele><time>2026-04-04T09:04:57.999Z</time></trkpt><trkpt lat="45.62822382712055" lon="10.4881551913091"><ele>415.0</ele><time>2026-04-04T09:04:58.999Z</time></trkpt><trkpt lat="45.6282488855207" lon="10.488053248382933"><ele>415.00000000000006</ele><time>2026-04-04T09:04:59.999Z</time></trkpt><trkpt lat="45.6282614252141" lon="10.487958323233585"><ele>415.0</ele><time>2026-04-04T09:05:00.999Z</time></trkpt><trkpt lat="45.62826595580556" lon="10.487857958098827"><ele>415.0</ele><time>2026-04-04T09:05:01.999Z</time></trkpt><trkpt lat="45.62828177983364" lon="10.487741087119035"><ele>415.0</ele><time>2026-04-04T09:05:02.999Z</time></trkpt><trkpt lat="45.62830064123432" lon="10.487627627983487"><ele>415.00000000000006</ele><time>2026-04-04T09:05:03.999Z</time></trkpt><trkpt lat="45.62832141252643" lon="10.487504360776482"><ele>415.0</ele><time>2026-04-04T09:05:04.999Z</time></trkpt><trkpt lat="45.628337233855554" lon="10.487393191410547"><ele>413.83333333333337</ele><time>2026-04-04T09:05:05.999Z</time></trkpt><trkpt lat="45.62835359469036" lon="10.4873008153781"><ele>412.6666666666667</ele><time>2026-04-04T09:05:06.999Z</time></trkpt><trkpt lat="45.628387872223" lon="10.487215758969695"><ele>411.5</ele><time>2026-04-04T09:05:07.999Z</time></trkpt><trkpt lat="45.628433435602915" lon="10.487133812882965"><ele>410.33333333333337</ele><time>2026-04-04T09:05:08.999Z</time></trkpt><trkpt lat="45.62851743615083" lon="10.487015153006205"><ele>409.1666666666667</ele><time>2026-04-04T09:05:10.999Z</time></trkpt><trkpt lat="45.62857634443777" lon="10.486968834242738"><ele>408.0</ele><time>2026-04-04T09:05:11.999Z</time></trkpt><trkpt lat="45.628684662438886" lon="10.48694639887197"><ele>416.2</ele><time>2026-04-04T09:05:13.999Z</time></trkpt><trkpt lat="45.62875314399671" lon="10.486859211651007"><ele>424.4</ele><time>2026-04-04T09:05:15.999Z</time></trkpt><trkpt lat="45.628756667411594" lon="10.486676555859368"><ele>432.59999999999997</ele><time>2026-04-04T09:05:17.999Z</time></trkpt><trkpt lat="45.628762382766034" lon="10.486532968934817"><ele>440.79999999999995</ele><time>2026-04-04T09:05:18.999Z</time></trkpt><trkpt lat="45.62878118000132" lon="10.486413840446746"><ele>449.0</ele><time>2026-04-04T09:05:19.999Z</time></trkpt><trkpt lat="45.628802884684305" lon="10.486303118401333"><ele>449.16666666666663</ele><time>2026-04-04T09:05:20.999Z</time></trkpt><trkpt lat="45.628774745316484" lon="10.486213720907646"><ele>449.3333333333333</ele><time>2026-04-04T09:05:21.999Z</time></trkpt><trkpt lat="45.62874930218565" lon="10.48611159320823"><ele>449.5</ele><time>2026-04-04T09:05:22.999Z</time></trkpt><trkpt lat="45.628727483921416" lon="10.485998815150488"><ele>449.66666666666663</ele><time>2026-04-04T09:05:23.999Z</time></trkpt><trkpt lat="45.628705126533355" lon="10.48587731678429"><ele>449.8333333333333</ele><time>2026-04-04T09:05:24.999Z</time></trkpt><trkpt lat="45.62869574674056" lon="10.485763226261435"><ele>450.0</ele><time>2026-04-04T09:05:25.999Z</time></trkpt><trkpt lat="45.62871753022763" lon="10.485624088004737"><ele>450.0</ele><time>2026-04-04T09:05:26.999Z</time></trkpt><trkpt lat="45.62875735355263" lon="10.485494635362118"><ele>450.0</ele><time>2026-04-04T09:05:27.999Z</time></trkpt><trkpt lat="45.62881722943346" lon="10.485388250289583"><ele>450.0</ele><time>2026-04-04T09:05:28.999Z</time></trkpt><trkpt lat="45.62887691546916" lon="10.485310841834208"><ele>450.0</ele><time>2026-04-04T09:05:29.999Z</time></trkpt><trkpt lat="45.62894043577956" lon="10.485233784366939"><ele>450.0</ele><time>2026-04-04T09:05:30.999Z</time></trkpt><trkpt lat="45.6290444655514" lon="10.48511823840021"><ele>448.4</ele><time>2026-04-04T09:05:32.999Z</time></trkpt><trkpt lat="45.62910950503104" lon="10.485108234352728"><ele>446.8</ele><time>2026-04-04T09:05:33.999Z</time></trkpt><trkpt lat="45.62920563185609" lon="10.485086566271267"><ele>445.20000000000005</ele><time>2026-04-04T09:05:35.999Z</time></trkpt><trkpt lat="45.62920397994671" lon="10.484938753047874"><ele>443.6</ele><time>2026-04-04T09:05:38.999Z</time></trkpt><trkpt lat="45.629158264907716" lon="10.48480523115792"><ele>442.0</ele><time>2026-04-04T09:05:39.999Z</time></trkpt><trkpt lat="45.629143907452864" lon="10.484686858438623"><ele>440.8</ele><time>2026-04-04T09:05:40.999Z</time></trkpt><trkpt lat="45.629131794801076" lon="10.484557231950445"><ele>439.6</ele><time>2026-04-04T09:05:41.999Z</time></trkpt><trkpt lat="45.6291351985747" lon="10.484434241738175"><ele>438.40000000000003</ele><time>2026-04-04T09:05:42.999Z</time></trkpt><trkpt lat="45.62916111016871" lon="10.484310338153852"><ele>437.20000000000005</ele><time>2026-04-04T09:05:43.999Z</time></trkpt><trkpt lat="45.62915050486242" lon="10.484148596538049"><ele>436.0</ele><time>2026-04-04T09:05:44.999Z</time></trkpt><trkpt lat="45.62914038446199" lon="10.483997023884939"><ele>436.0</ele><time>2026-04-04T09:05:45.999Z</time></trkpt><trkpt lat="45.62917174182822" lon="10.483876527088238"><ele>436.0</ele><time>2026-04-04T09:05:46.999Z</time></trkpt><trkpt lat="45.629226478518014" lon="10.4837633843376"><ele>436.0</ele><time>2026-04-04T09:05:47.999Z</time></trkpt><trkpt lat="45.62928180840772" lon="10.48363918091286"><ele>436.0</ele><time>2026-04-04T09:05:49Z</time></trkpt><trkpt lat="45.62933829308775" lon="10.483564209826156"><ele>436.0</ele><time>2026-04-04T09:05:50Z</time></trkpt><trkpt lat="45.629340996400224" lon="10.48337505322086"><ele>433.8</ele><time>2026-04-04T09:05:52Z</time></trkpt><trkpt lat="45.62931689686545" lon="10.483251023862243"><ele>431.6</ele><time>2026-04-04T09:05:53Z</time></trkpt><trkpt lat="45.62931462578089" lon="10.483095331266673"><ele>429.4</ele><time>2026-04-04T09:05:54Z</time></trkpt><trkpt lat="45.629346681977594" lon="10.482942469804632"><ele>427.2</ele><time>2026-04-04T09:05:55Z</time></trkpt><trkpt lat="45.62936489260946" lon="10.482795999418371"><ele>425.0</ele><time>2026-04-04T09:05:56Z</time></trkpt><trkpt lat="45.62938589225348" lon="10.482655568383963"><ele>424.0</ele><time>2026-04-04T09:05:57Z</time></trkpt><trkpt lat="45.629454366042715" lon="10.482531465829243"><ele>423.0</ele><time>2026-04-04T09:05:58Z</time></trkpt><trkpt lat="45.62953891332585" lon="10.482454598023192"><ele>422.0</ele><time>2026-04-04T09:05:59Z</time></trkpt><trkpt lat="45.62958529465428" lon="10.482318827538077"><ele>421.0</ele><time>2026-04-04T09:06:00Z</time></trkpt><trkpt lat="45.629652837831095" lon="10.482212177510926"><ele>420.0</ele><time>2026-04-04T09:06:01Z</time></trkpt><trkpt lat="45.62970861866678" lon="10.482159317259777"><ele>430.0</ele><time>2026-04-04T09:06:02Z</time></trkpt><trkpt lat="45.62977201977114" lon="10.482126946643506"><ele>440.0</ele><time>2026-04-04T09:06:03Z</time></trkpt><trkpt lat="45.62974295360215" lon="10.482043247901563"><ele>450.0</ele><time>2026-04-04T09:06:05Z</time></trkpt><trkpt lat="45.62957727647539" lon="10.48185348049217"><ele>460.0</ele><time>2026-04-04T09:06:07Z</time></trkpt><trkpt lat="45.62950404345295" lon="10.481755884731575"><ele>470.0</ele><time>2026-04-04T09:06:08Z</time></trkpt><trkpt lat="45.629480605920286" lon="10.481659877807944"><ele>470.0</ele><time>2026-04-04T09:06:09Z</time></trkpt><trkpt lat="45.62952085817756" lon="10.481501841051958"><ele>470.0</ele><time>2026-04-04T09:06:11Z</time></trkpt><trkpt lat="45.62953255392787" lon="10.481362477620715"><ele>470.0</ele><time>2026-04-04T09:06:13Z</time></trkpt><trkpt lat="45.62958833576023" lon="10.481264960211178"><ele>470.0</ele><time>2026-04-04T09:06:15Z</time></trkpt><trkpt lat="45.62959493092331" lon="10.481103272584624"><ele>470.0</ele><time>2026-04-04T09:06:17Z</time></trkpt><trkpt lat="45.629614865658176" lon="10.480948074764196"><ele>471.2</ele><time>2026-04-04T09:06:19Z</time></trkpt><trkpt lat="45.629679633496025" lon="10.480798432226553"><ele>472.4</ele><time>2026-04-04T09:06:21Z</time></trkpt><trkpt lat="45.62971363418129" lon="10.480676555349996"><ele>473.6</ele><time>2026-04-04T09:06:22Z</time></trkpt><trkpt lat="45.62976203142811" lon="10.480575111528085"><ele>474.8</ele><time>2026-04-04T09:06:23Z</time></trkpt><trkpt lat="45.62981492966767" lon="10.480486674333983"><ele>476.0</ele><time>2026-04-04T09:06:24Z</time></trkpt><trkpt lat="45.629892844866056" lon="10.480458615365789"><ele>474.66666666666663</ele><time>2026-04-04T09:06:25Z</time></trkpt><trkpt lat="45.62996307654302" lon="10.480427612662679"><ele>473.3333333333333</ele><time>2026-04-04T09:06:26Z</time></trkpt><trkpt lat="45.630045293599736" lon="10.480422473869504"><ele>472.0</ele><time>2026-04-04T09:06:27.999Z</time></trkpt><trkpt lat="45.630004775917826" lon="10.480341012913382"><ele>470.66666666666663</ele><time>2026-04-04T09:06:29.999Z</time></trkpt><trkpt lat="45.629898176385765" lon="10.480264344571026"><ele>469.3333333333333</ele><time>2026-04-04T09:06:31.999Z</time></trkpt><trkpt lat="45.6298377185975" lon="10.48022527903547"><ele>468.0</ele><time>2026-04-04T09:06:32.999Z</time></trkpt><trkpt lat="45.6297869152494" lon="10.480138414380955"><ele>468.0</ele><time>2026-04-04T09:06:33.999Z</time></trkpt><trkpt lat="45.62975989379459" lon="10.480045688194885"><ele>468.0</ele><time>2026-04-04T09:06:34.999Z</time></trkpt><trkpt lat="45.6297579956044" lon="10.479930128058536"><ele>468.0</ele><time>2026-04-04T09:06:36.999Z</time></trkpt><trkpt lat="45.6297673832491" lon="10.479783991161723"><ele>468.0</ele><time>2026-04-04T09:06:38.999Z</time></trkpt><trkpt lat="45.62974851941571" lon="10.479692200395846"><ele>468.0</ele><time>2026-04-04T09:06:40.999Z</time></trkpt><trkpt lat="45.62968046561659" lon="10.479568810732072"><ele>468.0</ele><time>2026-04-04T09:06:43.999Z</time></trkpt><trkpt lat="45.62964998208297" lon="10.479481106297682"><ele>471.0</ele><time>2026-04-04T09:06:44.999Z</time></trkpt><trkpt lat="45.62963090611671" lon="10.479387416964194"><ele>474.00000000000006</ele><time>2026-04-04T09:06:45.999Z</time></trkpt><trkpt lat="45.629613966139694" lon="10.479293283473066"><ele>477.0</ele><time>2026-04-04T09:06:46.999Z</time></trkpt><trkpt lat="45.629600392521624" lon="10.47919719780135"><ele>480.0</ele><time>2026-04-04T09:06:48.999Z</time></trkpt><trkpt lat="45.62958127945172" lon="10.479107577722218"><ele>483.00000000000006</ele><time>2026-04-04T09:06:49.999Z</time></trkpt><trkpt lat="45.62956680301365" lon="10.479010083522473"><ele>486.0</ele><time>2026-04-04T09:06:50.999Z</time></trkpt><trkpt lat="45.62954832659278" lon="10.478901083907987"><ele>489.0</ele><time>2026-04-04T09:06:51.999Z</time></trkpt><trkpt lat="45.629553833462644" lon="10.478806535655435"><ele>488.4</ele><time>2026-04-04T09:06:52.999Z</time></trkpt><trkpt lat="45.629574711648026" lon="10.478711201346528"><ele>487.79999999999995</ele><time>2026-04-04T09:06:54.999Z</time></trkpt><trkpt lat="45.62952795397816" lon="10.478566263701797"><ele>487.20000000000005</ele><time>2026-04-04T09:06:56.999Z</time></trkpt><trkpt lat="45.629531418877995" lon="10.478465663068574"><ele>486.6</ele><time>2026-04-04T09:06:58.999Z</time></trkpt><trkpt lat="45.62945422238964" lon="10.478313134289643"><ele>486.0</ele><time>2026-04-04T09:07:00.999Z</time></trkpt><trkpt lat="45.62938680546435" lon="10.47827307790587"><ele>486.0</ele><time>2026-04-04T09:07:01.999Z</time></trkpt><trkpt lat="45.629311836604295" lon="10.478145404764891"><ele>486.0</ele><time>2026-04-04T09:07:03.999Z</time></trkpt><trkpt lat="45.629268837362446" lon="10.478073568119227"><ele>486.0</ele><time>2026-04-04T09:07:04.999Z</time></trkpt><trkpt lat="45.62923489904461" lon="10.477965767979619"><ele>486.0</ele><time>2026-04-04T09:07:07.999Z</time></trkpt><trkpt lat="45.629190692793436" lon="10.477875291036185"><ele>486.0</ele><time>2026-04-04T09:07:10.999Z</time></trkpt><trkpt lat="45.62914373006497" lon="10.477811736217056"><ele>486.0</ele><time>2026-04-04T09:07:23.999Z</time></trkpt><trkpt lat="45.62910854425207" lon="10.477724784722737"><ele>486.0</ele><time>2026-04-04T09:07:31.999Z</time></trkpt><trkpt lat="45.62906311882964" lon="10.477547776320371"><ele>486.0</ele><time>2026-04-04T09:08:55.999Z</time></trkpt><trkpt lat="45.62908266721651" lon="10.477636110141535"><ele>486.0</ele><time>2026-04-04T09:09:30.999Z</time></trkpt><trkpt lat="45.62908733728251" lon="10.477754699878638"><ele>486.0</ele><time>2026-04-04T09:11:03.999Z</time></trkpt><trkpt lat="45.62909675533246" lon="10.477860042725448"><ele>486.0</ele><time>2026-04-04T09:11:05.999Z</time></trkpt><trkpt lat="45.629067251846195" lon="10.477985397533356"><ele>486.0</ele><time>2026-04-04T09:11:33.999Z</time></trkpt><trkpt lat="45.62905820232739" lon="10.47807501369111"><ele>486.0</ele><time>2026-04-04T09:11:46.999Z</time></trkpt><trkpt lat="45.62905058489594" lon="10.478172291626029"><ele>486.0</ele><time>2026-04-04T09:11:49.999Z</time></trkpt><trkpt lat="45.628995410611175" lon="10.478229160095019"><ele>486.0</ele><time>2026-04-04T09:11:54.999Z</time></trkpt><trkpt lat="45.62895538905213" lon="10.478114474572074"><ele>486.0</ele><time>2026-04-04T09:12:21Z</time></trkpt><trkpt lat="45.62896183338364" lon="10.478001511299487"><ele>486.0</ele><time>2026-04-04T09:12:24Z</time></trkpt><trkpt lat="45.6289713984931" lon="10.477901439220128"><ele>486.0</ele><time>2026-04-04T09:12:26Z</time></trkpt><trkpt lat="45.628979136389205" lon="10.477786759862354"><ele>489.5</ele><time>2026-04-04T09:12:28Z</time></trkpt><trkpt lat="45.62896863919282" lon="10.477672143160277"><ele>493.0</ele><time>2026-04-04T09:12:31Z</time></trkpt><trkpt lat="45.62896372005234" lon="10.477535755130114"><ele>496.5</ele><time>2026-04-04T09:12:33Z</time></trkpt><trkpt lat="45.62894407778316" lon="10.477443187625708"><ele>500.0</ele><time>2026-04-04T09:12:35Z</time></trkpt><trkpt lat="45.62893127928499" lon="10.477337303735021"><ele>503.5</ele><time>2026-04-04T09:12:37Z</time></trkpt><trkpt lat="45.62890513917064" lon="10.477246785197796"><ele>507.0</ele><time>2026-04-04T09:12:38.999Z</time></trkpt><trkpt lat="45.62885233386618" lon="10.477152386485066"><ele>510.5</ele><time>2026-04-04T09:12:40.999Z</time></trkpt><trkpt lat="45.628838931399855" lon="10.477003693519404"><ele>514.0</ele><time>2026-04-04T09:12:43.999Z</time></trkpt><trkpt lat="45.628831708063366" lon="10.476891111589124"><ele>517.5</ele><time>2026-04-04T09:12:46.999Z</time></trkpt><trkpt lat="45.62880584417627" lon="10.476767895899279"><ele>521.0</ele><time>2026-04-04T09:12:49.999Z</time></trkpt><trkpt lat="45.62877389484679" lon="10.476656169076238"><ele>524.5</ele><time>2026-04-04T09:12:52.999Z</time></trkpt><trkpt lat="45.628759794106685" lon="10.476564480574481"><ele>528.0</ele><time>2026-04-04T09:12:55.999Z</time></trkpt><trkpt lat="45.62872153856596" lon="10.476476441118074"><ele>528.0</ele><time>2026-04-04T09:12:58.999Z</time></trkpt><trkpt lat="45.62869066109601" lon="10.476373678781016"><ele>528.0</ele><time>2026-04-04T09:13:01.999Z</time></trkpt><trkpt lat="45.62866981371045" lon="10.476277766209865"><ele>528.0</ele><time>2026-04-04T09:13:04.999Z</time></trkpt><trkpt lat="45.62867232553592" lon="10.476186976380557"><ele>528.0</ele><time>2026-04-04T09:13:09.999Z</time></trkpt><trkpt lat="45.62869315444101" lon="10.47609269498819"><ele>528.0</ele><time>2026-04-04T09:13:13.999Z</time></trkpt><trkpt lat="45.62869574626143" lon="10.475977433435679"><ele>528.0</ele><time>2026-04-04T09:13:15.999Z</time></trkpt><trkpt lat="45.62869099935855" lon="10.475822005829782"><ele>531.1666666666666</ele><time>2026-04-04T09:13:17.999Z</time></trkpt><trkpt lat="45.62869000779616" lon="10.475696634066797"><ele>534.3333333333334</ele><time>2026-04-04T09:13:20.999Z</time></trkpt><trkpt lat="45.628693499846776" lon="10.475577202117432"><ele>537.5</ele><time>2026-04-04T09:13:22.999Z</time></trkpt><trkpt lat="45.62869660954166" lon="10.47547875076823"><ele>540.6666666666667</ele><time>2026-04-04T09:13:24.999Z</time></trkpt><trkpt lat="45.6286839133124" lon="10.475355806508404"><ele>543.8333333333334</ele><time>2026-04-04T09:13:27.999Z</time></trkpt><trkpt lat="45.62862662294306" lon="10.475290965727337"><ele>547.0</ele><time>2026-04-04T09:13:30.999Z</time></trkpt><trkpt lat="45.62856363208953" lon="10.475296608049096"><ele>550.7142857142857</ele><time>2026-04-04T09:13:32.999Z</time></trkpt><trkpt lat="45.6284919454481" lon="10.475294405347306"><ele>554.4285714285713</ele><time>2026-04-04T09:13:34.999Z</time></trkpt><trkpt lat="45.62841627930894" lon="10.475313969613113"><ele>558.1428571428571</ele><time>2026-04-04T09:13:36.999Z</time></trkpt><trkpt lat="45.62834790522076" lon="10.475378723671714"><ele>561.8571428571429</ele><time>2026-04-04T09:13:38.999Z</time></trkpt><trkpt lat="45.62828177469816" lon="10.475428002429107"><ele>565.5714285714287</ele><time>2026-04-04T09:13:41.999Z</time></trkpt><trkpt lat="45.628263033705075" lon="10.475335205697105"><ele>569.2857142857143</ele><time>2026-04-04T09:13:45.999Z</time></trkpt><trkpt lat="45.62832588717886" lon="10.475272899564303"><ele>573.0</ele><time>2026-04-04T09:15:10.999Z</time></trkpt><trkpt lat="45.628264237739174" lon="10.475245747382191"><ele>573.0</ele><time>2026-04-04T09:16:02.999Z</time></trkpt><trkpt lat="45.62830733173193" lon="10.475129042324216"><ele>573.0</ele><time>2026-04-04T09:18:43.999Z</time></trkpt><trkpt lat="45.628342343433424" lon="10.47496121921787"><ele>573.0</ele><time>2026-04-04T09:18:45.999Z</time></trkpt><trkpt lat="45.62835898765238" lon="10.474868477656042"><ele>573.0</ele><time>2026-04-04T09:18:46.999Z</time></trkpt><trkpt lat="45.628388679190955" lon="10.474763497691303"><ele>573.0</ele><time>2026-04-04T09:18:48.999Z</time></trkpt><trkpt lat="45.62842188918709" lon="10.47464413180443"><ele>579.4</ele><time>2026-04-04T09:18:51.999Z</time></trkpt><trkpt lat="45.62844379754343" lon="10.474507316200507"><ele>585.8</ele><time>2026-04-04T09:18:54.999Z</time></trkpt><trkpt lat="45.62848101753799" lon="10.474421502031857"><ele>592.2</ele><time>2026-04-04T09:18:56.999Z</time></trkpt><trkpt lat="45.628508006827595" lon="10.47431575797924"><ele>598.6</ele><time>2026-04-04T09:18:58.999Z</time></trkpt><trkpt lat="45.62854140894489" lon="10.474168792419892"><ele>605.0</ele><time>2026-04-04T09:19:01.999Z</time></trkpt><trkpt lat="45.62857107272796" lon="10.474025652915484"><ele>605.0</ele><time>2026-04-04T09:19:03.999Z</time></trkpt><trkpt lat="45.628582346740856" lon="10.47393660985717"><ele>605.0</ele><time>2026-04-04T09:19:04.999Z</time></trkpt><trkpt lat="45.62862472105627" lon="10.473815174900968"><ele>605.0</ele><time>2026-04-04T09:19:06.999Z</time></trkpt><trkpt lat="45.6286371472179" lon="10.473686267841579"><ele>605.0</ele><time>2026-04-04T09:19:09.999Z</time></trkpt><trkpt lat="45.62859385141463" lon="10.473548629178648"><ele>605.0</ele><time>2026-04-04T09:19:12.999Z</time></trkpt><trkpt lat="45.62859449035163" lon="10.473457517814474"><ele>605.0</ele><time>2026-04-04T09:19:13.999Z</time></trkpt><trkpt lat="45.6285835397023" lon="10.473334653640482"><ele>606.5</ele><time>2026-04-04T09:19:15.999Z</time></trkpt><trkpt lat="45.62855835257936" lon="10.473203535442453"><ele>608.0</ele><time>2026-04-04T09:19:16.999Z</time></trkpt><trkpt lat="45.62853206378472" lon="10.473099987203556"><ele>609.5</ele><time>2026-04-04T09:19:18.999Z</time></trkpt><trkpt lat="45.62850565932653" lon="10.473017831939915"><ele>611.0</ele><time>2026-04-04T09:19:19.999Z</time></trkpt><trkpt lat="45.62846785055466" lon="10.472917677077774"><ele>612.5</ele><time>2026-04-04T09:19:22.999Z</time></trkpt><trkpt lat="45.62842336112196" lon="10.472817315783423"><ele>614.0</ele><time>2026-04-04T09:19:25.999Z</time></trkpt><trkpt lat="45.628380503842585" lon="10.472742472440915"><ele>614.8571428571428</ele><time>2026-04-04T09:19:27.999Z</time></trkpt><trkpt lat="45.62835046647065" lon="10.472650396783342"><ele>615.7142857142857</ele><time>2026-04-04T09:20:09.998Z</time></trkpt><trkpt lat="45.62831166475295" lon="10.472575824631635"><ele>616.5714285714286</ele><time>2026-04-04T09:20:12.998Z</time></trkpt><trkpt lat="45.62827000209449" lon="10.472501948961613"><ele>617.4285714285713</ele><time>2026-04-04T09:20:32.999Z</time></trkpt><trkpt lat="45.628203074560645" lon="10.472522750377523"><ele>618.2857142857142</ele><time>2026-04-04T09:20:41.999Z</time></trkpt><trkpt lat="45.628180006817246" lon="10.472607252495928"><ele>619.1428571428571</ele><time>2026-04-04T09:20:50.999Z</time></trkpt><trkpt lat="45.62813224737861" lon="10.472669261315465"><ele>620.0</ele><time>2026-04-04T09:20:54.999Z</time></trkpt><trkpt lat="45.62807299269541" lon="10.472631342254147"><ele>620.0</ele><time>2026-04-04T09:20:57.999Z</time></trkpt><trkpt lat="45.62803923940833" lon="10.472542612773232"><ele>620.0</ele><time>2026-04-04T09:20:59.999Z</time></trkpt><trkpt lat="45.62799034769501" lon="10.472413191425934"><ele>620.0</ele><time>2026-04-04T09:21:03.999Z</time></trkpt><trkpt lat="45.62796126623132" lon="10.472332547492979"><ele>620.0</ele><time>2026-04-04T09:21:05.999Z</time></trkpt><trkpt lat="45.62791882198253" lon="10.47224433007364"><ele>620.0</ele><time>2026-04-04T09:21:11.999Z</time></trkpt><trkpt lat="45.627869830127224" lon="10.47212111534685"><ele>620.0</ele><time>2026-04-04T09:23:06.999Z</time></trkpt><trkpt lat="45.627871623714526" lon="10.47199345202683"><ele>624.0</ele><time>2026-04-04T09:23:08.999Z</time></trkpt><trkpt lat="45.62792039707957" lon="10.471805559115205"><ele>628.0</ele><time>2026-04-04T09:23:10.999Z</time></trkpt><trkpt lat="45.627938191640645" lon="10.47170859411037"><ele>632.0</ele><time>2026-04-04T09:23:11.999Z</time></trkpt><trkpt lat="45.6279985396016" lon="10.471632379179226"><ele>636.0</ele><time>2026-04-04T09:23:12.999Z</time></trkpt><trkpt lat="45.62803957839706" lon="10.471562494560978"><ele>640.0</ele><time>2026-04-04T09:23:13.999Z</time></trkpt><trkpt lat="45.628095700496594" lon="10.471441350737823"><ele>640.0</ele><time>2026-04-04T09:23:17.999Z</time></trkpt><trkpt lat="45.628181765701484" lon="10.471369543921385"><ele>640.0</ele><time>2026-04-04T09:23:19.999Z</time></trkpt><trkpt lat="45.62821326258611" lon="10.471286170368181"><ele>640.0</ele><time>2026-04-04T09:23:24.999Z</time></trkpt><trkpt lat="45.62815466356806" lon="10.471249167647523"><ele>640.0</ele><time>2026-04-04T09:23:26.999Z</time></trkpt><trkpt lat="45.6280517630437" lon="10.471223276270374"><ele>640.0</ele><time>2026-04-04T09:23:28.999Z</time></trkpt><trkpt lat="45.62798610858317" lon="10.471213512124983"><ele>640.0</ele><time>2026-04-04T09:23:32.999Z</time></trkpt><trkpt lat="45.6279112696399" lon="10.471293864924963"><ele>639.1666666666667</ele><time>2026-04-04T09:24:18.999Z</time></trkpt><trkpt lat="45.62783022795505" lon="10.471271962785497"><ele>638.3333333333334</ele><time>2026-04-04T09:25:01Z</time></trkpt><trkpt lat="45.6277722009348" lon="10.471402926282284"><ele>637.5</ele><time>2026-04-04T09:25:04Z</time></trkpt><trkpt lat="45.6277274773946" lon="10.471488527821467"><ele>636.6666666666666</ele><time>2026-04-04T09:25:07Z</time></trkpt><trkpt lat="45.62766575063643" lon="10.4715078953526"><ele>635.8333333333333</ele><time>2026-04-04T09:25:09Z</time></trkpt><trkpt lat="45.62756204230784" lon="10.471555025675684"><ele>635.0</ele><time>2026-04-04T09:25:10.999Z</time></trkpt><trkpt lat="45.62749658840829" lon="10.471620861348711"><ele>638.0</ele><time>2026-04-04T09:25:12.999Z</time></trkpt><trkpt lat="45.62744581160498" lon="10.471714381125883"><ele>641.0</ele><time>2026-04-04T09:25:14.999Z</time></trkpt><trkpt lat="45.6273635173507" lon="10.471766509950697"><ele>644.0</ele><time>2026-04-04T09:25:17.999Z</time></trkpt><trkpt lat="45.627343071536394" lon="10.471859337458943"><ele>647.0</ele><time>2026-04-04T09:25:19.999Z</time></trkpt><trkpt lat="45.62732137629147" lon="10.471947848555526"><ele>650.0</ele><time>2026-04-04T09:25:21.999Z</time></trkpt><trkpt lat="45.62726400537759" lon="10.472028145945396"><ele>653.0</ele><time>2026-04-04T09:25:23.999Z</time></trkpt><trkpt lat="45.6272177567031" lon="10.47211054494031"><ele>653.8571428571429</ele><time>2026-04-04T09:25:26.999Z</time></trkpt><trkpt lat="45.6271725592936" lon="10.47217928475062"><ele>654.7142857142858</ele><time>2026-04-04T09:25:30.999Z</time></trkpt><trkpt lat="45.62714873874989" lon="10.472264105725438"><ele>655.5714285714287</ele><time>2026-04-04T09:25:38.999Z</time></trkpt><trkpt lat="45.62707542032752" lon="10.472322925190383"><ele>656.4285714285714</ele><time>2026-04-04T09:27:34Z</time></trkpt><trkpt lat="45.62700481316692" lon="10.472333930232413"><ele>657.2857142857142</ele><time>2026-04-04T09:27:39Z</time></trkpt><trkpt lat="45.62694293793423" lon="10.47235612800773"><ele>658.1428571428572</ele><time>2026-04-04T09:27:47Z</time></trkpt><trkpt lat="45.62687059470752" lon="10.472315682670821"><ele>659.0</ele><time>2026-04-04T09:28:04Z</time></trkpt><trkpt lat="45.6267745986316" lon="10.472306375536645"><ele>666.6666666666666</ele><time>2026-04-04T09:28:29Z</time></trkpt><trkpt lat="45.6267040823465" lon="10.472329030689247"><ele>674.3333333333333</ele><time>2026-04-04T09:28:32Z</time></trkpt><trkpt lat="45.6266266103732" lon="10.472328887114424"><ele>682.0</ele><time>2026-04-04T09:28:35Z</time></trkpt><trkpt lat="45.62653666081291" lon="10.47232848835902"><ele>689.6666666666666</ele><time>2026-04-04T09:28:37Z</time></trkpt><trkpt lat="45.62645253686214" lon="10.472334858244446"><ele>697.3333333333334</ele><time>2026-04-04T09:28:39Z</time></trkpt><trkpt lat="45.62635709181014" lon="10.472320664493331"><ele>705.0</ele><time>2026-04-04T09:28:42Z</time></trkpt><trkpt lat="45.62626465594988" lon="10.472357387068218"><ele>705.0</ele><time>2026-04-04T09:28:44Z</time></trkpt><trkpt lat="45.626188992614985" lon="10.4724117763855"><ele>705.0</ele><time>2026-04-04T09:28:46Z</time></trkpt><trkpt lat="45.626110059888816" lon="10.472393654237958"><ele>705.0</ele><time>2026-04-04T09:28:49Z</time></trkpt><trkpt lat="45.626037272494" lon="10.472381548732926"><ele>705.0</ele><time>2026-04-04T09:28:51Z</time></trkpt><trkpt lat="45.62596329441938" lon="10.472361651568564"><ele>705.0</ele><time>2026-04-04T09:28:54.001Z</time></trkpt><trkpt lat="45.62589006212956" lon="10.472334442502175"><ele>705.0</ele><time>2026-04-04T09:29:25.001Z</time></trkpt><trkpt lat="45.62585463041972" lon="10.472249205088573"><ele>705.3333333333334</ele><time>2026-04-04T09:29:33Z</time></trkpt><trkpt lat="45.62580670630122" lon="10.47217595047329"><ele>705.6666666666666</ele><time>2026-04-04T09:29:35Z</time></trkpt><trkpt lat="45.625744785655826" lon="10.472061423405014"><ele>706.0</ele><time>2026-04-04T09:29:37Z</time></trkpt><trkpt lat="45.62570101920084" lon="10.471972888097433"><ele>706.3333333333333</ele><time>2026-04-04T09:29:39Z</time></trkpt><trkpt lat="45.62563273506249" lon="10.471848509099715"><ele>706.6666666666666</ele><time>2026-04-04T09:29:41Z</time></trkpt><trkpt lat="45.62558442235431" lon="10.471749492749598"><ele>707.0</ele><time>2026-04-04T09:29:45Z</time></trkpt><trkpt lat="45.62552912190011" lon="10.471665014624975"><ele>706.0</ele><time>2026-04-04T09:29:47Z</time></trkpt><trkpt lat="45.62552438020604" lon="10.471565424427238"><ele>705.0</ele><time>2026-04-04T09:29:49Z</time></trkpt><trkpt lat="45.625482654794155" lon="10.471486171478233"><ele>704.0</ele><time>2026-04-04T09:29:51Z</time></trkpt><trkpt lat="45.6253950304591" lon="10.471365257585694"><ele>703.0</ele><time>2026-04-04T09:29:53Z</time></trkpt><trkpt lat="45.625349428646125" lon="10.471301846554008"><ele>702.0</ele><time>2026-04-04T09:29:54Z</time></trkpt><trkpt lat="45.62529566294592" lon="10.47118754901996"><ele>701.0</ele><time>2026-04-04T09:29:56Z</time></trkpt><trkpt lat="45.62523355547284" lon="10.471144623475391"><ele>701.0</ele><time>2026-04-04T09:29:59Z</time></trkpt><trkpt lat="45.62518082059514" lon="10.471090823389037"><ele>701.0</ele><time>2026-04-04T09:30:01Z</time></trkpt><trkpt lat="45.625121393742454" lon="10.470995239449996"><ele>701.0</ele><time>2026-04-04T09:30:04Z</time></trkpt><trkpt lat="45.62505426589001" lon="10.470916112728313"><ele>701.0</ele><time>2026-04-04T09:30:07Z</time></trkpt><trkpt lat="45.62499951134989" lon="10.470849191740614"><ele>701.0</ele><time>2026-04-04T09:30:09Z</time></trkpt><trkpt lat="45.624952032452256" lon="10.470785911444247"><ele>701.0</ele><time>2026-04-04T09:30:11Z</time></trkpt><trkpt lat="45.624902918822826" lon="10.470705694503906"><ele>701.0</ele><time>2026-04-04T09:30:15Z</time></trkpt><trkpt lat="45.624846256879444" lon="10.470594892163692"><ele>701.0</ele><time>2026-04-04T09:30:19Z</time></trkpt><trkpt lat="45.624773398925576" lon="10.470535295837136"><ele>701.0</ele><time>2026-04-04T09:30:21Z</time></trkpt><trkpt lat="45.62470226314581" lon="10.470414300872099"><ele>701.0</ele><time>2026-04-04T09:30:25Z</time></trkpt><trkpt lat="45.62465252533037" lon="10.470354371787709"><ele>701.0</ele><time>2026-04-04T09:30:28Z</time></trkpt><trkpt lat="45.62458748641462" lon="10.47032042682115"><ele>701.0</ele><time>2026-04-04T09:30:31Z</time></trkpt><trkpt lat="45.62455970148654" lon="10.470229936215151"><ele>701.3333333333333</ele><time>2026-04-04T09:30:34Z</time></trkpt><trkpt lat="45.6244986997781" lon="10.470178469348959"><ele>701.6666666666666</ele><time>2026-04-04T09:30:39Z</time></trkpt><trkpt lat="45.62441100492798" lon="10.470107917926637"><ele>702.0</ele><time>2026-04-04T09:31:29Z</time></trkpt><trkpt lat="45.62435869528608" lon="10.470024277820784"><ele>702.3333333333334</ele><time>2026-04-04T09:36:41Z</time></trkpt><trkpt lat="45.62428904777475" lon="10.46990238437688"><ele>702.6666666666667</ele><time>2026-04-04T09:36:44Z</time></trkpt><trkpt lat="45.6242158664919" lon="10.469866880744647"><ele>703.0</ele><time>2026-04-04T09:36:47Z</time></trkpt><trkpt lat="45.6241592164987" lon="10.469791283716786"><ele>703.0</ele><time>2026-04-04T09:36:55Z</time></trkpt><trkpt lat="45.624114206314935" lon="10.469705294646035"><ele>703.0</ele><time>2026-04-04T09:37:00.999Z</time></trkpt><trkpt lat="45.62407729765333" lon="10.469629795283156"><ele>703.0</ele><time>2026-04-04T09:37:02.999Z</time></trkpt><trkpt lat="45.62402123940394" lon="10.469566977385213"><ele>703.0</ele><time>2026-04-04T09:37:04.999Z</time></trkpt><trkpt lat="45.623951206019164" lon="10.469458964557683"><ele>703.0</ele><time>2026-04-04T09:37:07.999Z</time></trkpt><trkpt lat="45.62389974257354" lon="10.469376114683103"><ele>703.0</ele><time>2026-04-04T09:37:10.999Z</time></trkpt><trkpt lat="45.623844714868085" lon="10.469272125157175"><ele>704.8571428571429</ele><time>2026-04-04T09:37:13.999Z</time></trkpt><trkpt lat="45.62379339783138" lon="10.469153642594566"><ele>706.7142857142858</ele><time>2026-04-04T09:37:15.999Z</time></trkpt><trkpt lat="45.62377557389362" lon="10.469065571738962"><ele>708.5714285714287</ele><time>2026-04-04T09:37:18Z</time></trkpt><trkpt lat="45.623738833191965" lon="10.468987787708313"><ele>710.4285714285714</ele><time>2026-04-04T09:37:21Z</time></trkpt><trkpt lat="45.62370425100909" lon="10.46891022299805"><ele>712.2857142857143</ele><time>2026-04-04T09:37:23Z</time></trkpt><trkpt lat="45.623655700036174" lon="10.468846323382905"><ele>714.1428571428572</ele><time>2026-04-04T09:37:25Z</time></trkpt><trkpt lat="45.62361342763066" lon="10.46877045187567"><ele>716.0</ele><time>2026-04-04T09:37:28Z</time></trkpt><trkpt lat="45.62355120768873" lon="10.468722541648763"><ele>721.1666666666666</ele><time>2026-04-04T09:37:32Z</time></trkpt><trkpt lat="45.623547494878125" lon="10.468596756133808"><ele>726.3333333333333</ele><time>2026-04-04T09:37:34Z</time></trkpt><trkpt lat="45.623521952977526" lon="10.468483167802303"><ele>731.5</ele><time>2026-04-04T09:37:59Z</time></trkpt><trkpt lat="45.6234655435578" lon="10.46837072509485"><ele>736.6666666666666</ele><time>2026-04-04T09:38:01Z</time></trkpt><trkpt lat="45.623417012594615" lon="10.468310405052733"><ele>741.8333333333334</ele><time>2026-04-04T09:38:03Z</time></trkpt><trkpt lat="45.62339523145767" lon="10.468173267340568"><ele>747.0</ele><time>2026-04-04T09:38:07Z</time></trkpt><trkpt lat="45.62337201837848" lon="10.468057279538815"><ele>747.0</ele><time>2026-04-04T09:38:09Z</time></trkpt><trkpt lat="45.62332501835437" lon="10.467966556641452"><ele>747.0</ele><time>2026-04-04T09:38:12Z</time></trkpt><trkpt lat="45.62325918774689" lon="10.467894992283126"><ele>747.0</ele><time>2026-04-04T09:38:16Z</time></trkpt><trkpt lat="45.62324117207722" lon="10.46780219872076"><ele>747.0</ele><time>2026-04-04T09:38:19Z</time></trkpt><trkpt lat="45.62317737436341" lon="10.467735794537816"><ele>747.0</ele><time>2026-04-04T09:38:22Z</time></trkpt><trkpt lat="45.623124811299135" lon="10.467639330633347"><ele>747.0</ele><time>2026-04-04T09:38:25Z</time></trkpt><trkpt lat="45.62307727176502" lon="10.467571220271063"><ele>750.0</ele><time>2026-04-04T09:38:28Z</time></trkpt><trkpt lat="45.62300469856841" lon="10.467533287743061"><ele>753.0</ele><time>2026-04-04T09:38:29Z</time></trkpt><trkpt lat="45.622909659289334" lon="10.467458139176516"><ele>756.0</ele><time>2026-04-04T09:38:31Z</time></trkpt><trkpt lat="45.62284440412283" lon="10.467413833114795"><ele>759.0</ele><time>2026-04-04T09:38:32Z</time></trkpt><trkpt lat="45.622773697013024" lon="10.467384384652373"><ele>762.0</ele><time>2026-04-04T09:38:34Z</time></trkpt><trkpt lat="45.62271856206801" lon="10.467336415449626"><ele>765.0</ele><time>2026-04-04T09:38:39Z</time></trkpt><trkpt lat="45.62263700585564" lon="10.46728129107733"><ele>767.6666666666666</ele><time>2026-04-04T09:38:55.999Z</time></trkpt><trkpt lat="45.62256149227402" lon="10.46722859769241"><ele>770.3333333333333</ele><time>2026-04-04T09:38:57.999Z</time></trkpt><trkpt lat="45.6224999388416" lon="10.467185526908832"><ele>773.0</ele><time>2026-04-04T09:38:59.999Z</time></trkpt><trkpt lat="45.62241172910581" lon="10.467149255926117"><ele>775.6666666666666</ele><time>2026-04-04T09:39:01.999Z</time></trkpt><trkpt lat="45.622334039885274" lon="10.467108798912797"><ele>778.3333333333333</ele><time>2026-04-04T09:39:04.999Z</time></trkpt><trkpt lat="45.62229089764503" lon="10.467032666611889"><ele>781.0</ele><time>2026-04-04T09:39:06.999Z</time></trkpt><trkpt lat="45.62222828882233" lon="10.466933643550645"><ele>785.9999999999999</ele><time>2026-04-04T09:39:29Z</time></trkpt><trkpt lat="45.62231070147187" lon="10.466914486683812"><ele>791.0</ele><time>2026-04-04T09:39:33Z</time></trkpt><trkpt lat="45.622379873353395" lon="10.46686725413747"><ele>796.0</ele><time>2026-04-04T09:39:35Z</time></trkpt><trkpt lat="45.62245865840614" lon="10.466866548026024"><ele>801.0</ele><time>2026-04-04T09:39:37Z</time></trkpt><trkpt lat="45.622541758647515" lon="10.466823643363409"><ele>805.9999999999999</ele><time>2026-04-04T09:39:39Z</time></trkpt><trkpt lat="45.62247125543147" lon="10.466748149568494"><ele>811.0</ele><time>2026-04-04T09:40:30Z</time></trkpt><trkpt lat="45.62239911572472" lon="10.466704299882153"><ele>810.9999999999999</ele><time>2026-04-04T09:40:34Z</time></trkpt><trkpt lat="45.62232559405829" lon="10.466676648479803"><ele>811.0</ele><time>2026-04-04T09:41:16.999Z</time></trkpt><trkpt lat="45.622268385095836" lon="10.466631010827664"><ele>811.0</ele><time>2026-04-04T09:41:25.999Z</time></trkpt><trkpt lat="45.622202191283016" lon="10.466619369787557"><ele>811.0</ele><time>2026-04-04T09:41:49Z</time></trkpt><trkpt lat="45.622241611928914" lon="10.466499706379322"><ele>810.9999999999999</ele><time>2026-04-04T09:42:51Z</time></trkpt><trkpt lat="45.62214253012469" lon="10.466482893361098"><ele>811.0</ele><time>2026-04-04T09:43:20.999Z</time></trkpt><trkpt lat="45.62217752941782" lon="10.466387612317874"><ele>811.0</ele><time>2026-04-04T09:43:28.999Z</time></trkpt><trkpt lat="45.62215450232672" lon="10.466300643257135"><ele>811.0</ele><time>2026-04-04T09:43:38Z</time></trkpt><trkpt lat="45.62208554004057" lon="10.466282765455466"><ele>811.0</ele><time>2026-04-04T09:43:44Z</time></trkpt><trkpt lat="45.62204737662658" lon="10.466197080123719"><ele>811.0</ele><time>2026-04-04T09:43:47Z</time></trkpt><trkpt lat="45.621968864131794" lon="10.466163352692773"><ele>811.0</ele><time>2026-04-04T09:43:49Z</time></trkpt><trkpt lat="45.62190905735624" lon="10.466129649127993"><ele>811.0</ele><time>2026-04-04T09:43:51Z</time></trkpt><trkpt lat="45.62183528568369" lon="10.466093112572038"><ele>811.0</ele><time>2026-04-04T09:43:54Z</time></trkpt><trkpt lat="45.62176797198993" lon="10.466090810374302"><ele>818.2857142857142</ele><time>2026-04-04T09:43:56Z</time></trkpt><trkpt lat="45.62170624604678" lon="10.466050448250733"><ele>825.5714285714287</ele><time>2026-04-04T09:43:58Z</time></trkpt><trkpt lat="45.62164373232996" lon="10.466036109090092"><ele>832.8571428571429</ele><time>2026-04-04T09:44:03Z</time></trkpt><trkpt lat="45.6215868129743" lon="10.466106231862955"><ele>840.1428571428571</ele><time>2026-04-04T09:46:48Z</time></trkpt><trkpt lat="45.62151555396534" lon="10.466075431103611"><ele>847.4285714285713</ele><time>2026-04-04T09:46:51Z</time></trkpt><trkpt lat="45.62157818244826" lon="10.466102618438168"><ele>854.7142857142858</ele><time>2026-04-04T09:47:23.999Z</time></trkpt><trkpt lat="45.621506358838836" lon="10.466059879339493"><ele>862.0</ele><time>2026-04-04T09:47:25.999Z</time></trkpt><trkpt lat="45.62155142286423" lon="10.465978781299167"><ele>862.0</ele><time>2026-04-04T09:47:35.999Z</time></trkpt><trkpt lat="45.621607623912816" lon="10.46589987355804"><ele>862.0</ele><time>2026-04-04T09:47:39.999Z</time></trkpt><trkpt lat="45.62164786619031" lon="10.465814790085979"><ele>862.0</ele><time>2026-04-04T09:47:43.999Z</time></trkpt><trkpt lat="45.62160620438884" lon="10.465729205700448"><ele>862.0</ele><time>2026-04-04T09:47:51Z</time></trkpt><trkpt lat="45.62155123523144" lon="10.465647888959376"><ele>862.0</ele><time>2026-04-04T09:47:55Z</time></trkpt><trkpt lat="45.62151462188625" lon="10.46556274675565"><ele>862.0</ele><time>2026-04-04T09:47:58Z</time></trkpt><trkpt lat="45.621465632831175" lon="10.465480232192006"><ele>862.0</ele><time>2026-04-04T09:48:01Z</time></trkpt><trkpt lat="45.621478120940374" lon="10.465572842416547"><ele>862.0</ele><time>2026-04-04T09:48:37Z</time></trkpt><trkpt lat="45.62145409141598" lon="10.465659659326038"><ele>862.0</ele><time>2026-04-04T09:48:41Z</time></trkpt><trkpt lat="45.62143518774814" lon="10.46574615965617"><ele>862.0</ele><time>2026-04-04T09:48:48Z</time></trkpt><trkpt lat="45.62144949298808" lon="10.465653724452588"><ele>862.0</ele><time>2026-04-04T09:51:52.999Z</time></trkpt><trkpt lat="45.62145303998417" lon="10.465555419960738"><ele>862.0</ele><time>2026-04-04T09:52:24Z</time></trkpt><trkpt lat="45.62141524808046" lon="10.465479885313014"><ele>862.0</ele><time>2026-04-04T09:52:37Z</time></trkpt><trkpt lat="45.62135633475291" lon="10.46536115480245"><ele>862.0</ele><time>2026-04-04T09:53:00Z</time></trkpt><trkpt lat="45.62131498933877" lon="10.465275811425693"><ele>862.1428571428572</ele><time>2026-04-04T09:53:02Z</time></trkpt><trkpt lat="45.621245581857075" lon="10.46523354637052"><ele>862.2857142857142</ele><time>2026-04-04T09:53:05Z</time></trkpt><trkpt lat="45.62118243522679" lon="10.465243194555718"><ele>862.4285714285714</ele><time>2026-04-04T09:53:09Z</time></trkpt><trkpt lat="45.62112971274388" lon="10.465182306656484"><ele>862.5714285714287</ele><time>2026-04-04T09:56:32Z</time></trkpt><trkpt lat="45.62119303245559" lon="10.465197518802073"><ele>862.7142857142858</ele><time>2026-04-04T09:58:54Z</time></trkpt><trkpt lat="45.621153455599114" lon="10.465274441169344"><ele>862.8571428571429</ele><time>2026-04-04T09:59:24Z</time></trkpt><trkpt lat="45.62113502631198" lon="10.465178894887933"><ele>863.0</ele><time>2026-04-04T09:59:44.999Z</time></trkpt><trkpt lat="45.62116711719904" lon="10.46507269052529"><ele>863.0000000000001</ele><time>2026-04-04T10:03:27Z</time></trkpt><trkpt lat="45.62116379453921" lon="10.465167894520011"><ele>863.0</ele><time>2026-04-04T10:07:14Z</time></trkpt><trkpt lat="45.62113202351925" lon="10.465248894156986"><ele>863.0</ele><time>2026-04-04T10:09:35Z</time></trkpt><trkpt lat="45.62106348775368" lon="10.465250276802088"><ele>863.0</ele><time>2026-04-04T10:09:39.999Z</time></trkpt><trkpt lat="45.621001967938675" lon="10.465166652504946"><ele>863.0</ele><time>2026-04-04T10:09:45.999Z</time></trkpt><trkpt lat="45.62100433111389" lon="10.465068324132641"><ele>863.0000000000001</ele><time>2026-04-04T10:09:50.999Z</time></trkpt><trkpt lat="45.62099769042326" lon="10.464959449361302"><ele>863.0</ele><time>2026-04-04T10:09:55.999Z</time></trkpt><trkpt lat="45.62099326533822" lon="10.464865681463516"><ele>863.0000000000001</ele><time>2026-04-04T10:09:58.999Z</time></trkpt><trkpt lat="45.620971525438485" lon="10.464754504901366"><ele>863.0</ele><time>2026-04-04T10:10:03.999Z</time></trkpt><trkpt lat="45.62096482857932" lon="10.464637178091811"><ele>863.0</ele><time>2026-04-04T10:10:09.999Z</time></trkpt><trkpt lat="45.62098414959931" lon="10.46452388409196"><ele>863.0</ele><time>2026-04-04T10:10:14.999Z</time></trkpt><trkpt lat="45.62100381213219" lon="10.464419637183225"><ele>863.0000000000001</ele><time>2026-04-04T10:10:17.999Z</time></trkpt><trkpt lat="45.62100039943457" lon="10.464319987489448"><ele>863.0</ele><time>2026-04-04T10:10:19.999Z</time></trkpt><trkpt lat="45.62101205980448" lon="10.464220545107136"><ele>861.5000000000001</ele><time>2026-04-04T10:10:21.999Z</time></trkpt><trkpt lat="45.62101542345884" lon="10.464102380893396"><ele>860.0</ele><time>2026-04-04T10:10:23.999Z</time></trkpt><trkpt lat="45.62099738207034" lon="10.463943737469307"><ele>858.5</ele><time>2026-04-04T10:10:26.999Z</time></trkpt><trkpt lat="45.62101794976505" lon="10.463816053225548"><ele>857.0</ele><time>2026-04-04T10:10:28.999Z</time></trkpt><trkpt lat="45.62101133772888" lon="10.463709011693876"><ele>855.5000000000001</ele><time>2026-04-04T10:10:31.999Z</time></trkpt><trkpt lat="45.62101555942293" lon="10.463602435544056"><ele>854.0</ele><time>2026-04-04T10:10:33.999Z</time></trkpt><trkpt lat="45.620988788290646" lon="10.46349850538224"><ele>853.0000000000001</ele><time>2026-04-04T10:10:35.999Z</time></trkpt><trkpt lat="45.620962231129155" lon="10.463405881416467"><ele>852.0</ele><time>2026-04-04T10:10:37.999Z</time></trkpt><trkpt lat="45.620932673146015" lon="10.463324441464769"><ele>851.0</ele><time>2026-04-04T10:10:41.999Z</time></trkpt><trkpt lat="45.620896282897135" lon="10.463228504375538"><ele>850.0</ele><time>2026-04-04T10:10:53Z</time></trkpt><trkpt lat="45.62088648317492" lon="10.463119431110991"><ele>849.0000000000001</ele><time>2026-04-04T10:10:56Z</time></trkpt><trkpt lat="45.62087516611582" lon="10.462976870501521"><ele>848.0</ele><time>2026-04-04T10:10:58Z</time></trkpt><trkpt lat="45.62085613815431" lon="10.462849054873297"><ele>847.0</ele><time>2026-04-04T10:11:00Z</time></trkpt><trkpt lat="45.62085091873977" lon="10.462725616190275"><ele>846.0</ele><time>2026-04-04T10:11:02Z</time></trkpt><trkpt lat="45.62083226802946" lon="10.462605704193452"><ele>845.0</ele><time>2026-04-04T10:11:04Z</time></trkpt><trkpt lat="45.62081666836378" lon="10.462482039532947"><ele>844.0</ele><time>2026-04-04T10:11:06Z</time></trkpt><trkpt lat="45.620793825547935" lon="10.462344798926067"><ele>843.0</ele><time>2026-04-04T10:11:08Z</time></trkpt><trkpt lat="45.62074048260452" lon="10.462239029613649"><ele>844.4</ele><time>2026-04-04T10:11:10Z</time></trkpt><trkpt lat="45.62069992196472" lon="10.462078380645147"><ele>845.8</ele><time>2026-04-04T10:11:12Z</time></trkpt><trkpt lat="45.620688109815994" lon="10.461965067811969"><ele>847.2</ele><time>2026-04-04T10:11:13Z</time></trkpt><trkpt lat="45.62067137632052" lon="10.461860387896136"><ele>848.6</ele><time>2026-04-04T10:11:14Z</time></trkpt><trkpt lat="45.62063850380068" lon="10.461731312762756"><ele>850.0</ele><time>2026-04-04T10:11:16Z</time></trkpt><trkpt lat="45.620622876349564" lon="10.461601117827115"><ele>850.0</ele><time>2026-04-04T10:11:18Z</time></trkpt><trkpt lat="45.62062100065161" lon="10.46146438429657"><ele>850.0</ele><time>2026-04-04T10:11:20Z</time></trkpt><trkpt lat="45.62059009024179" lon="10.461336482618849"><ele>850.0</ele><time>2026-04-04T10:11:22Z</time></trkpt><trkpt lat="45.620547176832936" lon="10.461202935589885"><ele>850.0</ele><time>2026-04-04T10:11:24Z</time></trkpt><trkpt lat="45.62048338831286" lon="10.461093475571287"><ele>850.0</ele><time>2026-04-04T10:11:27Z</time></trkpt><trkpt lat="45.620421956086524" lon="10.460975871320437"><ele>849.6</ele><time>2026-04-04T10:11:29Z</time></trkpt><trkpt lat="45.62038974955625" lon="10.460856042056935"><ele>849.2</ele><time>2026-04-04T10:11:31Z</time></trkpt><trkpt lat="45.6203532999751" lon="10.460751405785965"><ele>848.8</ele><time>2026-04-04T10:11:33Z</time></trkpt><trkpt lat="45.62029834139285" lon="10.460624018371906"><ele>848.4</ele><time>2026-04-04T10:11:35Z</time></trkpt><trkpt lat="45.62025055226446" lon="10.46050227693278"><ele>848.0</ele><time>2026-04-04T10:11:37Z</time></trkpt><trkpt lat="45.620126894685605" lon="10.460206128299195"><ele>854.0000000000001</ele><time>2026-04-04T10:11:40Z</time></trkpt><trkpt lat="45.620071638966365" lon="10.460104192347629"><ele>860.0</ele><time>2026-04-04T10:11:41Z</time></trkpt><trkpt lat="45.62002816926064" lon="10.460013275196324"><ele>866.0</ele><time>2026-04-04T10:11:41.999Z</time></trkpt><trkpt lat="45.620005412818095" lon="10.459924969617376"><ele>872.0</ele><time>2026-04-04T10:11:42.999Z</time></trkpt><trkpt lat="45.61998862188624" lon="10.459830907296647"><ele>878.0000000000001</ele><time>2026-04-04T10:11:43.999Z</time></trkpt><trkpt lat="45.61997626176817" lon="10.459647423435865"><ele>884.0</ele><time>2026-04-04T10:11:45.999Z</time></trkpt><trkpt lat="45.61996977435316" lon="10.459556711952727"><ele>885.2</ele><time>2026-04-04T10:11:46.999Z</time></trkpt><trkpt lat="45.61995837931415" lon="10.459386676598783"><ele>886.4000000000001</ele><time>2026-04-04T10:11:48.999Z</time></trkpt><trkpt lat="45.61997500926366" lon="10.459216489812075"><ele>887.6</ele><time>2026-04-04T10:11:50.999Z</time></trkpt><trkpt lat="45.619992620246244" lon="10.459128088045155"><ele>888.8</ele><time>2026-04-04T10:11:51.999Z</time></trkpt><trkpt lat="45.62002970240384" lon="10.459016869540461"><ele>890.0</ele><time>2026-04-04T10:11:52.999Z</time></trkpt><trkpt lat="45.62007217566572" lon="10.45888278025243"><ele>890.3333333333334</ele><time>2026-04-04T10:11:53.999Z</time></trkpt><trkpt lat="45.62010894313989" lon="10.458781562645752"><ele>890.6666666666667</ele><time>2026-04-04T10:11:54.999Z</time></trkpt><trkpt lat="45.6201404828009" lon="10.45868713578811"><ele>891.0</ele><time>2026-04-04T10:11:55.999Z</time></trkpt><trkpt lat="45.62016851622483" lon="10.458606235118573"><ele>891.3333333333333</ele><time>2026-04-04T10:11:57.999Z</time></trkpt><trkpt lat="45.620191935287664" lon="10.458433295698471"><ele>891.6666666666666</ele><time>2026-04-04T10:11:59.999Z</time></trkpt><trkpt lat="45.620209728268335" lon="10.458325134634185"><ele>892.0</ele><time>2026-04-04T10:12:00.999Z</time></trkpt><trkpt lat="45.62022044338031" lon="10.458230530407091"><ele>892.0</ele><time>2026-04-04T10:12:01.999Z</time></trkpt><trkpt lat="45.62024995922728" lon="10.458107769623041"><ele>892.0</ele><time>2026-04-04T10:12:03.999Z</time></trkpt><trkpt lat="45.620207500220914" lon="10.457959278338922"><ele>892.0</ele><time>2026-04-04T10:12:05.999Z</time></trkpt><trkpt lat="45.620186514698936" lon="10.45786380473224"><ele>892.0</ele><time>2026-04-04T10:12:06.999Z</time></trkpt><trkpt lat="45.62019941072078" lon="10.45774472437982"><ele>892.0</ele><time>2026-04-04T10:12:08.999Z</time></trkpt><trkpt lat="45.62024346955939" lon="10.457561726411203"><ele>892.3333333333333</ele><time>2026-04-04T10:12:10.999Z</time></trkpt><trkpt lat="45.62027426626179" lon="10.457452139085929"><ele>892.6666666666666</ele><time>2026-04-04T10:12:11.999Z</time></trkpt><trkpt lat="45.620309544354896" lon="10.457300656327025"><ele>893.0</ele><time>2026-04-04T10:12:13.999Z</time></trkpt><trkpt lat="45.62026995439057" lon="10.457156061891778"><ele>893.3333333333333</ele><time>2026-04-04T10:12:15.999Z</time></trkpt><trkpt lat="45.62025007803187" lon="10.457065290880333"><ele>893.6666666666666</ele><time>2026-04-04T10:12:16.999Z</time></trkpt><trkpt lat="45.620249122461196" lon="10.456968808021852"><ele>894.0</ele><time>2026-04-04T10:12:17.999Z</time></trkpt><trkpt lat="45.620256822889694" lon="10.456866521692719"><ele>896.1666666666666</ele><time>2026-04-04T10:12:18.999Z</time></trkpt><trkpt lat="45.620261680237284" lon="10.456753994486807"><ele>898.3333333333333</ele><time>2026-04-04T10:12:19.999Z</time></trkpt><trkpt lat="45.62027604236083" lon="10.456648576567439"><ele>900.5</ele><time>2026-04-04T10:12:20.999Z</time></trkpt><trkpt lat="45.62029385000422" lon="10.456538473576938"><ele>902.6666666666666</ele><time>2026-04-04T10:12:21.999Z</time></trkpt><trkpt lat="45.62031325398609" lon="10.45644789769898"><ele>904.8333333333333</ele><time>2026-04-04T10:12:22.999Z</time></trkpt><trkpt lat="45.62031536732942" lon="10.456348297015946"><ele>907.0</ele><time>2026-04-04T10:12:23.999Z</time></trkpt><trkpt lat="45.6202779711274" lon="10.456170569784957"><ele>905.3333333333333</ele><time>2026-04-04T10:12:25.999Z</time></trkpt><trkpt lat="45.62028515174324" lon="10.456070824426178"><ele>903.6666666666666</ele><time>2026-04-04T10:12:26.999Z</time></trkpt><trkpt lat="45.62031568135267" lon="10.4559918531485"><ele>902.0</ele><time>2026-04-04T10:12:27.999Z</time></trkpt><trkpt lat="45.62032720456903" lon="10.455861155960623"><ele>900.3333333333333</ele><time>2026-04-04T10:12:29.999Z</time></trkpt><trkpt lat="45.620311329510535" lon="10.455731466393864"><ele>898.6666666666666</ele><time>2026-04-04T10:12:31.999Z</time></trkpt><trkpt lat="45.620285530902024" lon="10.455595673386386"><ele>897.0</ele><time>2026-04-04T10:12:33.999Z</time></trkpt><trkpt lat="45.6202513943531" lon="10.45545034519733"><ele>903.0</ele><time>2026-04-04T10:12:35.999Z</time></trkpt><trkpt lat="45.62021462619964" lon="10.45530843681167"><ele>909.0</ele><time>2026-04-04T10:12:37.999Z</time></trkpt><trkpt lat="45.62017229587039" lon="10.455190771771475"><ele>915.0</ele><time>2026-04-04T10:12:39.999Z</time></trkpt><trkpt lat="45.620095040424104" lon="10.455101040908515"><ele>921.0</ele><time>2026-04-04T10:12:41.999Z</time></trkpt><trkpt lat="45.620039139291514" lon="10.455019109584283"><ele>927.0</ele><time>2026-04-04T10:12:43.999Z</time></trkpt><trkpt lat="45.62004892855199" lon="10.45491984523768"><ele>933.0</ele><time>2026-04-04T10:12:45.999Z</time></trkpt><trkpt lat="45.62005881290209" lon="10.454778510547891"><ele>933.0</ele><time>2026-04-04T10:12:48.999Z</time></trkpt><trkpt lat="45.620052255551066" lon="10.454680835500195"><ele>933.0</ele><time>2026-04-04T10:12:49.999Z</time></trkpt><trkpt lat="45.620027669318645" lon="10.454526586144274"><ele>933.0</ele><time>2026-04-04T10:12:51.999Z</time></trkpt><trkpt lat="45.62001299539515" lon="10.454344563992262"><ele>933.0</ele><time>2026-04-04T10:12:53.999Z</time></trkpt><trkpt lat="45.62000810990425" lon="10.454238979997225"><ele>933.0</ele><time>2026-04-04T10:12:55Z</time></trkpt><trkpt lat="45.619973740829096" lon="10.454067730180189"><ele>934.5999999999999</ele><time>2026-04-04T10:12:57Z</time></trkpt><trkpt lat="45.61992337479553" lon="10.45400037318761"><ele>936.1999999999999</ele><time>2026-04-04T10:12:58Z</time></trkpt><trkpt lat="45.61992836143949" lon="10.453865084392604"><ele>937.8</ele><time>2026-04-04T10:13:00Z</time></trkpt><trkpt lat="45.619945813835194" lon="10.45372424449881"><ele>939.4</ele><time>2026-04-04T10:13:02Z</time></trkpt><trkpt lat="45.61994831226974" lon="10.45358492598767"><ele>941.0</ele><time>2026-04-04T10:13:03Z</time></trkpt><trkpt lat="45.619887734189376" lon="10.453448681824282"><ele>942.5999999999999</ele><time>2026-04-04T10:13:05Z</time></trkpt><trkpt lat="45.61983739606857" lon="10.453302596774087"><ele>944.1999999999999</ele><time>2026-04-04T10:13:07Z</time></trkpt><trkpt lat="45.61980394443358" lon="10.453215281486385"><ele>945.8000000000001</ele><time>2026-04-04T10:13:08Z</time></trkpt><trkpt lat="45.61978189016298" lon="10.453127923789866"><ele>947.4000000000001</ele><time>2026-04-04T10:13:09Z</time></trkpt><trkpt lat="45.61977475809995" lon="10.452964218252555"><ele>949.0</ele><time>2026-04-04T10:13:11Z</time></trkpt><trkpt lat="45.619789504760796" lon="10.452819695107573"><ele>948.9999999999999</ele><time>2026-04-04T10:13:13Z</time></trkpt><trkpt lat="45.61984048136217" lon="10.452757217137593"><ele>949.0</ele><time>2026-04-04T10:13:14Z</time></trkpt><trkpt lat="45.61989368446768" lon="10.452708472784892"><ele>949.0</ele><time>2026-04-04T10:13:15Z</time></trkpt><trkpt lat="45.61994837633758" lon="10.452630435477666"><ele>949.0</ele><time>2026-04-04T10:13:16Z</time></trkpt><trkpt lat="45.62000033439635" lon="10.452564895318847"><ele>948.9999999999999</ele><time>2026-04-04T10:13:17Z</time></trkpt><trkpt lat="45.620052090858835" lon="10.45250415951966"><ele>949.0</ele><time>2026-04-04T10:13:18Z</time></trkpt><trkpt lat="45.62011223434794" lon="10.452376593050184"><ele>948.9999999999999</ele><time>2026-04-04T10:13:19Z</time></trkpt><trkpt lat="45.62010182729253" lon="10.452275907449534"><ele>949.0</ele><time>2026-04-04T10:13:20Z</time></trkpt><trkpt lat="45.620112592934795" lon="10.45216999480908"><ele>949.0</ele><time>2026-04-04T10:13:21Z</time></trkpt><trkpt lat="45.62017813935072" lon="10.451979837905206"><ele>949.0</ele><time>2026-04-04T10:13:23Z</time></trkpt><trkpt lat="45.62023293310366" lon="10.451910882055666"><ele>948.9999999999999</ele><time>2026-04-04T10:13:24Z</time></trkpt><trkpt lat="45.62025286393469" lon="10.451809990347737"><ele>949.0</ele><time>2026-04-04T10:13:25Z</time></trkpt><trkpt lat="45.62026425287524" lon="10.451666655510754"><ele>947.2</ele><time>2026-04-04T10:13:26Z</time></trkpt><trkpt lat="45.620229253265386" lon="10.45158344044446"><ele>945.4000000000001</ele><time>2026-04-04T10:13:27Z</time></trkpt><trkpt lat="45.62021352994648" lon="10.451395180205761"><ele>943.6</ele><time>2026-04-04T10:13:29Z</time></trkpt><trkpt lat="45.620280026496765" lon="10.451228584751089"><ele>941.8</ele><time>2026-04-04T10:13:31Z</time></trkpt><trkpt lat="45.6203201990413" lon="10.451134087685533"><ele>940.0</ele><time>2026-04-04T10:13:32Z</time></trkpt><trkpt lat="45.620355599698804" lon="10.451052197527611"><ele>934.5</ele><time>2026-04-04T10:13:33Z</time></trkpt><trkpt lat="45.620395661108965" lon="10.450798832489726"><ele>929.0</ele><time>2026-04-04T10:13:34Z</time></trkpt><trkpt lat="45.62044599635544" lon="10.45066926504061"><ele>923.5</ele><time>2026-04-04T10:13:35Z</time></trkpt><trkpt lat="45.62050223867198" lon="10.450563706428781"><ele>918.0</ele><time>2026-04-04T10:13:36Z</time></trkpt><trkpt lat="45.62054576106661" lon="10.450464118508984"><ele>919.5999999999999</ele><time>2026-04-04T10:13:37Z</time></trkpt><trkpt lat="45.62061508272657" lon="10.450338600664418"><ele>921.1999999999999</ele><time>2026-04-04T10:13:38Z</time></trkpt><trkpt lat="45.620682618973014" lon="10.450229591359664"><ele>922.8</ele><time>2026-04-04T10:13:39Z</time></trkpt><trkpt lat="45.62075356190106" lon="10.450118677766556"><ele>924.4</ele><time>2026-04-04T10:13:40Z</time></trkpt><trkpt lat="45.62081172796257" lon="10.450034291587164"><ele>926.0</ele><time>2026-04-04T10:13:41Z</time></trkpt><trkpt lat="45.620869566184055" lon="10.4498768440733"><ele>926.0</ele><time>2026-04-04T10:13:43Z</time></trkpt><trkpt lat="45.62088748037635" lon="10.449782099461785"><ele>925.9999999999999</ele><time>2026-04-04T10:13:43.999Z</time></trkpt><trkpt lat="45.620889349068584" lon="10.449677593209579"><ele>926.0</ele><time>2026-04-04T10:13:44.999Z</time></trkpt><trkpt lat="45.620885301450336" lon="10.449579866098953"><ele>926.0</ele><time>2026-04-04T10:13:45.999Z</time></trkpt><trkpt lat="45.62085037794584" lon="10.449470471624409"><ele>925.9999999999999</ele><time>2026-04-04T10:13:47.999Z</time></trkpt><trkpt lat="45.62090519149484" lon="10.449532849048323"><ele>926.0</ele><time>2026-04-04T10:17:16Z</time></trkpt><trkpt lat="45.62083497884069" lon="10.449532577562735"><ele>926.0</ele><time>2026-04-04T10:17:47.999Z</time></trkpt><trkpt lat="45.620793756506046" lon="10.449441740246817"><ele>926.5000000000001</ele><time>2026-04-04T10:17:59.999Z</time></trkpt><trkpt lat="45.62080896325617" lon="10.449331219691027"><ele>927.0</ele><time>2026-04-04T10:18:04.999Z</time></trkpt><trkpt lat="45.62083645307976" lon="10.449412356315044"><ele>927.5</ele><time>2026-04-04T10:21:04.999Z</time></trkpt><trkpt lat="45.620876823778275" lon="10.449504100320604"><ele>928.0</ele><time>2026-04-04T10:21:31Z</time></trkpt><trkpt lat="45.62083653305923" lon="10.449408461431984"><ele>928.5000000000001</ele><time>2026-04-04T10:26:44.999Z</time></trkpt><trkpt lat="45.62088263378566" lon="10.449333569641672"><ele>929.0</ele><time>2026-04-04T10:26:47.999Z</time></trkpt><trkpt lat="45.62096467506945" lon="10.449238381001368"><ele>929.0000000000001</ele><time>2026-04-04T10:26:49.999Z</time></trkpt><trkpt lat="45.62099999500119" lon="10.449154038914049"><ele>929.0</ele><time>2026-04-04T10:26:50.999Z</time></trkpt><trkpt lat="45.62102534453394" lon="10.449060413800353"><ele>929.0</ele><time>2026-04-04T10:26:51.999Z</time></trkpt><trkpt lat="45.621095121380186" lon="10.448968467920395"><ele>929.0</ele><time>2026-04-04T10:26:52.999Z</time></trkpt><trkpt lat="45.62111378580113" lon="10.448863293558054"><ele>929.0000000000001</ele><time>2026-04-04T10:26:53.999Z</time></trkpt><trkpt lat="45.62115461114673" lon="10.448771608862568"><ele>929.0</ele><time>2026-04-04T10:26:54.999Z</time></trkpt><trkpt lat="45.62122580629157" lon="10.448674582535082"><ele>921.0</ele><time>2026-04-04T10:26:55.999Z</time></trkpt><trkpt lat="45.62130990384738" lon="10.448615848938333"><ele>913.0000000000001</ele><time>2026-04-04T10:26:56.999Z</time></trkpt><trkpt lat="45.62138272462029" lon="10.448546647171602"><ele>905.0000000000001</ele><time>2026-04-04T10:26:57.999Z</time></trkpt><trkpt lat="45.62146040500598" lon="10.44843403594337"><ele>897.0</ele><time>2026-04-04T10:26:59.999Z</time></trkpt><trkpt lat="45.62142576932114" lon="10.448302767307544"><ele>889.0</ele><time>2026-04-04T10:27:01.999Z</time></trkpt><trkpt lat="45.621374731989306" lon="10.448224234618088"><ele>889.0</ele><time>2026-04-04T10:27:02.999Z</time></trkpt><trkpt lat="45.62131572173437" lon="10.448139035145367"><ele>889.0000000000001</ele><time>2026-04-04T10:27:03.999Z</time></trkpt><trkpt lat="45.62126793824629" lon="10.448045155675334"><ele>889.0000000000001</ele><time>2026-04-04T10:27:04.999Z</time></trkpt><trkpt lat="45.62122272075884" lon="10.447921621609018"><ele>889.0</ele><time>2026-04-04T10:27:05.999Z</time></trkpt><trkpt lat="45.62116777406251" lon="10.447796349693126"><ele>889.0</ele><time>2026-04-04T10:27:06.999Z</time></trkpt><trkpt lat="45.62110288932807" lon="10.447676394537371"><ele>887.4000000000001</ele><time>2026-04-04T10:27:07.999Z</time></trkpt><trkpt lat="45.6210192971087" lon="10.44758295418223"><ele>885.8000000000001</ele><time>2026-04-04T10:27:08.999Z</time></trkpt><trkpt lat="45.62097114844809" lon="10.447437512090241"><ele>884.1999999999999</ele><time>2026-04-04T10:27:09.999Z</time></trkpt><trkpt lat="45.620944860396364" lon="10.447273713371477"><ele>882.5999999999999</ele><time>2026-04-04T10:27:10.999Z</time></trkpt><trkpt lat="45.620925207870535" lon="10.447146505105257"><ele>881.0</ele><time>2026-04-04T10:27:11.999Z</time></trkpt><trkpt lat="45.62089109207838" lon="10.447062145743004"><ele>881.0</ele><time>2026-04-04T10:27:12.999Z</time></trkpt><trkpt lat="45.62084664191434" lon="10.446995900981918"><ele>881.0</ele><time>2026-04-04T10:27:13.999Z</time></trkpt><trkpt lat="45.620939974924916" lon="10.446833399483673"><ele>881.0</ele><time>2026-04-04T10:27:14.999Z</time></trkpt><trkpt lat="45.62078000152612" lon="10.446835710751028"><ele>881.0</ele><time>2026-04-04T10:27:15.999Z</time></trkpt><trkpt lat="45.62070287973349" lon="10.446738969883388"><ele>881.0</ele><time>2026-04-04T10:27:16.999Z</time></trkpt><trkpt lat="45.62064163633025" lon="10.446634628266795"><ele>880.9999999999999</ele><time>2026-04-04T10:27:17.999Z</time></trkpt><trkpt lat="45.620586644675356" lon="10.446510981225398"><ele>880.9999999999999</ele><time>2026-04-04T10:27:18.999Z</time></trkpt><trkpt lat="45.62056206527586" lon="10.446377072753572"><ele>881.0</ele><time>2026-04-04T10:27:19.999Z</time></trkpt><trkpt lat="45.620541849375584" lon="10.446247957812382"><ele>881.0</ele><time>2026-04-04T10:27:20.999Z</time></trkpt><trkpt lat="45.620502078158" lon="10.446131080770911"><ele>874.1666666666667</ele><time>2026-04-04T10:27:21.999Z</time></trkpt><trkpt lat="45.6204473854212" lon="10.44605094110846"><ele>867.3333333333334</ele><time>2026-04-04T10:27:22.999Z</time></trkpt><trkpt lat="45.62040397471104" lon="10.445968978759488"><ele>860.5</ele><time>2026-04-04T10:27:23.999Z</time></trkpt><trkpt lat="45.620337491608275" lon="10.445847283226579"><ele>853.6666666666667</ele><time>2026-04-04T10:27:25.999Z</time></trkpt><trkpt lat="45.62038615561038" lon="10.44578621534093"><ele>846.8333333333334</ele><time>2026-04-04T10:27:27.999Z</time></trkpt><trkpt lat="45.620476846640734" lon="10.445879407079612"><ele>840.0</ele><time>2026-04-04T10:27:29.999Z</time></trkpt><trkpt lat="45.620529362774874" lon="10.445960939036658"><ele>840.0</ele><time>2026-04-04T10:27:30.999Z</time></trkpt><trkpt lat="45.620582602496015" lon="10.446033557782672"><ele>840.0</ele><time>2026-04-04T10:27:31.999Z</time></trkpt><trkpt lat="45.620651189083034" lon="10.446100748826126"><ele>840.0</ele><time>2026-04-04T10:27:32.999Z</time></trkpt><trkpt lat="45.62073323668" lon="10.446169055070971"><ele>840.0</ele><time>2026-04-04T10:27:33.999Z</time></trkpt><trkpt lat="45.62079954752536" lon="10.446247593777713"><ele>840.0</ele><time>2026-04-04T10:27:34.999Z</time></trkpt><trkpt lat="45.620853746527835" lon="10.446381313308551"><ele>840.0</ele><time>2026-04-04T10:27:36Z</time></trkpt><trkpt lat="45.62094841674072" lon="10.446447785631857"><ele>838.6</ele><time>2026-04-04T10:27:37Z</time></trkpt><trkpt lat="45.62102295876739" lon="10.446517150254975"><ele>837.2</ele><time>2026-04-04T10:27:38Z</time></trkpt><trkpt lat="45.62111720439337" lon="10.446559094043339"><ele>835.8</ele><time>2026-04-04T10:27:39Z</time></trkpt><trkpt lat="45.621194567449045" lon="10.446644340011286"><ele>834.4</ele><time>2026-04-04T10:27:40Z</time></trkpt><trkpt lat="45.621262957058164" lon="10.446732150212906"><ele>833.0</ele><time>2026-04-04T10:27:41Z</time></trkpt><trkpt lat="45.62135041635673" lon="10.44681004326474"><ele>833.0</ele><time>2026-04-04T10:27:42Z</time></trkpt><trkpt lat="45.62143382018097" lon="10.446898946887957"><ele>833.0</ele><time>2026-04-04T10:27:43Z</time></trkpt><trkpt lat="45.62152967635063" lon="10.446981055742201"><ele>833.0</ele><time>2026-04-04T10:27:44Z</time></trkpt><trkpt lat="45.621625191759414" lon="10.447051690309396"><ele>833.0</ele><time>2026-04-04T10:27:45Z</time></trkpt><trkpt lat="45.62172400066899" lon="10.447114608340973"><ele>833.0</ele><time>2026-04-04T10:27:46Z</time></trkpt><trkpt lat="45.62182319948434" lon="10.447194031834943"><ele>831.4</ele><time>2026-04-04T10:27:47Z</time></trkpt><trkpt lat="45.62190804309018" lon="10.447262303980661"><ele>829.8</ele><time>2026-04-04T10:27:48Z</time></trkpt><trkpt lat="45.621999212184626" lon="10.447330509848824"><ele>828.2</ele><time>2026-04-04T10:27:49Z</time></trkpt><trkpt lat="45.62207602716932" lon="10.447396198763329"><ele>826.6</ele><time>2026-04-04T10:27:50Z</time></trkpt><trkpt lat="45.622161981589585" lon="10.447445955079008"><ele>825.0</ele><time>2026-04-04T10:27:51Z</time></trkpt><trkpt lat="45.62224605966382" lon="10.447524068089905"><ele>825.0</ele><time>2026-04-04T10:27:52Z</time></trkpt><trkpt lat="45.62232390884405" lon="10.447537313995927"><ele>825.0</ele><time>2026-04-04T10:27:53Z</time></trkpt><trkpt lat="45.62241393567735" lon="10.447487971744184"><ele>825.0</ele><time>2026-04-04T10:27:54Z</time></trkpt><trkpt lat="45.62248350612802" lon="10.447487686666058"><ele>825.0</ele><time>2026-04-04T10:27:55Z</time></trkpt><trkpt lat="45.622566378889665" lon="10.447487695456138"><ele>825.0</ele><time>2026-04-04T10:27:57Z</time></trkpt><trkpt lat="45.62248000789225" lon="10.447389754532217"><ele>825.0</ele><time>2026-04-04T10:28:00Z</time></trkpt><trkpt lat="45.6224094681046" lon="10.447365195984467"><ele>825.0</ele><time>2026-04-04T10:28:01Z</time></trkpt><trkpt lat="45.6223166189513" lon="10.447350806762657"><ele>825.0</ele><time>2026-04-04T10:28:02Z</time></trkpt><trkpt lat="45.62222960677645" lon="10.447304504071367"><ele>825.0</ele><time>2026-04-04T10:28:03Z</time></trkpt><trkpt lat="45.62217594048033" lon="10.447221849846956"><ele>825.0</ele><time>2026-04-04T10:28:04Z</time></trkpt><trkpt lat="45.622126843926324" lon="10.447138484024247"><ele>825.0</ele><time>2026-04-04T10:28:05Z</time></trkpt><trkpt lat="45.622072043048284" lon="10.446997247793542"><ele>826.6</ele><time>2026-04-04T10:28:06Z</time></trkpt><trkpt lat="45.622029341683294" lon="10.446884849343691"><ele>828.2</ele><time>2026-04-04T10:28:07Z</time></trkpt><trkpt lat="45.6219838999329" lon="10.446764868785042"><ele>829.8</ele><time>2026-04-04T10:28:08Z</time></trkpt><trkpt lat="45.621929096214096" lon="10.446643271988112"><ele>831.4</ele><time>2026-04-04T10:28:09Z</time></trkpt><trkpt lat="45.621867444275665" lon="10.446502879737388"><ele>833.0</ele><time>2026-04-04T10:28:10Z</time></trkpt><trkpt lat="45.62180851634786" lon="10.446365385957952"><ele>828.1666666666667</ele><time>2026-04-04T10:28:11Z</time></trkpt><trkpt lat="45.62176350698134" lon="10.44625368045588"><ele>823.3333333333334</ele><time>2026-04-04T10:28:12Z</time></trkpt><trkpt lat="45.62171631469285" lon="10.446150070747176"><ele>818.5</ele><time>2026-04-04T10:28:13Z</time></trkpt><trkpt lat="45.621677874045275" lon="10.446060406832817"><ele>813.6666666666667</ele><time>2026-04-04T10:28:13.999Z</time></trkpt><trkpt lat="45.621611682433254" lon="10.445936295664513"><ele>808.8333333333334</ele><time>2026-04-04T10:28:15.999Z</time></trkpt><trkpt lat="45.62166253638266" lon="10.445833017524395"><ele>804.0</ele><time>2026-04-04T10:28:17.999Z</time></trkpt><trkpt lat="45.62173372397254" lon="10.445849022077404"><ele>804.0</ele><time>2026-04-04T10:28:18.999Z</time></trkpt><trkpt lat="45.621805980446375" lon="10.445895281937075"><ele>804.0</ele><time>2026-04-04T10:28:19.999Z</time></trkpt><trkpt lat="45.621880559448" lon="10.445962230130135"><ele>804.0</ele><time>2026-04-04T10:28:20.999Z</time></trkpt><trkpt lat="45.6219653691214" lon="10.44602169142616"><ele>804.0</ele><time>2026-04-04T10:28:21.999Z</time></trkpt><trkpt lat="45.622072153615896" lon="10.446074027926597"><ele>804.0</ele><time>2026-04-04T10:28:22.999Z</time></trkpt><trkpt lat="45.62217270153417" lon="10.446137601406775"><ele>803.75</ele><time>2026-04-04T10:28:23.999Z</time></trkpt><trkpt lat="45.62227996632411" lon="10.44620357362081"><ele>803.5</ele><time>2026-04-04T10:28:24.999Z</time></trkpt><trkpt lat="45.62239191434881" lon="10.446269955996355"><ele>803.25</ele><time>2026-04-04T10:28:25.999Z</time></trkpt><trkpt lat="45.622503138971176" lon="10.446327003861422"><ele>803.0</ele><time>2026-04-04T10:28:26.999Z</time></trkpt><trkpt lat="45.622613084331114" lon="10.44639782525069"><ele>803.0</ele><time>2026-04-04T10:28:27.999Z</time></trkpt><trkpt lat="45.62271253382272" lon="10.44647170119446"><ele>803.0</ele><time>2026-04-04T10:28:28.999Z</time></trkpt><trkpt lat="45.62281279614767" lon="10.446548665223842"><ele>803.0</ele><time>2026-04-04T10:28:29.999Z</time></trkpt><trkpt lat="45.6229244145221" lon="10.446613314984335"><ele>803.0</ele><time>2026-04-04T10:28:30.999Z</time></trkpt><trkpt lat="45.6230071420462" lon="10.446653654627667"><ele>803.0</ele><time>2026-04-04T10:28:31.999Z</time></trkpt><trkpt lat="45.62309306671302" lon="10.446654697166357"><ele>796.0</ele><time>2026-04-04T10:28:32.999Z</time></trkpt><trkpt lat="45.62319063678947" lon="10.446602263201317"><ele>789.0</ele><time>2026-04-04T10:28:33.999Z</time></trkpt><trkpt lat="45.62327119383783" lon="10.44652231114705"><ele>782.0</ele><time>2026-04-04T10:28:34.999Z</time></trkpt><trkpt lat="45.623368940421045" lon="10.446473182978927"><ele>775.0</ele><time>2026-04-04T10:28:35.999Z</time></trkpt><trkpt lat="45.62347359902957" lon="10.446404522490093"><ele>768.0</ele><time>2026-04-04T10:28:36.999Z</time></trkpt><trkpt lat="45.62356700971177" lon="10.446366248084134"><ele>768.0</ele><time>2026-04-04T10:28:37.999Z</time></trkpt><trkpt lat="45.62363530128929" lon="10.446332025071616"><ele>768.0</ele><time>2026-04-04T10:28:38.999Z</time></trkpt><trkpt lat="45.62369776904877" lon="10.446208374416628"><ele>768.0</ele><time>2026-04-04T10:28:40.999Z</time></trkpt><trkpt lat="45.62369558804877" lon="10.446077932751816"><ele>768.0</ele><time>2026-04-04T10:28:42.999Z</time></trkpt><trkpt lat="45.623613689999566" lon="10.446022697969365"><ele>768.0</ele><time>2026-04-04T10:28:44.999Z</time></trkpt><trkpt lat="45.62357731390612" lon="10.445853002824641"><ele>763.75</ele><time>2026-04-04T10:28:46.999Z</time></trkpt><trkpt lat="45.6235004116093" lon="10.445835690971137"><ele>759.5</ele><time>2026-04-04T10:28:47.999Z</time></trkpt><trkpt lat="45.623366638699686" lon="10.445793321106104"><ele>755.25</ele><time>2026-04-04T10:28:48.999Z</time></trkpt><trkpt lat="45.62324391125847" lon="10.445727629432692"><ele>751.0</ele><time>2026-04-04T10:28:49.999Z</time></trkpt><trkpt lat="45.62314550344011" lon="10.445649011634575"><ele>751.0</ele><time>2026-04-04T10:28:50.999Z</time></trkpt><trkpt lat="45.62304524479727" lon="10.445569790817938"><ele>751.0</ele><time>2026-04-04T10:28:51.999Z</time></trkpt><trkpt lat="45.622924575237285" lon="10.445464405264474"><ele>751.0</ele><time>2026-04-04T10:28:52.999Z</time></trkpt><trkpt lat="45.62281757223033" lon="10.445310774993208"><ele>751.0</ele><time>2026-04-04T10:28:53.999Z</time></trkpt><trkpt lat="45.622754058336554" lon="10.445176091909214"><ele>749.0</ele><time>2026-04-04T10:28:54.999Z</time></trkpt><trkpt lat="45.62266979834278" lon="10.44502230971027"><ele>747.0</ele><time>2026-04-04T10:28:55.999Z</time></trkpt><trkpt lat="45.62259476364203" lon="10.444869513925672"><ele>745.0</ele><time>2026-04-04T10:28:56.999Z</time></trkpt><trkpt lat="45.622512715814715" lon="10.44468407433651"><ele>743.0</ele><time>2026-04-04T10:28:57.999Z</time></trkpt><trkpt lat="45.622439466148656" lon="10.444501191717004"><ele>738.4</ele><time>2026-04-04T10:28:58.999Z</time></trkpt><trkpt lat="45.62238449002114" lon="10.444378048943882"><ele>733.8</ele><time>2026-04-04T10:28:59.999Z</time></trkpt><trkpt lat="45.62232638251434" lon="10.44423994611122"><ele>729.2</ele><time>2026-04-04T10:29:00.999Z</time></trkpt><trkpt lat="45.62228600763845" lon="10.444104368592482"><ele>724.6</ele><time>2026-04-04T10:29:01.999Z</time></trkpt><trkpt lat="45.62224517919621" lon="10.443977844792368"><ele>720.0</ele><time>2026-04-04T10:29:02.999Z</time></trkpt><trkpt lat="45.622200850787294" lon="10.44383351725702"><ele>722.6</ele><time>2026-04-04T10:29:03.999Z</time></trkpt><trkpt lat="45.62215806270168" lon="10.443649752358366"><ele>725.2</ele><time>2026-04-04T10:29:04.999Z</time></trkpt><trkpt lat="45.62212897996535" lon="10.443502101141656"><ele>727.8</ele><time>2026-04-04T10:29:06.999Z</time></trkpt><trkpt lat="45.62208459221973" lon="10.443404550432696"><ele>730.4</ele><time>2026-04-04T10:29:07.999Z</time></trkpt><trkpt lat="45.62203223707916" lon="10.44329936845744"><ele>733.0</ele><time>2026-04-04T10:29:08.999Z</time></trkpt><trkpt lat="45.621948845045225" lon="10.443197924890795"><ele>733.0</ele><time>2026-04-04T10:29:10.999Z</time></trkpt><trkpt lat="45.62186431156926" lon="10.44311718987616"><ele>733.0</ele><time>2026-04-04T10:29:11.999Z</time></trkpt><trkpt lat="45.62179578667612" lon="10.443039291010315"><ele>733.0</ele><time>2026-04-04T10:29:12.999Z</time></trkpt><trkpt lat="45.621741613185506" lon="10.442938180580295"><ele>733.0</ele><time>2026-04-04T10:29:13.999Z</time></trkpt><trkpt lat="45.6216362615837" lon="10.44271211527448"><ele>726.5</ele><time>2026-04-04T10:29:15.999Z</time></trkpt><trkpt lat="45.621592823369845" lon="10.442543850407068"><ele>720.0</ele><time>2026-04-04T10:29:16.999Z</time></trkpt><trkpt lat="45.62156419017202" lon="10.442385238699382"><ele>713.5</ele><time>2026-04-04T10:29:17.999Z</time></trkpt><trkpt lat="45.62154767812763" lon="10.442229958538322"><ele>707.0</ele><time>2026-04-04T10:29:18.999Z</time></trkpt><trkpt lat="45.62154095985114" lon="10.442081102220712"><ele>703.0</ele><time>2026-04-04T10:29:19.999Z</time></trkpt><trkpt lat="45.62153942933384" lon="10.441926242728933"><ele>699.0</ele><time>2026-04-04T10:29:20.999Z</time></trkpt><trkpt lat="45.621525519252636" lon="10.441782667807106"><ele>695.0</ele><time>2026-04-04T10:29:21.999Z</time></trkpt><trkpt lat="45.621504829112624" lon="10.441626898768858"><ele>691.0</ele><time>2026-04-04T10:29:22.999Z</time></trkpt><trkpt lat="45.621478443299615" lon="10.44146100043646"><ele>687.0</ele><time>2026-04-04T10:29:23.999Z</time></trkpt><trkpt lat="45.62144882273723" lon="10.44130139813172"><ele>681.5</ele><time>2026-04-04T10:29:24.999Z</time></trkpt><trkpt lat="45.621394852081764" lon="10.441163873188316"><ele>676.0</ele><time>2026-04-04T10:29:25.999Z</time></trkpt><trkpt lat="45.62134121099908" lon="10.44100444485889"><ele>670.5</ele><time>2026-04-04T10:29:26.999Z</time></trkpt><trkpt lat="45.62128615199546" lon="10.440857107548995"><ele>665.0</ele><time>2026-04-04T10:29:27.999Z</time></trkpt><trkpt lat="45.62123084227435" lon="10.440685529270928"><ele>665.0</ele><time>2026-04-04T10:29:28.999Z</time></trkpt><trkpt lat="45.62120169076479" lon="10.440500303481228"><ele>665.0</ele><time>2026-04-04T10:29:29.999Z</time></trkpt><trkpt lat="45.62118044939097" lon="10.440343267500939"><ele>665.0</ele><time>2026-04-04T10:29:30.999Z</time></trkpt><trkpt lat="45.62113294670399" lon="10.440206738619606"><ele>665.0</ele><time>2026-04-04T10:29:31.999Z</time></trkpt><trkpt lat="45.62109721202619" lon="10.44008915749536"><ele>665.0</ele><time>2026-04-04T10:29:32.999Z</time></trkpt><trkpt lat="45.621076790500815" lon="10.43998394181062"><ele>664.3333333333333</ele><time>2026-04-04T10:29:33.999Z</time></trkpt><trkpt lat="45.621083289057864" lon="10.439879554037194"><ele>663.6666666666666</ele><time>2026-04-04T10:29:34.999Z</time></trkpt><trkpt lat="45.621093927941935" lon="10.439751231280063"><ele>663.0</ele><time>2026-04-04T10:29:35.999Z</time></trkpt><trkpt lat="45.621095119229295" lon="10.439640396318497"><ele>662.3333333333334</ele><time>2026-04-04T10:29:36.999Z</time></trkpt><trkpt lat="45.62107216695177" lon="10.439542385301975"><ele>661.6666666666667</ele><time>2026-04-04T10:29:37.999Z</time></trkpt><trkpt lat="45.62102248289379" lon="10.439446305527593"><ele>661.0</ele><time>2026-04-04T10:29:38.999Z</time></trkpt><trkpt lat="45.620963250944214" lon="10.43933357821573"><ele>661.0</ele><time>2026-04-04T10:29:39.999Z</time></trkpt><trkpt lat="45.62090742968952" lon="10.439205091768441"><ele>661.0</ele><time>2026-04-04T10:29:40.999Z</time></trkpt><trkpt lat="45.620850909282225" lon="10.439064053573846"><ele>661.0</ele><time>2026-04-04T10:29:42Z</time></trkpt><trkpt lat="45.62080617638317" lon="10.438923874531499"><ele>661.0</ele><time>2026-04-04T10:29:43Z</time></trkpt><trkpt lat="45.62075523782642" lon="10.438782611945262"><ele>661.0</ele><time>2026-04-04T10:29:44Z</time></trkpt><trkpt lat="45.6206989372682" lon="10.438644799806017"><ele>657.25</ele><time>2026-04-04T10:29:45Z</time></trkpt><trkpt lat="45.620627075941236" lon="10.438515826905148"><ele>653.5</ele><time>2026-04-04T10:29:46Z</time></trkpt><trkpt lat="45.620561926915414" lon="10.438361855281125"><ele>649.75</ele><time>2026-04-04T10:29:47Z</time></trkpt><trkpt lat="45.62050409108854" lon="10.438211883251258"><ele>646.0</ele><time>2026-04-04T10:29:48Z</time></trkpt><trkpt lat="45.620461153061584" lon="10.438065718216459"><ele>647.8333333333334</ele><time>2026-04-04T10:29:49Z</time></trkpt><trkpt lat="45.62044148097626" lon="10.437935763160866"><ele>649.6666666666667</ele><time>2026-04-04T10:29:50Z</time></trkpt><trkpt lat="45.620419218898284" lon="10.437818265724541"><ele>651.5</ele><time>2026-04-04T10:29:51Z</time></trkpt><trkpt lat="45.62039194364461" lon="10.437701231350992"><ele>653.3333333333334</ele><time>2026-04-04T10:29:52Z</time></trkpt><trkpt lat="45.620357580610865" lon="10.437595486841474"><ele>655.1666666666666</ele><time>2026-04-04T10:29:53Z</time></trkpt><trkpt lat="45.620329352058434" lon="10.437463264593973"><ele>657.0</ele><time>2026-04-04T10:29:54Z</time></trkpt><trkpt lat="45.62029615006872" lon="10.437321087536434"><ele>657.0</ele><time>2026-04-04T10:29:55Z</time></trkpt><trkpt lat="45.6202722365801" lon="10.437170541209179"><ele>657.0</ele><time>2026-04-04T10:29:56Z</time></trkpt><trkpt lat="45.620247284652066" lon="10.437025251359357"><ele>657.0</ele><time>2026-04-04T10:29:57Z</time></trkpt><trkpt lat="45.620219289409015" lon="10.43688589546208"><ele>657.0</ele><time>2026-04-04T10:29:58Z</time></trkpt><trkpt lat="45.620194577212125" lon="10.436769635065922"><ele>657.0</ele><time>2026-04-04T10:29:59Z</time></trkpt><trkpt lat="45.62017287254038" lon="10.43665593299371"><ele>654.6</ele><time>2026-04-04T10:30:00Z</time></trkpt><trkpt lat="45.62017128188337" lon="10.436526991880692"><ele>652.2</ele><time>2026-04-04T10:30:01Z</time></trkpt><trkpt lat="45.6201673473938" lon="10.43638832107912"><ele>649.8</ele><time>2026-04-04T10:30:02Z</time></trkpt><trkpt lat="45.620150719885885" lon="10.436282229040023"><ele>647.4</ele><time>2026-04-04T10:30:03Z</time></trkpt><trkpt lat="45.62010143758709" lon="10.43615919791059"><ele>645.0</ele><time>2026-04-04T10:30:04Z</time></trkpt><trkpt lat="45.62004093853948" lon="10.43605258578947"><ele>642.0</ele><time>2026-04-04T10:30:05Z</time></trkpt><trkpt lat="45.61999559334488" lon="10.435950247986167"><ele>639.0</ele><time>2026-04-04T10:30:06Z</time></trkpt><trkpt lat="45.619946161254056" lon="10.435848251448144"><ele>636.0</ele><time>2026-04-04T10:30:07Z</time></trkpt><trkpt lat="45.6198965834523" lon="10.435745377754003"><ele>633.0</ele><time>2026-04-04T10:30:08Z</time></trkpt><trkpt lat="45.619850978912574" lon="10.435651306759333"><ele>630.0</ele><time>2026-04-04T10:30:09Z</time></trkpt><trkpt lat="45.61980690969978" lon="10.435549486767533"><ele>627.0</ele><time>2026-04-04T10:30:10Z</time></trkpt><trkpt lat="45.61976623019855" lon="10.435452726323328"><ele>624.5</ele><time>2026-04-04T10:30:11Z</time></trkpt><trkpt lat="45.61971129957419" lon="10.435363335951468"><ele>622.0</ele><time>2026-04-04T10:30:12Z</time></trkpt><trkpt lat="45.61965100746828" lon="10.43527716928697"><ele>619.5</ele><time>2026-04-04T10:30:13Z</time></trkpt><trkpt lat="45.61959185906876" lon="10.435204087331536"><ele>617.0</ele><time>2026-04-04T10:30:14Z</time></trkpt><trkpt lat="45.619531442156934" lon="10.43514765425764"><ele>614.5</ele><time>2026-04-04T10:30:14.999Z</time></trkpt><trkpt lat="45.61944283155" lon="10.435056351201345"><ele>612.0</ele><time>2026-04-04T10:30:16.999Z</time></trkpt><trkpt lat="45.61936925830637" lon="10.434894791687508"><ele>613.0</ele><time>2026-04-04T10:30:18.999Z</time></trkpt><trkpt lat="45.61932453769951" lon="10.434812774466806"><ele>614.0</ele><time>2026-04-04T10:30:19.999Z</time></trkpt><trkpt lat="45.619285867826314" lon="10.434731459060917"><ele>615.0</ele><time>2026-04-04T10:30:20.999Z</time></trkpt><trkpt lat="45.61925767218405" lon="10.434637039716392"><ele>616.0</ele><time>2026-04-04T10:30:21.999Z</time></trkpt><trkpt lat="45.61923421361226" lon="10.434541158362844"><ele>617.0</ele><time>2026-04-04T10:30:22.999Z</time></trkpt><trkpt lat="45.61920007938742" lon="10.434445937346853"><ele>618.0</ele><time>2026-04-04T10:30:23.999Z</time></trkpt><trkpt lat="45.61914569375078" lon="10.43437498307889"><ele>619.0</ele><time>2026-04-04T10:30:24.999Z</time></trkpt><trkpt lat="45.619085848262536" lon="10.43430384937189"><ele>619.0</ele><time>2026-04-04T10:30:25.999Z</time></trkpt><trkpt lat="45.619029202624944" lon="10.434227735275908"><ele>619.0</ele><time>2026-04-04T10:30:26.999Z</time></trkpt><trkpt lat="45.61896410227539" lon="10.434138417294935"><ele>619.0</ele><time>2026-04-04T10:30:27.999Z</time></trkpt><trkpt lat="45.618909800395386" lon="10.4340452473177"><ele>619.0</ele><time>2026-04-04T10:30:28.999Z</time></trkpt><trkpt lat="45.618868664145424" lon="10.433939101251056"><ele>619.0</ele><time>2026-04-04T10:30:29.999Z</time></trkpt><trkpt lat="45.618848531136905" lon="10.433832518343246"><ele>619.0</ele><time>2026-04-04T10:30:30.999Z</time></trkpt><trkpt lat="45.61882417297921" lon="10.433726378647066"><ele>616.1666666666667</ele><time>2026-04-04T10:30:31.999Z</time></trkpt><trkpt lat="45.618794083453835" lon="10.43361556689583"><ele>613.3333333333334</ele><time>2026-04-04T10:30:32.999Z</time></trkpt><trkpt lat="45.61875309305342" lon="10.433503491839788"><ele>610.5</ele><time>2026-04-04T10:30:33.999Z</time></trkpt><trkpt lat="45.61871448158195" lon="10.433394657414567"><ele>607.6666666666666</ele><time>2026-04-04T10:30:34.999Z</time></trkpt><trkpt lat="45.61868927099564" lon="10.433278117000421"><ele>604.8333333333333</ele><time>2026-04-04T10:30:35.999Z</time></trkpt><trkpt lat="45.618681206891985" lon="10.433155210240933"><ele>602.0</ele><time>2026-04-04T10:30:36.999Z</time></trkpt><trkpt lat="45.61868112699746" lon="10.433033331385827"><ele>602.6666666666666</ele><time>2026-04-04T10:30:37.999Z</time></trkpt><trkpt lat="45.61868103967102" lon="10.432912027482015"><ele>603.3333333333333</ele><time>2026-04-04T10:30:38.999Z</time></trkpt><trkpt lat="45.61868470770177" lon="10.432789018316416"><ele>604.0</ele><time>2026-04-04T10:30:39.999Z</time></trkpt><trkpt lat="45.618680476197916" lon="10.432675394034344"><ele>604.6666666666666</ele><time>2026-04-04T10:30:40.999Z</time></trkpt><trkpt lat="45.61867619726842" lon="10.432569237259514"><ele>605.3333333333334</ele><time>2026-04-04T10:30:41.999Z</time></trkpt><trkpt lat="45.618666834077274" lon="10.432469087474693"><ele>606.0</ele><time>2026-04-04T10:30:42.999Z</time></trkpt><trkpt lat="45.618623151482836" lon="10.432308503379135"><ele>606.0</ele><time>2026-04-04T10:30:44.999Z</time></trkpt><trkpt lat="45.61857939119762" lon="10.43221390448284"><ele>606.0</ele><time>2026-04-04T10:30:45.999Z</time></trkpt><trkpt lat="45.61852580309237" lon="10.43212580922018"><ele>606.0</ele><time>2026-04-04T10:30:46.999Z</time></trkpt><trkpt lat="45.61846916407188" lon="10.432037490925389"><ele>606.0</ele><time>2026-04-04T10:30:47.999Z</time></trkpt><trkpt lat="45.61840970385166" lon="10.431942538568846"><ele>606.0</ele><time>2026-04-04T10:30:48.999Z</time></trkpt><trkpt lat="45.61834619232854" lon="10.43184106704835"><ele>606.0</ele><time>2026-04-04T10:30:49.999Z</time></trkpt><trkpt lat="45.61827524437974" lon="10.431738555191131"><ele>604.8333333333334</ele><time>2026-04-04T10:30:50.999Z</time></trkpt><trkpt lat="45.618209777537714" lon="10.431638777822178"><ele>603.6666666666666</ele><time>2026-04-04T10:30:51.999Z</time></trkpt><trkpt lat="45.618147140749414" lon="10.431553795144403"><ele>602.5</ele><time>2026-04-04T10:30:52.999Z</time></trkpt><trkpt lat="45.61809218616437" lon="10.431478478423442"><ele>601.3333333333333</ele><time>2026-04-04T10:30:53.999Z</time></trkpt><trkpt lat="45.618038243511535" lon="10.431414829597104"><ele>600.1666666666666</ele><time>2026-04-04T10:30:54.999Z</time></trkpt><trkpt lat="45.61798601854898" lon="10.431345976368519"><ele>599.0</ele><time>2026-04-04T10:30:55.999Z</time></trkpt><trkpt lat="45.6179341148794" lon="10.431261790389113"><ele>600.2</ele><time>2026-04-04T10:30:56.999Z</time></trkpt><trkpt lat="45.617884166174434" lon="10.431162871213472"><ele>601.4</ele><time>2026-04-04T10:30:57.999Z</time></trkpt><trkpt lat="45.61783602360194" lon="10.431053103280446"><ele>602.6</ele><time>2026-04-04T10:30:58.999Z</time></trkpt><trkpt lat="45.61777643023007" lon="10.430957234402463"><ele>603.8</ele><time>2026-04-04T10:30:59.999Z</time></trkpt><trkpt lat="45.61771094902861" lon="10.43085413581295"><ele>605.0</ele><time>2026-04-04T10:31:00.999Z</time></trkpt><trkpt lat="45.617635810527005" lon="10.430751004005893"><ele>605.0</ele><time>2026-04-04T10:31:01.999Z</time></trkpt><trkpt lat="45.617549754136974" lon="10.430645475362507"><ele>605.0</ele><time>2026-04-04T10:31:02.999Z</time></trkpt><trkpt lat="45.61745262093131" lon="10.43053776994752"><ele>605.0</ele><time>2026-04-04T10:31:03.999Z</time></trkpt><trkpt lat="45.617344324270945" lon="10.43042986307409"><ele>605.0</ele><time>2026-04-04T10:31:04.999Z</time></trkpt><trkpt lat="45.61721092475644" lon="10.43029905519353"><ele>603.3333333333333</ele><time>2026-04-04T10:31:05.999Z</time></trkpt><trkpt lat="45.617056557846304" lon="10.430195297684595"><ele>601.6666666666666</ele><time>2026-04-04T10:31:06.999Z</time></trkpt><trkpt lat="45.61688184559709" lon="10.430145622167787"><ele>600.0</ele><time>2026-04-04T10:31:07.999Z</time></trkpt><trkpt lat="45.616689195007346" lon="10.430085318765794"><ele>600.0</ele><time>2026-04-04T10:31:08.999Z</time></trkpt><trkpt lat="45.616512812166" lon="10.429992649446989"><ele>600.0</ele><time>2026-04-04T10:31:09.999Z</time></trkpt><trkpt lat="45.616337545490566" lon="10.429846621814713"><ele>600.0</ele><time>2026-04-04T10:31:10.999Z</time></trkpt><trkpt lat="45.616208695108824" lon="10.429679036642929"><ele>601.25</ele><time>2026-04-04T10:31:11.999Z</time></trkpt><trkpt lat="45.616125163789754" lon="10.429497443890865"><ele>602.5</ele><time>2026-04-04T10:31:12.999Z</time></trkpt><trkpt lat="45.61606723263303" lon="10.429335125452445"><ele>603.75</ele><time>2026-04-04T10:31:13.999Z</time></trkpt><trkpt lat="45.615983172451955" lon="10.429219229336239"><ele>605.0</ele><time>2026-04-04T10:31:14.999Z</time></trkpt><trkpt lat="45.6158744057096" lon="10.42912399613218"><ele>605.0</ele><time>2026-04-04T10:31:15.999Z</time></trkpt><trkpt lat="45.615754580973686" lon="10.429054194228502"><ele>605.0</ele><time>2026-04-04T10:31:16.999Z</time></trkpt><trkpt lat="45.615644099840544" lon="10.429016768177204"><ele>605.0</ele><time>2026-04-04T10:31:17.999Z</time></trkpt><trkpt lat="45.615526751269606" lon="10.428989979430138"><ele>605.0</ele><time>2026-04-04T10:31:18.999Z</time></trkpt><trkpt lat="45.61542047412428" lon="10.428945705712504"><ele>605.0</ele><time>2026-04-04T10:31:19.999Z</time></trkpt><trkpt lat="45.6153213830843" lon="10.428872691248063"><ele>605.0</ele><time>2026-04-04T10:31:20.999Z</time></trkpt><trkpt lat="45.61522852039626" lon="10.428787762804506"><ele>605.0</ele><time>2026-04-04T10:31:21.999Z</time></trkpt><trkpt lat="45.61514847284326" lon="10.428700970788068"><ele>605.0</ele><time>2026-04-04T10:31:22.999Z</time></trkpt><trkpt lat="45.6150421396068" lon="10.428606382110994"><ele>605.0</ele><time>2026-04-04T10:31:23.999Z</time></trkpt><trkpt lat="45.61494555949888" lon="10.42851283281971"><ele>603.75</ele><time>2026-04-04T10:31:24.999Z</time></trkpt><trkpt lat="45.614887457655804" lon="10.42833822020228"><ele>602.5</ele><time>2026-04-04T10:31:25.999Z</time></trkpt><trkpt lat="45.614796182784616" lon="10.428232265084151"><ele>601.25</ele><time>2026-04-04T10:31:26.999Z</time></trkpt><trkpt lat="45.614672640426186" lon="10.428176784280613"><ele>600.0</ele><time>2026-04-04T10:31:27.999Z</time></trkpt><trkpt lat="45.61459616202021" lon="10.428063774915907"><ele>598.6666666666666</ele><time>2026-04-04T10:31:28.999Z</time></trkpt><trkpt lat="45.6145479664054" lon="10.427932956099811"><ele>597.3333333333334</ele><time>2026-04-04T10:31:29.999Z</time></trkpt><trkpt lat="45.614499507158484" lon="10.427819604425995"><ele>596.0</ele><time>2026-04-04T10:31:30.999Z</time></trkpt><trkpt lat="45.614455826889525" lon="10.427702702064432"><ele>594.6666666666667</ele><time>2026-04-04T10:31:31.999Z</time></trkpt><trkpt lat="45.614418469322615" lon="10.42761016379029"><ele>593.3333333333334</ele><time>2026-04-04T10:31:32.999Z</time></trkpt><trkpt lat="45.61436293312351" lon="10.427527118877444"><ele>592.0</ele><time>2026-04-04T10:31:33.999Z</time></trkpt><trkpt lat="45.61428823454406" lon="10.427439463128477"><ele>594.8000000000001</ele><time>2026-04-04T10:31:34.999Z</time></trkpt><trkpt lat="45.614212650616935" lon="10.427355928296691"><ele>597.6</ele><time>2026-04-04T10:31:35.999Z</time></trkpt><trkpt lat="45.614148137038555" lon="10.427254803769939"><ele>600.4000000000001</ele><time>2026-04-04T10:31:36.999Z</time></trkpt><trkpt lat="45.61410227811292" lon="10.42713213785583"><ele>603.2</ele><time>2026-04-04T10:31:37.999Z</time></trkpt><trkpt lat="45.61405316277529" lon="10.427011753642798"><ele>606.0</ele><time>2026-04-04T10:31:38.999Z</time></trkpt><trkpt lat="45.61400178295605" lon="10.426890857300807"><ele>606.0</ele><time>2026-04-04T10:31:39.999Z</time></trkpt><trkpt lat="45.61393629772185" lon="10.426777129245298"><ele>606.0</ele><time>2026-04-04T10:31:40.999Z</time></trkpt><trkpt lat="45.61386352470227" lon="10.426671453191156"><ele>606.0</ele><time>2026-04-04T10:31:41.999Z</time></trkpt><trkpt lat="45.61383302250523" lon="10.426509644938324"><ele>606.0</ele><time>2026-04-04T10:31:42.999Z</time></trkpt><trkpt lat="45.613773926195755" lon="10.426399774548669"><ele>606.0</ele><time>2026-04-04T10:31:43.999Z</time></trkpt><trkpt lat="45.61371963731903" lon="10.426284669210196"><ele>605.6</ele><time>2026-04-04T10:31:44.999Z</time></trkpt><trkpt lat="45.61367754794329" lon="10.426160961267817"><ele>605.2</ele><time>2026-04-04T10:31:45.999Z</time></trkpt><trkpt lat="45.61364497690734" lon="10.426017414994073"><ele>604.8</ele><time>2026-04-04T10:31:46.999Z</time></trkpt><trkpt lat="45.613598238260515" lon="10.425863325225777"><ele>604.4</ele><time>2026-04-04T10:31:48Z</time></trkpt><trkpt lat="45.61354367697064" lon="10.425749625525267"><ele>604.0</ele><time>2026-04-04T10:31:49Z</time></trkpt><trkpt lat="45.61348042007052" lon="10.425629538396516"><ele>601.8333333333334</ele><time>2026-04-04T10:31:50Z</time></trkpt><trkpt lat="45.613431378309066" lon="10.425550396201123"><ele>599.6666666666667</ele><time>2026-04-04T10:31:51Z</time></trkpt><trkpt lat="45.61337663828959" lon="10.425474129537855"><ele>597.5</ele><time>2026-04-04T10:31:52Z</time></trkpt><trkpt lat="45.613304937750065" lon="10.425417430729079"><ele>595.3333333333334</ele><time>2026-04-04T10:31:53Z</time></trkpt><trkpt lat="45.61322694103244" lon="10.425388868083838"><ele>593.1666666666666</ele><time>2026-04-04T10:31:54Z</time></trkpt><trkpt lat="45.61311605775681" lon="10.425472936641825"><ele>591.0</ele><time>2026-04-04T10:31:55Z</time></trkpt><trkpt lat="45.613043294173416" lon="10.425544847107696"><ele>591.0</ele><time>2026-04-04T10:31:56Z</time></trkpt><trkpt lat="45.61296940367364" lon="10.425612695711132"><ele>591.0</ele><time>2026-04-04T10:31:57Z</time></trkpt><trkpt lat="45.61290231693455" lon="10.425653566733828"><ele>591.0</ele><time>2026-04-04T10:31:58Z</time></trkpt><trkpt lat="45.61282829444234" lon="10.425652983889725"><ele>591.0</ele><time>2026-04-04T10:31:59Z</time></trkpt><trkpt lat="45.61274055138594" lon="10.425624117580346"><ele>591.0</ele><time>2026-04-04T10:32:00Z</time></trkpt><trkpt lat="45.612634438435755" lon="10.425684916605597"><ele>591.0</ele><time>2026-04-04T10:32:01Z</time></trkpt><trkpt lat="45.61252883905908" lon="10.425679921993648"><ele>589.25</ele><time>2026-04-04T10:32:02Z</time></trkpt><trkpt lat="45.61241991864719" lon="10.425684084588486"><ele>587.5</ele><time>2026-04-04T10:32:03Z</time></trkpt><trkpt lat="45.61230693229576" lon="10.425696362072715"><ele>585.75</ele><time>2026-04-04T10:32:04Z</time></trkpt><trkpt lat="45.6121830827834" lon="10.425645318640052"><ele>584.0</ele><time>2026-04-04T10:32:05Z</time></trkpt><trkpt lat="45.612059652997885" lon="10.425663741106915"><ele>581.25</ele><time>2026-04-04T10:32:06Z</time></trkpt><trkpt lat="45.611930021845" lon="10.425689087603365"><ele>578.5</ele><time>2026-04-04T10:32:07Z</time></trkpt><trkpt lat="45.61180646819973" lon="10.425714201275774"><ele>575.75</ele><time>2026-04-04T10:32:08Z</time></trkpt><trkpt lat="45.6116893529209" lon="10.425734626591165"><ele>573.0</ele><time>2026-04-04T10:32:09Z</time></trkpt><trkpt lat="45.61156805035466" lon="10.4257336378088"><ele>573.0</ele><time>2026-04-04T10:32:10Z</time></trkpt><trkpt lat="45.61144734791655" lon="10.425708171539531"><ele>573.0</ele><time>2026-04-04T10:32:11Z</time></trkpt><trkpt lat="45.6113226307369" lon="10.425665296929617"><ele>573.0</ele><time>2026-04-04T10:32:12Z</time></trkpt><trkpt lat="45.61119645807844" lon="10.425619985299297"><ele>573.0</ele><time>2026-04-04T10:32:13Z</time></trkpt><trkpt lat="45.61107269102922" lon="10.42558319590729"><ele>571.5</ele><time>2026-04-04T10:32:14Z</time></trkpt><trkpt lat="45.61095630955009" lon="10.425553431468565"><ele>570.0</ele><time>2026-04-04T10:32:15Z</time></trkpt><trkpt lat="45.610836261559264" lon="10.42552410075328"><ele>568.5</ele><time>2026-04-04T10:32:16Z</time></trkpt><trkpt lat="45.610712314915645" lon="10.425504812828642"><ele>567.0</ele><time>2026-04-04T10:32:16.999Z</time></trkpt><trkpt lat="45.610599675407244" lon="10.42550260913367"><ele>567.0</ele><time>2026-04-04T10:32:17.999Z</time></trkpt><trkpt lat="45.61049844375976" lon="10.425535843517686"><ele>567.0</ele><time>2026-04-04T10:32:18.999Z</time></trkpt><trkpt lat="45.61040856392824" lon="10.425618319229937"><ele>567.0</ele><time>2026-04-04T10:32:19.999Z</time></trkpt><trkpt lat="45.61034024788003" lon="10.42574398653982"><ele>567.0</ele><time>2026-04-04T10:32:20.999Z</time></trkpt><trkpt lat="45.61029750573812" lon="10.42588299346893"><ele>567.0</ele><time>2026-04-04T10:32:21.999Z</time></trkpt><trkpt lat="45.61026868678888" lon="10.42602692588914"><ele>562.8000000000001</ele><time>2026-04-04T10:32:22.999Z</time></trkpt><trkpt lat="45.61023731590318" lon="10.426174634750483"><ele>558.6</ele><time>2026-04-04T10:32:23.999Z</time></trkpt><trkpt lat="45.61020054154515" lon="10.42632106498238"><ele>554.4000000000001</ele><time>2026-04-04T10:32:24.999Z</time></trkpt><trkpt lat="45.61015021257652" lon="10.426465740815507"><ele>550.2</ele><time>2026-04-04T10:32:25.999Z</time></trkpt><trkpt lat="45.610088476971484" lon="10.426595626603984"><ele>546.0</ele><time>2026-04-04T10:32:26.999Z</time></trkpt><trkpt lat="45.61001642713704" lon="10.426724168895609"><ele>546.0</ele><time>2026-04-04T10:32:27.999Z</time></trkpt><trkpt lat="45.6099410288839" lon="10.426840124226413"><ele>546.0</ele><time>2026-04-04T10:32:28.999Z</time></trkpt><trkpt lat="45.609861063069246" lon="10.426956475314146"><ele>546.0</ele><time>2026-04-04T10:32:29.999Z</time></trkpt><trkpt lat="45.609779176909626" lon="10.42707785249418"><ele>546.0</ele><time>2026-04-04T10:32:30.999Z</time></trkpt><trkpt lat="45.60969998495459" lon="10.427200130726971"><ele>543.8</ele><time>2026-04-04T10:32:31.999Z</time></trkpt><trkpt lat="45.60962171068369" lon="10.427311995166134"><ele>541.6</ele><time>2026-04-04T10:32:32.999Z</time></trkpt><trkpt lat="45.609534233249335" lon="10.427393487172033"><ele>539.4</ele><time>2026-04-04T10:32:33.999Z</time></trkpt><trkpt lat="45.60943104724755" lon="10.427446323131345"><ele>537.2</ele><time>2026-04-04T10:32:34.999Z</time></trkpt><trkpt lat="45.60932615614179" lon="10.427495696373887"><ele>535.0</ele><time>2026-04-04T10:32:35.999Z</time></trkpt><trkpt lat="45.60922721004013" lon="10.427545271983572"><ele>535.0</ele><time>2026-04-04T10:32:36.999Z</time></trkpt><trkpt lat="45.60913563994387" lon="10.427613070856872"><ele>535.0</ele><time>2026-04-04T10:32:37.999Z</time></trkpt><trkpt lat="45.60905628807299" lon="10.427713096453582"><ele>535.0</ele><time>2026-04-04T10:32:38.999Z</time></trkpt><trkpt lat="45.60901491731184" lon="10.427887265063184"><ele>535.0</ele><time>2026-04-04T10:32:39.999Z</time></trkpt><trkpt lat="45.60896474638397" lon="10.428078944229194"><ele>538.5</ele><time>2026-04-04T10:32:40.999Z</time></trkpt><trkpt lat="45.60891950806171" lon="10.428279987501895"><ele>542.0</ele><time>2026-04-04T10:32:41.999Z</time></trkpt><trkpt lat="45.60888370881219" lon="10.42847173433593"><ele>545.5</ele><time>2026-04-04T10:32:42.999Z</time></trkpt><trkpt lat="45.60887329705322" lon="10.42867439224992"><ele>549.0</ele><time>2026-04-04T10:32:43.999Z</time></trkpt><trkpt lat="45.608884232958715" lon="10.428863009576173"><ele>550.6</ele><time>2026-04-04T10:32:44.999Z</time></trkpt><trkpt lat="45.60890659731587" lon="10.429018781752744"><ele>552.2</ele><time>2026-04-04T10:32:45.999Z</time></trkpt><trkpt lat="45.608914992933826" lon="10.429136845165955"><ele>553.8000000000001</ele><time>2026-04-04T10:32:46.999Z</time></trkpt><trkpt lat="45.60885501032874" lon="10.429219351418322"><ele>555.4</ele><time>2026-04-04T10:32:47.999Z</time></trkpt><trkpt lat="45.60876442679621" lon="10.429224527767028"><ele>557.0</ele><time>2026-04-04T10:32:48.999Z</time></trkpt><trkpt lat="45.60864705365315" lon="10.429215431911075"><ele>549.5</ele><time>2026-04-04T10:32:49.999Z</time></trkpt><trkpt lat="45.60849367347078" lon="10.429221636800365"><ele>542.0</ele><time>2026-04-04T10:32:50.999Z</time></trkpt><trkpt lat="45.608341210140914" lon="10.429243944957632"><ele>534.5</ele><time>2026-04-04T10:32:51.999Z</time></trkpt><trkpt lat="45.608202208015086" lon="10.429266301990829"><ele>527.0</ele><time>2026-04-04T10:32:52.999Z</time></trkpt><trkpt lat="45.60807930540196" lon="10.429289389528288"><ele>527.0</ele><time>2026-04-04T10:32:53.999Z</time></trkpt><trkpt lat="45.607971086199576" lon="10.429326398042503"><ele>527.0</ele><time>2026-04-04T10:32:54.999Z</time></trkpt><trkpt lat="45.607869698820785" lon="10.429400198762615"><ele>527.0</ele><time>2026-04-04T10:32:55.999Z</time></trkpt><trkpt lat="45.607778761459215" lon="10.429515951712983"><ele>527.0</ele><time>2026-04-04T10:32:56.999Z</time></trkpt><trkpt lat="45.607690379359354" lon="10.429670003144963"><ele>523.75</ele><time>2026-04-04T10:32:57.999Z</time></trkpt><trkpt lat="45.60762858024764" lon="10.429867983282465"><ele>520.5</ele><time>2026-04-04T10:32:58.999Z</time></trkpt><trkpt lat="45.607584609062854" lon="10.430042503560111"><ele>517.25</ele><time>2026-04-04T10:32:59.999Z</time></trkpt><trkpt lat="45.60753723693246" lon="10.430163968484033"><ele>514.0</ele><time>2026-04-04T10:33:00.999Z</time></trkpt><trkpt lat="45.60748429252789" lon="10.430246511510838"><ele>514.0</ele><time>2026-04-04T10:33:01.999Z</time></trkpt><trkpt lat="45.60739358752605" lon="10.430304212090322"><ele>514.0</ele><time>2026-04-04T10:33:02.999Z</time></trkpt><trkpt lat="45.60728155903859" lon="10.430307084900539"><ele>514.0</ele><time>2026-04-04T10:33:03.999Z</time></trkpt><trkpt lat="45.607143794194194" lon="10.43032057331341"><ele>514.0</ele><time>2026-04-04T10:33:04.999Z</time></trkpt><trkpt lat="45.60700876560243" lon="10.430333720489593"><ele>513.8333333333334</ele><time>2026-04-04T10:33:05.999Z</time></trkpt><trkpt lat="45.606911257632426" lon="10.430346710466381"><ele>513.6666666666667</ele><time>2026-04-04T10:33:06.999Z</time></trkpt><trkpt lat="45.60683354105381" lon="10.430359188606658"><ele>513.5</ele><time>2026-04-04T10:33:07.999Z</time></trkpt><trkpt lat="45.606731336364646" lon="10.430378302793178"><ele>513.3333333333334</ele><time>2026-04-04T10:33:09.999Z</time></trkpt><trkpt lat="45.606661181397364" lon="10.43040782124888"><ele>513.1666666666666</ele><time>2026-04-04T10:33:11.999Z</time></trkpt><trkpt lat="45.60659132572237" lon="10.430454049870688"><ele>513.0</ele><time>2026-04-04T10:33:15.999Z</time></trkpt><trkpt lat="45.60653372215356" lon="10.430499625863057"><ele>513.0</ele><time>2026-04-04T10:33:24.999Z</time></trkpt><trkpt lat="45.606473133680424" lon="10.430470578084584"><ele>513.0</ele><time>2026-04-04T10:33:38.999Z</time></trkpt><trkpt lat="45.60640312499184" lon="10.430500516404468"><ele>513.0</ele><time>2026-04-04T10:33:48.999Z</time></trkpt><trkpt lat="45.60632915376969" lon="10.430523706452508"><ele>513.0</ele><time>2026-04-04T10:33:58Z</time></trkpt><trkpt lat="45.606270386756684" lon="10.430557481109956"><ele>513.0</ele><time>2026-04-04T10:34:03Z</time></trkpt><trkpt lat="45.60617294289717" lon="10.430576773896147"><ele>513.0</ele><time>2026-04-04T10:34:07Z</time></trkpt><trkpt lat="45.606099269777914" lon="10.430620857644206"><ele>507.5</ele><time>2026-04-04T10:34:10Z</time></trkpt><trkpt lat="45.60600845441591" lon="10.430680560469497"><ele>502.0</ele><time>2026-04-04T10:34:13Z</time></trkpt><trkpt lat="45.60596517518289" lon="10.430786462176927"><ele>496.5</ele><time>2026-04-04T10:34:15Z</time></trkpt><trkpt lat="45.60592435418431" lon="10.43087970469685"><ele>491.0</ele><time>2026-04-04T10:34:16.999Z</time></trkpt><trkpt lat="45.60587439369637" lon="10.430966161443378"><ele>485.5</ele><time>2026-04-04T10:34:17.999Z</time></trkpt><trkpt lat="45.60582345514315" lon="10.431024613290091"><ele>480.0</ele><time>2026-04-04T10:34:19.999Z</time></trkpt><trkpt lat="45.605647370496484" lon="10.431158809464185"><ele>480.0</ele><time>2026-04-04T10:34:22.999Z</time></trkpt><trkpt lat="45.605548996163336" lon="10.431134155105964"><ele>480.0</ele><time>2026-04-04T10:34:25.999Z</time></trkpt><trkpt lat="45.60549191800671" lon="10.431229524112041"><ele>480.0</ele><time>2026-04-04T10:34:27.999Z</time></trkpt><trkpt lat="45.6054175622623" lon="10.43123627026453"><ele>480.0</ele><time>2026-04-04T10:34:31.999Z</time></trkpt><trkpt lat="45.60537992836354" lon="10.431322971819549"><ele>480.0</ele><time>2026-04-04T10:34:38.999Z</time></trkpt><trkpt lat="45.60533775878144" lon="10.431402452297306"><ele>480.0</ele><time>2026-04-04T10:34:40.999Z</time></trkpt><trkpt lat="45.605269675495784" lon="10.431337068478332"><ele>475.3333333333333</ele><time>2026-04-04T10:34:50.999Z</time></trkpt><trkpt lat="45.605195049205435" lon="10.431295910656397"><ele>470.66666666666663</ele><time>2026-04-04T10:34:55.999Z</time></trkpt><trkpt lat="45.60514045938145" lon="10.431341422254508"><ele>466.0</ele><time>2026-04-04T10:34:58.999Z</time></trkpt><trkpt lat="45.605080980409106" lon="10.431415745955507"><ele>461.3333333333333</ele><time>2026-04-04T10:35:00.999Z</time></trkpt><trkpt lat="45.60502984104039" lon="10.431507718910511"><ele>456.66666666666663</ele><time>2026-04-04T10:35:18.999Z</time></trkpt><trkpt lat="45.60499026805556" lon="10.43161389151967"><ele>452.0</ele><time>2026-04-04T10:35:21.999Z</time></trkpt><trkpt lat="45.60496231721043" lon="10.431720815158352"><ele>451.99999999999994</ele><time>2026-04-04T10:35:41.999Z</time></trkpt><trkpt lat="45.60494123171927" lon="10.431832105555687"><ele>452.0</ele><time>2026-04-04T10:35:45.999Z</time></trkpt><trkpt lat="45.60492674815691" lon="10.43195737359145"><ele>452.0</ele><time>2026-04-04T10:35:49.998Z</time></trkpt><trkpt lat="45.6049188008336" lon="10.432062587265579"><ele>452.0</ele><time>2026-04-04T10:35:53.998Z</time></trkpt><trkpt lat="45.60491733244875" lon="10.432217489203667"><ele>451.99999999999994</ele><time>2026-04-04T10:36:46.999Z</time></trkpt><trkpt lat="45.60491733384538" lon="10.432310164829286"><ele>452.0</ele><time>2026-04-04T10:36:50.999Z</time></trkpt><trkpt lat="45.60491314154077" lon="10.432447001441528"><ele>450.49999999999994</ele><time>2026-04-04T10:36:54.999Z</time></trkpt><trkpt lat="45.604929130578626" lon="10.432555174460662"><ele>449.0</ele><time>2026-04-04T10:36:57.999Z</time></trkpt><trkpt lat="45.6049518294718" lon="10.432666342179065"><ele>447.5</ele><time>2026-04-04T10:37:00.999Z</time></trkpt><trkpt lat="45.60498722844762" lon="10.432760455864615"><ele>446.0</ele><time>2026-04-04T10:37:02.999Z</time></trkpt><trkpt lat="45.605018050387706" lon="10.432853419783603"><ele>444.49999999999994</ele><time>2026-04-04T10:37:04.999Z</time></trkpt><trkpt lat="45.60503966202433" lon="10.43296544763221"><ele>443.0</ele><time>2026-04-04T10:37:07.999Z</time></trkpt><trkpt lat="45.60504918012604" lon="10.43306994806145"><ele>437.25</ele><time>2026-04-04T10:37:09.999Z</time></trkpt><trkpt lat="45.605068400384795" lon="10.433394219396929"><ele>431.5</ele><time>2026-04-04T10:37:12.999Z</time></trkpt><trkpt lat="45.605074655456505" lon="10.433543628611053"><ele>425.75</ele><time>2026-04-04T10:37:14.999Z</time></trkpt><trkpt lat="45.60515530322608" lon="10.43358831310426"><ele>420.0</ele><time>2026-04-04T10:37:17.999Z</time></trkpt><trkpt lat="45.60512997864037" lon="10.433690348744959"><ele>416.6</ele><time>2026-04-04T10:37:21.999Z</time></trkpt><trkpt lat="45.60514772548133" lon="10.433807930115364"><ele>413.2</ele><time>2026-04-04T10:37:24.999Z</time></trkpt><trkpt lat="45.605197260074135" lon="10.433895642470178"><ele>409.79999999999995</ele><time>2026-04-04T10:37:26.999Z</time></trkpt><trkpt lat="45.60523214810562" lon="10.434039540957043"><ele>406.4</ele><time>2026-04-04T10:37:28.999Z</time></trkpt><trkpt lat="45.6052479353042" lon="10.434205972798795"><ele>403.0</ele><time>2026-04-04T10:37:30.999Z</time></trkpt><trkpt lat="45.605258751630195" lon="10.434374191431537"><ele>403.0</ele><time>2026-04-04T10:37:32.999Z</time></trkpt><trkpt lat="45.60527422051909" lon="10.43447230098752"><ele>403.0</ele><time>2026-04-04T10:37:33.999Z</time></trkpt><trkpt lat="45.605291859014514" lon="10.434558853625173"><ele>403.0</ele><time>2026-04-04T10:37:34.999Z</time></trkpt><trkpt lat="45.60528545280503" lon="10.43473078239673"><ele>403.0</ele><time>2026-04-04T10:37:36.999Z</time></trkpt><trkpt lat="45.60528093747745" lon="10.434830842832092"><ele>403.0</ele><time>2026-04-04T10:37:37.999Z</time></trkpt><trkpt lat="45.605259368077085" lon="10.43504916798428"><ele>401.00000000000006</ele><time>2026-04-04T10:37:39.999Z</time></trkpt><trkpt lat="45.60531134724448" lon="10.435194585284945"><ele>399.0</ele><time>2026-04-04T10:37:41.999Z</time></trkpt><trkpt lat="45.60534529879257" lon="10.435279440697252"><ele>397.0</ele><time>2026-04-04T10:37:42.999Z</time></trkpt><trkpt lat="45.605369252840944" lon="10.435377206532996"><ele>395.0</ele><time>2026-04-04T10:37:45.999Z</time></trkpt><trkpt lat="45.6053094415518" lon="10.435471715270207"><ele>393.00000000000006</ele><time>2026-04-04T10:37:49.999Z</time></trkpt><trkpt lat="45.60523416285872" lon="10.435462163268731"><ele>391.0</ele><time>2026-04-04T10:37:52.999Z</time></trkpt><trkpt lat="45.605155216914156" lon="10.435390191731953"><ele>391.00000000000006</ele><time>2026-04-04T10:37:54.998Z</time></trkpt><trkpt lat="45.60507160488823" lon="10.435344237548476"><ele>391.0</ele><time>2026-04-04T10:37:56.998Z</time></trkpt><trkpt lat="45.60501887145352" lon="10.4352895842472"><ele>391.0</ele><time>2026-04-04T10:37:58.998Z</time></trkpt><trkpt lat="45.604951815161925" lon="10.43526057619815"><ele>391.0</ele><time>2026-04-04T10:38:01.998Z</time></trkpt><trkpt lat="45.60490394434927" lon="10.435180832079102"><ele>391.00000000000006</ele><time>2026-04-04T10:38:03.998Z</time></trkpt><trkpt lat="45.60480225310412" lon="10.435177178882872"><ele>391.0</ele><time>2026-04-04T10:38:06.999Z</time></trkpt><trkpt lat="45.6047248597428" lon="10.435107491529923"><ele>391.00000000000006</ele><time>2026-04-04T10:38:09Z</time></trkpt><trkpt lat="45.604680343935996" lon="10.435023160772007"><ele>391.0</ele><time>2026-04-04T10:38:11Z</time></trkpt><trkpt lat="45.604657754413076" lon="10.434905972501202"><ele>391.0</ele><time>2026-04-04T10:38:12.999Z</time></trkpt><trkpt lat="45.60459654592593" lon="10.434806846868367"><ele>391.0</ele><time>2026-04-04T10:38:15Z</time></trkpt><trkpt lat="45.60458303454392" lon="10.434714681028126"><ele>391.00000000000006</ele><time>2026-04-04T10:38:15.999Z</time></trkpt><trkpt lat="45.60455833275703" lon="10.434626592938605"><ele>391.0</ele><time>2026-04-04T10:38:17Z</time></trkpt><trkpt lat="45.60452165372307" lon="10.43454175717867"><ele>387.50000000000006</ele><time>2026-04-04T10:38:18Z</time></trkpt><trkpt lat="45.60448915648128" lon="10.434381086493806"><ele>384.0</ele><time>2026-04-04T10:38:19.999Z</time></trkpt><trkpt lat="45.60447706141478" lon="10.434271596468388"><ele>380.5</ele><time>2026-04-04T10:38:21.999Z</time></trkpt><trkpt lat="45.60442540733519" lon="10.434176901183475"><ele>377.0</ele><time>2026-04-04T10:38:24.999Z</time></trkpt><trkpt lat="45.604357576125935" lon="10.434164047175635"><ele>373.5</ele><time>2026-04-04T10:38:29.999Z</time></trkpt><trkpt lat="45.604297499397894" lon="10.434239955927378"><ele>370.0</ele><time>2026-04-04T10:38:34.999Z</time></trkpt><trkpt lat="45.60422999020676" lon="10.434321504959753"><ele>370.0</ele><time>2026-04-04T10:38:37.999Z</time></trkpt><trkpt lat="45.60417408089728" lon="10.434367398892748"><ele>370.0</ele><time>2026-04-04T10:38:40.999Z</time></trkpt><trkpt lat="45.604092241917634" lon="10.4343662055443"><ele>370.0</ele><time>2026-04-04T10:38:43.999Z</time></trkpt><trkpt lat="45.60401618296203" lon="10.434348233123307"><ele>370.0</ele><time>2026-04-04T10:38:46.999Z</time></trkpt><trkpt lat="45.603953143525246" lon="10.434293482974532"><ele>370.0</ele><time>2026-04-04T10:38:49.999Z</time></trkpt><trkpt lat="45.60384075727762" lon="10.434298338256669"><ele>370.0</ele><time>2026-04-04T10:38:53.999Z</time></trkpt><trkpt lat="45.60375286919628" lon="10.434333896097469"><ele>370.0</ele><time>2026-04-04T10:38:54.999Z</time></trkpt><trkpt lat="45.603674681129654" lon="10.434355933066005"><ele>370.0</ele><time>2026-04-04T10:38:57.999Z</time></trkpt><trkpt lat="45.6035990408303" lon="10.434379754457362"><ele>370.0</ele><time>2026-04-04T10:38:59.999Z</time></trkpt><trkpt lat="45.60351581723491" lon="10.434418849158567"><ele>370.0</ele><time>2026-04-04T10:39:01.999Z</time></trkpt><trkpt lat="45.60345515285193" lon="10.43446958013232"><ele>370.0</ele><time>2026-04-04T10:39:03.999Z</time></trkpt><trkpt lat="45.60339355699975" lon="10.434521090157974"><ele>370.0</ele><time>2026-04-04T10:39:05.999Z</time></trkpt><trkpt lat="45.60333787356331" lon="10.434563869706007"><ele>365.0</ele><time>2026-04-04T10:39:06.999Z</time></trkpt><trkpt lat="45.6032743725789" lon="10.434603634743912"><ele>360.0</ele><time>2026-04-04T10:39:07.999Z</time></trkpt><trkpt lat="45.60321218187356" lon="10.434622528552666"><ele>355.0</ele><time>2026-04-04T10:39:08.999Z</time></trkpt><trkpt lat="45.6030912334365" lon="10.434681801508477"><ele>350.0</ele><time>2026-04-04T10:39:10.999Z</time></trkpt><trkpt lat="45.60301524883132" lon="10.434721579034212"><ele>345.0</ele><time>2026-04-04T10:39:12.999Z</time></trkpt><trkpt lat="45.60293102335178" lon="10.434683087519105"><ele>340.0</ele><time>2026-04-04T10:39:14.999Z</time></trkpt><trkpt lat="45.60288710101267" lon="10.434611356505412"><ele>334.2</ele><time>2026-04-04T10:39:16.999Z</time></trkpt><trkpt lat="45.60277929262348" lon="10.434657918021294"><ele>328.4</ele><time>2026-04-04T10:39:18.999Z</time></trkpt><trkpt lat="45.60272573377963" lon="10.434745800634007"><ele>322.6</ele><time>2026-04-04T10:39:20.999Z</time></trkpt><trkpt lat="45.602706970785825" lon="10.434852151555804"><ele>316.8</ele><time>2026-04-04T10:39:22.999Z</time></trkpt><trkpt lat="45.60270569350295" lon="10.43501739780752"><ele>311.0</ele><time>2026-04-04T10:39:24.999Z</time></trkpt><trkpt lat="45.6026301554924" lon="10.435126573261108"><ele>311.0</ele><time>2026-04-04T10:39:26.999Z</time></trkpt><trkpt lat="45.602615478516555" lon="10.435217222784102"><ele>311.0</ele><time>2026-04-04T10:39:28.999Z</time></trkpt><trkpt lat="45.602595514268366" lon="10.435340528426789"><ele>311.0</ele><time>2026-04-04T10:39:30.999Z</time></trkpt><trkpt lat="45.60257679722308" lon="10.435457867988028"><ele>311.0</ele><time>2026-04-04T10:39:32.999Z</time></trkpt><trkpt lat="45.60255743499455" lon="10.435581045118647"><ele>311.0</ele><time>2026-04-04T10:39:35.999Z</time></trkpt><trkpt lat="45.60253889837696" lon="10.435732502213204"><ele>311.0</ele><time>2026-04-04T10:39:37.999Z</time></trkpt><trkpt lat="45.602526525338554" lon="10.43585891716783"><ele>310.33333333333337</ele><time>2026-04-04T10:39:39.999Z</time></trkpt><trkpt lat="45.602517261931375" lon="10.435975992850384"><ele>309.6666666666667</ele><time>2026-04-04T10:39:41.999Z</time></trkpt><trkpt lat="45.60254055347123" lon="10.43606777094261"><ele>309.0</ele><time>2026-04-04T10:39:42.999Z</time></trkpt><trkpt lat="45.60252616570623" lon="10.436181422867493"><ele>308.3333333333333</ele><time>2026-04-04T10:39:43.999Z</time></trkpt><trkpt lat="45.60252763766629" lon="10.436292818978417"><ele>307.66666666666663</ele><time>2026-04-04T10:39:44.999Z</time></trkpt><trkpt lat="45.602529743101776" lon="10.436397430560682"><ele>307.0</ele><time>2026-04-04T10:39:45.999Z</time></trkpt><trkpt lat="45.60254378457595" lon="10.436510426647661"><ele>306.0</ele><time>2026-04-04T10:39:46.998Z</time></trkpt><trkpt lat="45.602545063326325" lon="10.436634299575795"><ele>305.0</ele><time>2026-04-04T10:39:47.998Z</time></trkpt><trkpt lat="45.60255658225925" lon="10.43678016048159"><ele>304.0</ele><time>2026-04-04T10:39:48.998Z</time></trkpt><trkpt lat="45.60255069717196" lon="10.436921872673997"><ele>303.0</ele><time>2026-04-04T10:39:49.998Z</time></trkpt><trkpt lat="45.602563261890005" lon="10.437099165691972"><ele>302.0</ele><time>2026-04-04T10:39:50.998Z</time></trkpt><trkpt lat="45.60256816273072" lon="10.43725639826126"><ele>300.6</ele><time>2026-04-04T10:39:51.998Z</time></trkpt><trkpt lat="45.602589993496565" lon="10.437395523653434"><ele>299.2</ele><time>2026-04-04T10:39:52.998Z</time></trkpt><trkpt lat="45.602590903502154" lon="10.437528624486243"><ele>297.8</ele><time>2026-04-04T10:39:53.998Z</time></trkpt><trkpt lat="45.60264248430125" lon="10.437650045892125"><ele>296.4</ele><time>2026-04-04T10:39:54.998Z</time></trkpt><trkpt lat="45.60264832381013" lon="10.43777652283412"><ele>295.0</ele><time>2026-04-04T10:39:55.998Z</time></trkpt><trkpt lat="45.60262445785297" lon="10.437896174275593"><ele>293.4</ele><time>2026-04-04T10:39:56.998Z</time></trkpt><trkpt lat="45.602628938337716" lon="10.438008047336945"><ele>291.8</ele><time>2026-04-04T10:39:57.998Z</time></trkpt><trkpt lat="45.60264900401357" lon="10.438129529121863"><ele>290.2</ele><time>2026-04-04T10:39:58.998Z</time></trkpt><trkpt lat="45.60270749404866" lon="10.438248553902088"><ele>288.6</ele><time>2026-04-04T10:39:59.998Z</time></trkpt><trkpt lat="45.60275528841152" lon="10.438390340870313"><ele>287.0</ele><time>2026-04-04T10:40:00.998Z</time></trkpt><trkpt lat="45.60281708820054" lon="10.438536597391758"><ele>288.4</ele><time>2026-04-04T10:40:01.998Z</time></trkpt><trkpt lat="45.602869357692605" lon="10.438716245603766"><ele>289.79999999999995</ele><time>2026-04-04T10:40:02.998Z</time></trkpt><trkpt lat="45.60291727557029" lon="10.43887823065248"><ele>291.2</ele><time>2026-04-04T10:40:03.998Z</time></trkpt><trkpt lat="45.60285055416718" lon="10.438868115527827"><ele>292.59999999999997</ele><time>2026-04-04T10:40:06.998Z</time></trkpt><trkpt lat="45.60274088487367" lon="10.438885493794036"><ele>294.0</ele><time>2026-04-04T10:40:08.998Z</time></trkpt><trkpt lat="45.60268518335651" lon="10.438839261115593"><ele>292.8333333333333</ele><time>2026-04-04T10:40:09.998Z</time></trkpt><trkpt lat="45.602636027259656" lon="10.438769678136453"><ele>291.6666666666667</ele><time>2026-04-04T10:40:10.999Z</time></trkpt><trkpt lat="45.60257070832983" lon="10.438648996249377"><ele>290.5</ele><time>2026-04-04T10:40:12.999Z</time></trkpt><trkpt lat="45.6024545462479" lon="10.438665147461741"><ele>289.33333333333337</ele><time>2026-04-04T10:40:14.999Z</time></trkpt><trkpt lat="45.60237571511939" lon="10.438679241515093"><ele>288.1666666666667</ele><time>2026-04-04T10:40:15.999Z</time></trkpt><trkpt lat="45.602300534898085" lon="10.438684427535522"><ele>287.0</ele><time>2026-04-04T10:40:16.999Z</time></trkpt><trkpt lat="45.60220617485284" lon="10.438708584193959"><ele>287.0</ele><time>2026-04-04T10:40:17.999Z</time></trkpt><trkpt lat="45.60210256898857" lon="10.438718208737777"><ele>287.0</ele><time>2026-04-04T10:40:18.999Z</time></trkpt><trkpt lat="45.60200387105265" lon="10.438709724828476"><ele>287.0</ele><time>2026-04-04T10:40:19.999Z</time></trkpt><trkpt lat="45.6019088626112" lon="10.438741528097196"><ele>287.0</ele><time>2026-04-04T10:40:20.999Z</time></trkpt><trkpt lat="45.60182489331176" lon="10.438756370804725"><ele>287.0</ele><time>2026-04-04T10:40:21.999Z</time></trkpt><trkpt lat="45.60173916412223" lon="10.43876081818042"><ele>283.85714285714283</ele><time>2026-04-04T10:40:22.999Z</time></trkpt><trkpt lat="45.60166097557171" lon="10.438760631620529"><ele>280.7142857142857</ele><time>2026-04-04T10:40:23.999Z</time></trkpt><trkpt lat="45.60159748579481" lon="10.438759294423074"><ele>277.57142857142856</ele><time>2026-04-04T10:40:24.999Z</time></trkpt><trkpt lat="45.60153639182108" lon="10.438721728824854"><ele>274.42857142857144</ele><time>2026-04-04T10:40:25.999Z</time></trkpt><trkpt lat="45.60146903373124" lon="10.438643723945475"><ele>271.2857142857143</ele><time>2026-04-04T10:40:26.999Z</time></trkpt><trkpt lat="45.601408102993595" lon="10.438573970161537"><ele>268.1428571428571</ele><time>2026-04-04T10:40:27.999Z</time></trkpt><trkpt lat="45.60134318081774" lon="10.438517660199002"><ele>265.0</ele><time>2026-04-04T10:40:28.999Z</time></trkpt><trkpt lat="45.601289539474045" lon="10.438470141963052"><ele>265.0</ele><time>2026-04-04T10:40:29.999Z</time></trkpt><trkpt lat="45.601198128407994" lon="10.438411662580997"><ele>265.0</ele><time>2026-04-04T10:40:31.999Z</time></trkpt><trkpt lat="45.60105740126065" lon="10.43844297273675"><ele>265.0</ele><time>2026-04-04T10:40:33.999Z</time></trkpt><trkpt lat="45.60097039624371" lon="10.438455021330585"><ele>265.0</ele><time>2026-04-04T10:40:34.999Z</time></trkpt><trkpt lat="45.60087453135277" lon="10.43845945928931"><ele>265.0</ele><time>2026-04-04T10:40:35.999Z</time></trkpt><trkpt lat="45.600781079116686" lon="10.438440461274151"><ele>261.4</ele><time>2026-04-04T10:40:36.999Z</time></trkpt><trkpt lat="45.60067700614475" lon="10.438393861559483"><ele>257.8</ele><time>2026-04-04T10:40:37.999Z</time></trkpt><trkpt lat="45.60056814046906" lon="10.438350807350332"><ele>254.2</ele><time>2026-04-04T10:40:38.999Z</time></trkpt><trkpt lat="45.60045737400003" lon="10.438308478292393"><ele>250.6</ele><time>2026-04-04T10:40:39.999Z</time></trkpt><trkpt lat="45.60035648014258" lon="10.438290609195864"><ele>247.0</ele><time>2026-04-04T10:40:41Z</time></trkpt><trkpt lat="45.600267421619705" lon="10.438274503204767"><ele>244.39999999999998</ele><time>2026-04-04T10:40:42Z</time></trkpt><trkpt lat="45.6001682485892" lon="10.438298092781116"><ele>241.79999999999998</ele><time>2026-04-04T10:40:43Z</time></trkpt><trkpt lat="45.60007083577685" lon="10.438207119582716"><ele>239.2</ele><time>2026-04-04T10:40:45Z</time></trkpt><trkpt lat="45.60000467211569" lon="10.43818174810935"><ele>236.6</ele><time>2026-04-04T10:40:48Z</time></trkpt><trkpt lat="45.60001069734672" lon="10.438057132728614"><ele>234.0</ele><time>2026-04-04T10:40:49Z</time></trkpt><trkpt lat="45.60003704105777" lon="10.437920083943988"><ele>232.79999999999998</ele><time>2026-04-04T10:40:50Z</time></trkpt><trkpt lat="45.600082642540215" lon="10.437784557380422"><ele>231.59999999999997</ele><time>2026-04-04T10:40:51Z</time></trkpt><trkpt lat="45.6001352463606" lon="10.437658491500677"><ele>230.4</ele><time>2026-04-04T10:40:52Z</time></trkpt><trkpt lat="45.600185102479955" lon="10.437543363025002"><ele>229.2</ele><time>2026-04-04T10:40:53Z</time></trkpt><trkpt lat="45.600222835447866" lon="10.437427103704206"><ele>228.0</ele><time>2026-04-04T10:40:54Z</time></trkpt><trkpt lat="45.60024231515943" lon="10.437304268356955"><ele>228.0</ele><time>2026-04-04T10:40:55Z</time></trkpt><trkpt lat="45.60023421798395" lon="10.437187669259213"><ele>228.0</ele><time>2026-04-04T10:40:56Z</time></trkpt><trkpt lat="45.60018712172687" lon="10.437058359329027"><ele>228.0</ele><time>2026-04-04T10:40:58Z</time></trkpt><trkpt lat="45.60006803960503" lon="10.43703431353916"><ele>228.0</ele><time>2026-04-04T10:41:01Z</time></trkpt><trkpt lat="45.59996515645455" lon="10.437140694899071"><ele>228.0</ele><time>2026-04-04T10:41:03Z</time></trkpt><trkpt lat="45.59991125653966" lon="10.437189664813767"><ele>228.0</ele><time>2026-04-04T10:41:04Z</time></trkpt><trkpt lat="45.59984818791685" lon="10.437242659354052"><ele>228.0</ele><time>2026-04-04T10:41:05Z</time></trkpt><trkpt lat="45.59977924724113" lon="10.437301043679721"><ele>228.0</ele><time>2026-04-04T10:41:06Z</time></trkpt><trkpt lat="45.599709383620954" lon="10.437368659920356"><ele>228.0</ele><time>2026-04-04T10:41:07Z</time></trkpt><trkpt lat="45.599644019972565" lon="10.437430747100617"><ele>228.0</ele><time>2026-04-04T10:41:08Z</time></trkpt><trkpt lat="45.59958958525819" lon="10.437485953943897"><ele>228.0</ele><time>2026-04-04T10:41:09Z</time></trkpt><trkpt lat="45.599514820966746" lon="10.437572789314315"><ele>226.4</ele><time>2026-04-04T10:41:11Z</time></trkpt><trkpt lat="45.59941268305485" lon="10.43746941535603"><ele>224.8</ele><time>2026-04-04T10:41:14Z</time></trkpt><trkpt lat="45.59939122205532" lon="10.437346565183779"><ele>223.2</ele><time>2026-04-04T10:41:16Z</time></trkpt><trkpt lat="45.59935963995538" lon="10.43726361889364"><ele>221.6</ele><time>2026-04-04T10:41:18Z</time></trkpt><trkpt lat="45.59930268179507" lon="10.437167632687826"><ele>220.0</ele><time>2026-04-04T10:41:20Z</time></trkpt><trkpt lat="45.599224105624415" lon="10.437043592176238"><ele>218.49999999999997</ele><time>2026-04-04T10:41:22Z</time></trkpt><trkpt lat="45.59921490186943" lon="10.43691272997451"><ele>217.0</ele><time>2026-04-04T10:41:23Z</time></trkpt><trkpt lat="45.59916660949555" lon="10.436817486682802"><ele>215.5</ele><time>2026-04-04T10:41:24Z</time></trkpt><trkpt lat="45.59911817018124" lon="10.436715503729111"><ele>214.0</ele><time>2026-04-04T10:41:25Z</time></trkpt><trkpt lat="45.59907241527511" lon="10.436623684849112"><ele>212.49999999999997</ele><time>2026-04-04T10:41:26Z</time></trkpt><trkpt lat="45.59903196500868" lon="10.436547371313829"><ele>211.0</ele><time>2026-04-04T10:41:27Z</time></trkpt><trkpt lat="45.5989705163293" lon="10.43643144367237"><ele>211.0</ele><time>2026-04-04T10:41:29Z</time></trkpt><trkpt lat="45.598908410242366" lon="10.43639922463342"><ele>211.0</ele><time>2026-04-04T10:41:30Z</time></trkpt><trkpt lat="45.59882466810942" lon="10.436333732227117"><ele>211.0</ele><time>2026-04-04T10:41:32Z</time></trkpt><trkpt lat="45.598726854273444" lon="10.436235310845277"><ele>211.0</ele><time>2026-04-04T10:41:34Z</time></trkpt><trkpt lat="45.59864255402958" lon="10.43612581155696"><ele>211.0</ele><time>2026-04-04T10:41:36Z</time></trkpt><trkpt lat="45.598569944766744" lon="10.435997116025293"><ele>211.16666666666666</ele><time>2026-04-04T10:41:38Z</time></trkpt><trkpt lat="45.59855571840889" lon="10.435836995192316"><ele>211.33333333333331</ele><time>2026-04-04T10:41:40Z</time></trkpt><trkpt lat="45.59854327584374" lon="10.435745090383369"><ele>211.5</ele><time>2026-04-04T10:41:41Z</time></trkpt><trkpt lat="45.59852098184677" lon="10.43564032916574"><ele>211.66666666666669</ele><time>2026-04-04T10:41:42Z</time></trkpt><trkpt lat="45.598483272165105" lon="10.435535707413116"><ele>211.83333333333334</ele><time>2026-04-04T10:41:43Z</time></trkpt><trkpt lat="45.59843600553484" lon="10.435433634667737"><ele>212.0</ele><time>2026-04-04T10:41:44Z</time></trkpt><trkpt lat="45.59837576386155" lon="10.435340531050203"><ele>212.0</ele><time>2026-04-04T10:41:45Z</time></trkpt><trkpt lat="45.598335423388825" lon="10.435259563207858"><ele>212.0</ele><time>2026-04-04T10:41:46Z</time></trkpt><trkpt lat="45.59829648502596" lon="10.43517160214525"><ele>212.0</ele><time>2026-04-04T10:41:47Z</time></trkpt><trkpt lat="45.598270133936424" lon="10.43508945970946"><ele>212.0</ele><time>2026-04-04T10:41:48Z</time></trkpt><trkpt lat="45.598242539963266" lon="10.43499012445311"><ele>212.0</ele><time>2026-04-04T10:41:49Z</time></trkpt><trkpt lat="45.598239311456275" lon="10.434880089882638"><ele>212.0</ele><time>2026-04-04T10:41:50Z</time></trkpt><trkpt lat="45.59822922824882" lon="10.434782101909917"><ele>212.0</ele><time>2026-04-04T10:41:51Z</time></trkpt><trkpt lat="45.5982021743244" lon="10.434675077461286"><ele>212.0</ele><time>2026-04-04T10:41:52Z</time></trkpt><trkpt lat="45.598150320202755" lon="10.434586178295502"><ele>212.0</ele><time>2026-04-04T10:41:53Z</time></trkpt><trkpt lat="45.598050706816565" lon="10.434560419937233"><ele>212.0</ele><time>2026-04-04T10:41:54Z</time></trkpt><trkpt lat="45.597961345290535" lon="10.434721137366216"><ele>212.0</ele><time>2026-04-04T10:41:55Z</time></trkpt><trkpt lat="45.59786800714092" lon="10.434796890336523"><ele>212.0</ele><time>2026-04-04T10:41:57Z</time></trkpt><trkpt lat="45.5978124398588" lon="10.43474818295638"><ele>213.16666666666669</ele><time>2026-04-04T10:41:59Z</time></trkpt><trkpt lat="45.59769851692682" lon="10.434673665825134"><ele>214.33333333333334</ele><time>2026-04-04T10:42:00.999Z</time></trkpt><trkpt lat="45.59762871696378" lon="10.434651793140386"><ele>215.5</ele><time>2026-04-04T10:42:01.999Z</time></trkpt><trkpt lat="45.5975592657788" lon="10.434632033524538"><ele>216.66666666666669</ele><time>2026-04-04T10:42:02.999Z</time></trkpt><trkpt lat="45.597470524088024" lon="10.434635937839419"><ele>217.83333333333334</ele><time>2026-04-04T10:42:03.999Z</time></trkpt><trkpt lat="45.597404729133636" lon="10.43466242230211"><ele>219.0</ele><time>2026-04-04T10:42:04.999Z</time></trkpt><trkpt lat="45.59733930378317" lon="10.434756655422849"><ele>219.16666666666666</ele><time>2026-04-04T10:42:05.999Z</time></trkpt><trkpt lat="45.59726116075165" lon="10.434778446064652"><ele>219.33333333333331</ele><time>2026-04-04T10:42:06.999Z</time></trkpt><trkpt lat="45.59717537626301" lon="10.434788601913423"><ele>219.5</ele><time>2026-04-04T10:42:07.999Z</time></trkpt><trkpt lat="45.5970984654598" lon="10.434798306071944"><ele>219.66666666666666</ele><time>2026-04-04T10:42:08.999Z</time></trkpt><trkpt lat="45.597025798075265" lon="10.434801317822819"><ele>219.83333333333331</ele><time>2026-04-04T10:42:09.999Z</time></trkpt><trkpt lat="45.596962562203984" lon="10.434802832565591"><ele>220.0</ele><time>2026-04-04T10:42:10.999Z</time></trkpt><trkpt lat="45.59686128825897" lon="10.434804754581608"><ele>220.66666666666666</ele><time>2026-04-04T10:42:12.999Z</time></trkpt><trkpt lat="45.59685918800345" lon="10.434694489211363"><ele>221.33333333333331</ele><time>2026-04-04T10:42:14.999Z</time></trkpt><trkpt lat="45.596840510949455" lon="10.434601951354761"><ele>222.0</ele><time>2026-04-04T10:42:15.999Z</time></trkpt><trkpt lat="45.59687615190226" lon="10.434511244605723"><ele>222.66666666666669</ele><time>2026-04-04T10:42:17Z</time></trkpt><trkpt lat="45.596907708749896" lon="10.434428509032792"><ele>223.33333333333334</ele><time>2026-04-04T10:42:18Z</time></trkpt><trkpt lat="45.59692759711816" lon="10.434342770482406"><ele>224.0</ele><time>2026-04-04T10:42:19Z</time></trkpt><trkpt lat="45.59696236676482" lon="10.43417705130333"><ele>223.0</ele><time>2026-04-04T10:42:21Z</time></trkpt><trkpt lat="45.59697059166103" lon="10.433998942579901"><ele>221.99999999999997</ele><time>2026-04-04T10:42:23Z</time></trkpt><trkpt lat="45.59699122671139" lon="10.433906603368573"><ele>220.99999999999997</ele><time>2026-04-04T10:42:24Z</time></trkpt><trkpt lat="45.596994101489955" lon="10.433745004179832"><ele>220.0</ele><time>2026-04-04T10:42:26Z</time></trkpt><trkpt lat="45.596979666116276" lon="10.433590378186567"><ele>219.0</ele><time>2026-04-04T10:42:28Z</time></trkpt><trkpt lat="45.59700442416294" lon="10.433443721163334"><ele>219.0</ele><time>2026-04-04T10:42:30Z</time></trkpt><trkpt lat="45.59702473933811" lon="10.43334737875155"><ele>219.0</ele><time>2026-04-04T10:42:31Z</time></trkpt><trkpt lat="45.59704541479977" lon="10.433246802458084"><ele>219.0</ele><time>2026-04-04T10:42:32Z</time></trkpt><trkpt lat="45.59706598303563" lon="10.433140878264176"><ele>219.0</ele><time>2026-04-04T10:42:33Z</time></trkpt><trkpt lat="45.5970749497733" lon="10.433041784216975"><ele>219.0</ele><time>2026-04-04T10:42:34Z</time></trkpt><trkpt lat="45.5970641556761" lon="10.432949995845913"><ele>219.0</ele><time>2026-04-04T10:42:35Z</time></trkpt><trkpt lat="45.597035849475354" lon="10.432847740112814"><ele>219.0</ele><time>2026-04-04T10:42:36Z</time></trkpt><trkpt lat="45.59704062842281" lon="10.43275076789101"><ele>220.83333333333334</ele><time>2026-04-04T10:42:37Z</time></trkpt><trkpt lat="45.59706186573606" lon="10.432650727537071"><ele>222.66666666666669</ele><time>2026-04-04T10:42:38Z</time></trkpt><trkpt lat="45.597078343810004" lon="10.43254470600738"><ele>224.5</ele><time>2026-04-04T10:42:39Z</time></trkpt><trkpt lat="45.597115729112815" lon="10.43244120128289"><ele>226.33333333333334</ele><time>2026-04-04T10:42:40Z</time></trkpt><trkpt lat="45.597153404043816" lon="10.43235502476613"><ele>228.16666666666669</ele><time>2026-04-04T10:42:41Z</time></trkpt><trkpt lat="45.59721911692464" lon="10.432221397045563"><ele>230.0</ele><time>2026-04-04T10:42:43Z</time></trkpt><trkpt lat="45.597300023238915" lon="10.432081247229206"><ele>233.66666666666669</ele><time>2026-04-04T10:42:45Z</time></trkpt><trkpt lat="45.59735598490988" lon="10.431994054449087"><ele>237.33333333333334</ele><time>2026-04-04T10:42:46Z</time></trkpt><trkpt lat="45.59740281012288" lon="10.431926622656155"><ele>241.0</ele><time>2026-04-04T10:42:47Z</time></trkpt><trkpt lat="45.59746459730786" lon="10.431859878348106"><ele>244.66666666666669</ele><time>2026-04-04T10:42:48Z</time></trkpt><trkpt lat="45.59754802453893" lon="10.431823238009567"><ele>248.33333333333334</ele><time>2026-04-04T10:42:49Z</time></trkpt><trkpt lat="45.59763088123105" lon="10.431849307980116"><ele>252.0</ele><time>2026-04-04T10:42:50Z</time></trkpt><trkpt lat="45.59775081203766" lon="10.431864452777031"><ele>252.0</ele><time>2026-04-04T10:42:52Z</time></trkpt><trkpt lat="45.59782659062493" lon="10.431859714983037"><ele>252.0</ele><time>2026-04-04T10:42:53Z</time></trkpt><trkpt lat="45.59789463729918" lon="10.43185078335254"><ele>252.0</ele><time>2026-04-04T10:42:54Z</time></trkpt><trkpt lat="45.597988950448396" lon="10.431833850793964"><ele>252.0</ele><time>2026-04-04T10:42:56Z</time></trkpt><trkpt lat="45.59810005961617" lon="10.431802716676662"><ele>252.0</ele><time>2026-04-04T10:42:58Z</time></trkpt><trkpt lat="45.59818028510667" lon="10.43177603496955"><ele>252.0</ele><time>2026-04-04T10:42:59Z</time></trkpt><trkpt lat="45.59826552459715" lon="10.431751989553687"><ele>252.66666666666666</ele><time>2026-04-04T10:43:00Z</time></trkpt><trkpt lat="45.59833649415002" lon="10.431744094562196"><ele>253.33333333333331</ele><time>2026-04-04T10:43:01Z</time></trkpt><trkpt lat="45.598417658541585" lon="10.431746148966896"><ele>254.0</ele><time>2026-04-04T10:43:02Z</time></trkpt><trkpt lat="45.59850556676814" lon="10.431700352975488"><ele>254.66666666666666</ele><time>2026-04-04T10:43:03Z</time></trkpt><trkpt lat="45.59859975459493" lon="10.431633784438723"><ele>255.33333333333331</ele><time>2026-04-04T10:43:04Z</time></trkpt><trkpt lat="45.59865053813766" lon="10.431577091823172"><ele>256.0</ele><time>2026-04-04T10:43:05Z</time></trkpt><trkpt lat="45.59874243987264" lon="10.431454186232965"><ele>256.66666666666663</ele><time>2026-04-04T10:43:07Z</time></trkpt><trkpt lat="45.59879369251854" lon="10.431371263172952"><ele>257.3333333333333</ele><time>2026-04-04T10:43:08Z</time></trkpt><trkpt lat="45.598811416488374" lon="10.431267067801937"><ele>258.0</ele><time>2026-04-04T10:43:09Z</time></trkpt><trkpt lat="45.598772108605786" lon="10.431147582996728"><ele>258.6666666666667</ele><time>2026-04-04T10:43:10Z</time></trkpt><trkpt lat="45.59882889326018" lon="10.431084780596509"><ele>259.33333333333337</ele><time>2026-04-04T10:43:11Z</time></trkpt><trkpt lat="45.59883587243295" lon="10.430983182997245"><ele>260.0</ele><time>2026-04-04T10:43:12Z</time></trkpt><trkpt lat="45.59882797131076" lon="10.430884193966214"><ele>260.0</ele><time>2026-04-04T10:43:13Z</time></trkpt><trkpt lat="45.59875687490418" lon="10.430713402451998"><ele>260.0</ele><time>2026-04-04T10:43:15Z</time></trkpt><trkpt lat="45.5986609964586" lon="10.43070884484014"><ele>260.0</ele><time>2026-04-04T10:43:16Z</time></trkpt><trkpt lat="45.59859332879362" lon="10.430687618119142"><ele>260.0</ele><time>2026-04-04T10:43:17Z</time></trkpt><trkpt lat="45.598524593379835" lon="10.430662606013193"><ele>260.0</ele><time>2026-04-04T10:43:18Z</time></trkpt><trkpt lat="45.59844674482976" lon="10.430614694258875"><ele>264.4</ele><time>2026-04-04T10:43:19Z</time></trkpt><trkpt lat="45.59836474384075" lon="10.430550994201145"><ele>268.8</ele><time>2026-04-04T10:43:20Z</time></trkpt><trkpt lat="45.598281028185355" lon="10.430480688387565"><ele>273.2</ele><time>2026-04-04T10:43:21Z</time></trkpt><trkpt lat="45.598194838808695" lon="10.430402841121513"><ele>277.6</ele><time>2026-04-04T10:43:22Z</time></trkpt><trkpt lat="45.598115948733884" lon="10.430319942444957"><ele>282.0</ele><time>2026-04-04T10:43:23Z</time></trkpt><trkpt lat="45.59804842539676" lon="10.430237430104059"><ele>285.8</ele><time>2026-04-04T10:43:24Z</time></trkpt><trkpt lat="45.59799411810339" lon="10.430154940439849"><ele>289.6</ele><time>2026-04-04T10:43:26Z</time></trkpt><trkpt lat="45.59804777919944" lon="10.429994834539357"><ele>293.40000000000003</ele><time>2026-04-04T10:43:28Z</time></trkpt><trkpt lat="45.59811552291883" lon="10.429929482059876"><ele>297.2</ele><time>2026-04-04T10:43:29Z</time></trkpt><trkpt lat="45.59816467863164" lon="10.429862627351845"><ele>301.0</ele><time>2026-04-04T10:43:30Z</time></trkpt><trkpt lat="45.59821746202807" lon="10.429721333988025"><ele>302.5</ele><time>2026-04-04T10:43:32Z</time></trkpt><trkpt lat="45.59821743204466" lon="10.429611241239135"><ele>304.0</ele><time>2026-04-04T10:43:33Z</time></trkpt><trkpt lat="45.59821107632465" lon="10.429480810416338"><ele>305.5</ele><time>2026-04-04T10:43:34Z</time></trkpt><trkpt lat="45.59822944255189" lon="10.429366551428354"><ele>307.0</ele><time>2026-04-04T10:43:35Z</time></trkpt><trkpt lat="45.59819674408855" lon="10.429280492980821"><ele>308.5</ele><time>2026-04-04T10:43:36Z</time></trkpt><trkpt lat="45.59811966114528" lon="10.42925346151131"><ele>310.0</ele><time>2026-04-04T10:43:37Z</time></trkpt><trkpt lat="45.59801976326553" lon="10.429275243474665"><ele>310.0</ele><time>2026-04-04T10:43:38Z</time></trkpt><trkpt lat="45.597933093635504" lon="10.429304837161808"><ele>310.0</ele><time>2026-04-04T10:43:39Z</time></trkpt><trkpt lat="45.59787070762917" lon="10.4293349766453"><ele>310.0</ele><time>2026-04-04T10:43:40Z</time></trkpt><trkpt lat="45.59778470044378" lon="10.42930861682262"><ele>310.0</ele><time>2026-04-04T10:43:41Z</time></trkpt><trkpt lat="45.59772724129981" lon="10.429207634964651"><ele>310.0</ele><time>2026-04-04T10:43:43Z</time></trkpt><trkpt lat="45.597696223355655" lon="10.42911777683484"><ele>310.0</ele><time>2026-04-04T10:43:44Z</time></trkpt><trkpt lat="45.59766156634613" lon="10.428958019719857"><ele>312.5</ele><time>2026-04-04T10:43:46Z</time></trkpt><trkpt lat="45.59766494802724" lon="10.428845318632746"><ele>315.0</ele><time>2026-04-04T10:43:47Z</time></trkpt><trkpt lat="45.597673883059834" lon="10.428746617279003"><ele>317.5</ele><time>2026-04-04T10:43:48Z</time></trkpt><trkpt lat="45.59768759737997" lon="10.428616728127414"><ele>320.0</ele><time>2026-04-04T10:43:49Z</time></trkpt><trkpt lat="45.59770729593879" lon="10.428454500988618"><ele>322.5</ele><time>2026-04-04T10:43:50Z</time></trkpt><trkpt lat="45.59771121556159" lon="10.428345079274791"><ele>325.0</ele><time>2026-04-04T10:43:51Z</time></trkpt><trkpt lat="45.597654451496666" lon="10.428239259922238"><ele>327.2</ele><time>2026-04-04T10:43:52Z</time></trkpt><trkpt lat="45.59752832829774" lon="10.428141129856117"><ele>329.4</ele><time>2026-04-04T10:43:54Z</time></trkpt><trkpt lat="45.59745720657593" lon="10.428093841487723"><ele>331.6</ele><time>2026-04-04T10:43:55Z</time></trkpt><trkpt lat="45.597407447559725" lon="10.428001394408353"><ele>333.8</ele><time>2026-04-04T10:43:56Z</time></trkpt><trkpt lat="45.59735307513451" lon="10.427902294687105"><ele>336.0</ele><time>2026-04-04T10:43:57Z</time></trkpt><trkpt lat="45.597313058989286" lon="10.42779831334683"><ele>336.0</ele><time>2026-04-04T10:43:58Z</time></trkpt><trkpt lat="45.59727615084835" lon="10.427689018471531"><ele>336.0</ele><time>2026-04-04T10:43:59Z</time></trkpt><trkpt lat="45.59724732027355" lon="10.427573719997625"><ele>336.0</ele><time>2026-04-04T10:43:59.999Z</time></trkpt><trkpt lat="45.59721388655878" lon="10.427450673632567"><ele>336.0</ele><time>2026-04-04T10:44:00.999Z</time></trkpt><trkpt lat="45.597182122573955" lon="10.42732945725326"><ele>336.0</ele><time>2026-04-04T10:44:01.999Z</time></trkpt><trkpt lat="45.59715587737059" lon="10.427203179943216"><ele>336.0</ele><time>2026-04-04T10:44:02.999Z</time></trkpt><trkpt lat="45.59712658581024" lon="10.427074876362857"><ele>336.0</ele><time>2026-04-04T10:44:03.999Z</time></trkpt><trkpt lat="45.59709348784517" lon="10.426956077544013"><ele>336.0</ele><time>2026-04-04T10:44:04.999Z</time></trkpt><trkpt lat="45.59704133302024" lon="10.426840155953002"><ele>336.0</ele><time>2026-04-04T10:44:05.999Z</time></trkpt><trkpt lat="45.596993347735584" lon="10.426721821183369"><ele>336.0</ele><time>2026-04-04T10:44:06.999Z</time></trkpt><trkpt lat="45.59695874805777" lon="10.426601571017967"><ele>336.0</ele><time>2026-04-04T10:44:07.999Z</time></trkpt><trkpt lat="45.596934319248774" lon="10.426496774330309"><ele>336.5</ele><time>2026-04-04T10:44:08.999Z</time></trkpt><trkpt lat="45.596921798670955" lon="10.426332216703635"><ele>337.0</ele><time>2026-04-04T10:44:10.999Z</time></trkpt><trkpt lat="45.59690437267007" lon="10.426235782768217"><ele>337.5</ele><time>2026-04-04T10:44:12.999Z</time></trkpt><trkpt lat="45.596874251964415" lon="10.426104908106996"><ele>338.0</ele><time>2026-04-04T10:44:14.999Z</time></trkpt><trkpt lat="45.59688200655829" lon="10.425979718471355"><ele>338.5</ele><time>2026-04-04T10:44:16.999Z</time></trkpt><trkpt lat="45.59687973341892" lon="10.425873780563014"><ele>339.0</ele><time>2026-04-04T10:44:18.999Z</time></trkpt><trkpt lat="45.59687960694292" lon="10.425782935711794"><ele>339.3333333333333</ele><time>2026-04-04T10:44:20.999Z</time></trkpt><trkpt lat="45.59684181602134" lon="10.42563555324949"><ele>339.6666666666667</ele><time>2026-04-04T10:44:24Z</time></trkpt><trkpt lat="45.59678375022428" lon="10.425483717890977"><ele>340.0</ele><time>2026-04-04T10:44:26Z</time></trkpt><trkpt lat="45.596745468108615" lon="10.425405046652513"><ele>340.33333333333337</ele><time>2026-04-04T10:44:27Z</time></trkpt><trkpt lat="45.596698535540725" lon="10.425331655968945"><ele>340.6666666666667</ele><time>2026-04-04T10:44:28Z</time></trkpt><trkpt lat="45.59663909504117" lon="10.425261054161684"><ele>341.0</ele><time>2026-04-04T10:44:29Z</time></trkpt><trkpt lat="45.59657540204949" lon="10.425202439551358"><ele>341.33333333333337</ele><time>2026-04-04T10:44:30Z</time></trkpt><trkpt lat="45.596506713088836" lon="10.425154359307948"><ele>341.6666666666667</ele><time>2026-04-04T10:44:31Z</time></trkpt><trkpt lat="45.59643374416281" lon="10.425114477206103"><ele>342.0</ele><time>2026-04-04T10:44:32Z</time></trkpt><trkpt lat="45.596357774044094" lon="10.425067103639886"><ele>342.3333333333333</ele><time>2026-04-04T10:44:33Z</time></trkpt><trkpt lat="45.596290083963" lon="10.425011630326942"><ele>342.66666666666663</ele><time>2026-04-04T10:44:34Z</time></trkpt><trkpt lat="45.59622764769991" lon="10.424941523851643"><ele>343.0</ele><time>2026-04-04T10:44:35Z</time></trkpt><trkpt lat="45.596169662626956" lon="10.424868930012329"><ele>343.0</ele><time>2026-04-04T10:44:36Z</time></trkpt><trkpt lat="45.596104129015764" lon="10.424799691878585"><ele>343.0</ele><time>2026-04-04T10:44:37Z</time></trkpt><trkpt lat="45.59603694383526" lon="10.424730623305582"><ele>343.0</ele><time>2026-04-04T10:44:38Z</time></trkpt><trkpt lat="45.59597333450463" lon="10.42465462062457"><ele>343.0</ele><time>2026-04-04T10:44:39Z</time></trkpt><trkpt lat="45.595919656640184" lon="10.424564049546595"><ele>343.0</ele><time>2026-04-04T10:44:40Z</time></trkpt><trkpt lat="45.5958634199993" lon="10.424468245367462"><ele>343.0</ele><time>2026-04-04T10:44:41Z</time></trkpt><trkpt lat="45.59582150029228" lon="10.424355250254607"><ele>345.0</ele><time>2026-04-04T10:44:42Z</time></trkpt><trkpt lat="45.59579367618579" lon="10.424190060525152"><ele>347.0</ele><time>2026-04-04T10:44:43Z</time></trkpt><trkpt lat="45.59572185183798" lon="10.424076093540847"><ele>349.0</ele><time>2026-04-04T10:44:44Z</time></trkpt><trkpt lat="45.59565724635597" lon="10.423973581086818"><ele>351.0</ele><time>2026-04-04T10:44:45Z</time></trkpt><trkpt lat="45.59560090568845" lon="10.423884182817693"><ele>353.0</ele><time>2026-04-04T10:44:46Z</time></trkpt><trkpt lat="45.59554660421644" lon="10.423795139491551"><ele>354.0</ele><time>2026-04-04T10:44:47Z</time></trkpt><trkpt lat="45.59549353047448" lon="10.42370469482449"><ele>355.0</ele><time>2026-04-04T10:44:48Z</time></trkpt><trkpt lat="45.59544416627613" lon="10.42361943960966"><ele>356.0</ele><time>2026-04-04T10:44:49Z</time></trkpt><trkpt lat="45.59538997660358" lon="10.423525850505474"><ele>357.0</ele><time>2026-04-04T10:44:50Z</time></trkpt><trkpt lat="45.59533932208975" lon="10.423436840554311"><ele>358.0</ele><time>2026-04-04T10:44:51Z</time></trkpt><trkpt lat="45.5952873344812" lon="10.423340160378075"><ele>359.0</ele><time>2026-04-04T10:44:52Z</time></trkpt><trkpt lat="45.59524122706192" lon="10.423237846639376"><ele>359.0</ele><time>2026-04-04T10:44:53Z</time></trkpt><trkpt lat="45.59518931672131" lon="10.423142816144484"><ele>359.0</ele><time>2026-04-04T10:44:54Z</time></trkpt><trkpt lat="45.59513289996203" lon="10.423061815817325"><ele>359.0</ele><time>2026-04-04T10:44:55Z</time></trkpt><trkpt lat="45.595063490447465" lon="10.422991376588195"><ele>359.0</ele><time>2026-04-04T10:44:56Z</time></trkpt><trkpt lat="45.594979823552656" lon="10.422926366958485"><ele>359.0</ele><time>2026-04-04T10:44:57Z</time></trkpt><trkpt lat="45.59487386431103" lon="10.422882886201018"><ele>360.79999999999995</ele><time>2026-04-04T10:44:58Z</time></trkpt><trkpt lat="45.594793750553485" lon="10.422845632660023"><ele>362.59999999999997</ele><time>2026-04-04T10:44:59Z</time></trkpt><trkpt lat="45.59470268419536" lon="10.42279831340119"><ele>364.4</ele><time>2026-04-04T10:45:00Z</time></trkpt><trkpt lat="45.59461600727024" lon="10.42275221037792"><ele>366.2</ele><time>2026-04-04T10:45:01Z</time></trkpt><trkpt lat="45.5945305888975" lon="10.422689328783106"><ele>368.0</ele><time>2026-04-04T10:45:02Z</time></trkpt><trkpt lat="45.59445835193409" lon="10.422596873743084"><ele>368.0</ele><time>2026-04-04T10:45:03Z</time></trkpt><trkpt lat="45.59439562890227" lon="10.42254132748198"><ele>368.0</ele><time>2026-04-04T10:45:04Z</time></trkpt><trkpt lat="45.59432441723112" lon="10.422380986280928"><ele>368.0</ele><time>2026-04-04T10:45:06Z</time></trkpt><trkpt lat="45.59423395149532" lon="10.42225582895259"><ele>368.0</ele><time>2026-04-04T10:45:08Z</time></trkpt><trkpt lat="45.59419116345453" lon="10.422167639505464"><ele>368.0</ele><time>2026-04-04T10:45:10Z</time></trkpt><trkpt lat="45.594277234212285" lon="10.422136518939656"><ele>370.83333333333337</ele><time>2026-04-04T10:45:11Z</time></trkpt><trkpt lat="45.59434107404531" lon="10.42207283557303"><ele>373.6666666666667</ele><time>2026-04-04T10:45:12Z</time></trkpt><trkpt lat="45.59441236829973" lon="10.422029759568252"><ele>376.5</ele><time>2026-04-04T10:45:13Z</time></trkpt><trkpt lat="45.59448291062632" lon="10.422003064028846"><ele>379.33333333333337</ele><time>2026-04-04T10:45:14Z</time></trkpt><trkpt lat="45.59456243875791" lon="10.421978210902141"><ele>382.1666666666667</ele><time>2026-04-04T10:45:15Z</time></trkpt><trkpt lat="45.59464360669393" lon="10.42192374554243"><ele>385.0</ele><time>2026-04-04T10:45:16Z</time></trkpt><trkpt lat="45.59473498876332" lon="10.421891636688416"><ele>386.33333333333337</ele><time>2026-04-04T10:45:17Z</time></trkpt><trkpt lat="45.59481229847008" lon="10.421876726919747"><ele>387.6666666666667</ele><time>2026-04-04T10:45:18Z</time></trkpt><trkpt lat="45.59487868970087" lon="10.421876189628998"><ele>389.0</ele><time>2026-04-04T10:45:19Z</time></trkpt><trkpt lat="45.594934170644976" lon="10.421931049337744"><ele>390.33333333333337</ele><time>2026-04-04T10:45:20Z</time></trkpt><trkpt lat="45.595003833045745" lon="10.421959613439268"><ele>391.6666666666667</ele><time>2026-04-04T10:45:21Z</time></trkpt><trkpt lat="45.595080989496346" lon="10.421979942777659"><ele>393.0</ele><time>2026-04-04T10:45:22Z</time></trkpt><trkpt lat="45.595170887991536" lon="10.421985364876706"><ele>393.0</ele><time>2026-04-04T10:45:23Z</time></trkpt><trkpt lat="45.5952602967373" lon="10.421986900295163"><ele>393.0</ele><time>2026-04-04T10:45:24Z</time></trkpt><trkpt lat="45.59534931596716" lon="10.421991474573137"><ele>393.0</ele><time>2026-04-04T10:45:25Z</time></trkpt><trkpt lat="45.59543562892508" lon="10.422014172252346"><ele>393.0</ele><time>2026-04-04T10:45:26Z</time></trkpt><trkpt lat="45.59550893140679" lon="10.422037633991513"><ele>393.0</ele><time>2026-04-04T10:45:27Z</time></trkpt><trkpt lat="45.595575860343935" lon="10.422045790950492"><ele>393.0</ele><time>2026-04-04T10:45:28Z</time></trkpt><trkpt lat="45.59568086669309" lon="10.421991541932362"><ele>394.6666666666667</ele><time>2026-04-04T10:45:30Z</time></trkpt><trkpt lat="45.595786519900926" lon="10.421936903550646"><ele>396.33333333333337</ele><time>2026-04-04T10:45:32Z</time></trkpt><trkpt lat="45.595847269993634" lon="10.421966648598033"><ele>398.0</ele><time>2026-04-04T10:45:33Z</time></trkpt><trkpt lat="45.59594542013217" lon="10.42199910960494"><ele>399.6666666666667</ele><time>2026-04-04T10:45:35Z</time></trkpt><trkpt lat="45.59595372170733" lon="10.421871306794628"><ele>401.33333333333337</ele><time>2026-04-04T10:45:37Z</time></trkpt><trkpt lat="45.59589329620462" lon="10.421794671424026"><ele>403.0</ele><time>2026-04-04T10:45:38Z</time></trkpt><trkpt lat="45.59584110523437" lon="10.421720821624447"><ele>403.00000000000006</ele><time>2026-04-04T10:45:39Z</time></trkpt><trkpt lat="45.59578079854938" lon="10.421644067644465"><ele>403.0</ele><time>2026-04-04T10:45:40Z</time></trkpt><trkpt lat="45.59572105480457" lon="10.42157581348513"><ele>403.0</ele><time>2026-04-04T10:45:41Z</time></trkpt><trkpt lat="45.59566753426841" lon="10.421514822233247"><ele>403.0</ele><time>2026-04-04T10:45:42Z</time></trkpt><trkpt lat="45.595600430517656" lon="10.42144190193184"><ele>403.00000000000006</ele><time>2026-04-04T10:45:43Z</time></trkpt><trkpt lat="45.59554704384212" lon="10.421371068114615"><ele>403.0</ele><time>2026-04-04T10:45:44Z</time></trkpt><trkpt lat="45.59549796907528" lon="10.42127323820737"><ele>407.0</ele><time>2026-04-04T10:45:45Z</time></trkpt><trkpt lat="45.595408641268335" lon="10.421156818903208"><ele>411.0</ele><time>2026-04-04T10:45:46Z</time></trkpt><trkpt lat="45.59532403368637" lon="10.421123975510302"><ele>415.0</ele><time>2026-04-04T10:45:47Z</time></trkpt><trkpt lat="45.595210633928616" lon="10.4211558031328"><ele>419.0</ele><time>2026-04-04T10:45:48Z</time></trkpt><trkpt lat="45.595115195677124" lon="10.421156251197067"><ele>423.0</ele><time>2026-04-04T10:45:49Z</time></trkpt><trkpt lat="45.5950203917405" lon="10.42115669628112"><ele>423.0</ele><time>2026-04-04T10:45:50Z</time></trkpt><trkpt lat="45.59493060952285" lon="10.421158011060841"><ele>423.0</ele><time>2026-04-04T10:45:51Z</time></trkpt><trkpt lat="45.5948459283133" lon="10.421161226800844"><ele>423.0</ele><time>2026-04-04T10:45:52Z</time></trkpt><trkpt lat="45.59477304766549" lon="10.421163994414824"><ele>423.0</ele><time>2026-04-04T10:45:53Z</time></trkpt><trkpt lat="45.59469631210424" lon="10.421166908404558"><ele>423.0</ele><time>2026-04-04T10:45:54Z</time></trkpt><trkpt lat="45.59460498547046" lon="10.421168866042926"><ele>423.0</ele><time>2026-04-04T10:45:55Z</time></trkpt><trkpt lat="45.5944943592857" lon="10.421155170617626"><ele>420.75</ele><time>2026-04-04T10:45:56Z</time></trkpt><trkpt lat="45.594389349218204" lon="10.421130468303131"><ele>418.5</ele><time>2026-04-04T10:45:57Z</time></trkpt><trkpt lat="45.594263151038945" lon="10.421102564559416"><ele>416.25</ele><time>2026-04-04T10:45:58Z</time></trkpt><trkpt lat="45.59414024891317" lon="10.421075586672066"><ele>414.0</ele><time>2026-04-04T10:45:59Z</time></trkpt><trkpt lat="45.59401640416879" lon="10.421080397224351"><ele>414.0</ele><time>2026-04-04T10:46:00Z</time></trkpt><trkpt lat="45.59388933021964" lon="10.421051961933953"><ele>414.0</ele><time>2026-04-04T10:46:01Z</time></trkpt><trkpt lat="45.593772932331746" lon="10.421006022487832"><ele>414.0</ele><time>2026-04-04T10:46:02Z</time></trkpt><trkpt lat="45.593657931433434" lon="10.420954692238885"><ele>414.0</ele><time>2026-04-04T10:46:03Z</time></trkpt><trkpt lat="45.59354584148564" lon="10.420917010622608"><ele>411.6666666666667</ele><time>2026-04-04T10:46:04Z</time></trkpt><trkpt lat="45.59344015250372" lon="10.420869385744941"><ele>409.33333333333337</ele><time>2026-04-04T10:46:05Z</time></trkpt><trkpt lat="45.59336293015428" lon="10.420811071970082"><ele>407.0</ele><time>2026-04-04T10:46:06Z</time></trkpt><trkpt lat="45.59329635672566" lon="10.420748160656267"><ele>404.6666666666667</ele><time>2026-04-04T10:46:07Z</time></trkpt><trkpt lat="45.59322822736442" lon="10.420724547115169"><ele>402.33333333333337</ele><time>2026-04-04T10:46:07.999Z</time></trkpt><trkpt lat="45.59314502099094" lon="10.420733884662853"><ele>400.0</ele><time>2026-04-04T10:46:08.999Z</time></trkpt><trkpt lat="45.59306376078191" lon="10.420739525476607"><ele>400.00000000000006</ele><time>2026-04-04T10:46:09.999Z</time></trkpt><trkpt lat="45.5929769873691" lon="10.420712714722356"><ele>400.0</ele><time>2026-04-04T10:46:10.999Z</time></trkpt><trkpt lat="45.59288643324588" lon="10.420682946691008"><ele>400.0</ele><time>2026-04-04T10:46:11.999Z</time></trkpt><trkpt lat="45.59280939236152" lon="10.42065287989468"><ele>400.0</ele><time>2026-04-04T10:46:12.999Z</time></trkpt><trkpt lat="45.59274541187693" lon="10.420624996340184"><ele>400.00000000000006</ele><time>2026-04-04T10:46:13.999Z</time></trkpt><trkpt lat="45.59266511579823" lon="10.420582008865072"><ele>400.0</ele><time>2026-04-04T10:46:15.999Z</time></trkpt><trkpt lat="45.59253652611425" lon="10.42059167721234"><ele>399.50000000000006</ele><time>2026-04-04T10:46:17.999Z</time></trkpt><trkpt lat="45.59247320533377" lon="10.420587735679277"><ele>399.0</ele><time>2026-04-04T10:46:18.999Z</time></trkpt><trkpt lat="45.592398614767866" lon="10.420585781357612"><ele>398.5</ele><time>2026-04-04T10:46:19.999Z</time></trkpt><trkpt lat="45.5923268990993" lon="10.420568577809835"><ele>398.0</ele><time>2026-04-04T10:46:20.999Z</time></trkpt><trkpt lat="45.592217659638834" lon="10.420587077032936"><ele>397.50000000000006</ele><time>2026-04-04T10:46:22.999Z</time></trkpt><trkpt lat="45.59215660114483" lon="10.420619518079672"><ele>397.0</ele><time>2026-04-04T10:46:23.999Z</time></trkpt><trkpt lat="45.59208592455633" lon="10.420649487968388"><ele>397.0</ele><time>2026-04-04T10:46:24.999Z</time></trkpt><trkpt lat="45.59201007251649" lon="10.420681522327424"><ele>397.0</ele><time>2026-04-04T10:46:25.999Z</time></trkpt><trkpt lat="45.591947819483835" lon="10.420728126684162"><ele>397.0</ele><time>2026-04-04T10:46:26.999Z</time></trkpt><trkpt lat="45.59188339754674" lon="10.420781815725274"><ele>397.0</ele><time>2026-04-04T10:46:27.999Z</time></trkpt><trkpt lat="45.591821476832315" lon="10.42084324008946"><ele>397.0</ele><time>2026-04-04T10:46:29Z</time></trkpt><trkpt lat="45.591765110339566" lon="10.420883310185934"><ele>397.0</ele><time>2026-04-04T10:46:30Z</time></trkpt><trkpt lat="45.59169899966149" lon="10.420896647174658"><ele>397.0</ele><time>2026-04-04T10:46:31Z</time></trkpt><trkpt lat="45.591594117505764" lon="10.420907955661594"><ele>399.6</ele><time>2026-04-04T10:46:33Z</time></trkpt><trkpt lat="45.59147485175873" lon="10.420979079338146"><ele>402.20000000000005</ele><time>2026-04-04T10:46:35Z</time></trkpt><trkpt lat="45.59140293033479" lon="10.421020737524827"><ele>404.8</ele><time>2026-04-04T10:46:38Z</time></trkpt><trkpt lat="45.59132202194068" lon="10.421085495848294"><ele>407.4</ele><time>2026-04-04T10:46:40Z</time></trkpt><trkpt lat="45.59121007960646" lon="10.421136742689288"><ele>410.0</ele><time>2026-04-04T10:46:42Z</time></trkpt><trkpt lat="45.591154447129476" lon="10.421222830573964"><ele>408.0</ele><time>2026-04-04T10:46:44Z</time></trkpt><trkpt lat="45.591053657976474" lon="10.421371162362226"><ele>406.0</ele><time>2026-04-04T10:46:46Z</time></trkpt><trkpt lat="45.590985018592995" lon="10.421464927906205"><ele>404.0</ele><time>2026-04-04T10:46:48Z</time></trkpt><trkpt lat="45.590895393387015" lon="10.421446928029498"><ele>402.0</ele><time>2026-04-04T10:46:50Z</time></trkpt><trkpt lat="45.59084695056961" lon="10.421555888517855"><ele>400.0</ele><time>2026-04-04T10:46:54Z</time></trkpt><trkpt lat="45.59084957433537" lon="10.421655985738928"><ele>400.0</ele><time>2026-04-04T10:46:56Z</time></trkpt><trkpt lat="45.5908912023925" lon="10.421801332427858"><ele>400.0</ele><time>2026-04-04T10:46:58Z</time></trkpt><trkpt lat="45.590928011181354" lon="10.421915359937625"><ele>400.0</ele><time>2026-04-04T10:47:00Z</time></trkpt><trkpt lat="45.59099644631623" lon="10.422037427909476"><ele>400.0</ele><time>2026-04-04T10:47:02Z</time></trkpt><trkpt lat="45.59104220301034" lon="10.422158434752225"><ele>400.0</ele><time>2026-04-04T10:47:04Z</time></trkpt><trkpt lat="45.59110314330046" lon="10.42224466470299"><ele>400.1666666666667</ele><time>2026-04-04T10:47:07Z</time></trkpt><trkpt lat="45.5911565399692" lon="10.422318238105778"><ele>400.33333333333337</ele><time>2026-04-04T10:47:11Z</time></trkpt><trkpt lat="45.59119079659243" lon="10.42242298476508"><ele>400.5</ele><time>2026-04-04T10:47:27Z</time></trkpt><trkpt lat="45.59119929102557" lon="10.422514293797455"><ele>400.66666666666663</ele><time>2026-04-04T10:47:29Z</time></trkpt><trkpt lat="45.591196388946464" lon="10.422635218274335"><ele>400.8333333333333</ele><time>2026-04-04T10:47:32Z</time></trkpt><trkpt lat="45.591149117006275" lon="10.422728057144344"><ele>401.0</ele><time>2026-04-04T10:48:09Z</time></trkpt><trkpt lat="45.5910801817059" lon="10.422773558409622"><ele>401.0</ele><time>2026-04-04T10:48:12.999Z</time></trkpt><trkpt lat="45.591015275038515" lon="10.422768026618566"><ele>401.0</ele><time>2026-04-04T10:48:15.999Z</time></trkpt><trkpt lat="45.590960388163744" lon="10.42270496931455"><ele>401.0</ele><time>2026-04-04T10:48:18.999Z</time></trkpt><trkpt lat="45.590858912047956" lon="10.422517783658941"><ele>401.0</ele><time>2026-04-04T10:48:20.999Z</time></trkpt><trkpt lat="45.59079628794292" lon="10.422418914898918"><ele>401.0</ele><time>2026-04-04T10:48:22.999Z</time></trkpt><trkpt lat="45.59076386105913" lon="10.422278957470366"><ele>400.99999999999994</ele><time>2026-04-04T10:48:24.999Z</time></trkpt><trkpt lat="45.590713993866004" lon="10.422186988849656"><ele>401.0</ele><time>2026-04-04T10:48:27.999Z</time></trkpt><trkpt lat="45.590646049473854" lon="10.422052350410961"><ele>401.0</ele><time>2026-04-04T10:48:29.999Z</time></trkpt><trkpt lat="45.59059150237122" lon="10.421987338395802"><ele>401.0</ele><time>2026-04-04T10:48:32.999Z</time></trkpt><trkpt lat="45.59053703076709" lon="10.421930752031074"><ele>400.99999999999994</ele><time>2026-04-04T10:48:33.999Z</time></trkpt><trkpt lat="45.5904801897456" lon="10.421842775619487"><ele>401.0</ele><time>2026-04-04T10:48:37Z</time></trkpt><trkpt lat="45.59043579133437" lon="10.421772539199265"><ele>400.8333333333333</ele><time>2026-04-04T10:48:39Z</time></trkpt><trkpt lat="45.59045216840769" lon="10.421870432286639"><ele>400.66666666666663</ele><time>2026-04-04T10:48:40Z</time></trkpt><trkpt lat="45.590420667799336" lon="10.421781367297605"><ele>400.5</ele><time>2026-04-04T10:49:18Z</time></trkpt><trkpt lat="45.59038160402692" lon="10.421699866997557"><ele>400.33333333333337</ele><time>2026-04-04T10:49:21Z</time></trkpt><trkpt lat="45.590346328075" lon="10.421605069925283"><ele>400.1666666666667</ele><time>2026-04-04T10:49:29Z</time></trkpt><trkpt lat="45.59028001884336" lon="10.421535100421616"><ele>400.0</ele><time>2026-04-04T10:49:33Z</time></trkpt><trkpt lat="45.59020623055964" lon="10.4214494192589"><ele>402.33333333333337</ele><time>2026-04-04T10:49:39Z</time></trkpt><trkpt lat="45.59012859264607" lon="10.421399091261865"><ele>404.6666666666667</ele><time>2026-04-04T10:49:42Z</time></trkpt><trkpt lat="45.59007168107878" lon="10.421343467144426"><ele>407.0</ele><time>2026-04-04T10:49:45Z</time></trkpt><trkpt lat="45.59001166281542" lon="10.421309682758212"><ele>409.33333333333337</ele><time>2026-04-04T10:49:47Z</time></trkpt><trkpt lat="45.58993672597208" lon="10.421258375561704"><ele>411.6666666666667</ele><time>2026-04-04T10:49:50Z</time></trkpt><trkpt lat="45.58985895960119" lon="10.421177571661548"><ele>414.0</ele><time>2026-04-04T10:49:53Z</time></trkpt><trkpt lat="45.589764403815195" lon="10.421093737012773"><ele>414.1666666666667</ele><time>2026-04-04T10:49:57Z</time></trkpt><trkpt lat="45.589713157998766" lon="10.421005617820805"><ele>414.33333333333337</ele><time>2026-04-04T10:50:15Z</time></trkpt><trkpt lat="45.58966229207274" lon="10.420908274532652"><ele>414.5</ele><time>2026-04-04T10:50:18.999Z</time></trkpt><trkpt lat="45.58957327851163" lon="10.420858891924832"><ele>414.6666666666667</ele><time>2026-04-04T10:50:20.999Z</time></trkpt><trkpt lat="45.58951445287786" lon="10.420807518458792"><ele>414.83333333333337</ele><time>2026-04-04T10:50:22.999Z</time></trkpt><trkpt lat="45.58942364982073" lon="10.420829994324402"><ele>415.0</ele><time>2026-04-04T10:50:24.999Z</time></trkpt><trkpt lat="45.589344312062885" lon="10.420830758584893"><ele>417.50000000000006</ele><time>2026-04-04T10:50:26.999Z</time></trkpt><trkpt lat="45.58925744667788" lon="10.420834217298422"><ele>420.0</ele><time>2026-04-04T10:50:28.999Z</time></trkpt><trkpt lat="45.5891841214555" lon="10.42085348111479"><ele>422.5</ele><time>2026-04-04T10:50:30.999Z</time></trkpt><trkpt lat="45.58913286011722" lon="10.420790243424575"><ele>425.0</ele><time>2026-04-04T10:50:43Z</time></trkpt><trkpt lat="45.58913292682409" lon="10.420692792956526"><ele>427.50000000000006</ele><time>2026-04-04T10:50:45Z</time></trkpt><trkpt lat="45.589140137008485" lon="10.42057310862502"><ele>430.0</ele><time>2026-04-04T10:50:48Z</time></trkpt><trkpt lat="45.58914764110085" lon="10.420422804450572"><ele>430.6666666666667</ele><time>2026-04-04T10:50:51Z</time></trkpt><trkpt lat="45.58913321687435" lon="10.420303544060088"><ele>431.33333333333337</ele><time>2026-04-04T10:50:54Z</time></trkpt><trkpt lat="45.589124416229794" lon="10.420178267493368"><ele>432.0</ele><time>2026-04-04T10:50:57Z</time></trkpt><trkpt lat="45.58912974644941" lon="10.420084937068909"><ele>432.66666666666663</ele><time>2026-04-04T10:51:00Z</time></trkpt><trkpt lat="45.58911657212832" lon="10.419962262853302"><ele>433.3333333333333</ele><time>2026-04-04T10:51:03Z</time></trkpt><trkpt lat="45.58912328654135" lon="10.4198572700608"><ele>434.0</ele><time>2026-04-04T10:51:05Z</time></trkpt><trkpt lat="45.58906539880112" lon="10.419787694844102"><ele>433.99999999999994</ele><time>2026-04-04T10:51:08Z</time></trkpt><trkpt lat="45.589002172343" lon="10.419742845906102"><ele>434.0</ele><time>2026-04-04T10:51:10Z</time></trkpt><trkpt lat="45.58894275620108" lon="10.419657447053133"><ele>434.0</ele><time>2026-04-04T10:51:13Z</time></trkpt><trkpt lat="45.58887618629324" lon="10.419583084591814"><ele>434.0</ele><time>2026-04-04T10:51:16Z</time></trkpt><trkpt lat="45.588827294713695" lon="10.419489259623585"><ele>433.99999999999994</ele><time>2026-04-04T10:51:19Z</time></trkpt><trkpt lat="45.58880234066562" lon="10.41939794476895"><ele>434.0</ele><time>2026-04-04T10:51:21Z</time></trkpt><trkpt lat="45.58874487510859" lon="10.41929159073416"><ele>434.79999999999995</ele><time>2026-04-04T10:51:23Z</time></trkpt><trkpt lat="45.5887170663959" lon="10.419208477804045"><ele>435.59999999999997</ele><time>2026-04-04T10:51:24Z</time></trkpt><trkpt lat="45.588621732356685" lon="10.419042366976933"><ele>436.4</ele><time>2026-04-04T10:51:26Z</time></trkpt><trkpt lat="45.58851992966932" lon="10.418904683894127"><ele>437.2</ele><time>2026-04-04T10:51:28Z</time></trkpt><trkpt lat="45.588444409840655" lon="10.418841139617895"><ele>438.0</ele><time>2026-04-04T10:51:30Z</time></trkpt><trkpt lat="45.58837930215522" lon="10.418892873392833"><ele>439.5</ele><time>2026-04-04T10:51:32Z</time></trkpt><trkpt lat="45.58828475106394" lon="10.418895428575224"><ele>441.0</ele><time>2026-04-04T10:51:35Z</time></trkpt><trkpt lat="45.58819745759141" lon="10.418894671537492"><ele>442.5</ele><time>2026-04-04T10:51:37Z</time></trkpt><trkpt lat="45.58811761075714" lon="10.418857252954473"><ele>444.0</ele><time>2026-04-04T10:51:40Z</time></trkpt><trkpt lat="45.58805663324164" lon="10.41880530774621"><ele>445.5</ele><time>2026-04-04T10:51:42Z</time></trkpt><trkpt lat="45.58797966657184" lon="10.41877820610097"><ele>447.0</ele><time>2026-04-04T10:51:45Z</time></trkpt><trkpt lat="45.587911616590524" lon="10.418770767330443"><ele>447.8333333333333</ele><time>2026-04-04T10:51:48Z</time></trkpt><trkpt lat="45.58786026273435" lon="10.418655409661627"><ele>448.66666666666663</ele><time>2026-04-04T10:52:20.999Z</time></trkpt><trkpt lat="45.587792713145454" lon="10.41859905045707"><ele>449.5</ele><time>2026-04-04T10:52:22.999Z</time></trkpt><trkpt lat="45.58768657511623" lon="10.418602951565932"><ele>450.3333333333333</ele><time>2026-04-04T10:52:24.999Z</time></trkpt><trkpt lat="45.58763572332913" lon="10.418545597504254"><ele>451.16666666666663</ele><time>2026-04-04T10:52:26.999Z</time></trkpt><trkpt lat="45.587574662224704" lon="10.41851683481412"><ele>452.0</ele><time>2026-04-04T10:52:28.999Z</time></trkpt><trkpt lat="45.587465825186534" lon="10.418541400126529"><ele>455.8</ele><time>2026-04-04T10:52:30.999Z</time></trkpt><trkpt lat="45.587409854627246" lon="10.418441667492568"><ele>459.6</ele><time>2026-04-04T10:52:33.999Z</time></trkpt><trkpt lat="45.587348521096175" lon="10.418341546974307"><ele>463.40000000000003</ele><time>2026-04-04T10:52:35.999Z</time></trkpt><trkpt lat="45.587277405019314" lon="10.41822059215415"><ele>467.20000000000005</ele><time>2026-04-04T10:52:37.999Z</time></trkpt><trkpt lat="45.5872049097992" lon="10.41812263157647"><ele>471.0</ele><time>2026-04-04T10:52:39.999Z</time></trkpt><trkpt lat="45.58711778089881" lon="10.418096079117317"><ele>471.0</ele><time>2026-04-04T10:52:42.999Z</time></trkpt><trkpt lat="45.58705078699768" lon="10.418121330247171"><ele>471.0</ele><time>2026-04-04T10:52:43.999Z</time></trkpt><trkpt lat="45.58698276407415" lon="10.418096238459164"><ele>471.0</ele><time>2026-04-04T10:52:46Z</time></trkpt><trkpt lat="45.58690004223701" lon="10.418102806341375"><ele>471.0</ele><time>2026-04-04T10:52:49Z</time></trkpt><trkpt lat="45.58684072294849" lon="10.418159215056827"><ele>471.0</ele><time>2026-04-04T10:52:58Z</time></trkpt><trkpt lat="45.58683183573896" lon="10.418251933114108"><ele>471.0</ele><time>2026-04-04T10:53:00Z</time></trkpt><trkpt lat="45.58682470120083" lon="10.41838201552968"><ele>474.3333333333333</ele><time>2026-04-04T10:53:02Z</time></trkpt><trkpt lat="45.58679843201598" lon="10.418520593609303"><ele>477.66666666666663</ele><time>2026-04-04T10:53:04Z</time></trkpt><trkpt lat="45.586739310222136" lon="10.418617036080706"><ele>481.0</ele><time>2026-04-04T10:53:06Z</time></trkpt><trkpt lat="45.586718720914945" lon="10.418703218398798"><ele>484.3333333333333</ele><time>2026-04-04T10:53:08Z</time></trkpt><trkpt lat="45.58668766459104" lon="10.41880111693143"><ele>487.66666666666663</ele><time>2026-04-04T10:53:12Z</time></trkpt><trkpt lat="45.586586060885196" lon="10.418819430921744"><ele>491.0</ele><time>2026-04-04T10:53:22Z</time></trkpt><trkpt lat="45.586466373550785" lon="10.4187776531774"><ele>491.99999999999994</ele><time>2026-04-04T10:53:24Z</time></trkpt><trkpt lat="45.58639802611655" lon="10.418744254391786"><ele>493.0</ele><time>2026-04-04T10:53:25Z</time></trkpt><trkpt lat="45.586320952419484" lon="10.418706229468768"><ele>494.0</ele><time>2026-04-04T10:53:26Z</time></trkpt><trkpt lat="45.58623989750862" lon="10.418660158192797"><ele>495.0</ele><time>2026-04-04T10:53:27Z</time></trkpt><trkpt lat="45.586149649888405" lon="10.418619895703085"><ele>495.99999999999994</ele><time>2026-04-04T10:53:28Z</time></trkpt><trkpt lat="45.58605744130591" lon="10.418577715769251"><ele>497.0</ele><time>2026-04-04T10:53:29Z</time></trkpt><trkpt lat="45.58595738437063" lon="10.418536957303763"><ele>498.6</ele><time>2026-04-04T10:53:30Z</time></trkpt><trkpt lat="45.58585533703629" lon="10.41849962707441"><ele>500.20000000000005</ele><time>2026-04-04T10:53:31Z</time></trkpt><trkpt lat="45.585758602627095" lon="10.41846470957866"><ele>501.8</ele><time>2026-04-04T10:53:32Z</time></trkpt><trkpt lat="45.58566196650622" lon="10.418399537241681"><ele>503.4</ele><time>2026-04-04T10:53:33Z</time></trkpt><trkpt lat="45.58556445570902" lon="10.418307363358913"><ele>505.0</ele><time>2026-04-04T10:53:34Z</time></trkpt><trkpt lat="45.585471530631814" lon="10.418189604834309"><ele>505.0</ele><time>2026-04-04T10:53:35Z</time></trkpt><trkpt lat="45.58537508211173" lon="10.41806041067355"><ele>505.0</ele><time>2026-04-04T10:53:36Z</time></trkpt><trkpt lat="45.58528602322319" lon="10.417905878405092"><ele>505.0</ele><time>2026-04-04T10:53:37Z</time></trkpt><trkpt lat="45.58520146303636" lon="10.417734995358861"><ele>505.0</ele><time>2026-04-04T10:53:38Z</time></trkpt><trkpt lat="45.58511949817429" lon="10.41756164580861"><ele>505.0</ele><time>2026-04-04T10:53:39Z</time></trkpt><trkpt lat="45.585081332791496" lon="10.417354449004126"><ele>505.0</ele><time>2026-04-04T10:53:40Z</time></trkpt><trkpt lat="45.585008343225866" lon="10.417195511403408"><ele>505.0</ele><time>2026-04-04T10:53:41Z</time></trkpt><trkpt lat="45.58493699034313" lon="10.417040136774963"><ele>505.0</ele><time>2026-04-04T10:53:42Z</time></trkpt><trkpt lat="45.58486803031515" lon="10.416889972704613"><ele>505.5</ele><time>2026-04-04T10:53:43Z</time></trkpt><trkpt lat="45.584794061941615" lon="10.416729306363765"><ele>506.0</ele><time>2026-04-04T10:53:44Z</time></trkpt><trkpt lat="45.58472048925069" lon="10.416570926304976"><ele>506.5</ele><time>2026-04-04T10:53:45Z</time></trkpt><trkpt lat="45.584644744767544" lon="10.416412451248934"><ele>507.0</ele><time>2026-04-04T10:53:46Z</time></trkpt><trkpt lat="45.58457220524171" lon="10.416265105347811"><ele>509.0</ele><time>2026-04-04T10:53:47Z</time></trkpt><trkpt lat="45.5845042977173" lon="10.416122437954913"><ele>511.0</ele><time>2026-04-04T10:53:48Z</time></trkpt><trkpt lat="45.58444210364081" lon="10.415987402926051"><ele>513.0</ele><time>2026-04-04T10:53:49Z</time></trkpt><trkpt lat="45.58437999004767" lon="10.415854824383311"><ele>515.0</ele><time>2026-04-04T10:53:50Z</time></trkpt><trkpt lat="45.58431168006385" lon="10.415740397628756"><ele>515.0</ele><time>2026-04-04T10:53:51Z</time></trkpt><trkpt lat="45.58422348591343" lon="10.415626832734832"><ele>515.0</ele><time>2026-04-04T10:53:52Z</time></trkpt><trkpt lat="45.58412000265627" lon="10.415526449345009"><ele>515.0</ele><time>2026-04-04T10:53:53Z</time></trkpt><trkpt lat="45.58397588001862" lon="10.415512770703359"><ele>515.0</ele><time>2026-04-04T10:53:54Z</time></trkpt><trkpt lat="45.58385855126227" lon="10.415421936709611"><ele>518.25</ele><time>2026-04-04T10:53:55Z</time></trkpt><trkpt lat="45.5837440889181" lon="10.415326493751643"><ele>521.5</ele><time>2026-04-04T10:53:56Z</time></trkpt><trkpt lat="45.583651705324485" lon="10.415196034353889"><ele>524.75</ele><time>2026-04-04T10:53:57Z</time></trkpt><trkpt lat="45.583618819541286" lon="10.414997992692417"><ele>528.0</ele><time>2026-04-04T10:53:58Z</time></trkpt><trkpt lat="45.58354756854719" lon="10.414831792382222"><ele>528.5</ele><time>2026-04-04T10:53:59Z</time></trkpt><trkpt lat="45.58348536322364" lon="10.414669167900483"><ele>529.0</ele><time>2026-04-04T10:54:00Z</time></trkpt><trkpt lat="45.583404978508725" lon="10.414498214805443"><ele>529.5</ele><time>2026-04-04T10:54:01Z</time></trkpt><trkpt lat="45.583294265322515" lon="10.41434761011742"><ele>530.0</ele><time>2026-04-04T10:54:02Z</time></trkpt><trkpt lat="45.58315491397281" lon="10.414200614813922"><ele>533.5</ele><time>2026-04-04T10:54:03Z</time></trkpt><trkpt lat="45.58304280663798" lon="10.41409913786311"><ele>537.0</ele><time>2026-04-04T10:54:04Z</time></trkpt><trkpt lat="45.5829543994952" lon="10.413977427340658"><ele>540.5</ele><time>2026-04-04T10:54:05Z</time></trkpt><trkpt lat="45.582874480751" lon="10.413840824856939"><ele>544.0</ele><time>2026-04-04T10:54:06Z</time></trkpt><trkpt lat="45.58279781438871" lon="10.413719551663448"><ele>544.4</ele><time>2026-04-04T10:54:07Z</time></trkpt><trkpt lat="45.58273386880542" lon="10.413590529798022"><ele>544.8</ele><time>2026-04-04T10:54:08Z</time></trkpt><trkpt lat="45.58268977573099" lon="10.413457630698455"><ele>545.2</ele><time>2026-04-04T10:54:09Z</time></trkpt><trkpt lat="45.582662137451095" lon="10.413320456165707"><ele>545.6</ele><time>2026-04-04T10:54:10Z</time></trkpt><trkpt lat="45.58263874334471" lon="10.413183243954862"><ele>546.0</ele><time>2026-04-04T10:54:11Z</time></trkpt><trkpt lat="45.58261753200834" lon="10.413048731173847"><ele>548.6</ele><time>2026-04-04T10:54:12Z</time></trkpt><trkpt lat="45.582598542956454" lon="10.412903187380241"><ele>551.2</ele><time>2026-04-04T10:54:13Z</time></trkpt><trkpt lat="45.582585922675726" lon="10.41276592370468"><ele>553.8</ele><time>2026-04-04T10:54:14Z</time></trkpt><trkpt lat="45.58258245237298" lon="10.41262352331177"><ele>556.4</ele><time>2026-04-04T10:54:15Z</time></trkpt><trkpt lat="45.58257039229572" lon="10.4124941624173"><ele>559.0</ele><time>2026-04-04T10:54:16Z</time></trkpt><trkpt lat="45.582559143729895" lon="10.412369282151472"><ele>559.0</ele><time>2026-04-04T10:54:17Z</time></trkpt><trkpt lat="45.58257424180901" lon="10.412235585035887"><ele>559.0</ele><time>2026-04-04T10:54:18Z</time></trkpt><trkpt lat="45.58257830265011" lon="10.412099315274954"><ele>559.0</ele><time>2026-04-04T10:54:19Z</time></trkpt><trkpt lat="45.5825612142319" lon="10.411952440365047"><ele>559.0</ele><time>2026-04-04T10:54:20Z</time></trkpt><trkpt lat="45.58252944600081" lon="10.41181578975008"><ele>559.0</ele><time>2026-04-04T10:54:21Z</time></trkpt><trkpt lat="45.582506484404334" lon="10.41167966426164"><ele>561.8</ele><time>2026-04-04T10:54:21.999Z</time></trkpt><trkpt lat="45.582496036558865" lon="10.411531451256408"><ele>564.5999999999999</ele><time>2026-04-04T10:54:22.999Z</time></trkpt><trkpt lat="45.582480081727425" lon="10.411393116671167"><ele>567.4</ele><time>2026-04-04T10:54:23.999Z</time></trkpt><trkpt lat="45.58244000828428" lon="10.411273589306186"><ele>570.1999999999999</ele><time>2026-04-04T10:54:24.999Z</time></trkpt><trkpt lat="45.58234685586541" lon="10.411184668654494"><ele>573.0</ele><time>2026-04-04T10:54:25.999Z</time></trkpt><trkpt lat="45.58221664053621" lon="10.41121560494741"><ele>574.8</ele><time>2026-04-04T10:54:26.999Z</time></trkpt><trkpt lat="45.5821196882644" lon="10.411250900711524"><ele>576.5999999999999</ele><time>2026-04-04T10:54:27.999Z</time></trkpt><trkpt lat="45.5820300531455" lon="10.411264833721848"><ele>578.4000000000001</ele><time>2026-04-04T10:54:28.999Z</time></trkpt><trkpt lat="45.581937628604784" lon="10.411255445883423"><ele>580.2</ele><time>2026-04-04T10:54:29.999Z</time></trkpt><trkpt lat="45.581842449478415" lon="10.411242010730232"><ele>582.0</ele><time>2026-04-04T10:54:30.999Z</time></trkpt><trkpt lat="45.58175613536249" lon="10.41121812862081"><ele>582.0</ele><time>2026-04-04T10:54:31.999Z</time></trkpt><trkpt lat="45.5816763922655" lon="10.411186458741568"><ele>582.0</ele><time>2026-04-04T10:54:32.999Z</time></trkpt><trkpt lat="45.581596538959" lon="10.411144367409332"><ele>582.0</ele><time>2026-04-04T10:54:33.999Z</time></trkpt><trkpt lat="45.58153305179585" lon="10.411096781670642"><ele>582.0</ele><time>2026-04-04T10:54:34.999Z</time></trkpt><trkpt lat="45.581435015716835" lon="10.411004455215352"><ele>582.0</ele><time>2026-04-04T10:54:36.999Z</time></trkpt><trkpt lat="45.58138000249049" lon="10.41089767039536"><ele>582.0</ele><time>2026-04-04T10:54:38.999Z</time></trkpt><trkpt lat="45.58134305537369" lon="10.410784422522683"><ele>582.0</ele><time>2026-04-04T10:54:40.999Z</time></trkpt><trkpt lat="45.581313832502495" lon="10.410670326847683"><ele>582.0</ele><time>2026-04-04T10:54:42.999Z</time></trkpt><trkpt lat="45.58126990727909" lon="10.41050519374798"><ele>582.0</ele><time>2026-04-04T10:54:44.999Z</time></trkpt><trkpt lat="45.581246861066276" lon="10.410418553580833"><ele>582.0</ele><time>2026-04-04T10:54:45.999Z</time></trkpt><trkpt lat="45.58123250999076" lon="10.410325301429213"><ele>582.0</ele><time>2026-04-04T10:54:46.999Z</time></trkpt><trkpt lat="45.581219396352246" lon="10.410224059207804"><ele>582.0</ele><time>2026-04-04T10:54:47.999Z</time></trkpt><trkpt lat="45.58120653675153" lon="10.410118075042126"><ele>582.0</ele><time>2026-04-04T10:54:48.999Z</time></trkpt><trkpt lat="45.581193715633255" lon="10.410018003817585"><ele>582.0</ele><time>2026-04-04T10:54:49.999Z</time></trkpt><trkpt lat="45.58117838005254" lon="10.409890420296918"><ele>582.0</ele><time>2026-04-04T10:54:50.999Z</time></trkpt><trkpt lat="45.581165836404935" lon="10.409773856095304"><ele>582.0</ele><time>2026-04-04T10:54:52Z</time></trkpt><trkpt lat="45.5811554229512" lon="10.40966163812151"><ele>582.0</ele><time>2026-04-04T10:54:53Z</time></trkpt><trkpt lat="45.58113048891107" lon="10.409483175606777"><ele>582.0</ele><time>2026-04-04T10:54:54Z</time></trkpt><trkpt lat="45.58075410865751" lon="10.409476527451"><ele>582.0</ele><time>2026-04-04T10:54:55Z</time></trkpt><trkpt lat="45.5807273021381" lon="10.40934730907733"><ele>582.0</ele><time>2026-04-04T10:54:56Z</time></trkpt><trkpt lat="45.5807139725158" lon="10.409228414037054"><ele>582.0</ele><time>2026-04-04T10:54:57Z</time></trkpt><trkpt lat="45.58070568411411" lon="10.409106715644013"><ele>582.0</ele><time>2026-04-04T10:54:58Z</time></trkpt><trkpt lat="45.5807085792119" lon="10.408977533167286"><ele>582.0</ele><time>2026-04-04T10:54:59Z</time></trkpt><trkpt lat="45.58070326054094" lon="10.408844608771194"><ele>582.0</ele><time>2026-04-04T10:55:00Z</time></trkpt><trkpt lat="45.58070067427249" lon="10.408726686752438"><ele>582.0</ele><time>2026-04-04T10:55:01Z</time></trkpt><trkpt lat="45.58070025941932" lon="10.408619178090447"><ele>582.5</ele><time>2026-04-04T10:55:02Z</time></trkpt><trkpt lat="45.58069270142684" lon="10.408508713811404"><ele>583.0</ele><time>2026-04-04T10:55:03Z</time></trkpt><trkpt lat="45.580662981551505" lon="10.408397304558177"><ele>583.5</ele><time>2026-04-04T10:55:04Z</time></trkpt><trkpt lat="45.58062719604951" lon="10.408299195485817"><ele>584.0</ele><time>2026-04-04T10:55:05Z</time></trkpt><trkpt lat="45.5805999286783" lon="10.408199017546103"><ele>584.5</ele><time>2026-04-04T10:55:06Z</time></trkpt><trkpt lat="45.58057971961705" lon="10.408078869140532"><ele>585.0</ele><time>2026-04-04T10:55:07Z</time></trkpt><trkpt lat="45.5805485608641" lon="10.407944923853448"><ele>585.0</ele><time>2026-04-04T10:55:08Z</time></trkpt><trkpt lat="45.58052196713961" lon="10.407818291214282"><ele>585.0</ele><time>2026-04-04T10:55:09Z</time></trkpt><trkpt lat="45.58050564556566" lon="10.40768721902789"><ele>585.0</ele><time>2026-04-04T10:55:10Z</time></trkpt><trkpt lat="45.58050227791441" lon="10.4075628387126"><ele>585.0</ele><time>2026-04-04T10:55:11Z</time></trkpt><trkpt lat="45.58050103489048" lon="10.407440740988799"><ele>585.0</ele><time>2026-04-04T10:55:12Z</time></trkpt><trkpt lat="45.58049330348799" lon="10.407335628987637"><ele>585.0</ele><time>2026-04-04T10:55:13Z</time></trkpt><trkpt lat="45.58046909190231" lon="10.40722777242479"><ele>584.5</ele><time>2026-04-04T10:55:14Z</time></trkpt><trkpt lat="45.580447312783335" lon="10.407118842358877"><ele>584.0</ele><time>2026-04-04T10:55:15Z</time></trkpt><trkpt lat="45.580460464123206" lon="10.40700208655948"><ele>583.5</ele><time>2026-04-04T10:55:16Z</time></trkpt><trkpt lat="45.58048076883663" lon="10.406884475333317"><ele>583.0</ele><time>2026-04-04T10:55:17Z</time></trkpt><trkpt lat="45.580486344480036" lon="10.40676221358671"><ele>582.5</ele><time>2026-04-04T10:55:18Z</time></trkpt><trkpt lat="45.58047661958469" lon="10.406646768283826"><ele>582.0</ele><time>2026-04-04T10:55:19Z</time></trkpt><trkpt lat="45.58045781475492" lon="10.406529454249588"><ele>582.0</ele><time>2026-04-04T10:55:20Z</time></trkpt><trkpt lat="45.580425745914866" lon="10.406438793249807"><ele>582.0</ele><time>2026-04-04T10:55:21Z</time></trkpt><trkpt lat="45.580375700518765" lon="10.40634772277721"><ele>582.0</ele><time>2026-04-04T10:55:22Z</time></trkpt><trkpt lat="45.580253002418004" lon="10.406285649909714"><ele>582.0</ele><time>2026-04-04T10:55:24Z</time></trkpt><trkpt lat="45.58017229263273" lon="10.406288990216964"><ele>582.0</ele><time>2026-04-04T10:55:26Z</time></trkpt><trkpt lat="45.58009289207715" lon="10.406276780687866"><ele>582.0</ele><time>2026-04-04T10:55:37Z</time></trkpt><trkpt lat="45.58002217852095" lon="10.40630244681708"><ele>580.3333333333334</ele><time>2026-04-04T10:55:39Z</time></trkpt><trkpt lat="45.579931021051635" lon="10.406400573308344"><ele>578.6666666666666</ele><time>2026-04-04T10:55:41Z</time></trkpt><trkpt lat="45.57988046682618" lon="10.406454921009193"><ele>577.0</ele><time>2026-04-04T10:55:42Z</time></trkpt><trkpt lat="45.57983543528826" lon="10.406526218429404"><ele>575.3333333333333</ele><time>2026-04-04T10:55:43Z</time></trkpt><trkpt lat="45.5797753720746" lon="10.406587690157036"><ele>573.6666666666666</ele><time>2026-04-04T10:55:44Z</time></trkpt><trkpt lat="45.579705480997994" lon="10.406648278299151"><ele>572.0</ele><time>2026-04-04T10:55:45Z</time></trkpt><trkpt lat="45.579647480011936" lon="10.40673318296795"><ele>572.0</ele><time>2026-04-04T10:55:46Z</time></trkpt><trkpt lat="45.579594601693" lon="10.40681146994802"><ele>572.0</ele><time>2026-04-04T10:55:47Z</time></trkpt><trkpt lat="45.57954430357372" lon="10.406881314799636"><ele>572.0</ele><time>2026-04-04T10:55:48Z</time></trkpt><trkpt lat="45.57947768592729" lon="10.40693376218789"><ele>572.0</ele><time>2026-04-04T10:55:49Z</time></trkpt><trkpt lat="45.5794081728871" lon="10.40699173331072"><ele>572.0</ele><time>2026-04-04T10:55:50Z</time></trkpt><trkpt lat="45.57931510894063" lon="10.407100881757842"><ele>572.0</ele><time>2026-04-04T10:55:52Z</time></trkpt><trkpt lat="45.57924354741944" lon="10.40717937210779"><ele>570.3333333333333</ele><time>2026-04-04T10:55:53Z</time></trkpt><trkpt lat="45.579175144305445" lon="10.40726239160834"><ele>568.6666666666666</ele><time>2026-04-04T10:55:54Z</time></trkpt><trkpt lat="45.579120943265046" lon="10.407308716321214"><ele>567.0</ele><time>2026-04-04T10:55:55Z</time></trkpt><trkpt lat="45.57907132131171" lon="10.407380093414197"><ele>565.3333333333334</ele><time>2026-04-04T10:56:04Z</time></trkpt><trkpt lat="45.579074596927605" lon="10.407246572844677"><ele>563.6666666666667</ele><time>2026-04-04T10:56:07Z</time></trkpt><trkpt lat="45.57908144591977" lon="10.407156546327347"><ele>562.0</ele><time>2026-04-04T10:56:14Z</time></trkpt><trkpt lat="45.579051843819514" lon="10.407037136001417"><ele>565.5</ele><time>2026-04-04T10:56:17Z</time></trkpt><trkpt lat="45.57898597053939" lon="10.40696324195442"><ele>569.0</ele><time>2026-04-04T10:56:21Z</time></trkpt><trkpt lat="45.57891113702662" lon="10.40689615439999"><ele>572.5</ele><time>2026-04-04T10:56:25Z</time></trkpt><trkpt lat="45.578856683480915" lon="10.40682750785738"><ele>576.0</ele><time>2026-04-04T10:56:28.999Z</time></trkpt><trkpt lat="45.57878273819079" lon="10.406788461208858"><ele>579.5</ele><time>2026-04-04T10:56:32.999Z</time></trkpt><trkpt lat="45.578717937989005" lon="10.406717257735032"><ele>583.0</ele><time>2026-04-04T10:57:06Z</time></trkpt><trkpt lat="45.578639965479375" lon="10.406708738810176"><ele>584.1666666666667</ele><time>2026-04-04T10:57:08Z</time></trkpt><trkpt lat="45.57856116893065" lon="10.406712457928641"><ele>585.3333333333334</ele><time>2026-04-04T10:57:10Z</time></trkpt><trkpt lat="45.578497133854164" lon="10.406690420998164"><ele>586.5</ele><time>2026-04-04T10:57:12Z</time></trkpt><trkpt lat="45.578390367434444" lon="10.406771827874154"><ele>587.6666666666666</ele><time>2026-04-04T10:57:14Z</time></trkpt><trkpt lat="45.57833115244318" lon="10.406725460891142"><ele>588.8333333333333</ele><time>2026-04-04T10:57:16Z</time></trkpt><trkpt lat="45.578269867588254" lon="10.406611394538714"><ele>590.0</ele><time>2026-04-04T10:57:18Z</time></trkpt><trkpt lat="45.57820339201003" lon="10.40651357184766"><ele>590.0</ele><time>2026-04-04T10:57:20Z</time></trkpt><trkpt lat="45.578121650082934" lon="10.406418012428901"><ele>590.0</ele><time>2026-04-04T10:57:22Z</time></trkpt><trkpt lat="45.578036789911124" lon="10.406390382569295"><ele>590.0</ele><time>2026-04-04T10:57:25Z</time></trkpt><trkpt lat="45.577923119216344" lon="10.406364509488327"><ele>590.0</ele><time>2026-04-04T10:57:27Z</time></trkpt><trkpt lat="45.577887619657375" lon="10.406285953074685"><ele>590.0</ele><time>2026-04-04T10:57:29Z</time></trkpt><trkpt lat="45.577922854466735" lon="10.406147932566075"><ele>592.4</ele><time>2026-04-04T10:57:31Z</time></trkpt><trkpt lat="45.57785342116398" lon="10.40609719265438"><ele>594.8</ele><time>2026-04-04T10:57:33Z</time></trkpt><trkpt lat="45.57775436049354" lon="10.406072562628395"><ele>597.2</ele><time>2026-04-04T10:57:35Z</time></trkpt><trkpt lat="45.57767552099885" lon="10.406004085934399"><ele>599.6</ele><time>2026-04-04T10:57:37Z</time></trkpt><trkpt lat="45.577595280066" lon="10.405974787070424"><ele>602.0</ele><time>2026-04-04T10:57:39Z</time></trkpt><trkpt lat="45.57750112952822" lon="10.405938454772942"><ele>602.0</ele><time>2026-04-04T10:57:41Z</time></trkpt><trkpt lat="45.57746503449609" lon="10.405825774142084"><ele>602.0</ele><time>2026-04-04T10:57:43Z</time></trkpt><trkpt lat="45.57736731665403" lon="10.405725722862696"><ele>602.0</ele><time>2026-04-04T10:57:46Z</time></trkpt><trkpt lat="45.577313038923904" lon="10.405679628818795"><ele>602.0</ele><time>2026-04-04T10:57:47Z</time></trkpt><trkpt lat="45.5772593743908" lon="10.405622575758054"><ele>602.0</ele><time>2026-04-04T10:57:48Z</time></trkpt><trkpt lat="45.57718487120578" lon="10.405554119357657"><ele>602.0</ele><time>2026-04-04T10:58:33.999Z</time></trkpt><trkpt lat="45.577277043564266" lon="10.40563184835156"><ele>602.0</ele><time>2026-04-04T10:58:41.999Z</time></trkpt><trkpt lat="45.577338240194635" lon="10.405688334577459"><ele>602.0</ele><time>2026-04-04T10:58:42.999Z</time></trkpt><trkpt lat="45.57739895228677" lon="10.405742969274039"><ele>602.0</ele><time>2026-04-04T10:58:43.999Z</time></trkpt><trkpt lat="45.57745182019359" lon="10.405793292350955"><ele>602.0</ele><time>2026-04-04T10:58:44.999Z</time></trkpt><trkpt lat="45.577467371110124" lon="10.405889087922187"><ele>602.0</ele><time>2026-04-04T10:58:46.999Z</time></trkpt><trkpt lat="45.577534309896386" lon="10.405963035635924"><ele>602.0</ele><time>2026-04-04T10:58:49.999Z</time></trkpt><trkpt lat="45.57762244994334" lon="10.405976796494052"><ele>602.0</ele><time>2026-04-04T10:58:51.999Z</time></trkpt><trkpt lat="45.57771043513789" lon="10.406022932856207"><ele>602.0</ele><time>2026-04-04T10:58:53.999Z</time></trkpt><trkpt lat="45.57778926905848" lon="10.40607446736754"><ele>602.0</ele><time>2026-04-04T10:58:55.999Z</time></trkpt><trkpt lat="45.57784853173365" lon="10.40617118537475"><ele>602.0</ele><time>2026-04-04T10:58:58.999Z</time></trkpt><trkpt lat="45.57785466787137" lon="10.406300229569158"><ele>602.0</ele><time>2026-04-04T10:59:00.999Z</time></trkpt><trkpt lat="45.5779193123037" lon="10.406340516476186"><ele>602.0</ele><time>2026-04-04T10:59:04Z</time></trkpt><trkpt lat="45.57799556660144" lon="10.406396197915038"><ele>600.0</ele><time>2026-04-04T10:59:07Z</time></trkpt><trkpt lat="45.57805738538635" lon="10.40644638356012"><ele>598.0</ele><time>2026-04-04T10:59:10Z</time></trkpt><trkpt lat="45.57812616374683" lon="10.40649301085066"><ele>596.0</ele><time>2026-04-04T10:59:14Z</time></trkpt><trkpt lat="45.5782123621972" lon="10.406595581432981"><ele>594.0</ele><time>2026-04-04T11:03:11.999Z</time></trkpt><trkpt lat="45.57825151414376" lon="10.406666152860375"><ele>592.0</ele><time>2026-04-04T11:03:16Z</time></trkpt><trkpt lat="45.57820824598749" lon="10.406584080783302"><ele>590.0</ele><time>2026-04-04T11:08:33.999Z</time></trkpt><trkpt lat="45.57814504966128" lon="10.406481658224576"><ele>590.0</ele><time>2026-04-04T11:08:35.999Z</time></trkpt><trkpt lat="45.57807567219859" lon="10.406461633870789"><ele>590.0</ele><time>2026-04-04T11:08:37.999Z</time></trkpt><trkpt lat="45.577990678599576" lon="10.406428612899404"><ele>590.0</ele><time>2026-04-04T11:08:40.999Z</time></trkpt><trkpt lat="45.57793391317988" lon="10.406355190977102"><ele>590.0</ele><time>2026-04-04T11:08:43.999Z</time></trkpt><trkpt lat="45.57795296615861" lon="10.40625774320894"><ele>590.0</ele><time>2026-04-04T11:08:45.999Z</time></trkpt><trkpt lat="45.577892421196374" lon="10.40617877663311"><ele>590.0</ele><time>2026-04-04T11:08:48.999Z</time></trkpt><trkpt lat="45.57782228120926" lon="10.406140912864492"><ele>592.4</ele><time>2026-04-04T11:08:50.999Z</time></trkpt><trkpt lat="45.57773482413803" lon="10.406064271875184"><ele>594.8</ele><time>2026-04-04T11:08:52.999Z</time></trkpt><trkpt lat="45.57763703620069" lon="10.406051465680616"><ele>597.2</ele><time>2026-04-04T11:08:54.999Z</time></trkpt><trkpt lat="45.57755577905776" lon="10.406010581659826"><ele>599.6</ele><time>2026-04-04T11:08:56.999Z</time></trkpt><trkpt lat="45.57749301593063" lon="10.405892105666952"><ele>602.0</ele><time>2026-04-04T11:08:58.999Z</time></trkpt><trkpt lat="45.57742716579247" lon="10.405790171074724"><ele>602.0</ele><time>2026-04-04T11:09:01.999Z</time></trkpt><trkpt lat="45.57736876986821" lon="10.405739482506299"><ele>602.0</ele><time>2026-04-04T11:09:03.999Z</time></trkpt><trkpt lat="45.57728456763306" lon="10.40566888871906"><ele>602.0</ele><time>2026-04-04T11:09:05.999Z</time></trkpt><trkpt lat="45.577217785711056" lon="10.40557606036377"><ele>602.0</ele><time>2026-04-04T11:09:07.999Z</time></trkpt><trkpt lat="45.57717724367143" lon="10.405458978207456"><ele>602.0</ele><time>2026-04-04T11:09:09.999Z</time></trkpt><trkpt lat="45.57712858191843" lon="10.405318289820169"><ele>603.0</ele><time>2026-04-04T11:09:11.999Z</time></trkpt><trkpt lat="45.57703867898071" lon="10.40523824985037"><ele>604.0</ele><time>2026-04-04T11:09:13.999Z</time></trkpt><trkpt lat="45.576966993750396" lon="10.405110582442292"><ele>605.0</ele><time>2026-04-04T11:09:15.999Z</time></trkpt><trkpt lat="45.576911830649216" lon="10.404971905850225"><ele>606.0</ele><time>2026-04-04T11:09:17.999Z</time></trkpt><trkpt lat="45.5768914224234" lon="10.40486237046152"><ele>607.0</ele><time>2026-04-04T11:09:20.999Z</time></trkpt><trkpt lat="45.576896127331565" lon="10.40470709699477"><ele>608.0</ele><time>2026-04-04T11:09:22.999Z</time></trkpt><trkpt lat="45.57690409834568" lon="10.404598726503515"><ele>609.0</ele><time>2026-04-04T11:09:23.999Z</time></trkpt><trkpt lat="45.57691604774515" lon="10.404501028544473"><ele>610.0</ele><time>2026-04-04T11:09:24.999Z</time></trkpt><trkpt lat="45.57694864082547" lon="10.40434087618018"><ele>611.0</ele><time>2026-04-04T11:09:26.999Z</time></trkpt><trkpt lat="45.57700797111927" lon="10.404275072006174"><ele>612.0</ele><time>2026-04-04T11:09:27.999Z</time></trkpt><trkpt lat="45.57707325658352" lon="10.404179103637043"><ele>613.0</ele><time>2026-04-04T11:09:28.999Z</time></trkpt><trkpt lat="45.57706881599017" lon="10.404033662996566"><ele>613.6666666666667</ele><time>2026-04-04T11:09:30.999Z</time></trkpt><trkpt lat="45.57705799211128" lon="10.40391256693274"><ele>614.3333333333334</ele><time>2026-04-04T11:09:32.999Z</time></trkpt><trkpt lat="45.57706185228634" lon="10.403793728562079"><ele>615.0</ele><time>2026-04-04T11:09:34Z</time></trkpt><trkpt lat="45.57708895417561" lon="10.40370713390128"><ele>615.6666666666666</ele><time>2026-04-04T11:09:35Z</time></trkpt><trkpt lat="45.577068085304" lon="10.40355277251972"><ele>616.3333333333333</ele><time>2026-04-04T11:09:37Z</time></trkpt><trkpt lat="45.577033830089185" lon="10.403475417176931"><ele>617.0</ele><time>2026-04-04T11:09:38Z</time></trkpt><trkpt lat="45.576984746366215" lon="10.403414297666036"><ele>617.0</ele><time>2026-04-04T11:09:39Z</time></trkpt><trkpt lat="45.576957477547" lon="10.403193824081438"><ele>617.0</ele><time>2026-04-04T11:09:41Z</time></trkpt><trkpt lat="45.57692671778705" lon="10.40308763970124"><ele>617.0</ele><time>2026-04-04T11:09:42Z</time></trkpt><trkpt lat="45.57686917779744" lon="10.403004177736214"><ele>617.0</ele><time>2026-04-04T11:09:43Z</time></trkpt><trkpt lat="45.576802249695895" lon="10.402931350729366"><ele>617.0</ele><time>2026-04-04T11:09:44Z</time></trkpt><trkpt lat="45.57671936905578" lon="10.402873836938232"><ele>618.8000000000001</ele><time>2026-04-04T11:09:45Z</time></trkpt><trkpt lat="45.576605079916064" lon="10.402830322451967"><ele>620.6</ele><time>2026-04-04T11:09:46Z</time></trkpt><trkpt lat="45.57649320339346" lon="10.402814372256001"><ele>622.4000000000001</ele><time>2026-04-04T11:09:47Z</time></trkpt><trkpt lat="45.57639494622408" lon="10.402774093404933"><ele>624.2</ele><time>2026-04-04T11:09:48Z</time></trkpt><trkpt lat="45.57629846674863" lon="10.402719599778322"><ele>626.0</ele><time>2026-04-04T11:09:49Z</time></trkpt><trkpt lat="45.57623264364829" lon="10.402672771524767"><ele>626.0</ele><time>2026-04-04T11:09:50Z</time></trkpt><trkpt lat="45.57619311405268" lon="10.402560751736598"><ele>626.0</ele><time>2026-04-04T11:09:51Z</time></trkpt><trkpt lat="45.576192388290885" lon="10.402457991167797"><ele>626.0</ele><time>2026-04-04T11:09:53Z</time></trkpt><trkpt lat="45.576214532552804" lon="10.402327684498319"><ele>626.0</ele><time>2026-04-04T11:10:36Z</time></trkpt><trkpt lat="45.57618641060766" lon="10.402120071749184"><ele>626.0</ele><time>2026-04-04T11:10:38Z</time></trkpt><trkpt lat="45.57616193542442" lon="10.401994110908083"><ele>621.6</ele><time>2026-04-04T11:10:39Z</time></trkpt><trkpt lat="45.576185665104774" lon="10.401845307752417"><ele>617.2</ele><time>2026-04-04T11:10:40Z</time></trkpt><trkpt lat="45.576171298435575" lon="10.401691250447923"><ele>612.8</ele><time>2026-04-04T11:10:41Z</time></trkpt><trkpt lat="45.57616750970109" lon="10.401531205149505"><ele>608.4</ele><time>2026-04-04T11:10:42Z</time></trkpt><trkpt lat="45.57615056800724" lon="10.401390451725794"><ele>604.0</ele><time>2026-04-04T11:10:43Z</time></trkpt><trkpt lat="45.576117589164824" lon="10.401272748057792"><ele>603.0</ele><time>2026-04-04T11:10:43.999Z</time></trkpt><trkpt lat="45.57609142933083" lon="10.401152741461058"><ele>602.0</ele><time>2026-04-04T11:10:44.999Z</time></trkpt><trkpt lat="45.57604798235193" lon="10.401024903333928"><ele>601.0</ele><time>2026-04-04T11:10:45.999Z</time></trkpt><trkpt lat="45.57606695565712" lon="10.400877111596001"><ele>600.0</ele><time>2026-04-04T11:10:46.999Z</time></trkpt><trkpt lat="45.576074920136946" lon="10.400752951321138"><ele>599.0</ele><time>2026-04-04T11:10:47.999Z</time></trkpt><trkpt lat="45.57607341655824" lon="10.400640272671701"><ele>599.0</ele><time>2026-04-04T11:10:48.999Z</time></trkpt><trkpt lat="45.576066662587905" lon="10.400506165050503"><ele>599.0</ele><time>2026-04-04T11:10:49.999Z</time></trkpt><trkpt lat="45.576067406947004" lon="10.400387839377935"><ele>599.0</ele><time>2026-04-04T11:10:50.999Z</time></trkpt><trkpt lat="45.57607788128628" lon="10.40027401275964"><ele>599.0</ele><time>2026-04-04T11:10:51.999Z</time></trkpt><trkpt lat="45.57608649170431" lon="10.400173828043672"><ele>599.0</ele><time>2026-04-04T11:10:52.999Z</time></trkpt><trkpt lat="45.576057412337214" lon="10.39999697053833"><ele>598.1666666666666</ele><time>2026-04-04T11:10:54.999Z</time></trkpt><trkpt lat="45.576034298520796" lon="10.399905558653394"><ele>597.3333333333333</ele><time>2026-04-04T11:10:55.999Z</time></trkpt><trkpt lat="45.5760223250409" lon="10.399812426084486"><ele>596.5</ele><time>2026-04-04T11:10:56.999Z</time></trkpt><trkpt lat="45.57602032437945" lon="10.39971242339599"><ele>595.6666666666666</ele><time>2026-04-04T11:10:57.999Z</time></trkpt><trkpt lat="45.57602202253898" lon="10.39959687080715"><ele>594.8333333333334</ele><time>2026-04-04T11:10:58.999Z</time></trkpt><trkpt lat="45.57601403288352" lon="10.39944560762045"><ele>594.0</ele><time>2026-04-04T11:10:59.999Z</time></trkpt><trkpt lat="45.57600616632728" lon="10.39931122285029"><ele>593.1666666666666</ele><time>2026-04-04T11:11:00.999Z</time></trkpt><trkpt lat="45.57600826551558" lon="10.399199273889852"><ele>592.3333333333334</ele><time>2026-04-04T11:11:02.999Z</time></trkpt><trkpt lat="45.57600935582698" lon="10.39907817436915"><ele>591.5</ele><time>2026-04-04T11:11:15.999Z</time></trkpt><trkpt lat="45.57601570953312" lon="10.398985233263975"><ele>590.6666666666667</ele><time>2026-04-04T11:11:19.999Z</time></trkpt><trkpt lat="45.57609086218357" lon="10.398946239133972"><ele>589.8333333333334</ele><time>2026-04-04T11:11:21.999Z</time></trkpt><trkpt lat="45.57616641395453" lon="10.39886329530299"><ele>589.0</ele><time>2026-04-04T11:11:23.999Z</time></trkpt><trkpt lat="45.57624176739873" lon="10.398755229301106"><ele>593.1666666666667</ele><time>2026-04-04T11:11:25.999Z</time></trkpt><trkpt lat="45.57628992842191" lon="10.39861987081256"><ele>597.3333333333334</ele><time>2026-04-04T11:11:27.999Z</time></trkpt><trkpt lat="45.57633506409707" lon="10.39853873676859"><ele>601.5</ele><time>2026-04-04T11:11:29.999Z</time></trkpt><trkpt lat="45.57635996850788" lon="10.398419499554162"><ele>605.6666666666666</ele><time>2026-04-04T11:11:31.999Z</time></trkpt><trkpt lat="45.576439720677676" lon="10.398346070290856"><ele>609.8333333333333</ele><time>2026-04-04T11:11:33.999Z</time></trkpt><trkpt lat="45.57650312231008" lon="10.398277763423478"><ele>614.0</ele><time>2026-04-04T11:11:35.999Z</time></trkpt><trkpt lat="45.576576146953336" lon="10.39820022072851"><ele>614.0</ele><time>2026-04-04T11:11:37.999Z</time></trkpt><trkpt lat="45.576645484996575" lon="10.39810996581467"><ele>614.0</ele><time>2026-04-04T11:11:40Z</time></trkpt><trkpt lat="45.57671881878612" lon="10.398024492383485"><ele>614.0</ele><time>2026-04-04T11:11:42Z</time></trkpt><trkpt lat="45.576756851139564" lon="10.397944289550548"><ele>614.0</ele><time>2026-04-04T11:11:44Z</time></trkpt><trkpt lat="45.57679484582956" lon="10.397831559940727"><ele>614.0</ele><time>2026-04-04T11:11:46Z</time></trkpt><trkpt lat="45.576827343790825" lon="10.397727352678238"><ele>614.0</ele><time>2026-04-04T11:11:48Z</time></trkpt><trkpt lat="45.57682029955919" lon="10.39758702218411"><ele>613.3333333333333</ele><time>2026-04-04T11:11:52Z</time></trkpt><trkpt lat="45.576869944109234" lon="10.397526807286884"><ele>612.6666666666666</ele><time>2026-04-04T11:11:53.999Z</time></trkpt><trkpt lat="45.57693870182074" lon="10.397503856395838"><ele>612.0</ele><time>2026-04-04T11:11:55.999Z</time></trkpt><trkpt lat="45.5769951619429" lon="10.39739920709759"><ele>611.3333333333334</ele><time>2026-04-04T11:11:58.999Z</time></trkpt><trkpt lat="45.5770402177584" lon="10.397305311648983"><ele>610.6666666666667</ele><time>2026-04-04T11:12:00.999Z</time></trkpt><trkpt lat="45.577067493529164" lon="10.39715264123807"><ele>610.0</ele><time>2026-04-04T11:12:02.999Z</time></trkpt><trkpt lat="45.577099696722506" lon="10.396933357161963"><ele>614.0</ele><time>2026-04-04T11:12:03.999Z</time></trkpt><trkpt lat="45.577166409623416" lon="10.396858179919706"><ele>618.0</ele><time>2026-04-04T11:12:05.999Z</time></trkpt><trkpt lat="45.57723963404099" lon="10.396798533009338"><ele>622.0</ele><time>2026-04-04T11:12:07.999Z</time></trkpt><trkpt lat="45.57725844298807" lon="10.39670154018316"><ele>626.0</ele><time>2026-04-04T11:12:10.999Z</time></trkpt><trkpt lat="45.57730534652885" lon="10.396628832611542"><ele>630.0</ele><time>2026-04-04T11:12:12.999Z</time></trkpt><trkpt lat="45.57737186187264" lon="10.396495288246701"><ele>634.0</ele><time>2026-04-04T11:12:14.999Z</time></trkpt><trkpt lat="45.57743597915887" lon="10.396456626085472"><ele>634.0</ele><time>2026-04-04T11:12:16.999Z</time></trkpt><trkpt lat="45.57751513051995" lon="10.396427416269034"><ele>634.0</ele><time>2026-04-04T11:12:19.999Z</time></trkpt><trkpt lat="45.5775952377805" lon="10.396360119699995"><ele>634.0</ele><time>2026-04-04T11:12:22.999Z</time></trkpt><trkpt lat="45.57767361727914" lon="10.396346957814536"><ele>634.0</ele><time>2026-04-04T11:12:25.999Z</time></trkpt><trkpt lat="45.5776816480435" lon="10.396242368050359"><ele>634.0</ele><time>2026-04-04T11:12:27.999Z</time></trkpt><trkpt lat="45.57770041285057" lon="10.39611340773633"><ele>634.0</ele><time>2026-04-04T11:12:54.999Z</time></trkpt><trkpt lat="45.577707003316746" lon="10.395974430461717"><ele>634.2</ele><time>2026-04-04T11:12:56.999Z</time></trkpt><trkpt lat="45.577688433414615" lon="10.395796915194254"><ele>634.4</ele><time>2026-04-04T11:12:58.999Z</time></trkpt><trkpt lat="45.57767004724391" lon="10.395617611777686"><ele>634.6</ele><time>2026-04-04T11:13:00.999Z</time></trkpt><trkpt lat="45.57765920971939" lon="10.395524186151343"><ele>634.8</ele><time>2026-04-04T11:13:01.999Z</time></trkpt><trkpt lat="45.577652514516274" lon="10.395369061652252"><ele>635.0</ele><time>2026-04-04T11:13:03.999Z</time></trkpt><trkpt lat="45.57767795229763" lon="10.395263850207494"><ele>635.6</ele><time>2026-04-04T11:13:05.999Z</time></trkpt><trkpt lat="45.5777761365712" lon="10.395188305990748"><ele>636.2</ele><time>2026-04-04T11:13:07.999Z</time></trkpt><trkpt lat="45.57784191325432" lon="10.395154831907917"><ele>636.8</ele><time>2026-04-04T11:13:08.999Z</time></trkpt><trkpt lat="45.5779083320697" lon="10.39511345631097"><ele>637.4</ele><time>2026-04-04T11:13:09.999Z</time></trkpt><trkpt lat="45.57797253711256" lon="10.395056830718728"><ele>638.0</ele><time>2026-04-04T11:13:10.999Z</time></trkpt><trkpt lat="45.57806529580273" lon="10.394941725107696"><ele>640.8571428571429</ele><time>2026-04-04T11:13:12.999Z</time></trkpt><trkpt lat="45.57812491890683" lon="10.394893718199823"><ele>643.7142857142857</ele><time>2026-04-04T11:13:13.999Z</time></trkpt><trkpt lat="45.578187903933205" lon="10.394858840021746"><ele>646.5714285714286</ele><time>2026-04-04T11:13:14.999Z</time></trkpt><trkpt lat="45.578259009703615" lon="10.39483036487199"><ele>649.4285714285714</ele><time>2026-04-04T11:13:15.999Z</time></trkpt><trkpt lat="45.578323078990394" lon="10.394791910720867"><ele>652.2857142857142</ele><time>2026-04-04T11:13:16.999Z</time></trkpt><trkpt lat="45.57839084540968" lon="10.394794717123409"><ele>655.1428571428571</ele><time>2026-04-04T11:13:17.999Z</time></trkpt><trkpt lat="45.578450589831505" lon="10.394848666833832"><ele>658.0</ele><time>2026-04-04T11:13:18.999Z</time></trkpt><trkpt lat="45.57850722248965" lon="10.394899740566336"><ele>658.0</ele><time>2026-04-04T11:13:19.999Z</time></trkpt><trkpt lat="45.578547284740836" lon="10.394971820168001"><ele>658.0</ele><time>2026-04-04T11:13:21.999Z</time></trkpt><trkpt lat="45.57851872166635" lon="10.394843660371937"><ele>658.0</ele><time>2026-04-04T11:13:24.999Z</time></trkpt><trkpt lat="45.57847423749275" lon="10.394745591690139"><ele>658.0</ele><time>2026-04-04T11:13:25.999Z</time></trkpt><trkpt lat="45.57843124966276" lon="10.39464094827939"><ele>658.0</ele><time>2026-04-04T11:13:26.999Z</time></trkpt><trkpt lat="45.5784420149242" lon="10.394483261787707"><ele>658.0</ele><time>2026-04-04T11:13:27.999Z</time></trkpt><trkpt lat="45.57840180197521" lon="10.394362800051983"><ele>658.75</ele><time>2026-04-04T11:13:28.999Z</time></trkpt><trkpt lat="45.57835663730919" lon="10.394227505061783"><ele>659.5</ele><time>2026-04-04T11:13:29.999Z</time></trkpt><trkpt lat="45.578305044958405" lon="10.394075822467192"><ele>660.25</ele><time>2026-04-04T11:13:30.999Z</time></trkpt><trkpt lat="45.57825126008475" lon="10.393934818532456"><ele>661.0</ele><time>2026-04-04T11:13:31.999Z</time></trkpt><trkpt lat="45.578184414874315" lon="10.393786243789382"><ele>661.4</ele><time>2026-04-04T11:13:32.999Z</time></trkpt><trkpt lat="45.57812315834289" lon="10.39365244550549"><ele>661.8</ele><time>2026-04-04T11:13:33.999Z</time></trkpt><trkpt lat="45.57807245791127" lon="10.393531376073145"><ele>662.1999999999999</ele><time>2026-04-04T11:13:34.999Z</time></trkpt><trkpt lat="45.57803131188928" lon="10.393442152966077"><ele>662.5999999999999</ele><time>2026-04-04T11:13:35.999Z</time></trkpt><trkpt lat="45.57800657529926" lon="10.393344053780702"><ele>663.0</ele><time>2026-04-04T11:13:36.999Z</time></trkpt><trkpt lat="45.57798343074465" lon="10.393209031247801"><ele>663.0</ele><time>2026-04-04T11:13:38.999Z</time></trkpt><trkpt lat="45.57796335091887" lon="10.393115270409353"><ele>663.0</ele><time>2026-04-04T11:13:47Z</time></trkpt><trkpt lat="45.577946122046676" lon="10.392994740460262"><ele>663.0</ele><time>2026-04-04T11:13:49Z</time></trkpt><trkpt lat="45.5779235211258" lon="10.392905908043636"><ele>663.0</ele><time>2026-04-04T11:13:50Z</time></trkpt><trkpt lat="45.57789617624932" lon="10.392808576674593"><ele>663.0</ele><time>2026-04-04T11:13:51Z</time></trkpt><trkpt lat="45.57788373154072" lon="10.392697305875297"><ele>663.0</ele><time>2026-04-04T11:13:52Z</time></trkpt><trkpt lat="45.57788109281772" lon="10.392587095041202"><ele>663.6666666666666</ele><time>2026-04-04T11:13:53Z</time></trkpt><trkpt lat="45.577881274647154" lon="10.392481868012235"><ele>664.3333333333334</ele><time>2026-04-04T11:13:54Z</time></trkpt><trkpt lat="45.57787637144482" lon="10.39237882928399"><ele>665.0</ele><time>2026-04-04T11:13:55Z</time></trkpt><trkpt lat="45.57787181612922" lon="10.392279203099065"><ele>665.6666666666667</ele><time>2026-04-04T11:13:56Z</time></trkpt><trkpt lat="45.57786371693172" lon="10.39218200473538"><ele>666.3333333333334</ele><time>2026-04-04T11:13:57Z</time></trkpt><trkpt lat="45.57779765526499" lon="10.39204277281666"><ele>667.0</ele><time>2026-04-04T11:13:59Z</time></trkpt><trkpt lat="45.57774694333" lon="10.391989047334375"><ele>663.8</ele><time>2026-04-04T11:14:00Z</time></trkpt><trkpt lat="45.577752250654065" lon="10.391836634600118"><ele>660.6</ele><time>2026-04-04T11:14:01Z</time></trkpt><trkpt lat="45.57768600083626" lon="10.391747602604475"><ele>657.4</ele><time>2026-04-04T11:14:02Z</time></trkpt><trkpt lat="45.57758673461745" lon="10.391675556102722"><ele>654.1999999999999</ele><time>2026-04-04T11:14:03Z</time></trkpt><trkpt lat="45.57751591393342" lon="10.391599739889875"><ele>651.0</ele><time>2026-04-04T11:14:04Z</time></trkpt><trkpt lat="45.57745890438068" lon="10.391499721910307"><ele>651.0</ele><time>2026-04-04T11:14:05Z</time></trkpt><trkpt lat="45.577411028819235" lon="10.391383562486537"><ele>651.0</ele><time>2026-04-04T11:14:06Z</time></trkpt><trkpt lat="45.577369483169505" lon="10.391253493401345"><ele>651.0</ele><time>2026-04-04T11:14:07Z</time></trkpt><trkpt lat="45.57733425856589" lon="10.391122575159514"><ele>651.0</ele><time>2026-04-04T11:14:08Z</time></trkpt><trkpt lat="45.57727183101665" lon="10.391005265876784"><ele>651.0</ele><time>2026-04-04T11:14:09Z</time></trkpt><trkpt lat="45.57724363817708" lon="10.39087974326137"><ele>651.6666666666666</ele><time>2026-04-04T11:14:10Z</time></trkpt><trkpt lat="45.57722165920201" lon="10.39076204078338"><ele>652.3333333333334</ele><time>2026-04-04T11:14:11Z</time></trkpt><trkpt lat="45.577206869086645" lon="10.390632667965413"><ele>653.0</ele><time>2026-04-04T11:14:12Z</time></trkpt><trkpt lat="45.5772044458106" lon="10.390532477799495"><ele>653.6666666666667</ele><time>2026-04-04T11:14:13Z</time></trkpt><trkpt lat="45.577181303090306" lon="10.390420208363926"><ele>654.3333333333334</ele><time>2026-04-04T11:14:14Z</time></trkpt><trkpt lat="45.57713325323655" lon="10.390322848509587"><ele>655.0</ele><time>2026-04-04T11:14:15Z</time></trkpt><trkpt lat="45.57706859344596" lon="10.390243659201237"><ele>652.8333333333334</ele><time>2026-04-04T11:14:16Z</time></trkpt><trkpt lat="45.57700642387252" lon="10.390164514143686"><ele>650.6666666666667</ele><time>2026-04-04T11:14:17Z</time></trkpt><trkpt lat="45.57693475004855" lon="10.390082889562732"><ele>648.5</ele><time>2026-04-04T11:14:18Z</time></trkpt><trkpt lat="45.57686742384529" lon="10.390001200614385"><ele>646.3333333333334</ele><time>2026-04-04T11:14:19Z</time></trkpt><trkpt lat="45.57681385893656" lon="10.389903178872405"><ele>644.1666666666666</ele><time>2026-04-04T11:14:20Z</time></trkpt><trkpt lat="45.57675489411412" lon="10.38979914454029"><ele>642.0</ele><time>2026-04-04T11:14:21Z</time></trkpt><trkpt lat="45.57670134912164" lon="10.389699188624855"><ele>642.0</ele><time>2026-04-04T11:14:22Z</time></trkpt><trkpt lat="45.57665465123935" lon="10.389630352089759"><ele>642.0</ele><time>2026-04-04T11:14:23Z</time></trkpt><trkpt lat="45.57657962600107" lon="10.389573070556274"><ele>642.0</ele><time>2026-04-04T11:14:24Z</time></trkpt><trkpt lat="45.576501275968795" lon="10.389570308698074"><ele>642.0</ele><time>2026-04-04T11:14:25Z</time></trkpt><trkpt lat="45.57643701985224" lon="10.389603350064368"><ele>642.0</ele><time>2026-04-04T11:14:26Z</time></trkpt><trkpt lat="45.576387960165064" lon="10.389676555988283"><ele>642.0</ele><time>2026-04-04T11:14:28Z</time></trkpt><trkpt lat="45.57630463960223" lon="10.38959800658592"><ele>642.8333333333334</ele><time>2026-04-04T11:14:31Z</time></trkpt><trkpt lat="45.57627198441643" lon="10.389496935420045"><ele>643.6666666666666</ele><time>2026-04-04T11:14:33Z</time></trkpt><trkpt lat="45.57616425956971" lon="10.389413027324322"><ele>644.5</ele><time>2026-04-04T11:14:35Z</time></trkpt><trkpt lat="45.576108614789234" lon="10.389344879215585"><ele>645.3333333333333</ele><time>2026-04-04T11:14:36Z</time></trkpt><trkpt lat="45.57607235586058" lon="10.38926664964562"><ele>646.1666666666666</ele><time>2026-04-04T11:14:37Z</time></trkpt><trkpt lat="45.576051747297726" lon="10.389163659883486"><ele>647.0</ele><time>2026-04-04T11:14:38Z</time></trkpt><trkpt lat="45.57607029351709" lon="10.389008436140317"><ele>645.8</ele><time>2026-04-04T11:14:40Z</time></trkpt><trkpt lat="45.57611266915879" lon="10.38883536170292"><ele>644.6</ele><time>2026-04-04T11:14:42Z</time></trkpt><trkpt lat="45.57612468457639" lon="10.388680077715458"><ele>643.4</ele><time>2026-04-04T11:14:44Z</time></trkpt><trkpt lat="45.5760498981505" lon="10.38857785264729"><ele>642.1999999999999</ele><time>2026-04-04T11:14:46Z</time></trkpt><trkpt lat="45.5759925445461" lon="10.388537269550438"><ele>641.0</ele><time>2026-04-04T11:14:47Z</time></trkpt><trkpt lat="45.57592902189735" lon="10.388527932010337"><ele>641.0</ele><time>2026-04-04T11:14:48Z</time></trkpt><trkpt lat="45.575858722628205" lon="10.388504507187012"><ele>641.0</ele><time>2026-04-04T11:14:49Z</time></trkpt><trkpt lat="45.575797540970555" lon="10.38846048158487"><ele>641.0</ele><time>2026-04-04T11:14:49.999Z</time></trkpt><trkpt lat="45.57573251528018" lon="10.388397954752962"><ele>641.0</ele><time>2026-04-04T11:14:50.999Z</time></trkpt><trkpt lat="45.575650305382936" lon="10.38831830707309"><ele>641.0</ele><time>2026-04-04T11:14:51.999Z</time></trkpt><trkpt lat="45.575547784909446" lon="10.388215792051772"><ele>641.0</ele><time>2026-04-04T11:14:52.999Z</time></trkpt><trkpt lat="45.575468551315716" lon="10.388136146942667"><ele>641.0</ele><time>2026-04-04T11:14:53.999Z</time></trkpt><trkpt lat="45.57541094719178" lon="10.388043687136479"><ele>641.0</ele><time>2026-04-04T11:14:54.999Z</time></trkpt><trkpt lat="45.57534185346688" lon="10.387894507067463"><ele>641.0</ele><time>2026-04-04T11:14:55.999Z</time></trkpt><trkpt lat="45.57527366010872" lon="10.387768929548729"><ele>641.0</ele><time>2026-04-04T11:14:56.999Z</time></trkpt><trkpt lat="45.57520665457582" lon="10.3876700584655"><ele>641.0</ele><time>2026-04-04T11:14:57.999Z</time></trkpt><trkpt lat="45.57516708882172" lon="10.387543441845931"><ele>640.8</ele><time>2026-04-04T11:14:58.999Z</time></trkpt><trkpt lat="45.57512595620719" lon="10.387408610990251"><ele>640.5999999999999</ele><time>2026-04-04T11:14:59.999Z</time></trkpt><trkpt lat="45.5750824887793" lon="10.38726416102382"><ele>640.4</ele><time>2026-04-04T11:15:00.999Z</time></trkpt><trkpt lat="45.57505635132403" lon="10.387140472276498"><ele>640.2</ele><time>2026-04-04T11:15:01.999Z</time></trkpt><trkpt lat="45.575033796623124" lon="10.387015547934364"><ele>640.0</ele><time>2026-04-04T11:15:02.999Z</time></trkpt><trkpt lat="45.57501858383788" lon="10.38689553382679"><ele>640.0</ele><time>2026-04-04T11:15:03.999Z</time></trkpt><trkpt lat="45.57499656885696" lon="10.386775244994599"><ele>640.0</ele><time>2026-04-04T11:15:04.999Z</time></trkpt><trkpt lat="45.574979544226025" lon="10.386678562310832"><ele>640.0</ele><time>2026-04-04T11:15:05.999Z</time></trkpt><trkpt lat="45.57498040395894" lon="10.3865737484735"><ele>640.0</ele><time>2026-04-04T11:15:06.999Z</time></trkpt><trkpt lat="45.574984191561065" lon="10.386452130256535"><ele>640.0</ele><time>2026-04-04T11:15:07.999Z</time></trkpt><trkpt lat="45.57501034752915" lon="10.386319947098132"><ele>640.0</ele><time>2026-04-04T11:15:08.999Z</time></trkpt><trkpt lat="45.575035671648514" lon="10.386207281735457"><ele>640.25</ele><time>2026-04-04T11:15:09.999Z</time></trkpt><trkpt lat="45.57505107843462" lon="10.386102323027417"><ele>640.5</ele><time>2026-04-04T11:15:10.999Z</time></trkpt><trkpt lat="45.57506404162405" lon="10.38595040428946"><ele>640.75</ele><time>2026-04-04T11:15:12.999Z</time></trkpt><trkpt lat="45.57497886853303" lon="10.385837000154043"><ele>641.0</ele><time>2026-04-04T11:15:14.999Z</time></trkpt><trkpt lat="45.574824069520695" lon="10.385779354564031"><ele>641.0</ele><time>2026-04-04T11:15:15.999Z</time></trkpt><trkpt lat="45.57476165135937" lon="10.385690741062318"><ele>641.0</ele><time>2026-04-04T11:15:16.999Z</time></trkpt><trkpt lat="45.57472373867603" lon="10.385551122966422"><ele>641.0</ele><time>2026-04-04T11:15:17.999Z</time></trkpt><trkpt lat="45.57473376852868" lon="10.385399592020468"><ele>641.0</ele><time>2026-04-04T11:15:18.999Z</time></trkpt><trkpt lat="45.574764197548184" lon="10.385273505896802"><ele>641.0</ele><time>2026-04-04T11:15:19.999Z</time></trkpt><trkpt lat="45.574774280313754" lon="10.385174761200988"><ele>641.5</ele><time>2026-04-04T11:15:20.999Z</time></trkpt><trkpt lat="45.57480895476846" lon="10.38503810949188"><ele>642.0</ele><time>2026-04-04T11:15:21.999Z</time></trkpt><trkpt lat="45.574810274398686" lon="10.384869574949834"><ele>642.5</ele><time>2026-04-04T11:15:22.999Z</time></trkpt><trkpt lat="45.57480753178661" lon="10.384679237257334"><ele>643.0</ele><time>2026-04-04T11:15:23.999Z</time></trkpt><trkpt lat="45.57482102534072" lon="10.384531271909964"><ele>643.3333333333334</ele><time>2026-04-04T11:15:24.999Z</time></trkpt><trkpt lat="45.5748432833311" lon="10.384435562492241"><ele>643.6666666666667</ele><time>2026-04-04T11:15:25.999Z</time></trkpt><trkpt lat="45.57487904397892" lon="10.38431995272386"><ele>644.0</ele><time>2026-04-04T11:15:26.999Z</time></trkpt><trkpt lat="45.5749065778017" lon="10.384205755979531"><ele>644.3333333333334</ele><time>2026-04-04T11:15:27.999Z</time></trkpt><trkpt lat="45.574929291240025" lon="10.384088590845854"><ele>644.6666666666666</ele><time>2026-04-04T11:15:28.999Z</time></trkpt><trkpt lat="45.57495588627464" lon="10.383980399371213"><ele>645.0</ele><time>2026-04-04T11:15:29.999Z</time></trkpt><trkpt lat="45.5749896635435" lon="10.383884810268746"><ele>643.6666666666666</ele><time>2026-04-04T11:15:30.999Z</time></trkpt><trkpt lat="45.57501240426776" lon="10.383773212304998"><ele>642.3333333333334</ele><time>2026-04-04T11:15:31.999Z</time></trkpt><trkpt lat="45.57502395008102" lon="10.383655511074664"><ele>641.0</ele><time>2026-04-04T11:15:32.999Z</time></trkpt><trkpt lat="45.57504392054273" lon="10.383543384669409"><ele>639.6666666666667</ele><time>2026-04-04T11:15:33.999Z</time></trkpt><trkpt lat="45.57504556273563" lon="10.383411260558946"><ele>638.3333333333334</ele><time>2026-04-04T11:15:34.999Z</time></trkpt><trkpt lat="45.57506147536452" lon="10.383286047894167"><ele>637.0</ele><time>2026-04-04T11:15:35.999Z</time></trkpt><trkpt lat="45.57509621658939" lon="10.383157623578308"><ele>637.0</ele><time>2026-04-04T11:15:36.999Z</time></trkpt><trkpt lat="45.57514270252298" lon="10.38303430398676"><ele>637.0</ele><time>2026-04-04T11:15:37.999Z</time></trkpt><trkpt lat="45.57517846327853" lon="10.382884700592701"><ele>637.0</ele><time>2026-04-04T11:15:38.999Z</time></trkpt><trkpt lat="45.57519771984312" lon="10.382756658997739"><ele>637.0</ele><time>2026-04-04T11:15:39.999Z</time></trkpt><trkpt lat="45.575220106229864" lon="10.382644987029161"><ele>637.0</ele><time>2026-04-04T11:15:40.999Z</time></trkpt><trkpt lat="45.57525192773279" lon="10.382561128032984"><ele>637.0</ele><time>2026-04-04T11:15:41.999Z</time></trkpt><trkpt lat="45.57525868207169" lon="10.382462077958568"><ele>637.4</ele><time>2026-04-04T11:15:43.999Z</time></trkpt><trkpt lat="45.57531939797425" lon="10.382373079511266"><ele>637.8000000000001</ele><time>2026-04-04T11:15:45.999Z</time></trkpt><trkpt lat="45.575380039937514" lon="10.382198696316133"><ele>638.2</ele><time>2026-04-04T11:15:47.999Z</time></trkpt><trkpt lat="45.5754098167369" lon="10.382084839535413"><ele>638.6</ele><time>2026-04-04T11:15:48.999Z</time></trkpt><trkpt lat="45.57546018515461" lon="10.381975936403446"><ele>639.0</ele><time>2026-04-04T11:15:49.999Z</time></trkpt><trkpt lat="45.57551874235184" lon="10.38188557786074"><ele>639.0</ele><time>2026-04-04T11:15:50.999Z</time></trkpt><trkpt lat="45.57558218653309" lon="10.38181758357206"><ele>639.0</ele><time>2026-04-04T11:15:52Z</time></trkpt><trkpt lat="45.57564966862595" lon="10.381739770812917"><ele>639.0</ele><time>2026-04-04T11:15:54Z</time></trkpt><trkpt lat="45.57568486323548" lon="10.381658182721912"><ele>639.0</ele><time>2026-04-04T11:16:01Z</time></trkpt><trkpt lat="45.57568917131681" lon="10.381544230465538"><ele>639.0</ele><time>2026-04-04T11:16:05Z</time></trkpt><trkpt lat="45.575687383292426" lon="10.38143789245251"><ele>639.0</ele><time>2026-04-04T11:16:11Z</time></trkpt><trkpt lat="45.57562404945811" lon="10.381305165574553"><ele>636.8333333333334</ele><time>2026-04-04T11:16:13Z</time></trkpt><trkpt lat="45.57560211055248" lon="10.381215877389709"><ele>634.6666666666666</ele><time>2026-04-04T11:16:14Z</time></trkpt><trkpt lat="45.57559580665936" lon="10.381116286588735"><ele>632.5</ele><time>2026-04-04T11:16:15Z</time></trkpt><trkpt lat="45.575614211452084" lon="10.381012812576865"><ele>630.3333333333333</ele><time>2026-04-04T11:16:16Z</time></trkpt><trkpt lat="45.57565012102198" lon="10.38090922868731"><ele>628.1666666666666</ele><time>2026-04-04T11:16:17Z</time></trkpt><trkpt lat="45.57569054188881" lon="10.380811232041998"><ele>626.0</ele><time>2026-04-04T11:16:18Z</time></trkpt><trkpt lat="45.57573837389455" lon="10.380716923385977"><ele>626.0</ele><time>2026-04-04T11:16:19Z</time></trkpt><trkpt lat="45.57578310620294" lon="10.380619958404775"><ele>626.0</ele><time>2026-04-04T11:16:20Z</time></trkpt><trkpt lat="45.575841103085324" lon="10.380536233056931"><ele>626.0</ele><time>2026-04-04T11:16:21Z</time></trkpt><trkpt lat="45.57590708660106" lon="10.38044920943966"><ele>626.0</ele><time>2026-04-04T11:16:22Z</time></trkpt><trkpt lat="45.57596030580744" lon="10.380361580706154"><ele>626.0</ele><time>2026-04-04T11:16:23Z</time></trkpt><trkpt lat="45.57602128748445" lon="10.380262519576611"><ele>626.0</ele><time>2026-04-04T11:16:24Z</time></trkpt><trkpt lat="45.5760791895905" lon="10.380154202453328"><ele>628.2</ele><time>2026-04-04T11:16:25Z</time></trkpt><trkpt lat="45.57614792599886" lon="10.380063542487415"><ele>630.4000000000001</ele><time>2026-04-04T11:16:26Z</time></trkpt><trkpt lat="45.5762054840027" lon="10.379946767095484"><ele>632.6</ele><time>2026-04-04T11:16:27Z</time></trkpt><trkpt lat="45.57625730602033" lon="10.37982554586151"><ele>634.8000000000001</ele><time>2026-04-04T11:16:28Z</time></trkpt><trkpt lat="45.57629179947817" lon="10.379705408710182"><ele>637.0</ele><time>2026-04-04T11:16:29Z</time></trkpt><trkpt lat="45.57631956989762" lon="10.37959583850359"><ele>637.0</ele><time>2026-04-04T11:16:30Z</time></trkpt><trkpt lat="45.5763429670046" lon="10.379489765913142"><ele>637.0</ele><time>2026-04-04T11:16:31Z</time></trkpt><trkpt lat="45.57636540541907" lon="10.37939268324802"><ele>637.0</ele><time>2026-04-04T11:16:32Z</time></trkpt><trkpt lat="45.57639809421772" lon="10.37930748726878"><ele>637.0</ele><time>2026-04-04T11:16:33Z</time></trkpt><trkpt lat="45.57648188447551" lon="10.379218696872163"><ele>637.0</ele><time>2026-04-04T11:16:35Z</time></trkpt><trkpt lat="45.57648588529911" lon="10.379107424374444"><ele>637.0</ele><time>2026-04-04T11:16:37Z</time></trkpt><trkpt lat="45.5764149037701" lon="10.378935887628783"><ele>636.5</ele><time>2026-04-04T11:16:39Z</time></trkpt><trkpt lat="45.57636989604046" lon="10.378828655592532"><ele>636.0</ele><time>2026-04-04T11:16:40Z</time></trkpt><trkpt lat="45.5763284992757" lon="10.378712420320124"><ele>635.5</ele><time>2026-04-04T11:16:41Z</time></trkpt><trkpt lat="45.57629243715492" lon="10.378598376229444"><ele>635.0</ele><time>2026-04-04T11:16:42Z</time></trkpt><trkpt lat="45.576259349473574" lon="10.37847921383444"><ele>634.5</ele><time>2026-04-04T11:16:43Z</time></trkpt><trkpt lat="45.576233910460445" lon="10.378352547157204"><ele>634.0</ele><time>2026-04-04T11:16:44Z</time></trkpt><trkpt lat="45.57622149926224" lon="10.378214719082965"><ele>634.0</ele><time>2026-04-04T11:16:45Z</time></trkpt><trkpt lat="45.576219320384666" lon="10.378077474911434"><ele>634.0</ele><time>2026-04-04T11:16:46Z</time></trkpt><trkpt lat="45.57622708174511" lon="10.377940376177476"><ele>634.0</ele><time>2026-04-04T11:16:47Z</time></trkpt><trkpt lat="45.57624142157185" lon="10.377805148204418"><ele>634.0</ele><time>2026-04-04T11:16:48Z</time></trkpt><trkpt lat="45.57625420281021" lon="10.377666653249468"><ele>634.0</ele><time>2026-04-04T11:16:49Z</time></trkpt><trkpt lat="45.576258019483895" lon="10.377523485637736"><ele>633.3333333333334</ele><time>2026-04-04T11:16:50Z</time></trkpt><trkpt lat="45.57624120175214" lon="10.377397400664446"><ele>632.6666666666667</ele><time>2026-04-04T11:16:51Z</time></trkpt><trkpt lat="45.57619846835678" lon="10.377300972260718"><ele>632.0</ele><time>2026-04-04T11:16:52Z</time></trkpt><trkpt lat="45.57613805577959" lon="10.377224579648649"><ele>631.3333333333334</ele><time>2026-04-04T11:16:53Z</time></trkpt><trkpt lat="45.57607217066314" lon="10.377161245446857"><ele>630.6666666666666</ele><time>2026-04-04T11:16:53.999Z</time></trkpt><trkpt lat="45.57600811468688" lon="10.377106370219513"><ele>630.0</ele><time>2026-04-04T11:16:54.999Z</time></trkpt><trkpt lat="45.57594196139222" lon="10.377046225536311"><ele>628.8333333333334</ele><time>2026-04-04T11:16:55.999Z</time></trkpt><trkpt lat="45.575873408421884" lon="10.376975014377608"><ele>627.6666666666666</ele><time>2026-04-04T11:16:56.999Z</time></trkpt><trkpt lat="45.57580297140484" lon="10.376893026591736"><ele>626.5</ele><time>2026-04-04T11:16:57.999Z</time></trkpt><trkpt lat="45.57574449679392" lon="10.376803204175987"><ele>625.3333333333333</ele><time>2026-04-04T11:16:58.999Z</time></trkpt><trkpt lat="45.57570967683115" lon="10.376703693177712"><ele>624.1666666666666</ele><time>2026-04-04T11:16:59.999Z</time></trkpt><trkpt lat="45.57570673458108" lon="10.376600354874423"><ele>623.0</ele><time>2026-04-04T11:17:00.999Z</time></trkpt><trkpt lat="45.5757283869179" lon="10.376487870760705"><ele>623.0</ele><time>2026-04-04T11:17:01.999Z</time></trkpt><trkpt lat="45.57576291681867" lon="10.376361767307158"><ele>623.0</ele><time>2026-04-04T11:17:02.999Z</time></trkpt><trkpt lat="45.57577282882296" lon="10.376260739919667"><ele>623.0</ele><time>2026-04-04T11:17:03.999Z</time></trkpt><trkpt lat="45.57574744001314" lon="10.376168763083184"><ele>623.0</ele><time>2026-04-04T11:17:04.999Z</time></trkpt><trkpt lat="45.57571478704738" lon="10.376087441328217"><ele>623.0</ele><time>2026-04-04T11:17:05.999Z</time></trkpt><trkpt lat="45.575700102809726" lon="10.375995439979235"><ele>623.0</ele><time>2026-04-04T11:17:06.999Z</time></trkpt><trkpt lat="45.57571615873648" lon="10.375893273998054"><ele>623.0</ele><time>2026-04-04T11:17:07.999Z</time></trkpt><trkpt lat="45.57574038986191" lon="10.375800828191991"><ele>624.6666666666666</ele><time>2026-04-04T11:17:08.999Z</time></trkpt><trkpt lat="45.57577458026294" lon="10.375716139508791"><ele>626.3333333333333</ele><time>2026-04-04T11:17:09.999Z</time></trkpt><trkpt lat="45.57580188372061" lon="10.375632716014062"><ele>628.0</ele><time>2026-04-04T11:17:10.999Z</time></trkpt><trkpt lat="45.575795432511356" lon="10.375485163399366"><ele>629.6666666666666</ele><time>2026-04-04T11:17:12.999Z</time></trkpt><trkpt lat="45.57573117652118" lon="10.375332417411572"><ele>631.3333333333334</ele><time>2026-04-04T11:17:14.999Z</time></trkpt><trkpt lat="45.57570000344498" lon="10.375246665747964"><ele>633.0</ele><time>2026-04-04T11:17:15.999Z</time></trkpt><trkpt lat="45.57566249508918" lon="10.375160534963513"><ele>633.3333333333334</ele><time>2026-04-04T11:17:16.999Z</time></trkpt><trkpt lat="45.575621937325415" lon="10.375059991123328"><ele>633.6666666666666</ele><time>2026-04-04T11:17:17.999Z</time></trkpt><trkpt lat="45.57558196995406" lon="10.374970838368274"><ele>634.0</ele><time>2026-04-04T11:17:18.999Z</time></trkpt><trkpt lat="45.5755270604007" lon="10.374881854862291"><ele>634.3333333333333</ele><time>2026-04-04T11:17:19.999Z</time></trkpt><trkpt lat="45.575467763783266" lon="10.374786914664542"><ele>634.6666666666666</ele><time>2026-04-04T11:17:20.999Z</time></trkpt><trkpt lat="45.5754142344304" lon="10.374667810998996"><ele>635.0</ele><time>2026-04-04T11:17:21.999Z</time></trkpt><trkpt lat="45.575354028182545" lon="10.374569758383895"><ele>633.6666666666666</ele><time>2026-04-04T11:17:22.999Z</time></trkpt><trkpt lat="45.575280550129506" lon="10.374497522587378"><ele>632.3333333333333</ele><time>2026-04-04T11:17:23.999Z</time></trkpt><trkpt lat="45.57521674545868" lon="10.374464828049206"><ele>631.0</ele><time>2026-04-04T11:17:24.999Z</time></trkpt><trkpt lat="45.57511219450289" lon="10.374483961557333"><ele>629.6666666666666</ele><time>2026-04-04T11:17:26.999Z</time></trkpt><trkpt lat="45.57504659197877" lon="10.374545927863322"><ele>628.3333333333334</ele><time>2026-04-04T11:17:27.999Z</time></trkpt><trkpt lat="45.57499345462061" lon="10.374630699410007"><ele>627.0</ele><time>2026-04-04T11:17:28.999Z</time></trkpt><trkpt lat="45.57493739259087" lon="10.374726697582737"><ele>625.4</ele><time>2026-04-04T11:17:29.999Z</time></trkpt><trkpt lat="45.57487306592004" lon="10.374821209961729"><ele>623.8000000000001</ele><time>2026-04-04T11:17:30.999Z</time></trkpt><trkpt lat="45.574806820684756" lon="10.374904697775465"><ele>622.2</ele><time>2026-04-04T11:17:31.999Z</time></trkpt><trkpt lat="45.574739971217575" lon="10.374986682903575"><ele>620.6</ele><time>2026-04-04T11:17:32.999Z</time></trkpt><trkpt lat="45.57466513557074" lon="10.37506454043009"><ele>619.0</ele><time>2026-04-04T11:17:33.999Z</time></trkpt><trkpt lat="45.57458291050718" lon="10.375141454782462"><ele>618.4</ele><time>2026-04-04T11:17:34.999Z</time></trkpt><trkpt lat="45.5744938629225" lon="10.375210372337202"><ele>617.8</ele><time>2026-04-04T11:17:35.999Z</time></trkpt><trkpt lat="45.57440189073833" lon="10.375278588934522"><ele>617.2</ele><time>2026-04-04T11:17:36.999Z</time></trkpt><trkpt lat="45.574314650858135" lon="10.375352453102177"><ele>616.6</ele><time>2026-04-04T11:17:37.999Z</time></trkpt><trkpt lat="45.57422842465705" lon="10.37542809794982"><ele>616.0</ele><time>2026-04-04T11:17:38.999Z</time></trkpt><trkpt lat="45.57413887905403" lon="10.375502804192223"><ele>613.2</ele><time>2026-04-04T11:17:39.999Z</time></trkpt><trkpt lat="45.574046417577804" lon="10.375571477513649"><ele>610.4000000000001</ele><time>2026-04-04T11:17:40.999Z</time></trkpt><trkpt lat="45.57395985267911" lon="10.375635386694094"><ele>607.6</ele><time>2026-04-04T11:17:41.999Z</time></trkpt><trkpt lat="45.573875765040405" lon="10.375693599867596"><ele>604.8000000000001</ele><time>2026-04-04T11:17:42.999Z</time></trkpt><trkpt lat="45.57378959669929" lon="10.37575975337379"><ele>602.0</ele><time>2026-04-04T11:17:43.999Z</time></trkpt><trkpt lat="45.573711428301834" lon="10.375819566080564"><ele>599.8000000000001</ele><time>2026-04-04T11:17:44.999Z</time></trkpt><trkpt lat="45.57364993092359" lon="10.375865091179096"><ele>597.6</ele><time>2026-04-04T11:17:45.999Z</time></trkpt><trkpt lat="45.57352080842552" lon="10.375902827980505"><ele>595.4000000000001</ele><time>2026-04-04T11:17:47.999Z</time></trkpt><trkpt lat="45.5734458347155" lon="10.37586725549007"><ele>593.2</ele><time>2026-04-04T11:17:48.999Z</time></trkpt><trkpt lat="45.573361908265326" lon="10.37583071211759"><ele>591.0</ele><time>2026-04-04T11:17:49.999Z</time></trkpt><trkpt lat="45.57327088198976" lon="10.375792399873655"><ele>591.0</ele><time>2026-04-04T11:17:50.999Z</time></trkpt><trkpt lat="45.57317669994896" lon="10.375748827505774"><ele>591.0</ele><time>2026-04-04T11:17:51.999Z</time></trkpt><trkpt lat="45.573082978146275" lon="10.375690584300138"><ele>591.0</ele><time>2026-04-04T11:17:52.999Z</time></trkpt><trkpt lat="45.57299204231895" lon="10.375618830857597"><ele>591.0</ele><time>2026-04-04T11:17:53.999Z</time></trkpt><trkpt lat="45.57290231477808" lon="10.375546665478524"><ele>591.0</ele><time>2026-04-04T11:17:54.999Z</time></trkpt><trkpt lat="45.57281082795561" lon="10.375484383286599"><ele>589.6</ele><time>2026-04-04T11:17:55.999Z</time></trkpt><trkpt lat="45.572718529461724" lon="10.375418778556456"><ele>588.2</ele><time>2026-04-04T11:17:56.999Z</time></trkpt><trkpt lat="45.57261895302425" lon="10.375361739670643"><ele>586.8</ele><time>2026-04-04T11:17:58Z</time></trkpt><trkpt lat="45.572517143203704" lon="10.375307032383155"><ele>585.4</ele><time>2026-04-04T11:17:59Z</time></trkpt><trkpt lat="45.57241086913637" lon="10.375253983156911"><ele>584.0</ele><time>2026-04-04T11:18:00Z</time></trkpt><trkpt lat="45.572300719870675" lon="10.375205000616027"><ele>584.0</ele><time>2026-04-04T11:18:01Z</time></trkpt><trkpt lat="45.57218220648282" lon="10.375163053425037"><ele>584.0</ele><time>2026-04-04T11:18:02Z</time></trkpt><trkpt lat="45.572060984424255" lon="10.375110013081308"><ele>584.0</ele><time>2026-04-04T11:18:03Z</time></trkpt><trkpt lat="45.57193971899341" lon="10.375055544828012"><ele>584.0</ele><time>2026-04-04T11:18:04Z</time></trkpt><trkpt lat="45.5718174316927" lon="10.374999092795843"><ele>579.25</ele><time>2026-04-04T11:18:05Z</time></trkpt><trkpt lat="45.57169390052285" lon="10.374941245366637"><ele>574.5</ele><time>2026-04-04T11:18:06Z</time></trkpt><trkpt lat="45.57156815972198" lon="10.37489254630923"><ele>569.75</ele><time>2026-04-04T11:18:07Z</time></trkpt><trkpt lat="45.57144129083648" lon="10.374851637454563"><ele>565.0</ele><time>2026-04-04T11:18:08Z</time></trkpt><trkpt lat="45.571314075815344" lon="10.374818609795865"><ele>565.0</ele><time>2026-04-04T11:18:09Z</time></trkpt><trkpt lat="45.5711981880474" lon="10.374786883329339"><ele>565.0</ele><time>2026-04-04T11:18:10Z</time></trkpt><trkpt lat="45.57109518572156" lon="10.374759597246607"><ele>565.0</ele><time>2026-04-04T11:18:11Z</time></trkpt><trkpt lat="45.570998843385986" lon="10.374740358934032"><ele>565.0</ele><time>2026-04-04T11:18:12Z</time></trkpt><trkpt lat="45.570911423096426" lon="10.374725207280873"><ele>565.0</ele><time>2026-04-04T11:18:13Z</time></trkpt><trkpt lat="45.570829934729026" lon="10.374714958172191"><ele>564.8333333333334</ele><time>2026-04-04T11:18:14Z</time></trkpt><trkpt lat="45.57075787138842" lon="10.374703968146532"><ele>564.6666666666667</ele><time>2026-04-04T11:18:15Z</time></trkpt><trkpt lat="45.57064770653631" lon="10.374644784956457"><ele>564.5</ele><time>2026-04-04T11:18:17Z</time></trkpt><trkpt lat="45.570570555453266" lon="10.374556095167906"><ele>564.3333333333334</ele><time>2026-04-04T11:18:19Z</time></trkpt><trkpt lat="45.570501222352625" lon="10.374513798258722"><ele>564.1666666666666</ele><time>2026-04-04T11:18:21Z</time></trkpt><trkpt lat="45.57042938461058" lon="10.374470610129654"><ele>564.0</ele><time>2026-04-04T11:18:24Z</time></trkpt><trkpt lat="45.570389722833646" lon="10.374395199117616"><ele>564.0</ele><time>2026-04-04T11:18:55Z</time></trkpt><trkpt lat="45.570335345603766" lon="10.374349792244045"><ele>564.0</ele><time>2026-04-04T11:19:15.999Z</time></trkpt><trkpt lat="45.57039395218428" lon="10.374406067410469"><ele>564.0</ele><time>2026-04-04T11:20:01.999Z</time></trkpt><trkpt lat="45.570369503519906" lon="10.374494398372795"><ele>564.0</ele><time>2026-04-04T11:20:25Z</time></trkpt><trkpt lat="45.570334191569394" lon="10.37441972620245"><ele>564.0</ele><time>2026-04-04T11:22:27Z</time></trkpt><trkpt lat="45.57037404856923" lon="10.374344937060869"><ele>564.0</ele><time>2026-04-04T11:22:32Z</time></trkpt><trkpt lat="45.57032605412602" lon="10.374279125357555"><ele>564.0</ele><time>2026-04-04T11:22:40Z</time></trkpt><trkpt lat="45.570276997724605" lon="10.374217335260848"><ele>548.0</ele><time>2026-04-04T11:22:44Z</time></trkpt><trkpt lat="45.570208783360044" lon="10.374219826974134"><ele>548.0</ele><time>2026-04-04T11:22:55Z</time></trkpt></trkseg><trkseg><trkpt lat="45.57044383440888" lon="10.374305174510404"><ele>564.0</ele><time>2026-04-04T12:44:41.072Z</time></trkpt><trkpt lat="45.570441644189835" lon="10.374402950364965"><ele>564.0</ele><time>2026-04-04T12:45:00.002Z</time></trkpt><trkpt lat="45.570518757693684" lon="10.37443319828314"><ele>564.0</ele><time>2026-04-04T12:47:39Z</time></trkpt><trkpt lat="45.5705890180182" lon="10.374470770931346"><ele>564.0</ele><time>2026-04-04T12:49:40Z</time></trkpt><trkpt lat="45.57064165973907" lon="10.374542902147468"><ele>564.0</ele><time>2026-04-04T12:49:43Z</time></trkpt><trkpt lat="45.570678635926264" lon="10.374621763029092"><ele>564.0</ele><time>2026-04-04T12:49:57Z</time></trkpt><trkpt lat="45.57073721152066" lon="10.374694122429881"><ele>564.0</ele><time>2026-04-04T12:50:41.999Z</time></trkpt><trkpt lat="45.570801534279035" lon="10.374697843514214"><ele>564.1666666666666</ele><time>2026-04-04T12:50:43.999Z</time></trkpt><trkpt lat="45.57087168554063" lon="10.374690779838549"><ele>564.3333333333334</ele><time>2026-04-04T12:50:45.999Z</time></trkpt><trkpt lat="45.57095537396669" lon="10.374704993833262"><ele>564.5</ele><time>2026-04-04T12:50:47.999Z</time></trkpt><trkpt lat="45.57104628389532" lon="10.374719578230339"><ele>564.6666666666667</ele><time>2026-04-04T12:50:49.999Z</time></trkpt><trkpt lat="45.57114685480634" lon="10.374743526211303"><ele>564.8333333333334</ele><time>2026-04-04T12:50:51.999Z</time></trkpt><trkpt lat="45.571245127163266" lon="10.374768545528736"><ele>565.0</ele><time>2026-04-04T12:50:53.999Z</time></trkpt><trkpt lat="45.57134896644957" lon="10.374802469073018"><ele>565.0</ele><time>2026-04-04T12:50:55.999Z</time></trkpt><trkpt lat="45.57146279473019" lon="10.374844483618295"><ele>565.0</ele><time>2026-04-04T12:50:57.999Z</time></trkpt><trkpt lat="45.571580284862314" lon="10.374883681540148"><ele>565.0</ele><time>2026-04-04T12:50:59.999Z</time></trkpt><trkpt lat="45.57168436798812" lon="10.374911226822238"><ele>565.0</ele><time>2026-04-04T12:51:01.999Z</time></trkpt><trkpt lat="45.57177926080414" lon="10.374962364230496"><ele>565.0</ele><time>2026-04-04T12:51:04Z</time></trkpt><trkpt lat="45.57188041973589" lon="10.37500647942423"><ele>565.0</ele><time>2026-04-04T12:51:06Z</time></trkpt><trkpt lat="45.571986195559944" lon="10.375057255022703"><ele>565.0</ele><time>2026-04-04T12:51:08Z</time></trkpt><trkpt lat="45.57211082557767" lon="10.37511856757913"><ele>565.0</ele><time>2026-04-04T12:51:10Z</time></trkpt><trkpt lat="45.57220695346971" lon="10.375159511445318"><ele>565.0</ele><time>2026-04-04T12:51:11Z</time></trkpt><trkpt lat="45.572294256357424" lon="10.375186878454235"><ele>565.0</ele><time>2026-04-04T12:51:12Z</time></trkpt><trkpt lat="45.57236325253607" lon="10.37523881579712"><ele>567.7142857142857</ele><time>2026-04-04T12:51:13Z</time></trkpt><trkpt lat="45.572436033072925" lon="10.375246568307148"><ele>570.4285714285714</ele><time>2026-04-04T12:51:14Z</time></trkpt><trkpt lat="45.57250765441424" lon="10.375278778001855"><ele>573.1428571428571</ele><time>2026-04-04T12:51:15Z</time></trkpt><trkpt lat="45.572570936574806" lon="10.375332154188023"><ele>575.8571428571429</ele><time>2026-04-04T12:51:16Z</time></trkpt><trkpt lat="45.57263410357561" lon="10.37536857869676"><ele>578.5714285714286</ele><time>2026-04-04T12:51:17Z</time></trkpt><trkpt lat="45.57270517559518" lon="10.37539444809462"><ele>581.2857142857142</ele><time>2026-04-04T12:51:18Z</time></trkpt><trkpt lat="45.57277275122455" lon="10.375443693303211"><ele>584.0</ele><time>2026-04-04T12:51:19Z</time></trkpt><trkpt lat="45.572841469110934" lon="10.37549195257759"><ele>585.1666666666666</ele><time>2026-04-04T12:51:20Z</time></trkpt><trkpt lat="45.57290537390779" lon="10.375556630891696"><ele>586.3333333333333</ele><time>2026-04-04T12:51:21Z</time></trkpt><trkpt lat="45.572981687788925" lon="10.37561162232364"><ele>587.5</ele><time>2026-04-04T12:51:22Z</time></trkpt><trkpt lat="45.57305333149624" lon="10.375663248630088"><ele>588.6666666666666</ele><time>2026-04-04T12:51:23Z</time></trkpt><trkpt lat="45.57313821587317" lon="10.375706536957164"><ele>589.8333333333334</ele><time>2026-04-04T12:51:24Z</time></trkpt><trkpt lat="45.5732307026836" lon="10.375760666108212"><ele>591.0</ele><time>2026-04-04T12:51:25Z</time></trkpt><trkpt lat="45.57332300050286" lon="10.37580068578815"><ele>591.0</ele><time>2026-04-04T12:51:26Z</time></trkpt><trkpt lat="45.57341559125173" lon="10.375826081505318"><ele>591.0</ele><time>2026-04-04T12:51:27Z</time></trkpt><trkpt lat="45.573484599800494" lon="10.375872906766306"><ele>591.0</ele><time>2026-04-04T12:51:28Z</time></trkpt><trkpt lat="45.57355851035432" lon="10.375897867211338"><ele>591.0</ele><time>2026-04-04T12:51:29Z</time></trkpt><trkpt lat="45.57363542557131" lon="10.375902486705526"><ele>591.0</ele><time>2026-04-04T12:51:30Z</time></trkpt><trkpt lat="45.573707468175066" lon="10.375837966126124"><ele>591.0</ele><time>2026-04-04T12:51:31Z</time></trkpt><trkpt lat="45.573780931370656" lon="10.375775646058061"><ele>593.75</ele><time>2026-04-04T12:51:32Z</time></trkpt><trkpt lat="45.57387237744308" lon="10.375730604711293"><ele>596.5</ele><time>2026-04-04T12:51:33Z</time></trkpt><trkpt lat="45.573980078280286" lon="10.37565419696358"><ele>599.25</ele><time>2026-04-04T12:51:34Z</time></trkpt><trkpt lat="45.574100535644334" lon="10.375562799256178"><ele>602.0</ele><time>2026-04-04T12:51:35Z</time></trkpt><trkpt lat="45.57421192008886" lon="10.375442820113852"><ele>606.6666666666666</ele><time>2026-04-04T12:51:36Z</time></trkpt><trkpt lat="45.57434194264239" lon="10.37534355885643"><ele>611.3333333333334</ele><time>2026-04-04T12:51:37Z</time></trkpt><trkpt lat="45.5744790595517" lon="10.375228679480548"><ele>616.0</ele><time>2026-04-04T12:51:38Z</time></trkpt><trkpt lat="45.574632414428585" lon="10.375125141506528"><ele>617.0</ele><time>2026-04-04T12:51:39Z</time></trkpt><trkpt lat="45.57477751637026" lon="10.374961439249425"><ele>618.0</ele><time>2026-04-04T12:51:40Z</time></trkpt><trkpt lat="45.57490184865408" lon="10.374774676716143"><ele>619.0</ele><time>2026-04-04T12:51:41Z</time></trkpt><trkpt lat="45.57501350240007" lon="10.374649850594222"><ele>620.6</ele><time>2026-04-04T12:51:42Z</time></trkpt><trkpt lat="45.57508007728949" lon="10.374562132122751"><ele>622.2</ele><time>2026-04-04T12:51:43Z</time></trkpt><trkpt lat="45.5751458259991" lon="10.374461856839384"><ele>623.8000000000001</ele><time>2026-04-04T12:51:45Z</time></trkpt><trkpt lat="45.5752104511135" lon="10.37440574802233"><ele>625.4</ele><time>2026-04-04T12:51:47Z</time></trkpt><trkpt lat="45.57528510538557" lon="10.37451898085904"><ele>627.0</ele><time>2026-04-04T12:51:49Z</time></trkpt><trkpt lat="45.57536399436885" lon="10.37461332581943"><ele>628.1428571428571</ele><time>2026-04-04T12:51:51Z</time></trkpt><trkpt lat="45.57541178922117" lon="10.374677132417867"><ele>629.2857142857142</ele><time>2026-04-04T12:51:52Z</time></trkpt><trkpt lat="45.575457341106386" lon="10.374748869271967"><ele>630.4285714285713</ele><time>2026-04-04T12:51:53Z</time></trkpt><trkpt lat="45.575500069119414" lon="10.374826510466756"><ele>631.5714285714286</ele><time>2026-04-04T12:51:54Z</time></trkpt><trkpt lat="45.575552559422086" lon="10.37490769886927"><ele>632.7142857142857</ele><time>2026-04-04T12:51:55Z</time></trkpt><trkpt lat="45.57558849316515" lon="10.374998047339194"><ele>633.8571428571428</ele><time>2026-04-04T12:51:56Z</time></trkpt><trkpt lat="45.57563376769169" lon="10.375086068224618"><ele>635.0</ele><time>2026-04-04T12:51:57Z</time></trkpt><trkpt lat="45.57567460151092" lon="10.375170839008057"><ele>635.0</ele><time>2026-04-04T12:51:58Z</time></trkpt><trkpt lat="45.57571672978895" lon="10.375269574230787"><ele>635.0</ele><time>2026-04-04T12:51:59Z</time></trkpt><trkpt lat="45.57575306234502" lon="10.375376031672767"><ele>635.0</ele><time>2026-04-04T12:52:00Z</time></trkpt><trkpt lat="45.57578887205415" lon="10.375488653379156"><ele>635.0</ele><time>2026-04-04T12:52:01Z</time></trkpt><trkpt lat="45.57581135548901" lon="10.37560352545293"><ele>635.0</ele><time>2026-04-04T12:52:02Z</time></trkpt><trkpt lat="45.57581500171276" lon="10.375717200616876"><ele>635.0</ele><time>2026-04-04T12:52:03Z</time></trkpt><trkpt lat="45.57575846110875" lon="10.375807063454111"><ele>634.6666666666666</ele><time>2026-04-04T12:52:04Z</time></trkpt><trkpt lat="45.5757288650687" lon="10.375927672210647"><ele>634.3333333333333</ele><time>2026-04-04T12:52:05Z</time></trkpt><trkpt lat="45.575712891535446" lon="10.376047461848852"><ele>634.0</ele><time>2026-04-04T12:52:06Z</time></trkpt><trkpt lat="45.5757344992048" lon="10.376177555330845"><ele>633.6666666666666</ele><time>2026-04-04T12:52:07Z</time></trkpt><trkpt lat="45.5757656271837" lon="10.376299585510031"><ele>633.3333333333334</ele><time>2026-04-04T12:52:08Z</time></trkpt><trkpt lat="45.57577135791362" lon="10.37640201836165"><ele>633.0</ele><time>2026-04-04T12:52:09Z</time></trkpt><trkpt lat="45.57573636650567" lon="10.376501037200088"><ele>631.3333333333334</ele><time>2026-04-04T12:52:10Z</time></trkpt><trkpt lat="45.57572160628597" lon="10.376609050723816"><ele>629.6666666666666</ele><time>2026-04-04T12:52:11Z</time></trkpt><trkpt lat="45.57571476970884" lon="10.37670477144006"><ele>628.0</ele><time>2026-04-04T12:52:12Z</time></trkpt><trkpt lat="45.57574504324876" lon="10.376813382099558"><ele>626.3333333333333</ele><time>2026-04-04T12:52:13Z</time></trkpt><trkpt lat="45.57583757105801" lon="10.376876714971175"><ele>624.6666666666666</ele><time>2026-04-04T12:52:14Z</time></trkpt><trkpt lat="45.57590561045001" lon="10.376965971173696"><ele>623.0</ele><time>2026-04-04T12:52:15Z</time></trkpt><trkpt lat="45.57597078883088" lon="10.377043969727108"><ele>623.0</ele><time>2026-04-04T12:52:15.999Z</time></trkpt><trkpt lat="45.57604765153816" lon="10.377100363729628"><ele>623.0</ele><time>2026-04-04T12:52:16.999Z</time></trkpt><trkpt lat="45.576120147887885" lon="10.377156243302894"><ele>623.0</ele><time>2026-04-04T12:52:17.999Z</time></trkpt><trkpt lat="45.57618421050661" lon="10.3772316305988"><ele>623.0</ele><time>2026-04-04T12:52:18.999Z</time></trkpt><trkpt lat="45.57623026039276" lon="10.377326493397158"><ele>623.0</ele><time>2026-04-04T12:52:19.999Z</time></trkpt><trkpt lat="45.57626492400628" lon="10.37743163272199"><ele>623.0</ele><time>2026-04-04T12:52:20.999Z</time></trkpt><trkpt lat="45.576288144246156" lon="10.377534733344696"><ele>624.4</ele><time>2026-04-04T12:52:21.999Z</time></trkpt><trkpt lat="45.57629004727533" lon="10.377649024171149"><ele>625.8</ele><time>2026-04-04T12:52:22.999Z</time></trkpt><trkpt lat="45.576280826805586" lon="10.37777273638886"><ele>627.2</ele><time>2026-04-04T12:52:23.999Z</time></trkpt><trkpt lat="45.576261737087236" lon="10.377905982352111"><ele>628.6</ele><time>2026-04-04T12:52:24.999Z</time></trkpt><trkpt lat="45.57625311884843" lon="10.378037676090548"><ele>630.0</ele><time>2026-04-04T12:52:25.999Z</time></trkpt><trkpt lat="45.57625117767734" lon="10.378178058696324"><ele>630.8</ele><time>2026-04-04T12:52:26.999Z</time></trkpt><trkpt lat="45.57626424488889" lon="10.37832413760969"><ele>631.6</ele><time>2026-04-04T12:52:27.999Z</time></trkpt><trkpt lat="45.57629158462456" lon="10.378461282548674"><ele>632.4</ele><time>2026-04-04T12:52:28.999Z</time></trkpt><trkpt lat="45.57632297038577" lon="10.37858061813388"><ele>633.2</ele><time>2026-04-04T12:52:29.999Z</time></trkpt><trkpt lat="45.57636122071808" lon="10.378700413740713"><ele>634.0</ele><time>2026-04-04T12:52:30.999Z</time></trkpt><trkpt lat="45.57640424905099" lon="10.378812439172862"><ele>634.5</ele><time>2026-04-04T12:52:31.999Z</time></trkpt><trkpt lat="45.576445442196636" lon="10.378918090753187"><ele>635.0</ele><time>2026-04-04T12:52:32.999Z</time></trkpt><trkpt lat="45.57648167772866" lon="10.379017488949836"><ele>635.5</ele><time>2026-04-04T12:52:33.999Z</time></trkpt><trkpt lat="45.57651213397765" lon="10.379112923335958"><ele>636.0</ele><time>2026-04-04T12:52:34.999Z</time></trkpt><trkpt lat="45.57653597395638" lon="10.379201687285818"><ele>636.5</ele><time>2026-04-04T12:52:35.999Z</time></trkpt><trkpt lat="45.576479255734945" lon="10.379303968863342"><ele>637.0</ele><time>2026-04-04T12:52:37.999Z</time></trkpt><trkpt lat="45.57642232977417" lon="10.379356024890594"><ele>637.0</ele><time>2026-04-04T12:52:38.999Z</time></trkpt><trkpt lat="45.5763822635168" lon="10.379455324599677"><ele>637.0</ele><time>2026-04-04T12:52:39.999Z</time></trkpt><trkpt lat="45.57635004443971" lon="10.379581506596537"><ele>637.0</ele><time>2026-04-04T12:52:40.999Z</time></trkpt><trkpt lat="45.57630494181034" lon="10.37971050770388"><ele>637.0</ele><time>2026-04-04T12:52:41.999Z</time></trkpt><trkpt lat="45.5762567601567" lon="10.37983316958559"><ele>637.0</ele><time>2026-04-04T12:52:42.999Z</time></trkpt><trkpt lat="45.576199521912045" lon="10.379955621901587"><ele>634.8000000000001</ele><time>2026-04-04T12:52:43.999Z</time></trkpt><trkpt lat="45.5761373898182" lon="10.380072910701246"><ele>632.6</ele><time>2026-04-04T12:52:44.999Z</time></trkpt><trkpt lat="45.57607177860265" lon="10.380182719636188"><ele>630.4000000000001</ele><time>2026-04-04T12:52:45.999Z</time></trkpt><trkpt lat="45.57600627558743" lon="10.380288114216686"><ele>628.2</ele><time>2026-04-04T12:52:46.999Z</time></trkpt><trkpt lat="45.575936095737994" lon="10.380400574458996"><ele>626.0</ele><time>2026-04-04T12:52:47.999Z</time></trkpt><trkpt lat="45.57587564930687" lon="10.380520354588622"><ele>626.0</ele><time>2026-04-04T12:52:48.999Z</time></trkpt><trkpt lat="45.575811738668015" lon="10.38062299508166"><ele>626.0</ele><time>2026-04-04T12:52:49.999Z</time></trkpt><trkpt lat="45.57575042659083" lon="10.380708778442035"><ele>626.0</ele><time>2026-04-04T12:52:50.999Z</time></trkpt><trkpt lat="45.575706231014664" lon="10.380812549146523"><ele>626.0</ele><time>2026-04-04T12:52:51.999Z</time></trkpt><trkpt lat="45.57568741388724" lon="10.380909932540856"><ele>626.0</ele><time>2026-04-04T12:52:52.999Z</time></trkpt><trkpt lat="45.57566258771125" lon="10.380998578110322"><ele>626.0</ele><time>2026-04-04T12:52:53.999Z</time></trkpt><trkpt lat="45.57563045356045" lon="10.381103338657386"><ele>626.0</ele><time>2026-04-04T12:52:54.999Z</time></trkpt><trkpt lat="45.575648789811154" lon="10.381209173618503"><ele>626.0</ele><time>2026-04-04T12:52:55.999Z</time></trkpt><trkpt lat="45.57566586958443" lon="10.381300128561595"><ele>626.0</ele><time>2026-04-04T12:52:56.999Z</time></trkpt><trkpt lat="45.575732901116055" lon="10.381429372656246"><ele>626.0</ele><time>2026-04-04T12:52:58.999Z</time></trkpt><trkpt lat="45.57573378801915" lon="10.381519503315513"><ele>626.0</ele><time>2026-04-04T12:53:03.999Z</time></trkpt><trkpt lat="45.57573511777197" lon="10.38166868503895"><ele>626.0</ele><time>2026-04-04T12:53:05.999Z</time></trkpt><trkpt lat="45.57564922762424" lon="10.381776662889841"><ele>628.6</ele><time>2026-04-04T12:53:07.999Z</time></trkpt><trkpt lat="45.5755711211823" lon="10.381894122354984"><ele>631.2</ele><time>2026-04-04T12:53:34Z</time></trkpt><trkpt lat="45.57550596544252" lon="10.381962791034521"><ele>633.8</ele><time>2026-04-04T12:53:36Z</time></trkpt><trkpt lat="45.57544161465095" lon="10.38211049811283"><ele>636.4</ele><time>2026-04-04T12:53:38Z</time></trkpt><trkpt lat="45.57540970020314" lon="10.382188085654036"><ele>639.0</ele><time>2026-04-04T12:53:39Z</time></trkpt><trkpt lat="45.57536120010902" lon="10.382345017136112"><ele>636.8333333333334</ele><time>2026-04-04T12:53:41Z</time></trkpt><trkpt lat="45.57529552562382" lon="10.382476973472542"><ele>634.6666666666666</ele><time>2026-04-04T12:53:43Z</time></trkpt><trkpt lat="45.575234688999835" lon="10.382599589478767"><ele>632.5</ele><time>2026-04-04T12:53:45Z</time></trkpt><trkpt lat="45.57519344386193" lon="10.38268341026437"><ele>630.3333333333333</ele><time>2026-04-04T12:53:46Z</time></trkpt><trkpt lat="45.575153553672614" lon="10.382764479043681"><ele>628.1666666666666</ele><time>2026-04-04T12:53:47Z</time></trkpt><trkpt lat="45.57510506199218" lon="10.38283306402053"><ele>626.0</ele><time>2026-04-04T12:53:48Z</time></trkpt><trkpt lat="45.575054324027306" lon="10.382916760695574"><ele>626.0</ele><time>2026-04-04T12:53:49Z</time></trkpt><trkpt lat="45.5749943533709" lon="10.383009152410617"><ele>626.0</ele><time>2026-04-04T12:53:50Z</time></trkpt><trkpt lat="45.57493000978022" lon="10.383097942266353"><ele>626.0</ele><time>2026-04-04T12:53:51Z</time></trkpt><trkpt lat="45.57487667367672" lon="10.383151376215302"><ele>626.0</ele><time>2026-04-04T12:53:52Z</time></trkpt><trkpt lat="45.574790448217186" lon="10.383265128139731"><ele>626.0</ele><time>2026-04-04T12:53:54Z</time></trkpt><trkpt lat="45.57500959366625" lon="10.383897959331549"><ele>629.8</ele><time>2026-04-04T12:53:55Z</time></trkpt><trkpt lat="45.57497300345167" lon="10.38402138509246"><ele>633.6</ele><time>2026-04-04T12:53:56Z</time></trkpt><trkpt lat="45.57492617490305" lon="10.384170169721052"><ele>637.4</ele><time>2026-04-04T12:53:57Z</time></trkpt><trkpt lat="45.574894428707175" lon="10.384326963992581"><ele>641.2</ele><time>2026-04-04T12:53:58Z</time></trkpt><trkpt lat="45.57486925267053" lon="10.384473486116706"><ele>645.0</ele><time>2026-04-04T12:53:59Z</time></trkpt><trkpt lat="45.57483619661945" lon="10.384620324104464"><ele>644.5</ele><time>2026-04-04T12:54:00Z</time></trkpt><trkpt lat="45.574818068938896" lon="10.38476648479886"><ele>644.0</ele><time>2026-04-04T12:54:01Z</time></trkpt><trkpt lat="45.57482551987685" lon="10.384932718787"><ele>643.5</ele><time>2026-04-04T12:54:02Z</time></trkpt><trkpt lat="45.57482476881309" lon="10.385128609573655"><ele>643.0</ele><time>2026-04-04T12:54:03Z</time></trkpt><trkpt lat="45.57481205866688" lon="10.385283280168446"><ele>643.0</ele><time>2026-04-04T12:54:04Z</time></trkpt><trkpt lat="45.574785387716226" lon="10.385430268801958"><ele>643.0</ele><time>2026-04-04T12:54:05Z</time></trkpt><trkpt lat="45.57477487512595" lon="10.385582105564225"><ele>643.0</ele><time>2026-04-04T12:54:06Z</time></trkpt><trkpt lat="45.5747942087587" lon="10.385703157320426"><ele>643.0</ele><time>2026-04-04T12:54:07Z</time></trkpt><trkpt lat="45.574855722709984" lon="10.38577596940888"><ele>643.0</ele><time>2026-04-04T12:54:08Z</time></trkpt><trkpt lat="45.57493267602545" lon="10.385833792092107"><ele>642.6666666666667</ele><time>2026-04-04T12:54:09Z</time></trkpt><trkpt lat="45.574998262792015" lon="10.38588300865277"><ele>642.3333333333334</ele><time>2026-04-04T12:54:10Z</time></trkpt><trkpt lat="45.57505001086553" lon="10.38595602244614"><ele>642.0</ele><time>2026-04-04T12:54:11Z</time></trkpt><trkpt lat="45.57510602756043" lon="10.386072698167464"><ele>641.6666666666666</ele><time>2026-04-04T12:54:13Z</time></trkpt><trkpt lat="45.575088237485865" lon="10.386171843056967"><ele>641.3333333333333</ele><time>2026-04-04T12:54:14Z</time></trkpt><trkpt lat="45.57506516379414" lon="10.386295430406562"><ele>641.0</ele><time>2026-04-04T12:54:15Z</time></trkpt><trkpt lat="45.575060537317945" lon="10.3864069654394"><ele>640.8333333333333</ele><time>2026-04-04T12:54:16Z</time></trkpt><trkpt lat="45.5750370275928" lon="10.386499840497635"><ele>640.6666666666666</ele><time>2026-04-04T12:54:17Z</time></trkpt><trkpt lat="45.575029388296414" lon="10.386634372964952"><ele>640.5</ele><time>2026-04-04T12:54:17.999Z</time></trkpt><trkpt lat="45.57503211325072" lon="10.386749841408555"><ele>640.3333333333334</ele><time>2026-04-04T12:54:18.999Z</time></trkpt><trkpt lat="45.57504289720588" lon="10.386853989803344"><ele>640.1666666666667</ele><time>2026-04-04T12:54:19.999Z</time></trkpt><trkpt lat="45.57506892040608" lon="10.386973939321008"><ele>640.0</ele><time>2026-04-04T12:54:20.999Z</time></trkpt><trkpt lat="45.57510588703939" lon="10.3870913266855"><ele>638.8</ele><time>2026-04-04T12:54:21.999Z</time></trkpt><trkpt lat="45.57512368982227" lon="10.387217382160884"><ele>637.6</ele><time>2026-04-04T12:54:22.999Z</time></trkpt><trkpt lat="45.57515162766816" lon="10.387351163006628"><ele>636.4</ele><time>2026-04-04T12:54:23.999Z</time></trkpt><trkpt lat="45.57518631398128" lon="10.387487086778775"><ele>635.2</ele><time>2026-04-04T12:54:24.999Z</time></trkpt><trkpt lat="45.57523055524468" lon="10.387644835291024"><ele>634.0</ele><time>2026-04-04T12:54:25.999Z</time></trkpt><trkpt lat="45.5752843005393" lon="10.3877845227958"><ele>634.0</ele><time>2026-04-04T12:54:26.999Z</time></trkpt><trkpt lat="45.575335718497215" lon="10.387901149100287"><ele>634.0</ele><time>2026-04-04T12:54:27.999Z</time></trkpt><trkpt lat="45.5754082006083" lon="10.3880151868301"><ele>634.0</ele><time>2026-04-04T12:54:28.999Z</time></trkpt><trkpt lat="45.57549193446025" lon="10.388130307321312"><ele>634.0</ele><time>2026-04-04T12:54:29.999Z</time></trkpt><trkpt lat="45.57557323058981" lon="10.38824547551563"><ele>634.0</ele><time>2026-04-04T12:54:30.999Z</time></trkpt><trkpt lat="45.57566633466705" lon="10.388337436367843"><ele>635.4</ele><time>2026-04-04T12:54:31.999Z</time></trkpt><trkpt lat="45.57575784079145" lon="10.388402160022695"><ele>636.8</ele><time>2026-04-04T12:54:32.999Z</time></trkpt><trkpt lat="45.57583129413174" lon="10.388484324891142"><ele>638.1999999999999</ele><time>2026-04-04T12:54:33.999Z</time></trkpt><trkpt lat="45.57589683725167" lon="10.388537440766065"><ele>639.5999999999999</ele><time>2026-04-04T12:54:34.999Z</time></trkpt><trkpt lat="45.57598120049956" lon="10.388555281871959"><ele>641.0</ele><time>2026-04-04T12:54:35.999Z</time></trkpt><trkpt lat="45.5760821939291" lon="10.388578833281796"><ele>641.0</ele><time>2026-04-04T12:54:36.999Z</time></trkpt><trkpt lat="45.57615349314129" lon="10.388635933468505"><ele>641.0</ele><time>2026-04-04T12:54:37.999Z</time></trkpt><trkpt lat="45.57619070540506" lon="10.388709834894174"><ele>641.0</ele><time>2026-04-04T12:54:38.999Z</time></trkpt><trkpt lat="45.576170231234144" lon="10.388805667562577"><ele>641.0</ele><time>2026-04-04T12:54:39.999Z</time></trkpt><trkpt lat="45.57614709261356" lon="10.388938921036104"><ele>641.0</ele><time>2026-04-04T12:54:40.999Z</time></trkpt><trkpt lat="45.57611628584976" lon="10.389046774264287"><ele>641.0</ele><time>2026-04-04T12:54:41.999Z</time></trkpt><trkpt lat="45.57610746740286" lon="10.389136063623468"><ele>639.0</ele><time>2026-04-04T12:54:42.999Z</time></trkpt><trkpt lat="45.57610519045837" lon="10.389287068956488"><ele>637.0</ele><time>2026-04-04T12:54:44.999Z</time></trkpt><trkpt lat="45.576068956678455" lon="10.389361954947235"><ele>635.0</ele><time>2026-04-04T12:54:50.999Z</time></trkpt><trkpt lat="45.576036462031084" lon="10.389511432080385"><ele>633.0</ele><time>2026-04-04T12:55:05.999Z</time></trkpt><trkpt lat="45.576006753491356" lon="10.389590920091525"><ele>631.0</ele><time>2026-04-04T12:55:06.999Z</time></trkpt><trkpt lat="45.57593038921799" lon="10.389688431170775"><ele>629.0</ele><time>2026-04-04T12:55:08.999Z</time></trkpt><trkpt lat="45.57584820973553" lon="10.389803321756236"><ele>628.6</ele><time>2026-04-04T12:55:10.999Z</time></trkpt><trkpt lat="45.575802169904534" lon="10.389919507544816"><ele>628.2</ele><time>2026-04-04T12:55:11.999Z</time></trkpt><trkpt lat="45.575778501830186" lon="10.390005471500894"><ele>627.8000000000001</ele><time>2026-04-04T12:55:12.999Z</time></trkpt><trkpt lat="45.57578604909105" lon="10.390192778908066"><ele>627.4</ele><time>2026-04-04T12:55:15Z</time></trkpt><trkpt lat="45.575774730900584" lon="10.39035764050027"><ele>627.0</ele><time>2026-04-04T12:55:17Z</time></trkpt><trkpt lat="45.57573114438173" lon="10.390431816216235"><ele>627.0</ele><time>2026-04-04T12:55:18Z</time></trkpt><trkpt lat="45.57567619098654" lon="10.390481623284522"><ele>627.0</ele><time>2026-04-04T12:55:19Z</time></trkpt><trkpt lat="45.57560174547897" lon="10.390640640809329"><ele>627.0</ele><time>2026-04-04T12:55:21Z</time></trkpt><trkpt lat="45.57559318633828" lon="10.39075233973485"><ele>627.0</ele><time>2026-04-04T12:55:22Z</time></trkpt><trkpt lat="45.57560452751161" lon="10.39087284017483"><ele>627.0</ele><time>2026-04-04T12:55:23Z</time></trkpt><trkpt lat="45.57552845906162" lon="10.39103100688543"><ele>627.1666666666666</ele><time>2026-04-04T12:55:25Z</time></trkpt><trkpt lat="45.57545657787134" lon="10.39108570087519"><ele>627.3333333333334</ele><time>2026-04-04T12:55:26Z</time></trkpt><trkpt lat="45.575404033144686" lon="10.391138069893808"><ele>627.5</ele><time>2026-04-04T12:55:27Z</time></trkpt><trkpt lat="45.57536069464289" lon="10.39120632618469"><ele>627.6666666666667</ele><time>2026-04-04T12:55:28Z</time></trkpt><trkpt lat="45.57528370425794" lon="10.391279507871257"><ele>627.8333333333334</ele><time>2026-04-04T12:55:30Z</time></trkpt><trkpt lat="45.57521636488865" lon="10.391240446107457"><ele>628.0</ele><time>2026-04-04T12:55:33Z</time></trkpt><trkpt lat="45.57514417626095" lon="10.39111320624579"><ele>623.6</ele><time>2026-04-04T12:55:36Z</time></trkpt><trkpt lat="45.57510015411006" lon="10.39100383534062"><ele>619.1999999999999</ele><time>2026-04-04T12:55:38Z</time></trkpt><trkpt lat="45.575065013546606" lon="10.39088589114664"><ele>614.8</ele><time>2026-04-04T12:55:40Z</time></trkpt><trkpt lat="45.57503104607008" lon="10.390723743311517"><ele>610.4</ele><time>2026-04-04T12:55:42Z</time></trkpt><trkpt lat="45.57498497735338" lon="10.390618551124577"><ele>606.0</ele><time>2026-04-04T12:55:43Z</time></trkpt><trkpt lat="45.57494129675227" lon="10.3905283521168"><ele>606.0</ele><time>2026-04-04T12:55:44Z</time></trkpt><trkpt lat="45.57488914990368" lon="10.390412644866991"><ele>606.0</ele><time>2026-04-04T12:55:46Z</time></trkpt><trkpt lat="45.574843729947354" lon="10.390339898198265"><ele>606.0</ele><time>2026-04-04T12:55:48Z</time></trkpt><trkpt lat="45.57478021310323" lon="10.390296089301023"><ele>606.0</ele><time>2026-04-04T12:55:50Z</time></trkpt><trkpt lat="45.574719560837785" lon="10.390390107036934"><ele>606.0</ele><time>2026-04-04T12:55:53Z</time></trkpt><trkpt lat="45.57468277915826" lon="10.39047605531892"><ele>606.0</ele><time>2026-04-04T12:55:55Z</time></trkpt><trkpt lat="45.57460908126902" lon="10.390569560816305"><ele>606.0</ele><time>2026-04-04T12:55:57Z</time></trkpt><trkpt lat="45.574566714592336" lon="10.390669144308161"><ele>606.0</ele><time>2026-04-04T12:55:59Z</time></trkpt><trkpt lat="45.5745224955539" lon="10.390834242913863"><ele>606.0</ele><time>2026-04-04T12:56:01Z</time></trkpt><trkpt lat="45.574509153869236" lon="10.39094010707448"><ele>606.0</ele><time>2026-04-04T12:56:03Z</time></trkpt><trkpt lat="45.57448898580984" lon="10.391057693770206"><ele>606.0</ele><time>2026-04-04T12:56:05Z</time></trkpt><trkpt lat="45.574489385901984" lon="10.391213885317317"><ele>605.8</ele><time>2026-04-04T12:56:07Z</time></trkpt><trkpt lat="45.57445918830821" lon="10.391377281913371"><ele>605.6</ele><time>2026-04-04T12:56:09Z</time></trkpt><trkpt lat="45.57448168805385" lon="10.391511958496157"><ele>605.4</ele><time>2026-04-04T12:56:12Z</time></trkpt><trkpt lat="45.57448259808366" lon="10.391606101788238"><ele>605.2</ele><time>2026-04-04T12:56:13Z</time></trkpt><trkpt lat="45.57452095983713" lon="10.391757727982823"><ele>605.0</ele><time>2026-04-04T12:56:14Z</time></trkpt><trkpt lat="45.57453110127059" lon="10.391901232569603"><ele>600.5</ele><time>2026-04-04T12:56:15Z</time></trkpt><trkpt lat="45.574508823440794" lon="10.392004208826641"><ele>596.0</ele><time>2026-04-04T12:56:17Z</time></trkpt><trkpt lat="45.57447038456677" lon="10.39211487748611"><ele>591.5</ele><time>2026-04-04T12:56:19Z</time></trkpt><trkpt lat="45.57443966548464" lon="10.392209085106474"><ele>587.0</ele><time>2026-04-04T12:56:19.999Z</time></trkpt><trkpt lat="45.57441264556959" lon="10.392311810785147"><ele>582.5</ele><time>2026-04-04T12:56:20.999Z</time></trkpt><trkpt lat="45.57435972699838" lon="10.39241055226183"><ele>578.0</ele><time>2026-04-04T12:56:21.999Z</time></trkpt><trkpt lat="45.574305062760246" lon="10.392484562013268"><ele>577.8</ele><time>2026-04-04T12:56:22.999Z</time></trkpt><trkpt lat="45.57426158286392" lon="10.39256231627559"><ele>577.5999999999999</ele><time>2026-04-04T12:56:24.999Z</time></trkpt><trkpt lat="45.57420835919011" lon="10.392690145475637"><ele>577.4000000000001</ele><time>2026-04-04T12:56:26.999Z</time></trkpt><trkpt lat="45.57414719571849" lon="10.39281609238234"><ele>577.2</ele><time>2026-04-04T12:56:28.999Z</time></trkpt><trkpt lat="45.57415070679297" lon="10.392906054305744"><ele>577.0</ele><time>2026-04-04T12:56:30.999Z</time></trkpt><trkpt lat="45.574164994395915" lon="10.393098391306514"><ele>576.8333333333334</ele><time>2026-04-04T12:56:31.999Z</time></trkpt><trkpt lat="45.57417679257845" lon="10.39325660269699"><ele>576.6666666666667</ele><time>2026-04-04T12:56:33.999Z</time></trkpt><trkpt lat="45.57416596359445" lon="10.393347721419659"><ele>576.5</ele><time>2026-04-04T12:56:34.999Z</time></trkpt><trkpt lat="45.57413966873458" lon="10.3934317775248"><ele>576.3333333333334</ele><time>2026-04-04T12:56:35.999Z</time></trkpt><trkpt lat="45.57410075005951" lon="10.393527245943593"><ele>576.1666666666666</ele><time>2026-04-04T12:56:36.999Z</time></trkpt><trkpt lat="45.574055258603" lon="10.393614522140602"><ele>576.0</ele><time>2026-04-04T12:56:37.999Z</time></trkpt><trkpt lat="45.57399742783605" lon="10.393698220556944"><ele>574.6</ele><time>2026-04-04T12:56:38.999Z</time></trkpt><trkpt lat="45.5739800063148" lon="10.39386318611833"><ele>573.2</ele><time>2026-04-04T12:56:40.999Z</time></trkpt><trkpt lat="45.5740032898616" lon="10.394006955437316"><ele>571.8</ele><time>2026-04-04T12:56:41.999Z</time></trkpt><trkpt lat="45.57400253080554" lon="10.394104423191031"><ele>570.4</ele><time>2026-04-04T12:56:42.999Z</time></trkpt><trkpt lat="45.57404047940382" lon="10.394272440704022"><ele>569.0</ele><time>2026-04-04T12:56:44.999Z</time></trkpt><trkpt lat="45.57400700868218" lon="10.394435669541197"><ele>569.0000000000001</ele><time>2026-04-04T12:56:46.999Z</time></trkpt><trkpt lat="45.57397659346047" lon="10.394536130584102"><ele>569.0</ele><time>2026-04-04T12:56:48.999Z</time></trkpt><trkpt lat="45.574016833151155" lon="10.394629196535416"><ele>569.0</ele><time>2026-04-04T12:56:51.999Z</time></trkpt><trkpt lat="45.574061338917176" lon="10.394707447251882"><ele>569.0</ele><time>2026-04-04T12:56:54.999Z</time></trkpt><trkpt lat="45.574104884358846" lon="10.394774805217718"><ele>569.0</ele><time>2026-04-04T12:57:23Z</time></trkpt><trkpt lat="45.57416149295398" lon="10.394842600121125"><ele>569.0000000000001</ele><time>2026-04-04T12:57:25Z</time></trkpt><trkpt lat="45.574244015740206" lon="10.394860426886638"><ele>569.0</ele><time>2026-04-04T12:57:27Z</time></trkpt><trkpt lat="45.57434334001135" lon="10.394939124951053"><ele>567.8333333333333</ele><time>2026-04-04T12:57:29Z</time></trkpt><trkpt lat="45.57440827340572" lon="10.395079233351815"><ele>566.6666666666666</ele><time>2026-04-04T12:57:31Z</time></trkpt><trkpt lat="45.57445342956071" lon="10.395169990012496"><ele>565.5</ele><time>2026-04-04T12:57:32Z</time></trkpt><trkpt lat="45.57450078235553" lon="10.395248364211707"><ele>564.3333333333334</ele><time>2026-04-04T12:57:33Z</time></trkpt><trkpt lat="45.574555083856296" lon="10.395339791283458"><ele>563.1666666666667</ele><time>2026-04-04T12:57:34Z</time></trkpt><trkpt lat="45.574604492169904" lon="10.395425702295741"><ele>562.0</ele><time>2026-04-04T12:57:35Z</time></trkpt><trkpt lat="45.574643163865005" lon="10.39552263518492"><ele>565.0</ele><time>2026-04-04T12:57:36Z</time></trkpt><trkpt lat="45.574677528676006" lon="10.395606244850402"><ele>568.0</ele><time>2026-04-04T12:57:37Z</time></trkpt><trkpt lat="45.57470968819118" lon="10.395692199791092"><ele>571.0</ele><time>2026-04-04T12:57:38Z</time></trkpt><trkpt lat="45.57476107089524" lon="10.395850500701053"><ele>574.0</ele><time>2026-04-04T12:57:40Z</time></trkpt><trkpt lat="45.57477263486156" lon="10.395977001004988"><ele>577.0</ele><time>2026-04-04T12:57:41Z</time></trkpt><trkpt lat="45.57479142162519" lon="10.396120066430338"><ele>580.0</ele><time>2026-04-04T12:57:42Z</time></trkpt><trkpt lat="45.574824513284725" lon="10.396259853335003"><ele>580.0</ele><time>2026-04-04T12:57:43Z</time></trkpt><trkpt lat="45.574860825500714" lon="10.39637704989968"><ele>580.0</ele><time>2026-04-04T12:57:44Z</time></trkpt><trkpt lat="45.57487399635045" lon="10.396512777564352"><ele>580.0</ele><time>2026-04-04T12:57:45Z</time></trkpt><trkpt lat="45.57488089927773" lon="10.396663124302071"><ele>580.0</ele><time>2026-04-04T12:57:46Z</time></trkpt><trkpt lat="45.574890595183795" lon="10.396814263937742"><ele>580.0</ele><time>2026-04-04T12:57:47Z</time></trkpt><trkpt lat="45.574901581470726" lon="10.396961002443394"><ele>580.0</ele><time>2026-04-04T12:57:48Z</time></trkpt><trkpt lat="45.57491774573398" lon="10.397103181922128"><ele>580.0</ele><time>2026-04-04T12:57:49Z</time></trkpt><trkpt lat="45.57495071170428" lon="10.397237416676408"><ele>580.0</ele><time>2026-04-04T12:57:50Z</time></trkpt><trkpt lat="45.574982483823206" lon="10.397349630531368"><ele>580.0</ele><time>2026-04-04T12:57:51Z</time></trkpt><trkpt lat="45.57505722167349" lon="10.397466923301902"><ele>580.0</ele><time>2026-04-04T12:57:53Z</time></trkpt><trkpt lat="45.5751833850659" lon="10.397487785912862"><ele>580.0</ele><time>2026-04-04T12:57:55Z</time></trkpt><trkpt lat="45.57525055793196" lon="10.397498959153646"><ele>580.0</ele><time>2026-04-04T12:57:56Z</time></trkpt><trkpt lat="45.575343512833086" lon="10.397498478382998"><ele>580.0</ele><time>2026-04-04T12:57:57Z</time></trkpt><trkpt lat="45.575416227451065" lon="10.397498884984957"><ele>580.0</ele><time>2026-04-04T12:57:58Z</time></trkpt><trkpt lat="45.57550671630471" lon="10.397490645199468"><ele>580.0</ele><time>2026-04-04T12:57:59Z</time></trkpt><trkpt lat="45.575590428140934" lon="10.397497694210562"><ele>580.0</ele><time>2026-04-04T12:58:00Z</time></trkpt><trkpt lat="45.57566737453056" lon="10.397444283879842"><ele>581.5</ele><time>2026-04-04T12:58:01Z</time></trkpt><trkpt lat="45.575731510842445" lon="10.397467812817872"><ele>583.0</ele><time>2026-04-04T12:58:02Z</time></trkpt><trkpt lat="45.57578503619029" lon="10.397535609553028"><ele>584.5</ele><time>2026-04-04T12:58:03Z</time></trkpt><trkpt lat="45.57584653396091" lon="10.397627721698889"><ele>586.0</ele><time>2026-04-04T12:58:04Z</time></trkpt><trkpt lat="45.57587429257955" lon="10.397715801879201"><ele>587.5</ele><time>2026-04-04T12:58:05Z</time></trkpt><trkpt lat="45.57589794692863" lon="10.397814703931648"><ele>589.0</ele><time>2026-04-04T12:58:06Z</time></trkpt><trkpt lat="45.575887517273415" lon="10.397959377010013"><ele>589.0</ele><time>2026-04-04T12:58:08Z</time></trkpt><trkpt lat="45.5759017216307" lon="10.39807017013989"><ele>589.0</ele><time>2026-04-04T12:58:09Z</time></trkpt><trkpt lat="45.57586986418093" lon="10.398181692226197"><ele>589.0</ele><time>2026-04-04T12:58:10Z</time></trkpt><trkpt lat="45.57586559803759" lon="10.39832401550549"><ele>589.0</ele><time>2026-04-04T12:58:11Z</time></trkpt><trkpt lat="45.5758850110491" lon="10.398480369459678"><ele>589.0</ele><time>2026-04-04T12:58:12Z</time></trkpt><trkpt lat="45.57590133811922" lon="10.398650237558225"><ele>589.0</ele><time>2026-04-04T12:58:13Z</time></trkpt><trkpt lat="45.57592787309869" lon="10.398787641795066"><ele>589.0</ele><time>2026-04-04T12:58:14Z</time></trkpt><trkpt lat="45.5759845645691" lon="10.398885567939818"><ele>589.0</ele><time>2026-04-04T12:58:15Z</time></trkpt><trkpt lat="45.57603569531045" lon="10.398939204319417"><ele>589.0</ele><time>2026-04-04T12:58:16Z</time></trkpt><trkpt lat="45.57606487996781" lon="10.399094189838044"><ele>589.0</ele><time>2026-04-04T12:58:18Z</time></trkpt><trkpt lat="45.576044850735585" lon="10.399227653852128"><ele>589.0</ele><time>2026-04-04T12:58:19Z</time></trkpt><trkpt lat="45.57602808568173" lon="10.399366499325076"><ele>589.0</ele><time>2026-04-04T12:58:20Z</time></trkpt><trkpt lat="45.576027575033095" lon="10.399499805245405"><ele>589.0</ele><time>2026-04-04T12:58:21Z</time></trkpt><trkpt lat="45.57604441852125" lon="10.399627530253737"><ele>589.0</ele><time>2026-04-04T12:58:22Z</time></trkpt><trkpt lat="45.57605455810081" lon="10.399757449606467"><ele>589.0</ele><time>2026-04-04T12:58:22.999Z</time></trkpt><trkpt lat="45.57605364141255" lon="10.399874020232676"><ele>589.8333333333334</ele><time>2026-04-04T12:58:23.999Z</time></trkpt><trkpt lat="45.57606650885149" lon="10.399976348145161"><ele>590.6666666666667</ele><time>2026-04-04T12:58:24.999Z</time></trkpt><trkpt lat="45.57609623814643" lon="10.400085207015207"><ele>591.5</ele><time>2026-04-04T12:58:25.999Z</time></trkpt><trkpt lat="45.57612069960813" lon="10.400211403242478"><ele>592.3333333333334</ele><time>2026-04-04T12:58:26.999Z</time></trkpt><trkpt lat="45.576120457112985" lon="10.400340037425165"><ele>593.1666666666666</ele><time>2026-04-04T12:58:27.999Z</time></trkpt><trkpt lat="45.576097318982185" lon="10.40043331507346"><ele>594.0</ele><time>2026-04-04T12:58:28.999Z</time></trkpt><trkpt lat="45.57608039700748" lon="10.400546142802229"><ele>594.8333333333334</ele><time>2026-04-04T12:58:29.999Z</time></trkpt><trkpt lat="45.57608569599703" lon="10.400698536338671"><ele>595.6666666666666</ele><time>2026-04-04T12:58:31.999Z</time></trkpt><trkpt lat="45.576096811407965" lon="10.400787396867013"><ele>596.5</ele><time>2026-04-04T12:58:32.999Z</time></trkpt><trkpt lat="45.576112474546775" lon="10.400908687279909"><ele>597.3333333333333</ele><time>2026-04-04T12:58:33.999Z</time></trkpt><trkpt lat="45.57609872893776" lon="10.40100521728562"><ele>598.1666666666666</ele><time>2026-04-04T12:58:34.999Z</time></trkpt><trkpt lat="45.576081922297554" lon="10.401108898121795"><ele>599.0</ele><time>2026-04-04T12:58:35.999Z</time></trkpt><trkpt lat="45.57607896524185" lon="10.401227261759203"><ele>600.0</ele><time>2026-04-04T12:58:36.999Z</time></trkpt><trkpt lat="45.57610815132651" lon="10.401349869136885"><ele>601.0</ele><time>2026-04-04T12:58:37.999Z</time></trkpt><trkpt lat="45.576142522021314" lon="10.401465174173474"><ele>602.0</ele><time>2026-04-04T12:58:38.999Z</time></trkpt><trkpt lat="45.57616448721341" lon="10.401586475834444"><ele>603.0</ele><time>2026-04-04T12:58:39.999Z</time></trkpt><trkpt lat="45.57617872033855" lon="10.401764806570707"><ele>604.0</ele><time>2026-04-04T12:58:40.999Z</time></trkpt><trkpt lat="45.57618327051896" lon="10.401926388184856"><ele>607.6666666666667</ele><time>2026-04-04T12:58:41.999Z</time></trkpt><trkpt lat="45.57619580238027" lon="10.402034525246409"><ele>611.3333333333334</ele><time>2026-04-04T12:58:42.999Z</time></trkpt><trkpt lat="45.57621879699133" lon="10.402124269363938"><ele>615.0</ele><time>2026-04-04T12:58:43.999Z</time></trkpt><trkpt lat="45.576247378147926" lon="10.402270132575845"><ele>618.6666666666666</ele><time>2026-04-04T12:58:45.999Z</time></trkpt><trkpt lat="45.57625330995374" lon="10.402390897796545"><ele>622.3333333333333</ele><time>2026-04-04T12:58:48.999Z</time></trkpt><trkpt lat="45.57628673205182" lon="10.40251101946452"><ele>626.0</ele><time>2026-04-04T12:58:50.999Z</time></trkpt><trkpt lat="45.57633600168915" lon="10.402599004221782"><ele>626.0</ele><time>2026-04-04T12:59:21.999Z</time></trkpt><trkpt lat="45.57638654224177" lon="10.402664046614248"><ele>626.0</ele><time>2026-04-04T12:59:23.999Z</time></trkpt><trkpt lat="45.57646533985044" lon="10.402711126556161"><ele>626.0</ele><time>2026-04-04T12:59:25.999Z</time></trkpt><trkpt lat="45.57653427114504" lon="10.402722696898"><ele>626.0</ele><time>2026-04-04T12:59:27Z</time></trkpt><trkpt lat="45.57661498271577" lon="10.40273097803396"><ele>626.0</ele><time>2026-04-04T12:59:28Z</time></trkpt><trkpt lat="45.57671011424307" lon="10.402741428736785"><ele>626.0</ele><time>2026-04-04T12:59:29Z</time></trkpt><trkpt lat="45.576791047942834" lon="10.402785328058211"><ele>626.0</ele><time>2026-04-04T12:59:30Z</time></trkpt><trkpt lat="45.576846754519586" lon="10.402857050272711"><ele>626.0</ele><time>2026-04-04T12:59:31Z</time></trkpt><trkpt lat="45.57694272353432" lon="10.403045026107069"><ele>626.0</ele><time>2026-04-04T12:59:33Z</time></trkpt><trkpt lat="45.576973119083675" lon="10.403156064241987"><ele>626.0</ele><time>2026-04-04T12:59:34Z</time></trkpt><trkpt lat="45.576981283545585" lon="10.40325937437176"><ele>626.0</ele><time>2026-04-04T12:59:35Z</time></trkpt><trkpt lat="45.57704019727228" lon="10.403408309332669"><ele>626.4</ele><time>2026-04-04T12:59:37Z</time></trkpt><trkpt lat="45.57707864861692" lon="10.403495466264244"><ele>626.8</ele><time>2026-04-04T12:59:38Z</time></trkpt><trkpt lat="45.57708059259775" lon="10.403607144015796"><ele>627.1999999999999</ele><time>2026-04-04T12:59:39Z</time></trkpt><trkpt lat="45.57707416057762" lon="10.40372492191408"><ele>627.6</ele><time>2026-04-04T12:59:40Z</time></trkpt><trkpt lat="45.577051105755125" lon="10.40383417032175"><ele>628.0</ele><time>2026-04-04T12:59:41Z</time></trkpt><trkpt lat="45.5770602637086" lon="10.404044401942027"><ele>628.0</ele><time>2026-04-04T12:59:43Z</time></trkpt><trkpt lat="45.57707237080717" lon="10.404143027040913"><ele>628.0</ele><time>2026-04-04T12:59:44Z</time></trkpt><trkpt lat="45.57701028189103" lon="10.40424428808284"><ele>628.0</ele><time>2026-04-04T12:59:46Z</time></trkpt><trkpt lat="45.576956786310745" lon="10.40431313806568"><ele>628.0</ele><time>2026-04-04T12:59:47Z</time></trkpt><trkpt lat="45.576909771506514" lon="10.40439338927303"><ele>628.0</ele><time>2026-04-04T12:59:48Z</time></trkpt><trkpt lat="45.57690916518457" lon="10.404566883108256"><ele>628.0</ele><time>2026-04-04T12:59:50Z</time></trkpt><trkpt lat="45.57691096283106" lon="10.404696840226718"><ele>627.0</ele><time>2026-04-04T12:59:51Z</time></trkpt><trkpt lat="45.57691597156753" lon="10.404821671301718"><ele>626.0</ele><time>2026-04-04T12:59:52Z</time></trkpt><trkpt lat="45.576981214228695" lon="10.405004849025072"><ele>625.0</ele><time>2026-04-04T12:59:54Z</time></trkpt><trkpt lat="45.57702854745466" lon="10.40510469992636"><ele>624.0</ele><time>2026-04-04T12:59:55Z</time></trkpt><trkpt lat="45.57707543722318" lon="10.40518324855018"><ele>623.0</ele><time>2026-04-04T12:59:56Z</time></trkpt><trkpt lat="45.577125781699785" lon="10.405277291683221"><ele>623.0</ele><time>2026-04-04T12:59:58Z</time></trkpt><trkpt lat="45.57718341713412" lon="10.405449028665593"><ele>623.0</ele><time>2026-04-04T13:00:00Z</time></trkpt><trkpt lat="45.577292600118824" lon="10.405570433430668"><ele>623.0</ele><time>2026-04-04T13:00:02Z</time></trkpt><trkpt lat="45.577356936738724" lon="10.405636262362396"><ele>623.0</ele><time>2026-04-04T13:00:03Z</time></trkpt><trkpt lat="45.57742218840535" lon="10.40569653765279"><ele>623.0</ele><time>2026-04-04T13:00:04Z</time></trkpt><trkpt lat="45.577470475861986" lon="10.405758602337526"><ele>619.8</ele><time>2026-04-04T13:00:06Z</time></trkpt><trkpt lat="45.57754170905318" lon="10.405856545578942"><ele>616.5999999999999</ele><time>2026-04-04T13:00:09Z</time></trkpt><trkpt lat="45.57763543402693" lon="10.405890038601076"><ele>613.4000000000001</ele><time>2026-04-04T13:00:12Z</time></trkpt><trkpt lat="45.57771877964276" lon="10.405950386906222"><ele>610.2</ele><time>2026-04-04T13:00:14Z</time></trkpt><trkpt lat="45.577821293613184" lon="10.406035894737547"><ele>607.0</ele><time>2026-04-04T13:00:16Z</time></trkpt><trkpt lat="45.577903888949734" lon="10.406094940133032"><ele>607.0</ele><time>2026-04-04T13:00:18Z</time></trkpt><trkpt lat="45.57790729817479" lon="10.40620004726985"><ele>607.0</ele><time>2026-04-04T13:00:20Z</time></trkpt><trkpt lat="45.57793130930521" lon="10.406292637945576"><ele>607.0</ele><time>2026-04-04T13:00:23Z</time></trkpt><trkpt lat="45.5780270392662" lon="10.406346771701665"><ele>607.0</ele><time>2026-04-04T13:00:25Z</time></trkpt><trkpt lat="45.578089223795075" lon="10.406367642821154"><ele>607.0</ele><time>2026-04-04T13:00:26Z</time></trkpt><trkpt lat="45.57816531203141" lon="10.406427008405798"><ele>607.0</ele><time>2026-04-04T13:00:28Z</time></trkpt><trkpt lat="45.57822873243419" lon="10.406519906037747"><ele>603.6</ele><time>2026-04-04T13:00:30Z</time></trkpt><trkpt lat="45.57829768984304" lon="10.406633907027445"><ele>600.2</ele><time>2026-04-04T13:00:32Z</time></trkpt><trkpt lat="45.578367467863266" lon="10.406701397990124"><ele>596.8</ele><time>2026-04-04T13:00:34Z</time></trkpt><trkpt lat="45.578473377725004" lon="10.406614968380449"><ele>593.4</ele><time>2026-04-04T13:00:36.999Z</time></trkpt><trkpt lat="45.57856780824926" lon="10.406635333732584"><ele>590.0</ele><time>2026-04-04T13:00:38.999Z</time></trkpt><trkpt lat="45.57865772074088" lon="10.406588068824611"><ele>588.8333333333333</ele><time>2026-04-04T13:00:41.999Z</time></trkpt><trkpt lat="45.57879688867594" lon="10.406695710507865"><ele>587.6666666666666</ele><time>2026-04-04T13:00:42.999Z</time></trkpt><trkpt lat="45.578845602642176" lon="10.406753113695578"><ele>586.5</ele><time>2026-04-04T13:00:46.999Z</time></trkpt><trkpt lat="45.57891058972475" lon="10.406804404906694"><ele>585.3333333333334</ele><time>2026-04-04T13:00:51.999Z</time></trkpt><trkpt lat="45.57896937607012" lon="10.40683871503815"><ele>584.1666666666667</ele><time>2026-04-04T13:00:55.999Z</time></trkpt><trkpt lat="45.579022003054945" lon="10.406915230027442"><ele>583.0</ele><time>2026-04-04T13:00:59.999Z</time></trkpt><trkpt lat="45.5790545670402" lon="10.407010348416984"><ele>583.0</ele><time>2026-04-04T13:01:02.999Z</time></trkpt><trkpt lat="45.57906423996119" lon="10.407119937777448"><ele>583.0</ele><time>2026-04-04T13:01:05.999Z</time></trkpt><trkpt lat="45.579031622879526" lon="10.407219367625702"><ele>583.0</ele><time>2026-04-04T13:01:08.999Z</time></trkpt><trkpt lat="45.57914166612311" lon="10.407202079635836"><ele>583.0</ele><time>2026-04-04T13:01:37Z</time></trkpt><trkpt lat="45.57923600656808" lon="10.407115003879284"><ele>583.0</ele><time>2026-04-04T13:01:39Z</time></trkpt><trkpt lat="45.57928231584113" lon="10.407048531335017"><ele>583.0</ele><time>2026-04-04T13:01:40Z</time></trkpt><trkpt lat="45.57937365836294" lon="10.406947640704045"><ele>583.0</ele><time>2026-04-04T13:01:42Z</time></trkpt><trkpt lat="45.57947190045917" lon="10.406846889901729"><ele>583.0</ele><time>2026-04-04T13:01:44Z</time></trkpt><trkpt lat="45.57952243509788" lon="10.406790299900209"><ele>583.0</ele><time>2026-04-04T13:01:45Z</time></trkpt><trkpt lat="45.57957128103738" lon="10.406726012057245"><ele>583.0</ele><time>2026-04-04T13:01:46Z</time></trkpt><trkpt lat="45.57963335185162" lon="10.406662331400378"><ele>583.0</ele><time>2026-04-04T13:01:47Z</time></trkpt><trkpt lat="45.579681500140715" lon="10.406592046634179"><ele>583.0</ele><time>2026-04-04T13:01:48Z</time></trkpt><trkpt lat="45.57974675333321" lon="10.406524082834483"><ele>583.0</ele><time>2026-04-04T13:01:49Z</time></trkpt><trkpt lat="45.57981851902236" lon="10.406454512071626"><ele>583.0</ele><time>2026-04-04T13:01:50Z</time></trkpt><trkpt lat="45.579882827944346" lon="10.406384347964394"><ele>583.0</ele><time>2026-04-04T13:01:51Z</time></trkpt><trkpt lat="45.57993213677269" lon="10.40631708402528"><ele>583.0</ele><time>2026-04-04T13:01:52Z</time></trkpt><trkpt lat="45.57999917110461" lon="10.406262451059305"><ele>583.0</ele><time>2026-04-04T13:01:53Z</time></trkpt><trkpt lat="45.580112952601226" lon="10.40619846839249"><ele>583.0</ele><time>2026-04-04T13:01:55Z</time></trkpt><trkpt lat="45.580186488483704" lon="10.40622102706898"><ele>583.0</ele><time>2026-04-04T13:01:56Z</time></trkpt><trkpt lat="45.58026328469611" lon="10.406242854941459"><ele>583.0</ele><time>2026-04-04T13:01:57Z</time></trkpt><trkpt lat="45.58032791414007" lon="10.4062646259721"><ele>583.0</ele><time>2026-04-04T13:01:58Z</time></trkpt><trkpt lat="45.58038864498189" lon="10.406301733624975"><ele>583.0</ele><time>2026-04-04T13:01:59Z</time></trkpt><trkpt lat="45.580447619792636" lon="10.406441232308048"><ele>583.0</ele><time>2026-04-04T13:02:01Z</time></trkpt><trkpt lat="45.58047592663238" lon="10.406530745399422"><ele>583.0</ele><time>2026-04-04T13:02:02Z</time></trkpt><trkpt lat="45.58048916699007" lon="10.406620433497077"><ele>582.8</ele><time>2026-04-04T13:02:03Z</time></trkpt><trkpt lat="45.580512695170675" lon="10.406791015340024"><ele>582.5999999999999</ele><time>2026-04-04T13:02:05Z</time></trkpt><trkpt lat="45.580501270569265" lon="10.406902941137256"><ele>582.4000000000001</ele><time>2026-04-04T13:02:06Z</time></trkpt><trkpt lat="45.580478846453595" lon="10.407041962244609"><ele>582.2</ele><time>2026-04-04T13:02:07Z</time></trkpt><trkpt lat="45.58048105034834" lon="10.407189079000693"><ele>582.0</ele><time>2026-04-04T13:02:08Z</time></trkpt><trkpt lat="45.580502586105155" lon="10.40734006155092"><ele>582.6</ele><time>2026-04-04T13:02:09Z</time></trkpt><trkpt lat="45.580534467135884" lon="10.407497556278448"><ele>583.2</ele><time>2026-04-04T13:02:10Z</time></trkpt><trkpt lat="45.580545170386905" lon="10.407648912082072"><ele>583.8</ele><time>2026-04-04T13:02:11Z</time></trkpt><trkpt lat="45.58054384951095" lon="10.407786193584494"><ele>584.4</ele><time>2026-04-04T13:02:12Z</time></trkpt><trkpt lat="45.58056624848999" lon="10.407927584435068"><ele>585.0</ele><time>2026-04-04T13:02:13Z</time></trkpt><trkpt lat="45.580601726238584" lon="10.408051124021936"><ele>585.2</ele><time>2026-04-04T13:02:14Z</time></trkpt><trkpt lat="45.58063400228642" lon="10.408188285199927"><ele>585.4</ele><time>2026-04-04T13:02:15Z</time></trkpt><trkpt lat="45.58065964494955" lon="10.408318892587157"><ele>585.6</ele><time>2026-04-04T13:02:16Z</time></trkpt><trkpt lat="45.58068739876159" lon="10.408428096913116"><ele>585.8</ele><time>2026-04-04T13:02:17Z</time></trkpt><trkpt lat="45.58071564763601" lon="10.408556580407534"><ele>586.0</ele><time>2026-04-04T13:02:18Z</time></trkpt><trkpt lat="45.58072444839018" lon="10.408670429792553"><ele>586.0</ele><time>2026-04-04T13:02:19Z</time></trkpt><trkpt lat="45.58071612566425" lon="10.408785119668932"><ele>586.0</ele><time>2026-04-04T13:02:20Z</time></trkpt><trkpt lat="45.58071712679954" lon="10.408917404161238"><ele>586.0</ele><time>2026-04-04T13:02:21Z</time></trkpt><trkpt lat="45.580725481101865" lon="10.40904916664815"><ele>586.0</ele><time>2026-04-04T13:02:22Z</time></trkpt><trkpt lat="45.580730821211894" lon="10.40918977509158"><ele>586.0</ele><time>2026-04-04T13:02:23Z</time></trkpt><trkpt lat="45.5807386659061" lon="10.409317544014703"><ele>585.2</ele><time>2026-04-04T13:02:24Z</time></trkpt><trkpt lat="45.580759597451845" lon="10.409446331677145"><ele>584.4000000000001</ele><time>2026-04-04T13:02:25Z</time></trkpt><trkpt lat="45.58079686341118" lon="10.409577251071676"><ele>583.6</ele><time>2026-04-04T13:02:26Z</time></trkpt><trkpt lat="45.580838274760396" lon="10.409711713739489"><ele>582.8000000000001</ele><time>2026-04-04T13:02:27Z</time></trkpt><trkpt lat="45.580875880842115" lon="10.409849763957125"><ele>582.0</ele><time>2026-04-04T13:02:28Z</time></trkpt><trkpt lat="45.580912744287126" lon="10.409988942875009"><ele>581.3333333333334</ele><time>2026-04-04T13:02:29Z</time></trkpt><trkpt lat="45.58095054780018" lon="10.410109841849469"><ele>580.6666666666666</ele><time>2026-04-04T13:02:30Z</time></trkpt><trkpt lat="45.580988160229026" lon="10.410219196635829"><ele>580.0</ele><time>2026-04-04T13:02:31Z</time></trkpt><trkpt lat="45.58103297724223" lon="10.410320716163437"><ele>579.3333333333333</ele><time>2026-04-04T13:02:32Z</time></trkpt><trkpt lat="45.5810706109233" lon="10.410436896304367"><ele>578.6666666666666</ele><time>2026-04-04T13:02:33Z</time></trkpt><trkpt lat="45.58111205536194" lon="10.410529329708675"><ele>578.0</ele><time>2026-04-04T13:02:34Z</time></trkpt><trkpt lat="45.581172367316114" lon="10.410616393401009"><ele>578.8</ele><time>2026-04-04T13:02:35Z</time></trkpt><trkpt lat="45.58124165053618" lon="10.410708961576637"><ele>579.5999999999999</ele><time>2026-04-04T13:02:36Z</time></trkpt><trkpt lat="45.58131274938615" lon="10.410790594320511"><ele>580.4000000000001</ele><time>2026-04-04T13:02:37Z</time></trkpt><trkpt lat="45.58139394301672" lon="10.410912921177625"><ele>581.2</ele><time>2026-04-04T13:02:39Z</time></trkpt><trkpt lat="45.5814286062216" lon="10.41100771572058"><ele>582.0</ele><time>2026-04-04T13:02:40Z</time></trkpt><trkpt lat="45.58148772993635" lon="10.411101981461632"><ele>582.0</ele><time>2026-04-04T13:02:41Z</time></trkpt><trkpt lat="45.58157209486295" lon="10.411168049223987"><ele>582.0</ele><time>2026-04-04T13:02:41.999Z</time></trkpt><trkpt lat="45.581669550042605" lon="10.41121720615018"><ele>582.0</ele><time>2026-04-04T13:02:42.999Z</time></trkpt><trkpt lat="45.58176935708315" lon="10.41125245516119"><ele>582.0</ele><time>2026-04-04T13:02:43.999Z</time></trkpt><trkpt lat="45.58187807487382" lon="10.411276091940987"><ele>582.0</ele><time>2026-04-04T13:02:44.999Z</time></trkpt><trkpt lat="45.581990054369335" lon="10.411284778113032"><ele>582.8000000000001</ele><time>2026-04-04T13:02:45.999Z</time></trkpt><trkpt lat="45.58209648408823" lon="10.4112739920305"><ele>583.6</ele><time>2026-04-04T13:02:46.999Z</time></trkpt><trkpt lat="45.582196434367184" lon="10.41124573900797"><ele>584.4000000000001</ele><time>2026-04-04T13:02:47.999Z</time></trkpt><trkpt lat="45.58228548236547" lon="10.411222435980541"><ele>585.2</ele><time>2026-04-04T13:02:48.999Z</time></trkpt><trkpt lat="45.582368987521946" lon="10.41122602165278"><ele>586.0</ele><time>2026-04-04T13:02:49.999Z</time></trkpt><trkpt lat="45.58243980495224" lon="10.41128935640957"><ele>583.4</ele><time>2026-04-04T13:02:50.999Z</time></trkpt><trkpt lat="45.582483651218475" lon="10.411398482539685"><ele>580.8</ele><time>2026-04-04T13:02:51.999Z</time></trkpt><trkpt lat="45.58249700863184" lon="10.41152209103033"><ele>578.1999999999999</ele><time>2026-04-04T13:02:52.999Z</time></trkpt><trkpt lat="45.58250394406747" lon="10.411659975081955"><ele>575.6</ele><time>2026-04-04T13:02:53.999Z</time></trkpt><trkpt lat="45.58252006618063" lon="10.41180496170474"><ele>573.0</ele><time>2026-04-04T13:02:54.999Z</time></trkpt><trkpt lat="45.58254529864652" lon="10.411937532526851"><ele>573.0</ele><time>2026-04-04T13:02:55.999Z</time></trkpt><trkpt lat="45.58257063581498" lon="10.412072662770855"><ele>573.0</ele><time>2026-04-04T13:02:56.999Z</time></trkpt><trkpt lat="45.582579927134205" lon="10.41220844048121"><ele>573.0</ele><time>2026-04-04T13:02:57.999Z</time></trkpt><trkpt lat="45.58252585627582" lon="10.412347030133665"><ele>573.0</ele><time>2026-04-04T13:02:58.999Z</time></trkpt><trkpt lat="45.58253953339552" lon="10.412505469887035"><ele>573.0</ele><time>2026-04-04T13:02:59.999Z</time></trkpt><trkpt lat="45.58254986901246" lon="10.412659616162607"><ele>569.5</ele><time>2026-04-04T13:03:00.999Z</time></trkpt><trkpt lat="45.58255808713415" lon="10.41283695644369"><ele>566.0</ele><time>2026-04-04T13:03:01.999Z</time></trkpt><trkpt lat="45.58257750193642" lon="10.413008138184626"><ele>562.5</ele><time>2026-04-04T13:03:02.999Z</time></trkpt><trkpt lat="45.582604645787505" lon="10.41318416586855"><ele>559.0</ele><time>2026-04-04T13:03:03.999Z</time></trkpt><trkpt lat="45.58263283139777" lon="10.413349481463813"><ele>555.75</ele><time>2026-04-04T13:03:04.999Z</time></trkpt><trkpt lat="45.58267281766946" lon="10.413525173444128"><ele>552.5</ele><time>2026-04-04T13:03:05.999Z</time></trkpt><trkpt lat="45.582736877844376" lon="10.41368618017934"><ele>549.25</ele><time>2026-04-04T13:03:06.999Z</time></trkpt><trkpt lat="45.58281757805099" lon="10.413823364791844"><ele>546.0</ele><time>2026-04-04T13:03:07.999Z</time></trkpt><trkpt lat="45.58290750950106" lon="10.413935538798928"><ele>545.5</ele><time>2026-04-04T13:03:08.999Z</time></trkpt><trkpt lat="45.58296800747112" lon="10.4140672556637"><ele>545.0</ele><time>2026-04-04T13:03:09.999Z</time></trkpt><trkpt lat="45.58305968253769" lon="10.41417596985382"><ele>544.5</ele><time>2026-04-04T13:03:10.999Z</time></trkpt><trkpt lat="45.5831701567364" lon="10.414242115690088"><ele>544.0</ele><time>2026-04-04T13:03:11.999Z</time></trkpt><trkpt lat="45.5832502568561" lon="10.414343616044436"><ele>544.0</ele><time>2026-04-04T13:03:12.999Z</time></trkpt><trkpt lat="45.58331852382335" lon="10.414451630862436"><ele>544.0</ele><time>2026-04-04T13:03:13.999Z</time></trkpt><trkpt lat="45.583399488211505" lon="10.41456135488954"><ele>544.0</ele><time>2026-04-04T13:03:14.999Z</time></trkpt><trkpt lat="45.58345975595737" lon="10.414690834324464"><ele>544.0</ele><time>2026-04-04T13:03:15.999Z</time></trkpt><trkpt lat="45.58351509569236" lon="10.414846647158893"><ele>544.0</ele><time>2026-04-04T13:03:16.999Z</time></trkpt><trkpt lat="45.583593408584974" lon="10.414996425082485"><ele>540.5</ele><time>2026-04-04T13:03:17.999Z</time></trkpt><trkpt lat="45.58365454957865" lon="10.415137909354154"><ele>537.0</ele><time>2026-04-04T13:03:18.999Z</time></trkpt><trkpt lat="45.58371057388866" lon="10.415268659299414"><ele>533.5</ele><time>2026-04-04T13:03:19.999Z</time></trkpt><trkpt lat="45.58382195104048" lon="10.41534359333333"><ele>530.0</ele><time>2026-04-04T13:03:20.999Z</time></trkpt><trkpt lat="45.58393026327692" lon="10.415408565890214"><ele>527.0</ele><time>2026-04-04T13:03:21.999Z</time></trkpt><trkpt lat="45.58402103158977" lon="10.415498484706534"><ele>524.0</ele><time>2026-04-04T13:03:22.999Z</time></trkpt><trkpt lat="45.58411641541686" lon="10.41557866519561"><ele>521.0</ele><time>2026-04-04T13:03:23.999Z</time></trkpt><trkpt lat="45.58420725330371" lon="10.415665023555311"><ele>518.0</ele><time>2026-04-04T13:03:24.999Z</time></trkpt><trkpt lat="45.5842811326822" lon="10.415765246110345"><ele>515.0</ele><time>2026-04-04T13:03:25.999Z</time></trkpt><trkpt lat="45.58435355660135" lon="10.415883657490859"><ele>515.0</ele><time>2026-04-04T13:03:26.999Z</time></trkpt><trkpt lat="45.58441501459405" lon="10.416015082080847"><ele>515.0</ele><time>2026-04-04T13:03:27.999Z</time></trkpt><trkpt lat="45.58447952387609" lon="10.41615493194536"><ele>515.0</ele><time>2026-04-04T13:03:28.999Z</time></trkpt><trkpt lat="45.58454435536417" lon="10.416292372211764"><ele>515.0</ele><time>2026-04-04T13:03:29.999Z</time></trkpt><trkpt lat="45.58461960312067" lon="10.41644396104405"><ele>513.0</ele><time>2026-04-04T13:03:30.999Z</time></trkpt><trkpt lat="45.58469530407704" lon="10.416602630646677"><ele>511.0</ele><time>2026-04-04T13:03:31.999Z</time></trkpt><trkpt lat="45.58477346344734" lon="10.416770884402034"><ele>509.0</ele><time>2026-04-04T13:03:32.999Z</time></trkpt><trkpt lat="45.58485337245953" lon="10.41694466605677"><ele>507.0</ele><time>2026-04-04T13:03:33.999Z</time></trkpt><trkpt lat="45.58493487092326" lon="10.417122133231805"><ele>506.5</ele><time>2026-04-04T13:03:34.999Z</time></trkpt><trkpt lat="45.585017731258745" lon="10.417302565898723"><ele>506.0</ele><time>2026-04-04T13:03:35.999Z</time></trkpt><trkpt lat="45.58509562793887" lon="10.417472189975822"><ele>505.5</ele><time>2026-04-04T13:03:36.999Z</time></trkpt><trkpt lat="45.585165396258695" lon="10.417620249662386"><ele>505.0</ele><time>2026-04-04T13:03:37.999Z</time></trkpt><trkpt lat="45.58524015967709" lon="10.41777403293507"><ele>505.0</ele><time>2026-04-04T13:03:39Z</time></trkpt><trkpt lat="45.58533025042402" lon="10.417908111097814"><ele>505.0</ele><time>2026-04-04T13:03:40Z</time></trkpt><trkpt lat="45.58541900189143" lon="10.418043191194444"><ele>505.0</ele><time>2026-04-04T13:03:41Z</time></trkpt><trkpt lat="45.58550763446883" lon="10.41818982201645"><ele>505.0</ele><time>2026-04-04T13:03:42Z</time></trkpt><trkpt lat="45.58561837254668" lon="10.41830245479708"><ele>505.0</ele><time>2026-04-04T13:03:43Z</time></trkpt><trkpt lat="45.58574246285298" lon="10.418391196599487"><ele>505.0</ele><time>2026-04-04T13:03:44Z</time></trkpt><trkpt lat="45.58588443180872" lon="10.41842449225623"><ele>505.0</ele><time>2026-04-04T13:03:45Z</time></trkpt><trkpt lat="45.58602295488324" lon="10.4185024614086"><ele>505.0</ele><time>2026-04-04T13:03:46Z</time></trkpt><trkpt lat="45.58616711040265" lon="10.418567525846516"><ele>503.0</ele><time>2026-04-04T13:03:47Z</time></trkpt><trkpt lat="45.586304716592636" lon="10.418640977515533"><ele>501.0</ele><time>2026-04-04T13:03:48Z</time></trkpt><trkpt lat="45.586438639925" lon="10.418701148016329"><ele>499.0</ele><time>2026-04-04T13:03:49Z</time></trkpt><trkpt lat="45.5865509314744" lon="10.418748611105766"><ele>497.0</ele><time>2026-04-04T13:03:50Z</time></trkpt><trkpt lat="45.586647794445085" lon="10.418764475359339"><ele>495.8</ele><time>2026-04-04T13:03:51Z</time></trkpt><trkpt lat="45.58671690546913" lon="10.418823397940596"><ele>494.6</ele><time>2026-04-04T13:03:52Z</time></trkpt><trkpt lat="45.58675984441287" lon="10.418921324745895"><ele>493.40000000000003</ele><time>2026-04-04T13:03:53Z</time></trkpt><trkpt lat="45.5867547774994" lon="10.419046440295606"><ele>492.20000000000005</ele><time>2026-04-04T13:03:54Z</time></trkpt><trkpt lat="45.58675443837177" lon="10.419185705639734"><ele>491.0</ele><time>2026-04-04T13:03:55Z</time></trkpt><trkpt lat="45.586740894606976" lon="10.419347089828005"><ele>491.0</ele><time>2026-04-04T13:03:56Z</time></trkpt><trkpt lat="45.58670544688877" lon="10.41951819246873"><ele>491.0</ele><time>2026-04-04T13:03:57Z</time></trkpt><trkpt lat="45.586670437656615" lon="10.419699243850078"><ele>491.0</ele><time>2026-04-04T13:03:58Z</time></trkpt><trkpt lat="45.58665162527171" lon="10.41989042123111"><ele>491.0</ele><time>2026-04-04T13:03:59Z</time></trkpt><trkpt lat="45.58665216234154" lon="10.420077920378988"><ele>489.6</ele><time>2026-04-04T13:04:00Z</time></trkpt><trkpt lat="45.58665412746019" lon="10.42025706288718"><ele>488.20000000000005</ele><time>2026-04-04T13:04:01Z</time></trkpt><trkpt lat="45.58664152712137" lon="10.420405980182448"><ele>486.79999999999995</ele><time>2026-04-04T13:04:02Z</time></trkpt><trkpt lat="45.58655795766211" lon="10.420487647806253"><ele>485.4</ele><time>2026-04-04T13:04:03Z</time></trkpt><trkpt lat="45.586479267658305" lon="10.420542995244396"><ele>484.0</ele><time>2026-04-04T13:04:04Z</time></trkpt><trkpt lat="45.5863831574185" lon="10.42059836840049"><ele>482.25</ele><time>2026-04-04T13:04:05Z</time></trkpt><trkpt lat="45.58627968539989" lon="10.420663508392721"><ele>480.5</ele><time>2026-04-04T13:04:06Z</time></trkpt><trkpt lat="45.586169418504845" lon="10.420734836581898"><ele>478.75</ele><time>2026-04-04T13:04:07Z</time></trkpt><trkpt lat="45.58603568631595" lon="10.420825516575523"><ele>477.0</ele><time>2026-04-04T13:04:08Z</time></trkpt><trkpt lat="45.585913479212856" lon="10.420924174258571"><ele>473.33333333333337</ele><time>2026-04-04T13:04:09Z</time></trkpt><trkpt lat="45.5857727380572" lon="10.420947666186372"><ele>469.6666666666667</ele><time>2026-04-04T13:04:10Z</time></trkpt><trkpt lat="45.58562813200313" lon="10.421011305080645"><ele>466.0</ele><time>2026-04-04T13:04:11Z</time></trkpt><trkpt lat="45.5854856787558" lon="10.421112051679867"><ele>466.0</ele><time>2026-04-04T13:04:12Z</time></trkpt><trkpt lat="45.58536004144527" lon="10.421239348550376"><ele>466.0</ele><time>2026-04-04T13:04:13Z</time></trkpt><trkpt lat="45.58521262421034" lon="10.42133421678861"><ele>466.0</ele><time>2026-04-04T13:04:14Z</time></trkpt><trkpt lat="45.58506807764837" lon="10.4214583560177"><ele>463.0</ele><time>2026-04-04T13:04:15Z</time></trkpt><trkpt lat="45.584936620700674" lon="10.421614677601559"><ele>460.0</ele><time>2026-04-04T13:04:16Z</time></trkpt><trkpt lat="45.58482978632823" lon="10.421747987843345"><ele>457.0</ele><time>2026-04-04T13:04:17Z</time></trkpt><trkpt lat="45.58475292645373" lon="10.421888865027805"><ele>454.0</ele><time>2026-04-04T13:04:18Z</time></trkpt><trkpt lat="45.58466584800584" lon="10.42197827638538"><ele>454.0</ele><time>2026-04-04T13:04:19Z</time></trkpt><trkpt lat="45.58458044326063" lon="10.422048968257416"><ele>454.0</ele><time>2026-04-04T13:04:20Z</time></trkpt><trkpt lat="45.58447523912796" lon="10.42206267444291"><ele>454.0</ele><time>2026-04-04T13:04:21Z</time></trkpt><trkpt lat="45.58434933269291" lon="10.422067927339027"><ele>454.0</ele><time>2026-04-04T13:04:22Z</time></trkpt><trkpt lat="45.584217486490864" lon="10.422033554506898"><ele>452.79999999999995</ele><time>2026-04-04T13:04:23Z</time></trkpt><trkpt lat="45.58410455546246" lon="10.421976081188138"><ele>451.59999999999997</ele><time>2026-04-04T13:04:24Z</time></trkpt><trkpt lat="45.58400463160005" lon="10.42193979266105"><ele>450.4</ele><time>2026-04-04T13:04:25Z</time></trkpt><trkpt lat="45.58392131811178" lon="10.421922077729208"><ele>449.2</ele><time>2026-04-04T13:04:26Z</time></trkpt><trkpt lat="45.583843997184346" lon="10.421931104683317"><ele>448.0</ele><time>2026-04-04T13:04:27Z</time></trkpt><trkpt lat="45.583785280181296" lon="10.422047314088791"><ele>448.00000000000006</ele><time>2026-04-04T13:04:28Z</time></trkpt><trkpt lat="45.58375184752569" lon="10.422151435015076"><ele>448.0</ele><time>2026-04-04T13:04:29Z</time></trkpt><trkpt lat="45.58370913636004" lon="10.422224295208341"><ele>448.0</ele><time>2026-04-04T13:04:30Z</time></trkpt><trkpt lat="45.58364840274457" lon="10.422313451862898"><ele>448.0</ele><time>2026-04-04T13:04:32Z</time></trkpt><trkpt lat="45.5836803380354" lon="10.422176040865706"><ele>448.00000000000006</ele><time>2026-04-04T13:04:37Z</time></trkpt><trkpt lat="45.58369962294817" lon="10.422084444771206"><ele>448.0</ele><time>2026-04-04T13:04:38Z</time></trkpt><trkpt lat="45.58370648727687" lon="10.421981977547388"><ele>448.0</ele><time>2026-04-04T13:04:39Z</time></trkpt><trkpt lat="45.583706018338226" lon="10.42185757041858"><ele>447.99999999999994</ele><time>2026-04-04T13:04:40Z</time></trkpt><trkpt lat="45.583693774425335" lon="10.421726671917652"><ele>447.99999999999994</ele><time>2026-04-04T13:04:41Z</time></trkpt><trkpt lat="45.58367186955281" lon="10.42159701021883"><ele>448.0</ele><time>2026-04-04T13:04:42Z</time></trkpt><trkpt lat="45.583645408102555" lon="10.421459241992158"><ele>448.0</ele><time>2026-04-04T13:04:43Z</time></trkpt><trkpt lat="45.58365213639651" lon="10.421311518702659"><ele>449.2</ele><time>2026-04-04T13:04:44Z</time></trkpt><trkpt lat="45.58363387786625" lon="10.421166001538786"><ele>450.4</ele><time>2026-04-04T13:04:45Z</time></trkpt><trkpt lat="45.583589501385305" lon="10.42102776096699"><ele>451.59999999999997</ele><time>2026-04-04T13:04:45.999Z</time></trkpt><trkpt lat="45.58355799808673" lon="10.420883126341268"><ele>452.79999999999995</ele><time>2026-04-04T13:04:46.999Z</time></trkpt><trkpt lat="45.583515119784074" lon="10.420732225680476"><ele>454.0</ele><time>2026-04-04T13:04:47.999Z</time></trkpt><trkpt lat="45.58345311301864" lon="10.420600955683929"><ele>454.00000000000006</ele><time>2026-04-04T13:04:48.999Z</time></trkpt><trkpt lat="45.58340239975494" lon="10.420496854536005"><ele>454.0</ele><time>2026-04-04T13:04:49.999Z</time></trkpt><trkpt lat="45.58335978237733" lon="10.420407121715135"><ele>454.0</ele><time>2026-04-04T13:04:50.999Z</time></trkpt><trkpt lat="45.583297295629606" lon="10.420279264487565"><ele>454.0</ele><time>2026-04-04T13:04:51.999Z</time></trkpt><trkpt lat="45.58324795723042" lon="10.420172556743307"><ele>454.00000000000006</ele><time>2026-04-04T13:04:52.999Z</time></trkpt><trkpt lat="45.58320184185831" lon="10.42007226578182"><ele>454.0</ele><time>2026-04-04T13:04:53.999Z</time></trkpt><trkpt lat="45.58315467700485" lon="10.41996062006637"><ele>453.6666666666667</ele><time>2026-04-04T13:04:54.999Z</time></trkpt><trkpt lat="45.5831042717796" lon="10.41982606053799"><ele>453.33333333333337</ele><time>2026-04-04T13:04:55.999Z</time></trkpt><trkpt lat="45.583064700418575" lon="10.419685498417348"><ele>453.0</ele><time>2026-04-04T13:04:56.999Z</time></trkpt><trkpt lat="45.583026648670035" lon="10.41958833248846"><ele>452.66666666666663</ele><time>2026-04-04T13:04:57.999Z</time></trkpt><trkpt lat="45.58299734024556" lon="10.419490143419138"><ele>452.3333333333333</ele><time>2026-04-04T13:04:58.999Z</time></trkpt><trkpt lat="45.582967268519674" lon="10.419395306705388"><ele>452.0</ele><time>2026-04-04T13:04:59.999Z</time></trkpt><trkpt lat="45.58292340110154" lon="10.419296587315348"><ele>452.66666666666663</ele><time>2026-04-04T13:05:00.999Z</time></trkpt><trkpt lat="45.58287082119464" lon="10.41917754934094"><ele>453.3333333333333</ele><time>2026-04-04T13:05:01.999Z</time></trkpt><trkpt lat="45.58283023668964" lon="10.41903453992804"><ele>454.0</ele><time>2026-04-04T13:05:02.999Z</time></trkpt><trkpt lat="45.58279083870093" lon="10.418921447065193"><ele>454.66666666666663</ele><time>2026-04-04T13:05:03.999Z</time></trkpt><trkpt lat="45.58277000432395" lon="10.418820011540749"><ele>455.3333333333333</ele><time>2026-04-04T13:05:04.999Z</time></trkpt><trkpt lat="45.5827672866794" lon="10.418729160367578"><ele>456.0</ele><time>2026-04-04T13:05:07.999Z</time></trkpt><trkpt lat="45.58276936641358" lon="10.418607610147342"><ele>458.6666666666667</ele><time>2026-04-04T13:07:16.999Z</time></trkpt><trkpt lat="45.582771008868804" lon="10.418505407375743"><ele>461.33333333333337</ele><time>2026-04-04T13:07:18.999Z</time></trkpt><trkpt lat="45.58278169726627" lon="10.41837514858115"><ele>464.0</ele><time>2026-04-04T13:07:20.999Z</time></trkpt><trkpt lat="45.582787947288644" lon="10.418267507342236"><ele>466.6666666666667</ele><time>2026-04-04T13:07:22.999Z</time></trkpt><trkpt lat="45.58276117984143" lon="10.41817571990815"><ele>469.33333333333337</ele><time>2026-04-04T13:07:25.999Z</time></trkpt><trkpt lat="45.582750099620654" lon="10.418077518298396"><ele>472.0</ele><time>2026-04-04T13:07:53Z</time></trkpt><trkpt lat="45.58273118257507" lon="10.417963928609963"><ele>473.42857142857144</ele><time>2026-04-04T13:07:56Z</time></trkpt><trkpt lat="45.582738555834595" lon="10.417866371642168"><ele>474.8571428571429</ele><time>2026-04-04T13:07:59Z</time></trkpt><trkpt lat="45.58274200910483" lon="10.417762852621502"><ele>476.28571428571433</ele><time>2026-04-04T13:08:02Z</time></trkpt><trkpt lat="45.58275114728532" lon="10.417662495340167"><ele>477.7142857142857</ele><time>2026-04-04T13:08:24Z</time></trkpt><trkpt lat="45.58279515783394" lon="10.417585414989498"><ele>479.1428571428572</ele><time>2026-04-04T13:08:26Z</time></trkpt><trkpt lat="45.58283623067462" lon="10.417512163049789"><ele>480.5714285714286</ele><time>2026-04-04T13:08:31Z</time></trkpt><trkpt lat="45.582870987062016" lon="10.417423793495617"><ele>482.0</ele><time>2026-04-04T13:08:34Z</time></trkpt><trkpt lat="45.58292845938476" lon="10.417354379034009"><ele>482.28571428571433</ele><time>2026-04-04T13:08:38Z</time></trkpt><trkpt lat="45.58298212813891" lon="10.417303619628052"><ele>482.5714285714286</ele><time>2026-04-04T13:08:40Z</time></trkpt><trkpt lat="45.58305162592485" lon="10.417263302886887"><ele>482.8571428571429</ele><time>2026-04-04T13:08:48Z</time></trkpt><trkpt lat="45.5830971110876" lon="10.417178589261288"><ele>483.1428571428571</ele><time>2026-04-04T13:08:55.999Z</time></trkpt><trkpt lat="45.58314100096445" lon="10.41707398337125"><ele>483.4285714285714</ele><time>2026-04-04T13:09:05.999Z</time></trkpt><trkpt lat="45.58319927517744" lon="10.41703646911004"><ele>483.71428571428567</ele><time>2026-04-04T13:09:14.999Z</time></trkpt><trkpt lat="45.583239518417045" lon="10.416939380579267"><ele>484.0</ele><time>2026-04-04T13:09:22.999Z</time></trkpt><trkpt lat="45.583294721658135" lon="10.416861517227211"><ele>486.83333333333337</ele><time>2026-04-04T13:09:24.999Z</time></trkpt><trkpt lat="45.583357043801385" lon="10.416769846756202"><ele>489.6666666666667</ele><time>2026-04-04T13:09:27.999Z</time></trkpt><trkpt lat="45.58342201654317" lon="10.416694699586442"><ele>492.5</ele><time>2026-04-04T13:09:30.999Z</time></trkpt><trkpt lat="45.583496968225326" lon="10.416641411939917"><ele>495.33333333333337</ele><time>2026-04-04T13:09:33.999Z</time></trkpt><trkpt lat="45.58353350475244" lon="10.416544883683072"><ele>498.1666666666667</ele><time>2026-04-04T13:09:36.999Z</time></trkpt><trkpt lat="45.583597072122956" lon="10.416501238102775"><ele>501.0</ele><time>2026-04-04T13:09:39.999Z</time></trkpt><trkpt lat="45.58367673178909" lon="10.416414178287676"><ele>503.8</ele><time>2026-04-04T13:09:41.999Z</time></trkpt><trkpt lat="45.58377460539386" lon="10.416299305448735"><ele>506.6</ele><time>2026-04-04T13:09:43.999Z</time></trkpt><trkpt lat="45.58377422169875" lon="10.416207593451176"><ele>509.4</ele><time>2026-04-04T13:09:46.999Z</time></trkpt><trkpt lat="45.58382019505658" lon="10.416135578364594"><ele>512.2</ele><time>2026-04-04T13:09:48.999Z</time></trkpt><trkpt lat="45.58390149815617" lon="10.416003093084303"><ele>515.0</ele><time>2026-04-04T13:09:50.999Z</time></trkpt><trkpt lat="45.583956150746204" lon="10.415945226423812"><ele>515.0</ele><time>2026-04-04T13:09:52.999Z</time></trkpt><trkpt lat="45.584018941887194" lon="10.415872816328566"><ele>515.0</ele><time>2026-04-04T13:09:54.999Z</time></trkpt><trkpt lat="45.58407965116703" lon="10.415917960410482"><ele>515.0</ele><time>2026-04-04T13:11:33.999Z</time></trkpt><trkpt lat="45.58419386050785" lon="10.415919737876871"><ele>515.0</ele><time>2026-04-04T13:11:36.999Z</time></trkpt><trkpt lat="45.584275309036805" lon="10.415978059537249"><ele>515.0</ele><time>2026-04-04T13:11:37.999Z</time></trkpt><trkpt lat="45.584349952498826" lon="10.416012978731043"><ele>515.0</ele><time>2026-04-04T13:11:38.999Z</time></trkpt><trkpt lat="45.58442010854465" lon="10.416024229096047"><ele>515.0</ele><time>2026-04-04T13:11:39.999Z</time></trkpt><trkpt lat="45.58448593021889" lon="10.416111522192937"><ele>515.0</ele><time>2026-04-04T13:11:41.999Z</time></trkpt><trkpt lat="45.58451871303052" lon="10.41620487650316"><ele>515.0</ele><time>2026-04-04T13:11:42.999Z</time></trkpt><trkpt lat="45.584588773335554" lon="10.41634832642329"><ele>515.0</ele><time>2026-04-04T13:11:44.999Z</time></trkpt><trkpt lat="45.584641518340526" lon="10.416440557765284"><ele>515.0</ele><time>2026-04-04T13:11:45.999Z</time></trkpt><trkpt lat="45.584696338450264" lon="10.416547903238389"><ele>513.0</ele><time>2026-04-04T13:11:46.999Z</time></trkpt><trkpt lat="45.58475669426928" lon="10.416672040157243"><ele>511.0</ele><time>2026-04-04T13:11:47.999Z</time></trkpt><trkpt lat="45.58482104848168" lon="10.416809154479308"><ele>509.0</ele><time>2026-04-04T13:11:48.999Z</time></trkpt><trkpt lat="45.58488426564823" lon="10.416949536584898"><ele>507.0</ele><time>2026-04-04T13:11:49.999Z</time></trkpt><trkpt lat="45.584945747073476" lon="10.417096638013078"><ele>506.5</ele><time>2026-04-04T13:11:50.999Z</time></trkpt><trkpt lat="45.58500930426578" lon="10.417239883114004"><ele>506.0</ele><time>2026-04-04T13:11:51.999Z</time></trkpt><trkpt lat="45.58507624485112" lon="10.417379806417099"><ele>505.5</ele><time>2026-04-04T13:11:52.999Z</time></trkpt><trkpt lat="45.58514164843739" lon="10.417516430763808"><ele>505.0</ele><time>2026-04-04T13:11:53.999Z</time></trkpt><trkpt lat="45.585212081678996" lon="10.41765633894089"><ele>505.0</ele><time>2026-04-04T13:11:54.999Z</time></trkpt><trkpt lat="45.58527572678713" lon="10.417802861805297"><ele>505.0</ele><time>2026-04-04T13:11:55.999Z</time></trkpt><trkpt lat="45.585347765146906" lon="10.417949512498172"><ele>505.0</ele><time>2026-04-04T13:11:56.999Z</time></trkpt><trkpt lat="45.58543303997827" lon="10.4180859989477"><ele>505.0</ele><time>2026-04-04T13:11:57.999Z</time></trkpt><trkpt lat="45.58553212416739" lon="10.418212922524985"><ele>505.0</ele><time>2026-04-04T13:11:58.999Z</time></trkpt><trkpt lat="45.58564420448584" lon="10.418321010347364"><ele>505.0</ele><time>2026-04-04T13:11:59.999Z</time></trkpt><trkpt lat="45.58576706732105" lon="10.418407599493166"><ele>505.0</ele><time>2026-04-04T13:12:00.999Z</time></trkpt><trkpt lat="45.585909543347626" lon="10.418464640682219"><ele>505.0</ele><time>2026-04-04T13:12:01.999Z</time></trkpt><trkpt lat="45.5860644250461" lon="10.41851214231248"><ele>502.33333333333337</ele><time>2026-04-04T13:12:03Z</time></trkpt><trkpt lat="45.58622654827632" lon="10.41857920693507"><ele>499.66666666666663</ele><time>2026-04-04T13:12:04Z</time></trkpt><trkpt lat="45.58636852611505" lon="10.418669646582838"><ele>497.0</ele><time>2026-04-04T13:12:05Z</time></trkpt><trkpt lat="45.58650627445233" lon="10.418731535560585"><ele>496.99999999999994</ele><time>2026-04-04T13:12:06Z</time></trkpt><trkpt lat="45.58661880446406" lon="10.418773842921691"><ele>497.0</ele><time>2026-04-04T13:12:07Z</time></trkpt><trkpt lat="45.58669277063516" lon="10.418819969359438"><ele>497.0</ele><time>2026-04-04T13:12:08Z</time></trkpt><trkpt lat="45.58674695906989" lon="10.418898725574882"><ele>497.0</ele><time>2026-04-04T13:12:09Z</time></trkpt><trkpt lat="45.58676063635296" lon="10.419009178670015"><ele>496.99999999999994</ele><time>2026-04-04T13:12:10Z</time></trkpt><trkpt lat="45.58675558222713" lon="10.419134294305975"><ele>497.0</ele><time>2026-04-04T13:12:11Z</time></trkpt><trkpt lat="45.58674867084263" lon="10.419281243571382"><ele>495.5</ele><time>2026-04-04T13:12:12Z</time></trkpt><trkpt lat="45.5867241455284" lon="10.41943479686115"><ele>494.0</ele><time>2026-04-04T13:12:13Z</time></trkpt><trkpt lat="45.586688517128756" lon="10.419600957828052"><ele>492.5</ele><time>2026-04-04T13:12:14Z</time></trkpt><trkpt lat="45.58666021211893" lon="10.419766580245415"><ele>491.0</ele><time>2026-04-04T13:12:15Z</time></trkpt><trkpt lat="45.58664987500439" lon="10.419939890003597"><ele>489.6</ele><time>2026-04-04T13:12:16Z</time></trkpt><trkpt lat="45.58665227396362" lon="10.420106698704885"><ele>488.20000000000005</ele><time>2026-04-04T13:12:17Z</time></trkpt><trkpt lat="45.58665425607122" lon="10.420249138383708"><ele>486.79999999999995</ele><time>2026-04-04T13:12:18Z</time></trkpt><trkpt lat="45.58663527275417" lon="10.420375953807442"><ele>485.4</ele><time>2026-04-04T13:12:19Z</time></trkpt><trkpt lat="45.58657584784073" lon="10.420471316625319"><ele>484.0</ele><time>2026-04-04T13:12:20Z</time></trkpt><trkpt lat="45.58646837339333" lon="10.420551338942142"><ele>481.6666666666667</ele><time>2026-04-04T13:12:21Z</time></trkpt><trkpt lat="45.58631697765873" lon="10.420639526740963"><ele>479.33333333333337</ele><time>2026-04-04T13:12:22Z</time></trkpt><trkpt lat="45.586147136242005" lon="10.420749947273103"><ele>477.0</ele><time>2026-04-04T13:12:23Z</time></trkpt><trkpt lat="45.5859600130925" lon="10.420872865328723"><ele>473.33333333333337</ele><time>2026-04-04T13:12:24Z</time></trkpt><trkpt lat="45.58576912005152" lon="10.420949146720396"><ele>469.6666666666667</ele><time>2026-04-04T13:12:25Z</time></trkpt><trkpt lat="45.58558735245063" lon="10.421035430808665"><ele>466.0</ele><time>2026-04-04T13:12:26Z</time></trkpt><trkpt lat="45.585418244471704" lon="10.421194203712254"><ele>462.0</ele><time>2026-04-04T13:12:27Z</time></trkpt><trkpt lat="45.58521228893138" lon="10.42135296564188"><ele>458.0</ele><time>2026-04-04T13:12:28Z</time></trkpt><trkpt lat="45.58503802175099" lon="10.421485684026875"><ele>454.0</ele><time>2026-04-04T13:12:29Z</time></trkpt><trkpt lat="45.584915543066074" lon="10.421610144613046"><ele>454.00000000000006</ele><time>2026-04-04T13:12:30Z</time></trkpt><trkpt lat="45.58483912451463" lon="10.421745191337317"><ele>454.0</ele><time>2026-04-04T13:12:31Z</time></trkpt><trkpt lat="45.584772113361375" lon="10.421856539336984"><ele>454.0</ele><time>2026-04-04T13:12:32Z</time></trkpt><trkpt lat="45.58471183623856" lon="10.421951856985267"><ele>454.0</ele><time>2026-04-04T13:12:33Z</time></trkpt><trkpt lat="45.58465218125495" lon="10.421995669061474"><ele>454.00000000000006</ele><time>2026-04-04T13:12:34Z</time></trkpt><trkpt lat="45.58460076897239" lon="10.422059400999814"><ele>454.0</ele><time>2026-04-04T13:12:35Z</time></trkpt><trkpt lat="45.58452332559112" lon="10.42205326456177"><ele>453.00000000000006</ele><time>2026-04-04T13:12:36Z</time></trkpt><trkpt lat="45.58444407061007" lon="10.422064615350545"><ele>452.0</ele><time>2026-04-04T13:12:37Z</time></trkpt><trkpt lat="45.58435591095152" lon="10.422067744329741"><ele>451.0</ele><time>2026-04-04T13:12:38Z</time></trkpt><trkpt lat="45.58426318344691" lon="10.42205358698225"><ele>450.0</ele><time>2026-04-04T13:12:39Z</time></trkpt><trkpt lat="45.58417814803589" lon="10.42201337744764"><ele>449.00000000000006</ele><time>2026-04-04T13:12:40Z</time></trkpt><trkpt lat="45.58409504571881" lon="10.42197110070786"><ele>448.0</ele><time>2026-04-04T13:12:41Z</time></trkpt><trkpt lat="45.58401644872689" lon="10.421949175341755"><ele>448.00000000000006</ele><time>2026-04-04T13:12:42Z</time></trkpt><trkpt lat="45.58394804262163" lon="10.421922993913713"><ele>448.0</ele><time>2026-04-04T13:12:43Z</time></trkpt><trkpt lat="45.583883892495415" lon="10.421935628137835"><ele>448.0</ele><time>2026-04-04T13:12:44Z</time></trkpt><trkpt lat="45.58381758622586" lon="10.42196002818209"><ele>448.0</ele><time>2026-04-04T13:12:45Z</time></trkpt><trkpt lat="45.583774089472406" lon="10.422087942284815"><ele>448.00000000000006</ele><time>2026-04-04T13:12:46Z</time></trkpt><trkpt lat="45.58373910749198" lon="10.422186275869123"><ele>448.0</ele><time>2026-04-04T13:12:47Z</time></trkpt><trkpt lat="45.583668016101846" lon="10.42211616338764"><ele>448.0</ele><time>2026-04-04T13:12:52Z</time></trkpt><trkpt lat="45.583698145365766" lon="10.422029835339046"><ele>447.99999999999994</ele><time>2026-04-04T13:12:53Z</time></trkpt><trkpt lat="45.583712891868664" lon="10.421905984708692"><ele>447.99999999999994</ele><time>2026-04-04T13:12:54Z</time></trkpt><trkpt lat="45.583704792479786" lon="10.42177159137988"><ele>448.0</ele><time>2026-04-04T13:12:55Z</time></trkpt><trkpt lat="45.58367523117628" lon="10.421619820680306"><ele>448.0</ele><time>2026-04-04T13:12:55.999Z</time></trkpt><trkpt lat="45.58364606457723" lon="10.421445573773982"><ele>449.5</ele><time>2026-04-04T13:12:56.999Z</time></trkpt><trkpt lat="45.5836464084767" lon="10.421256608039089"><ele>451.0</ele><time>2026-04-04T13:12:57.999Z</time></trkpt><trkpt lat="45.58361509781368" lon="10.421078239824453"><ele>452.5</ele><time>2026-04-04T13:12:58.999Z</time></trkpt><trkpt lat="45.583573091682275" lon="10.420955242525665"><ele>454.0</ele><time>2026-04-04T13:12:59.999Z</time></trkpt><trkpt lat="45.58353809210875" lon="10.420820548471362"><ele>454.00000000000006</ele><time>2026-04-04T13:13:00.999Z</time></trkpt><trkpt lat="45.58349854130594" lon="10.420695177228247"><ele>454.0</ele><time>2026-04-04T13:13:01.999Z</time></trkpt><trkpt lat="45.58345055953866" lon="10.420595715097344"><ele>454.0</ele><time>2026-04-04T13:13:02.999Z</time></trkpt><trkpt lat="45.5834075709762" lon="10.420507470853963"><ele>454.0</ele><time>2026-04-04T13:13:03.999Z</time></trkpt><trkpt lat="45.58336561220278" lon="10.42041944778033"><ele>454.00000000000006</ele><time>2026-04-04T13:13:04.999Z</time></trkpt><trkpt lat="45.58331756327749" lon="10.420317866070876"><ele>454.0</ele><time>2026-04-04T13:13:05.999Z</time></trkpt><trkpt lat="45.58326466566155" lon="10.420207507495267"><ele>453.6666666666667</ele><time>2026-04-04T13:13:06.999Z</time></trkpt><trkpt lat="45.58321936851213" lon="10.42011034712801"><ele>453.33333333333337</ele><time>2026-04-04T13:13:07.999Z</time></trkpt><trkpt lat="45.58316403450812" lon="10.420052076795963"><ele>453.0</ele><time>2026-04-04T13:13:08.999Z</time></trkpt><trkpt lat="45.58313993035748" lon="10.41995187375784"><ele>452.66666666666663</ele><time>2026-04-04T13:13:09.999Z</time></trkpt><trkpt lat="45.58311304960438" lon="10.419835643572167"><ele>452.3333333333333</ele><time>2026-04-04T13:13:10.999Z</time></trkpt><trkpt lat="45.583069061813845" lon="10.41975376572682"><ele>452.0</ele><time>2026-04-04T13:13:11.999Z</time></trkpt><trkpt lat="45.58303466053158" lon="10.419660156135096"><ele>452.66666666666663</ele><time>2026-04-04T13:13:12.999Z</time></trkpt><trkpt lat="45.583007623592025" lon="10.419558867737871"><ele>453.3333333333333</ele><time>2026-04-04T13:13:13.999Z</time></trkpt><trkpt lat="45.58296816047181" lon="10.419465617108397"><ele>454.0</ele><time>2026-04-04T13:13:14.999Z</time></trkpt><trkpt lat="45.582925069318684" lon="10.419317795621376"><ele>454.66666666666663</ele><time>2026-04-04T13:13:16.999Z</time></trkpt><trkpt lat="45.58289056275283" lon="10.419223326049414"><ele>455.3333333333333</ele><time>2026-04-04T13:13:17.999Z</time></trkpt><trkpt lat="45.58284992556949" lon="10.4191115087491"><ele>456.0</ele><time>2026-04-04T13:13:18.999Z</time></trkpt><trkpt lat="45.58281740874677" lon="10.41900181422225"><ele>458.6666666666667</ele><time>2026-04-04T13:13:19.999Z</time></trkpt><trkpt lat="45.582786351098115" lon="10.418895605111363"><ele>461.33333333333337</ele><time>2026-04-04T13:13:20.999Z</time></trkpt><trkpt lat="45.5827662135501" lon="10.418788408135768"><ele>464.0</ele><time>2026-04-04T13:13:21.999Z</time></trkpt><trkpt lat="45.58277801945674" lon="10.418681852871837"><ele>466.6666666666667</ele><time>2026-04-04T13:13:22.999Z</time></trkpt><trkpt lat="45.582764621921115" lon="10.418530047944088"><ele>469.33333333333337</ele><time>2026-04-04T13:13:24.999Z</time></trkpt><trkpt lat="45.58276854522687" lon="10.418416712649869"><ele>472.0</ele><time>2026-04-04T13:13:26.999Z</time></trkpt><trkpt lat="45.58277468664361" lon="10.418296091684521"><ele>472.00000000000006</ele><time>2026-04-04T13:13:28.999Z</time></trkpt><trkpt lat="45.58275004225979" lon="10.418188860696171"><ele>472.0</ele><time>2026-04-04T13:13:32.999Z</time></trkpt><trkpt lat="45.58274590917709" lon="10.418093159870585"><ele>472.0</ele><time>2026-04-04T13:13:35.999Z</time></trkpt><trkpt lat="45.58273941616817" lon="10.417958010321813"><ele>472.0</ele><time>2026-04-04T13:13:36.999Z</time></trkpt><trkpt lat="45.582735253693684" lon="10.417814532578017"><ele>472.00000000000006</ele><time>2026-04-04T13:13:39.999Z</time></trkpt><trkpt lat="45.582745883471546" lon="10.41770615025752"><ele>472.0</ele><time>2026-04-04T13:13:41.999Z</time></trkpt><trkpt lat="45.58277614805498" lon="10.417616304860408"><ele>473.6666666666667</ele><time>2026-04-04T13:13:43.999Z</time></trkpt><trkpt lat="45.58281604918466" lon="10.417543105113882"><ele>475.33333333333337</ele><time>2026-04-04T13:13:47.999Z</time></trkpt><trkpt lat="45.582859315854904" lon="10.417418033890492"><ele>477.0</ele><time>2026-04-04T13:13:50.999Z</time></trkpt><trkpt lat="45.582921648016054" lon="10.417366096790568"><ele>478.66666666666663</ele><time>2026-04-04T13:13:54.999Z</time></trkpt><trkpt lat="45.58300501249946" lon="10.417297447605593"><ele>480.3333333333333</ele><time>2026-04-04T13:14:28Z</time></trkpt><trkpt lat="45.58306972018347" lon="10.417187408697199"><ele>482.0</ele><time>2026-04-04T13:14:30Z</time></trkpt><trkpt lat="45.58312570547138" lon="10.417108836555217"><ele>482.3333333333333</ele><time>2026-04-04T13:14:31Z</time></trkpt><trkpt lat="45.58306293439673" lon="10.417241142135639"><ele>482.66666666666663</ele><time>2026-04-04T13:14:32Z</time></trkpt><trkpt lat="45.58310967549129" lon="10.41716707297528"><ele>483.0</ele><time>2026-04-04T13:14:54.999Z</time></trkpt><trkpt lat="45.58316090942593" lon="10.417069028761814"><ele>483.33333333333337</ele><time>2026-04-04T13:15:05.999Z</time></trkpt><trkpt lat="45.583204029587144" lon="10.4169915190682"><ele>483.6666666666667</ele><time>2026-04-04T13:15:25.999Z</time></trkpt><trkpt lat="45.58326134680574" lon="10.416904301389245"><ele>484.0</ele><time>2026-04-04T13:15:28.999Z</time></trkpt><trkpt lat="45.583317106391256" lon="10.416815323613813"><ele>486.83333333333337</ele><time>2026-04-04T13:15:30.999Z</time></trkpt><trkpt lat="45.583372386031286" lon="10.416740192416748"><ele>489.6666666666667</ele><time>2026-04-04T13:15:33.999Z</time></trkpt><trkpt lat="45.583431194952965" lon="10.416682607480757"><ele>492.5</ele><time>2026-04-04T13:15:35.999Z</time></trkpt><trkpt lat="45.58349526062103" lon="10.416636789978472"><ele>495.33333333333337</ele><time>2026-04-04T13:15:37.999Z</time></trkpt><trkpt lat="45.5835230191585" lon="10.416554677648861"><ele>498.1666666666667</ele><time>2026-04-04T13:15:40.999Z</time></trkpt><trkpt lat="45.58359270367406" lon="10.416514976948413"><ele>501.0</ele><time>2026-04-04T13:15:43.999Z</time></trkpt><trkpt lat="45.58367021363844" lon="10.416422794698423"><ele>501.1666666666667</ele><time>2026-04-04T13:15:46.999Z</time></trkpt><trkpt lat="45.583742111762945" lon="10.41634647991184"><ele>501.33333333333337</ele><time>2026-04-04T13:15:48.999Z</time></trkpt><trkpt lat="45.58379083762005" lon="10.416242678743616"><ele>501.5</ele><time>2026-04-04T13:15:50.999Z</time></trkpt><trkpt lat="45.58383318670876" lon="10.416133190357002"><ele>501.6666666666667</ele><time>2026-04-04T13:15:54.999Z</time></trkpt><trkpt lat="45.58389934709245" lon="10.416071673125623"><ele>501.83333333333337</ele><time>2026-04-04T13:15:57.999Z</time></trkpt><trkpt lat="45.58395254149986" lon="10.416005575064773"><ele>502.0</ele><time>2026-04-04T13:15:59.999Z</time></trkpt><trkpt lat="45.584007583540064" lon="10.415935066302945"><ele>504.1666666666667</ele><time>2026-04-04T13:19:21.999Z</time></trkpt><trkpt lat="45.584089977454035" lon="10.41591447145406"><ele>506.33333333333337</ele><time>2026-04-04T13:22:38Z</time></trkpt><trkpt lat="45.58416668044146" lon="10.415925885105544"><ele>508.5</ele><time>2026-04-04T13:22:41Z</time></trkpt><trkpt lat="45.584248522400834" lon="10.41596669657242"><ele>510.66666666666663</ele><time>2026-04-04T13:22:43Z</time></trkpt><trkpt lat="45.58435771464401" lon="10.416004905925602"><ele>512.8333333333333</ele><time>2026-04-04T13:22:45Z</time></trkpt><trkpt lat="45.58442704486112" lon="10.41601840444481"><ele>515.0</ele><time>2026-04-04T13:22:47Z</time></trkpt><trkpt lat="45.5845032927583" lon="10.416132841185826"><ele>515.0</ele><time>2026-04-04T13:22:49Z</time></trkpt><trkpt lat="45.58454411656547" lon="10.416227477123016"><ele>515.0</ele><time>2026-04-04T13:22:50Z</time></trkpt><trkpt lat="45.58459134796219" lon="10.416328525385879"><ele>515.0</ele><time>2026-04-04T13:22:51Z</time></trkpt><trkpt lat="45.5846351439184" lon="10.416436628036008"><ele>515.0</ele><time>2026-04-04T13:22:52Z</time></trkpt><trkpt lat="45.58468890787644" lon="10.416546593475534"><ele>515.0</ele><time>2026-04-04T13:22:53Z</time></trkpt><trkpt lat="45.58473173564892" lon="10.41668105693162"><ele>515.0</ele><time>2026-04-04T13:22:54Z</time></trkpt><trkpt lat="45.58478948846411" lon="10.416805555269047"><ele>513.6666666666666</ele><time>2026-04-04T13:22:55Z</time></trkpt><trkpt lat="45.58484394622283" lon="10.416924139960042"><ele>512.3333333333333</ele><time>2026-04-04T13:22:56Z</time></trkpt><trkpt lat="45.58489511267663" lon="10.417035557553776"><ele>511.0</ele><time>2026-04-04T13:22:57Z</time></trkpt><trkpt lat="45.58494108316273" lon="10.417135660710974"><ele>509.66666666666663</ele><time>2026-04-04T13:22:58Z</time></trkpt><trkpt lat="45.58498107575545" lon="10.417222746626846"><ele>508.3333333333333</ele><time>2026-04-04T13:22:59Z</time></trkpt><trkpt lat="45.585020242479" lon="10.417308034260666"><ele>507.0</ele><time>2026-04-04T13:23:00Z</time></trkpt><trkpt lat="45.58506572350279" lon="10.417407071535767"><ele>506.6666666666667</ele><time>2026-04-04T13:23:02Z</time></trkpt><trkpt lat="45.585109325096" lon="10.417501363384135"><ele>506.33333333333337</ele><time>2026-04-04T13:23:08Z</time></trkpt><trkpt lat="45.58515420989963" lon="10.41759653154679"><ele>506.0</ele><time>2026-04-04T13:23:09.999Z</time></trkpt><trkpt lat="45.58522803447032" lon="10.417713144603395"><ele>505.6666666666667</ele><time>2026-04-04T13:23:11.999Z</time></trkpt><trkpt lat="45.5852648787525" lon="10.417791941971284"><ele>505.33333333333337</ele><time>2026-04-04T13:23:12.999Z</time></trkpt><trkpt lat="45.58530703922995" lon="10.41787196350443"><ele>505.0</ele><time>2026-04-04T13:23:13.999Z</time></trkpt><trkpt lat="45.58535166080701" lon="10.417949730419751"><ele>505.00000000000006</ele><time>2026-04-04T13:23:14.999Z</time></trkpt><trkpt lat="45.58539836776422" lon="10.418020981224412"><ele>505.0</ele><time>2026-04-04T13:23:15.999Z</time></trkpt><trkpt lat="45.58544122110363" lon="10.41810653862416"><ele>505.0</ele><time>2026-04-04T13:23:16.999Z</time></trkpt><trkpt lat="45.5855045435004" lon="10.418186226198078"><ele>505.0</ele><time>2026-04-04T13:23:17.999Z</time></trkpt><trkpt lat="45.58557915999209" lon="10.418268139492435"><ele>505.00000000000006</ele><time>2026-04-04T13:23:18.999Z</time></trkpt><trkpt lat="45.58567195693788" lon="10.41832190333404"><ele>505.0</ele><time>2026-04-04T13:23:19.999Z</time></trkpt><trkpt lat="45.58576025168928" lon="10.418384896918724"><ele>505.0</ele><time>2026-04-04T13:23:20.999Z</time></trkpt><trkpt lat="45.58585649230829" lon="10.41842740141249"><ele>505.0</ele><time>2026-04-04T13:23:21.999Z</time></trkpt><trkpt lat="45.58595017143144" lon="10.418459801088662"><ele>505.0</ele><time>2026-04-04T13:23:22.999Z</time></trkpt><trkpt lat="45.586040374542144" lon="10.418492509831431"><ele>505.0</ele><time>2026-04-04T13:23:23.999Z</time></trkpt><trkpt lat="45.5861439481487" lon="10.418535262589323"><ele>505.0</ele><time>2026-04-04T13:23:24.999Z</time></trkpt><trkpt lat="45.586238565929456" lon="10.418588205659546"><ele>503.6666666666667</ele><time>2026-04-04T13:23:25.999Z</time></trkpt><trkpt lat="45.586334999971136" lon="10.418637490386368"><ele>502.33333333333337</ele><time>2026-04-04T13:23:26.999Z</time></trkpt><trkpt lat="45.58643322242433" lon="10.418682523189908"><ele>501.0</ele><time>2026-04-04T13:23:27.999Z</time></trkpt><trkpt lat="45.58651887322582" lon="10.418715233704173"><ele>499.66666666666663</ele><time>2026-04-04T13:23:28.999Z</time></trkpt><trkpt lat="45.58658609458541" lon="10.418761683007357"><ele>498.3333333333333</ele><time>2026-04-04T13:23:29.999Z</time></trkpt><trkpt lat="45.586660130790115" lon="10.418789206168436"><ele>497.0</ele><time>2026-04-04T13:23:31.999Z</time></trkpt><trkpt lat="45.586768602296374" lon="10.4184468980998"><ele>496.99999999999994</ele><time>2026-04-04T13:23:36.999Z</time></trkpt><trkpt lat="45.5868078920253" lon="10.418322473864869"><ele>497.0</ele><time>2026-04-04T13:23:39.999Z</time></trkpt><trkpt lat="45.586818458099536" lon="10.418206860128658"><ele>497.0</ele><time>2026-04-04T13:23:42.999Z</time></trkpt><trkpt lat="45.58687714424036" lon="10.418131001241818"><ele>497.0</ele><time>2026-04-04T13:23:44.999Z</time></trkpt><trkpt lat="45.58695854168932" lon="10.41809867113368"><ele>496.99999999999994</ele><time>2026-04-04T13:23:49.999Z</time></trkpt><trkpt lat="45.587033233034965" lon="10.418066288426264"><ele>497.0</ele><time>2026-04-04T13:23:52.999Z</time></trkpt><trkpt lat="45.58713368411513" lon="10.418048370211098"><ele>492.66666666666663</ele><time>2026-04-04T13:23:55.999Z</time></trkpt><trkpt lat="45.587200663101804" lon="10.418129264024168"><ele>488.3333333333333</ele><time>2026-04-04T13:23:57.999Z</time></trkpt><trkpt lat="45.58725859484597" lon="10.418192334972668"><ele>484.0</ele><time>2026-04-04T13:23:59.999Z</time></trkpt><trkpt lat="45.58733149944839" lon="10.418313202907038"><ele>479.66666666666663</ele><time>2026-04-04T13:24:01.999Z</time></trkpt><trkpt lat="45.58738979240483" lon="10.418403940121072"><ele>475.3333333333333</ele><time>2026-04-04T13:24:03.999Z</time></trkpt><trkpt lat="45.58744554713275" lon="10.418461801090384"><ele>471.0</ele><time>2026-04-04T13:24:05.999Z</time></trkpt><trkpt lat="45.58751068791091" lon="10.41845748244773"><ele>471.00000000000006</ele><time>2026-04-04T13:24:08.999Z</time></trkpt><trkpt lat="45.58759039441995" lon="10.4184550254709"><ele>471.0</ele><time>2026-04-04T13:24:13.999Z</time></trkpt><trkpt lat="45.58766671094672" lon="10.418528641236804"><ele>471.00000000000006</ele><time>2026-04-04T13:24:15.999Z</time></trkpt><trkpt lat="45.58773115865054" lon="10.418543133452436"><ele>471.00000000000006</ele><time>2026-04-04T13:24:19.999Z</time></trkpt><trkpt lat="45.58779961655419" lon="10.418537262412235"><ele>471.0</ele><time>2026-04-04T13:24:21.999Z</time></trkpt><trkpt lat="45.58787116969341" lon="10.418554400792805"><ele>471.00000000000006</ele><time>2026-04-04T13:24:23.999Z</time></trkpt><trkpt lat="45.58791486094087" lon="10.418476988186082"><ele>471.00000000000006</ele><time>2026-04-04T13:24:42Z</time></trkpt><trkpt lat="45.587915729422384" lon="10.418335462793483"><ele>468.6666666666667</ele><time>2026-04-04T13:24:44Z</time></trkpt><trkpt lat="45.58791475093597" lon="10.418232941559092"><ele>466.33333333333337</ele><time>2026-04-04T13:24:45Z</time></trkpt><trkpt lat="45.58792446466492" lon="10.418117692572064"><ele>464.0</ele><time>2026-04-04T13:24:46Z</time></trkpt><trkpt lat="45.58791232808353" lon="10.417996101852118"><ele>461.6666666666667</ele><time>2026-04-04T13:24:48Z</time></trkpt><trkpt lat="45.58789293105938" lon="10.417898200957557"><ele>459.33333333333337</ele><time>2026-04-04T13:24:50Z</time></trkpt><trkpt lat="45.587889649015615" lon="10.417792590012228"><ele>457.0</ele><time>2026-04-04T13:24:51Z</time></trkpt><trkpt lat="45.58794583892969" lon="10.417613424389616"><ele>457.0</ele><time>2026-04-04T13:24:53Z</time></trkpt><trkpt lat="45.58805471826028" lon="10.417494860465503"><ele>457.0</ele><time>2026-04-04T13:24:55Z</time></trkpt><trkpt lat="45.588107040685344" lon="10.417423933584773"><ele>457.0</ele><time>2026-04-04T13:24:56Z</time></trkpt><trkpt lat="45.58817056699291" lon="10.417260288624325"><ele>457.0</ele><time>2026-04-04T13:24:58Z</time></trkpt><trkpt lat="45.588224779829005" lon="10.417089551904617"><ele>459.00000000000006</ele><time>2026-04-04T13:25:00Z</time></trkpt><trkpt lat="45.58826683702321" lon="10.416921134768435"><ele>461.0</ele><time>2026-04-04T13:25:01.999Z</time></trkpt><trkpt lat="45.588311698693715" lon="10.41681976071622"><ele>463.0</ele><time>2026-04-04T13:25:03.999Z</time></trkpt><trkpt lat="45.58835574622937" lon="10.416750309234706"><ele>465.0</ele><time>2026-04-04T13:25:05.999Z</time></trkpt><trkpt lat="45.58839038080477" lon="10.416660863882989"><ele>467.00000000000006</ele><time>2026-04-04T13:25:07.999Z</time></trkpt><trkpt lat="45.58845255103279" lon="10.41662435060131"><ele>469.0</ele><time>2026-04-04T13:25:09.999Z</time></trkpt><trkpt lat="45.588550207981434" lon="10.416678003973969"><ele>469.0</ele><time>2026-04-04T13:25:11.999Z</time></trkpt><trkpt lat="45.58865889987676" lon="10.416791299069896"><ele>469.0</ele><time>2026-04-04T13:25:13.999Z</time></trkpt><trkpt lat="45.58875714607503" lon="10.416881835276712"><ele>469.0</ele><time>2026-04-04T13:25:15.999Z</time></trkpt><trkpt lat="45.58883975962707" lon="10.41699275903319"><ele>469.0</ele><time>2026-04-04T13:25:17.999Z</time></trkpt><trkpt lat="45.58892425147707" lon="10.41705735036811"><ele>467.6</ele><time>2026-04-04T13:25:19.999Z</time></trkpt><trkpt lat="45.588988755202905" lon="10.417102709217632"><ele>466.2</ele><time>2026-04-04T13:25:21.999Z</time></trkpt><trkpt lat="45.58906297981594" lon="10.417178362333987"><ele>464.80000000000007</ele><time>2026-04-04T13:25:23.999Z</time></trkpt><trkpt lat="45.5891297194714" lon="10.417299512504684"><ele>463.40000000000003</ele><time>2026-04-04T13:25:25.999Z</time></trkpt><trkpt lat="45.58920836296446" lon="10.417366786087694"><ele>462.0</ele><time>2026-04-04T13:25:27.999Z</time></trkpt><trkpt lat="45.58928546339979" lon="10.417428448618876"><ele>462.0</ele><time>2026-04-04T13:25:29.999Z</time></trkpt><trkpt lat="45.58935902424488" lon="10.4174276660974"><ele>462.0</ele><time>2026-04-04T13:25:32.999Z</time></trkpt><trkpt lat="45.58944113390341" lon="10.417470372751172"><ele>462.0</ele><time>2026-04-04T13:25:35.999Z</time></trkpt><trkpt lat="45.58952563164408" lon="10.417512838035984"><ele>462.0</ele><time>2026-04-04T13:26:32.999Z</time></trkpt><trkpt lat="45.58944754036972" lon="10.417483622120852"><ele>462.0</ele><time>2026-04-04T13:26:52.999Z</time></trkpt><trkpt lat="45.589352956451044" lon="10.417439246227765"><ele>462.0</ele><time>2026-04-04T13:26:55.999Z</time></trkpt><trkpt lat="45.58928935542981" lon="10.417442139424136"><ele>462.0</ele><time>2026-04-04T13:26:57.999Z</time></trkpt><trkpt lat="45.589213968002575" lon="10.417396782240235"><ele>462.00000000000006</ele><time>2026-04-04T13:26:59.999Z</time></trkpt><trkpt lat="45.58913381469111" lon="10.417332444228927"><ele>462.00000000000006</ele><time>2026-04-04T13:27:01.999Z</time></trkpt><trkpt lat="45.58905035766116" lon="10.417252940070016"><ele>462.0</ele><time>2026-04-04T13:27:03.999Z</time></trkpt><trkpt lat="45.588994211408355" lon="10.417143884440948"><ele>462.0</ele><time>2026-04-04T13:27:05.999Z</time></trkpt><trkpt lat="45.5888902426772" lon="10.417063624235057"><ele>463.1666666666667</ele><time>2026-04-04T13:27:07.999Z</time></trkpt><trkpt lat="45.58882514160453" lon="10.41702646502432"><ele>464.33333333333337</ele><time>2026-04-04T13:27:08.999Z</time></trkpt><trkpt lat="45.58875506415421" lon="10.416953658946433"><ele>465.5</ele><time>2026-04-04T13:27:10.999Z</time></trkpt><trkpt lat="45.58867560956044" lon="10.416848591948972"><ele>466.6666666666667</ele><time>2026-04-04T13:27:12.999Z</time></trkpt><trkpt lat="45.588596276701644" lon="10.416767137638942"><ele>467.83333333333337</ele><time>2026-04-04T13:27:14.999Z</time></trkpt><trkpt lat="45.58853952193309" lon="10.416722205840072"><ele>469.0</ele><time>2026-04-04T13:27:15.999Z</time></trkpt><trkpt lat="45.588449322858544" lon="10.416678917673226"><ele>469.00000000000006</ele><time>2026-04-04T13:27:17.999Z</time></trkpt><trkpt lat="45.588389297433" lon="10.416732680501877"><ele>469.0</ele><time>2026-04-04T13:27:20.999Z</time></trkpt><trkpt lat="45.5883595097639" lon="10.416850336053372"><ele>469.0</ele><time>2026-04-04T13:27:22.999Z</time></trkpt><trkpt lat="45.588299922490066" lon="10.416998319368002"><ele>469.0</ele><time>2026-04-04T13:27:24.999Z</time></trkpt><trkpt lat="45.58827346206731" lon="10.417085800752142"><ele>469.00000000000006</ele><time>2026-04-04T13:27:25.999Z</time></trkpt><trkpt lat="45.588254382957814" lon="10.417177492098704"><ele>469.0</ele><time>2026-04-04T13:27:26.999Z</time></trkpt><trkpt lat="45.58821477277054" lon="10.417270334291837"><ele>467.00000000000006</ele><time>2026-04-04T13:27:27.999Z</time></trkpt><trkpt lat="45.58814452638817" lon="10.417434509068647"><ele>465.0</ele><time>2026-04-04T13:27:29.999Z</time></trkpt><trkpt lat="45.58809861193332" lon="10.417521277511604"><ele>463.0</ele><time>2026-04-04T13:27:30.999Z</time></trkpt><trkpt lat="45.5880551188438" lon="10.417587723231652"><ele>461.0</ele><time>2026-04-04T13:27:31.999Z</time></trkpt><trkpt lat="45.58799890498613" lon="10.41763803706054"><ele>459.00000000000006</ele><time>2026-04-04T13:27:32.999Z</time></trkpt><trkpt lat="45.587922956731425" lon="10.41773591697719"><ele>457.0</ele><time>2026-04-04T13:27:34.999Z</time></trkpt><trkpt lat="45.58791436659858" lon="10.417829655675764"><ele>457.00000000000006</ele><time>2026-04-04T13:27:36.999Z</time></trkpt><trkpt lat="45.58792538515311" lon="10.417925748828175"><ele>457.0</ele><time>2026-04-04T13:27:46.999Z</time></trkpt><trkpt lat="45.587844573498394" lon="10.417929259025106"><ele>457.0</ele><time>2026-04-04T13:27:49.999Z</time></trkpt><trkpt lat="45.587771334091215" lon="10.417917475527847"><ele>457.0</ele><time>2026-04-04T13:27:52.999Z</time></trkpt><trkpt lat="45.58767915575334" lon="10.417867860498887"><ele>457.00000000000006</ele><time>2026-04-04T13:27:55.999Z</time></trkpt><trkpt lat="45.587606807500975" lon="10.417817805967298"><ele>457.0</ele><time>2026-04-04T13:27:57.999Z</time></trkpt><trkpt lat="45.587566769031106" lon="10.417737129928277"><ele>459.8</ele><time>2026-04-04T13:27:59.999Z</time></trkpt><trkpt lat="45.58751514342403" lon="10.41766791335162"><ele>462.6</ele><time>2026-04-04T13:28:01.999Z</time></trkpt><trkpt lat="45.587461522741336" lon="10.417570457927164"><ele>465.40000000000003</ele><time>2026-04-04T13:28:05.999Z</time></trkpt><trkpt lat="45.587342489808975" lon="10.41742900460169"><ele>468.20000000000005</ele><time>2026-04-04T13:29:19.999Z</time></trkpt><trkpt lat="45.58737878204855" lon="10.417309014573142"><ele>471.0</ele><time>2026-04-04T13:29:22.999Z</time></trkpt><trkpt lat="45.587390487344" lon="10.417147837559119"><ele>473.00000000000006</ele><time>2026-04-04T13:29:24.999Z</time></trkpt><trkpt lat="45.58741566622195" lon="10.417054974242154"><ele>475.0</ele><time>2026-04-04T13:29:27.999Z</time></trkpt><trkpt lat="45.5874344320484" lon="10.41696106442428"><ele>477.00000000000006</ele><time>2026-04-04T13:29:31.999Z</time></trkpt><trkpt lat="45.58745153372783" lon="10.416857544320308"><ele>479.00000000000006</ele><time>2026-04-04T13:29:38.999Z</time></trkpt><trkpt lat="45.58749251070835" lon="10.416770350956389"><ele>481.0</ele><time>2026-04-04T13:29:42.999Z</time></trkpt><trkpt lat="45.58753781793155" lon="10.416695063023194"><ele>483.00000000000006</ele><time>2026-04-04T13:29:45.999Z</time></trkpt><trkpt lat="45.58758453110269" lon="10.416595082718297"><ele>485.00000000000006</ele><time>2026-04-04T13:29:48.999Z</time></trkpt><trkpt lat="45.58761962366284" lon="10.41647029274467"><ele>484.99999999999994</ele><time>2026-04-04T13:29:50.999Z</time></trkpt><trkpt lat="45.58761931729283" lon="10.41637207814905"><ele>485.0</ele><time>2026-04-04T13:29:52.999Z</time></trkpt><trkpt lat="45.58764341440383" lon="10.416239638363697"><ele>485.0</ele><time>2026-04-04T13:29:55.999Z</time></trkpt><trkpt lat="45.58771206213009" lon="10.416149657007303"><ele>485.0</ele><time>2026-04-04T13:29:58.999Z</time></trkpt><trkpt lat="45.58773866323089" lon="10.416060401877418"><ele>484.99999999999994</ele><time>2026-04-04T13:30:00.999Z</time></trkpt><trkpt lat="45.587770089622886" lon="10.415958389268578"><ele>485.0</ele><time>2026-04-04T13:30:02.999Z</time></trkpt><trkpt lat="45.587812629190836" lon="10.415871522830585"><ele>484.16666666666663</ele><time>2026-04-04T13:30:05.999Z</time></trkpt><trkpt lat="45.58785620383598" lon="10.415798526039003"><ele>483.3333333333333</ele><time>2026-04-04T13:30:07.999Z</time></trkpt><trkpt lat="45.587925630581225" lon="10.415674473369274"><ele>482.5</ele><time>2026-04-04T13:30:09.999Z</time></trkpt><trkpt lat="45.58798266173641" lon="10.4156055051815"><ele>481.66666666666663</ele><time>2026-04-04T13:30:14.999Z</time></trkpt><trkpt lat="45.58799907757119" lon="10.415483247774699"><ele>480.8333333333333</ele><time>2026-04-04T13:31:31.999Z</time></trkpt><trkpt lat="45.588047539299914" lon="10.415391500960371"><ele>480.0</ele><time>2026-04-04T13:31:33.999Z</time></trkpt><trkpt lat="45.588089576360375" lon="10.415308928609226"><ele>483.0</ele><time>2026-04-04T13:31:36.999Z</time></trkpt><trkpt lat="45.5881364217176" lon="10.415248179765593"><ele>486.0</ele><time>2026-04-04T13:31:38.999Z</time></trkpt><trkpt lat="45.58817992108215" lon="10.4151783941728"><ele>489.0</ele><time>2026-04-04T13:31:40.999Z</time></trkpt><trkpt lat="45.588232434101826" lon="10.41507912320553"><ele>492.0</ele><time>2026-04-04T13:31:42.999Z</time></trkpt><trkpt lat="45.58829915393044" lon="10.414999265122576"><ele>495.0</ele><time>2026-04-04T13:31:51.999Z</time></trkpt><trkpt lat="45.588373790984996" lon="10.41492687725218"><ele>498.0</ele><time>2026-04-04T13:31:53.999Z</time></trkpt><trkpt lat="45.5884199440731" lon="10.414830912760864"><ele>498.0</ele><time>2026-04-04T13:31:56.999Z</time></trkpt><trkpt lat="45.588504340533454" lon="10.414726657833592"><ele>497.99999999999994</ele><time>2026-04-04T13:32:00.999Z</time></trkpt><trkpt lat="45.58856703304227" lon="10.414679800608521"><ele>497.99999999999994</ele><time>2026-04-04T13:32:02.999Z</time></trkpt><trkpt lat="45.58864916003661" lon="10.414599336353385"><ele>498.0</ele><time>2026-04-04T13:32:05.999Z</time></trkpt><trkpt lat="45.588715094152086" lon="10.414521602159862"><ele>498.0</ele><time>2026-04-04T13:32:08.999Z</time></trkpt><trkpt lat="45.588777181705986" lon="10.414441245112666"><ele>500.4285714285714</ele><time>2026-04-04T13:32:11.999Z</time></trkpt><trkpt lat="45.58873740630094" lon="10.414369455123206"><ele>502.8571428571428</ele><time>2026-04-04T13:43:29Z</time></trkpt><trkpt lat="45.588792902537755" lon="10.414309321931043"><ele>505.2857142857143</ele><time>2026-04-04T13:43:40Z</time></trkpt><trkpt lat="45.58886200731169" lon="10.41430867253893"><ele>507.71428571428567</ele><time>2026-04-04T13:43:44Z</time></trkpt><trkpt lat="45.58892926530022" lon="10.41429407334905"><ele>510.1428571428571</ele><time>2026-04-04T13:43:46Z</time></trkpt><trkpt lat="45.58899046291005" lon="10.4143165607046"><ele>512.5714285714286</ele><time>2026-04-04T13:43:48Z</time></trkpt><trkpt lat="45.58905989313521" lon="10.414340799156264"><ele>515.0</ele><time>2026-04-04T13:43:50Z</time></trkpt><trkpt lat="45.58912825473581" lon="10.414346090316311"><ele>515.0</ele><time>2026-04-04T13:43:53Z</time></trkpt><trkpt lat="45.5891495222044" lon="10.414451659815942"><ele>515.0</ele><time>2026-04-04T13:43:56Z</time></trkpt><trkpt lat="45.58912471416717" lon="10.414562516414904"><ele>515.0</ele><time>2026-04-04T13:44:00Z</time></trkpt><trkpt lat="45.589136884335566" lon="10.414690725878508"><ele>515.0</ele><time>2026-04-04T13:44:04Z</time></trkpt><trkpt lat="45.589137988167295" lon="10.414786638932394"><ele>515.0</ele><time>2026-04-04T13:44:07Z</time></trkpt><trkpt lat="45.58912281434975" lon="10.414874414992086"><ele>515.0</ele><time>2026-04-04T13:44:10Z</time></trkpt><trkpt lat="45.589110696028676" lon="10.4149741304368"><ele>513.0</ele><time>2026-04-04T13:44:12Z</time></trkpt><trkpt lat="45.589106982733114" lon="10.415081381425765"><ele>511.0</ele><time>2026-04-04T13:44:16Z</time></trkpt><trkpt lat="45.58909377063094" lon="10.415185108274855"><ele>509.0</ele><time>2026-04-04T13:44:18Z</time></trkpt><trkpt lat="45.58906120926421" lon="10.415359269322337"><ele>507.0</ele><time>2026-04-04T13:44:22Z</time></trkpt><trkpt lat="45.58905845747324" lon="10.415466353756743"><ele>504.99999999999994</ele><time>2026-04-04T13:44:24Z</time></trkpt><trkpt lat="45.589041240898695" lon="10.415599490735687"><ele>503.0</ele><time>2026-04-04T13:44:28Z</time></trkpt><trkpt lat="45.58898112049741" lon="10.41566611778176"><ele>501.49999999999994</ele><time>2026-04-04T13:44:32Z</time></trkpt><trkpt lat="45.58896004669911" lon="10.415752781124718"><ele>500.0</ele><time>2026-04-04T13:44:35Z</time></trkpt><trkpt lat="45.58895574118043" lon="10.415850446237277"><ele>498.5</ele><time>2026-04-04T13:44:37Z</time></trkpt><trkpt lat="45.58891898555436" lon="10.415952987079136"><ele>497.0</ele><time>2026-04-04T13:44:39Z</time></trkpt><trkpt lat="45.58891326549948" lon="10.416064890700927"><ele>495.49999999999994</ele><time>2026-04-04T13:44:41Z</time></trkpt><trkpt lat="45.58892113939065" lon="10.416171841168081"><ele>494.0</ele><time>2026-04-04T13:44:43Z</time></trkpt><trkpt lat="45.588906889781285" lon="10.416315075913191"><ele>491.49999999999994</ele><time>2026-04-04T13:44:45Z</time></trkpt><trkpt lat="45.58891941761034" lon="10.416448688509453"><ele>489.0</ele><time>2026-04-04T13:44:47Z</time></trkpt><trkpt lat="45.588950707289904" lon="10.416529512902315"><ele>486.5</ele><time>2026-04-04T13:44:49Z</time></trkpt><trkpt lat="45.588931310522156" lon="10.416644795887365"><ele>484.0</ele><time>2026-04-04T13:44:52Z</time></trkpt><trkpt lat="45.58891049393926" lon="10.416765586150426"><ele>481.49999999999994</ele><time>2026-04-04T13:44:54Z</time></trkpt><trkpt lat="45.58890850686156" lon="10.416903333480144"><ele>479.0</ele><time>2026-04-04T13:44:57Z</time></trkpt><trkpt lat="45.58887971820691" lon="10.416992658411688"><ele>479.0</ele><time>2026-04-04T13:44:59Z</time></trkpt><trkpt lat="45.5887951587917" lon="10.416974135010596"><ele>479.0</ele><time>2026-04-04T13:45:02.999Z</time></trkpt><trkpt lat="45.58873491131829" lon="10.416879361236798"><ele>479.0</ele><time>2026-04-04T13:45:04.999Z</time></trkpt><trkpt lat="45.58866007485759" lon="10.416790863330766"><ele>479.0</ele><time>2026-04-04T13:45:06.999Z</time></trkpt><trkpt lat="45.588561207387784" lon="10.41670242851032"><ele>479.0</ele><time>2026-04-04T13:45:08.999Z</time></trkpt><trkpt lat="45.58845603217496" lon="10.416685027391084"><ele>477.0</ele><time>2026-04-04T13:45:10.999Z</time></trkpt><trkpt lat="45.58839344411059" lon="10.41673531728116"><ele>475.0</ele><time>2026-04-04T13:45:12.999Z</time></trkpt><trkpt lat="45.58837030177319" lon="10.416857758879559"><ele>473.0</ele><time>2026-04-04T13:45:14.999Z</time></trkpt><trkpt lat="45.58831223223385" lon="10.416977604285584"><ele>471.0</ele><time>2026-04-04T13:45:16.999Z</time></trkpt><trkpt lat="45.58829710984467" lon="10.417068406453762"><ele>469.0</ele><time>2026-04-04T13:45:18.999Z</time></trkpt><trkpt lat="45.58823457962921" lon="10.417226594470138"><ele>467.00000000000006</ele><time>2026-04-04T13:45:20.999Z</time></trkpt><trkpt lat="45.588205782338726" lon="10.417314436627867"><ele>465.0</ele><time>2026-04-04T13:45:21.999Z</time></trkpt><trkpt lat="45.588171151985286" lon="10.417414383939255"><ele>463.0</ele><time>2026-04-04T13:45:22.999Z</time></trkpt><trkpt lat="45.58812642823723" lon="10.417489373001887"><ele>461.0</ele><time>2026-04-04T13:45:23.999Z</time></trkpt><trkpt lat="45.58808087194573" lon="10.41756946258234"><ele>459.00000000000006</ele><time>2026-04-04T13:45:24.999Z</time></trkpt><trkpt lat="45.58797537065762" lon="10.417674670510205"><ele>457.0</ele><time>2026-04-04T13:45:26.999Z</time></trkpt><trkpt lat="45.5879281735702" lon="10.417815584784707"><ele>457.0</ele><time>2026-04-04T13:45:28.999Z</time></trkpt><trkpt lat="45.587933543501386" lon="10.417918543742166"><ele>457.00000000000006</ele><time>2026-04-04T13:45:29.999Z</time></trkpt><trkpt lat="45.58797152673125" lon="10.418056249412965"><ele>457.00000000000006</ele><time>2026-04-04T13:45:31.999Z</time></trkpt><trkpt lat="45.58795413730953" lon="10.41823777907054"><ele>457.0</ele><time>2026-04-04T13:45:34Z</time></trkpt><trkpt lat="45.58794262001819" lon="10.418334340684707"><ele>457.0</ele><time>2026-04-04T13:45:35Z</time></trkpt><trkpt lat="45.58793399254944" lon="10.418470825462192"><ele>456.1666666666667</ele><time>2026-04-04T13:45:37Z</time></trkpt><trkpt lat="45.58793670077346" lon="10.41859021402043"><ele>455.33333333333337</ele><time>2026-04-04T13:45:40Z</time></trkpt><trkpt lat="45.587975371614675" lon="10.418673892806892"><ele>454.5</ele><time>2026-04-04T13:45:46Z</time></trkpt><trkpt lat="45.58805672100293" lon="10.418744610929465"><ele>453.66666666666663</ele><time>2026-04-04T13:45:48Z</time></trkpt><trkpt lat="45.5881185992584" lon="10.41878275791049"><ele>452.8333333333333</ele><time>2026-04-04T13:45:50Z</time></trkpt><trkpt lat="45.58820829609329" lon="10.4188209488028"><ele>452.0</ele><time>2026-04-04T13:45:52Z</time></trkpt><trkpt lat="45.58830014928518" lon="10.418811982710332"><ele>451.99999999999994</ele><time>2026-04-04T13:45:54Z</time></trkpt><trkpt lat="45.588384201980624" lon="10.418792869534363"><ele>452.0</ele><time>2026-04-04T13:45:56Z</time></trkpt><trkpt lat="45.58845972970371" lon="10.418797988970294"><ele>452.0</ele><time>2026-04-04T13:45:58Z</time></trkpt><trkpt lat="45.58854126301071" lon="10.418902163635622"><ele>452.0</ele><time>2026-04-04T13:46:00Z</time></trkpt><trkpt lat="45.588577837355885" lon="10.418975491158546"><ele>451.99999999999994</ele><time>2026-04-04T13:46:01Z</time></trkpt><trkpt lat="45.58863911382848" lon="10.419034437052929"><ele>452.0</ele><time>2026-04-04T13:46:02Z</time></trkpt><trkpt lat="45.58869243751739" lon="10.419119734126419"><ele>449.66666666666663</ele><time>2026-04-04T13:46:03Z</time></trkpt><trkpt lat="45.58872247707882" lon="10.419223951718758"><ele>447.3333333333333</ele><time>2026-04-04T13:46:04Z</time></trkpt><trkpt lat="45.58878522017667" lon="10.4193571920003"><ele>445.0</ele><time>2026-04-04T13:46:06Z</time></trkpt><trkpt lat="45.58884766608151" lon="10.419453675921833"><ele>442.66666666666663</ele><time>2026-04-04T13:46:09Z</time></trkpt><trkpt lat="45.588910752319954" lon="10.419514668341664"><ele>440.3333333333333</ele><time>2026-04-04T13:46:11Z</time></trkpt><trkpt lat="45.58897146453803" lon="10.419575162887668"><ele>438.0</ele><time>2026-04-04T13:46:13Z</time></trkpt><trkpt lat="45.58903852633331" lon="10.41963351995897"><ele>437.3333333333333</ele><time>2026-04-04T13:46:16Z</time></trkpt><trkpt lat="45.58908684982958" lon="10.419717861172973"><ele>436.66666666666663</ele><time>2026-04-04T13:46:19Z</time></trkpt><trkpt lat="45.5890946040115" lon="10.419850944279817"><ele>436.0</ele><time>2026-04-04T13:46:22Z</time></trkpt><trkpt lat="45.58911025074837" lon="10.419958947932871"><ele>435.3333333333333</ele><time>2026-04-04T13:46:24Z</time></trkpt><trkpt lat="45.58911570068857" lon="10.420067773576541"><ele>434.66666666666663</ele><time>2026-04-04T13:46:27Z</time></trkpt><trkpt lat="45.58913020952997" lon="10.42017748703453"><ele>434.0</ele><time>2026-04-04T13:46:30Z</time></trkpt><trkpt lat="45.58914047013198" lon="10.420271889498746"><ele>433.99999999999994</ele><time>2026-04-04T13:46:32Z</time></trkpt><trkpt lat="45.58914386149318" lon="10.420403370655706"><ele>434.0</ele><time>2026-04-04T13:46:35Z</time></trkpt><trkpt lat="45.58914472015805" lon="10.420512462817209"><ele>434.0</ele><time>2026-04-04T13:46:38Z</time></trkpt><trkpt lat="45.58914346389989" lon="10.420634587299999"><ele>434.0</ele><time>2026-04-04T13:46:40Z</time></trkpt><trkpt lat="45.58916098489398" lon="10.420751916374954"><ele>433.99999999999994</ele><time>2026-04-04T13:46:43Z</time></trkpt><trkpt lat="45.58923003490507" lon="10.42080321595653"><ele>434.0</ele><time>2026-04-04T13:47:04Z</time></trkpt><trkpt lat="45.58933642294982" lon="10.420803316949973"><ele>433.3333333333333</ele><time>2026-04-04T13:47:07Z</time></trkpt><trkpt lat="45.58943640425978" lon="10.420797410207802"><ele>432.66666666666663</ele><time>2026-04-04T13:47:09Z</time></trkpt><trkpt lat="45.58950290114253" lon="10.420769691154113"><ele>432.0</ele><time>2026-04-04T13:47:12Z</time></trkpt><trkpt lat="45.58958558327394" lon="10.420795535117565"><ele>431.33333333333337</ele><time>2026-04-04T13:47:14Z</time></trkpt><trkpt lat="45.58964188831781" lon="10.420881547952998"><ele>430.6666666666667</ele><time>2026-04-04T13:47:16Z</time></trkpt><trkpt lat="45.58970782982169" lon="10.420890832669807"><ele>430.0</ele><time>2026-04-04T13:47:18Z</time></trkpt><trkpt lat="45.58972310516011" lon="10.420991789927248"><ele>427.50000000000006</ele><time>2026-04-04T13:47:21Z</time></trkpt><trkpt lat="45.58981557249598" lon="10.421014232760381"><ele>425.0</ele><time>2026-04-04T13:47:58Z</time></trkpt><trkpt lat="45.58986697845882" lon="10.421076278106836"><ele>422.5</ele><time>2026-04-04T13:48:00Z</time></trkpt><trkpt lat="45.58992363916823" lon="10.42114527676404"><ele>420.0</ele><time>2026-04-04T13:48:03Z</time></trkpt><trkpt lat="45.589984981465875" lon="10.42121068526988"><ele>417.50000000000006</ele><time>2026-04-04T13:48:06Z</time></trkpt><trkpt lat="45.59007866880261" lon="10.421268716071184"><ele>415.0</ele><time>2026-04-04T13:48:09Z</time></trkpt><trkpt lat="45.590151092465405" lon="10.421303426737415"><ele>414.83333333333337</ele><time>2026-04-04T13:48:12Z</time></trkpt><trkpt lat="45.590207414670736" lon="10.421367080622781"><ele>414.6666666666667</ele><time>2026-04-04T13:48:14Z</time></trkpt><trkpt lat="45.590260453557946" lon="10.42142042563838"><ele>414.5</ele><time>2026-04-04T13:48:17Z</time></trkpt><trkpt lat="45.590318259116835" lon="10.421478832992257"><ele>414.33333333333337</ele><time>2026-04-04T13:48:21Z</time></trkpt><trkpt lat="45.59037419496698" lon="10.421547817171144"><ele>414.1666666666667</ele><time>2026-04-04T13:48:27Z</time></trkpt><trkpt lat="45.590415584855094" lon="10.421664053619867"><ele>414.0</ele><time>2026-04-04T13:48:31Z</time></trkpt><trkpt lat="45.59046693983529" lon="10.421768868435393"><ele>411.8333333333333</ele><time>2026-04-04T13:48:34Z</time></trkpt><trkpt lat="45.590505529527455" lon="10.421866195326928"><ele>409.66666666666663</ele><time>2026-04-04T13:48:37Z</time></trkpt><trkpt lat="45.59057311195006" lon="10.421957333343443"><ele>407.5</ele><time>2026-04-04T13:48:40Z</time></trkpt><trkpt lat="45.590637320525786" lon="10.422047899038029"><ele>405.3333333333333</ele><time>2026-04-04T13:48:43Z</time></trkpt><trkpt lat="45.59068483832768" lon="10.422163267493026"><ele>403.16666666666663</ele><time>2026-04-04T13:48:45Z</time></trkpt><trkpt lat="45.59073070516139" lon="10.422252539424859"><ele>401.0</ele><time>2026-04-04T13:48:47Z</time></trkpt><trkpt lat="45.59075893888793" lon="10.422340269781822"><ele>400.99999999999994</ele><time>2026-04-04T13:48:50Z</time></trkpt><trkpt lat="45.590808462089775" lon="10.422424083623913"><ele>401.0</ele><time>2026-04-04T13:48:52Z</time></trkpt><trkpt lat="45.590896633952624" lon="10.422557819041568"><ele>401.0</ele><time>2026-04-04T13:48:54Z</time></trkpt><trkpt lat="45.59094952420924" lon="10.42261564075468"><ele>401.0</ele><time>2026-04-04T13:48:56Z</time></trkpt><trkpt lat="45.591002724869085" lon="10.422678483903091"><ele>400.99999999999994</ele><time>2026-04-04T13:48:58Z</time></trkpt><trkpt lat="45.591057837674256" lon="10.422735532738422"><ele>401.0</ele><time>2026-04-04T13:49:01Z</time></trkpt><trkpt lat="45.59099967705702" lon="10.42279620123857"><ele>400.99999999999994</ele><time>2026-04-04T13:49:06Z</time></trkpt><trkpt lat="45.59093668625127" lon="10.422878770362885"><ele>401.0</ele><time>2026-04-04T13:49:17Z</time></trkpt><trkpt lat="45.590886364160816" lon="10.42295364055832"><ele>401.0</ele><time>2026-04-04T13:49:19Z</time></trkpt><trkpt lat="45.59083357526342" lon="10.423050350665601"><ele>401.0</ele><time>2026-04-04T13:49:21Z</time></trkpt><trkpt lat="45.5908160519881" lon="10.423142937359886"><ele>400.99999999999994</ele><time>2026-04-04T13:49:23Z</time></trkpt><trkpt lat="45.59076274026746" lon="10.423247755435417"><ele>401.0</ele><time>2026-04-04T13:49:25Z</time></trkpt><trkpt lat="45.59068632671085" lon="10.423376703438157"><ele>401.14285714285717</ele><time>2026-04-04T13:49:27Z</time></trkpt><trkpt lat="45.590631890806876" lon="10.423445028944839"><ele>401.28571428571433</ele><time>2026-04-04T13:49:28Z</time></trkpt><trkpt lat="45.590578239657226" lon="10.423505826947249"><ele>401.42857142857144</ele><time>2026-04-04T13:49:29Z</time></trkpt><trkpt lat="45.590500597312094" lon="10.4235889230022"><ele>401.57142857142856</ele><time>2026-04-04T13:49:30.999Z</time></trkpt><trkpt lat="45.59043756940011" lon="10.423599916177952"><ele>401.7142857142857</ele><time>2026-04-04T13:49:31.999Z</time></trkpt><trkpt lat="45.590371012842446" lon="10.423626435807705"><ele>401.85714285714283</ele><time>2026-04-04T13:49:32.999Z</time></trkpt><trkpt lat="45.59030238959777" lon="10.42366078063909"><ele>402.0</ele><time>2026-04-04T13:49:33.999Z</time></trkpt><trkpt lat="45.59024025238925" lon="10.423714957935442"><ele>402.5</ele><time>2026-04-04T13:49:34.999Z</time></trkpt><trkpt lat="45.590171493204416" lon="10.423799372004394"><ele>403.0</ele><time>2026-04-04T13:49:35.999Z</time></trkpt><trkpt lat="45.590119197192415" lon="10.423888965084402"><ele>403.5</ele><time>2026-04-04T13:49:36.999Z</time></trkpt><trkpt lat="45.590087768167294" lon="10.423976952963978"><ele>404.0</ele><time>2026-04-04T13:49:37.999Z</time></trkpt><trkpt lat="45.590076299004" lon="10.42409205836716"><ele>404.5</ele><time>2026-04-04T13:49:38.999Z</time></trkpt><trkpt lat="45.59007911534141" lon="10.424185925070105"><ele>405.0</ele><time>2026-04-04T13:49:39.999Z</time></trkpt><trkpt lat="45.59009348118187" lon="10.424301995094186"><ele>403.8333333333333</ele><time>2026-04-04T13:49:40.999Z</time></trkpt><trkpt lat="45.59008755403695" lon="10.424392266993701"><ele>402.66666666666663</ele><time>2026-04-04T13:49:41.999Z</time></trkpt><trkpt lat="45.590036244419444" lon="10.424471810910685"><ele>401.5</ele><time>2026-04-04T13:49:46Z</time></trkpt><trkpt lat="45.589955616178685" lon="10.42446525250759"><ele>400.3333333333333</ele><time>2026-04-04T13:49:48Z</time></trkpt><trkpt lat="45.58988421543923" lon="10.424460085425046"><ele>399.16666666666663</ele><time>2026-04-04T13:49:49Z</time></trkpt><trkpt lat="45.58979590415623" lon="10.424449951196827"><ele>398.0</ele><time>2026-04-04T13:49:50Z</time></trkpt><trkpt lat="45.589710045887756" lon="10.424420787348016"><ele>398.0</ele><time>2026-04-04T13:49:51Z</time></trkpt><trkpt lat="45.58961612585878" lon="10.424384299327507"><ele>398.0</ele><time>2026-04-04T13:49:52Z</time></trkpt><trkpt lat="45.589510792165306" lon="10.424326271290047"><ele>398.0</ele><time>2026-04-04T13:49:53Z</time></trkpt><trkpt lat="45.58940705208365" lon="10.424277022190179"><ele>398.0</ele><time>2026-04-04T13:49:54Z</time></trkpt><trkpt lat="45.58931171869549" lon="10.424250968504438"><ele>398.0</ele><time>2026-04-04T13:49:55Z</time></trkpt><trkpt lat="45.58922857600594" lon="10.424194168954479"><ele>398.2</ele><time>2026-04-04T13:49:56Z</time></trkpt><trkpt lat="45.58914337891273" lon="10.42412348607902"><ele>398.4</ele><time>2026-04-04T13:49:57Z</time></trkpt><trkpt lat="45.589041254789635" lon="10.424090984599447"><ele>398.59999999999997</ele><time>2026-04-04T13:49:58Z</time></trkpt><trkpt lat="45.588942366213914" lon="10.424075214208182"><ele>398.79999999999995</ele><time>2026-04-04T13:49:59Z</time></trkpt><trkpt lat="45.58886797780987" lon="10.424024782993682"><ele>399.0</ele><time>2026-04-04T13:50:00Z</time></trkpt><trkpt lat="45.588807787706855" lon="10.423975968562209"><ele>399.0</ele><time>2026-04-04T13:50:01Z</time></trkpt><trkpt lat="45.58874244745496" lon="10.423958945952837"><ele>399.0</ele><time>2026-04-04T13:50:02Z</time></trkpt><trkpt lat="45.588672001943685" lon="10.423961920577788"><ele>399.0</ele><time>2026-04-04T13:50:03Z</time></trkpt><trkpt lat="45.58861032814054" lon="10.42393783603101"><ele>399.0</ele><time>2026-04-04T13:50:04Z</time></trkpt><trkpt lat="45.58851786177264" lon="10.42389390746403"><ele>399.0</ele><time>2026-04-04T13:50:06Z</time></trkpt><trkpt lat="45.5884504968474" lon="10.42388388881655"><ele>399.0</ele><time>2026-04-04T13:50:09Z</time></trkpt><trkpt lat="45.588381991129694" lon="10.423882012284531"><ele>399.0</ele><time>2026-04-04T13:50:20Z</time></trkpt><trkpt lat="45.588443450561115" lon="10.423796432573356"><ele>401.1666666666667</ele><time>2026-04-04T13:50:38Z</time></trkpt><trkpt lat="45.588510918378134" lon="10.423791031328284"><ele>403.33333333333337</ele><time>2026-04-04T13:50:40Z</time></trkpt><trkpt lat="45.58857013823116" lon="10.4237467619741"><ele>405.5</ele><time>2026-04-04T13:50:44Z</time></trkpt><trkpt lat="45.58864007010006" lon="10.423697167338002"><ele>407.6666666666667</ele><time>2026-04-04T13:50:50Z</time></trkpt><trkpt lat="45.58872702700004" lon="10.423666638404708"><ele>409.83333333333337</ele><time>2026-04-04T13:51:03Z</time></trkpt><trkpt lat="45.5887913292333" lon="10.4236278734183"><ele>412.0</ele><time>2026-04-04T13:51:16Z</time></trkpt><trkpt lat="45.588872545544376" lon="10.423595635150894"><ele>412.00000000000006</ele><time>2026-04-04T13:51:19Z</time></trkpt><trkpt lat="45.58892050063481" lon="10.423537140649605"><ele>412.0</ele><time>2026-04-04T13:51:21Z</time></trkpt><trkpt lat="45.58900525515212" lon="10.423526874831207"><ele>412.0</ele><time>2026-04-04T13:51:23Z</time></trkpt><trkpt lat="45.5890548660511" lon="10.423464544383249"><ele>412.0</ele><time>2026-04-04T13:51:25Z</time></trkpt><trkpt lat="45.58911347980541" lon="10.423378701358702"><ele>412.00000000000006</ele><time>2026-04-04T13:51:27Z</time></trkpt><trkpt lat="45.58915488810905" lon="10.423308416020454"><ele>412.0</ele><time>2026-04-04T13:51:30Z</time></trkpt><trkpt lat="45.589197803675496" lon="10.423189088806573"><ele>412.00000000000006</ele><time>2026-04-04T13:51:33Z</time></trkpt><trkpt lat="45.58921168380423" lon="10.42305558869242"><ele>412.0</ele><time>2026-04-04T13:51:36Z</time></trkpt><trkpt lat="45.58923209789782" lon="10.422950023629316"><ele>412.0</ele><time>2026-04-04T13:51:38Z</time></trkpt><trkpt lat="45.58920196030129" lon="10.422830680387728"><ele>412.0</ele><time>2026-04-04T13:51:41Z</time></trkpt><trkpt lat="45.58919528834619" lon="10.422698946323202"><ele>412.00000000000006</ele><time>2026-04-04T13:51:44Z</time></trkpt><trkpt lat="45.589192178750935" lon="10.422572032439424"><ele>412.0</ele><time>2026-04-04T13:51:47.999Z</time></trkpt><trkpt lat="45.589177949447944" lon="10.422481209616226"><ele>413.00000000000006</ele><time>2026-04-04T13:51:49.999Z</time></trkpt><trkpt lat="45.58918762969989" lon="10.422371328749392"><ele>414.0</ele><time>2026-04-04T13:51:52Z</time></trkpt><trkpt lat="45.589187244218785" lon="10.422265328508402"><ele>415.0</ele><time>2026-04-04T13:51:54Z</time></trkpt><trkpt lat="45.58918017849014" lon="10.422138883044441"><ele>416.0</ele><time>2026-04-04T13:51:57Z</time></trkpt><trkpt lat="45.589179408153186" lon="10.422044851894286"><ele>417.00000000000006</ele><time>2026-04-04T13:51:59Z</time></trkpt><trkpt lat="45.589162478620516" lon="10.421946747967363"><ele>418.0</ele><time>2026-04-04T13:52:03Z</time></trkpt><trkpt lat="45.589151732672285" lon="10.421842045717302"><ele>419.33333333333337</ele><time>2026-04-04T13:53:04Z</time></trkpt><trkpt lat="45.589087486439944" lon="10.42178701700536"><ele>420.6666666666667</ele><time>2026-04-04T13:53:06Z</time></trkpt><trkpt lat="45.5889970611807" lon="10.42177375471736"><ele>422.0</ele><time>2026-04-04T13:53:08Z</time></trkpt><trkpt lat="45.58891226051435" lon="10.421719280805394"><ele>423.33333333333337</ele><time>2026-04-04T13:53:11Z</time></trkpt><trkpt lat="45.588832947390884" lon="10.421671726757596"><ele>424.6666666666667</ele><time>2026-04-04T13:53:14Z</time></trkpt><trkpt lat="45.58876161458566" lon="10.421606184367878"><ele>426.0</ele><time>2026-04-04T13:53:17Z</time></trkpt><trkpt lat="45.588683729414576" lon="10.421597512914914"><ele>429.1666666666667</ele><time>2026-04-04T13:53:20Z</time></trkpt><trkpt lat="45.58860442815956" lon="10.42158708522942"><ele>432.33333333333337</ele><time>2026-04-04T13:53:23Z</time></trkpt><trkpt lat="45.58852197444131" lon="10.421606487590111"><ele>435.5</ele><time>2026-04-04T13:53:26Z</time></trkpt><trkpt lat="45.58844922612443" lon="10.421645882849853"><ele>438.6666666666667</ele><time>2026-04-04T13:53:29Z</time></trkpt><trkpt lat="45.58836445738583" lon="10.421600248921125"><ele>441.83333333333337</ele><time>2026-04-04T13:53:32Z</time></trkpt><trkpt lat="45.588284545567014" lon="10.421564632134919"><ele>445.0</ele><time>2026-04-04T13:53:35Z</time></trkpt><trkpt lat="45.588223068837436" lon="10.421489519491349"><ele>445.00000000000006</ele><time>2026-04-04T13:53:38Z</time></trkpt><trkpt lat="45.588143140182424" lon="10.421432818331533"><ele>445.0</ele><time>2026-04-04T13:53:41Z</time></trkpt><trkpt lat="45.58807141281927" lon="10.421367447020293"><ele>445.0</ele><time>2026-04-04T13:53:43Z</time></trkpt><trkpt lat="45.5880142612101" lon="10.421290717628706"><ele>445.0</ele><time>2026-04-04T13:53:45Z</time></trkpt><trkpt lat="45.58796101124251" lon="10.421235645126078"><ele>445.00000000000006</ele><time>2026-04-04T13:53:47Z</time></trkpt><trkpt lat="45.587867615955666" lon="10.421181125740866"><ele>445.0</ele><time>2026-04-04T13:53:55.999Z</time></trkpt><trkpt lat="45.58787629344237" lon="10.421087033208169"><ele>445.2</ele><time>2026-04-04T13:53:59Z</time></trkpt><trkpt lat="45.587844791759856" lon="10.421002661960365"><ele>445.4</ele><time>2026-04-04T13:55:09Z</time></trkpt><trkpt lat="45.58786837910403" lon="10.420885282447092"><ele>445.6</ele><time>2026-04-04T13:55:11Z</time></trkpt><trkpt lat="45.587902531536166" lon="10.420740516129225"><ele>445.8</ele><time>2026-04-04T13:55:13Z</time></trkpt><trkpt lat="45.587885011072345" lon="10.420599972606787"><ele>446.0</ele><time>2026-04-04T13:55:15Z</time></trkpt><trkpt lat="45.58787700279619" lon="10.420458126808118"><ele>446.0</ele><time>2026-04-04T13:55:17Z</time></trkpt><trkpt lat="45.58789602733256" lon="10.420322408849481"><ele>446.0</ele><time>2026-04-04T13:55:19Z</time></trkpt><trkpt lat="45.587911285549296" lon="10.420208086422434"><ele>446.0</ele><time>2026-04-04T13:55:21Z</time></trkpt><trkpt lat="45.58791268710594" lon="10.420069466119546"><ele>446.0</ele><time>2026-04-04T13:55:23Z</time></trkpt><trkpt lat="45.587892596924874" lon="10.419937193862717"><ele>446.0</ele><time>2026-04-04T13:55:25Z</time></trkpt><trkpt lat="45.58787236746727" lon="10.419811286609677"><ele>446.20000000000005</ele><time>2026-04-04T13:55:27Z</time></trkpt><trkpt lat="45.58787041569628" lon="10.419647219998591"><ele>446.40000000000003</ele><time>2026-04-04T13:55:29Z</time></trkpt><trkpt lat="45.58786549774937" lon="10.419483969550852"><ele>446.6</ele><time>2026-04-04T13:55:31Z</time></trkpt><trkpt lat="45.58787384218044" lon="10.419366159525353"><ele>446.8</ele><time>2026-04-04T13:55:33Z</time></trkpt><trkpt lat="45.58788532948664" lon="10.419242726201173"><ele>447.0</ele><time>2026-04-04T13:55:35Z</time></trkpt><trkpt lat="45.58789737708132" lon="10.419111333024318"><ele>447.0</ele><time>2026-04-04T13:55:37Z</time></trkpt><trkpt lat="45.58791886494076" lon="10.418949042412889"><ele>447.00000000000006</ele><time>2026-04-04T13:55:40Z</time></trkpt><trkpt lat="45.58791329820044" lon="10.418799732870289"><ele>447.00000000000006</ele><time>2026-04-04T13:55:42Z</time></trkpt><trkpt lat="45.587901594198435" lon="10.418696169377924"><ele>447.0</ele><time>2026-04-04T13:55:44Z</time></trkpt><trkpt lat="45.58789603379651" lon="10.418801161795157"><ele>447.0</ele><time>2026-04-04T13:55:50Z</time></trkpt><trkpt lat="45.587920122423085" lon="10.418922965246917"><ele>447.0</ele><time>2026-04-04T13:55:52Z</time></trkpt><trkpt lat="45.587904057343124" lon="10.4190642540304"><ele>447.00000000000006</ele><time>2026-04-04T13:55:54Z</time></trkpt><trkpt lat="45.58787790027272" lon="10.419187395591859"><ele>447.00000000000006</ele><time>2026-04-04T13:55:55.999Z</time></trkpt><trkpt lat="45.58788198753088" lon="10.419335145575095"><ele>447.0</ele><time>2026-04-04T13:55:57.999Z</time></trkpt><trkpt lat="45.587871233943844" lon="10.419495673639434"><ele>447.0</ele><time>2026-04-04T13:55:59.999Z</time></trkpt><trkpt lat="45.58787672814545" lon="10.419615744516568"><ele>446.8</ele><time>2026-04-04T13:56:01.999Z</time></trkpt><trkpt lat="45.58787775822448" lon="10.419757588822586"><ele>446.6</ele><time>2026-04-04T13:56:04Z</time></trkpt><trkpt lat="45.58789404575894" lon="10.419903581133953"><ele>446.40000000000003</ele><time>2026-04-04T13:56:06Z</time></trkpt><trkpt lat="45.58792142326615" lon="10.420054587158589"><ele>446.20000000000005</ele><time>2026-04-04T13:56:08Z</time></trkpt><trkpt lat="45.587912608148685" lon="10.420229595830824"><ele>446.0</ele><time>2026-04-04T13:56:10Z</time></trkpt><trkpt lat="45.587901872964416" lon="10.420386981573996"><ele>446.20000000000005</ele><time>2026-04-04T13:56:12Z</time></trkpt><trkpt lat="45.587900575238564" lon="10.42055264102495"><ele>446.40000000000003</ele><time>2026-04-04T13:56:14Z</time></trkpt><trkpt lat="45.58790578131371" lon="10.420694289631806"><ele>446.6</ele><time>2026-04-04T13:56:16Z</time></trkpt><trkpt lat="45.58789334957898" lon="10.4208179262062"><ele>446.8</ele><time>2026-04-04T13:56:18Z</time></trkpt><trkpt lat="45.587863643316" lon="10.42093852278355"><ele>447.0</ele><time>2026-04-04T13:56:21Z</time></trkpt><trkpt lat="45.58786512465509" lon="10.421029210628166"><ele>447.0</ele><time>2026-04-04T13:56:23Z</time></trkpt><trkpt lat="45.58786828502045" lon="10.421121808077952"><ele>447.0</ele><time>2026-04-04T13:56:26Z</time></trkpt><trkpt lat="45.5878760110584" lon="10.421220328652382"><ele>447.0</ele><time>2026-04-04T14:18:55.999Z</time></trkpt><trkpt lat="45.58779782425251" lon="10.421297569461982"><ele>447.0</ele><time>2026-04-04T14:18:58.999Z</time></trkpt><trkpt lat="45.58771054720437" lon="10.421354751368963"><ele>447.0</ele><time>2026-04-04T14:19:00.999Z</time></trkpt><trkpt lat="45.58760171976666" lon="10.42140591408718"><ele>447.0</ele><time>2026-04-04T14:19:02.999Z</time></trkpt><trkpt lat="45.58748839562843" lon="10.42141941433123"><ele>449.8</ele><time>2026-04-04T14:19:04.999Z</time></trkpt><trkpt lat="45.58738804124457" lon="10.421411795651839"><ele>452.6</ele><time>2026-04-04T14:19:06.999Z</time></trkpt><trkpt lat="45.58726538316062" lon="10.421460006747687"><ele>455.40000000000003</ele><time>2026-04-04T14:19:09Z</time></trkpt><trkpt lat="45.5871924543807" lon="10.421448862824551"><ele>458.20000000000005</ele><time>2026-04-04T14:19:10Z</time></trkpt><trkpt lat="45.58706871901885" lon="10.42146170401344"><ele>461.0</ele><time>2026-04-04T14:19:12Z</time></trkpt><trkpt lat="45.58693715683953" lon="10.42150406666833"><ele>461.3333333333333</ele><time>2026-04-04T14:19:14Z</time></trkpt><trkpt lat="45.58687473091861" lon="10.421524744227565"><ele>461.66666666666663</ele><time>2026-04-04T14:19:15Z</time></trkpt><trkpt lat="45.58680094974827" lon="10.421552554800865"><ele>462.0</ele><time>2026-04-04T14:19:16Z</time></trkpt><trkpt lat="45.586716237828604" lon="10.42156708364986"><ele>462.33333333333337</ele><time>2026-04-04T14:19:17Z</time></trkpt><trkpt lat="45.58663859832305" lon="10.421526995461306"><ele>462.6666666666667</ele><time>2026-04-04T14:19:18Z</time></trkpt><trkpt lat="45.586561993850594" lon="10.421472481107193"><ele>463.0</ele><time>2026-04-04T14:19:19Z</time></trkpt><trkpt lat="45.58648516278526" lon="10.421424916361506"><ele>463.00000000000006</ele><time>2026-04-04T14:19:20Z</time></trkpt><trkpt lat="45.58639563791847" lon="10.421390444401407"><ele>463.0</ele><time>2026-04-04T14:19:21Z</time></trkpt><trkpt lat="45.586313891270976" lon="10.421351294724008"><ele>463.0</ele><time>2026-04-04T14:19:22Z</time></trkpt><trkpt lat="45.586226977165694" lon="10.421300768921128"><ele>463.0</ele><time>2026-04-04T14:19:23Z</time></trkpt><trkpt lat="45.586140917321984" lon="10.42127505799896"><ele>463.00000000000006</ele><time>2026-04-04T14:19:24Z</time></trkpt><trkpt lat="45.5860549892006" lon="10.421254505534465"><ele>463.0</ele><time>2026-04-04T14:19:25Z</time></trkpt><trkpt lat="45.585977858834475" lon="10.421246089078476"><ele>463.50000000000006</ele><time>2026-04-04T14:19:26Z</time></trkpt><trkpt lat="45.58589769562259" lon="10.421245548523004"><ele>464.0</ele><time>2026-04-04T14:19:27Z</time></trkpt><trkpt lat="45.58581864398526" lon="10.42125809713996"><ele>464.5</ele><time>2026-04-04T14:19:28Z</time></trkpt><trkpt lat="45.585735629983375" lon="10.421262579390524"><ele>465.0</ele><time>2026-04-04T14:19:29Z</time></trkpt><trkpt lat="45.5856684471719" lon="10.421256357691718"><ele>465.50000000000006</ele><time>2026-04-04T14:19:30Z</time></trkpt><trkpt lat="45.585574798118294" lon="10.421255702592362"><ele>466.0</ele><time>2026-04-04T14:19:32Z</time></trkpt><trkpt lat="45.585612085853676" lon="10.42113767636422"><ele>466.0</ele><time>2026-04-04T14:19:37Z</time></trkpt><trkpt lat="45.58570750762942" lon="10.421098499280479"><ele>466.0</ele><time>2026-04-04T14:19:39Z</time></trkpt><trkpt lat="45.585825928944374" lon="10.421027820469433"><ele>466.0</ele><time>2026-04-04T14:19:41Z</time></trkpt><trkpt lat="45.585901914179054" lon="10.42099730835169"><ele>466.0</ele><time>2026-04-04T14:19:42Z</time></trkpt><trkpt lat="45.5859766123517" lon="10.420962218218527"><ele>466.0</ele><time>2026-04-04T14:19:43Z</time></trkpt><trkpt lat="45.586053649940865" lon="10.42091847314784"><ele>466.00000000000006</ele><time>2026-04-04T14:19:44Z</time></trkpt><trkpt lat="45.58613271126659" lon="10.420870938636785"><ele>466.0</ele><time>2026-04-04T14:19:45Z</time></trkpt><trkpt lat="45.586206131764726" lon="10.420819096867634"><ele>466.0</ele><time>2026-04-04T14:19:46Z</time></trkpt><trkpt lat="45.586276794812115" lon="10.420756427441669"><ele>466.0</ele><time>2026-04-04T14:19:47Z</time></trkpt><trkpt lat="45.586367458030274" lon="10.420700076568112"><ele>466.00000000000006</ele><time>2026-04-04T14:19:48Z</time></trkpt><trkpt lat="45.58645294891441" lon="10.42065003489081"><ele>466.0</ele><time>2026-04-04T14:19:49Z</time></trkpt><trkpt lat="45.58654258979267" lon="10.420597922809971"><ele>468.20000000000005</ele><time>2026-04-04T14:19:50Z</time></trkpt><trkpt lat="45.58661748898247" lon="10.420537046700025"><ele>470.40000000000003</ele><time>2026-04-04T14:19:51Z</time></trkpt><trkpt lat="45.58669112708114" lon="10.420459673071106"><ele>472.6</ele><time>2026-04-04T14:19:52Z</time></trkpt><trkpt lat="45.58674272404366" lon="10.420356850044397"><ele>474.8</ele><time>2026-04-04T14:19:53Z</time></trkpt><trkpt lat="45.58670764306824" lon="10.420206070997162"><ele>477.0</ele><time>2026-04-04T14:19:54Z</time></trkpt><trkpt lat="45.58670202256168" lon="10.420059297075007"><ele>478.75</ele><time>2026-04-04T14:19:55Z</time></trkpt><trkpt lat="45.586701748336786" lon="10.419886803573496"><ele>480.5</ele><time>2026-04-04T14:19:56Z</time></trkpt><trkpt lat="45.5867358599128" lon="10.41969577312774"><ele>482.25</ele><time>2026-04-04T14:19:57Z</time></trkpt><trkpt lat="45.58677235926255" lon="10.419494634091945"><ele>484.0</ele><time>2026-04-04T14:19:58Z</time></trkpt><trkpt lat="45.586800286567936" lon="10.419275523924165"><ele>485.4</ele><time>2026-04-04T14:19:59Z</time></trkpt><trkpt lat="45.58680725197434" lon="10.419073071423082"><ele>486.79999999999995</ele><time>2026-04-04T14:20:00Z</time></trkpt><trkpt lat="45.58679294562569" lon="10.418925775766844"><ele>488.20000000000005</ele><time>2026-04-04T14:20:01Z</time></trkpt><trkpt lat="45.58675610801659" lon="10.418805619886879"><ele>489.6</ele><time>2026-04-04T14:20:02Z</time></trkpt><trkpt lat="45.58670200011684" lon="10.418711414021217"><ele>491.0</ele><time>2026-04-04T14:20:03Z</time></trkpt><trkpt lat="45.58659647626279" lon="10.418676442800567"><ele>492.20000000000005</ele><time>2026-04-04T14:20:04Z</time></trkpt><trkpt lat="45.586491509162556" lon="10.418647398103703"><ele>493.40000000000003</ele><time>2026-04-04T14:20:04.999Z</time></trkpt><trkpt lat="45.586382098689505" lon="10.418617197353754"><ele>494.6</ele><time>2026-04-04T14:20:05.999Z</time></trkpt><trkpt lat="45.58627852755498" lon="10.418557015049828"><ele>495.8</ele><time>2026-04-04T14:20:06.999Z</time></trkpt><trkpt lat="45.586175107493474" lon="10.418497352869386"><ele>497.0</ele><time>2026-04-04T14:20:07.999Z</time></trkpt><trkpt lat="45.58606775656298" lon="10.418465487904397"><ele>499.0</ele><time>2026-04-04T14:20:08.999Z</time></trkpt><trkpt lat="45.585961264378405" lon="10.418428949240603"><ele>501.0</ele><time>2026-04-04T14:20:09.999Z</time></trkpt><trkpt lat="45.585853137945186" lon="10.418379525752185"><ele>503.0</ele><time>2026-04-04T14:20:10.999Z</time></trkpt><trkpt lat="45.58574459285596" lon="10.418322856065597"><ele>505.0</ele><time>2026-04-04T14:20:11.999Z</time></trkpt><trkpt lat="45.58564333445208" lon="10.41824244379512"><ele>505.0</ele><time>2026-04-04T14:20:12.999Z</time></trkpt><trkpt lat="45.58555015135921" lon="10.418145376004906"><ele>505.0</ele><time>2026-04-04T14:20:13.999Z</time></trkpt><trkpt lat="45.585458191315254" lon="10.418025830573542"><ele>505.0</ele><time>2026-04-04T14:20:14.999Z</time></trkpt><trkpt lat="45.58537073522029" lon="10.417884067193475"><ele>505.0</ele><time>2026-04-04T14:20:15.999Z</time></trkpt><trkpt lat="45.58528264100437" lon="10.417724449891912"><ele>505.0</ele><time>2026-04-04T14:20:16.999Z</time></trkpt><trkpt lat="45.5852001479912" lon="10.417552647098546"><ele>505.0</ele><time>2026-04-04T14:20:17.999Z</time></trkpt><trkpt lat="45.58512212518609" lon="10.417380664333649"><ele>505.0</ele><time>2026-04-04T14:20:18.999Z</time></trkpt><trkpt lat="45.58503602445125" lon="10.417205768081216"><ele>505.0</ele><time>2026-04-04T14:20:19.999Z</time></trkpt><trkpt lat="45.58494803250647" lon="10.41702434240358"><ele>505.6666666666667</ele><time>2026-04-04T14:20:20.999Z</time></trkpt><trkpt lat="45.58486145503428" lon="10.41683888151181"><ele>506.33333333333337</ele><time>2026-04-04T14:20:21.999Z</time></trkpt><trkpt lat="45.584780827028446" lon="10.416660812946466"><ele>507.0</ele><time>2026-04-04T14:20:22.999Z</time></trkpt><trkpt lat="45.58469952213391" lon="10.41647949108854"><ele>509.0</ele><time>2026-04-04T14:20:23.999Z</time></trkpt><trkpt lat="45.584614019506844" lon="10.416307689504979"><ele>511.0</ele><time>2026-04-04T14:20:24.999Z</time></trkpt><trkpt lat="45.584530163442764" lon="10.416137592358702"><ele>513.0</ele><time>2026-04-04T14:20:25.999Z</time></trkpt><trkpt lat="45.584452260718095" lon="10.415980192113741"><ele>515.0</ele><time>2026-04-04T14:20:26.999Z</time></trkpt><trkpt lat="45.58437297422351" lon="10.41583243824355"><ele>515.0</ele><time>2026-04-04T14:20:27.999Z</time></trkpt><trkpt lat="45.58428392293845" lon="10.415711101462934"><ele>515.0</ele><time>2026-04-04T14:20:28.999Z</time></trkpt><trkpt lat="45.584189172562645" lon="10.415612390334562"><ele>515.0</ele><time>2026-04-04T14:20:29.999Z</time></trkpt><trkpt lat="45.584085665517904" lon="10.415529526444285"><ele>515.0</ele><time>2026-04-04T14:20:30.999Z</time></trkpt><trkpt lat="45.58398059002032" lon="10.415453719804603"><ele>518.25</ele><time>2026-04-04T14:20:31.999Z</time></trkpt><trkpt lat="45.58388092109001" lon="10.415378571680932"><ele>521.5</ele><time>2026-04-04T14:20:32.999Z</time></trkpt><trkpt lat="45.583783650387176" lon="10.415286824692048"><ele>524.75</ele><time>2026-04-04T14:20:33.999Z</time></trkpt><trkpt lat="45.5836998830525" lon="10.415170769960934"><ele>528.0</ele><time>2026-04-04T14:20:34.999Z</time></trkpt><trkpt lat="45.58364008610117" lon="10.41504047343486"><ele>528.4</ele><time>2026-04-04T14:20:35.999Z</time></trkpt><trkpt lat="45.583590086934585" lon="10.414902040195859"><ele>528.8</ele><time>2026-04-04T14:20:36.999Z</time></trkpt><trkpt lat="45.583542750392155" lon="10.414783509013036"><ele>529.2</ele><time>2026-04-04T14:20:37.999Z</time></trkpt><trkpt lat="45.58348957050928" lon="10.414674697121178"><ele>529.6</ele><time>2026-04-04T14:20:38.999Z</time></trkpt><trkpt lat="45.58342712456751" lon="10.414568057117714"><ele>530.0</ele><time>2026-04-04T14:20:39.999Z</time></trkpt><trkpt lat="45.58335416213755" lon="10.41445652760945"><ele>533.5</ele><time>2026-04-04T14:20:40.999Z</time></trkpt><trkpt lat="45.58327176434323" lon="10.414314567869887"><ele>537.0</ele><time>2026-04-04T14:20:41.999Z</time></trkpt><trkpt lat="45.58316171476072" lon="10.414231932943414"><ele>540.5</ele><time>2026-04-04T14:20:42.999Z</time></trkpt><trkpt lat="45.58306188649389" lon="10.414142605807184"><ele>544.0</ele><time>2026-04-04T14:20:43.999Z</time></trkpt><trkpt lat="45.58297461635676" lon="10.414040462583543"><ele>544.0</ele><time>2026-04-04T14:20:44.999Z</time></trkpt><trkpt lat="45.58289941895519" lon="10.413912324768557"><ele>544.0</ele><time>2026-04-04T14:20:45.999Z</time></trkpt><trkpt lat="45.58282774650658" lon="10.41377305709586"><ele>544.0</ele><time>2026-04-04T14:20:46.999Z</time></trkpt><trkpt lat="45.582756068159824" lon="10.41362879184548"><ele>544.0</ele><time>2026-04-04T14:20:47.999Z</time></trkpt><trkpt lat="45.582699117378944" lon="10.413468430472703"><ele>544.5</ele><time>2026-04-04T14:20:48.999Z</time></trkpt><trkpt lat="45.58266293096218" lon="10.413302222054247"><ele>545.0</ele><time>2026-04-04T14:20:49.999Z</time></trkpt><trkpt lat="45.58264305800487" lon="10.41314416200783"><ele>545.5</ele><time>2026-04-04T14:20:50.999Z</time></trkpt><trkpt lat="45.58262337310685" lon="10.41298898142116"><ele>546.0</ele><time>2026-04-04T14:20:51.999Z</time></trkpt><trkpt lat="45.58260268333308" lon="10.412826360953236"><ele>548.6</ele><time>2026-04-04T14:20:52.999Z</time></trkpt><trkpt lat="45.582588249978976" lon="10.412662197494575"><ele>551.2</ele><time>2026-04-04T14:20:53.999Z</time></trkpt><trkpt lat="45.58257817447816" lon="10.412513958467192"><ele>553.8</ele><time>2026-04-04T14:20:54.999Z</time></trkpt><trkpt lat="45.582571323356945" lon="10.412372242181178"><ele>556.4</ele><time>2026-04-04T14:20:55.999Z</time></trkpt><trkpt lat="45.58257324030912" lon="10.412228946384985"><ele>559.0</ele><time>2026-04-04T14:20:56.999Z</time></trkpt><trkpt lat="45.582581584881225" lon="10.412096685288473"><ele>561.8</ele><time>2026-04-04T14:20:57.999Z</time></trkpt><trkpt lat="45.58257052493135" lon="10.411963968503978"><ele>564.5999999999999</ele><time>2026-04-04T14:20:58.999Z</time></trkpt><trkpt lat="45.58254329930752" lon="10.411833092875021"><ele>567.4</ele><time>2026-04-04T14:20:59.999Z</time></trkpt><trkpt lat="45.582511925986985" lon="10.411700863794781"><ele>570.1999999999999</ele><time>2026-04-04T14:21:00.999Z</time></trkpt><trkpt lat="45.582501999405864" lon="10.41156058007184"><ele>573.0</ele><time>2026-04-04T14:21:01.999Z</time></trkpt><trkpt lat="45.58249345875705" lon="10.411426753351076"><ele>575.6</ele><time>2026-04-04T14:21:02.999Z</time></trkpt><trkpt lat="45.582463328815415" lon="10.41131322443068"><ele>578.1999999999999</ele><time>2026-04-04T14:21:03.999Z</time></trkpt><trkpt lat="45.58240145835248" lon="10.411246190892339"><ele>580.8</ele><time>2026-04-04T14:21:04.999Z</time></trkpt><trkpt lat="45.582325800673146" lon="10.411172575340904"><ele>583.4</ele><time>2026-04-04T14:21:05.999Z</time></trkpt><trkpt lat="45.58222589289338" lon="10.41123230211954"><ele>586.0</ele><time>2026-04-04T14:21:06.999Z</time></trkpt><trkpt lat="45.58213697478959" lon="10.411244525585198"><ele>586.0</ele><time>2026-04-04T14:21:07.999Z</time></trkpt><trkpt lat="45.58205426657453" lon="10.411261506237"><ele>586.0</ele><time>2026-04-04T14:21:08.999Z</time></trkpt><trkpt lat="45.58197202159152" lon="10.411257988879278"><ele>586.0</ele><time>2026-04-04T14:21:09.999Z</time></trkpt><trkpt lat="45.581888207685715" lon="10.411248971067383"><ele>586.0</ele><time>2026-04-04T14:21:10.999Z</time></trkpt><trkpt lat="45.58180248070746" lon="10.411256238508454"><ele>586.0</ele><time>2026-04-04T14:21:11.999Z</time></trkpt><trkpt lat="45.58171979839871" lon="10.4112286613064"><ele>586.0</ele><time>2026-04-04T14:21:12.999Z</time></trkpt><trkpt lat="45.58163727659727" lon="10.411190002410848"><ele>585.3333333333334</ele><time>2026-04-04T14:21:13.999Z</time></trkpt><trkpt lat="45.581557777544724" lon="10.411138432212194"><ele>584.6666666666667</ele><time>2026-04-04T14:21:15Z</time></trkpt><trkpt lat="45.58147914482194" lon="10.411075261243118"><ele>584.0</ele><time>2026-04-04T14:21:16Z</time></trkpt><trkpt lat="45.5814143158312" lon="10.410992313537477"><ele>583.3333333333334</ele><time>2026-04-04T14:21:17Z</time></trkpt><trkpt lat="45.581374224289846" lon="10.410919150027194"><ele>582.6666666666666</ele><time>2026-04-04T14:21:18Z</time></trkpt><trkpt lat="45.58134625656059" lon="10.410794887763684"><ele>582.0</ele><time>2026-04-04T14:21:21Z</time></trkpt><trkpt lat="45.58131028583041" lon="10.410656993889596"><ele>582.0</ele><time>2026-04-04T14:21:23Z</time></trkpt><trkpt lat="45.581285588679584" lon="10.410564146872975"><ele>582.0</ele><time>2026-04-04T14:21:24Z</time></trkpt><trkpt lat="45.581259696188496" lon="10.410466808915373"><ele>582.0</ele><time>2026-04-04T14:21:25Z</time></trkpt><trkpt lat="45.58124338522808" lon="10.410376936631085"><ele>582.0</ele><time>2026-04-04T14:21:26Z</time></trkpt><trkpt lat="45.58122783374157" lon="10.41027487155832"><ele>582.0</ele><time>2026-04-04T14:21:27Z</time></trkpt><trkpt lat="45.58121357952172" lon="10.410169997017428"><ele>582.0</ele><time>2026-04-04T14:21:28Z</time></trkpt><trkpt lat="45.581196869126565" lon="10.410046803363555"><ele>582.0</ele><time>2026-04-04T14:21:29Z</time></trkpt><trkpt lat="45.580932207051255" lon="10.409988185672953"><ele>582.0</ele><time>2026-04-04T14:21:30Z</time></trkpt><trkpt lat="45.58089471300544" lon="10.409874122462067"><ele>582.0</ele><time>2026-04-04T14:21:31Z</time></trkpt><trkpt lat="45.58086672275189" lon="10.409748445608944"><ele>582.0</ele><time>2026-04-04T14:21:32Z</time></trkpt><trkpt lat="45.580834251179084" lon="10.409623736212072"><ele>582.0</ele><time>2026-04-04T14:21:33Z</time></trkpt><trkpt lat="45.580803512851304" lon="10.409496878158624"><ele>582.0</ele><time>2026-04-04T14:21:34Z</time></trkpt><trkpt lat="45.580774964728484" lon="10.409377666025408"><ele>582.0</ele><time>2026-04-04T14:21:35Z</time></trkpt><trkpt lat="45.58075320953418" lon="10.409249208174355"><ele>582.0</ele><time>2026-04-04T14:21:36Z</time></trkpt><trkpt lat="45.580742329933656" lon="10.40911076180257"><ele>582.0</ele><time>2026-04-04T14:21:37Z</time></trkpt><trkpt lat="45.58073568930971" lon="10.408969251619716"><ele>582.0</ele><time>2026-04-04T14:21:38Z</time></trkpt><trkpt lat="45.58072672466088" lon="10.408829472338931"><ele>582.0</ele><time>2026-04-04T14:21:39Z</time></trkpt><trkpt lat="45.5807170514153" lon="10.408699638046672"><ele>582.6666666666666</ele><time>2026-04-04T14:21:40Z</time></trkpt><trkpt lat="45.58071453023328" lon="10.408584891323477"><ele>583.3333333333334</ele><time>2026-04-04T14:21:41Z</time></trkpt><trkpt lat="45.58071630192634" lon="10.408476899500876"><ele>584.0</ele><time>2026-04-04T14:21:42Z</time></trkpt><trkpt lat="45.580692056445265" lon="10.408367704136099"><ele>584.6666666666667</ele><time>2026-04-04T14:21:43Z</time></trkpt><trkpt lat="45.580658140840455" lon="10.408266317385833"><ele>585.3333333333334</ele><time>2026-04-04T14:21:44Z</time></trkpt><trkpt lat="45.58062476790564" lon="10.40814815389718"><ele>586.0</ele><time>2026-04-04T14:21:45Z</time></trkpt><trkpt lat="45.58060190721581" lon="10.40803356602008"><ele>585.8</ele><time>2026-04-04T14:21:46Z</time></trkpt><trkpt lat="45.580581725418206" lon="10.407904798611929"><ele>585.6</ele><time>2026-04-04T14:21:47Z</time></trkpt><trkpt lat="45.58055366896177" lon="10.407758130489732"><ele>585.4</ele><time>2026-04-04T14:21:48Z</time></trkpt><trkpt lat="45.580535768363234" lon="10.40762204998889"><ele>585.2</ele><time>2026-04-04T14:21:49Z</time></trkpt><trkpt lat="45.580525233917115" lon="10.407493027185257"><ele>585.0</ele><time>2026-04-04T14:21:50Z</time></trkpt><trkpt lat="45.580522645872804" lon="10.407374284212903"><ele>585.0</ele><time>2026-04-04T14:21:51Z</time></trkpt><trkpt lat="45.580507592558575" lon="10.4072379855752"><ele>585.0</ele><time>2026-04-04T14:21:52Z</time></trkpt><trkpt lat="45.58047753509453" lon="10.407113747732284"><ele>585.0</ele><time>2026-04-04T14:21:53Z</time></trkpt><trkpt lat="45.58047691683275" lon="10.406997067176308"><ele>585.0</ele><time>2026-04-04T14:21:54Z</time></trkpt><trkpt lat="45.58049497864987" lon="10.406864715312077"><ele>585.0</ele><time>2026-04-04T14:21:55Z</time></trkpt><trkpt lat="45.58050630311553" lon="10.406719872181888"><ele>584.6666666666666</ele><time>2026-04-04T14:21:56Z</time></trkpt><trkpt lat="45.580502250254014" lon="10.40660241948945"><ele>584.3333333333334</ele><time>2026-04-04T14:21:57Z</time></trkpt><trkpt lat="45.580475863955535" lon="10.406493073757316"><ele>584.0</ele><time>2026-04-04T14:21:58Z</time></trkpt><trkpt lat="45.580445241807816" lon="10.406403393103458"><ele>583.6666666666667</ele><time>2026-04-04T14:21:59Z</time></trkpt><trkpt lat="45.5803947954262" lon="10.406332319396949"><ele>583.3333333333334</ele><time>2026-04-04T14:22:00Z</time></trkpt><trkpt lat="45.580316551187586" lon="10.406280655620138"><ele>583.0</ele><time>2026-04-04T14:22:01Z</time></trkpt><trkpt lat="45.58022351762736" lon="10.406270665454091"><ele>583.0</ele><time>2026-04-04T14:22:02Z</time></trkpt><trkpt lat="45.580123855288015" lon="10.406262024578915"><ele>583.0</ele><time>2026-04-04T14:22:03Z</time></trkpt><trkpt lat="45.5800559366718" lon="10.406265808738004"><ele>583.0</ele><time>2026-04-04T14:22:04Z</time></trkpt><trkpt lat="45.58000130902071" lon="10.406313094862748"><ele>583.0</ele><time>2026-04-04T14:22:05Z</time></trkpt><trkpt lat="45.57994781087934" lon="10.406383905132689"><ele>583.0</ele><time>2026-04-04T14:22:05.999Z</time></trkpt><trkpt lat="45.57982584778619" lon="10.406523655212014"><ele>583.0000000000001</ele><time>2026-04-04T14:22:07.999Z</time></trkpt><trkpt lat="45.57976300605322" lon="10.40660124304767"><ele>583.0</ele><time>2026-04-04T14:22:08.999Z</time></trkpt><trkpt lat="45.57970868105675" lon="10.406661953033764"><ele>583.0</ele><time>2026-04-04T14:22:09.999Z</time></trkpt><trkpt lat="45.579653900551946" lon="10.406737695024088"><ele>583.0</ele><time>2026-04-04T14:22:10.999Z</time></trkpt><trkpt lat="45.57960980426483" lon="10.406808148865933"><ele>583.0</ele><time>2026-04-04T14:22:11.999Z</time></trkpt><trkpt lat="45.57955740944047" lon="10.406864394084396"><ele>583.0000000000001</ele><time>2026-04-04T14:22:12.999Z</time></trkpt><trkpt lat="45.579483967808734" lon="10.406915385766823"><ele>583.0</ele><time>2026-04-04T14:22:13.999Z</time></trkpt><trkpt lat="45.579425063606685" lon="10.406961496765916"><ele>583.0</ele><time>2026-04-04T14:22:14.999Z</time></trkpt><trkpt lat="45.5792980360118" lon="10.40712576100773"><ele>583.0</ele><time>2026-04-04T14:22:16.999Z</time></trkpt><trkpt lat="45.57922395355279" lon="10.40718802651569"><ele>583.0</ele><time>2026-04-04T14:22:17.999Z</time></trkpt><trkpt lat="45.57916412071" lon="10.407264970038366"><ele>583.0</ele><time>2026-04-04T14:22:22.999Z</time></trkpt><trkpt lat="45.57912109576937" lon="10.40719773453061"><ele>583.0</ele><time>2026-04-04T14:22:27.999Z</time></trkpt><trkpt lat="45.57911994070266" lon="10.407068494932336"><ele>583.0</ele><time>2026-04-04T14:22:30.999Z</time></trkpt><trkpt lat="45.57907042724335" lon="10.406969959899284"><ele>583.0</ele><time>2026-04-04T14:22:32.999Z</time></trkpt><trkpt lat="45.57901919469156" lon="10.406906820151535"><ele>583.0</ele><time>2026-04-04T14:22:37.999Z</time></trkpt><trkpt lat="45.5788841221462" lon="10.406806254940463"><ele>583.0</ele><time>2026-04-04T14:22:44.999Z</time></trkpt><trkpt lat="45.57884093960426" lon="10.406717644943047"><ele>583.0</ele><time>2026-04-04T14:23:26Z</time></trkpt><trkpt lat="45.5787511575671" lon="10.406675978459342"><ele>584.4</ele><time>2026-04-04T14:23:30Z</time></trkpt><trkpt lat="45.578654621052124" lon="10.406670761626561"><ele>585.8</ele><time>2026-04-04T14:23:33Z</time></trkpt><trkpt lat="45.57856871800492" lon="10.406674563973763"><ele>587.2</ele><time>2026-04-04T14:23:36Z</time></trkpt><trkpt lat="45.57849670415452" lon="10.4066889968823"><ele>588.6</ele><time>2026-04-04T14:23:38Z</time></trkpt><trkpt lat="45.57840129997419" lon="10.406732957008307"><ele>590.0</ele><time>2026-04-04T14:23:40Z</time></trkpt><trkpt lat="45.57833060160975" lon="10.406643030838866"><ele>590.0</ele><time>2026-04-04T14:23:42Z</time></trkpt><trkpt lat="45.578278667483865" lon="10.40654012699281"><ele>590.0</ele><time>2026-04-04T14:23:45Z</time></trkpt><trkpt lat="45.57803842366668" lon="10.406327464442914"><ele>590.0</ele><time>2026-04-04T14:23:48Z</time></trkpt><trkpt lat="45.5779621065585" lon="10.406317017526204"><ele>590.0</ele><time>2026-04-04T14:23:50Z</time></trkpt><trkpt lat="45.5778868053217" lon="10.406301207796616"><ele>592.0</ele><time>2026-04-04T14:23:52Z</time></trkpt><trkpt lat="45.577838481072334" lon="10.406243154419164"><ele>594.0</ele><time>2026-04-04T14:23:54Z</time></trkpt><trkpt lat="45.57783939289572" lon="10.406146923495085"><ele>596.0</ele><time>2026-04-04T14:23:56Z</time></trkpt><trkpt lat="45.57779749661504" lon="10.406049565117995"><ele>598.0</ele><time>2026-04-04T14:23:59Z</time></trkpt><trkpt lat="45.57773937629739" lon="10.406002921186174"><ele>600.0</ele><time>2026-04-04T14:24:01Z</time></trkpt><trkpt lat="45.57766319408094" lon="10.405942786541585"><ele>602.0</ele><time>2026-04-04T14:24:03Z</time></trkpt><trkpt lat="45.57758113328403" lon="10.40589900581897"><ele>602.0</ele><time>2026-04-04T14:24:05Z</time></trkpt><trkpt lat="45.577562686854016" lon="10.405777200190396"><ele>602.0</ele><time>2026-04-04T14:24:09Z</time></trkpt><trkpt lat="45.57725355236827" lon="10.405560237383266"><ele>602.0</ele><time>2026-04-04T14:24:12.999Z</time></trkpt><trkpt lat="45.57719774274276" lon="10.40550513194214"><ele>603.0</ele><time>2026-04-04T14:24:13.999Z</time></trkpt><trkpt lat="45.57714732097903" lon="10.405443322095765"><ele>604.0</ele><time>2026-04-04T14:24:14.999Z</time></trkpt><trkpt lat="45.577085630391444" lon="10.405309769146474"><ele>605.0</ele><time>2026-04-04T14:24:16.999Z</time></trkpt><trkpt lat="45.57702739675474" lon="10.40517821951076"><ele>606.0</ele><time>2026-04-04T14:24:18.999Z</time></trkpt><trkpt lat="45.576955770731104" lon="10.405070889302598"><ele>607.0</ele><time>2026-04-04T14:24:20.999Z</time></trkpt><trkpt lat="45.5768983101149" lon="10.40492161836818"><ele>607.0</ele><time>2026-04-04T14:24:22.999Z</time></trkpt><trkpt lat="45.57687085810921" lon="10.404834478969152"><ele>607.0</ele><time>2026-04-04T14:24:23.999Z</time></trkpt><trkpt lat="45.576849991798476" lon="10.404731971777796"><ele>607.0</ele><time>2026-04-04T14:24:24.999Z</time></trkpt><trkpt lat="45.576843620363725" lon="10.404602772730751"><ele>607.0</ele><time>2026-04-04T14:24:25.999Z</time></trkpt><trkpt lat="45.57685912165006" lon="10.404480376833781"><ele>607.0</ele><time>2026-04-04T14:24:26.999Z</time></trkpt><trkpt lat="45.5768671396153" lon="10.404369771196892"><ele>607.0</ele><time>2026-04-04T14:24:27.999Z</time></trkpt><trkpt lat="45.576879562323775" lon="10.40427300444421"><ele>608.2</ele><time>2026-04-04T14:24:28.999Z</time></trkpt><trkpt lat="45.57690589783425" lon="10.404187652413171"><ele>609.4000000000001</ele><time>2026-04-04T14:24:29.999Z</time></trkpt><trkpt lat="45.57704029777459" lon="10.404180839577924"><ele>610.5999999999999</ele><time>2026-04-04T14:24:30.999Z</time></trkpt><trkpt lat="45.57708438259866" lon="10.404084474975898"><ele>611.8</ele><time>2026-04-04T14:24:32.999Z</time></trkpt><trkpt lat="45.57703045334846" lon="10.403954140443009"><ele>613.0</ele><time>2026-04-04T14:24:34.999Z</time></trkpt><trkpt lat="45.577021612180346" lon="10.403845792864459"><ele>613.8</ele><time>2026-04-04T14:24:36.999Z</time></trkpt><trkpt lat="45.57702664845784" lon="10.403732145244454"><ele>614.5999999999999</ele><time>2026-04-04T14:24:38.999Z</time></trkpt><trkpt lat="45.57704322486532" lon="10.403555702217952"><ele>615.4000000000001</ele><time>2026-04-04T14:24:40.999Z</time></trkpt><trkpt lat="45.577049112200164" lon="10.403385013266634"><ele>616.2</ele><time>2026-04-04T14:24:42.999Z</time></trkpt><trkpt lat="45.57697101001825" lon="10.403254129655112"><ele>617.0</ele><time>2026-04-04T14:24:45.999Z</time></trkpt><trkpt lat="45.57695395664567" lon="10.403138051854599"><ele>617.0</ele><time>2026-04-04T14:24:46.999Z</time></trkpt><trkpt lat="45.576936774700116" lon="10.403024858480558"><ele>617.0</ele><time>2026-04-04T14:24:47.999Z</time></trkpt><trkpt lat="45.57687864947293" lon="10.402918753856614"><ele>617.0</ele><time>2026-04-04T14:24:48.999Z</time></trkpt><trkpt lat="45.576813837914465" lon="10.402860749872685"><ele>617.0</ele><time>2026-04-04T14:24:49.999Z</time></trkpt><trkpt lat="45.57674239063617" lon="10.402802349942652"><ele>617.0</ele><time>2026-04-04T14:24:50.999Z</time></trkpt><trkpt lat="45.57666331507683" lon="10.4027607358417"><ele>617.0</ele><time>2026-04-04T14:24:51.999Z</time></trkpt><trkpt lat="45.57657322612567" lon="10.402757038755581"><ele>618.5</ele><time>2026-04-04T14:24:52.999Z</time></trkpt><trkpt lat="45.57649524349652" lon="10.402743646161444"><ele>620.0</ele><time>2026-04-04T14:24:53.999Z</time></trkpt><trkpt lat="45.576389400721176" lon="10.402679430627966"><ele>621.5</ele><time>2026-04-04T14:24:55.999Z</time></trkpt><trkpt lat="45.57634323100302" lon="10.40260034094362"><ele>623.0</ele><time>2026-04-04T14:24:56.999Z</time></trkpt><trkpt lat="45.57630206442123" lon="10.402505227421608"><ele>624.5</ele><time>2026-04-04T14:24:58.999Z</time></trkpt><trkpt lat="45.57625492189917" lon="10.402445025539427"><ele>626.0</ele><time>2026-04-04T14:25:01.999Z</time></trkpt><trkpt lat="45.57629004297794" lon="10.402353340643518"><ele>626.0</ele><time>2026-04-04T14:26:43.999Z</time></trkpt><trkpt lat="45.57629290949967" lon="10.402237522916067"><ele>626.0</ele><time>2026-04-04T14:26:48.999Z</time></trkpt><trkpt lat="45.5762760061016" lon="10.402117098656781"><ele>626.0</ele><time>2026-04-04T14:26:50.999Z</time></trkpt><trkpt lat="45.57624934953475" lon="10.401968213717945"><ele>626.0</ele><time>2026-04-04T14:26:52.999Z</time></trkpt><trkpt lat="45.57623217472918" lon="10.401872248282595"><ele>626.0</ele><time>2026-04-04T14:26:53.999Z</time></trkpt><trkpt lat="45.576185517095176" lon="10.401762449476912"><ele>626.0</ele><time>2026-04-04T14:26:54.999Z</time></trkpt><trkpt lat="45.57617734815055" lon="10.401634762210197"><ele>622.3333333333333</ele><time>2026-04-04T14:26:55.999Z</time></trkpt><trkpt lat="45.57617408947922" lon="10.40151106452788"><ele>618.6666666666666</ele><time>2026-04-04T14:26:56.999Z</time></trkpt><trkpt lat="45.57616056646877" lon="10.401400254782521"><ele>615.0</ele><time>2026-04-04T14:26:57.999Z</time></trkpt><trkpt lat="45.57613513822382" lon="10.401304410738462"><ele>611.3333333333334</ele><time>2026-04-04T14:26:58.999Z</time></trkpt><trkpt lat="45.576119126787404" lon="10.401189720632166"><ele>607.6666666666667</ele><time>2026-04-04T14:26:59.999Z</time></trkpt><trkpt lat="45.57610307977127" lon="10.40108339391198"><ele>604.0</ele><time>2026-04-04T14:27:00.999Z</time></trkpt><trkpt lat="45.57610758018656" lon="10.400969331414824"><ele>603.0</ele><time>2026-04-04T14:27:01.999Z</time></trkpt><trkpt lat="45.57612024805291" lon="10.400867610345253"><ele>602.0</ele><time>2026-04-04T14:27:02.999Z</time></trkpt><trkpt lat="45.57611873158141" lon="10.400694143893013"><ele>601.0</ele><time>2026-04-04T14:27:04.999Z</time></trkpt><trkpt lat="45.57611011212435" lon="10.400601281500657"><ele>600.0</ele><time>2026-04-04T14:27:05.999Z</time></trkpt><trkpt lat="45.57610395788883" lon="10.40042725822837"><ele>599.0</ele><time>2026-04-04T14:27:07.999Z</time></trkpt><trkpt lat="45.57610381201682" lon="10.400292872007599"><ele>598.0</ele><time>2026-04-04T14:27:09.999Z</time></trkpt><trkpt lat="45.57612033647272" lon="10.400114056673425"><ele>597.0</ele><time>2026-04-04T14:27:11.999Z</time></trkpt><trkpt lat="45.57611218480452" lon="10.400020643576964"><ele>596.0</ele><time>2026-04-04T14:27:12.999Z</time></trkpt><trkpt lat="45.57608927642611" lon="10.399925050635108"><ele>595.0</ele><time>2026-04-04T14:27:13.999Z</time></trkpt><trkpt lat="45.576059056313724" lon="10.399830555542675"><ele>594.0</ele><time>2026-04-04T14:27:14.999Z</time></trkpt><trkpt lat="45.5760451016874" lon="10.399666289988069"><ele>593.1666666666666</ele><time>2026-04-04T14:27:16.999Z</time></trkpt><trkpt lat="45.576039556262415" lon="10.399558714339973"><ele>592.3333333333334</ele><time>2026-04-04T14:27:17.999Z</time></trkpt><trkpt lat="45.57603886139728" lon="10.399441518347206"><ele>591.5</ele><time>2026-04-04T14:27:18.999Z</time></trkpt><trkpt lat="45.57603377664351" lon="10.399327321974745"><ele>590.6666666666667</ele><time>2026-04-04T14:27:19.999Z</time></trkpt><trkpt lat="45.57602335555034" lon="10.399195137734583"><ele>589.8333333333334</ele><time>2026-04-04T14:27:20.999Z</time></trkpt><trkpt lat="45.576035050796534" lon="10.399101228767156"><ele>589.0</ele><time>2026-04-04T14:27:21.999Z</time></trkpt><trkpt lat="45.576021004135725" lon="10.399009561621835"><ele>589.0</ele><time>2026-04-04T14:27:28.999Z</time></trkpt><trkpt lat="45.57606120111825" lon="10.398908925483152"><ele>589.0</ele><time>2026-04-04T14:27:38Z</time></trkpt><trkpt lat="45.57614053997719" lon="10.398841576810266"><ele>589.0</ele><time>2026-04-04T14:27:40Z</time></trkpt><trkpt lat="45.57620398651369" lon="10.398729214561559"><ele>589.0</ele><time>2026-04-04T14:27:42Z</time></trkpt><trkpt lat="45.576270262814504" lon="10.39859129576289"><ele>589.0</ele><time>2026-04-04T14:27:44Z</time></trkpt><trkpt lat="45.5762829552486" lon="10.398456981032094"><ele>593.2</ele><time>2026-04-04T14:27:45Z</time></trkpt><trkpt lat="45.57631994006478" lon="10.39831212534991"><ele>597.4</ele><time>2026-04-04T14:27:47Z</time></trkpt><trkpt lat="45.576356968557704" lon="10.398171089962753"><ele>601.6</ele><time>2026-04-04T14:27:49Z</time></trkpt><trkpt lat="45.57646036732126" lon="10.39811636594158"><ele>605.8</ele><time>2026-04-04T14:27:51Z</time></trkpt><trkpt lat="45.57653234617407" lon="10.398048594367523"><ele>610.0</ele><time>2026-04-04T14:27:53Z</time></trkpt><trkpt lat="45.576598975799016" lon="10.39795140445628"><ele>610.0</ele><time>2026-04-04T14:27:55Z</time></trkpt><trkpt lat="45.57663771206018" lon="10.397880442287034"><ele>610.0</ele><time>2026-04-04T14:27:56Z</time></trkpt><trkpt lat="45.576717653793466" lon="10.397771596042917"><ele>610.0</ele><time>2026-04-04T14:27:58Z</time></trkpt><trkpt lat="45.57677505003839" lon="10.397665857225034"><ele>610.0</ele><time>2026-04-04T14:28:00Z</time></trkpt><trkpt lat="45.576787163462406" lon="10.397526143174359"><ele>610.0</ele><time>2026-04-04T14:28:02Z</time></trkpt><trkpt lat="45.57682141229516" lon="10.397429759342298"><ele>610.0</ele><time>2026-04-04T14:28:04Z</time></trkpt><trkpt lat="45.576860378528146" lon="10.397501001091346"><ele>610.0</ele><time>2026-04-04T14:28:05Z</time></trkpt><trkpt lat="45.57687188213041" lon="10.39740766311743"><ele>610.0</ele><time>2026-04-04T14:28:08Z</time></trkpt><trkpt lat="45.576929192114505" lon="10.397362574677409"><ele>610.0</ele><time>2026-04-04T14:28:11Z</time></trkpt><trkpt lat="45.57698566322449" lon="10.39724462090791"><ele>610.0</ele><time>2026-04-04T14:28:14Z</time></trkpt><trkpt lat="45.57703884013698" lon="10.397122352980974"><ele>610.0</ele><time>2026-04-04T14:28:17Z</time></trkpt><trkpt lat="45.577072009492305" lon="10.397025926525194"><ele>610.0</ele><time>2026-04-04T14:28:18Z</time></trkpt><trkpt lat="45.577114156202555" lon="10.396954287160629"><ele>614.8</ele><time>2026-04-04T14:28:19Z</time></trkpt><trkpt lat="45.57720765821747" lon="10.396899936514295"><ele>619.6</ele><time>2026-04-04T14:28:21Z</time></trkpt><trkpt lat="45.57729866378159" lon="10.396847183324187"><ele>624.4</ele><time>2026-04-04T14:28:23Z</time></trkpt><trkpt lat="45.577307525424985" lon="10.396712205932186"><ele>629.2</ele><time>2026-04-04T14:28:24.999Z</time></trkpt><trkpt lat="45.577367183924046" lon="10.396615801060166"><ele>634.0</ele><time>2026-04-04T14:28:26.999Z</time></trkpt><trkpt lat="45.57742265734116" lon="10.396475047823994"><ele>634.0</ele><time>2026-04-04T14:28:28.999Z</time></trkpt><trkpt lat="45.577499588411534" lon="10.396471065403745"><ele>634.0</ele><time>2026-04-04T14:28:30.999Z</time></trkpt><trkpt lat="45.577578344052014" lon="10.396401598922797"><ele>634.0</ele><time>2026-04-04T14:28:35.999Z</time></trkpt><trkpt lat="45.57765655030271" lon="10.396361248876055"><ele>634.0</ele><time>2026-04-04T14:28:38.999Z</time></trkpt><trkpt lat="45.577689407837624" lon="10.396233468133595"><ele>634.0</ele><time>2026-04-04T14:28:41.999Z</time></trkpt><trkpt lat="45.57771351098185" lon="10.396144010893174"><ele>634.0</ele><time>2026-04-04T14:28:43.999Z</time></trkpt><trkpt lat="45.57772192831433" lon="10.395997746685318"><ele>634.2</ele><time>2026-04-04T14:29:45Z</time></trkpt><trkpt lat="45.577721926577276" lon="10.395814492568476"><ele>634.4</ele><time>2026-04-04T14:29:47Z</time></trkpt><trkpt lat="45.577712883217146" lon="10.395687606359797"><ele>634.6</ele><time>2026-04-04T14:29:48Z</time></trkpt><trkpt lat="45.577692974625485" lon="10.395556962398226"><ele>634.8</ele><time>2026-04-04T14:29:49Z</time></trkpt><trkpt lat="45.57767128751319" lon="10.395430285151905"><ele>635.0</ele><time>2026-04-04T14:29:50Z</time></trkpt><trkpt lat="45.577662169605446" lon="10.395317342100363"><ele>635.5</ele><time>2026-04-04T14:29:51Z</time></trkpt><trkpt lat="45.577679648054556" lon="10.395229420960888"><ele>636.0</ele><time>2026-04-04T14:29:52Z</time></trkpt><trkpt lat="45.57777765644294" lon="10.39514555940313"><ele>636.5</ele><time>2026-04-04T14:29:54Z</time></trkpt><trkpt lat="45.57784838600897" lon="10.395118512309187"><ele>637.0</ele><time>2026-04-04T14:29:55Z</time></trkpt><trkpt lat="45.577919278651834" lon="10.395055648002474"><ele>637.5</ele><time>2026-04-04T14:29:56Z</time></trkpt><trkpt lat="45.57800033509511" lon="10.394987338502855"><ele>638.0</ele><time>2026-04-04T14:29:57Z</time></trkpt><trkpt lat="45.57808601058149" lon="10.394914927993845"><ele>641.3333333333333</ele><time>2026-04-04T14:29:58Z</time></trkpt><trkpt lat="45.57817084684145" lon="10.394856173652867"><ele>644.6666666666666</ele><time>2026-04-04T14:29:59Z</time></trkpt><trkpt lat="45.57825282011322" lon="10.394818309378193"><ele>648.0</ele><time>2026-04-04T14:30:00Z</time></trkpt><trkpt lat="45.57832386165365" lon="10.394791407558381"><ele>651.3333333333334</ele><time>2026-04-04T14:30:01Z</time></trkpt><trkpt lat="45.57839545344477" lon="10.394787030238207"><ele>654.6666666666667</ele><time>2026-04-04T14:30:02Z</time></trkpt><trkpt lat="45.57845186065772" lon="10.394831723144339"><ele>658.0</ele><time>2026-04-04T14:30:03Z</time></trkpt><trkpt lat="45.57851241186843" lon="10.394898127579559"><ele>658.0</ele><time>2026-04-04T14:30:04Z</time></trkpt><trkpt lat="45.5785557547579" lon="10.39498126676437"><ele>658.0</ele><time>2026-04-04T14:30:06Z</time></trkpt><trkpt lat="45.57853277863911" lon="10.394834151171278"><ele>658.0</ele><time>2026-04-04T14:30:09Z</time></trkpt><trkpt lat="45.57848730447884" lon="10.394744212308115"><ele>658.0</ele><time>2026-04-04T14:30:10Z</time></trkpt><trkpt lat="45.57844005776234" lon="10.394622922856819"><ele>658.0</ele><time>2026-04-04T14:30:11Z</time></trkpt><trkpt lat="45.57842067683383" lon="10.394419341480056"><ele>658.75</ele><time>2026-04-04T14:30:12Z</time></trkpt><trkpt lat="45.57836373592176" lon="10.394295120303047"><ele>659.5</ele><time>2026-04-04T14:30:13Z</time></trkpt><trkpt lat="45.57832819267609" lon="10.394142296748281"><ele>660.25</ele><time>2026-04-04T14:30:14Z</time></trkpt><trkpt lat="45.57826846480569" lon="10.393971352446865"><ele>661.0</ele><time>2026-04-04T14:30:15Z</time></trkpt><trkpt lat="45.57818982052639" lon="10.393797877417985"><ele>661.4</ele><time>2026-04-04T14:30:16Z</time></trkpt><trkpt lat="45.578126368912706" lon="10.393659388005045"><ele>661.8</ele><time>2026-04-04T14:30:17Z</time></trkpt><trkpt lat="45.578056900161386" lon="10.393503498666563"><ele>662.1999999999999</ele><time>2026-04-04T14:30:18Z</time></trkpt><trkpt lat="45.57800833480884" lon="10.393368184397794"><ele>662.5999999999999</ele><time>2026-04-04T14:30:19Z</time></trkpt><trkpt lat="45.57799740234743" lon="10.393267975025633"><ele>663.0</ele><time>2026-04-04T14:30:20Z</time></trkpt><trkpt lat="45.577994881937094" lon="10.393124900485413"><ele>664.0</ele><time>2026-04-04T14:30:21Z</time></trkpt><trkpt lat="45.57794800851087" lon="10.392976910802105"><ele>665.0</ele><time>2026-04-04T14:30:22Z</time></trkpt><trkpt lat="45.577931419144605" lon="10.392814875017471"><ele>666.0</ele><time>2026-04-04T14:30:22.999Z</time></trkpt><trkpt lat="45.577903314892836" lon="10.392648385059584"><ele>667.0</ele><time>2026-04-04T14:30:23.999Z</time></trkpt><trkpt lat="45.57795382063512" lon="10.392491229378772"><ele>667.0</ele><time>2026-04-04T14:30:24.999Z</time></trkpt><trkpt lat="45.577939366683765" lon="10.392345629038799"><ele>667.0</ele><time>2026-04-04T14:30:25.999Z</time></trkpt><trkpt lat="45.577915329450136" lon="10.392188894342063"><ele>667.0</ele><time>2026-04-04T14:30:26.999Z</time></trkpt><trkpt lat="45.57787836565958" lon="10.39205471643731"><ele>667.0</ele><time>2026-04-04T14:30:27.999Z</time></trkpt><trkpt lat="45.57779118823977" lon="10.391902473363558"><ele>663.8</ele><time>2026-04-04T14:30:29.999Z</time></trkpt><trkpt lat="45.577718004409256" lon="10.391829114134538"><ele>660.6</ele><time>2026-04-04T14:30:30.999Z</time></trkpt><trkpt lat="45.57763169871485" lon="10.391740658053287"><ele>657.4</ele><time>2026-04-04T14:30:31.999Z</time></trkpt><trkpt lat="45.577547881068135" lon="10.391636309014467"><ele>654.1999999999999</ele><time>2026-04-04T14:30:32.999Z</time></trkpt><trkpt lat="45.57746629553953" lon="10.391530453179302"><ele>651.0</ele><time>2026-04-04T14:30:33.999Z</time></trkpt><trkpt lat="45.577399497975456" lon="10.391389651414176"><ele>652.0</ele><time>2026-04-04T14:30:34.999Z</time></trkpt><trkpt lat="45.57734261741294" lon="10.391234139321002"><ele>653.0</ele><time>2026-04-04T14:30:35.999Z</time></trkpt><trkpt lat="45.577302212351555" lon="10.39104701417976"><ele>654.0</ele><time>2026-04-04T14:30:36.999Z</time></trkpt><trkpt lat="45.577267217814445" lon="10.390855353817837"><ele>655.0</ele><time>2026-04-04T14:30:37.999Z</time></trkpt><trkpt lat="45.57723321442071" lon="10.39068210867698"><ele>655.0</ele><time>2026-04-04T14:30:38.999Z</time></trkpt><trkpt lat="45.57722042422079" lon="10.39053243250438"><ele>655.0</ele><time>2026-04-04T14:30:39.999Z</time></trkpt><trkpt lat="45.57720262560069" lon="10.390378949275528"><ele>655.0</ele><time>2026-04-04T14:30:40.999Z</time></trkpt><trkpt lat="45.5771549183141" lon="10.39025829853632"><ele>655.0</ele><time>2026-04-04T14:30:41.999Z</time></trkpt><trkpt lat="45.57707023429071" lon="10.390138132555359"><ele>655.0</ele><time>2026-04-04T14:30:42.999Z</time></trkpt><trkpt lat="45.57697846579155" lon="10.390042850420622"><ele>653.4</ele><time>2026-04-04T14:30:43.999Z</time></trkpt><trkpt lat="45.57688821006652" lon="10.389932151392658"><ele>651.8</ele><time>2026-04-04T14:30:44.999Z</time></trkpt><trkpt lat="45.57681079035418" lon="10.389821139909744"><ele>650.2</ele><time>2026-04-04T14:30:45.999Z</time></trkpt><trkpt lat="45.57674120990816" lon="10.38971240644148"><ele>648.6</ele><time>2026-04-04T14:30:46.999Z</time></trkpt><trkpt lat="45.57667495229099" lon="10.389591549595254"><ele>647.0</ele><time>2026-04-04T14:30:47.999Z</time></trkpt><trkpt lat="45.57661544093668" lon="10.389496476815827"><ele>647.0</ele><time>2026-04-04T14:30:48.999Z</time></trkpt><trkpt lat="45.57655036074512" lon="10.38946598369405"><ele>647.0</ele><time>2026-04-04T14:30:49.999Z</time></trkpt><trkpt lat="45.576479759178255" lon="10.389485174699622"><ele>647.0</ele><time>2026-04-04T14:30:50.999Z</time></trkpt><trkpt lat="45.57642231979059" lon="10.389538314695455"><ele>647.0</ele><time>2026-04-04T14:30:51.999Z</time></trkpt><trkpt lat="45.57641805230388" lon="10.389652936123326"><ele>647.0</ele><time>2026-04-04T14:30:52.999Z</time></trkpt><trkpt lat="45.57639302095224" lon="10.389569944050509"><ele>647.0</ele><time>2026-04-04T14:30:56.999Z</time></trkpt><trkpt lat="45.576308805309964" lon="10.389449213633627"><ele>647.0</ele><time>2026-04-04T14:31:00.999Z</time></trkpt><trkpt lat="45.57620072607984" lon="10.38934927270454"><ele>647.0</ele><time>2026-04-04T14:31:01.999Z</time></trkpt><trkpt lat="45.57615524514106" lon="10.389284468291105"><ele>647.0</ele><time>2026-04-04T14:31:02.999Z</time></trkpt><trkpt lat="45.57609445116896" lon="10.389152061351382"><ele>647.0</ele><time>2026-04-04T14:31:03.999Z</time></trkpt><trkpt lat="45.57607326057486" lon="10.389045085772354"><ele>647.0</ele><time>2026-04-04T14:31:04.999Z</time></trkpt><trkpt lat="45.576070474748" lon="10.388907450629384"><ele>646.0</ele><time>2026-04-04T14:31:05.999Z</time></trkpt><trkpt lat="45.57608858477399" lon="10.388813046069732"><ele>645.0</ele><time>2026-04-04T14:31:06.999Z</time></trkpt><trkpt lat="45.57610916152317" lon="10.388699811873009"><ele>644.0</ele><time>2026-04-04T14:31:07.999Z</time></trkpt><trkpt lat="45.576105758474704" lon="10.388600976779495"><ele>643.0</ele><time>2026-04-04T14:31:08.999Z</time></trkpt><trkpt lat="45.576061593956815" lon="10.38851699948677"><ele>642.0</ele><time>2026-04-04T14:31:10.999Z</time></trkpt><trkpt lat="45.575946094698594" lon="10.38847837484659"><ele>641.0</ele><time>2026-04-04T14:31:12.999Z</time></trkpt><trkpt lat="45.57587517191861" lon="10.388447022167375"><ele>641.0</ele><time>2026-04-04T14:31:13.999Z</time></trkpt><trkpt lat="45.575790529817" lon="10.388380745153857"><ele>641.0</ele><time>2026-04-04T14:31:14.999Z</time></trkpt><trkpt lat="45.57572754982004" lon="10.388321314694764"><ele>641.0</ele><time>2026-04-04T14:31:15.999Z</time></trkpt><trkpt lat="45.5756554026982" lon="10.388265287022094"><ele>641.0</ele><time>2026-04-04T14:31:16.999Z</time></trkpt><trkpt lat="45.5755884791643" lon="10.38821122189529"><ele>641.0</ele><time>2026-04-04T14:31:17.999Z</time></trkpt><trkpt lat="45.57552626333263" lon="10.38813369018531"><ele>641.0</ele><time>2026-04-04T14:31:18.999Z</time></trkpt><trkpt lat="45.575439732270674" lon="10.387991171918772"><ele>639.25</ele><time>2026-04-04T14:31:19.999Z</time></trkpt><trkpt lat="45.57537036533658" lon="10.387867362828276"><ele>637.5</ele><time>2026-04-04T14:31:20.999Z</time></trkpt><trkpt lat="45.575299994200684" lon="10.387749743338627"><ele>635.75</ele><time>2026-04-04T14:31:21.999Z</time></trkpt><trkpt lat="45.575235924374994" lon="10.38761826196419"><ele>634.0</ele><time>2026-04-04T14:31:22.999Z</time></trkpt><trkpt lat="45.57519177496129" lon="10.387451782037969"><ele>634.0</ele><time>2026-04-04T14:31:24.999Z</time></trkpt><trkpt lat="45.57515106466304" lon="10.38731901380939"><ele>634.0</ele><time>2026-04-04T14:31:25.999Z</time></trkpt><trkpt lat="45.57512353291833" lon="10.387192802323156"><ele>634.0</ele><time>2026-04-04T14:31:26.999Z</time></trkpt><trkpt lat="45.57510256208557" lon="10.387088854342212"><ele>634.0</ele><time>2026-04-04T14:31:27.999Z</time></trkpt><trkpt lat="45.57508309980844" lon="10.386964091763046"><ele>634.0</ele><time>2026-04-04T14:31:28.999Z</time></trkpt><trkpt lat="45.57503994995603" lon="10.386836511028335"><ele>635.0</ele><time>2026-04-04T14:31:29.999Z</time></trkpt><trkpt lat="45.57500393265564" lon="10.386735755326841"><ele>636.0</ele><time>2026-04-04T14:31:30.999Z</time></trkpt><trkpt lat="45.575010392081666" lon="10.386610984936777"><ele>637.0</ele><time>2026-04-04T14:31:34.999Z</time></trkpt><trkpt lat="45.575030964741465" lon="10.386460388094498"><ele>638.0</ele><time>2026-04-04T14:31:36.999Z</time></trkpt><trkpt lat="45.57504198667577" lon="10.386359565014558"><ele>639.0</ele><time>2026-04-04T14:31:37.999Z</time></trkpt><trkpt lat="45.57505219376243" lon="10.386255000438545"><ele>640.0</ele><time>2026-04-04T14:31:38.999Z</time></trkpt><trkpt lat="45.57506326748858" lon="10.386131738233901"><ele>640.2</ele><time>2026-04-04T14:31:39.999Z</time></trkpt><trkpt lat="45.57508244723973" lon="10.386024933911079"><ele>640.4</ele><time>2026-04-04T14:31:40.999Z</time></trkpt><trkpt lat="45.57503858032593" lon="10.385891367229481"><ele>640.5999999999999</ele><time>2026-04-04T14:31:42.999Z</time></trkpt><trkpt lat="45.574934037859265" lon="10.385793953205306"><ele>640.8</ele><time>2026-04-04T14:31:45Z</time></trkpt><trkpt lat="45.57485588297154" lon="10.3857291338259"><ele>641.0</ele><time>2026-04-04T14:31:46Z</time></trkpt><trkpt lat="45.574804547685424" lon="10.385633626042146"><ele>641.4</ele><time>2026-04-04T14:31:47Z</time></trkpt><trkpt lat="45.57476409310483" lon="10.385510452344578"><ele>641.8</ele><time>2026-04-04T14:31:48Z</time></trkpt><trkpt lat="45.57476694409235" lon="10.385397122105193"><ele>642.1999999999999</ele><time>2026-04-04T14:31:49Z</time></trkpt><trkpt lat="45.57478384960188" lon="10.385258924760842"><ele>642.5999999999999</ele><time>2026-04-04T14:31:50Z</time></trkpt><trkpt lat="45.57479605754475" lon="10.385121104057546"><ele>643.0</ele><time>2026-04-04T14:31:51Z</time></trkpt><trkpt lat="45.57481669635672" lon="10.384987517875519"><ele>643.0</ele><time>2026-04-04T14:31:52Z</time></trkpt><trkpt lat="45.57480975832685" lon="10.384818718966931"><ele>643.0</ele><time>2026-04-04T14:31:53Z</time></trkpt><trkpt lat="45.5747987528674" lon="10.384651026127203"><ele>643.0</ele><time>2026-04-04T14:31:54Z</time></trkpt><trkpt lat="45.57480586619482" lon="10.384506263535291"><ele>643.0</ele><time>2026-04-04T14:31:55Z</time></trkpt><trkpt lat="45.574826382872665" lon="10.384344421273422"><ele>643.4</ele><time>2026-04-04T14:31:56Z</time></trkpt><trkpt lat="45.574870460925546" lon="10.384217576027224"><ele>643.8</ele><time>2026-04-04T14:31:57Z</time></trkpt><trkpt lat="45.57490092771204" lon="10.384089162513844"><ele>644.2</ele><time>2026-04-04T14:31:58Z</time></trkpt><trkpt lat="45.574935869794345" lon="10.383930591342839"><ele>644.6</ele><time>2026-04-04T14:31:59Z</time></trkpt><trkpt lat="45.574974303445096" lon="10.383791308622426"><ele>645.0</ele><time>2026-04-04T14:32:00Z</time></trkpt><trkpt lat="45.57500845861684" lon="10.383657110807162"><ele>643.4</ele><time>2026-04-04T14:32:01Z</time></trkpt><trkpt lat="45.57503410841729" lon="10.383527695624"><ele>641.8</ele><time>2026-04-04T14:32:02Z</time></trkpt><trkpt lat="45.575062747813654" lon="10.383380426669083"><ele>640.2</ele><time>2026-04-04T14:32:03Z</time></trkpt><trkpt lat="45.5750764344927" lon="10.383230706753988"><ele>638.6</ele><time>2026-04-04T14:32:04Z</time></trkpt><trkpt lat="45.57511801688974" lon="10.383075287845953"><ele>637.0</ele><time>2026-04-04T14:32:05Z</time></trkpt><trkpt lat="45.575168621673676" lon="10.382921372720926"><ele>635.1666666666667</ele><time>2026-04-04T14:32:06Z</time></trkpt><trkpt lat="45.57519985232232" lon="10.382777970543117"><ele>633.3333333333334</ele><time>2026-04-04T14:32:07Z</time></trkpt><trkpt lat="45.57520803019274" lon="10.38264947090653"><ele>631.5</ele><time>2026-04-04T14:32:08Z</time></trkpt><trkpt lat="45.575238896126734" lon="10.382537387648231"><ele>629.6666666666666</ele><time>2026-04-04T14:32:09Z</time></trkpt><trkpt lat="45.57525582242105" lon="10.382434854640561"><ele>627.8333333333333</ele><time>2026-04-04T14:32:10Z</time></trkpt><trkpt lat="45.5752770252713" lon="10.382318565881198"><ele>626.0</ele><time>2026-04-04T14:32:12Z</time></trkpt><trkpt lat="45.57533505643078" lon="10.382232905494252"><ele>628.6</ele><time>2026-04-04T14:32:13Z</time></trkpt><trkpt lat="45.575407487090736" lon="10.382070919006452"><ele>631.2</ele><time>2026-04-04T14:32:14Z</time></trkpt><trkpt lat="45.57546335108037" lon="10.381939401832595"><ele>633.8</ele><time>2026-04-04T14:32:15Z</time></trkpt><trkpt lat="45.57552114487833" lon="10.381818539955466"><ele>636.4</ele><time>2026-04-04T14:32:16Z</time></trkpt><trkpt lat="45.57559546417685" lon="10.381724950735478"><ele>639.0</ele><time>2026-04-04T14:32:17Z</time></trkpt><trkpt lat="45.57571404825491" lon="10.381772340081886"><ele>639.0</ele><time>2026-04-04T14:32:18Z</time></trkpt><trkpt lat="45.57578281832243" lon="10.381702084436622"><ele>639.0</ele><time>2026-04-04T14:32:19.999Z</time></trkpt><trkpt lat="45.575731691715866" lon="10.381527909367833"><ele>639.0</ele><time>2026-04-04T14:32:21.999Z</time></trkpt><trkpt lat="45.57572640742495" lon="10.381437507218747"><ele>639.0</ele><time>2026-04-04T14:32:25.999Z</time></trkpt><trkpt lat="45.57569121706383" lon="10.381360790673957"><ele>639.0</ele><time>2026-04-04T14:32:28.999Z</time></trkpt><trkpt lat="45.57563445363686" lon="10.381224176358"><ele>636.8333333333334</ele><time>2026-04-04T14:32:30.999Z</time></trkpt><trkpt lat="45.57561590720851" lon="10.381131733644338"><ele>634.6666666666666</ele><time>2026-04-04T14:32:31.999Z</time></trkpt><trkpt lat="45.57562146271059" lon="10.381034964591379"><ele>632.5</ele><time>2026-04-04T14:32:32.999Z</time></trkpt><trkpt lat="45.575643237854074" lon="10.38092064851611"><ele>630.3333333333333</ele><time>2026-04-04T14:32:33.999Z</time></trkpt><trkpt lat="45.57567740678258" lon="10.380804131051127"><ele>628.1666666666666</ele><time>2026-04-04T14:32:34.999Z</time></trkpt><trkpt lat="45.57572180729208" lon="10.380704680701585"><ele>626.0</ele><time>2026-04-04T14:32:35.999Z</time></trkpt><trkpt lat="45.575769600920644" lon="10.380591132733459"><ele>626.0</ele><time>2026-04-04T14:32:36.999Z</time></trkpt><trkpt lat="45.57584035123681" lon="10.380536927990743"><ele>626.0</ele><time>2026-04-04T14:32:37.999Z</time></trkpt><trkpt lat="45.575897048265276" lon="10.380459978969036"><ele>626.0</ele><time>2026-04-04T14:32:38.999Z</time></trkpt><trkpt lat="45.57595083260288" lon="10.38037899067523"><ele>626.0</ele><time>2026-04-04T14:32:39.999Z</time></trkpt><trkpt lat="45.57600626610419" lon="10.3802957751522"><ele>626.0</ele><time>2026-04-04T14:32:40.999Z</time></trkpt><trkpt lat="45.57606472205716" lon="10.380204427069522"><ele>626.0</ele><time>2026-04-04T14:32:41.999Z</time></trkpt><trkpt lat="45.576123305004494" lon="10.380103422246263"><ele>628.2</ele><time>2026-04-04T14:32:42.999Z</time></trkpt><trkpt lat="45.5761843460773" lon="10.380000260152414"><ele>630.4000000000001</ele><time>2026-04-04T14:32:43.999Z</time></trkpt><trkpt lat="45.576240842663815" lon="10.379885589321592"><ele>632.6</ele><time>2026-04-04T14:32:44.999Z</time></trkpt><trkpt lat="45.57628755813997" lon="10.379757297340907"><ele>634.8000000000001</ele><time>2026-04-04T14:32:45.999Z</time></trkpt><trkpt lat="45.57632684617469" lon="10.379621493973843"><ele>637.0</ele><time>2026-04-04T14:32:46.999Z</time></trkpt><trkpt lat="45.57635389528757" lon="10.3794860623232"><ele>637.0</ele><time>2026-04-04T14:32:47.999Z</time></trkpt><trkpt lat="45.57637731267827" lon="10.379363210847254"><ele>637.0</ele><time>2026-04-04T14:32:48.999Z</time></trkpt><trkpt lat="45.57641622186276" lon="10.379269284198314"><ele>637.0</ele><time>2026-04-04T14:32:49.999Z</time></trkpt><trkpt lat="45.57646869629595" lon="10.379197162892359"><ele>637.0</ele><time>2026-04-04T14:32:50.999Z</time></trkpt><trkpt lat="45.57649604801304" lon="10.379074231944186"><ele>637.0</ele><time>2026-04-04T14:32:52.999Z</time></trkpt><trkpt lat="45.57646462788543" lon="10.378989945694817"><ele>637.0</ele><time>2026-04-04T14:32:53.999Z</time></trkpt><trkpt lat="45.57641693189801" lon="10.378895062750141"><ele>636.4</ele><time>2026-04-04T14:32:54.999Z</time></trkpt><trkpt lat="45.5763680806018" lon="10.378787775846428"><ele>635.8000000000001</ele><time>2026-04-04T14:32:55.999Z</time></trkpt><trkpt lat="45.57632594307532" lon="10.378666061126554"><ele>635.2</ele><time>2026-04-04T14:32:56.999Z</time></trkpt><trkpt lat="45.576286250018995" lon="10.378546832665963"><ele>634.6</ele><time>2026-04-04T14:32:57.999Z</time></trkpt><trkpt lat="45.57625464977049" lon="10.378432575597241"><ele>634.0</ele><time>2026-04-04T14:32:58.999Z</time></trkpt><trkpt lat="45.5762308024791" lon="10.378304654713666"><ele>634.0</ele><time>2026-04-04T14:32:59.999Z</time></trkpt><trkpt lat="45.5762174736552" lon="10.378174361567135"><ele>634.0</ele><time>2026-04-04T14:33:00.999Z</time></trkpt><trkpt lat="45.57620966906668" lon="10.378047304709561"><ele>634.0</ele><time>2026-04-04T14:33:01.999Z</time></trkpt><trkpt lat="45.57620966968555" lon="10.377924938698232"><ele>634.0</ele><time>2026-04-04T14:33:02.999Z</time></trkpt><trkpt lat="45.57621852464726" lon="10.377804792496907"><ele>634.0</ele><time>2026-04-04T14:33:03.999Z</time></trkpt><trkpt lat="45.576233236310564" lon="10.377677515151179"><ele>634.0</ele><time>2026-04-04T14:33:04.999Z</time></trkpt><trkpt lat="45.57624397169838" lon="10.37755452381829"><ele>633.3333333333334</ele><time>2026-04-04T14:33:05.999Z</time></trkpt><trkpt lat="45.576238312320434" lon="10.377435059047913"><ele>632.6666666666667</ele><time>2026-04-04T14:33:06.999Z</time></trkpt><trkpt lat="45.57620942943794" lon="10.377339040900305"><ele>632.0</ele><time>2026-04-04T14:33:07.999Z</time></trkpt><trkpt lat="45.576159515531295" lon="10.377251101549444"><ele>631.3333333333334</ele><time>2026-04-04T14:33:08.999Z</time></trkpt><trkpt lat="45.57611800629814" lon="10.377154247565109"><ele>630.6666666666666</ele><time>2026-04-04T14:33:09.999Z</time></trkpt><trkpt lat="45.576058415249236" lon="10.377080052387097"><ele>630.0</ele><time>2026-04-04T14:33:10.999Z</time></trkpt><trkpt lat="45.575979699263456" lon="10.377015255499357"><ele>628.8333333333334</ele><time>2026-04-04T14:33:11.999Z</time></trkpt><trkpt lat="45.57590927460451" lon="10.376942680298928"><ele>627.6666666666666</ele><time>2026-04-04T14:33:12.999Z</time></trkpt><trkpt lat="45.575843096013855" lon="10.37685695432323"><ele>626.5</ele><time>2026-04-04T14:33:13.999Z</time></trkpt><trkpt lat="45.575785155776856" lon="10.376766250264717"><ele>625.3333333333333</ele><time>2026-04-04T14:33:14.999Z</time></trkpt><trkpt lat="45.57573976953658" lon="10.376685835984976"><ele>624.1666666666666</ele><time>2026-04-04T14:33:15.999Z</time></trkpt><trkpt lat="45.57575922888881" lon="10.376551983510101"><ele>623.0</ele><time>2026-04-04T14:33:17.999Z</time></trkpt><trkpt lat="45.57580486631454" lon="10.376387877067954"><ele>624.4285714285714</ele><time>2026-04-04T14:33:19.999Z</time></trkpt><trkpt lat="45.575782514640686" lon="10.376277723784893"><ele>625.8571428571429</ele><time>2026-04-04T14:33:20.999Z</time></trkpt><trkpt lat="45.57576935069413" lon="10.37617859616802"><ele>627.2857142857142</ele><time>2026-04-04T14:33:21.999Z</time></trkpt><trkpt lat="45.57574086893439" lon="10.376090022498632"><ele>628.7142857142858</ele><time>2026-04-04T14:33:22.999Z</time></trkpt><trkpt lat="45.575746990437885" lon="10.375980958311175"><ele>630.1428571428571</ele><time>2026-04-04T14:33:23.999Z</time></trkpt><trkpt lat="45.57575508533121" lon="10.37588006688414"><ele>631.5714285714286</ele><time>2026-04-04T14:33:24.999Z</time></trkpt><trkpt lat="45.57579544860978" lon="10.375801578182063"><ele>633.0</ele><time>2026-04-04T14:33:25.999Z</time></trkpt><trkpt lat="45.57583219764417" lon="10.375710412883176"><ele>633.0</ele><time>2026-04-04T14:33:26.999Z</time></trkpt><trkpt lat="45.57585093417806" lon="10.375608550889353"><ele>633.0</ele><time>2026-04-04T14:33:27.999Z</time></trkpt><trkpt lat="45.57584969203011" lon="10.375500679299678"><ele>633.0</ele><time>2026-04-04T14:33:28.999Z</time></trkpt><trkpt lat="45.575792869380464" lon="10.375377996386645"><ele>633.0</ele><time>2026-04-04T14:33:29.999Z</time></trkpt><trkpt lat="45.57574538973061" lon="10.375249857651289"><ele>633.0</ele><time>2026-04-04T14:33:30.999Z</time></trkpt><trkpt lat="45.575695342407684" lon="10.375128196897206"><ele>633.4</ele><time>2026-04-04T14:33:31.999Z</time></trkpt><trkpt lat="45.575635898954296" lon="10.375009994595763"><ele>633.8</ele><time>2026-04-04T14:33:32.999Z</time></trkpt><trkpt lat="45.57557403143868" lon="10.374889450985286"><ele>634.2</ele><time>2026-04-04T14:33:33.999Z</time></trkpt><trkpt lat="45.57551181204956" lon="10.37477020636908"><ele>634.6</ele><time>2026-04-04T14:33:34.999Z</time></trkpt><trkpt lat="45.575444468292886" lon="10.374655017033678"><ele>635.0</ele><time>2026-04-04T14:33:35.999Z</time></trkpt><trkpt lat="45.57536968001991" lon="10.374557432240302"><ele>633.4</ele><time>2026-04-04T14:33:36.999Z</time></trkpt><trkpt lat="45.5752958210466" lon="10.37448170495601"><ele>631.8</ele><time>2026-04-04T14:33:37.999Z</time></trkpt><trkpt lat="45.57521363455955" lon="10.37440920522287"><ele>630.2</ele><time>2026-04-04T14:33:39.999Z</time></trkpt><trkpt lat="45.5750879630459" lon="10.374480912027845"><ele>628.6</ele><time>2026-04-04T14:33:55Z</time></trkpt><trkpt lat="45.575030769101105" lon="10.374562522826709"><ele>627.0</ele><time>2026-04-04T14:33:58Z</time></trkpt><trkpt lat="45.574983590478894" lon="10.374624684915073"><ele>625.4</ele><time>2026-04-04T14:34:00Z</time></trkpt><trkpt lat="45.57492522219916" lon="10.374701590632448"><ele>623.8000000000001</ele><time>2026-04-04T14:34:02Z</time></trkpt><trkpt lat="45.574866481707375" lon="10.374778986465712"><ele>622.2</ele><time>2026-04-04T14:34:04Z</time></trkpt><trkpt lat="45.574807004399275" lon="10.37485735331473"><ele>620.6</ele><time>2026-04-04T14:34:06Z</time></trkpt><trkpt lat="45.57473299970407" lon="10.374954213503985"><ele>619.0</ele><time>2026-04-04T14:34:08Z</time></trkpt><trkpt lat="45.57463324484766" lon="10.375066970842175"><ele>619.0</ele><time>2026-04-04T14:34:10Z</time></trkpt><trkpt lat="45.57457013351694" lon="10.375122846578186"><ele>619.0</ele><time>2026-04-04T14:34:11Z</time></trkpt><trkpt lat="45.57450044610957" lon="10.375181279638602"><ele>619.0</ele><time>2026-04-04T14:34:12Z</time></trkpt><trkpt lat="45.57442360249375" lon="10.3752430729333"><ele>619.0</ele><time>2026-04-04T14:34:13Z</time></trkpt><trkpt lat="45.57434232885344" lon="10.375308776738391"><ele>619.0</ele><time>2026-04-04T14:34:14Z</time></trkpt><trkpt lat="45.57427017029439" lon="10.375367763893633"><ele>619.0</ele><time>2026-04-04T14:34:15Z</time></trkpt><trkpt lat="45.574195701338525" lon="10.375428639730435"><ele>618.5</ele><time>2026-04-04T14:34:16Z</time></trkpt><trkpt lat="45.5741229434957" lon="10.375488116786771"><ele>618.0</ele><time>2026-04-04T14:34:17Z</time></trkpt><trkpt lat="45.57405431671309" lon="10.3755442166043"><ele>617.5</ele><time>2026-04-04T14:34:18Z</time></trkpt><trkpt lat="45.57399351175954" lon="10.375593920907784"><ele>617.0</ele><time>2026-04-04T14:34:19Z</time></trkpt><trkpt lat="45.57390690894477" lon="10.375654798293194"><ele>616.5</ele><time>2026-04-04T14:34:20.999Z</time></trkpt><trkpt lat="45.57383362122393" lon="10.375704334849862"><ele>616.0</ele><time>2026-04-04T14:34:22.999Z</time></trkpt><trkpt lat="45.573772974983804" lon="10.375745326919262"><ele>611.0</ele><time>2026-04-04T14:34:24.999Z</time></trkpt><trkpt lat="45.57368115655935" lon="10.375813945012327"><ele>606.0</ele><time>2026-04-04T14:34:26.999Z</time></trkpt><trkpt lat="45.5735792765635" lon="10.375861422087091"><ele>601.0</ele><time>2026-04-04T14:34:28.999Z</time></trkpt><trkpt lat="45.57344826537169" lon="10.37580950571177"><ele>596.0</ele><time>2026-04-04T14:34:30.999Z</time></trkpt><trkpt lat="45.57336282856364" lon="10.375777595072375"><ele>591.0</ele><time>2026-04-04T14:34:31.999Z</time></trkpt><trkpt lat="45.57327401068967" lon="10.37574124519662"><ele>591.0</ele><time>2026-04-04T14:34:32.999Z</time></trkpt><trkpt lat="45.57319097554008" lon="10.375699666642554"><ele>591.0</ele><time>2026-04-04T14:34:33.999Z</time></trkpt><trkpt lat="45.573108087540206" lon="10.37564834310207"><ele>591.0</ele><time>2026-04-04T14:34:34.999Z</time></trkpt><trkpt lat="45.57302323024655" lon="10.37558843697014"><ele>591.0</ele><time>2026-04-04T14:34:35.999Z</time></trkpt><trkpt lat="45.5729380549622" lon="10.375527059847238"><ele>591.0</ele><time>2026-04-04T14:34:36.999Z</time></trkpt><trkpt lat="45.57285117948352" lon="10.375464457563082"><ele>589.6</ele><time>2026-04-04T14:34:37.999Z</time></trkpt><trkpt lat="45.57276508551882" lon="10.375402299937345"><ele>588.2</ele><time>2026-04-04T14:34:38.999Z</time></trkpt><trkpt lat="45.57267377944578" lon="10.375342254809746"><ele>586.8</ele><time>2026-04-04T14:34:39.999Z</time></trkpt><trkpt lat="45.57257591713023" lon="10.375283956065786"><ele>585.4</ele><time>2026-04-04T14:34:40.999Z</time></trkpt><trkpt lat="45.57247176361127" lon="10.375235837925697"><ele>584.0</ele><time>2026-04-04T14:34:41.999Z</time></trkpt><trkpt lat="45.57236337232141" lon="10.375189484077742"><ele>584.0</ele><time>2026-04-04T14:34:42.999Z</time></trkpt><trkpt lat="45.57225207019299" lon="10.375143143147792"><ele>584.0</ele><time>2026-04-04T14:34:43.999Z</time></trkpt><trkpt lat="45.572137866147465" lon="10.375093961868384"><ele>584.0</ele><time>2026-04-04T14:34:44.999Z</time></trkpt><trkpt lat="45.57202207849755" lon="10.375034042369325"><ele>584.0</ele><time>2026-04-04T14:34:45.999Z</time></trkpt><trkpt lat="45.57190348652377" lon="10.374971820858766"><ele>579.25</ele><time>2026-04-04T14:34:46.999Z</time></trkpt><trkpt lat="45.571780687279805" lon="10.374914080127157"><ele>574.5</ele><time>2026-04-04T14:34:47.999Z</time></trkpt><trkpt lat="45.57165208450547" lon="10.374873194214464"><ele>569.75</ele><time>2026-04-04T14:34:48.999Z</time></trkpt><trkpt lat="45.57152787750047" lon="10.374834955135999"><ele>565.0</ele><time>2026-04-04T14:34:49.999Z</time></trkpt><trkpt lat="45.57140453515435" lon="10.374800493760805"><ele>565.0</ele><time>2026-04-04T14:34:50.999Z</time></trkpt><trkpt lat="45.57128710214547" lon="10.374767761578054"><ele>565.0</ele><time>2026-04-04T14:34:51.999Z</time></trkpt><trkpt lat="45.571179448004656" lon="10.374734512603395"><ele>565.0</ele><time>2026-04-04T14:34:52.999Z</time></trkpt><trkpt lat="45.57106837307444" lon="10.374700023400294"><ele>565.0</ele><time>2026-04-04T14:34:53.999Z</time></trkpt><trkpt lat="45.57095426785747" lon="10.374681680136154"><ele>564.8</ele><time>2026-04-04T14:34:54.999Z</time></trkpt><trkpt lat="45.5708452367381" lon="10.374672377684417"><ele>564.6</ele><time>2026-04-04T14:34:55.999Z</time></trkpt><trkpt lat="45.57074427487408" lon="10.37466802745159"><ele>564.4</ele><time>2026-04-04T14:34:56.999Z</time></trkpt><trkpt lat="45.57064420562697" lon="10.374653053151746"><ele>564.2</ele><time>2026-04-04T14:34:57.999Z</time></trkpt><trkpt lat="45.57054168854658" lon="10.374621099286681"><ele>564.0</ele><time>2026-04-04T14:34:58.999Z</time></trkpt><trkpt lat="45.57044199453522" lon="10.37458597636724"><ele>560.8</ele><time>2026-04-04T14:34:59.999Z</time></trkpt><trkpt lat="45.57034329013423" lon="10.37454702265568"><ele>557.5999999999999</ele><time>2026-04-04T14:35:00.999Z</time></trkpt><trkpt lat="45.5702446146622" lon="10.374502417134323"><ele>554.4</ele><time>2026-04-04T14:35:01.999Z</time></trkpt><trkpt lat="45.57014573850382" lon="10.374454032082419"><ele>551.1999999999999</ele><time>2026-04-04T14:35:02.999Z</time></trkpt><trkpt lat="45.57004511317585" lon="10.374404887377938"><ele>548.0</ele><time>2026-04-04T14:35:03.999Z</time></trkpt><trkpt lat="45.56994178268751" lon="10.374360868881274"><ele>548.0</ele><time>2026-04-04T14:35:04.999Z</time></trkpt><trkpt lat="45.56983744568749" lon="10.37432392445605"><ele>548.0</ele><time>2026-04-04T14:35:05.999Z</time></trkpt><trkpt lat="45.56973762568664" lon="10.374288559887116"><ele>548.0</ele><time>2026-04-04T14:35:06.999Z</time></trkpt><trkpt lat="45.56965207255295" lon="10.374257555539588"><ele>548.0</ele><time>2026-04-04T14:35:07.999Z</time></trkpt><trkpt lat="45.569566030516874" lon="10.37422897926648"><ele>548.0</ele><time>2026-04-04T14:35:08.999Z</time></trkpt><trkpt lat="45.56947739605076" lon="10.374217633184418"><ele>546.0</ele><time>2026-04-04T14:35:09.999Z</time></trkpt><trkpt lat="45.56937302939923" lon="10.374269200375688"><ele>544.0</ele><time>2026-04-04T14:35:10.999Z</time></trkpt><trkpt lat="45.56930620648936" lon="10.37442594328873"><ele>542.0</ele><time>2026-04-04T14:35:11.999Z</time></trkpt><trkpt lat="45.56925424312764" lon="10.374539634336678"><ele>540.0</ele><time>2026-04-04T14:35:12.999Z</time></trkpt><trkpt lat="45.56920187605013" lon="10.374614263796985"><ele>538.0</ele><time>2026-04-04T14:35:13.999Z</time></trkpt><trkpt lat="45.56912013887374" lon="10.374681764086576"><ele>535.0</ele><time>2026-04-04T14:35:14.999Z</time></trkpt><trkpt lat="45.56902804740852" lon="10.37475451447254"><ele>532.0</ele><time>2026-04-04T14:35:15.999Z</time></trkpt><trkpt lat="45.5689334615391" lon="10.374820216527768"><ele>529.0</ele><time>2026-04-04T14:35:16.999Z</time></trkpt><trkpt lat="45.56883159864109" lon="10.374872784271739"><ele>526.0</ele><time>2026-04-04T14:35:17.999Z</time></trkpt><trkpt lat="45.56872710411395" lon="10.374913338302688"><ele>523.0</ele><time>2026-04-04T14:35:18.999Z</time></trkpt><trkpt lat="45.56861639191307" lon="10.37494343947389"><ele>521.0</ele><time>2026-04-04T14:35:19.999Z</time></trkpt><trkpt lat="45.56851311653179" lon="10.374970560501016"><ele>519.0</ele><time>2026-04-04T14:35:20.999Z</time></trkpt><trkpt lat="45.56841373686541" lon="10.374995449098801"><ele>517.0</ele><time>2026-04-04T14:35:21.999Z</time></trkpt><trkpt lat="45.56831988856541" lon="10.375014189403787"><ele>515.0</ele><time>2026-04-04T14:35:22.999Z</time></trkpt><trkpt lat="45.568227094992764" lon="10.375021978189046"><ele>513.0</ele><time>2026-04-04T14:35:23.999Z</time></trkpt><trkpt lat="45.568132308382594" lon="10.375019250230137"><ele>513.0</ele><time>2026-04-04T14:35:24.999Z</time></trkpt><trkpt lat="45.56804442352724" lon="10.374998385231752"><ele>513.0</ele><time>2026-04-04T14:35:25.999Z</time></trkpt><trkpt lat="45.56794517470412" lon="10.374964482412022"><ele>513.0</ele><time>2026-04-04T14:35:26.999Z</time></trkpt><trkpt lat="45.567844189847484" lon="10.374924208117768"><ele>513.0</ele><time>2026-04-04T14:35:27.999Z</time></trkpt><trkpt lat="45.56774471286675" lon="10.374867858297462"><ele>513.0</ele><time>2026-04-04T14:35:28.999Z</time></trkpt><trkpt lat="45.56764147614781" lon="10.374815901214234"><ele>513.1999999999999</ele><time>2026-04-04T14:35:29.999Z</time></trkpt><trkpt lat="45.56753707256635" lon="10.3747711279294"><ele>513.4</ele><time>2026-04-04T14:35:30.999Z</time></trkpt><trkpt lat="45.56743809991449" lon="10.374732755098213"><ele>513.5999999999999</ele><time>2026-04-04T14:35:31.999Z</time></trkpt><trkpt lat="45.56735387592776" lon="10.374692396131936"><ele>513.8</ele><time>2026-04-04T14:35:32.999Z</time></trkpt><trkpt lat="45.56727662130312" lon="10.374637633895674"><ele>514.0</ele><time>2026-04-04T14:35:33.999Z</time></trkpt><trkpt lat="45.56721864101201" lon="10.374506311244453"><ele>514.0</ele><time>2026-04-04T14:35:34.999Z</time></trkpt><trkpt lat="45.56716358652046" lon="10.37438487742479"><ele>514.0</ele><time>2026-04-04T14:35:35.999Z</time></trkpt><trkpt lat="45.56711084895751" lon="10.3742695116394"><ele>514.0</ele><time>2026-04-04T14:35:36.999Z</time></trkpt><trkpt lat="45.56706209682472" lon="10.374180408081218"><ele>514.0</ele><time>2026-04-04T14:35:37.999Z</time></trkpt><trkpt lat="45.56696286383846" lon="10.374084693047024"><ele>514.0</ele><time>2026-04-04T14:35:39.999Z</time></trkpt><trkpt lat="45.566871917883944" lon="10.374140169454572"><ele>509.6</ele><time>2026-04-04T14:35:40.999Z</time></trkpt><trkpt lat="45.56679972460501" lon="10.374146149801362"><ele>505.2</ele><time>2026-04-04T14:35:41.999Z</time></trkpt><trkpt lat="45.566734239969925" lon="10.37395317193121"><ele>500.80000000000007</ele><time>2026-04-04T14:35:43.999Z</time></trkpt><trkpt lat="45.566731212885834" lon="10.373812920772993"><ele>496.40000000000003</ele><time>2026-04-04T14:35:44.999Z</time></trkpt><trkpt lat="45.56670211654178" lon="10.373700885951711"><ele>492.0</ele><time>2026-04-04T14:35:45.999Z</time></trkpt><trkpt lat="45.56661502759444" lon="10.373551833871618"><ele>492.0</ele><time>2026-04-04T14:35:46.999Z</time></trkpt><trkpt lat="45.56652708753692" lon="10.373450631243283"><ele>492.0</ele><time>2026-04-04T14:35:47.999Z</time></trkpt><trkpt lat="45.566421845341765" lon="10.373365920614026"><ele>492.0</ele><time>2026-04-04T14:35:48.999Z</time></trkpt><trkpt lat="45.56632081815961" lon="10.37329909850046"><ele>492.0</ele><time>2026-04-04T14:35:49.999Z</time></trkpt><trkpt lat="45.56623453542003" lon="10.373212505253894"><ele>489.40000000000003</ele><time>2026-04-04T14:35:50.999Z</time></trkpt><trkpt lat="45.56616177131121" lon="10.373173538909683"><ele>486.80000000000007</ele><time>2026-04-04T14:35:51.999Z</time></trkpt><trkpt lat="45.56607861076705" lon="10.373170320204133"><ele>484.2</ele><time>2026-04-04T14:35:52.999Z</time></trkpt><trkpt lat="45.566013188947984" lon="10.373182441637823"><ele>481.6</ele><time>2026-04-04T14:35:53.999Z</time></trkpt><trkpt lat="45.56590078656827" lon="10.373161446558537"><ele>479.0</ele><time>2026-04-04T14:35:55.999Z</time></trkpt><trkpt lat="45.565803370075635" lon="10.373078795824146"><ele>479.0</ele><time>2026-04-04T14:35:58Z</time></trkpt><trkpt lat="45.56573922785377" lon="10.373027151660914"><ele>479.0</ele><time>2026-04-04T14:35:59Z</time></trkpt><trkpt lat="45.56566299415414" lon="10.372963767540963"><ele>479.0</ele><time>2026-04-04T14:36:00Z</time></trkpt><trkpt lat="45.565588435827564" lon="10.372892074262593"><ele>479.0</ele><time>2026-04-04T14:36:01Z</time></trkpt><trkpt lat="45.56551971955712" lon="10.372797279540206"><ele>479.0</ele><time>2026-04-04T14:36:02Z</time></trkpt><trkpt lat="45.56544556240706" lon="10.372690230548452"><ele>478.4</ele><time>2026-04-04T14:36:03Z</time></trkpt><trkpt lat="45.565367234555055" lon="10.372591525411734"><ele>477.79999999999995</ele><time>2026-04-04T14:36:04Z</time></trkpt><trkpt lat="45.565287760805035" lon="10.3724857961021"><ele>477.20000000000005</ele><time>2026-04-04T14:36:05Z</time></trkpt><trkpt lat="45.56522409059996" lon="10.3723847900614"><ele>476.6</ele><time>2026-04-04T14:36:06Z</time></trkpt><trkpt lat="45.56516689238414" lon="10.372281353753795"><ele>476.0</ele><time>2026-04-04T14:36:07Z</time></trkpt><trkpt lat="45.565118284534314" lon="10.372190455586532"><ele>476.4</ele><time>2026-04-04T14:36:08Z</time></trkpt><trkpt lat="45.565071651015415" lon="10.372107247682772"><ele>476.8</ele><time>2026-04-04T14:36:09Z</time></trkpt><trkpt lat="45.56501887823196" lon="10.372007147651539"><ele>477.19999999999993</ele><time>2026-04-04T14:36:10Z</time></trkpt><trkpt lat="45.56495149537957" lon="10.371891013414528"><ele>477.59999999999997</ele><time>2026-04-04T14:36:11Z</time></trkpt><trkpt lat="45.564876356649464" lon="10.37176589155801"><ele>478.0</ele><time>2026-04-04T14:36:12Z</time></trkpt><trkpt lat="45.564809709281214" lon="10.37167065068558"><ele>478.0</ele><time>2026-04-04T14:36:13Z</time></trkpt><trkpt lat="45.564721530150656" lon="10.371560899134147"><ele>477.99999999999994</ele><time>2026-04-04T14:36:14Z</time></trkpt><trkpt lat="45.564643197004536" lon="10.371450497873356"><ele>477.99999999999994</ele><time>2026-04-04T14:36:15Z</time></trkpt><trkpt lat="45.564578709658385" lon="10.371352010786023"><ele>478.0</ele><time>2026-04-04T14:36:16Z</time></trkpt><trkpt lat="45.564513281361656" lon="10.371265826369525"><ele>478.0</ele><time>2026-04-04T14:36:17Z</time></trkpt><trkpt lat="45.56444641531149" lon="10.37118768985146"><ele>477.83333333333337</ele><time>2026-04-04T14:36:18Z</time></trkpt><trkpt lat="45.56441465458882" lon="10.371095855800142"><ele>477.6666666666667</ele><time>2026-04-04T14:36:19Z</time></trkpt><trkpt lat="45.56435114314514" lon="10.37104012414754"><ele>477.5</ele><time>2026-04-04T14:36:22Z</time></trkpt><trkpt lat="45.5642935335173" lon="10.370956751943657"><ele>477.33333333333337</ele><time>2026-04-04T14:36:31.999Z</time></trkpt><trkpt lat="45.564261735310474" lon="10.370878669307718"><ele>477.1666666666667</ele><time>2026-04-04T14:36:33.999Z</time></trkpt><trkpt lat="45.56412998706229" lon="10.370926355613896"><ele>477.0</ele><time>2026-04-04T14:36:35.999Z</time></trkpt><trkpt lat="45.56405784656535" lon="10.370989951415309"><ele>477.0</ele><time>2026-04-04T14:36:36.999Z</time></trkpt><trkpt lat="45.563985138704496" lon="10.371060691638094"><ele>477.0</ele><time>2026-04-04T14:36:37.999Z</time></trkpt><trkpt lat="45.563915769683994" lon="10.371143554530537"><ele>477.0</ele><time>2026-04-04T14:36:38.999Z</time></trkpt><trkpt lat="45.56385652799877" lon="10.371227545436964"><ele>477.0</ele><time>2026-04-04T14:36:39.999Z</time></trkpt><trkpt lat="45.56380592659703" lon="10.371297372373347"><ele>477.0</ele><time>2026-04-04T14:36:40.999Z</time></trkpt><trkpt lat="45.56373345036991" lon="10.371296088553287"><ele>477.0</ele><time>2026-04-04T14:36:41.999Z</time></trkpt><trkpt lat="45.563610642916366" lon="10.371279544340984"><ele>475.6</ele><time>2026-04-04T14:36:43.999Z</time></trkpt><trkpt lat="45.56355183412129" lon="10.371174279896929"><ele>474.20000000000005</ele><time>2026-04-04T14:36:44.999Z</time></trkpt><trkpt lat="45.56351854002011" lon="10.371060917405812"><ele>472.8</ele><time>2026-04-04T14:36:45.999Z</time></trkpt><trkpt lat="45.56346716493193" lon="10.370960817610687"><ele>471.4</ele><time>2026-04-04T14:36:46.999Z</time></trkpt><trkpt lat="45.563387540739846" lon="10.370894735449488"><ele>470.0</ele><time>2026-04-04T14:36:47.999Z</time></trkpt><trkpt lat="45.56329268570925" lon="10.37082972372395"><ele>470.0</ele><time>2026-04-04T14:36:48.999Z</time></trkpt><trkpt lat="45.56317804488155" lon="10.370825215801275"><ele>470.0</ele><time>2026-04-04T14:36:49.999Z</time></trkpt><trkpt lat="45.56306887186527" lon="10.37081309105571"><ele>470.0</ele><time>2026-04-04T14:36:50.999Z</time></trkpt><trkpt lat="45.56295354265669" lon="10.370799861099762"><ele>470.0</ele><time>2026-04-04T14:36:51.999Z</time></trkpt><trkpt lat="45.56283736487125" lon="10.370783585817206"><ele>468.25</ele><time>2026-04-04T14:36:52.999Z</time></trkpt><trkpt lat="45.562723414474036" lon="10.370763579861466"><ele>466.5</ele><time>2026-04-04T14:36:53.999Z</time></trkpt><trkpt lat="45.56261292326579" lon="10.370737696145802"><ele>464.75</ele><time>2026-04-04T14:36:54.999Z</time></trkpt><trkpt lat="45.56249618615726" lon="10.370716811689764"><ele>463.0</ele><time>2026-04-04T14:36:55.999Z</time></trkpt><trkpt lat="45.5623871766957" lon="10.37072156600242"><ele>463.0</ele><time>2026-04-04T14:36:56.999Z</time></trkpt><trkpt lat="45.562280477542366" lon="10.370742133587585"><ele>462.99999999999994</ele><time>2026-04-04T14:36:57.999Z</time></trkpt><trkpt lat="45.56218468400918" lon="10.370763394996997"><ele>462.99999999999994</ele><time>2026-04-04T14:36:58.999Z</time></trkpt><trkpt lat="45.56208623213105" lon="10.370783036214927"><ele>463.0</ele><time>2026-04-04T14:36:59.999Z</time></trkpt><trkpt lat="45.56198014832051" lon="10.370806947503278"><ele>463.0</ele><time>2026-04-04T14:37:00.999Z</time></trkpt><trkpt lat="45.56187679419804" lon="10.370840387108569"><ele>462.1666666666667</ele><time>2026-04-04T14:37:01.999Z</time></trkpt><trkpt lat="45.56177990521972" lon="10.370886590124647"><ele>461.33333333333337</ele><time>2026-04-04T14:37:02.999Z</time></trkpt><trkpt lat="45.56169282539399" lon="10.370940053305894"><ele>460.5</ele><time>2026-04-04T14:37:03.999Z</time></trkpt><trkpt lat="45.56161148633053" lon="10.370983552776533"><ele>459.66666666666663</ele><time>2026-04-04T14:37:04.999Z</time></trkpt><trkpt lat="45.561540474785005" lon="10.371006471986327"><ele>458.8333333333333</ele><time>2026-04-04T14:37:05.999Z</time></trkpt><trkpt lat="45.56147284034564" lon="10.370981282281953"><ele>458.0</ele><time>2026-04-04T14:37:06.999Z</time></trkpt><trkpt lat="45.561403818814455" lon="10.370909704694109"><ele>458.0</ele><time>2026-04-04T14:37:07.999Z</time></trkpt><trkpt lat="45.5613594656283" lon="10.370778026361487"><ele>457.99999999999994</ele><time>2026-04-04T14:37:08.999Z</time></trkpt><trkpt lat="45.56131826927439" lon="10.370636588516023"><ele>457.99999999999994</ele><time>2026-04-04T14:37:09.999Z</time></trkpt><trkpt lat="45.56127745467517" lon="10.370504800027788"><ele>458.0</ele><time>2026-04-04T14:37:10.999Z</time></trkpt><trkpt lat="45.5612329335522" lon="10.370381507929716"><ele>458.0</ele><time>2026-04-04T14:37:11.999Z</time></trkpt><trkpt lat="45.561191914067045" lon="10.370260833086482"><ele>456.79999999999995</ele><time>2026-04-04T14:37:12.999Z</time></trkpt><trkpt lat="45.56115021869125" lon="10.37014248145623"><ele>455.59999999999997</ele><time>2026-04-04T14:37:13.999Z</time></trkpt><trkpt lat="45.561104425658826" lon="10.370033870564031"><ele>454.40000000000003</ele><time>2026-04-04T14:37:14.999Z</time></trkpt><trkpt lat="45.56104038390499" lon="10.369946206593301"><ele>453.20000000000005</ele><time>2026-04-04T14:37:15.999Z</time></trkpt><trkpt lat="45.56095288573486" lon="10.369885789514734"><ele>452.0</ele><time>2026-04-04T14:37:16.999Z</time></trkpt><trkpt lat="45.56084895018078" lon="10.369842969233101"><ele>452.0</ele><time>2026-04-04T14:37:17.999Z</time></trkpt><trkpt lat="45.560735168834476" lon="10.369841036356858"><ele>452.0</ele><time>2026-04-04T14:37:18.999Z</time></trkpt><trkpt lat="45.56061991579973" lon="10.369871448444453"><ele>452.0</ele><time>2026-04-04T14:37:19.999Z</time></trkpt><trkpt lat="45.560507033874394" lon="10.369942022175222"><ele>452.0</ele><time>2026-04-04T14:37:20.999Z</time></trkpt><trkpt lat="45.56040675197164" lon="10.37004613814004"><ele>455.75</ele><time>2026-04-04T14:37:21.999Z</time></trkpt><trkpt lat="45.5603110305624" lon="10.370167368760248"><ele>459.5</ele><time>2026-04-04T14:37:22.999Z</time></trkpt><trkpt lat="45.56022042966332" lon="10.370283555608871"><ele>463.25</ele><time>2026-04-04T14:37:23.999Z</time></trkpt><trkpt lat="45.5601181388273" lon="10.37041211018514"><ele>467.0</ele><time>2026-04-04T14:37:24.999Z</time></trkpt><trkpt lat="45.56001912244012" lon="10.370536233410022"><ele>459.5</ele><time>2026-04-04T14:37:25.999Z</time></trkpt><trkpt lat="45.55991881984493" lon="10.370663753055588"><ele>452.0</ele><time>2026-04-04T14:37:26.999Z</time></trkpt><trkpt lat="45.55981755251604" lon="10.37079813897964"><ele>444.5</ele><time>2026-04-04T14:37:27.999Z</time></trkpt><trkpt lat="45.55971976342489" lon="10.37094188954883"><ele>437.0</ele><time>2026-04-04T14:37:28.999Z</time></trkpt><trkpt lat="45.55962977397675" lon="10.371095010107737"><ele>437.0</ele><time>2026-04-04T14:37:29.999Z</time></trkpt><trkpt lat="45.5595447372735" lon="10.371251856491712"><ele>437.0</ele><time>2026-04-04T14:37:30.999Z</time></trkpt><trkpt lat="45.55946511855127" lon="10.37140894204126"><ele>437.0</ele><time>2026-04-04T14:37:31.999Z</time></trkpt><trkpt lat="45.55938645893745" lon="10.37156683291216"><ele>437.0</ele><time>2026-04-04T14:37:32.999Z</time></trkpt><trkpt lat="45.55930932489017" lon="10.37172166145317"><ele>438.25</ele><time>2026-04-04T14:37:33.999Z</time></trkpt><trkpt lat="45.55923033230966" lon="10.371864778811775"><ele>439.5</ele><time>2026-04-04T14:37:34.999Z</time></trkpt><trkpt lat="45.55914234563255" lon="10.37198713259717"><ele>440.75</ele><time>2026-04-04T14:37:35.999Z</time></trkpt><trkpt lat="45.55904756153477" lon="10.372103805577023"><ele>442.0</ele><time>2026-04-04T14:37:36.999Z</time></trkpt><trkpt lat="45.558951176762626" lon="10.372218824049645"><ele>440.75</ele><time>2026-04-04T14:37:37.999Z</time></trkpt><trkpt lat="45.558859396557416" lon="10.37233156265199"><ele>439.5</ele><time>2026-04-04T14:37:38.999Z</time></trkpt><trkpt lat="45.55877075919905" lon="10.372458620796088"><ele>438.25</ele><time>2026-04-04T14:37:39.999Z</time></trkpt><trkpt lat="45.55869841129168" lon="10.37260824895641"><ele>437.0</ele><time>2026-04-04T14:37:40.999Z</time></trkpt><trkpt lat="45.55864943472324" lon="10.372782438938758"><ele>437.0</ele><time>2026-04-04T14:37:41.999Z</time></trkpt><trkpt lat="45.55860775835418" lon="10.372942559086585"><ele>437.00000000000006</ele><time>2026-04-04T14:37:42.999Z</time></trkpt><trkpt lat="45.55856836290872" lon="10.373094851567895"><ele>437.00000000000006</ele><time>2026-04-04T14:37:43.999Z</time></trkpt><trkpt lat="45.55853119074021" lon="10.373241414974409"><ele>437.0</ele><time>2026-04-04T14:37:44.999Z</time></trkpt><trkpt lat="45.558501368981496" lon="10.37335911298098"><ele>437.0</ele><time>2026-04-04T14:37:45.999Z</time></trkpt><trkpt lat="45.55846925944063" lon="10.373452173589849"><ele>434.66666666666663</ele><time>2026-04-04T14:37:46.999Z</time></trkpt><trkpt lat="45.558430031938194" lon="10.37352309115024"><ele>432.3333333333333</ele><time>2026-04-04T14:37:47.999Z</time></trkpt><trkpt lat="45.55836897577545" lon="10.373571337342582"><ele>430.0</ele><time>2026-04-04T14:37:48.999Z</time></trkpt><trkpt lat="45.558291043187474" lon="10.373619771163849"><ele>427.66666666666663</ele><time>2026-04-04T14:37:49.999Z</time></trkpt><trkpt lat="45.5582019335852" lon="10.373690735962136"><ele>425.3333333333333</ele><time>2026-04-04T14:37:50.999Z</time></trkpt><trkpt lat="45.55811316023245" lon="10.373758248978277"><ele>423.0</ele><time>2026-04-04T14:37:51.999Z</time></trkpt><trkpt lat="45.558018126586354" lon="10.373829381922867"><ele>422.2</ele><time>2026-04-04T14:37:52.999Z</time></trkpt><trkpt lat="45.55791931124581" lon="10.373881330420742"><ele>421.4</ele><time>2026-04-04T14:37:53.999Z</time></trkpt><trkpt lat="45.557817719096306" lon="10.373953399195921"><ele>420.59999999999997</ele><time>2026-04-04T14:37:54.999Z</time></trkpt><trkpt lat="45.55772428988734" lon="10.374042300614162"><ele>419.79999999999995</ele><time>2026-04-04T14:37:55.999Z</time></trkpt><trkpt lat="45.55764223051286" lon="10.374158525541372"><ele>419.0</ele><time>2026-04-04T14:37:56.999Z</time></trkpt><trkpt lat="45.55757995381049" lon="10.374308138203439"><ele>419.0</ele><time>2026-04-04T14:37:57.999Z</time></trkpt><trkpt lat="45.55755284369538" lon="10.374467445754384"><ele>419.0</ele><time>2026-04-04T14:37:58.999Z</time></trkpt><trkpt lat="45.55754033151018" lon="10.374616727749265"><ele>419.0</ele><time>2026-04-04T14:37:59.999Z</time></trkpt><trkpt lat="45.55752624101531" lon="10.374754783764041"><ele>419.0</ele><time>2026-04-04T14:38:00.999Z</time></trkpt><trkpt lat="45.55749623872515" lon="10.374871562068249"><ele>419.0</ele><time>2026-04-04T14:38:01.999Z</time></trkpt><trkpt lat="45.55744665880168" lon="10.37497127953823"><ele>419.6</ele><time>2026-04-04T14:38:03Z</time></trkpt><trkpt lat="45.557381107316154" lon="10.375046588307127"><ele>420.2</ele><time>2026-04-04T14:38:04Z</time></trkpt><trkpt lat="45.557295088033435" lon="10.375110199373824"><ele>420.8</ele><time>2026-04-04T14:38:05Z</time></trkpt><trkpt lat="45.55719649559695" lon="10.375185573753114"><ele>421.40000000000003</ele><time>2026-04-04T14:38:06Z</time></trkpt><trkpt lat="45.557096118185584" lon="10.375262312796222"><ele>422.0</ele><time>2026-04-04T14:38:07Z</time></trkpt><trkpt lat="45.556997467242205" lon="10.375333526271099"><ele>422.0</ele><time>2026-04-04T14:38:08Z</time></trkpt><trkpt lat="45.55689637110377" lon="10.37540587730551"><ele>422.0</ele><time>2026-04-04T14:38:09Z</time></trkpt><trkpt lat="45.55679843990282" lon="10.375480942695672"><ele>422.0</ele><time>2026-04-04T14:38:10Z</time></trkpt><trkpt lat="45.55670840878641" lon="10.375553382746725"><ele>422.0</ele><time>2026-04-04T14:38:11Z</time></trkpt><trkpt lat="45.55661649691632" lon="10.375627673077187"><ele>422.0</ele><time>2026-04-04T14:38:12Z</time></trkpt><trkpt lat="45.556528157809836" lon="10.375701760657071"><ele>417.40000000000003</ele><time>2026-04-04T14:38:13Z</time></trkpt><trkpt lat="45.55644290786882" lon="10.375774359767766"><ele>412.8</ele><time>2026-04-04T14:38:14Z</time></trkpt><trkpt lat="45.55636202022179" lon="10.375843954883665"><ele>408.2</ele><time>2026-04-04T14:38:15Z</time></trkpt><trkpt lat="45.5562732741628" lon="10.375924843185157"><ele>403.6</ele><time>2026-04-04T14:38:16Z</time></trkpt><trkpt lat="45.55618609258895" lon="10.376031240957502"><ele>399.0</ele><time>2026-04-04T14:38:17Z</time></trkpt><trkpt lat="45.55611241748951" lon="10.376143409941694"><ele>399.0</ele><time>2026-04-04T14:38:18Z</time></trkpt><trkpt lat="45.55604771538648" lon="10.37626431623647"><ele>399.0</ele><time>2026-04-04T14:38:19Z</time></trkpt><trkpt lat="45.55598381641514" lon="10.376377645110768"><ele>399.0</ele><time>2026-04-04T14:38:20Z</time></trkpt><trkpt lat="45.55592367645958" lon="10.376464899702336"><ele>399.0</ele><time>2026-04-04T14:38:21Z</time></trkpt><trkpt lat="45.555857809385834" lon="10.376531889172757"><ele>399.0</ele><time>2026-04-04T14:38:22Z</time></trkpt><trkpt lat="45.55578688354789" lon="10.3765709307887"><ele>399.0</ele><time>2026-04-04T14:38:23Z</time></trkpt><trkpt lat="45.55571151086538" lon="10.376585975639756"><ele>399.0</ele><time>2026-04-04T14:38:24Z</time></trkpt><trkpt lat="45.55558352371714" lon="10.376585226416793"><ele>399.0</ele><time>2026-04-04T14:38:26Z</time></trkpt><trkpt lat="45.55552114469552" lon="10.376524425385224"><ele>399.0</ele><time>2026-04-04T14:38:28Z</time></trkpt><trkpt lat="45.55550317684083" lon="10.376386299656088"><ele>399.0</ele><time>2026-04-04T14:38:28.999Z</time></trkpt><trkpt lat="45.5554874207687" lon="10.376274288144963"><ele>399.0</ele><time>2026-04-04T14:38:29.999Z</time></trkpt><trkpt lat="45.555458198107" lon="10.376169445265305"><ele>399.0</ele><time>2026-04-04T14:38:30.999Z</time></trkpt><trkpt lat="45.55542959256948" lon="10.376073039396159"><ele>399.0</ele><time>2026-04-04T14:38:31.999Z</time></trkpt><trkpt lat="45.55540721499253" lon="10.375985095255757"><ele>399.0</ele><time>2026-04-04T14:38:32.999Z</time></trkpt><trkpt lat="45.5553331309898" lon="10.375839651350987"><ele>399.0</ele><time>2026-04-04T14:38:34.999Z</time></trkpt><trkpt lat="45.55527274161312" lon="10.375784147360733"><ele>399.0</ele><time>2026-04-04T14:38:35.999Z</time></trkpt><trkpt lat="45.55521036275761" lon="10.37571794180801"><ele>399.42857142857144</ele><time>2026-04-04T14:38:36.999Z</time></trkpt><trkpt lat="45.55515792145447" lon="10.37564148262376"><ele>399.8571428571429</ele><time>2026-04-04T14:38:37.999Z</time></trkpt><trkpt lat="45.55511613500639" lon="10.375559806957545"><ele>400.2857142857143</ele><time>2026-04-04T14:38:38.999Z</time></trkpt><trkpt lat="45.55507802612815" lon="10.375472375647382"><ele>400.7142857142857</ele><time>2026-04-04T14:38:39.999Z</time></trkpt><trkpt lat="45.555046011393216" lon="10.375381350763426"><ele>401.14285714285717</ele><time>2026-04-04T14:38:40.999Z</time></trkpt><trkpt lat="45.55501764856392" lon="10.375294870778093"><ele>401.57142857142856</ele><time>2026-04-04T14:38:41.999Z</time></trkpt><trkpt lat="45.55497697261362" lon="10.375221853902225"><ele>402.0</ele><time>2026-04-04T14:38:42.999Z</time></trkpt><trkpt lat="45.55492445474407" lon="10.375171797241663"><ele>402.0</ele><time>2026-04-04T14:38:43.999Z</time></trkpt><trkpt lat="45.554864733532284" lon="10.37512289685461"><ele>402.0</ele><time>2026-04-04T14:38:44.999Z</time></trkpt><trkpt lat="45.55478182650917" lon="10.37511594196231"><ele>402.0</ele><time>2026-04-04T14:38:45.999Z</time></trkpt><trkpt lat="45.55470291823632" lon="10.375151950161124"><ele>402.0</ele><time>2026-04-04T14:38:46.999Z</time></trkpt><trkpt lat="45.5546369603002" lon="10.37518915990142"><ele>402.0</ele><time>2026-04-04T14:38:47.999Z</time></trkpt><trkpt lat="45.554529988063386" lon="10.37524423746127"><ele>402.0</ele><time>2026-04-04T14:38:49.999Z</time></trkpt><trkpt lat="45.55441919903688" lon="10.375279311608876"><ele>400.3333333333333</ele><time>2026-04-04T14:38:51.999Z</time></trkpt><trkpt lat="45.554355911862295" lon="10.375297602296662"><ele>398.66666666666663</ele><time>2026-04-04T14:38:52.999Z</time></trkpt><trkpt lat="45.55428301735875" lon="10.375330350552282"><ele>397.0</ele><time>2026-04-04T14:38:53.999Z</time></trkpt><trkpt lat="45.55420606543664" lon="10.37536492162136"><ele>395.3333333333333</ele><time>2026-04-04T14:38:54.999Z</time></trkpt><trkpt lat="45.554096490897635" lon="10.375240327670706"><ele>393.66666666666663</ele><time>2026-04-04T14:38:55.999Z</time></trkpt><trkpt lat="45.554012419398234" lon="10.375214696560034"><ele>392.0</ele><time>2026-04-04T14:38:56.999Z</time></trkpt><trkpt lat="45.55386290143927" lon="10.375146745383123"><ele>392.0</ele><time>2026-04-04T14:38:57.999Z</time></trkpt><trkpt lat="45.553780447812485" lon="10.375090236412284"><ele>392.0</ele><time>2026-04-04T14:38:58.999Z</time></trkpt><trkpt lat="45.55370324093374" lon="10.375041561254783"><ele>392.0</ele><time>2026-04-04T14:38:59.999Z</time></trkpt><trkpt lat="45.55362347082836" lon="10.374985291051388"><ele>392.0</ele><time>2026-04-04T14:39:00.999Z</time></trkpt><trkpt lat="45.55354908086265" lon="10.37490242619972"><ele>392.0</ele><time>2026-04-04T14:39:01.999Z</time></trkpt><trkpt lat="45.553467135780885" lon="10.37481532098926"><ele>388.6</ele><time>2026-04-04T14:39:02.999Z</time></trkpt><trkpt lat="45.55338917531047" lon="10.37470684664513"><ele>385.20000000000005</ele><time>2026-04-04T14:39:03.999Z</time></trkpt><trkpt lat="45.55331635540647" lon="10.37460033809374"><ele>381.8</ele><time>2026-04-04T14:39:04.999Z</time></trkpt><trkpt lat="45.55326498772977" lon="10.374473528521541"><ele>378.4</ele><time>2026-04-04T14:39:05.999Z</time></trkpt><trkpt lat="45.55322407141856" lon="10.374363175429606"><ele>375.0</ele><time>2026-04-04T14:39:06.999Z</time></trkpt><trkpt lat="45.55317156617837" lon="10.374257290172709"><ele>375.0</ele><time>2026-04-04T14:39:07.999Z</time></trkpt><trkpt lat="45.55312439641531" lon="10.374163436715213"><ele>375.0</ele><time>2026-04-04T14:39:08.999Z</time></trkpt><trkpt lat="45.55307768137009" lon="10.374058979497173"><ele>375.0</ele><time>2026-04-04T14:39:09.999Z</time></trkpt><trkpt lat="45.55303090387534" lon="10.37396465864017"><ele>375.0</ele><time>2026-04-04T14:39:10.999Z</time></trkpt><trkpt lat="45.55299420901762" lon="10.373879196744566"><ele>375.0</ele><time>2026-04-04T14:39:11.999Z</time></trkpt><trkpt lat="45.55299231486484" lon="10.373731106002724"><ele>375.0</ele><time>2026-04-04T14:39:13.999Z</time></trkpt><trkpt lat="45.55297247370833" lon="10.37361180959066"><ele>374.1666666666667</ele><time>2026-04-04T14:39:15.999Z</time></trkpt><trkpt lat="45.55293676929194" lon="10.37352802897394"><ele>373.3333333333333</ele><time>2026-04-04T14:39:18.999Z</time></trkpt><trkpt lat="45.55290545227023" lon="10.373437064237493"><ele>372.5</ele><time>2026-04-04T14:39:23.999Z</time></trkpt><trkpt lat="45.552976073575834" lon="10.373381436408868"><ele>371.66666666666663</ele><time>2026-04-04T14:39:25.999Z</time></trkpt><trkpt lat="45.552944785029055" lon="10.373261289972431"><ele>370.8333333333333</ele><time>2026-04-04T14:39:27.999Z</time></trkpt><trkpt lat="45.55289939855119" lon="10.373102871675213"><ele>370.0</ele><time>2026-04-04T14:39:29.999Z</time></trkpt><trkpt lat="45.552841913450344" lon="10.37298411805327"><ele>370.0</ele><time>2026-04-04T14:39:31.999Z</time></trkpt><trkpt lat="45.55276968004609" lon="10.372910417270225"><ele>370.0</ele><time>2026-04-04T14:39:33.999Z</time></trkpt><trkpt lat="45.55269732593588" lon="10.372828846763937"><ele>370.0</ele><time>2026-04-04T14:39:38.999Z</time></trkpt><trkpt lat="45.55262421949421" lon="10.372739112823345"><ele>370.0</ele><time>2026-04-04T14:39:41.999Z</time></trkpt><trkpt lat="45.552561735684144" lon="10.37267358344573"><ele>370.0</ele><time>2026-04-04T14:39:42.999Z</time></trkpt><trkpt lat="45.55249158837097" lon="10.372602798225412"><ele>370.0</ele><time>2026-04-04T14:39:43.999Z</time></trkpt><trkpt lat="45.55242658365487" lon="10.372527774201892"><ele>369.99999999999994</ele><time>2026-04-04T14:39:44.999Z</time></trkpt><trkpt lat="45.552370666733445" lon="10.372465867852103"><ele>370.0</ele><time>2026-04-04T14:39:45.999Z</time></trkpt><trkpt lat="45.55230963993675" lon="10.372407697500455"><ele>370.0</ele><time>2026-04-04T14:39:46.999Z</time></trkpt><trkpt lat="45.55225096753864" lon="10.37233881439466"><ele>370.0</ele><time>2026-04-04T14:39:47.999Z</time></trkpt><trkpt lat="45.55218909510519" lon="10.372265030244996"><ele>370.0</ele><time>2026-04-04T14:39:48.999Z</time></trkpt><trkpt lat="45.552121463550506" lon="10.372209673002844"><ele>369.99999999999994</ele><time>2026-04-04T14:39:49.999Z</time></trkpt><trkpt lat="45.55205740739291" lon="10.372178373851977"><ele>370.0</ele><time>2026-04-04T14:39:50.999Z</time></trkpt><trkpt lat="45.55189527984376" lon="10.37208746918591"><ele>369.0</ele><time>2026-04-04T14:39:51.999Z</time></trkpt><trkpt lat="45.55183373383651" lon="10.372030450636828"><ele>368.0</ele><time>2026-04-04T14:39:52.999Z</time></trkpt><trkpt lat="45.55177505049467" lon="10.37196013286277"><ele>367.0</ele><time>2026-04-04T14:39:53.999Z</time></trkpt><trkpt lat="45.551715158099" lon="10.371911753644438"><ele>366.0</ele><time>2026-04-04T14:39:54.999Z</time></trkpt><trkpt lat="45.55160726139408" lon="10.371940878849903"><ele>365.0</ele><time>2026-04-04T14:39:56.999Z</time></trkpt><trkpt lat="45.55149349929209" lon="10.371898917462397"><ele>364.0</ele><time>2026-04-04T14:39:58.999Z</time></trkpt><trkpt lat="45.55142747731889" lon="10.371844969770832"><ele>364.0</ele><time>2026-04-04T14:39:59.999Z</time></trkpt><trkpt lat="45.55135458988057" lon="10.37181543327968"><ele>364.0</ele><time>2026-04-04T14:40:00.999Z</time></trkpt><trkpt lat="45.55125457094375" lon="10.371795354925183"><ele>364.0</ele><time>2026-04-04T14:40:01.999Z</time></trkpt><trkpt lat="45.55115003354967" lon="10.371792348886874"><ele>364.0</ele><time>2026-04-04T14:40:02.999Z</time></trkpt><trkpt lat="45.5510610116509" lon="10.37181274500135"><ele>364.0</ele><time>2026-04-04T14:40:03.999Z</time></trkpt><trkpt lat="45.55097426764552" lon="10.371853253844286"><ele>362.79999999999995</ele><time>2026-04-04T14:40:04.999Z</time></trkpt><trkpt lat="45.55089445336239" lon="10.371900682251228"><ele>361.59999999999997</ele><time>2026-04-04T14:40:05.999Z</time></trkpt><trkpt lat="45.550809684430156" lon="10.371946295133922"><ele>360.4</ele><time>2026-04-04T14:40:06.999Z</time></trkpt><trkpt lat="45.55071794359406" lon="10.37199979061354"><ele>359.2</ele><time>2026-04-04T14:40:08Z</time></trkpt><trkpt lat="45.55061067174703" lon="10.372043610053312"><ele>358.0</ele><time>2026-04-04T14:40:09Z</time></trkpt><trkpt lat="45.55050889268837" lon="10.372076396752284"><ele>358.0</ele><time>2026-04-04T14:40:10Z</time></trkpt><trkpt lat="45.55041503205306" lon="10.372089030977317"><ele>358.0</ele><time>2026-04-04T14:40:11Z</time></trkpt><trkpt lat="45.55034084184848" lon="10.37208648727966"><ele>358.0</ele><time>2026-04-04T14:40:12Z</time></trkpt><trkpt lat="45.5502623874654" lon="10.372104589521015"><ele>358.0</ele><time>2026-04-04T14:40:13Z</time></trkpt><trkpt lat="45.550189973758584" lon="10.372120139111624"><ele>358.0</ele><time>2026-04-04T14:40:14Z</time></trkpt><trkpt lat="45.55011307921874" lon="10.372134059895348"><ele>358.0</ele><time>2026-04-04T14:40:15Z</time></trkpt><trkpt lat="45.55001648835441" lon="10.372167396302292"><ele>356.16666666666663</ele><time>2026-04-04T14:40:16Z</time></trkpt><trkpt lat="45.54993454229699" lon="10.372162706502719"><ele>354.3333333333333</ele><time>2026-04-04T14:40:17Z</time></trkpt><trkpt lat="45.54985410201582" lon="10.372148175527458"><ele>352.5</ele><time>2026-04-04T14:40:18Z</time></trkpt><trkpt lat="45.54977658270185" lon="10.37211643371005"><ele>350.6666666666667</ele><time>2026-04-04T14:40:19Z</time></trkpt><trkpt lat="45.549692332207606" lon="10.372079375179313"><ele>348.83333333333337</ele><time>2026-04-04T14:40:20Z</time></trkpt><trkpt lat="45.54961291468721" lon="10.372018470101692"><ele>347.0</ele><time>2026-04-04T14:40:21Z</time></trkpt><trkpt lat="45.54953182467357" lon="10.37198771714993"><ele>346.20000000000005</ele><time>2026-04-04T14:40:22Z</time></trkpt><trkpt lat="45.5494587419818" lon="10.37197476709935"><ele>345.4</ele><time>2026-04-04T14:40:23Z</time></trkpt><trkpt lat="45.549316014615606" lon="10.371991253774615"><ele>344.6</ele><time>2026-04-04T14:40:25Z</time></trkpt><trkpt lat="45.549212405949774" lon="10.371989195764801"><ele>343.79999999999995</ele><time>2026-04-04T14:40:26Z</time></trkpt><trkpt lat="45.54911987909723" lon="10.371972640903154"><ele>343.0</ele><time>2026-04-04T14:40:27Z</time></trkpt><trkpt lat="45.54903022457209" lon="10.372016347144077"><ele>343.0</ele><time>2026-04-04T14:40:28Z</time></trkpt><trkpt lat="45.548941026526464" lon="10.372059739337883"><ele>343.0</ele><time>2026-04-04T14:40:29Z</time></trkpt><trkpt lat="45.54884782694546" lon="10.372123462871688"><ele>343.0</ele><time>2026-04-04T14:40:30Z</time></trkpt><trkpt lat="45.5487635913799" lon="10.372156487974767"><ele>343.0</ele><time>2026-04-04T14:40:31Z</time></trkpt><trkpt lat="45.54868998291775" lon="10.372157075939862"><ele>343.0</ele><time>2026-04-04T14:40:32Z</time></trkpt><trkpt lat="45.548611669988524" lon="10.372126191826565"><ele>343.0</ele><time>2026-04-04T14:40:33Z</time></trkpt><trkpt lat="45.548552716343565" lon="10.372048986485089"><ele>345.4</ele><time>2026-04-04T14:40:34Z</time></trkpt><trkpt lat="45.5484970923692" lon="10.37194084366776"><ele>347.79999999999995</ele><time>2026-04-04T14:40:34.999Z</time></trkpt><trkpt lat="45.5484192017584" lon="10.371843280643233"><ele>350.2</ele><time>2026-04-04T14:40:35.999Z</time></trkpt><trkpt lat="45.548317331430646" lon="10.371768579949684"><ele>352.6</ele><time>2026-04-04T14:40:36.999Z</time></trkpt><trkpt lat="45.54819049695754" lon="10.371716194571476"><ele>355.0</ele><time>2026-04-04T14:40:37.999Z</time></trkpt><trkpt lat="45.54809559260061" lon="10.371657952817388"><ele>355.0</ele><time>2026-04-04T14:40:38.999Z</time></trkpt><trkpt lat="45.548009454360916" lon="10.371584501620081"><ele>355.0</ele><time>2026-04-04T14:40:39.999Z</time></trkpt><trkpt lat="45.54791776324907" lon="10.371514657784306"><ele>355.0</ele><time>2026-04-04T14:40:40.999Z</time></trkpt><trkpt lat="45.54781998118348" lon="10.371429073451248"><ele>355.0</ele><time>2026-04-04T14:40:42.999Z</time></trkpt><trkpt lat="45.54790856814365" lon="10.371398250118098"><ele>355.0</ele><time>2026-04-04T14:40:44.999Z</time></trkpt><trkpt lat="45.54811889870675" lon="10.371387164713468"><ele>355.0</ele><time>2026-04-04T14:40:50.999Z</time></trkpt><trkpt lat="45.54822830154178" lon="10.371427616772907"><ele>355.0</ele><time>2026-04-04T14:40:52.999Z</time></trkpt><trkpt lat="45.54828926435631" lon="10.371464632973273"><ele>355.0</ele><time>2026-04-04T14:40:54.999Z</time></trkpt><trkpt lat="45.54838696542396" lon="10.371480400556429"><ele>355.0</ele><time>2026-04-04T14:40:57.999Z</time></trkpt><trkpt lat="45.54850182095097" lon="10.371483744417468"><ele>355.0</ele><time>2026-04-04T14:40:59.999Z</time></trkpt><trkpt lat="45.548628091145" lon="10.371454413105095"><ele>352.6</ele><time>2026-04-04T14:41:00.999Z</time></trkpt><trkpt lat="45.548750225403175" lon="10.371472647739518"><ele>350.2</ele><time>2026-04-04T14:41:02.999Z</time></trkpt><trkpt lat="45.548809769983286" lon="10.371503762133267"><ele>347.79999999999995</ele><time>2026-04-04T14:41:03.999Z</time></trkpt><trkpt lat="45.54893277877157" lon="10.3714660288826"><ele>345.4</ele><time>2026-04-04T14:41:05.999Z</time></trkpt><trkpt lat="45.548996203459374" lon="10.37143835251751"><ele>343.0</ele><time>2026-04-04T14:41:06.999Z</time></trkpt><trkpt lat="45.54908925133136" lon="10.37140464636326"><ele>343.0</ele><time>2026-04-04T14:41:08.999Z</time></trkpt><trkpt lat="45.54932122619306" lon="10.371361242797025"><ele>343.0</ele><time>2026-04-04T14:41:17.999Z</time></trkpt><trkpt lat="45.54942746935405" lon="10.37127289572444"><ele>343.0</ele><time>2026-04-04T14:41:19.999Z</time></trkpt><trkpt lat="45.54950198775265" lon="10.371293873176395"><ele>343.0</ele><time>2026-04-04T14:41:20.999Z</time></trkpt><trkpt lat="45.549576844204104" lon="10.371273019620407"><ele>343.57142857142856</ele><time>2026-04-04T14:41:23.999Z</time></trkpt><trkpt lat="45.549651491874634" lon="10.371242380835472"><ele>344.1428571428571</ele><time>2026-04-04T14:41:28.999Z</time></trkpt><trkpt lat="45.549710147333414" lon="10.371201354188173"><ele>344.7142857142857</ele><time>2026-04-04T14:41:31.999Z</time></trkpt><trkpt lat="45.54978622008307" lon="10.371173219791178"><ele>345.2857142857143</ele><time>2026-04-04T14:41:33.999Z</time></trkpt><trkpt lat="45.54985210764985" lon="10.371180616528093"><ele>345.85714285714283</ele><time>2026-04-04T14:41:37.999Z</time></trkpt><trkpt lat="45.5499182945813" lon="10.371246263894054"><ele>346.42857142857144</ele><time>2026-04-04T14:41:40.999Z</time></trkpt><trkpt lat="45.54997257642197" lon="10.371314499834389"><ele>347.0</ele><time>2026-04-04T14:41:42.999Z</time></trkpt><trkpt lat="45.550057647320706" lon="10.37139228885552"><ele>347.0</ele><time>2026-04-04T14:41:44.999Z</time></trkpt><trkpt lat="45.550171300884955" lon="10.371450751231773"><ele>347.0</ele><time>2026-04-04T14:41:46.999Z</time></trkpt><trkpt lat="45.550279819092005" lon="10.371468289708336"><ele>347.0</ele><time>2026-04-04T14:41:48.999Z</time></trkpt><trkpt lat="45.55039742717804" lon="10.371498039629255"><ele>347.0</ele><time>2026-04-04T14:41:50.999Z</time></trkpt><trkpt lat="45.55049893184378" lon="10.371562925363268"><ele>348.83333333333337</ele><time>2026-04-04T14:41:52.999Z</time></trkpt><trkpt lat="45.55060669860754" lon="10.371584522078495"><ele>350.6666666666667</ele><time>2026-04-04T14:41:54.999Z</time></trkpt><trkpt lat="45.550678642315845" lon="10.371589375319417"><ele>352.5</ele><time>2026-04-04T14:41:55.999Z</time></trkpt><trkpt lat="45.55079443306337" lon="10.371600438572083"><ele>354.3333333333333</ele><time>2026-04-04T14:41:57.999Z</time></trkpt><trkpt lat="45.55086581394049" lon="10.371612364661427"><ele>356.16666666666663</ele><time>2026-04-04T14:42:02.999Z</time></trkpt><trkpt lat="45.55092885465679" lon="10.371597097338011"><ele>358.0</ele><time>2026-04-04T14:42:05.999Z</time></trkpt><trkpt lat="45.550998339881154" lon="10.371566409730685"><ele>358.0</ele><time>2026-04-04T14:42:09.999Z</time></trkpt><trkpt lat="45.55101640816307" lon="10.371459993355677"><ele>358.0</ele><time>2026-04-04T14:42:19Z</time></trkpt><trkpt lat="45.55104435916238" lon="10.371379037202306"><ele>358.0</ele><time>2026-04-04T14:42:21Z</time></trkpt><trkpt lat="45.55110939256725" lon="10.37130928980699"><ele>358.0</ele><time>2026-04-04T14:42:23Z</time></trkpt><trkpt lat="45.55120549695434" lon="10.371275610031288"><ele>358.0</ele><time>2026-04-04T14:42:25Z</time></trkpt><trkpt lat="45.55127974059466" lon="10.37126938127585"><ele>358.0</ele><time>2026-04-04T14:42:26Z</time></trkpt><trkpt lat="45.551369124729064" lon="10.371207518162112"><ele>361.8333333333333</ele><time>2026-04-04T14:42:28Z</time></trkpt><trkpt lat="45.55134157180912" lon="10.371109630855447"><ele>365.66666666666663</ele><time>2026-04-04T14:42:31Z</time></trkpt><trkpt lat="45.55125258792116" lon="10.37106226973361"><ele>369.5</ele><time>2026-04-04T14:42:33Z</time></trkpt><trkpt lat="45.55114736049177" lon="10.371055272545622"><ele>373.3333333333333</ele><time>2026-04-04T14:42:35Z</time></trkpt><trkpt lat="45.55108690728764" lon="10.370982333968648"><ele>377.1666666666667</ele><time>2026-04-04T14:42:37Z</time></trkpt><trkpt lat="45.55103894110706" lon="10.370915232523522"><ele>381.0</ele><time>2026-04-04T14:42:38Z</time></trkpt><trkpt lat="45.550954268044364" lon="10.37084697163715"><ele>381.0</ele><time>2026-04-04T14:42:40Z</time></trkpt><trkpt lat="45.55097945125673" lon="10.370763944936568"><ele>381.0</ele><time>2026-04-04T14:42:41.999Z</time></trkpt><trkpt lat="45.551008370725704" lon="10.370639801312317"><ele>381.0</ele><time>2026-04-04T14:42:43.999Z</time></trkpt><trkpt lat="45.550949127600184" lon="10.370500549463912"><ele>381.0</ele><time>2026-04-04T14:42:45.999Z</time></trkpt><trkpt lat="45.550857530167924" lon="10.370437387541457"><ele>381.0</ele><time>2026-04-04T14:42:47.999Z</time></trkpt><trkpt lat="45.55085720379375" lon="10.370335106550062"><ele>381.0</ele><time>2026-04-04T14:42:50.999Z</time></trkpt><trkpt lat="45.55094201832281" lon="10.37027719405765"><ele>384.8333333333333</ele><time>2026-04-04T14:42:52.999Z</time></trkpt><trkpt lat="45.55100499308809" lon="10.370228000367367"><ele>388.66666666666663</ele><time>2026-04-04T14:42:54.999Z</time></trkpt><trkpt lat="45.55099006703062" lon="10.37013105682922"><ele>392.5</ele><time>2026-04-04T14:42:56.999Z</time></trkpt><trkpt lat="45.550958697541525" lon="10.370020778714945"><ele>396.3333333333333</ele><time>2026-04-04T14:42:58.999Z</time></trkpt><trkpt lat="45.55094136932949" lon="10.369927996909478"><ele>400.16666666666663</ele><time>2026-04-04T14:42:59.999Z</time></trkpt><trkpt lat="45.55089146576576" lon="10.369856449333678"><ele>404.0</ele><time>2026-04-04T14:43:00.999Z</time></trkpt><trkpt lat="45.55086296304339" lon="10.369686635780791"><ele>407.66666666666663</ele><time>2026-04-04T14:43:02.999Z</time></trkpt><trkpt lat="45.550831544713226" lon="10.369607378349713"><ele>411.3333333333333</ele><time>2026-04-04T14:43:03.999Z</time></trkpt><trkpt lat="45.55080695364248" lon="10.369518270961684"><ele>415.0</ele><time>2026-04-04T14:43:05.999Z</time></trkpt><trkpt lat="45.55083850000861" lon="10.369440208622244"><ele>418.66666666666663</ele><time>2026-04-04T14:43:06.999Z</time></trkpt><trkpt lat="45.55088896704501" lon="10.369383290503691"><ele>422.3333333333333</ele><time>2026-04-04T14:43:08.999Z</time></trkpt><trkpt lat="45.550988308285454" lon="10.369276232469046"><ele>426.0</ele><time>2026-04-04T14:43:10.999Z</time></trkpt><trkpt lat="45.55104335108111" lon="10.369147570948916"><ele>426.0</ele><time>2026-04-04T14:43:12.999Z</time></trkpt><trkpt lat="45.55101742487089" lon="10.36904618031644"><ele>426.0</ele><time>2026-04-04T14:43:15.999Z</time></trkpt><trkpt lat="45.55098319961692" lon="10.368959800823186"><ele>426.0</ele><time>2026-04-04T14:43:17.999Z</time></trkpt><trkpt lat="45.5509129646729" lon="10.368866967027683"><ele>426.0</ele><time>2026-04-04T14:43:19.999Z</time></trkpt><trkpt lat="45.550894638535276" lon="10.368750338674758"><ele>426.0</ele><time>2026-04-04T14:43:21.999Z</time></trkpt><trkpt lat="45.550858295501975" lon="10.368666376613586"><ele>426.0</ele><time>2026-04-04T14:43:26.999Z</time></trkpt><trkpt lat="45.55094947921625" lon="10.368627022039693"><ele>428.3333333333333</ele><time>2026-04-04T14:43:39.999Z</time></trkpt><trkpt lat="45.55102324451689" lon="10.368651580881393"><ele>430.66666666666663</ele><time>2026-04-04T14:43:41.999Z</time></trkpt><trkpt lat="45.55109589249206" lon="10.36864976785089"><ele>433.0</ele><time>2026-04-04T14:43:47.999Z</time></trkpt><trkpt lat="45.55102993066632" lon="10.368540058760635"><ele>435.3333333333333</ele><time>2026-04-04T14:43:50.999Z</time></trkpt><trkpt lat="45.55099216383872" lon="10.368405280850773"><ele>437.66666666666663</ele><time>2026-04-04T14:43:52.999Z</time></trkpt><trkpt lat="45.55098590179679" lon="10.368307349617645"><ele>440.0</ele><time>2026-04-04T14:43:53.999Z</time></trkpt><trkpt lat="45.55097197356476" lon="10.368214912028726"><ele>439.99999999999994</ele><time>2026-04-04T14:43:54.999Z</time></trkpt><trkpt lat="45.550943067650934" lon="10.368123857109808"><ele>440.0</ele><time>2026-04-04T14:43:55.999Z</time></trkpt><trkpt lat="45.55090664534369" lon="10.367960638161085"><ele>440.0</ele><time>2026-04-04T14:43:57.999Z</time></trkpt><trkpt lat="45.55085069789236" lon="10.36786965867045"><ele>440.0</ele><time>2026-04-04T14:43:59.999Z</time></trkpt><trkpt lat="45.55075626626379" lon="10.367792605838698"><ele>439.99999999999994</ele><time>2026-04-04T14:44:01.999Z</time></trkpt><trkpt lat="45.55070680483413" lon="10.367730656045392"><ele>440.0</ele><time>2026-04-04T14:44:02.999Z</time></trkpt><trkpt lat="45.5506606040243" lon="10.367668298157952"><ele>437.99999999999994</ele><time>2026-04-04T14:44:03.999Z</time></trkpt><trkpt lat="45.55056166147906" lon="10.367582922961066"><ele>436.0</ele><time>2026-04-04T14:44:05.999Z</time></trkpt><trkpt lat="45.55050510215557" lon="10.367542011812883"><ele>434.0</ele><time>2026-04-04T14:44:07.999Z</time></trkpt><trkpt lat="45.55042444087152" lon="10.367579414754386"><ele>432.0</ele><time>2026-04-04T14:44:10.999Z</time></trkpt><trkpt lat="45.5503384933045" lon="10.367593058003324"><ele>429.99999999999994</ele><time>2026-04-04T14:44:13.999Z</time></trkpt><trkpt lat="45.55025102884048" lon="10.367601023436931"><ele>428.0</ele><time>2026-04-04T14:44:15.999Z</time></trkpt><trkpt lat="45.55016524683678" lon="10.367574556307778"><ele>425.66666666666663</ele><time>2026-04-04T14:44:17.999Z</time></trkpt><trkpt lat="45.55007882367449" lon="10.367577138085782"><ele>423.3333333333333</ele><time>2026-04-04T14:44:18.999Z</time></trkpt><trkpt lat="45.55001894237782" lon="10.367499009579522"><ele>421.0</ele><time>2026-04-04T14:44:22Z</time></trkpt><trkpt lat="45.55006904464044" lon="10.367382228990731"><ele>418.66666666666663</ele><time>2026-04-04T14:44:24Z</time></trkpt><trkpt lat="45.550114023050014" lon="10.367272104345217"><ele>416.3333333333333</ele><time>2026-04-04T14:44:26Z</time></trkpt><trkpt lat="45.5501112006913" lon="10.367174912135608"><ele>414.0</ele><time>2026-04-04T14:44:28Z</time></trkpt><trkpt lat="45.55005119676917" lon="10.367236305711916"><ele>414.0</ele><time>2026-04-04T14:44:33Z</time></trkpt><trkpt lat="45.54996754455634" lon="10.36728906289361"><ele>414.0</ele><time>2026-04-04T14:44:35Z</time></trkpt><trkpt lat="45.549906749636754" lon="10.367224584952167"><ele>414.0</ele><time>2026-04-04T14:44:38Z</time></trkpt><trkpt lat="45.54992597891945" lon="10.367128286911838"><ele>414.0</ele><time>2026-04-04T14:44:43Z</time></trkpt><trkpt lat="45.54991515707985" lon="10.366999861641112"><ele>414.0</ele><time>2026-04-04T14:44:45Z</time></trkpt><trkpt lat="45.54984066182509" lon="10.366927706839375"><ele>414.0</ele><time>2026-04-04T14:44:47Z</time></trkpt><trkpt lat="45.549788349556835" lon="10.366868914688885"><ele>411.1666666666667</ele><time>2026-04-04T14:44:49Z</time></trkpt><trkpt lat="45.549785294415834" lon="10.366755657182162"><ele>408.33333333333337</ele><time>2026-04-04T14:44:50.999Z</time></trkpt><trkpt lat="45.54970804083324" lon="10.366654327270822"><ele>405.5</ele><time>2026-04-04T14:44:53.999Z</time></trkpt><trkpt lat="45.549627188967655" lon="10.366584543572262"><ele>402.6666666666667</ele><time>2026-04-04T14:44:55.999Z</time></trkpt><trkpt lat="45.54955812611608" lon="10.366658319042848"><ele>399.83333333333337</ele><time>2026-04-04T14:44:58.999Z</time></trkpt><trkpt lat="45.549509550097" lon="10.366722839368208"><ele>397.0</ele><time>2026-04-04T14:45:01.999Z</time></trkpt><trkpt lat="45.54950316601401" lon="10.366834414731057"><ele>397.6</ele><time>2026-04-04T14:45:11.999Z</time></trkpt><trkpt lat="45.54944060719737" lon="10.36687933502345"><ele>398.20000000000005</ele><time>2026-04-04T14:45:13.999Z</time></trkpt><trkpt lat="45.549358595588316" lon="10.366964641707995"><ele>398.8</ele><time>2026-04-04T14:45:15.999Z</time></trkpt><trkpt lat="45.54928581306679" lon="10.367064477542298"><ele>399.4</ele><time>2026-04-04T14:45:17.999Z</time></trkpt><trkpt lat="45.54926597069803" lon="10.367208197457304"><ele>400.0</ele><time>2026-04-04T14:45:19.999Z</time></trkpt><trkpt lat="45.549244178369456" lon="10.36736996496638"><ele>400.0</ele><time>2026-04-04T14:45:21.999Z</time></trkpt><trkpt lat="45.54918862065343" lon="10.367513202361437"><ele>400.0</ele><time>2026-04-04T14:45:23.999Z</time></trkpt><trkpt lat="45.549112287787636" lon="10.367646328754724"><ele>400.0</ele><time>2026-04-04T14:45:25.999Z</time></trkpt><trkpt lat="45.549001274443526" lon="10.367726209962743"><ele>400.0</ele><time>2026-04-04T14:45:27.999Z</time></trkpt><trkpt lat="45.54888863332697" lon="10.367784255393797"><ele>400.0</ele><time>2026-04-04T14:45:29.999Z</time></trkpt><trkpt lat="45.54880067629618" lon="10.367778911851824"><ele>400.0</ele><time>2026-04-04T14:45:31.999Z</time></trkpt><trkpt lat="45.5486923480946" lon="10.367690192155814"><ele>400.0</ele><time>2026-04-04T14:45:33.999Z</time></trkpt><trkpt lat="45.548657142292804" lon="10.367571127769223"><ele>400.0</ele><time>2026-04-04T14:45:35.999Z</time></trkpt><trkpt lat="45.54863932462132" lon="10.367459846195501"><ele>400.0</ele><time>2026-04-04T14:45:37.999Z</time></trkpt><trkpt lat="45.548602641511295" lon="10.367345896421991"><ele>395.50000000000006</ele><time>2026-04-04T14:45:39.999Z</time></trkpt><trkpt lat="45.54860915777876" lon="10.367178779417058"><ele>391.0</ele><time>2026-04-04T14:45:41.999Z</time></trkpt><trkpt lat="45.54860440337015" lon="10.36708510945509"><ele>386.5</ele><time>2026-04-04T14:45:42.999Z</time></trkpt><trkpt lat="45.54859642177067" lon="10.366985479314028"><ele>382.0</ele><time>2026-04-04T14:45:43.999Z</time></trkpt><trkpt lat="45.548599936248344" lon="10.366864663142534"><ele>377.5</ele><time>2026-04-04T14:45:44.999Z</time></trkpt><trkpt lat="45.54860783334447" lon="10.366746919995268"><ele>373.0</ele><time>2026-04-04T14:45:45.999Z</time></trkpt><trkpt lat="45.548635458902965" lon="10.366624139850583"><ele>373.0</ele><time>2026-04-04T14:45:47.999Z</time></trkpt><trkpt lat="45.54863437656185" lon="10.366511613873557"><ele>373.0</ele><time>2026-04-04T14:45:49.999Z</time></trkpt><trkpt lat="45.548612511798375" lon="10.366351592477281"><ele>373.0</ele><time>2026-04-04T14:45:51.999Z</time></trkpt><trkpt lat="45.54866736687436" lon="10.366275732264326"><ele>373.0</ele><time>2026-04-04T14:45:54.999Z</time></trkpt><trkpt lat="45.548808248675" lon="10.366016232571695"><ele>373.2</ele><time>2026-04-04T14:46:01.999Z</time></trkpt><trkpt lat="45.54875401763792" lon="10.365874180111529"><ele>373.4</ele><time>2026-04-04T14:46:03.999Z</time></trkpt><trkpt lat="45.548762313490144" lon="10.365738289991702"><ele>373.59999999999997</ele><time>2026-04-04T14:46:05.999Z</time></trkpt><trkpt lat="45.548785983746576" lon="10.365642909655797"><ele>373.79999999999995</ele><time>2026-04-04T14:46:06.999Z</time></trkpt><trkpt lat="45.54878646468254" lon="10.365481305435376"><ele>374.0</ele><time>2026-04-04T14:46:08.999Z</time></trkpt><trkpt lat="45.548811507539305" lon="10.365358386386193"><ele>374.0</ele><time>2026-04-04T14:46:10.999Z</time></trkpt><trkpt lat="45.54891846664766" lon="10.36534595913366"><ele>374.0</ele><time>2026-04-04T14:46:13.999Z</time></trkpt><trkpt lat="45.54904787098811" lon="10.365274916161514"><ele>374.0</ele><time>2026-04-04T14:46:16.999Z</time></trkpt><trkpt lat="45.54912518473944" lon="10.365240939429857"><ele>374.0</ele><time>2026-04-04T14:46:18.999Z</time></trkpt><trkpt lat="45.549275617985536" lon="10.365218727513751"><ele>374.0</ele><time>2026-04-04T14:46:37Z</time></trkpt><trkpt lat="45.54935694143406" lon="10.365225133373551"><ele>374.0</ele><time>2026-04-04T14:46:38Z</time></trkpt><trkpt lat="45.549443013897395" lon="10.365259634330474"><ele>374.0</ele><time>2026-04-04T14:46:39Z</time></trkpt><trkpt lat="45.54954220862429" lon="10.36529767776499"><ele>374.0</ele><time>2026-04-04T14:46:40Z</time></trkpt><trkpt lat="45.54964556180828" lon="10.365349853446844"><ele>374.0</ele><time>2026-04-04T14:46:41Z</time></trkpt><trkpt lat="45.54974857552471" lon="10.36540822279792"><ele>375.75</ele><time>2026-04-04T14:46:42Z</time></trkpt><trkpt lat="45.54987420756382" lon="10.365467397603217"><ele>377.5</ele><time>2026-04-04T14:46:43Z</time></trkpt><trkpt lat="45.54999253614468" lon="10.365545915238084"><ele>379.25</ele><time>2026-04-04T14:46:44Z</time></trkpt><trkpt lat="45.5500982505681" lon="10.365629478012451"><ele>381.0</ele><time>2026-04-04T14:46:45Z</time></trkpt><trkpt lat="45.550194036015654" lon="10.365722139451286"><ele>381.0</ele><time>2026-04-04T14:46:46Z</time></trkpt><trkpt lat="45.55029662687687" lon="10.36578182782928"><ele>381.0</ele><time>2026-04-04T14:46:47Z</time></trkpt><trkpt lat="45.550385534835286" lon="10.365814119403403"><ele>381.0</ele><time>2026-04-04T14:46:48Z</time></trkpt><trkpt lat="45.550466694555475" lon="10.365821693518969"><ele>381.0</ele><time>2026-04-04T14:46:49Z</time></trkpt><trkpt lat="45.55055869031584" lon="10.365786656831217"><ele>381.0</ele><time>2026-04-04T14:46:51Z</time></trkpt><trkpt lat="45.5505609301709" lon="10.365682662676402"><ele>383.0</ele><time>2026-04-04T14:46:53Z</time></trkpt><trkpt lat="45.5505770427741" lon="10.365540162876012"><ele>385.0</ele><time>2026-04-04T14:46:55Z</time></trkpt><trkpt lat="45.550579950063245" lon="10.365380123124964"><ele>387.0</ele><time>2026-04-04T14:46:56.999Z</time></trkpt><trkpt lat="45.550573911905126" lon="10.365255843552747"><ele>389.0</ele><time>2026-04-04T14:46:58.999Z</time></trkpt><trkpt lat="45.55055556258785" lon="10.365084761395561"><ele>391.0</ele><time>2026-04-04T14:47:00.999Z</time></trkpt><trkpt lat="45.55053589390081" lon="10.364981508228102"><ele>387.50000000000006</ele><time>2026-04-04T14:47:01.999Z</time></trkpt><trkpt lat="45.5505114490482" lon="10.364869762142312"><ele>384.0</ele><time>2026-04-04T14:47:02.999Z</time></trkpt><trkpt lat="45.55047825777615" lon="10.364750468291046"><ele>380.5</ele><time>2026-04-04T14:47:03.999Z</time></trkpt><trkpt lat="45.55044991456419" lon="10.364644931865882"><ele>377.0</ele><time>2026-04-04T14:47:04.999Z</time></trkpt><trkpt lat="45.55042296410133" lon="10.364513376671768"><ele>373.5</ele><time>2026-04-04T14:47:05.999Z</time></trkpt><trkpt lat="45.55039877007838" lon="10.36439139776415"><ele>370.0</ele><time>2026-04-04T14:47:06.999Z</time></trkpt><trkpt lat="45.550374997473504" lon="10.364243383314445"><ele>367.2</ele><time>2026-04-04T14:47:07.999Z</time></trkpt><trkpt lat="45.550360449727066" lon="10.364114245958842"><ele>364.4</ele><time>2026-04-04T14:47:08.999Z</time></trkpt><trkpt lat="45.55035415468351" lon="10.363982382253687"><ele>361.6</ele><time>2026-04-04T14:47:09.999Z</time></trkpt><trkpt lat="45.55036614833075" lon="10.363853541558916"><ele>358.8</ele><time>2026-04-04T14:47:10.999Z</time></trkpt><trkpt lat="45.55038687639278" lon="10.363725059376836"><ele>356.0</ele><time>2026-04-04T14:47:11.999Z</time></trkpt><trkpt lat="45.550417033169" lon="10.363603757414369"><ele>356.0</ele><time>2026-04-04T14:47:12.999Z</time></trkpt><trkpt lat="45.55045254918219" lon="10.363473780437682"><ele>356.0</ele><time>2026-04-04T14:47:13.999Z</time></trkpt><trkpt lat="45.55049003971415" lon="10.363339569382726"><ele>356.0</ele><time>2026-04-04T14:47:14.999Z</time></trkpt><trkpt lat="45.550512719260894" lon="10.363221429298333"><ele>356.0</ele><time>2026-04-04T14:47:15.999Z</time></trkpt><trkpt lat="45.550506096345956" lon="10.363102606413914"><ele>356.0</ele><time>2026-04-04T14:47:16.999Z</time></trkpt><trkpt lat="45.55049185967937" lon="10.36297485365233"><ele>353.4</ele><time>2026-04-04T14:47:17.999Z</time></trkpt><trkpt lat="45.55048229588101" lon="10.36283422602415"><ele>350.8</ele><time>2026-04-04T14:47:18.999Z</time></trkpt><trkpt lat="45.550481185387135" lon="10.362694123188119"><ele>348.2</ele><time>2026-04-04T14:47:19.999Z</time></trkpt><trkpt lat="45.55047451269867" lon="10.362551129871873"><ele>345.59999999999997</ele><time>2026-04-04T14:47:20.999Z</time></trkpt><trkpt lat="45.55046390910563" lon="10.362411099233972"><ele>343.0</ele><time>2026-04-04T14:47:21.999Z</time></trkpt><trkpt lat="45.55046322036479" lon="10.362271725718985"><ele>340.0</ele><time>2026-04-04T14:47:22.999Z</time></trkpt><trkpt lat="45.550464980914406" lon="10.36212810179419"><ele>337.0</ele><time>2026-04-04T14:47:23.999Z</time></trkpt><trkpt lat="45.55047119144844" lon="10.36198101015127"><ele>334.0</ele><time>2026-04-04T14:47:24.999Z</time></trkpt><trkpt lat="45.55048956522654" lon="10.361833467596638"><ele>331.0</ele><time>2026-04-04T14:47:25.999Z</time></trkpt><trkpt lat="45.55051063688341" lon="10.361692883313706"><ele>328.0</ele><time>2026-04-04T14:47:26.999Z</time></trkpt><trkpt lat="45.55054160439043" lon="10.361567887001097"><ele>327.99999999999994</ele><time>2026-04-04T14:47:27.999Z</time></trkpt><trkpt lat="45.550592569642255" lon="10.361461680154534"><ele>328.0</ele><time>2026-04-04T14:47:28.999Z</time></trkpt><trkpt lat="45.55064955818907" lon="10.361384911959647"><ele>328.0</ele><time>2026-04-04T14:47:29.999Z</time></trkpt><trkpt lat="45.55071024245117" lon="10.361351018132327"><ele>328.0</ele><time>2026-04-04T14:47:30.999Z</time></trkpt><trkpt lat="45.55077598560717" lon="10.36133061612776"><ele>328.0</ele><time>2026-04-04T14:47:31.999Z</time></trkpt><trkpt lat="45.55084180198915" lon="10.36132389836966"><ele>327.99999999999994</ele><time>2026-04-04T14:47:32.999Z</time></trkpt><trkpt lat="45.55091060148608" lon="10.361330559824417"><ele>328.0</ele><time>2026-04-04T14:47:33.999Z</time></trkpt><trkpt lat="45.55097669151676" lon="10.36134596310298"><ele>327.8333333333333</ele><time>2026-04-04T14:47:34.999Z</time></trkpt><trkpt lat="45.551084445588145" lon="10.361349581062827"><ele>327.66666666666663</ele><time>2026-04-04T14:47:36.999Z</time></trkpt><trkpt lat="45.55117469765825" lon="10.361325158187425"><ele>327.5</ele><time>2026-04-04T14:47:38.999Z</time></trkpt><trkpt lat="45.551266538002814" lon="10.361253731433857"><ele>327.3333333333333</ele><time>2026-04-04T14:47:40.999Z</time></trkpt><trkpt lat="45.55130886854917" lon="10.361178527234882"><ele>327.1666666666667</ele><time>2026-04-04T14:47:41.999Z</time></trkpt><trkpt lat="45.55134866912725" lon="10.361086702603219"><ele>327.0</ele><time>2026-04-04T14:47:42.999Z</time></trkpt><trkpt lat="45.55137874017872" lon="10.360978949256033"><ele>327.0</ele><time>2026-04-04T14:47:43.999Z</time></trkpt><trkpt lat="45.551400324983106" lon="10.360867278637686"><ele>327.0</ele><time>2026-04-04T14:47:44.999Z</time></trkpt><trkpt lat="45.55141990278738" lon="10.360751989806467"><ele>327.0</ele><time>2026-04-04T14:47:45.999Z</time></trkpt><trkpt lat="45.55144288678757" lon="10.360635804508147"><ele>327.0</ele><time>2026-04-04T14:47:46.999Z</time></trkpt><trkpt lat="45.55147366866383" lon="10.360523825123671"><ele>327.0</ele><time>2026-04-04T14:47:47.999Z</time></trkpt><trkpt lat="45.551512438472415" lon="10.360422616137598"><ele>327.0</ele><time>2026-04-04T14:47:48.999Z</time></trkpt><trkpt lat="45.55156443701662" lon="10.36032355691232"><ele>324.1666666666667</ele><time>2026-04-04T14:47:49.999Z</time></trkpt><trkpt lat="45.55162406826448" lon="10.36024045886779"><ele>321.3333333333333</ele><time>2026-04-04T14:47:50.999Z</time></trkpt><trkpt lat="45.551693784940504" lon="10.36018170230524"><ele>318.5</ele><time>2026-04-04T14:47:51.999Z</time></trkpt><trkpt lat="45.55176971735816" lon="10.360146639038415"><ele>315.66666666666663</ele><time>2026-04-04T14:47:52.999Z</time></trkpt><trkpt lat="45.55184913131595" lon="10.36012515160582"><ele>312.8333333333333</ele><time>2026-04-04T14:47:53.999Z</time></trkpt><trkpt lat="45.55193088198107" lon="10.360113955205406"><ele>310.0</ele><time>2026-04-04T14:47:54.999Z</time></trkpt><trkpt lat="45.55202211063392" lon="10.360193154978658"><ele>310.8333333333333</ele><time>2026-04-04T14:47:55.999Z</time></trkpt><trkpt lat="45.552109160371856" lon="10.360162645748275"><ele>311.66666666666663</ele><time>2026-04-04T14:47:56.999Z</time></trkpt><trkpt lat="45.55218735917935" lon="10.360101995671359"><ele>312.5</ele><time>2026-04-04T14:47:57.999Z</time></trkpt><trkpt lat="45.55225996459006" lon="10.360053507775008"><ele>313.3333333333333</ele><time>2026-04-04T14:47:58.999Z</time></trkpt><trkpt lat="45.552334325339885" lon="10.360006329040111"><ele>314.1666666666667</ele><time>2026-04-04T14:47:59.999Z</time></trkpt><trkpt lat="45.5524295986209" lon="10.359965757943833"><ele>315.0</ele><time>2026-04-04T14:48:00.999Z</time></trkpt><trkpt lat="45.55253126999608" lon="10.359933972055035"><ele>315.0</ele><time>2026-04-04T14:48:01.999Z</time></trkpt><trkpt lat="45.55264185072113" lon="10.359903258542326"><ele>315.0</ele><time>2026-04-04T14:48:02.999Z</time></trkpt><trkpt lat="45.55275649817287" lon="10.359876057046584"><ele>315.0</ele><time>2026-04-04T14:48:03.999Z</time></trkpt><trkpt lat="45.55287208910828" lon="10.359857126449748"><ele>315.0</ele><time>2026-04-04T14:48:04.999Z</time></trkpt><trkpt lat="45.55297897656181" lon="10.359840028244571"><ele>316.0</ele><time>2026-04-04T14:48:05.999Z</time></trkpt><trkpt lat="45.553073200200714" lon="10.3598269964198"><ele>317.0</ele><time>2026-04-04T14:48:07Z</time></trkpt><trkpt lat="45.553165261070625" lon="10.35981394910359"><ele>318.0</ele><time>2026-04-04T14:48:08Z</time></trkpt><trkpt lat="45.55325955124776" lon="10.359756972519264"><ele>319.0</ele><time>2026-04-04T14:48:09Z</time></trkpt><trkpt lat="45.553351323016514" lon="10.3597428613808"><ele>320.0</ele><time>2026-04-04T14:48:10Z</time></trkpt><trkpt lat="45.553444508416575" lon="10.359720335936087"><ele>316.2</ele><time>2026-04-04T14:48:11Z</time></trkpt><trkpt lat="45.5535308239536" lon="10.359682114138971"><ele>312.4</ele><time>2026-04-04T14:48:12Z</time></trkpt><trkpt lat="45.55361504529345" lon="10.359627250427229"><ele>308.6</ele><time>2026-04-04T14:48:13Z</time></trkpt><trkpt lat="45.553705212113634" lon="10.359585767346772"><ele>304.8</ele><time>2026-04-04T14:48:14Z</time></trkpt><trkpt lat="45.55379787994504" lon="10.359565686441222"><ele>301.0</ele><time>2026-04-04T14:48:15Z</time></trkpt><trkpt lat="45.55389391997815" lon="10.359559486160006"><ele>301.0</ele><time>2026-04-04T14:48:16Z</time></trkpt><trkpt lat="45.55399240828188" lon="10.35955504168418"><ele>301.0</ele><time>2026-04-04T14:48:17Z</time></trkpt><trkpt lat="45.55409354926959" lon="10.359554456956111"><ele>301.0</ele><time>2026-04-04T14:48:18Z</time></trkpt><trkpt lat="45.55419821647761" lon="10.359563523010593"><ele>301.0</ele><time>2026-04-04T14:48:19Z</time></trkpt><trkpt lat="45.5543010050066" lon="10.359577910303786"><ele>301.0</ele><time>2026-04-04T14:48:20Z</time></trkpt><trkpt lat="45.55441073758832" lon="10.359615825859757"><ele>301.0</ele><time>2026-04-04T14:48:21Z</time></trkpt><trkpt lat="45.554518461992345" lon="10.359676358110546"><ele>301.0</ele><time>2026-04-04T14:48:22Z</time></trkpt><trkpt lat="45.55462263897923" lon="10.359769434064031"><ele>301.0</ele><time>2026-04-04T14:48:23Z</time></trkpt><trkpt lat="45.554711232072314" lon="10.359865174235543"><ele>301.0</ele><time>2026-04-04T14:48:24Z</time></trkpt><trkpt lat="45.5547751015715" lon="10.359993118649202"><ele>303.2</ele><time>2026-04-04T14:48:25Z</time></trkpt><trkpt lat="45.55485033542353" lon="10.360087146018147"><ele>305.40000000000003</ele><time>2026-04-04T14:48:26Z</time></trkpt><trkpt lat="45.554904163204114" lon="10.360197019357866"><ele>307.6</ele><time>2026-04-04T14:48:27Z</time></trkpt><trkpt lat="45.55495646877766" lon="10.360306794667885"><ele>309.8</ele><time>2026-04-04T14:48:28Z</time></trkpt><trkpt lat="45.555039486697844" lon="10.36039503526002"><ele>312.0</ele><time>2026-04-04T14:48:29Z</time></trkpt><trkpt lat="45.555136699631085" lon="10.360456557956677"><ele>312.0</ele><time>2026-04-04T14:48:30Z</time></trkpt><trkpt lat="45.5552411754007" lon="10.36048326351401"><ele>312.0</ele><time>2026-04-04T14:48:31Z</time></trkpt><trkpt lat="45.555346535928365" lon="10.360483382189289"><ele>312.0</ele><time>2026-04-04T14:48:32.001Z</time></trkpt><trkpt lat="45.55544816670234" lon="10.360461213768298"><ele>312.0</ele><time>2026-04-04T14:48:33.001Z</time></trkpt><trkpt lat="45.555535270034646" lon="10.360445598858865"><ele>312.0</ele><time>2026-04-04T14:48:34.001Z</time></trkpt><trkpt lat="45.55561252393098" lon="10.360433499265842"><ele>309.8</ele><time>2026-04-04T14:48:35.001Z</time></trkpt><trkpt lat="45.555682524164254" lon="10.36042872984376"><ele>307.6</ele><time>2026-04-04T14:48:36.001Z</time></trkpt><trkpt lat="45.55578016922279" lon="10.360446645799144"><ele>305.40000000000003</ele><time>2026-04-04T14:48:38.001Z</time></trkpt><trkpt lat="45.55585671904031" lon="10.360463508196862"><ele>303.2</ele><time>2026-04-04T14:48:41.001Z</time></trkpt><trkpt lat="45.55593031946254" lon="10.36047232705319"><ele>301.0</ele><time>2026-04-04T14:48:51.001Z</time></trkpt><trkpt lat="45.55597857248001" lon="10.360291608886383"><ele>301.0</ele><time>2026-04-04T14:49:20Z</time></trkpt><trkpt lat="45.55602641059366" lon="10.360350338674005"><ele>301.0</ele><time>2026-04-04T14:49:25Z</time></trkpt><trkpt lat="45.556087362431036" lon="10.360399776856957"><ele>301.0</ele><time>2026-04-04T14:51:30Z</time></trkpt><trkpt lat="45.55612656882814" lon="10.360290585831724"><ele>301.0</ele><time>2026-04-04T14:51:33Z</time></trkpt><trkpt lat="45.556145684731845" lon="10.360176220861808"><ele>301.0</ele><time>2026-04-04T14:51:37Z</time></trkpt><trkpt lat="45.55613272840577" lon="10.36003757422776"><ele>301.0</ele><time>2026-04-04T14:51:40Z</time></trkpt><trkpt lat="45.55610010734905" lon="10.359924226719418"><ele>301.0</ele><time>2026-04-04T14:51:42Z</time></trkpt><trkpt lat="45.556039004864694" lon="10.359808975498822"><ele>301.0</ele><time>2026-04-04T14:51:44Z</time></trkpt><trkpt lat="45.5559634005918" lon="10.359707992480685"><ele>301.0</ele><time>2026-04-04T14:51:46Z</time></trkpt><trkpt lat="45.555863331243735" lon="10.359590755951713"><ele>301.0</ele><time>2026-04-04T14:51:48Z</time></trkpt><trkpt lat="45.55581875582566" lon="10.359497354102293"><ele>301.0</ele><time>2026-04-04T14:51:49Z</time></trkpt><trkpt lat="45.55575778730956" lon="10.359454687056205"><ele>300.0</ele><time>2026-04-04T14:51:50Z</time></trkpt><trkpt lat="45.55564548573136" lon="10.359384065390596"><ele>299.0</ele><time>2026-04-04T14:51:52Z</time></trkpt><trkpt lat="45.55558937921333" lon="10.359334494129582"><ele>298.0</ele><time>2026-04-04T14:51:53Z</time></trkpt><trkpt lat="45.55553494467181" lon="10.359273209352448"><ele>297.0</ele><time>2026-04-04T14:51:54Z</time></trkpt><trkpt lat="45.55549588890224" lon="10.359190210878182"><ele>296.0</ele><time>2026-04-04T14:51:55Z</time></trkpt><trkpt lat="45.55545505488684" lon="10.35909588169859"><ele>295.0</ele><time>2026-04-04T14:51:56Z</time></trkpt><trkpt lat="45.55541682466909" lon="10.35899095558108"><ele>295.0</ele><time>2026-04-04T14:51:57Z</time></trkpt><trkpt lat="45.55537386069401" lon="10.35887368715538"><ele>295.0</ele><time>2026-04-04T14:51:58Z</time></trkpt><trkpt lat="45.55533758325342" lon="10.358751914033467"><ele>295.0</ele><time>2026-04-04T14:51:59Z</time></trkpt><trkpt lat="45.55530774649989" lon="10.3586324365336"><ele>295.0</ele><time>2026-04-04T14:52:00Z</time></trkpt><trkpt lat="45.55528176417471" lon="10.358516715253913"><ele>295.0</ele><time>2026-04-04T14:52:01Z</time></trkpt><trkpt lat="45.55525914808282" lon="10.35840327787084"><ele>295.0</ele><time>2026-04-04T14:52:02Z</time></trkpt><trkpt lat="45.555241080037504" lon="10.358287373772384"><ele>292.16666666666663</ele><time>2026-04-04T14:52:03Z</time></trkpt><trkpt lat="45.555229590670265" lon="10.358174082463826"><ele>289.3333333333333</ele><time>2026-04-04T14:52:04Z</time></trkpt><trkpt lat="45.55521926663166" lon="10.35805255523613"><ele>286.5</ele><time>2026-04-04T14:52:05Z</time></trkpt><trkpt lat="45.55520707907306" lon="10.357935991594662"><ele>283.6666666666667</ele><time>2026-04-04T14:52:06Z</time></trkpt><trkpt lat="45.55518909697725" lon="10.35782536378789"><ele>280.83333333333337</ele><time>2026-04-04T14:52:07Z</time></trkpt><trkpt lat="45.555166899721456" lon="10.35772078402648"><ele>278.0</ele><time>2026-04-04T14:52:08Z</time></trkpt><trkpt lat="45.555140467995315" lon="10.357612756548711"><ele>276.6666666666667</ele><time>2026-04-04T14:52:09Z</time></trkpt><trkpt lat="45.555109473719625" lon="10.357506969710787"><ele>275.33333333333337</ele><time>2026-04-04T14:52:10Z</time></trkpt><trkpt lat="45.55507466290049" lon="10.357402366944886"><ele>274.0</ele><time>2026-04-04T14:52:11Z</time></trkpt><trkpt lat="45.55503080189204" lon="10.357296821174414"><ele>272.6666666666667</ele><time>2026-04-04T14:52:12Z</time></trkpt><trkpt lat="45.55496448569179" lon="10.357217724370864"><ele>271.3333333333333</ele><time>2026-04-04T14:52:13Z</time></trkpt><trkpt lat="45.554903348206466" lon="10.35713332724052"><ele>270.0</ele><time>2026-04-04T14:52:14Z</time></trkpt><trkpt lat="45.55483215625929" lon="10.357067983980983"><ele>267.8333333333333</ele><time>2026-04-04T14:52:15Z</time></trkpt><trkpt lat="45.554752748983624" lon="10.357028264602162"><ele>265.6666666666667</ele><time>2026-04-04T14:52:16Z</time></trkpt><trkpt lat="45.5546662779266" lon="10.35702198590325"><ele>263.5</ele><time>2026-04-04T14:52:17Z</time></trkpt><trkpt lat="45.55458138533641" lon="10.357050776321085"><ele>261.33333333333337</ele><time>2026-04-04T14:52:18Z</time></trkpt><trkpt lat="45.55449432487132" lon="10.357100112135692"><ele>259.1666666666667</ele><time>2026-04-04T14:52:19Z</time></trkpt><trkpt lat="45.55440849641479" lon="10.357149502729031"><ele>257.0</ele><time>2026-04-04T14:52:20Z</time></trkpt><trkpt lat="45.55431837420375" lon="10.357177714815116"><ele>256.0</ele><time>2026-04-04T14:52:21Z</time></trkpt><trkpt lat="45.554228594124865" lon="10.357182597320966"><ele>255.0</ele><time>2026-04-04T14:52:22Z</time></trkpt><trkpt lat="45.554135741867356" lon="10.35716290724591"><ele>254.0</ele><time>2026-04-04T14:52:23Z</time></trkpt><trkpt lat="45.55404806773756" lon="10.357131333404903"><ele>253.0</ele><time>2026-04-04T14:52:24Z</time></trkpt><trkpt lat="45.553967519387975" lon="10.35707320892714"><ele>252.00000000000003</ele><time>2026-04-04T14:52:25Z</time></trkpt><trkpt lat="45.553905004758164" lon="10.35699872195193"><ele>251.0</ele><time>2026-04-04T14:52:26Z</time></trkpt><trkpt lat="45.55389202468733" lon="10.356889370557306"><ele>251.0</ele><time>2026-04-04T14:52:27Z</time></trkpt><trkpt lat="45.5539075589024" lon="10.356723091424957"><ele>251.00000000000003</ele><time>2026-04-04T14:52:29Z</time></trkpt><trkpt lat="45.55394900211749" lon="10.356585359818531"><ele>251.00000000000003</ele><time>2026-04-04T14:52:31Z</time></trkpt><trkpt lat="45.55401428178864" lon="10.356481389768005"><ele>251.0</ele><time>2026-04-04T14:52:33Z</time></trkpt><trkpt lat="45.55411702850296" lon="10.356423386529833"><ele>251.0</ele><time>2026-04-04T14:52:35Z</time></trkpt><trkpt lat="45.55418709370614" lon="10.356383914630584"><ele>250.50000000000003</ele><time>2026-04-04T14:52:36Z</time></trkpt><trkpt lat="45.5542608644611" lon="10.356333046107684"><ele>250.0</ele><time>2026-04-04T14:52:36.999Z</time></trkpt><trkpt lat="45.55433444433528" lon="10.356280928047108"><ele>249.5</ele><time>2026-04-04T14:52:37.999Z</time></trkpt><trkpt lat="45.55440636383256" lon="10.356229551191147"><ele>249.0</ele><time>2026-04-04T14:52:38.999Z</time></trkpt><trkpt lat="45.55447460401948" lon="10.35618456258647"><ele>248.50000000000003</ele><time>2026-04-04T14:52:39.999Z</time></trkpt><trkpt lat="45.554542612255844" lon="10.35613816032416"><ele>248.0</ele><time>2026-04-04T14:52:40.999Z</time></trkpt><trkpt lat="45.554606141855864" lon="10.35609217945154"><ele>248.00000000000003</ele><time>2026-04-04T14:52:41.999Z</time></trkpt><trkpt lat="45.554665703492255" lon="10.356030203191011"><ele>248.0</ele><time>2026-04-04T14:52:43Z</time></trkpt><trkpt lat="45.554719076989294" lon="10.355966024698068"><ele>248.0</ele><time>2026-04-04T14:52:44Z</time></trkpt><trkpt lat="45.55475385686924" lon="10.355867315028108"><ele>248.0</ele><time>2026-04-04T14:52:45Z</time></trkpt><trkpt lat="45.55476472695203" lon="10.355760742943097"><ele>248.00000000000003</ele><time>2026-04-04T14:52:46Z</time></trkpt><trkpt lat="45.554718556583644" lon="10.355652907726297"><ele>248.0</ele><time>2026-04-04T14:52:47Z</time></trkpt><trkpt lat="45.55465453865154" lon="10.355571798364428"><ele>246.66666666666669</ele><time>2026-04-04T14:52:48Z</time></trkpt><trkpt lat="45.554583261177896" lon="10.355513298659957"><ele>245.33333333333334</ele><time>2026-04-04T14:52:49Z</time></trkpt><trkpt lat="45.55451354328312" lon="10.355450166138963"><ele>244.0</ele><time>2026-04-04T14:52:50Z</time></trkpt><trkpt lat="45.554445297480804" lon="10.355379896947676"><ele>242.66666666666669</ele><time>2026-04-04T14:52:51Z</time></trkpt><trkpt lat="45.554374224130505" lon="10.355298795596998"><ele>241.33333333333334</ele><time>2026-04-04T14:52:52Z</time></trkpt><trkpt lat="45.554299383824194" lon="10.355220069986038"><ele>240.0</ele><time>2026-04-04T14:52:53Z</time></trkpt><trkpt lat="45.55422162431783" lon="10.35513870198843"><ele>237.8</ele><time>2026-04-04T14:52:54Z</time></trkpt><trkpt lat="45.55414088955688" lon="10.355061744167172"><ele>235.6</ele><time>2026-04-04T14:52:55Z</time></trkpt><trkpt lat="45.5540580329715" lon="10.354990105770591"><ele>233.39999999999998</ele><time>2026-04-04T14:52:56Z</time></trkpt><trkpt lat="45.55398012888258" lon="10.354924934615687"><ele>231.2</ele><time>2026-04-04T14:52:57Z</time></trkpt><trkpt lat="45.553901852972004" lon="10.354881065242626"><ele>229.0</ele><time>2026-04-04T14:52:58Z</time></trkpt><trkpt lat="45.55381878390904" lon="10.354855280002313"><ele>228.99999999999997</ele><time>2026-04-04T14:52:59Z</time></trkpt><trkpt lat="45.55373333932394" lon="10.354835632694954"><ele>229.0</ele><time>2026-04-04T14:53:00Z</time></trkpt><trkpt lat="45.55364572694473" lon="10.354821757980604"><ele>229.0</ele><time>2026-04-04T14:53:01Z</time></trkpt><trkpt lat="45.553557291711535" lon="10.354809770855162"><ele>229.0</ele><time>2026-04-04T14:53:02Z</time></trkpt><trkpt lat="45.553466218558874" lon="10.354796997353848"><ele>228.99999999999997</ele><time>2026-04-04T14:53:03Z</time></trkpt><trkpt lat="45.5533796285692" lon="10.354778250576672"><ele>229.0</ele><time>2026-04-04T14:53:04Z</time></trkpt><trkpt lat="45.553289939920134" lon="10.354759637590362"><ele>228.33333333333331</ele><time>2026-04-04T14:53:05Z</time></trkpt><trkpt lat="45.55320347152625" lon="10.354745840221529"><ele>227.66666666666666</ele><time>2026-04-04T14:53:06Z</time></trkpt><trkpt lat="45.55311579318434" lon="10.354737794311587"><ele>227.0</ele><time>2026-04-04T14:53:07Z</time></trkpt><trkpt lat="45.55303070861805" lon="10.354744342478744"><ele>226.33333333333331</ele><time>2026-04-04T14:53:08Z</time></trkpt><trkpt lat="45.55295643576251" lon="10.354757835943847"><ele>225.66666666666666</ele><time>2026-04-04T14:53:09Z</time></trkpt><trkpt lat="45.55285049839208" lon="10.354789235362768"><ele>225.0</ele><time>2026-04-04T14:53:11Z</time></trkpt><trkpt lat="45.55278135543276" lon="10.354801224991741"><ele>223.25</ele><time>2026-04-04T14:53:14Z</time></trkpt><trkpt lat="45.55276646277884" lon="10.354546186940748"><ele>221.5</ele><time>2026-04-04T14:53:29Z</time></trkpt><trkpt lat="45.55276444473348" lon="10.354454692093515"><ele>219.75</ele><time>2026-04-04T14:53:30Z</time></trkpt><trkpt lat="45.55275820398371" lon="10.354291092568637"><ele>218.0</ele><time>2026-04-04T14:53:32Z</time></trkpt><trkpt lat="45.5527493275476" lon="10.354129852235817"><ele>218.00000000000003</ele><time>2026-04-04T14:53:34Z</time></trkpt><trkpt lat="45.55273961163524" lon="10.353960324994864"><ele>218.0</ele><time>2026-04-04T14:53:36Z</time></trkpt><trkpt lat="45.55273622208126" lon="10.353856250465896"><ele>218.0</ele><time>2026-04-04T14:53:37Z</time></trkpt><trkpt lat="45.552737868166936" lon="10.35376433598382"><ele>218.0</ele><time>2026-04-04T14:53:38Z</time></trkpt><trkpt lat="45.552739527388006" lon="10.35358681540177"><ele>218.00000000000003</ele><time>2026-04-04T14:53:40Z</time></trkpt><trkpt lat="45.55273601387098" lon="10.353495411115473"><ele>218.0</ele><time>2026-04-04T14:53:41Z</time></trkpt><trkpt lat="45.55272615995686" lon="10.35340500217096"><ele>218.83333333333334</ele><time>2026-04-04T14:53:42Z</time></trkpt><trkpt lat="45.55270655408358" lon="10.353309945517147"><ele>219.66666666666669</ele><time>2026-04-04T14:53:43Z</time></trkpt><trkpt lat="45.55267628386752" lon="10.353213352730455"><ele>220.5</ele><time>2026-04-04T14:53:44Z</time></trkpt><trkpt lat="45.55262609200785" lon="10.353137952495235"><ele>221.33333333333331</ele><time>2026-04-04T14:53:45Z</time></trkpt><trkpt lat="45.55254505938276" lon="10.352990700174866"><ele>222.16666666666666</ele><time>2026-04-04T14:53:47Z</time></trkpt><trkpt lat="45.55250751065314" lon="10.352909006445275"><ele>223.0</ele><time>2026-04-04T14:53:48Z</time></trkpt><trkpt lat="45.55245538903392" lon="10.352838727239547"><ele>223.66666666666666</ele><time>2026-04-04T14:53:49Z</time></trkpt><trkpt lat="45.55240459955874" lon="10.352774329102294"><ele>224.33333333333331</ele><time>2026-04-04T14:53:50Z</time></trkpt><trkpt lat="45.552346660869674" lon="10.352720671046153"><ele>225.0</ele><time>2026-04-04T14:53:51Z</time></trkpt><trkpt lat="45.552307598450746" lon="10.352638749604566"><ele>225.66666666666669</ele><time>2026-04-04T14:53:52Z</time></trkpt><trkpt lat="45.55225071275734" lon="10.352501474716375"><ele>226.33333333333334</ele><time>2026-04-04T14:53:54Z</time></trkpt><trkpt lat="45.552223893371924" lon="10.352339116326114"><ele>227.0</ele><time>2026-04-04T14:53:56Z</time></trkpt><trkpt lat="45.55216599541423" lon="10.35220062131036"><ele>227.6</ele><time>2026-04-04T14:53:58Z</time></trkpt><trkpt lat="45.55207119976896" lon="10.352090903754055"><ele>228.2</ele><time>2026-04-04T14:54:00Z</time></trkpt><trkpt lat="45.55200953273131" lon="10.352063102846236"><ele>228.8</ele><time>2026-04-04T14:54:01Z</time></trkpt><trkpt lat="45.55190190980437" lon="10.35206093118591"><ele>229.4</ele><time>2026-04-04T14:54:03Z</time></trkpt><trkpt lat="45.55180399734797" lon="10.352051513468622"><ele>230.0</ele><time>2026-04-04T14:54:05Z</time></trkpt><trkpt lat="45.55170869143689" lon="10.352026970221226"><ele>230.0</ele><time>2026-04-04T14:54:07Z</time></trkpt><trkpt lat="45.55158469982176" lon="10.352025618151323"><ele>230.0</ele><time>2026-04-04T14:54:09Z</time></trkpt><trkpt lat="45.55146694499234" lon="10.35204265607444"><ele>230.0</ele><time>2026-04-04T14:54:11Z</time></trkpt><trkpt lat="45.55135463769063" lon="10.35198986009855"><ele>230.0</ele><time>2026-04-04T14:54:13Z</time></trkpt><trkpt lat="45.5512548181763" lon="10.351915310461283"><ele>232.16666666666669</ele><time>2026-04-04T14:54:15Z</time></trkpt><trkpt lat="45.5511672208829" lon="10.3518625524418"><ele>234.33333333333334</ele><time>2026-04-04T14:54:17Z</time></trkpt><trkpt lat="45.55110166719923" lon="10.351826071535418"><ele>236.5</ele><time>2026-04-04T14:54:19Z</time></trkpt><trkpt lat="45.55103665521222" lon="10.35178687326597"><ele>238.66666666666669</ele><time>2026-04-04T14:54:23Z</time></trkpt><trkpt lat="45.55094240857978" lon="10.351742427661144"><ele>240.83333333333334</ele><time>2026-04-04T14:54:26Z</time></trkpt><trkpt lat="45.55086976854171" lon="10.351692419889828"><ele>243.0</ele><time>2026-04-04T14:54:28Z</time></trkpt><trkpt lat="45.55081737331281" lon="10.351629146556313"><ele>243.0</ele><time>2026-04-04T14:54:30Z</time></trkpt><trkpt lat="45.55077625033387" lon="10.351529617066948"><ele>243.0</ele><time>2026-04-04T14:54:33Z</time></trkpt><trkpt lat="45.55072913689988" lon="10.351402531842792"><ele>243.0</ele><time>2026-04-04T14:54:36Z</time></trkpt><trkpt lat="45.55071445818822" lon="10.351304773776802"><ele>243.0</ele><time>2026-04-04T14:54:38Z</time></trkpt><trkpt lat="45.55067739837382" lon="10.351201394510428"><ele>243.0</ele><time>2026-04-04T14:54:39.999Z</time></trkpt><trkpt lat="45.550659037774786" lon="10.351075643904785"><ele>243.0</ele><time>2026-04-04T14:54:42.999Z</time></trkpt><trkpt lat="45.55065181558428" lon="10.350935953861114"><ele>243.5</ele><time>2026-04-04T14:54:45.999Z</time></trkpt><trkpt lat="45.550655321996786" lon="10.350845982221914"><ele>244.0</ele><time>2026-04-04T14:54:47.999Z</time></trkpt><trkpt lat="45.55066131024813" lon="10.350754784940486"><ele>244.5</ele><time>2026-04-04T14:54:51Z</time></trkpt><trkpt lat="45.550709934936954" lon="10.350693539533419"><ele>245.0</ele><time>2026-04-04T14:55:45Z</time></trkpt><trkpt lat="45.550735348386965" lon="10.350595872995338"><ele>245.5</ele><time>2026-04-04T14:55:59Z</time></trkpt><trkpt lat="45.550744999075285" lon="10.350477791691313"><ele>246.0</ele><time>2026-04-04T14:56:01Z</time></trkpt><trkpt lat="45.55073611191122" lon="10.350330508262306"><ele>246.8</ele><time>2026-04-04T14:56:03Z</time></trkpt><trkpt lat="45.550682619014246" lon="10.350182472980062"><ele>247.60000000000002</ele><time>2026-04-04T14:56:05Z</time></trkpt><trkpt lat="45.5506249074441" lon="10.350020152020875"><ele>248.4</ele><time>2026-04-04T14:56:07Z</time></trkpt><trkpt lat="45.55060610416514" lon="10.349933319534214"><ele>249.2</ele><time>2026-04-04T14:56:08Z</time></trkpt><trkpt lat="45.550580174415984" lon="10.349769069307829"><ele>250.0</ele><time>2026-04-04T14:56:10Z</time></trkpt><trkpt lat="45.55056012492331" lon="10.349649284842783"><ele>251.14285714285714</ele><time>2026-04-04T14:56:12Z</time></trkpt><trkpt lat="45.55052247494768" lon="10.34953349023153"><ele>252.28571428571428</ele><time>2026-04-04T14:56:15Z</time></trkpt><trkpt lat="45.550488303877515" lon="10.349434195798004"><ele>253.42857142857142</ele><time>2026-04-04T14:56:17Z</time></trkpt><trkpt lat="45.550447973514125" lon="10.34935551505595"><ele>254.57142857142856</ele><time>2026-04-04T14:56:29.999Z</time></trkpt><trkpt lat="45.55042236066588" lon="10.349263803884005"><ele>255.71428571428572</ele><time>2026-04-04T14:56:38.999Z</time></trkpt><trkpt lat="45.550414750661815" lon="10.349170478927034"><ele>256.85714285714283</ele><time>2026-04-04T14:56:41.999Z</time></trkpt><trkpt lat="45.55040771032127" lon="10.349077551385044"><ele>258.0</ele><time>2026-04-04T14:56:43.999Z</time></trkpt><trkpt lat="45.55038473135097" lon="10.348968338719107"><ele>258.0</ele><time>2026-04-04T14:56:44.999Z</time></trkpt><trkpt lat="45.550390275285025" lon="10.34887878267347"><ele>258.0</ele><time>2026-04-04T14:56:46.999Z</time></trkpt><trkpt lat="45.550380213114146" lon="10.348738781907725"><ele>258.0</ele><time>2026-04-04T14:56:49.999Z</time></trkpt><trkpt lat="45.55033665096724" lon="10.348652346935888"><ele>258.0</ele><time>2026-04-04T14:56:51.999Z</time></trkpt><trkpt lat="45.550289123071785" lon="10.348555844443977"><ele>258.0</ele><time>2026-04-04T14:56:53.999Z</time></trkpt><trkpt lat="45.55024028350704" lon="10.348460318462722"><ele>258.0</ele><time>2026-04-04T14:56:57Z</time></trkpt><trkpt lat="45.55021122250728" lon="10.348378628538164"><ele>259.6666666666667</ele><time>2026-04-04T14:57:00Z</time></trkpt><trkpt lat="45.55018052695717" lon="10.348257208557714"><ele>261.3333333333333</ele><time>2026-04-04T14:57:03Z</time></trkpt><trkpt lat="45.55018744463228" lon="10.348117817100258"><ele>263.0</ele><time>2026-04-04T14:57:06Z</time></trkpt><trkpt lat="45.550212844208644" lon="10.347997737369745"><ele>264.66666666666663</ele><time>2026-04-04T14:57:24Z</time></trkpt><trkpt lat="45.5502443814344" lon="10.347914684726753"><ele>266.3333333333333</ele><time>2026-04-04T14:58:45.999Z</time></trkpt><trkpt lat="45.550297846652434" lon="10.347788386760508"><ele>268.0</ele><time>2026-04-04T14:59:02Z</time></trkpt><trkpt lat="45.55035620025105" lon="10.34759976891551"><ele>268.2</ele><time>2026-04-04T14:59:03Z</time></trkpt><trkpt lat="45.550388863460746" lon="10.347458296812762"><ele>268.4</ele><time>2026-04-04T14:59:04Z</time></trkpt><trkpt lat="45.55040162929095" lon="10.347343204506748"><ele>268.59999999999997</ele><time>2026-04-04T14:59:05Z</time></trkpt><trkpt lat="45.55041468305085" lon="10.347250173094336"><ele>268.8</ele><time>2026-04-04T14:59:06Z</time></trkpt><trkpt lat="45.5504112289275" lon="10.347092427531788"><ele>269.0</ele><time>2026-04-04T14:59:08Z</time></trkpt><trkpt lat="45.55041217235215" lon="10.346942824179438"><ele>269.0</ele><time>2026-04-04T14:59:10Z</time></trkpt><trkpt lat="45.55040941239463" lon="10.346788748099499"><ele>269.0</ele><time>2026-04-04T14:59:12Z</time></trkpt><trkpt lat="45.55039154212033" lon="10.34661096734271"><ele>269.0</ele><time>2026-04-04T14:59:14Z</time></trkpt><trkpt lat="45.55037627680305" lon="10.34652268742547"><ele>269.0</ele><time>2026-04-04T14:59:15Z</time></trkpt><trkpt lat="45.55036582984365" lon="10.346428638285069"><ele>269.0</ele><time>2026-04-04T14:59:16Z</time></trkpt><trkpt lat="45.55034941581157" lon="10.346339149934819"><ele>269.0</ele><time>2026-04-04T14:59:17Z</time></trkpt><trkpt lat="45.55032735658496" lon="10.34624224072079"><ele>272.2</ele><time>2026-04-04T14:59:18Z</time></trkpt><trkpt lat="45.5503139310512" lon="10.346144724113472"><ele>275.4</ele><time>2026-04-04T14:59:19Z</time></trkpt><trkpt lat="45.55030035423232" lon="10.346050405091294"><ele>278.6</ele><time>2026-04-04T14:59:20Z</time></trkpt><trkpt lat="45.55029278762651" lon="10.345880367371457"><ele>281.8</ele><time>2026-04-04T14:59:22Z</time></trkpt><trkpt lat="45.55028592507158" lon="10.34573220946048"><ele>285.0</ele><time>2026-04-04T14:59:24Z</time></trkpt><trkpt lat="45.55027604563353" lon="10.345574037133328"><ele>284.8</ele><time>2026-04-04T14:59:26Z</time></trkpt><trkpt lat="45.55026216806983" lon="10.345406577127916"><ele>284.6</ele><time>2026-04-04T14:59:28Z</time></trkpt><trkpt lat="45.550256515163035" lon="10.345232399761946"><ele>284.4</ele><time>2026-04-04T14:59:30Z</time></trkpt><trkpt lat="45.55025336295561" lon="10.345142586369944"><ele>284.2</ele><time>2026-04-04T14:59:31Z</time></trkpt><trkpt lat="45.550256476900124" lon="10.34496983965794"><ele>284.0</ele><time>2026-04-04T14:59:33Z</time></trkpt><trkpt lat="45.55027090958942" lon="10.34482137958767"><ele>284.6666666666667</ele><time>2026-04-04T14:59:35Z</time></trkpt><trkpt lat="45.55029160928668" lon="10.344673653728696"><ele>285.33333333333337</ele><time>2026-04-04T14:59:37Z</time></trkpt><trkpt lat="45.550308742729044" lon="10.34452875198279"><ele>286.0</ele><time>2026-04-04T14:59:39Z</time></trkpt><trkpt lat="45.55030192752438" lon="10.34439387900051"><ele>286.6666666666667</ele><time>2026-04-04T14:59:41Z</time></trkpt><trkpt lat="45.55025562151211" lon="10.344323441718402"><ele>287.3333333333333</ele><time>2026-04-04T14:59:43Z</time></trkpt><trkpt lat="45.550180235944" lon="10.344292751085375"><ele>288.0</ele><time>2026-04-04T14:59:45Z</time></trkpt><trkpt lat="45.55009539808659" lon="10.344277980546742"><ele>288.0</ele><time>2026-04-04T14:59:47Z</time></trkpt><trkpt lat="45.54999254036214" lon="10.344261990342053"><ele>288.0</ele><time>2026-04-04T14:59:49Z</time></trkpt><trkpt lat="45.54986802948473" lon="10.344214469432123"><ele>288.0</ele><time>2026-04-04T14:59:51Z</time></trkpt><trkpt lat="45.5497981020239" lon="10.34418149684122"><ele>288.0</ele><time>2026-04-04T14:59:52Z</time></trkpt><trkpt lat="45.54972211907268" lon="10.344131615127749"><ele>288.0</ele><time>2026-04-04T14:59:53Z</time></trkpt><trkpt lat="45.54964961719707" lon="10.344071749949496"><ele>288.0</ele><time>2026-04-04T14:59:54Z</time></trkpt><trkpt lat="45.54957210034758" lon="10.344023838541355"><ele>288.0</ele><time>2026-04-04T14:59:55Z</time></trkpt><trkpt lat="45.549490687921875" lon="10.343987466022897"><ele>288.0</ele><time>2026-04-04T14:59:56Z</time></trkpt><trkpt lat="45.54940629154389" lon="10.343960742687987"><ele>288.0</ele><time>2026-04-04T14:59:57Z</time></trkpt><trkpt lat="45.54931733350777" lon="10.343934129425993"><ele>288.0</ele><time>2026-04-04T14:59:58Z</time></trkpt><trkpt lat="45.54923162997688" lon="10.343907074373133"><ele>288.0</ele><time>2026-04-04T14:59:59Z</time></trkpt><trkpt lat="45.54914881344755" lon="10.343881486174897"><ele>289.8</ele><time>2026-04-04T15:00:00Z</time></trkpt><trkpt lat="45.54907469208518" lon="10.343858496753347"><ele>291.6</ele><time>2026-04-04T15:00:01Z</time></trkpt><trkpt lat="45.54895933303626" lon="10.343823634475948"><ele>293.4</ele><time>2026-04-04T15:00:03Z</time></trkpt><trkpt lat="45.54884368163517" lon="10.343752158194034"><ele>295.2</ele><time>2026-04-04T15:00:05Z</time></trkpt><trkpt lat="45.54879006669239" lon="10.34369971770681"><ele>297.0</ele><time>2026-04-04T15:00:06Z</time></trkpt><trkpt lat="45.54873391755989" lon="10.343628508740977"><ele>295.3333333333333</ele><time>2026-04-04T15:00:07Z</time></trkpt><trkpt lat="45.54868194566648" lon="10.34354443738786"><ele>293.6666666666667</ele><time>2026-04-04T15:00:08Z</time></trkpt><trkpt lat="45.54862873839186" lon="10.343457030077442"><ele>292.0</ele><time>2026-04-04T15:00:09Z</time></trkpt><trkpt lat="45.548572452314254" lon="10.343394288963145"><ele>290.33333333333337</ele><time>2026-04-04T15:00:10Z</time></trkpt><trkpt lat="45.54851558772579" lon="10.343353900332284"><ele>288.6666666666667</ele><time>2026-04-04T15:00:11Z</time></trkpt><trkpt lat="45.54842427669928" lon="10.34333191591336"><ele>287.0</ele><time>2026-04-04T15:00:13Z</time></trkpt><trkpt lat="45.548322772889065" lon="10.34333785034473"><ele>287.0</ele><time>2026-04-04T15:00:15Z</time></trkpt><trkpt lat="45.54821097433343" lon="10.343309199290273"><ele>287.0</ele><time>2026-04-04T15:00:17Z</time></trkpt><trkpt lat="45.54814699427676" lon="10.343280322543366"><ele>287.0</ele><time>2026-04-04T15:00:18Z</time></trkpt><trkpt lat="45.54808166306629" lon="10.343243110450086"><ele>287.0</ele><time>2026-04-04T15:00:19Z</time></trkpt><trkpt lat="45.548011265559154" lon="10.34320263765777"><ele>287.0</ele><time>2026-04-04T15:00:20Z</time></trkpt><trkpt lat="45.54794052626639" lon="10.343159810404597"><ele>287.0</ele><time>2026-04-04T15:00:21Z</time></trkpt><trkpt lat="45.54787050831988" lon="10.34311856701617"><ele>285.6666666666667</ele><time>2026-04-04T15:00:22Z</time></trkpt><trkpt lat="45.54780068688169" lon="10.343072723893457"><ele>284.33333333333337</ele><time>2026-04-04T15:00:23Z</time></trkpt><trkpt lat="45.547729446054575" lon="10.34301533676899"><ele>283.0</ele><time>2026-04-04T15:00:24Z</time></trkpt><trkpt lat="45.54766428196898" lon="10.342942449506777"><ele>281.6666666666667</ele><time>2026-04-04T15:00:25Z</time></trkpt><trkpt lat="45.54760186510826" lon="10.34285332043416"><ele>280.3333333333333</ele><time>2026-04-04T15:00:26Z</time></trkpt><trkpt lat="45.547543222114875" lon="10.342751790448693"><ele>279.0</ele><time>2026-04-04T15:00:27Z</time></trkpt><trkpt lat="45.547490484380056" lon="10.342636624379884"><ele>279.0</ele><time>2026-04-04T15:00:28Z</time></trkpt><trkpt lat="45.547445382471636" lon="10.342506775357293"><ele>279.0</ele><time>2026-04-04T15:00:29Z</time></trkpt><trkpt lat="45.54740850621442" lon="10.342363289099763"><ele>279.0</ele><time>2026-04-04T15:00:30Z</time></trkpt><trkpt lat="45.5473794455922" lon="10.342211202333525"><ele>279.0</ele><time>2026-04-04T15:00:31Z</time></trkpt><trkpt lat="45.547357844392884" lon="10.342053515828807"><ele>279.0</ele><time>2026-04-04T15:00:32Z</time></trkpt><trkpt lat="45.54733824039639" lon="10.341889497454419"><ele>280.25</ele><time>2026-04-04T15:00:33Z</time></trkpt><trkpt lat="45.547321269176656" lon="10.341720535513268"><ele>281.5</ele><time>2026-04-04T15:00:34Z</time></trkpt><trkpt lat="45.547305875377354" lon="10.34154865700056"><ele>282.75</ele><time>2026-04-04T15:00:35Z</time></trkpt><trkpt lat="45.54728672211302" lon="10.341377456086922"><ele>284.0</ele><time>2026-04-04T15:00:36Z</time></trkpt><trkpt lat="45.547269115003225" lon="10.341221142092481"><ele>284.2</ele><time>2026-04-04T15:00:37Z</time></trkpt><trkpt lat="45.54724647730655" lon="10.341067071218681"><ele>284.4</ele><time>2026-04-04T15:00:38Z</time></trkpt><trkpt lat="45.547223161102266" lon="10.340915423446075"><ele>284.6</ele><time>2026-04-04T15:00:39Z</time></trkpt><trkpt lat="45.547189340506684" lon="10.340765843926635"><ele>284.8</ele><time>2026-04-04T15:00:40Z</time></trkpt><trkpt lat="45.54714534188441" lon="10.340627199098835"><ele>285.0</ele><time>2026-04-04T15:00:41Z</time></trkpt><trkpt lat="45.54708933404617" lon="10.340496599419618"><ele>282.0</ele><time>2026-04-04T15:00:42Z</time></trkpt><trkpt lat="45.54702634825829" lon="10.340379796545477"><ele>279.0</ele><time>2026-04-04T15:00:43Z</time></trkpt><trkpt lat="45.54696656719199" lon="10.34027153217672"><ele>276.0</ele><time>2026-04-04T15:00:44Z</time></trkpt><trkpt lat="45.54690959601489" lon="10.340150937574151"><ele>273.0</ele><time>2026-04-04T15:00:45Z</time></trkpt><trkpt lat="45.54685301399839" lon="10.34002421931686"><ele>270.0</ele><time>2026-04-04T15:00:46Z</time></trkpt><trkpt lat="45.5468005299251" lon="10.339904263906485"><ele>270.0</ele><time>2026-04-04T15:00:47Z</time></trkpt><trkpt lat="45.54674800619449" lon="10.339791573730633"><ele>270.0</ele><time>2026-04-04T15:00:48Z</time></trkpt><trkpt lat="45.54668875883751" lon="10.339696819107319"><ele>270.0</ele><time>2026-04-04T15:00:49Z</time></trkpt><trkpt lat="45.546627393105595" lon="10.339617207211914"><ele>270.0</ele><time>2026-04-04T15:00:50Z</time></trkpt><trkpt lat="45.546563749909794" lon="10.339537700846014"><ele>270.0</ele><time>2026-04-04T15:00:50.999Z</time></trkpt><trkpt lat="45.546501838730265" lon="10.339457697368218"><ele>270.0</ele><time>2026-04-04T15:00:51.999Z</time></trkpt><trkpt lat="45.54644721370614" lon="10.339377592312893"><ele>271.0</ele><time>2026-04-04T15:00:52.999Z</time></trkpt><trkpt lat="45.54639650471352" lon="10.339298253895635"><ele>272.0</ele><time>2026-04-04T15:00:53.999Z</time></trkpt><trkpt lat="45.546343885626605" lon="10.33922171648591"><ele>273.0</ele><time>2026-04-04T15:00:54.999Z</time></trkpt><trkpt lat="45.54628696979493" lon="10.339153298516775"><ele>274.0</ele><time>2026-04-04T15:00:55.999Z</time></trkpt><trkpt lat="45.54621715407376" lon="10.33908730144183"><ele>275.0</ele><time>2026-04-04T15:00:56.999Z</time></trkpt><trkpt lat="45.546136266202026" lon="10.339026778565435"><ele>276.0</ele><time>2026-04-04T15:00:57.999Z</time></trkpt><trkpt lat="45.54605416147481" lon="10.33897520554828"><ele>274.0</ele><time>2026-04-04T15:00:58.999Z</time></trkpt><trkpt lat="45.54597186685039" lon="10.338928149969686"><ele>272.0</ele><time>2026-04-04T15:00:59.999Z</time></trkpt><trkpt lat="45.54588311215169" lon="10.33890015296637"><ele>270.0</ele><time>2026-04-04T15:01:00.999Z</time></trkpt><trkpt lat="45.54578991279877" lon="10.338904299895527"><ele>268.0</ele><time>2026-04-04T15:01:01.999Z</time></trkpt><trkpt lat="45.54570243774095" lon="10.338929046425076"><ele>266.0</ele><time>2026-04-04T15:01:02.999Z</time></trkpt><trkpt lat="45.54561797127254" lon="10.338948283540686"><ele>264.0</ele><time>2026-04-04T15:01:03.999Z</time></trkpt><trkpt lat="45.54554323139022" lon="10.338904037008643"><ele>262.1666666666667</ele><time>2026-04-04T15:01:04.999Z</time></trkpt><trkpt lat="45.54549001860192" lon="10.33881272517864"><ele>260.3333333333333</ele><time>2026-04-04T15:01:05.999Z</time></trkpt><trkpt lat="45.54546246197806" lon="10.338691633384887"><ele>258.5</ele><time>2026-04-04T15:01:07Z</time></trkpt><trkpt lat="45.54546301707644" lon="10.338560189728655"><ele>256.66666666666663</ele><time>2026-04-04T15:01:08Z</time></trkpt><trkpt lat="45.54550692594782" lon="10.338448424281976"><ele>254.83333333333331</ele><time>2026-04-04T15:01:09Z</time></trkpt><trkpt lat="45.54554800225638" lon="10.338340941130731"><ele>253.0</ele><time>2026-04-04T15:01:10Z</time></trkpt><trkpt lat="45.54557370389731" lon="10.338240990152446"><ele>252.99999999999997</ele><time>2026-04-04T15:01:11Z</time></trkpt><trkpt lat="45.54558926739442" lon="10.338138995724286"><ele>253.0</ele><time>2026-04-04T15:01:12Z</time></trkpt><trkpt lat="45.54554962869697" lon="10.338031397973323"><ele>253.0</ele><time>2026-04-04T15:01:13Z</time></trkpt><trkpt lat="45.54545118441518" lon="10.3380020354083"><ele>253.0</ele><time>2026-04-04T15:01:14Z</time></trkpt><trkpt lat="45.5453666131788" lon="10.337995350038986"><ele>252.99999999999997</ele><time>2026-04-04T15:01:15Z</time></trkpt><trkpt lat="45.54528418001743" lon="10.337988727356333"><ele>253.0</ele><time>2026-04-04T15:01:16Z</time></trkpt><trkpt lat="45.5452022939254" lon="10.33796680225698"><ele>248.99999999999997</ele><time>2026-04-04T15:01:17Z</time></trkpt><trkpt lat="45.54512691583131" lon="10.337910061139336"><ele>245.0</ele><time>2026-04-04T15:01:18Z</time></trkpt><trkpt lat="45.545064690859576" lon="10.337832563776486"><ele>241.0</ele><time>2026-04-04T15:01:19Z</time></trkpt><trkpt lat="45.545003295360324" lon="10.337765305929901"><ele>237.0</ele><time>2026-04-04T15:01:20Z</time></trkpt><trkpt lat="45.544924641849434" lon="10.337754360285043"><ele>232.99999999999997</ele><time>2026-04-04T15:01:21Z</time></trkpt><trkpt lat="45.5448459129704" lon="10.337791938629453"><ele>229.0</ele><time>2026-04-04T15:01:22Z</time></trkpt><trkpt lat="45.544773165158766" lon="10.337861771905143"><ele>228.99999999999997</ele><time>2026-04-04T15:01:23Z</time></trkpt><trkpt lat="45.544704946307164" lon="10.337938155809038"><ele>229.0</ele><time>2026-04-04T15:01:24Z</time></trkpt><trkpt lat="45.54462615978769" lon="10.337972417000184"><ele>229.0</ele><time>2026-04-04T15:01:25Z</time></trkpt><trkpt lat="45.544551410370076" lon="10.337948378243587"><ele>229.0</ele><time>2026-04-04T15:01:26Z</time></trkpt><trkpt lat="45.544486157778096" lon="10.337905126191918"><ele>228.99999999999997</ele><time>2026-04-04T15:01:27Z</time></trkpt><trkpt lat="45.5443619439273" lon="10.337916278611171"><ele>229.0</ele><time>2026-04-04T15:01:29Z</time></trkpt><trkpt lat="45.544290712291534" lon="10.337946697948235"><ele>226.0</ele><time>2026-04-04T15:01:30Z</time></trkpt><trkpt lat="45.5442160475316" lon="10.337962457466821"><ele>222.99999999999997</ele><time>2026-04-04T15:01:31Z</time></trkpt><trkpt lat="45.544145324608515" lon="10.337953701807223"><ele>219.99999999999997</ele><time>2026-04-04T15:01:32Z</time></trkpt><trkpt lat="45.54402549620522" lon="10.337914614072231"><ele>217.0</ele><time>2026-04-04T15:01:34Z</time></trkpt><trkpt lat="45.5439225784998" lon="10.337874139972095"><ele>214.0</ele><time>2026-04-04T15:01:36Z</time></trkpt><trkpt lat="45.5438906390449" lon="10.33775452710484"><ele>213.99999999999997</ele><time>2026-04-04T15:01:38Z</time></trkpt><trkpt lat="45.543877914716994" lon="10.337658949336923"><ele>214.0</ele><time>2026-04-04T15:01:40Z</time></trkpt><trkpt lat="45.54387566223449" lon="10.337562518424429"><ele>214.0</ele><time>2026-04-04T15:01:43Z</time></trkpt><trkpt lat="45.543952398749475" lon="10.337468408161168"><ele>214.0</ele><time>2026-04-04T15:01:45Z</time></trkpt><trkpt lat="45.54400601498845" lon="10.337396164783948"><ele>213.99999999999997</ele><time>2026-04-04T15:01:46Z</time></trkpt><trkpt lat="45.54405749021973" lon="10.337321176289578"><ele>214.0</ele><time>2026-04-04T15:01:47Z</time></trkpt><trkpt lat="45.54410694320986" lon="10.33724931113411"><ele>212.57142857142858</ele><time>2026-04-04T15:01:48Z</time></trkpt><trkpt lat="45.54415888141475" lon="10.337174799710912"><ele>211.14285714285714</ele><time>2026-04-04T15:01:49Z</time></trkpt><trkpt lat="45.544201180612696" lon="10.33708224858919"><ele>209.71428571428572</ele><time>2026-04-04T15:01:50Z</time></trkpt><trkpt lat="45.54425108210032" lon="10.337014311664818"><ele>208.28571428571428</ele><time>2026-04-04T15:01:51Z</time></trkpt><trkpt lat="45.54430605045414" lon="10.3369679498957"><ele>206.85714285714286</ele><time>2026-04-04T15:01:52Z</time></trkpt><trkpt lat="45.54435436737162" lon="10.336902207354907"><ele>205.42857142857144</ele><time>2026-04-04T15:01:53Z</time></trkpt><trkpt lat="45.5444114833898" lon="10.336834083829766"><ele>204.0</ele><time>2026-04-04T15:01:54Z</time></trkpt><trkpt lat="45.544474820913145" lon="10.33676685143629"><ele>204.0</ele><time>2026-04-04T15:01:55Z</time></trkpt><trkpt lat="45.54454123344498" lon="10.336702029044982"><ele>204.0</ele><time>2026-04-04T15:01:56Z</time></trkpt><trkpt lat="45.54461024252125" lon="10.336634422548572"><ele>204.0</ele><time>2026-04-04T15:01:57Z</time></trkpt><trkpt lat="45.544680184102496" lon="10.336565902447271"><ele>204.0</ele><time>2026-04-04T15:01:58Z</time></trkpt><trkpt lat="45.544751614196635" lon="10.336495924081545"><ele>204.0</ele><time>2026-04-04T15:01:59Z</time></trkpt><trkpt lat="45.544820576358546" lon="10.336427027099804"><ele>204.0</ele><time>2026-04-04T15:02:00Z</time></trkpt><trkpt lat="45.54488338769484" lon="10.336363576662382"><ele>202.85714285714286</ele><time>2026-04-04T15:02:01Z</time></trkpt><trkpt lat="45.54493995881694" lon="10.336298426929538"><ele>201.71428571428572</ele><time>2026-04-04T15:02:02Z</time></trkpt><trkpt lat="45.54497952703271" lon="10.336205899456479"><ele>200.57142857142856</ele><time>2026-04-04T15:02:03Z</time></trkpt><trkpt lat="45.545003271441104" lon="10.336106331958508"><ele>199.42857142857144</ele><time>2026-04-04T15:02:04Z</time></trkpt><trkpt lat="45.54500801946127" lon="10.335995353097518"><ele>198.28571428571428</ele><time>2026-04-04T15:02:05Z</time></trkpt><trkpt lat="45.54500450386412" lon="10.335888400021076"><ele>197.14285714285714</ele><time>2026-04-04T15:02:06Z</time></trkpt><trkpt lat="45.544998620972855" lon="10.33578423837385"><ele>196.0</ele><time>2026-04-04T15:02:07Z</time></trkpt><trkpt lat="45.54500306087626" lon="10.335677476899916"><ele>195.99999999999997</ele><time>2026-04-04T15:02:08Z</time></trkpt><trkpt lat="45.54500652616715" lon="10.335573399862971"><ele>196.0</ele><time>2026-04-04T15:02:09Z</time></trkpt><trkpt lat="45.54501032820033" lon="10.335466267809464"><ele>196.0</ele><time>2026-04-04T15:02:10Z</time></trkpt><trkpt lat="45.54501619652832" lon="10.335359822214736"><ele>196.0</ele><time>2026-04-04T15:02:11Z</time></trkpt><trkpt lat="45.545018966074984" lon="10.335242698703375"><ele>195.99999999999997</ele><time>2026-04-04T15:02:12Z</time></trkpt><trkpt lat="45.545026098362015" lon="10.335127489925021"><ele>196.0</ele><time>2026-04-04T15:02:13Z</time></trkpt><trkpt lat="45.54504504978125" lon="10.335016762106958"><ele>194.33333333333331</ele><time>2026-04-04T15:02:14Z</time></trkpt><trkpt lat="45.5450344579101" lon="10.334901723251829"><ele>192.66666666666666</ele><time>2026-04-04T15:02:15Z</time></trkpt><trkpt lat="45.54504183866928" lon="10.33478940999738"><ele>191.0</ele><time>2026-04-04T15:02:16Z</time></trkpt><trkpt lat="45.54504783877873" lon="10.33467971207028"><ele>189.33333333333331</ele><time>2026-04-04T15:02:17Z</time></trkpt><trkpt lat="45.545053085317996" lon="10.334570408561817"><ele>187.66666666666666</ele><time>2026-04-04T15:02:18Z</time></trkpt><trkpt lat="45.545058772106835" lon="10.334457513452731"><ele>186.0</ele><time>2026-04-04T15:02:19Z</time></trkpt><trkpt lat="45.545084437524245" lon="10.334341456063186"><ele>185.16666666666666</ele><time>2026-04-04T15:02:20Z</time></trkpt><trkpt lat="45.5450830716458" lon="10.334223085911784"><ele>184.33333333333334</ele><time>2026-04-04T15:02:21Z</time></trkpt><trkpt lat="45.54510226334669" lon="10.334105004709913"><ele>183.5</ele><time>2026-04-04T15:02:22Z</time></trkpt><trkpt lat="45.54512264290948" lon="10.333985834817646"><ele>182.66666666666669</ele><time>2026-04-04T15:02:23Z</time></trkpt><trkpt lat="45.54514011834792" lon="10.333876415131616"><ele>181.83333333333334</ele><time>2026-04-04T15:02:24Z</time></trkpt><trkpt lat="45.545160179231694" lon="10.333770293516986"><ele>181.0</ele><time>2026-04-04T15:02:25Z</time></trkpt><trkpt lat="45.54517945974557" lon="10.333663778285622"><ele>179.83333333333334</ele><time>2026-04-04T15:02:26Z</time></trkpt><trkpt lat="45.54519890049332" lon="10.333556239027647"><ele>178.66666666666669</ele><time>2026-04-04T15:02:27Z</time></trkpt><trkpt lat="45.54521761576371" lon="10.333447929134307"><ele>177.5</ele><time>2026-04-04T15:02:28Z</time></trkpt><trkpt lat="45.5452362632448" lon="10.33334133867286"><ele>176.33333333333334</ele><time>2026-04-04T15:02:29Z</time></trkpt><trkpt lat="45.54525258863436" lon="10.333234655869916"><ele>175.16666666666666</ele><time>2026-04-04T15:02:30Z</time></trkpt><trkpt lat="45.545269596853" lon="10.333131257560124"><ele>174.0</ele><time>2026-04-04T15:02:31Z</time></trkpt><trkpt lat="45.545287949758965" lon="10.333032045813692"><ele>172.33333333333334</ele><time>2026-04-04T15:02:32Z</time></trkpt><trkpt lat="45.54530876157454" lon="10.33293923481916"><ele>170.66666666666666</ele><time>2026-04-04T15:02:33Z</time></trkpt><trkpt lat="45.54533326224876" lon="10.332854016101072"><ele>169.0</ele><time>2026-04-04T15:02:34Z</time></trkpt><trkpt lat="45.545359390768866" lon="10.332679986457165"><ele>167.33333333333331</ele><time>2026-04-04T15:02:36Z</time></trkpt><trkpt lat="45.54534023220288" lon="10.332587441725048"><ele>165.66666666666666</ele><time>2026-04-04T15:02:37Z</time></trkpt><trkpt lat="45.545290696405694" lon="10.332502074024335"><ele>164.0</ele><time>2026-04-04T15:02:38Z</time></trkpt><trkpt lat="45.54521804347498" lon="10.332438877112658"><ele>164.0</ele><time>2026-04-04T15:02:39Z</time></trkpt><trkpt lat="45.545141369614136" lon="10.33238922146704"><ele>164.0</ele><time>2026-04-04T15:02:40Z</time></trkpt><trkpt lat="45.54506042968526" lon="10.332331675623157"><ele>164.0</ele><time>2026-04-04T15:02:41Z</time></trkpt><trkpt lat="45.544980973953514" lon="10.33226062496053"><ele>164.0</ele><time>2026-04-04T15:02:42Z</time></trkpt><trkpt lat="45.54490849582727" lon="10.332182630623208"><ele>164.0</ele><time>2026-04-04T15:02:43Z</time></trkpt><trkpt lat="45.5448423197251" lon="10.332095496689304"><ele>164.0</ele><time>2026-04-04T15:02:44Z</time></trkpt><trkpt lat="45.54477103857317" lon="10.332005292500025"><ele>163.33333333333331</ele><time>2026-04-04T15:02:45Z</time></trkpt><trkpt lat="45.544703352701305" lon="10.331906604251104"><ele>162.66666666666666</ele><time>2026-04-04T15:02:46Z</time></trkpt><trkpt lat="45.5446446903595" lon="10.331808937268859"><ele>162.0</ele><time>2026-04-04T15:02:47Z</time></trkpt><trkpt lat="45.544589135870005" lon="10.33171051966333"><ele>161.33333333333334</ele><time>2026-04-04T15:02:48Z</time></trkpt><trkpt lat="45.54455329695976" lon="10.33162168240014"><ele>160.66666666666669</ele><time>2026-04-04T15:02:49Z</time></trkpt><trkpt lat="45.54452879797274" lon="10.3315350799886"><ele>160.0</ele><time>2026-04-04T15:02:50Z</time></trkpt><trkpt lat="45.54444895669779" lon="10.331414204656516"><ele>159.0</ele><time>2026-04-04T15:02:52Z</time></trkpt><trkpt lat="45.544369214362526" lon="10.331419494107365"><ele>158.0</ele><time>2026-04-04T15:02:53Z</time></trkpt><trkpt lat="45.544287414937884" lon="10.331483491432449"><ele>157.0</ele><time>2026-04-04T15:02:54Z</time></trkpt><trkpt lat="45.54421602728979" lon="10.331589662430124"><ele>156.0</ele><time>2026-04-04T15:02:55Z</time></trkpt><trkpt lat="45.5441484260563" lon="10.331703340793776"><ele>155.0</ele><time>2026-04-04T15:02:56Z</time></trkpt><trkpt lat="45.54408691776238" lon="10.331806868638218"><ele>155.0</ele><time>2026-04-04T15:02:57Z</time></trkpt><trkpt lat="45.54402855334153" lon="10.331897595762074"><ele>155.0</ele><time>2026-04-04T15:02:58Z</time></trkpt><trkpt lat="45.54396772153809" lon="10.33199275638457"><ele>155.0</ele><time>2026-04-04T15:02:59Z</time></trkpt><trkpt lat="45.543905411251615" lon="10.332079987558144"><ele>155.0</ele><time>2026-04-04T15:03:00Z</time></trkpt><trkpt lat="45.543836525891415" lon="10.332147858280393"><ele>155.0</ele><time>2026-04-04T15:03:01Z</time></trkpt><trkpt lat="45.54377806023833" lon="10.33222828333489"><ele>155.0</ele><time>2026-04-04T15:03:01.999Z</time></trkpt><trkpt lat="45.54372149164401" lon="10.332306098830085"><ele>154.71428571428572</ele><time>2026-04-04T15:03:02.999Z</time></trkpt><trkpt lat="45.54367056554648" lon="10.332376790034573"><ele>154.42857142857142</ele><time>2026-04-04T15:03:03.999Z</time></trkpt><trkpt lat="45.543620702276655" lon="10.332446393361476"><ele>154.14285714285714</ele><time>2026-04-04T15:03:04.999Z</time></trkpt><trkpt lat="45.54356980140088" lon="10.332519949570111"><ele>153.85714285714286</ele><time>2026-04-04T15:03:05.999Z</time></trkpt><trkpt lat="45.54352752158935" lon="10.332606836211783"><ele>153.57142857142858</ele><time>2026-04-04T15:03:06.999Z</time></trkpt><trkpt lat="45.543471346064905" lon="10.332679498823028"><ele>153.28571428571428</ele><time>2026-04-04T15:03:07.999Z</time></trkpt><trkpt lat="45.54342409949549" lon="10.33275561937647"><ele>153.0</ele><time>2026-04-04T15:03:08.999Z</time></trkpt><trkpt lat="45.54337289106405" lon="10.332822915322932"><ele>153.0</ele><time>2026-04-04T15:03:09.999Z</time></trkpt><trkpt lat="45.54330785546456" lon="10.332855536703597"><ele>153.0</ele><time>2026-04-04T15:03:10.999Z</time></trkpt><trkpt lat="45.543233821412684" lon="10.332844560019117"><ele>153.0</ele><time>2026-04-04T15:03:11.999Z</time></trkpt><trkpt lat="45.54316066040431" lon="10.332840322911713"><ele>153.0</ele><time>2026-04-04T15:03:13Z</time></trkpt><trkpt lat="45.543097697760466" lon="10.332705590432184"><ele>153.0</ele><time>2026-04-04T15:03:14Z</time></trkpt><trkpt lat="45.543047907976835" lon="10.332606305535801"><ele>153.0</ele><time>2026-04-04T15:03:15Z</time></trkpt><trkpt lat="45.54300622024302" lon="10.332502325758831"><ele>153.0</ele><time>2026-04-04T15:03:16Z</time></trkpt><trkpt lat="45.54296474184708" lon="10.332398903476244"><ele>153.0</ele><time>2026-04-04T15:03:17Z</time></trkpt><trkpt lat="45.54292211930783" lon="10.332300279623734"><ele>153.0</ele><time>2026-04-04T15:03:18Z</time></trkpt><trkpt lat="45.542874310328976" lon="10.332200848971794"><ele>153.0</ele><time>2026-04-04T15:03:19Z</time></trkpt><trkpt lat="45.54282638869826" lon="10.332103379444204"><ele>153.0</ele><time>2026-04-04T15:03:20Z</time></trkpt><trkpt lat="45.54278148820933" lon="10.332001466674877"><ele>153.0</ele><time>2026-04-04T15:03:21Z</time></trkpt><trkpt lat="45.54273609977105" lon="10.331902014927369"><ele>152.66666666666666</ele><time>2026-04-04T15:03:22Z</time></trkpt><trkpt lat="45.54268829501581" lon="10.331806196577432"><ele>152.33333333333334</ele><time>2026-04-04T15:03:23Z</time></trkpt><trkpt lat="45.54264342970796" lon="10.331711833007867"><ele>152.0</ele><time>2026-04-04T15:03:24Z</time></trkpt><trkpt lat="45.542598683740295" lon="10.331610427951409"><ele>151.66666666666669</ele><time>2026-04-04T15:03:25Z</time></trkpt><trkpt lat="45.54255708275697" lon="10.331504362804866"><ele>151.33333333333334</ele><time>2026-04-04T15:03:26Z</time></trkpt><trkpt lat="45.54250575549949" lon="10.331396326117648"><ele>151.0</ele><time>2026-04-04T15:03:27Z</time></trkpt><trkpt lat="45.542451049927756" lon="10.33128534619242"><ele>150.8</ele><time>2026-04-04T15:03:28Z</time></trkpt><trkpt lat="45.542394308446404" lon="10.33116946352368"><ele>150.6</ele><time>2026-04-04T15:03:29Z</time></trkpt><trkpt lat="45.542332277164824" lon="10.331033028428251"><ele>150.4</ele><time>2026-04-04T15:03:30Z</time></trkpt><trkpt lat="45.54227496976523" lon="10.330906253851374"><ele>150.2</ele><time>2026-04-04T15:03:31Z</time></trkpt><trkpt lat="45.54222771780504" lon="10.330793427143224"><ele>150.0</ele><time>2026-04-04T15:03:32Z</time></trkpt><trkpt lat="45.542181885842176" lon="10.330688586746456"><ele>150.0</ele><time>2026-04-04T15:03:33Z</time></trkpt><trkpt lat="45.54212927965499" lon="10.330593706923644"><ele>150.0</ele><time>2026-04-04T15:03:34Z</time></trkpt><trkpt lat="45.54207667105914" lon="10.330494914416068"><ele>150.0</ele><time>2026-04-04T15:03:35Z</time></trkpt><trkpt lat="45.54202375611123" lon="10.33039127557031"><ele>150.0</ele><time>2026-04-04T15:03:36Z</time></trkpt><trkpt lat="45.54196470470727" lon="10.33030267106756"><ele>150.0</ele><time>2026-04-04T15:03:37Z</time></trkpt><trkpt lat="45.54190627060308" lon="10.330210932718888"><ele>150.0</ele><time>2026-04-04T15:03:38Z</time></trkpt><trkpt lat="45.541847573071564" lon="10.330120027809294"><ele>150.2</ele><time>2026-04-04T15:03:39Z</time></trkpt><trkpt lat="45.54178293021205" lon="10.330034025643739"><ele>150.4</ele><time>2026-04-04T15:03:40Z</time></trkpt><trkpt lat="45.54170919043879" lon="10.329958877505856"><ele>150.6</ele><time>2026-04-04T15:03:41Z</time></trkpt><trkpt lat="45.541626540850295" lon="10.329885025014384"><ele>150.8</ele><time>2026-04-04T15:03:42Z</time></trkpt><trkpt lat="45.541538807787674" lon="10.329820048496494"><ele>151.0</ele><time>2026-04-04T15:03:43Z</time></trkpt><trkpt lat="45.54144660667797" lon="10.329760869795997"><ele>151.0</ele><time>2026-04-04T15:03:44Z</time></trkpt><trkpt lat="45.54135422349487" lon="10.329702334308367"><ele>151.0</ele><time>2026-04-04T15:03:45Z</time></trkpt><trkpt lat="45.541250901633326" lon="10.329637235801169"><ele>151.0</ele><time>2026-04-04T15:03:46Z</time></trkpt><trkpt lat="45.54114537510382" lon="10.32957273767238"><ele>151.0</ele><time>2026-04-04T15:03:47Z</time></trkpt><trkpt lat="45.54103710682337" lon="10.329501316126043"><ele>151.0</ele><time>2026-04-04T15:03:48Z</time></trkpt><trkpt lat="45.54093790909178" lon="10.329416105357657"><ele>150.75</ele><time>2026-04-04T15:03:49Z</time></trkpt><trkpt lat="45.540842100451265" lon="10.329313345536262"><ele>150.5</ele><time>2026-04-04T15:03:50Z</time></trkpt><trkpt lat="45.540748114132555" lon="10.32919523889183"><ele>150.25</ele><time>2026-04-04T15:03:51Z</time></trkpt><trkpt lat="45.54065431145279" lon="10.329075897929693"><ele>150.0</ele><time>2026-04-04T15:03:52Z</time></trkpt><trkpt lat="45.54056114146337" lon="10.328956958187648"><ele>150.2</ele><time>2026-04-04T15:03:53Z</time></trkpt><trkpt lat="45.54047129336317" lon="10.328843659021862"><ele>150.4</ele><time>2026-04-04T15:03:54Z</time></trkpt><trkpt lat="45.54038939100718" lon="10.328737666953394"><ele>150.6</ele><time>2026-04-04T15:03:55Z</time></trkpt><trkpt lat="45.54031056697258" lon="10.328639162299842"><ele>150.8</ele><time>2026-04-04T15:03:56Z</time></trkpt><trkpt lat="45.54023541120236" lon="10.328548473461094"><ele>151.0</ele><time>2026-04-04T15:03:57Z</time></trkpt><trkpt lat="45.540172280663505" lon="10.328464927236405"><ele>150.4</ele><time>2026-04-04T15:03:58Z</time></trkpt><trkpt lat="45.540124081271564" lon="10.328401142707184"><ele>149.8</ele><time>2026-04-04T15:03:59Z</time></trkpt><trkpt lat="45.540078371895646" lon="10.328334211735758"><ele>149.20000000000002</ele><time>2026-04-04T15:04:00Z</time></trkpt><trkpt lat="45.54001620073876" lon="10.328206846062612"><ele>148.6</ele><time>2026-04-04T15:04:02Z</time></trkpt><trkpt lat="45.54000745282003" lon="10.328115383569804"><ele>148.0</ele><time>2026-04-04T15:04:05Z</time></trkpt><trkpt lat="45.53985878328706" lon="10.328158270727062"><ele>148.0</ele><time>2026-04-04T15:04:08Z</time></trkpt><trkpt lat="45.53977474926691" lon="10.328220681343428"><ele>148.0</ele><time>2026-04-04T15:04:10Z</time></trkpt><trkpt lat="45.53967831355384" lon="10.328319385059284"><ele>148.0</ele><time>2026-04-04T15:04:12Z</time></trkpt><trkpt lat="45.53962917539686" lon="10.328380131601238"><ele>148.0</ele><time>2026-04-04T15:04:13Z</time></trkpt><trkpt lat="45.53957951151975" lon="10.328447754117862"><ele>148.0</ele><time>2026-04-04T15:04:14Z</time></trkpt><trkpt lat="45.53953464411271" lon="10.328531866195837"><ele>148.0</ele><time>2026-04-04T15:04:15Z</time></trkpt><trkpt lat="45.539491326147086" lon="10.32861613406183"><ele>147.66666666666669</ele><time>2026-04-04T15:04:16Z</time></trkpt><trkpt lat="45.539446632368424" lon="10.32870922377182"><ele>147.33333333333334</ele><time>2026-04-04T15:04:17Z</time></trkpt><trkpt lat="45.53939554841125" lon="10.328812767509827"><ele>147.0</ele><time>2026-04-04T15:04:18Z</time></trkpt><trkpt lat="45.53933856143742" lon="10.328919863431624"><ele>146.66666666666666</ele><time>2026-04-04T15:04:19Z</time></trkpt><trkpt lat="45.53927653237121" lon="10.329021989117619"><ele>146.33333333333331</ele><time>2026-04-04T15:04:20Z</time></trkpt><trkpt lat="45.5392147455633" lon="10.329106998173206"><ele>146.0</ele><time>2026-04-04T15:04:21Z</time></trkpt><trkpt lat="45.539143358017064" lon="10.329177085891278"><ele>146.0</ele><time>2026-04-04T15:04:22Z</time></trkpt><trkpt lat="45.5390676812523" lon="10.329231537867553"><ele>146.0</ele><time>2026-04-04T15:04:23Z</time></trkpt><trkpt lat="45.538982730175924" lon="10.329277005535564"><ele>146.0</ele><time>2026-04-04T15:04:24Z</time></trkpt><trkpt lat="45.53889604312471" lon="10.329293466295468"><ele>146.0</ele><time>2026-04-04T15:04:25Z</time></trkpt><trkpt lat="45.53882392324312" lon="10.329293434314016"><ele>146.0</ele><time>2026-04-04T15:04:26Z</time></trkpt><trkpt lat="45.538728679330276" lon="10.329290680300977"><ele>146.0</ele><time>2026-04-04T15:04:28Z</time></trkpt><trkpt lat="45.538627288014936" lon="10.329276491633909"><ele>146.2</ele><time>2026-04-04T15:04:30Z</time></trkpt><trkpt lat="45.53852975502832" lon="10.329302427019256"><ele>146.39999999999998</ele><time>2026-04-04T15:04:32Z</time></trkpt><trkpt lat="45.53844557709975" lon="10.32942256292274"><ele>146.6</ele><time>2026-04-04T15:04:34Z</time></trkpt><trkpt lat="45.53839095749682" lon="10.329493512498754"><ele>146.79999999999998</ele><time>2026-04-04T15:04:35Z</time></trkpt><trkpt lat="45.538283780793485" lon="10.329544445148127"><ele>147.0</ele><time>2026-04-04T15:04:37Z</time></trkpt><trkpt lat="45.53820488473124" lon="10.32957578150373"><ele>147.0</ele><time>2026-04-04T15:04:39Z</time></trkpt><trkpt lat="45.53813222476145" lon="10.329613300911753"><ele>147.0</ele><time>2026-04-04T15:04:41Z</time></trkpt><trkpt lat="45.538050828901476" lon="10.32965616551802"><ele>147.0</ele><time>2026-04-04T15:04:43Z</time></trkpt><trkpt lat="45.53797477554821" lon="10.329702040684074"><ele>147.0</ele><time>2026-04-04T15:04:45Z</time></trkpt><trkpt lat="45.537907067106765" lon="10.329746189940735"><ele>147.0</ele><time>2026-04-04T15:04:47Z</time></trkpt><trkpt lat="45.537820521086445" lon="10.329784544838793"><ele>147.0</ele><time>2026-04-04T15:04:50Z</time></trkpt><trkpt lat="45.5377726325305" lon="10.329721815380642"><ele>146.6</ele><time>2026-04-04T15:04:52Z</time></trkpt><trkpt lat="45.53769101679938" lon="10.329666448117736"><ele>146.2</ele><time>2026-04-04T15:04:54Z</time></trkpt><trkpt lat="45.53762324315835" lon="10.329562808524045"><ele>145.8</ele><time>2026-04-04T15:04:56Z</time></trkpt><trkpt lat="45.53754483313259" lon="10.329453867379584"><ele>145.4</ele><time>2026-04-04T15:04:58Z</time></trkpt><trkpt lat="45.537461895739824" lon="10.329337376686679"><ele>145.0</ele><time>2026-04-04T15:05:00Z</time></trkpt><trkpt lat="45.53742436204281" lon="10.329259070332576"><ele>145.0</ele><time>2026-04-04T15:05:01Z</time></trkpt><trkpt lat="45.53737328917293" lon="10.329205404020827"><ele>145.0</ele><time>2026-04-04T15:05:02Z</time></trkpt><trkpt lat="45.53729849359619" lon="10.329208018007405"><ele>145.0</ele><time>2026-04-04T15:05:03Z</time></trkpt><trkpt lat="45.53722791557963" lon="10.329228988551522"><ele>145.0</ele><time>2026-04-04T15:05:04Z</time></trkpt><trkpt lat="45.537164007571754" lon="10.329229049396593"><ele>145.0</ele><time>2026-04-04T15:05:05Z</time></trkpt><trkpt lat="45.53708217153823" lon="10.329128251575687"><ele>145.0</ele><time>2026-04-04T15:05:07Z</time></trkpt><trkpt lat="45.53703242051839" lon="10.329012398587041"><ele>148.66666666666669</ele><time>2026-04-04T15:05:09Z</time></trkpt><trkpt lat="45.537005301220745" lon="10.32893090685337"><ele>152.33333333333334</ele><time>2026-04-04T15:05:11Z</time></trkpt><trkpt lat="45.536974053701904" lon="10.328826362168066"><ele>156.0</ele><time>2026-04-04T15:05:13Z</time></trkpt><trkpt lat="45.53694029864282" lon="10.328708455498015"><ele>159.66666666666666</ele><time>2026-04-04T15:05:15Z</time></trkpt><trkpt lat="45.53690851613796" lon="10.328553285827587"><ele>163.33333333333331</ele><time>2026-04-04T15:05:17Z</time></trkpt><trkpt lat="45.536886747451526" lon="10.328448998598505"><ele>167.0</ele><time>2026-04-04T15:05:18Z</time></trkpt><trkpt lat="45.53686594322128" lon="10.328349331836527"><ele>167.0</ele><time>2026-04-04T15:05:19Z</time></trkpt><trkpt lat="45.53684278380723" lon="10.328244879160993"><ele>167.0</ele><time>2026-04-04T15:05:20Z</time></trkpt><trkpt lat="45.53681746219357" lon="10.328132453331879"><ele>167.0</ele><time>2026-04-04T15:05:21Z</time></trkpt><trkpt lat="45.53678383302842" lon="10.328000583912658"><ele>167.0</ele><time>2026-04-04T15:05:22Z</time></trkpt><trkpt lat="45.53674060030135" lon="10.327878313241586"><ele>167.0</ele><time>2026-04-04T15:05:23Z</time></trkpt><trkpt lat="45.53671130625191" lon="10.327755368547104"><ele>167.0</ele><time>2026-04-04T15:05:24Z</time></trkpt><trkpt lat="45.53667504330076" lon="10.327642885777234"><ele>164.6</ele><time>2026-04-04T15:05:25Z</time></trkpt><trkpt lat="45.53660381838296" lon="10.327514627084646"><ele>162.2</ele><time>2026-04-04T15:05:27Z</time></trkpt><trkpt lat="45.536566290864386" lon="10.327390026835669"><ele>159.8</ele><time>2026-04-04T15:05:29Z</time></trkpt><trkpt lat="45.53650768183196" lon="10.327267199916493"><ele>157.4</ele><time>2026-04-04T15:05:31Z</time></trkpt><trkpt lat="45.53644618174198" lon="10.327139678560833"><ele>155.0</ele><time>2026-04-04T15:05:33Z</time></trkpt><trkpt lat="45.536372997775935" lon="10.327010853384378"><ele>153.5</ele><time>2026-04-04T15:05:35Z</time></trkpt><trkpt lat="45.53627941775814" lon="10.326884641314878"><ele>152.0</ele><time>2026-04-04T15:05:37Z</time></trkpt><trkpt lat="45.53623194688142" lon="10.326798167124602"><ele>150.5</ele><time>2026-04-04T15:05:38Z</time></trkpt><trkpt lat="45.53618540985558" lon="10.326700651507146"><ele>149.0</ele><time>2026-04-04T15:05:39Z</time></trkpt><trkpt lat="45.53613002049932" lon="10.326621434288425"><ele>147.5</ele><time>2026-04-04T15:05:40Z</time></trkpt><trkpt lat="45.536092156117036" lon="10.326522872282752"><ele>146.0</ele><time>2026-04-04T15:05:41Z</time></trkpt><trkpt lat="45.53604341973386" lon="10.326441940666035"><ele>146.5</ele><time>2026-04-04T15:05:42Z</time></trkpt><trkpt lat="45.53599309585479" lon="10.326358840373956"><ele>147.0</ele><time>2026-04-04T15:05:43Z</time></trkpt><trkpt lat="45.5359303597913" lon="10.326289675454497"><ele>147.5</ele><time>2026-04-04T15:05:44Z</time></trkpt><trkpt lat="45.535882922095915" lon="10.326207003117482"><ele>148.0</ele><time>2026-04-04T15:05:45Z</time></trkpt><trkpt lat="45.535834478913955" lon="10.326133627436805"><ele>148.5</ele><time>2026-04-04T15:05:46Z</time></trkpt><trkpt lat="45.53578698452905" lon="10.326056859068586"><ele>149.0</ele><time>2026-04-04T15:05:47Z</time></trkpt><trkpt lat="45.535731756245134" lon="10.325980736236538"><ele>149.0</ele><time>2026-04-04T15:05:48Z</time></trkpt><trkpt lat="45.535676343427646" lon="10.3258971011504"><ele>149.0</ele><time>2026-04-04T15:05:49Z</time></trkpt><trkpt lat="45.53562085237146" lon="10.325814003985654"><ele>149.0</ele><time>2026-04-04T15:05:50Z</time></trkpt><trkpt lat="45.53555992085857" lon="10.325732473545218"><ele>149.0</ele><time>2026-04-04T15:05:51Z</time></trkpt><trkpt lat="45.535497516088256" lon="10.325672919295956"><ele>149.0</ele><time>2026-04-04T15:05:52Z</time></trkpt><trkpt lat="45.53543111227383" lon="10.325609015853486"><ele>149.0</ele><time>2026-04-04T15:05:53Z</time></trkpt><trkpt lat="45.535357610172596" lon="10.325548825602084"><ele>149.0</ele><time>2026-04-04T15:05:54Z</time></trkpt><trkpt lat="45.535294049584564" lon="10.325484636269586"><ele>149.0</ele><time>2026-04-04T15:05:55Z</time></trkpt><trkpt lat="45.53522350125366" lon="10.325411852490824"><ele>149.0</ele><time>2026-04-04T15:05:56Z</time></trkpt><trkpt lat="45.53516353631288" lon="10.32531010576963"><ele>149.0</ele><time>2026-04-04T15:05:57Z</time></trkpt><trkpt lat="45.535076588941855" lon="10.325226429807591"><ele>149.0</ele><time>2026-04-04T15:05:58Z</time></trkpt><trkpt lat="45.53500130493139" lon="10.325137002776957"><ele>149.0</ele><time>2026-04-04T15:05:59Z</time></trkpt><trkpt lat="45.53494597116778" lon="10.3250698110703"><ele>149.0</ele><time>2026-04-04T15:06:00Z</time></trkpt><trkpt lat="45.534885051054694" lon="10.324974148634583"><ele>149.0</ele><time>2026-04-04T15:06:02Z</time></trkpt><trkpt lat="45.53494095780173" lon="10.324852477848935"><ele>149.0</ele><time>2026-04-04T15:06:05Z</time></trkpt><trkpt lat="45.53498250102329" lon="10.324751624223607"><ele>149.0</ele><time>2026-04-04T15:06:07Z</time></trkpt><trkpt lat="45.534984461290875" lon="10.324661729305465"><ele>149.0</ele><time>2026-04-04T15:06:09Z</time></trkpt><trkpt lat="45.53504524663542" lon="10.32462808043798"><ele>148.16666666666666</ele><time>2026-04-04T15:06:12Z</time></trkpt><trkpt lat="45.53513027822339" lon="10.324504018389344"><ele>147.33333333333331</ele><time>2026-04-04T15:06:14Z</time></trkpt><trkpt lat="45.53518266161183" lon="10.324424449333875"><ele>146.5</ele><time>2026-04-04T15:06:15Z</time></trkpt><trkpt lat="45.535229871955835" lon="10.324353379464402"><ele>145.66666666666666</ele><time>2026-04-04T15:06:16Z</time></trkpt><trkpt lat="45.53528250402412" lon="10.324291387645077"><ele>144.83333333333334</ele><time>2026-04-04T15:06:17Z</time></trkpt><trkpt lat="45.535326771272864" lon="10.324207942751562"><ele>144.0</ele><time>2026-04-04T15:06:18Z</time></trkpt><trkpt lat="45.5353783319258" lon="10.324129173216852"><ele>144.0</ele><time>2026-04-04T15:06:19Z</time></trkpt><trkpt lat="45.53542159069232" lon="10.324062611755737"><ele>144.0</ele><time>2026-04-04T15:06:20Z</time></trkpt><trkpt lat="45.535486301617766" lon="10.32393714897256"><ele>144.0</ele><time>2026-04-04T15:06:22Z</time></trkpt><trkpt lat="45.53550040253446" lon="10.323843918106355"><ele>144.0</ele><time>2026-04-04T15:06:25Z</time></trkpt><trkpt lat="45.535490947360785" lon="10.323754286722101"><ele>144.0</ele><time>2026-04-04T15:06:32Z</time></trkpt><trkpt lat="45.53544079637266" lon="10.323645189198446"><ele>144.0</ele><time>2026-04-04T15:06:34Z</time></trkpt><trkpt lat="45.535388276545" lon="10.323545692109786"><ele>144.0</ele><time>2026-04-04T15:06:36Z</time></trkpt><trkpt lat="45.53536434946662" lon="10.323458113380582"><ele>144.0</ele><time>2026-04-04T15:06:39Z</time></trkpt><trkpt lat="45.53538092994857" lon="10.323346673322618"><ele>144.0</ele><time>2026-04-04T15:06:44Z</time></trkpt><trkpt lat="45.535410068101676" lon="10.323214360096012"><ele>144.0</ele><time>2026-04-04T15:06:48Z</time></trkpt><trkpt lat="45.53545906695429" lon="10.323123611574635"><ele>144.0</ele><time>2026-04-04T15:06:50Z</time></trkpt><trkpt lat="45.5355110656547" lon="10.32301906863588"><ele>144.0</ele><time>2026-04-04T15:06:52Z</time></trkpt><trkpt lat="45.53555139869058" lon="10.32289440683887"><ele>144.0</ele><time>2026-04-04T15:06:54Z</time></trkpt><trkpt lat="45.53559113232623" lon="10.322803099822744"><ele>144.0</ele><time>2026-04-04T15:06:56Z</time></trkpt><trkpt lat="45.5356033852133" lon="10.322704896110707"><ele>144.0</ele><time>2026-04-04T15:07:00Z</time></trkpt><trkpt lat="45.53554009153206" lon="10.322639526957712"><ele>144.0</ele><time>2026-04-04T15:07:03Z</time></trkpt><trkpt lat="45.53560611001757" lon="10.32259784059189"><ele>144.0</ele><time>2026-04-04T15:07:09Z</time></trkpt><trkpt lat="45.535712096515326" lon="10.32257934309909"><ele>144.0</ele><time>2026-04-04T15:07:11Z</time></trkpt><trkpt lat="45.53580308256015" lon="10.322510144541578"><ele>144.00000000000003</ele><time>2026-04-04T15:07:13Z</time></trkpt><trkpt lat="45.53586822893634" lon="10.322462838218314"><ele>144.0</ele><time>2026-04-04T15:07:14Z</time></trkpt><trkpt lat="45.53592743174103" lon="10.322419419971737"><ele>144.0</ele><time>2026-04-04T15:07:15Z</time></trkpt><trkpt lat="45.53600741993849" lon="10.322345573976696"><ele>144.0</ele><time>2026-04-04T15:07:17Z</time></trkpt><trkpt lat="45.53604638854888" lon="10.322273921286648"><ele>144.0</ele><time>2026-04-04T15:07:27Z</time></trkpt><trkpt lat="45.53609973691541" lon="10.32221148321482"><ele>144.00000000000003</ele><time>2026-04-04T15:07:52Z</time></trkpt><trkpt lat="45.53615281437807" lon="10.322153480910796"><ele>144.0</ele><time>2026-04-04T15:07:54Z</time></trkpt><trkpt lat="45.5362287122322" lon="10.322071346932605"><ele>143.8</ele><time>2026-04-04T15:07:56Z</time></trkpt><trkpt lat="45.53629752569659" lon="10.32198743461537"><ele>143.60000000000002</ele><time>2026-04-04T15:07:58Z</time></trkpt><trkpt lat="45.536370484230865" lon="10.321917415361533"><ele>143.4</ele><time>2026-04-04T15:08:00Z</time></trkpt><trkpt lat="45.536424174375824" lon="10.321835621223652"><ele>143.20000000000002</ele><time>2026-04-04T15:08:02Z</time></trkpt><trkpt lat="45.53650060316142" lon="10.321748229306253"><ele>143.0</ele><time>2026-04-04T15:08:04Z</time></trkpt><trkpt lat="45.53657258426072" lon="10.321648908431726"><ele>143.0</ele><time>2026-04-04T15:08:06Z</time></trkpt><trkpt lat="45.53664843091211" lon="10.321562451398934"><ele>143.0</ele><time>2026-04-04T15:08:08Z</time></trkpt><trkpt lat="45.536700388483496" lon="10.321497862295711"><ele>143.0</ele><time>2026-04-04T15:08:10Z</time></trkpt><trkpt lat="45.5367465616457" lon="10.321425707353164"><ele>143.0</ele><time>2026-04-04T15:08:13Z</time></trkpt><trkpt lat="45.53679238123901" lon="10.321331116003728"><ele>143.0</ele><time>2026-04-04T15:08:24Z</time></trkpt><trkpt lat="45.536844732053076" lon="10.321254346331477"><ele>143.0</ele><time>2026-04-04T15:08:26Z</time></trkpt><trkpt lat="45.53689118444385" lon="10.321182850845844"><ele>143.16666666666666</ele><time>2026-04-04T15:08:28Z</time></trkpt><trkpt lat="45.536942484808456" lon="10.32109945523342"><ele>143.33333333333331</ele><time>2026-04-04T15:08:30Z</time></trkpt><trkpt lat="45.53699572337357" lon="10.320996994491972"><ele>143.5</ele><time>2026-04-04T15:08:32Z</time></trkpt><trkpt lat="45.53703365698919" lon="10.32090876398729"><ele>143.66666666666666</ele><time>2026-04-04T15:08:34Z</time></trkpt><trkpt lat="45.53707154931595" lon="10.320797373236479"><ele>143.83333333333334</ele><time>2026-04-04T15:08:36Z</time></trkpt><trkpt lat="45.537120430964684" lon="10.320715225595219"><ele>144.0</ele><time>2026-04-04T15:08:38Z</time></trkpt><trkpt lat="45.53715549422743" lon="10.320626839647707"><ele>144.5</ele><time>2026-04-04T15:08:40Z</time></trkpt><trkpt lat="45.53719816822057" lon="10.320528416014554"><ele>145.0</ele><time>2026-04-04T15:08:42Z</time></trkpt><trkpt lat="45.53724871809694" lon="10.320438496939161"><ele>145.5</ele><time>2026-04-04T15:08:44Z</time></trkpt><trkpt lat="45.53730021039732" lon="10.320326888186816"><ele>146.0</ele><time>2026-04-04T15:08:46Z</time></trkpt><trkpt lat="45.537354038577014" lon="10.320218225680424"><ele>146.5</ele><time>2026-04-04T15:08:48Z</time></trkpt><trkpt lat="45.53739758210347" lon="10.320136541004233"><ele>147.0</ele><time>2026-04-04T15:08:50Z</time></trkpt><trkpt lat="45.53744166218747" lon="10.320062597898112"><ele>147.0</ele><time>2026-04-04T15:08:52Z</time></trkpt><trkpt lat="45.53748687922453" lon="10.319980059806813"><ele>147.0</ele><time>2026-04-04T15:08:54Z</time></trkpt><trkpt lat="45.53753054410267" lon="10.319880111381389"><ele>147.0</ele><time>2026-04-04T15:08:56Z</time></trkpt><trkpt lat="45.53757279833793" lon="10.319764516540012"><ele>147.0</ele><time>2026-04-04T15:08:58Z</time></trkpt><trkpt lat="45.53762512997988" lon="10.319679036284803"><ele>147.0</ele><time>2026-04-04T15:09:00Z</time></trkpt><trkpt lat="45.537671944349626" lon="10.319593506298702"><ele>147.0</ele><time>2026-04-04T15:09:02Z</time></trkpt><trkpt lat="45.53772319877927" lon="10.319488481246076"><ele>147.0</ele><time>2026-04-04T15:09:04Z</time></trkpt><trkpt lat="45.53780106010007" lon="10.31937580138593"><ele>147.0</ele><time>2026-04-04T15:09:06Z</time></trkpt><trkpt lat="45.53786393533395" lon="10.319253457592618"><ele>147.0</ele><time>2026-04-04T15:09:08Z</time></trkpt><trkpt lat="45.537957605780555" lon="10.319143598846443"><ele>147.0</ele><time>2026-04-04T15:09:10Z</time></trkpt><trkpt lat="45.538013832822976" lon="10.31901924606077"><ele>147.0</ele><time>2026-04-04T15:09:12Z</time></trkpt><trkpt lat="45.538062735475734" lon="10.318909902462579"><ele>147.2</ele><time>2026-04-04T15:09:14Z</time></trkpt><trkpt lat="45.538111555157315" lon="10.31879711636196"><ele>147.39999999999998</ele><time>2026-04-04T15:09:16Z</time></trkpt><trkpt lat="45.538161339861624" lon="10.318679899532068"><ele>147.60000000000002</ele><time>2026-04-04T15:09:18Z</time></trkpt><trkpt lat="45.53819330432818" lon="10.318580644608982"><ele>147.8</ele><time>2026-04-04T15:09:20Z</time></trkpt><trkpt lat="45.53826931244302" lon="10.318445525835692"><ele>148.0</ele><time>2026-04-04T15:09:21Z</time></trkpt><trkpt lat="45.53832342303725" lon="10.318342877311842"><ele>148.0</ele><time>2026-04-04T15:09:24Z</time></trkpt><trkpt lat="45.538384975328455" lon="10.318243373759778"><ele>148.0</ele><time>2026-04-04T15:09:27Z</time></trkpt><trkpt lat="45.53844682141925" lon="10.318145174233234"><ele>148.0</ele><time>2026-04-04T15:09:30Z</time></trkpt><trkpt lat="45.53849225635933" lon="10.31805990100409"><ele>148.0</ele><time>2026-04-04T15:09:33Z</time></trkpt><trkpt lat="45.53851322344666" lon="10.317942728845672"><ele>148.0</ele><time>2026-04-04T15:09:37Z</time></trkpt><trkpt lat="45.53850209429557" lon="10.317816331633377"><ele>148.0</ele><time>2026-04-04T15:09:41Z</time></trkpt><trkpt lat="45.53844934539602" lon="10.31770750629212"><ele>148.16666666666669</ele><time>2026-04-04T15:09:43Z</time></trkpt><trkpt lat="45.5383714062956" lon="10.317614931145819"><ele>148.33333333333334</ele><time>2026-04-04T15:09:45Z</time></trkpt><trkpt lat="45.53829963778732" lon="10.31753093238252"><ele>148.5</ele><time>2026-04-04T15:09:47Z</time></trkpt><trkpt lat="45.53824038802805" lon="10.31746552036154"><ele>148.66666666666666</ele><time>2026-04-04T15:09:49Z</time></trkpt><trkpt lat="45.53819172909974" lon="10.317378013544129"><ele>148.83333333333331</ele><time>2026-04-04T15:09:51Z</time></trkpt><trkpt lat="45.538141433247496" lon="10.317276464857864"><ele>149.0</ele><time>2026-04-04T15:09:54Z</time></trkpt><trkpt lat="45.53810159290804" lon="10.31718014922566"><ele>149.33333333333331</ele><time>2026-04-04T15:09:57Z</time></trkpt><trkpt lat="45.53805134557327" lon="10.317092357466764"><ele>149.66666666666666</ele><time>2026-04-04T15:10:00Z</time></trkpt><trkpt lat="45.53801935859544" lon="10.316993096852572"><ele>150.0</ele><time>2026-04-04T15:10:03Z</time></trkpt><trkpt lat="45.53801050570875" lon="10.316875091773193"><ele>150.33333333333334</ele><time>2026-04-04T15:12:24Z</time></trkpt><trkpt lat="45.538005175064995" lon="10.316728447951252"><ele>150.66666666666669</ele><time>2026-04-04T15:12:26Z</time></trkpt><trkpt lat="45.53796338109438" lon="10.31663459530341"><ele>151.0</ele><time>2026-04-04T15:12:27Z</time></trkpt><trkpt lat="45.53791607748342" lon="10.316533461275505"><ele>151.33333333333334</ele><time>2026-04-04T15:12:28Z</time></trkpt><trkpt lat="45.537867073112224" lon="10.316427112696386"><ele>151.66666666666669</ele><time>2026-04-04T15:12:29Z</time></trkpt><trkpt lat="45.53781653262554" lon="10.316316852539957"><ele>152.0</ele><time>2026-04-04T15:12:30Z</time></trkpt><trkpt lat="45.53776021292677" lon="10.316216124818322"><ele>152.33333333333334</ele><time>2026-04-04T15:12:31Z</time></trkpt><trkpt lat="45.537698328802456" lon="10.31613362564491"><ele>152.66666666666666</ele><time>2026-04-04T15:12:32Z</time></trkpt><trkpt lat="45.53763431963536" lon="10.316064727632318"><ele>153.0</ele><time>2026-04-04T15:12:33Z</time></trkpt><trkpt lat="45.53757039919338" lon="10.316005520734342"><ele>153.0</ele><time>2026-04-04T15:12:34Z</time></trkpt><trkpt lat="45.537500309989774" lon="10.31594864672978"><ele>153.0</ele><time>2026-04-04T15:12:35Z</time></trkpt><trkpt lat="45.5374345513328" lon="10.315903670490194"><ele>153.0</ele><time>2026-04-04T15:12:36Z</time></trkpt><trkpt lat="45.53737311908944" lon="10.315864614804296"><ele>153.0</ele><time>2026-04-04T15:12:37Z</time></trkpt><trkpt lat="45.53730856142779" lon="10.315835939855209"><ele>153.0</ele><time>2026-04-04T15:12:38Z</time></trkpt><trkpt lat="45.53725194440626" lon="10.315792049565534"><ele>153.0</ele><time>2026-04-04T15:12:39Z</time></trkpt><trkpt lat="45.537144177316605" lon="10.315909904347672"><ele>153.0</ele><time>2026-04-04T15:12:41Z</time></trkpt><trkpt lat="45.537106452562846" lon="10.316011436467349"><ele>153.0</ele><time>2026-04-04T15:12:42Z</time></trkpt><trkpt lat="45.537069740474955" lon="10.316123225145008"><ele>153.0</ele><time>2026-04-04T15:12:43Z</time></trkpt><trkpt lat="45.53700291305183" lon="10.316220379583463"><ele>153.0</ele><time>2026-04-04T15:12:44Z</time></trkpt><trkpt lat="45.536957779085384" lon="10.316339612406416"><ele>153.0</ele><time>2026-04-04T15:12:45Z</time></trkpt><trkpt lat="45.53689324587521" lon="10.316448737978348"><ele>151.6</ele><time>2026-04-04T15:12:46Z</time></trkpt><trkpt lat="45.536828500698526" lon="10.316563437657898"><ele>150.20000000000002</ele><time>2026-04-04T15:12:47Z</time></trkpt><trkpt lat="45.53676424141221" lon="10.316680254685147"><ele>148.8</ele><time>2026-04-04T15:12:48Z</time></trkpt><trkpt lat="45.53669815450011" lon="10.316794943075855"><ele>147.4</ele><time>2026-04-04T15:12:49Z</time></trkpt><trkpt lat="45.53663089468851" lon="10.316910661729707"><ele>146.0</ele><time>2026-04-04T15:12:50Z</time></trkpt><trkpt lat="45.5365679053321" lon="10.317013145954125"><ele>146.0</ele><time>2026-04-04T15:12:51Z</time></trkpt><trkpt lat="45.536511107289165" lon="10.3171057915838"><ele>146.0</ele><time>2026-04-04T15:12:52Z</time></trkpt><trkpt lat="45.5364600052008" lon="10.317193384617065"><ele>146.0</ele><time>2026-04-04T15:12:53Z</time></trkpt><trkpt lat="45.53640015586827" lon="10.317304983606114"><ele>146.0</ele><time>2026-04-04T15:12:55Z</time></trkpt><trkpt lat="45.53635036672397" lon="10.317369880464753"><ele>146.0</ele><time>2026-04-04T15:13:08Z</time></trkpt><trkpt lat="45.53631008385719" lon="10.317443384720566"><ele>146.0</ele><time>2026-04-04T15:13:10Z</time></trkpt><trkpt lat="45.53624477815768" lon="10.317562548083204"><ele>145.5</ele><time>2026-04-04T15:13:12Z</time></trkpt><trkpt lat="45.53620390008994" lon="10.317637620180184"><ele>145.0</ele><time>2026-04-04T15:13:13Z</time></trkpt><trkpt lat="45.53615926002094" lon="10.317719731664472"><ele>144.5</ele><time>2026-04-04T15:13:14Z</time></trkpt><trkpt lat="45.53611052278189" lon="10.317809379523009"><ele>144.0</ele><time>2026-04-04T15:13:15Z</time></trkpt><trkpt lat="45.53605690491551" lon="10.317908004877154"><ele>143.5</ele><time>2026-04-04T15:13:16Z</time></trkpt><trkpt lat="45.53599959556293" lon="10.318013420400158"><ele>143.0</ele><time>2026-04-04T15:13:17Z</time></trkpt><trkpt lat="45.5359404761868" lon="10.318122165262904"><ele>142.83333333333331</ele><time>2026-04-04T15:13:18Z</time></trkpt><trkpt lat="45.5358854187" lon="10.318223438680892"><ele>142.66666666666666</ele><time>2026-04-04T15:13:19Z</time></trkpt><trkpt lat="45.535835737636084" lon="10.3183148226501"><ele>142.5</ele><time>2026-04-04T15:13:20Z</time></trkpt><trkpt lat="45.535792424057476" lon="10.318394494168997"><ele>142.33333333333334</ele><time>2026-04-04T15:13:21Z</time></trkpt><trkpt lat="45.53575203833978" lon="10.318468780098025"><ele>142.16666666666669</ele><time>2026-04-04T15:13:22Z</time></trkpt><trkpt lat="45.535643010601675" lon="10.318498768742044"><ele>142.0</ele><time>2026-04-04T15:13:24Z</time></trkpt><trkpt lat="45.535572616685535" lon="10.318438269384956"><ele>142.0</ele><time>2026-04-04T15:13:25Z</time></trkpt><trkpt lat="45.5355079389744" lon="10.318367717159333"><ele>142.0</ele><time>2026-04-04T15:13:26Z</time></trkpt><trkpt lat="45.535441616156476" lon="10.318301743597782"><ele>142.0</ele><time>2026-04-04T15:13:27Z</time></trkpt><trkpt lat="45.53536621706235" lon="10.318240871769175"><ele>142.0</ele><time>2026-04-04T15:13:27.999Z</time></trkpt><trkpt lat="45.53529102270125" lon="10.318185849653082"><ele>142.0</ele><time>2026-04-04T15:13:28.999Z</time></trkpt><trkpt lat="45.53522373732077" lon="10.318137164147245"><ele>142.0</ele><time>2026-04-04T15:13:29.999Z</time></trkpt><trkpt lat="45.53516208505376" lon="10.318094860569005"><ele>141.0</ele><time>2026-04-04T15:13:30.999Z</time></trkpt><trkpt lat="45.53505531618128" lon="10.31801092083031"><ele>141.0</ele><time>2026-04-04T15:13:32.999Z</time></trkpt><trkpt lat="45.5349854117918" lon="10.317977387374288"><ele>141.0</ele><time>2026-04-04T15:13:33.999Z</time></trkpt><trkpt lat="45.534913501724674" lon="10.317919827118645"><ele>141.0</ele><time>2026-04-04T15:13:35.999Z</time></trkpt><trkpt lat="45.53484818805087" lon="10.317932833912877"><ele>141.0</ele><time>2026-04-04T15:14:17Z</time></trkpt><trkpt lat="45.534912434169364" lon="10.317925422890825"><ele>141.0</ele><time>2026-04-04T15:15:37.999Z</time></trkpt><trkpt lat="45.534912434169364" lon="10.317925422890825"><ele>141.0</ele><time>2026-04-04T15:15:37.999Z</time></trkpt><trkpt lat="45.534912434169364" lon="10.317925422890825"><ele>141.0</ele><time>2026-04-04T15:15:37.999Z</time></trkpt></trkseg></trk></gpx>